
Distance (Route):
Temperature : 16.4°C
Humidity : 60.4%
Pressure : 925.4hPa| Receiver | Frames | First received | Last received |
|---|---|---|---|
| DK7TD | 810 | 2026-09-01 22:48:11 | 2026-09-02 01:00:12 |
| DM0DOS-11 | 455 | 2026-09-01 23:14:51 | 2026-09-02 00:52:22 |
| DO3MHA-12 | 245 | 2026-09-01 23:15:07 | 2026-09-02 01:03:24 |
| DG9SBQ-11 | 194 | 2026-09-01 22:47:28 | 2026-09-02 00:46:07 |
| DO3MHA-11 | 177 | 2026-09-01 23:16:09 | 2026-09-02 01:03:26 |
| DL1XH-west | 177 | 2026-09-02 00:05:25 | 2026-09-02 00:41:12 |
| DF8AY | 168 | 2026-09-02 00:03:10 | 2026-09-02 00:41:35 |
| IW2NTF | 163 | 2026-09-01 23:50:23 | 2026-09-02 00:44:03 |
| DL1XH1-15 | 147 | 2026-09-02 00:04:38 | 2026-09-02 00:40:45 |
| DJ8HS-15 | 110 | 2026-09-01 23:15:37 | 2026-09-02 00:51:37 |
| NBG1-10 | 70 | 2026-09-01 23:19:37 | 2026-09-02 01:03:39 |
| BIOWL1-15 | 68 | 2026-09-01 23:12:58 | 2026-09-02 00:50:12 |
| OE5DRO-10 | 64 | 2026-09-01 23:30:43 | 2026-09-02 00:49:08 |
| AZAK | 61 | 2026-09-01 22:46:01 | 2026-09-02 00:52:17 |
| OE5WHR-10 | 56 | 2026-09-01 23:46:03 | 2026-09-02 00:40:13 |
| DK5PH-5 | 55 | 2026-09-01 23:22:19 | 2026-09-02 01:02:03 |
| PG1ADW-2 | 53 | 2026-09-01 23:34:23 | 2026-09-02 00:48:20 |
| DL6DJ-15 | 52 | 2026-09-01 23:10:46 | 2026-09-02 00:53:48 |
| DF1GD-15 | 52 | 2026-09-01 23:15:16 | 2026-09-02 00:49:38 |
| DO9HM | 52 | 2026-09-01 23:30:07 | 2026-09-02 00:52:23 |
| DF7PN | 51 | 2026-09-01 22:54:44 | 2026-09-02 00:53:49 |
| DB0NH | 51 | 2026-09-01 23:17:21 | 2026-09-02 01:02:49 |
| OE5MMP-10 | 51 | 2026-09-02 00:10:09 | 2026-09-02 00:38:24 |
| DF3TZ-5 | 50 | 2026-09-01 22:46:44 | 2026-09-02 01:02:51 |
| DB0ND-19 | 46 | 2026-09-01 22:47:31 | 2026-09-02 01:02:00 |
| OE5DXL-15 | 46 | 2026-09-01 23:26:11 | 2026-09-02 00:48:41 |
| DN1GJH-1 | 41 | 2026-09-01 23:17:11 | 2026-09-02 00:52:18 |
| SONCRA | 40 | 2026-09-01 23:44:13 | 2026-09-02 00:45:18 |
| DJ2DS-15 | 36 | 2026-09-01 23:57:23 | 2026-09-02 00:39:54 |
| DM7RM-13 | 29 | 2026-09-01 23:22:18 | 2026-09-02 00:16:58 |
| DB0UT-7 | 26 | 2026-09-01 22:48:02 | 2026-09-02 01:01:13 |
| OE3JTB-15 | 26 | 2026-09-01 23:15:38 | 2026-09-02 00:47:38 |
| SONDE2-11 | 18 | 2026-09-01 23:52:28 | 2026-09-02 00:33:52 |
| OE9MKV-15 | 14 | 2026-09-01 23:44:31 | 2026-09-02 00:42:47 |
| AM1SDL-15 | 14 | 2026-09-01 23:53:34 | 2026-09-02 00:18:05 |
| DF8AY-15 | 11 | 2026-09-02 00:29:16 | 2026-09-02 00:38:18 |
| DL8DAS-14 | 10 | 2026-09-02 00:04:52 | 2026-09-02 00:39:31 |
| DH7VM-15 | 9 | 2026-09-01 23:17:08 | 2026-09-02 00:52:14 |
| BIOWL9-15 | 8 | 2026-09-01 23:15:15 | 2026-09-01 23:33:52 |
| EDDB2-11 | 8 | 2026-09-02 00:19:04 | 2026-09-02 00:36:09 |
| DJTTGO | 7 | 2026-09-01 23:28:47 | 2026-09-02 00:46:25 |
| AU51GT2 | 5 | 2026-09-02 00:23:04 | 2026-09-02 00:29:47 |
| OM5KV | 5 | 2026-09-02 00:37:24 | 2026-09-02 00:38:27 |
| DL1ZP-14 | 3 | 2026-09-01 22:56:52 | 2026-09-02 00:11:33 |
| KANTATE | 2 | 2026-09-01 23:20:24 | 2026-09-02 00:41:08 |
| HEMX73-6 | 2 | 2026-09-02 00:17:34 | 2026-09-02 00:25:44 |
| DL4BBY-15 | 1 | 2026-09-02 00:22:39 | 2026-09-02 00:22:39 |
| Receiver | Date | Latitude | Longitude | Direction | Speed | Altitude | Climb | Temperature | Humidity | Pressure | Voltage | Killtimer | Uptime | BKT | XDATA |
|---|---|---|---|---|---|---|---|---|---|---|---|---|---|---|---|
| NBG1-10 | 2026-09-02 01:03:39 | 48.83423 | 10.34273 | 73° | 5km/h | 878m | -10.9m/s | 16.4°C | 60.4% | 925.4hPa | 2.7V | 08:02:00 | 02:34:44 | 00:00:00 | |
| NBG1-10 | 2026-09-02 01:03:37 | 48.83423 | 10.34270 | 116° | 4km/h | 899m | -11.4m/s | 16.2°C | 61.0% | 923.0hPa | 2.7V | 00:00:00 | 02:34:42 | 00:00:00 | |
| NBG1-10 | 2026-09-02 01:03:33 | 48.83424 | 10.34264 | 112° | 5km/h | 945m | -12.4m/s | 15.8°C | 61.8% | 918.2hPa | 2.7V | 00:00:00 | 02:34:38 | 00:00:00 | |
| DO3MHA-11 | 2026-09-02 01:03:26 | 48.83426 | 10.34250 | 90° | 7km/h | 1022m | -11.2m/s | 15.1°C | 63.3% | 909.8hPa | 2.7V | 08:02:00 | 02:34:31 | 00:00:00 | |
| NBG1-10 | 2026-09-02 01:03:26 | 48.83426 | 10.34250 | 90° | 7km/h | 1022m | -11.2m/s | 15.1°C | 63.3% | 909.8hPa | 2.7V | 00:00:00 | 02:34:31 | 00:00:00 | |
| DO3MHA-11 | 2026-09-02 01:03:24 | 48.83427 | 10.34245 | 96° | 5km/h | 1044m | -11.6m/s | 15.0°C | 62.7% | 907.4hPa | 2.7V | 00:00:00 | 02:34:29 | 00:00:00 | |
| DO3MHA-12 | 2026-09-02 01:03:24 | 48.83427 | 10.34245 | 96° | 5km/h | 1044m | -11.6m/s | 15.0°C | 62.7% | 907.4hPa | 2.7V | 00:00:00 | 02:34:29 | 00:00:00 | |
| DO3MHA-11 | 2026-09-02 01:03:22 | 48.83427 | 10.34240 | 99° | 7km/h | 1066m | -10.6m/s | 14.8°C | 63.6% | 905.1hPa | 2.7V | 00:00:00 | 02:34:27 | 00:00:00 | |
| DO3MHA-12 | 2026-09-02 01:03:22 | 48.83427 | 10.34240 | 99° | 7km/h | 1066m | -10.6m/s | 14.8°C | 63.6% | 905.1hPa | 2.7V | 00:00:00 | 02:34:27 | 00:00:00 | |
| DO3MHA-12 | 2026-09-02 01:03:20 | 48.83428 | 10.34234 | 99° | 9km/h | 1089m | -11.7m/s | 14.6°C | 63.6% | 902.7hPa | 2.7V | 00:00:00 | 02:34:25 | 00:00:00 | |
| DO3MHA-11 | 2026-09-02 01:03:20 | 48.83428 | 10.34234 | 99° | 9km/h | 1089m | -11.7m/s | 14.6°C | 63.6% | 902.7hPa | 2.7V | 00:00:00 | 02:34:25 | 00:00:00 | |
| NBG1-10 | 2026-09-02 01:03:19 | 48.83429 | 10.34230 | 107° | 11km/h | 1100m | -11.8m/s | 14.6°C | 63.8% | 901.5hPa | 2.7V | 00:00:00 | 02:34:24 | 00:00:00 | |
| DO3MHA-12 | 2026-09-02 01:03:18 | 48.83430 | 10.34227 | 106° | 9km/h | 1111m | -10.8m/s | 14.6°C | 63.1% | 900.2hPa | 2.7V | 00:00:00 | 02:34:23 | 00:00:00 | |
| DO3MHA-11 | 2026-09-02 01:03:18 | 48.83430 | 10.34227 | 106° | 9km/h | 1111m | -10.8m/s | 14.6°C | 63.1% | 900.2hPa | 2.7V | 00:00:00 | 02:34:23 | 00:00:00 | |
| DO3MHA-11 | 2026-09-02 01:03:16 | 48.83431 | 10.34219 | 102° | 13km/h | 1132m | -11.9m/s | 14.5°C | 62.4% | 897.9hPa | 2.7V | 00:00:00 | 02:34:21 | 00:00:00 | |
| DO3MHA-12 | 2026-09-02 01:03:16 | 48.83431 | 10.34219 | 102° | 13km/h | 1132m | -11.9m/s | 14.5°C | 62.4% | 897.9hPa | 2.7V | 00:00:00 | 02:34:21 | 00:00:00 | |
| DO3MHA-12 | 2026-09-02 01:03:14 | 48.83432 | 10.34209 | 102° | 13km/h | 1153m | -11.5m/s | 14.3°C | 62.9% | 895.6hPa | 2.7V | 00:00:00 | 02:34:19 | 00:00:00 | |
| DO3MHA-11 | 2026-09-02 01:03:14 | 48.83432 | 10.34209 | 102° | 13km/h | 1153m | -11.5m/s | 14.3°C | 62.9% | 895.6hPa | 2.7V | 00:00:00 | 02:34:19 | 00:00:00 | |
| DO3MHA-12 | 2026-09-02 01:03:12 | 48.83434 | 10.34199 | 105° | 13km/h | 1176m | -11.7m/s | 14.1°C | 62.2% | 893.4hPa | 2.6V | 00:00:00 | 02:34:17 | 00:00:00 | |
| NBG1-10 | 2026-09-02 01:03:12 | 48.83434 | 10.34199 | 105° | 15km/h | 1176m | -11.7m/s | 14.1°C | 62.2% | 893.4hPa | 2.6V | 00:00:00 | 02:34:17 | 00:00:00 | |
| DO3MHA-11 | 2026-09-02 01:03:12 | 48.83434 | 10.34199 | 105° | 13km/h | 1176m | -11.7m/s | 14.1°C | 62.2% | 893.4hPa | 2.6V | 00:00:00 | 02:34:17 | 00:00:00 | |
| DO3MHA-11 | 2026-09-02 01:03:10 | 48.83435 | 10.34190 | 102° | 15km/h | 1198m | -11.4m/s | 13.9°C | 62.4% | 891.0hPa | 2.6V | 00:00:00 | 02:34:15 | 00:00:00 | |
| DO3MHA-12 | 2026-09-02 01:03:10 | 48.83435 | 10.34190 | 102° | 15km/h | 1198m | -11.4m/s | 13.9°C | 62.4% | 891.0hPa | 2.6V | 00:00:00 | 02:34:15 | 00:00:00 | |
| DO3MHA-11 | 2026-09-02 01:03:08 | 48.83436 | 10.34178 | 106° | 15km/h | 1220m | -11.9m/s | 13.7°C | 62.9% | 888.5hPa | 2.6V | 08:02:00 | 02:34:13 | 00:00:00 | |
| DO3MHA-12 | 2026-09-02 01:03:08 | 48.83436 | 10.34178 | 106° | 15km/h | 1220m | -11.9m/s | 13.7°C | 62.9% | 888.5hPa | 2.6V | 08:02:00 | 02:34:13 | 00:00:00 | |
| DO3MHA-11 | 2026-09-02 01:03:06 | 48.83438 | 10.34168 | 107° | 15km/h | 1243m | -12.0m/s | 13.6°C | 62.8% | 886.3hPa | 2.7V | 00:00:00 | 02:34:11 | 00:00:00 | |
| DO3MHA-12 | 2026-09-02 01:03:06 | 48.83438 | 10.34168 | 107° | 15km/h | 1243m | -12.0m/s | 13.6°C | 62.8% | 886.3hPa | 2.7V | 00:00:00 | 02:34:11 | 00:00:00 | |
| NBG1-10 | 2026-09-02 01:03:05 | 48.83439 | 10.34162 | 106° | 15km/h | 1255m | -11.5m/s | 13.5°C | 62.6% | 885.1hPa | 2.7V | 00:00:00 | 02:34:10 | 00:00:00 | |
| DO3MHA-12 | 2026-09-02 01:03:04 | 48.83440 | 10.34156 | 107° | 15km/h | 1266m | -11.8m/s | 13.5°C | 61.7% | 884.0hPa | 2.6V | 00:00:00 | 02:34:09 | 00:00:00 | |
| DO3MHA-11 | 2026-09-02 01:03:04 | 48.83440 | 10.34156 | 107° | 15km/h | 1266m | -11.8m/s | 13.5°C | 61.7% | 884.0hPa | 2.6V | 00:00:00 | 02:34:09 | 00:00:00 | |
| DO3MHA-11 | 2026-09-02 01:03:02 | 48.83442 | 10.34144 | 96° | 16km/h | 1288m | -11.3m/s | 13.4°C | 60.1% | 881.8hPa | 2.6V | 00:00:00 | 02:34:07 | 00:00:00 | |
| DO3MHA-12 | 2026-09-02 01:03:02 | 48.83442 | 10.34144 | 96° | 16km/h | 1288m | -11.3m/s | 13.4°C | 60.1% | 881.8hPa | 2.6V | 00:00:00 | 02:34:07 | 00:00:00 | |
| DF3TZ-5 | 2026-09-02 01:02:51 | 48.83439 | 10.34077 | 79° | 15km/h | 1427m | -10.6m/s | 12.4°C | 60.2% | 867.5hPa | 2.6V | 00:00:00 | 00:00:00 | 00:00:00 | |
| NBG1-10 | 2026-09-02 01:02:51 | 48.83440 | 10.34083 | 79° | 15km/h | 1417m | -10.9m/s | 12.5°C | 60.7% | 868.5hPa | 2.6V | 00:00:00 | 02:33:56 | 00:00:00 | |
| DO3MHA-12 | 2026-09-02 01:02:50 | 48.83439 | 10.34077 | 80° | 16km/h | 1428m | -10.6m/s | 12.3°C | 61.0% | 867.4hPa | 2.6V | 08:03:00 | 02:33:55 | 00:00:00 | |
| DO3MHA-11 | 2026-09-02 01:02:50 | 48.83439 | 10.34077 | 80° | 16km/h | 1428m | -10.6m/s | 12.3°C | 61.0% | 867.4hPa | 2.6V | 08:03:00 | 02:33:55 | 00:00:00 | |
| DB0NH | 2026-09-02 01:02:49 | 48.83438 | 10.34070 | 80° | 15km/h | 1438m | -10.2m/s | 12.2°C | 61.4% | 866.2hPa | 2.7V | 00:00:00 | 02:33:54 | 00:00:00 | |
| DO3MHA-12 | 2026-09-02 01:02:48 | 48.83437 | 10.34064 | 82° | 15km/h | 1448m | -11.2m/s | 12.1°C | 62.0% | 865.2hPa | 2.7V | 00:00:00 | 02:33:53 | 00:00:00 | |
| DO3MHA-11 | 2026-09-02 01:02:48 | 48.83437 | 10.34064 | 82° | 15km/h | 1448m | -11.2m/s | 12.1°C | 62.0% | 865.2hPa | 2.7V | 00:00:00 | 02:33:53 | 00:00:00 | |
| DO3MHA-12 | 2026-09-02 01:02:46 | 48.83436 | 10.34053 | 82° | 13km/h | 1472m | -11.3m/s | 11.9°C | 63.3% | 862.9hPa | 2.7V | 00:00:00 | 02:33:51 | 00:00:00 | |
| DO3MHA-11 | 2026-09-02 01:02:46 | 48.83436 | 10.34053 | 82° | 13km/h | 1472m | -11.3m/s | 11.9°C | 63.3% | 862.9hPa | 2.7V | 00:00:00 | 02:33:51 | 00:00:00 | |
| DO3MHA-11 | 2026-09-02 01:02:44 | 48.83434 | 10.34042 | 78° | 16km/h | 1494m | -11.1m/s | 11.7°C | 63.8% | 860.5hPa | 2.7V | 00:00:00 | 02:33:49 | 00:00:00 | |
| NBG1-10 | 2026-09-02 01:02:44 | 48.83434 | 10.34042 | 78° | 16km/h | 1494m | -11.1m/s | 11.7°C | 63.8% | 860.5hPa | 2.7V | 08:03:00 | 02:33:49 | 00:00:00 | |
| DO3MHA-12 | 2026-09-02 01:02:44 | 48.83434 | 10.34042 | 78° | 16km/h | 1494m | -11.1m/s | 11.7°C | 63.8% | 860.5hPa | 2.7V | 00:00:00 | 02:33:49 | 00:00:00 | |
| DO3MHA-12 | 2026-09-02 01:02:41 | 48.83432 | 10.34023 | 89° | 15km/h | 1527m | -11.0m/s | 11.4°C | 64.5% | 857.0hPa | 2.6V | 00:00:00 | 02:33:46 | 00:00:00 | |
| DO3MHA-11 | 2026-09-02 01:02:40 | 48.83432 | 10.34018 | 87° | 16km/h | 1538m | -11.6m/s | 11.4°C | 64.4% | 855.9hPa | 2.6V | 00:00:00 | 02:33:45 | 00:00:00 | |
| DB0NH | 2026-09-02 01:02:39 | 48.83432 | 10.34012 | 85° | 16km/h | 1549m | -11.9m/s | 11.3°C | 64.8% | 854.8hPa | 2.6V | 00:00:00 | 02:33:44 | 00:00:00 | |
| DO3MHA-12 | 2026-09-02 01:02:36 | 48.83430 | 10.33994 | 82° | 16km/h | 1582m | -12.0m/s | 11.1°C | 63.9% | 851.2hPa | 2.6V | 00:00:00 | 02:33:41 | 00:00:00 | |
| DO3MHA-11 | 2026-09-02 01:02:35 | 48.83429 | 10.33987 | 89° | 16km/h | 1593m | -10.2m/s | 11.0°C | 63.7% | 850.2hPa | 2.6V | 00:00:00 | 02:33:40 | 00:00:00 | |
| DO3MHA-12 | 2026-09-02 01:02:31 | 48.83427 | 10.33960 | 89° | 16km/h | 1635m | -10.4m/s | 10.6°C | 66.7% | 845.8hPa | 2.6V | 00:00:00 | 02:33:36 | 00:00:00 | |
| DO3MHA-11 | 2026-09-02 01:02:30 | 48.83427 | 10.33953 | 89° | 16km/h | 1645m | -10.4m/s | 10.5°C | 67.1% | 845.0hPa | 2.6V | 00:00:00 | 02:33:35 | 00:00:00 | |
| DB0NH | 2026-09-02 01:02:29 | 48.83426 | 10.33946 | 88° | 16km/h | 1656m | -11.7m/s | 10.4°C | 67.8% | 843.9hPa | 2.7V | 00:00:00 | 02:33:34 | 00:00:00 | |
| NBG1-10 | 2026-09-02 01:02:28 | 48.83425 | 10.33939 | 80° | 18km/h | 1667m | -10.3m/s | 10.3°C | 68.9% | 842.6hPa | 2.6V | 00:00:00 | 02:33:33 | 00:00:00 | |
| DO3MHA-12 | 2026-09-02 01:02:26 | 48.83424 | 10.33926 | 80° | 16km/h | 1689m | -11.8m/s | 10.1°C | 71.3% | 840.4hPa | 2.6V | 00:00:00 | 02:33:31 | 00:00:00 | |
| DO3MHA-11 | 2026-09-02 01:02:25 | 48.83423 | 10.33919 | 85° | 18km/h | 1700m | -12.4m/s | 10.0°C | 71.2% | 839.5hPa | 2.6V | 00:00:00 | 02:33:30 | 00:00:00 | |
| DO3MHA-11 | 2026-09-02 01:02:20 | 48.83421 | 10.33885 | 90° | 18km/h | 1758m | -12.0m/s | 9.5°C | 72.8% | 833.7hPa | 2.6V | 00:00:00 | 02:33:25 | 00:00:00 | |
| DF3TZ-5 | 2026-09-02 01:02:20 | 48.83421 | 10.33878 | 84° | 16km/h | 1769m | -11.2m/s | 9.5°C | 72.8% | 832.6hPa | 2.6V | 00:00:00 | 00:00:00 | 00:00:00 | |
| DB0NH | 2026-09-02 01:02:19 | 48.83421 | 10.33878 | 85° | 18km/h | 1769m | -11.2m/s | 9.4°C | 73.9% | 832.5hPa | 2.6V | 00:00:00 | 02:33:24 | 00:00:00 | |
| DO3MHA-12 | 2026-09-02 01:02:16 | 48.83420 | 10.33857 | 87° | 20km/h | 1804m | -11.6m/s | 9.1°C | 76.2% | 829.1hPa | 2.6V | 00:00:00 | 02:33:21 | 00:00:00 | |
| DO3MHA-11 | 2026-09-02 01:02:15 | 48.83419 | 10.33850 | 79° | 20km/h | 1815m | -11.4m/s | 9.0°C | 76.3% | 828.0hPa | 2.6V | 08:03:00 | 02:33:20 | 00:00:00 | |
| DO3MHA-12 | 2026-09-02 01:02:11 | 48.83418 | 10.33820 | 89° | 22km/h | 1858m | -10.9m/s | 8.7°C | 75.2% | 823.5hPa | 2.7V | 08:03:00 | 02:33:16 | 00:00:00 | |
| DO3MHA-11 | 2026-09-02 01:02:10 | 48.83417 | 10.33812 | 82° | 22km/h | 1869m | -12.0m/s | 8.6°C | 77.5% | 822.4hPa | 2.6V | 00:00:00 | 02:33:15 | 00:00:00 | |
| DB0NH | 2026-09-02 01:02:09 | 48.83417 | 10.33805 | 89° | 24km/h | 1881m | -12.3m/s | 8.6°C | 74.9% | 821.4hPa | 2.6V | 00:00:00 | 02:33:14 | 00:00:00 | |
| DO3MHA-12 | 2026-09-02 01:02:06 | 48.83416 | 10.33780 | 85° | 24km/h | 1916m | -12.4m/s | 8.4°C | 73.8% | 817.9hPa | 2.6V | 00:00:00 | 02:33:11 | 00:00:00 | |
| NBG1-10 | 2026-09-02 01:02:06 | 48.83416 | 10.33780 | 85° | 26km/h | 1916m | -12.4m/s | 8.4°C | 73.8% | 817.9hPa | 2.6V | 00:00:00 | 02:33:11 | 00:00:00 | |
| DK5PH-5 | 2026-09-02 01:02:03 | 48.83413 | 10.33754 | 80° | 26km/h | 1950m | -11.8m/s | 8.2°C | 72.3% | 814.7hPa | 2.6V | 08:03:00 | 02:33:08 | 00:00:00 | |
| DB0ND-19 | 2026-09-02 01:02:00 | 48.83410 | 10.33726 | 79° | 26km/h | 1983m | -11.5m/s | 8.0°C | 72.4% | 811.3hPa | 2.5V | 00:00:00 | 00:00:00 | 00:00:00 | |
| DF3TZ-5 | 2026-09-02 01:01:49 | 48.83389 | 10.33610 | 72° | 29km/h | 2117m | -10.8m/s | 6.9°C | 79.0% | 798.2hPa | 2.5V | 00:00:00 | 00:00:00 | 00:00:00 | |
| DO3MHA-12 | 2026-09-02 01:01:46 | 48.83384 | 10.33588 | 75° | 29km/h | 2139m | -11.0m/s | 6.7°C | 81.5% | 796.2hPa | 2.5V | 00:00:00 | 02:32:51 | 00:00:00 | |
| DB0NH | 2026-09-02 01:01:45 | 48.83382 | 10.33577 | 76° | 31km/h | 2151m | -11.6m/s | 6.6°C | 82.1% | 795.0hPa | 2.5V | 00:00:00 | 02:32:50 | 00:00:00 | |
| NBG1-10 | 2026-09-02 01:01:44 | 48.83380 | 10.33567 | 72° | 31km/h | 2162m | -11.6m/s | 6.5°C | 82.7% | 793.9hPa | 2.5V | 00:00:00 | 02:32:49 | 00:00:00 | |
| DO3MHA-12 | 2026-09-02 01:01:41 | 48.83373 | 10.33536 | 72° | 33km/h | 2197m | -10.9m/s | 6.2°C | 84.4% | 790.6hPa | 2.6V | 00:00:00 | 02:32:46 | 00:00:00 | |
| DO3MHA-11 | 2026-09-02 01:01:40 | 48.83370 | 10.33524 | 72° | 33km/h | 2207m | -10.5m/s | 6.1°C | 85.1% | 789.6hPa | 2.6V | 00:00:00 | 02:32:45 | 00:00:00 | |
| DO3MHA-12 | 2026-09-02 01:01:36 | 48.83361 | 10.33476 | 70° | 33km/h | 2251m | -12.4m/s | 5.6°C | 88.4% | 785.5hPa | 2.6V | 00:00:00 | 02:32:41 | 00:00:00 | |
| DO3MHA-11 | 2026-09-02 01:01:35 | 48.83358 | 10.33465 | 72° | 33km/h | 2263m | -12.0m/s | 5.5°C | 89.2% | 784.4hPa | 2.6V | 00:00:00 | 02:32:40 | 00:00:00 | |
| DO3MHA-12 | 2026-09-02 01:01:31 | 48.83348 | 10.33417 | 71° | 33km/h | 2309m | -11.2m/s | 5.1°C | 91.8% | 780.0hPa | 2.6V | 00:00:00 | 02:32:36 | 00:00:00 | |
| DO3MHA-11 | 2026-09-02 01:01:30 | 48.83345 | 10.33406 | 75° | 33km/h | 2320m | -10.8m/s | 5.0°C | 92.4% | 778.8hPa | 2.6V | 08:04:00 | 02:32:35 | 00:00:00 | |
| DB0ND-19 | 2026-09-02 01:01:29 | 48.83343 | 10.33394 | 76° | 31km/h | 2331m | -11.8m/s | 5.0°C | 90.9% | 777.9hPa | 2.5V | 00:00:00 | 00:00:00 | 00:00:00 | |
| DO3MHA-12 | 2026-09-02 01:01:26 | 48.83338 | 10.33358 | 79° | 31km/h | 2365m | -11.5m/s | 4.6°C | 94.3% | 774.5hPa | 2.5V | 08:04:00 | 02:32:31 | 00:00:00 | |
| DK5PH-5 | 2026-09-02 01:01:25 | 48.83336 | 10.33346 | 78° | 22km/h | 2377m | -12.1m/s | 4.5°C | 95.0% | 773.4hPa | 2.5V | 00:00:00 | 02:32:30 | 00:00:00 | |
| NBG1-10 | 2026-09-02 01:01:22 | 48.83331 | 10.33311 | 81° | 22km/h | 2411m | -10.4m/s | 4.3°C | 94.5% | 770.1hPa | 2.5V | 00:00:00 | 02:32:27 | 00:00:00 | |
| DO3MHA-12 | 2026-09-02 01:01:21 | 48.83330 | 10.33300 | 82° | 29km/h | 2423m | -12.7m/s | 4.3°C | 90.3% | 769.2hPa | 2.5V | 00:00:00 | 02:32:26 | 00:00:00 | |
| DO3MHA-11 | 2026-09-02 01:01:20 | 48.83329 | 10.33288 | 81° | 27km/h | 2435m | -11.7m/s | 4.3°C | 89.1% | 768.0hPa | 2.5V | 00:00:00 | 02:32:25 | 00:00:00 | |
| DF3TZ-5 | 2026-09-02 01:01:17 | 48.83327 | 10.33256 | 87° | 26km/h | 2468m | -10.1m/s | 4.2°C | 83.5% | 764.8hPa | 2.5V | 00:00:00 | 00:00:00 | 00:00:00 | |
| DO3MHA-12 | 2026-09-02 01:01:16 | 48.83327 | 10.33246 | 86° | 26km/h | 2478m | -10.6m/s | 4.1°C | 82.4% | 763.8hPa | 2.5V | 00:00:00 | 02:32:21 | 00:00:00 | |
| DO3MHA-11 | 2026-09-02 01:01:15 | 48.83326 | 10.33236 | 85° | 24km/h | 2489m | -12.5m/s | 4.0°C | 80.8% | 762.7hPa | 2.5V | 00:00:00 | 02:32:20 | 00:00:00 | |
| DB0UT-7 | 2026-09-02 01:01:13 | 48.83325 | 10.33216 | 91° | 16km/h | 2512m | -11.9m/s | 3.9°C | 79.6% | 760.5hPa | 2.6V | 00:00:00 | 00:00:00 | 00:00:00 | |
| DO3MHA-12 | 2026-09-02 01:01:11 | 48.83325 | 10.33199 | 89° | 20km/h | 2535m | -11.7m/s | 3.9°C | 74.2% | 758.3hPa | 2.5V | 00:00:00 | 02:32:16 | 00:00:00 | |
| DO3MHA-11 | 2026-09-02 01:01:10 | 48.83325 | 10.33191 | 92° | 18km/h | 2546m | -11.4m/s | 3.8°C | 72.4% | 757.3hPa | 2.5V | 00:00:00 | 02:32:15 | 00:00:00 | |
| DO3MHA-12 | 2026-09-02 01:01:06 | 48.83327 | 10.33161 | 92° | 16km/h | 2591m | -12.8m/s | 3.9°C | 59.2% | 753.0hPa | 2.5V | 00:00:00 | 02:32:11 | 00:00:00 | |
| DB0NH | 2026-09-02 01:01:05 | 48.83327 | 10.33155 | 94° | 16km/h | 2604m | -12.9m/s | 4.1°C | 54.7% | 751.9hPa | 2.5V | 00:00:00 | 02:32:10 | 00:00:00 | |
| DB0ND-19 | 2026-09-02 01:00:58 | 48.83332 | 10.33115 | 108° | 13km/h | 2687m | -11.8m/s | 4.4°C | 39.9% | 744.3hPa | 2.6V | 00:00:00 | 00:00:00 | 00:00:00 | |
| DO3MHA-12 | 2026-09-02 01:00:56 | 48.83334 | 10.33104 | 110° | 15km/h | 2711m | -12.6m/s | 4.4°C | 38.4% | 742.0hPa | 2.6V | 00:00:00 | 02:32:01 | 00:00:00 | |
| DO3MHA-11 | 2026-09-02 01:00:55 | 48.83336 | 10.33098 | 111° | 15km/h | 2722m | -11.2m/s | 4.4°C | 37.3% | 741.2hPa | 2.5V | 00:00:00 | 02:32:00 | 00:00:00 | |
| DO3MHA-12 | 2026-09-02 01:00:51 | 48.83341 | 10.33077 | 109° | 18km/h | 2768m | -13.2m/s | 4.3°C | 36.1% | 737.0hPa | 2.5V | 00:00:00 | 02:31:56 | 00:00:00 | |
| DO3MHA-11 | 2026-09-02 01:00:50 | 48.83342 | 10.33070 | 103° | 18km/h | 2782m | -13.9m/s | 4.3°C | 36.5% | 736.0hPa | 2.5V | 00:00:00 | 02:31:55 | 00:00:00 | |
| DO3MHA-12 | 2026-09-02 01:00:46 | 48.83347 | 10.33043 | 110° | 16km/h | 2833m | -12.9m/s | 3.9°C | 39.8% | 731.2hPa | 2.5V | 00:00:00 | 02:31:51 | 00:00:00 | |
| DO3MHA-11 | 2026-09-02 01:00:45 | 48.83349 | 10.33037 | 108° | 16km/h | 2845m | -12.0m/s | 3.8°C | 40.3% | 729.9hPa | 2.5V | 08:05:00 | 02:31:50 | 00:00:00 | |
| DO3MHA-12 | 2026-09-02 01:00:41 | 48.83356 | 10.33012 | 118° | 18km/h | 2890m | -12.6m/s | 3.5°C | 42.1% | 725.7hPa | 2.6V | 08:05:00 | 02:31:46 | 00:00:00 | |
| DO3MHA-11 | 2026-09-02 01:00:40 | 48.83358 | 10.33006 | 118° | 18km/h | 2904m | -13.9m/s | 3.6°C | 41.7% | 724.7hPa | 2.6V | 00:00:00 | 02:31:45 | 00:00:00 | |
| NBG1-10 | 2026-09-02 01:00:38 | 48.83362 | 10.32994 | 121° | 20km/h | 2931m | -13.3m/s | 3.5°C | 39.9% | 722.3hPa | 2.6V | 00:00:00 | 02:31:43 | 00:00:00 | |
| DO3MHA-12 | 2026-09-02 01:00:36 | 48.83366 | 10.32981 | 116° | 20km/h | 2955m | -12.6m/s | 3.5°C | 35.0% | 720.1hPa | 2.5V | 00:00:00 | 02:31:41 | 00:00:00 | |
| DO3MHA-11 | 2026-09-02 01:00:35 | 48.83369 | 10.32973 | 120° | 20km/h | 2966m | -10.9m/s | 3.5°C | 36.2% | 719.0hPa | 2.5V | 00:00:00 | 02:31:40 | 00:00:00 | |
| DB0UT-7 | 2026-09-02 01:00:33 | 48.83373 | 10.32959 | 126° | 20km/h | 2989m | -11.5m/s | 3.4°C | 36.7% | 717.0hPa | 2.5V | 00:00:00 | 00:00:00 | 00:00:00 | |
| DO3MHA-12 | 2026-09-02 01:00:31 | 48.83379 | 10.32947 | 126° | 20km/h | 3012m | -12.1m/s | 3.3°C | 36.0% | 715.0hPa | 2.5V | 00:00:00 | 02:31:36 | 00:00:00 | |
| DO3MHA-11 | 2026-09-02 01:00:30 | 48.83381 | 10.32942 | 129° | 20km/h | 3024m | -12.9m/s | 3.2°C | 34.6% | 714.0hPa | 2.5V | 00:00:00 | 02:31:35 | 00:00:00 | |
| DK7TD | 2026-09-02 01:00:12 | 48.83436 | 10.32824 | 122° | 22km/h | 3237m | -10.9m/s | 1.8°C | 48% | 695.8hPa | 2.5V | 08:06:33 | 02:31:17 | 00:00:00 | |
| DK7TD | 2026-09-02 01:00:01 | 48.83465 | 10.32738 | 115° | 22km/h | 3363m | -12.5m/s | 1°C | 45.3% | 684.7hPa | 2.6V | 08:06:33 | 02:31:06 | 00:00:00 | |
| DK7TD | 2026-09-02 00:59:51 | 48.83483 | 10.32652 | 109° | 24km/h | 3484m | -10.9m/s | 0.1°C | 44.1% | 674.7hPa | 2.5V | 08:06:33 | 02:30:56 | 00:00:00 | |
| DF3TZ-5 | 2026-09-02 00:59:44 | 48.83495 | 10.32586 | 101° | 27km/h | 3568m | -12.1m/s | -0.5°C | 38.7% | 667.8hPa | 2.5V | 00:00:00 | 00:00:00 | 00:00:00 | |
| DK7TD | 2026-09-02 00:59:41 | 48.83501 | 10.32556 | 106° | 29km/h | 3604m | -11.7m/s | -0.7°C | 44.9% | 664.9hPa | 2.5V | 08:06:33 | 02:30:46 | 00:00:00 | |
| DK7TD | 2026-09-02 00:59:31 | 48.83516 | 10.32442 | 97° | 31km/h | 3719m | -12.2m/s | -1.5°C | 45.5% | 655.1hPa | 2.6V | 08:06:33 | 02:30:36 | 00:00:00 | |
| DK7TD | 2026-09-02 00:59:20 | 48.83527 | 10.32291 | 94° | 40km/h | 3847m | -11.7m/s | -2.3°C | 45.4% | 644.8hPa | 2.6V | 08:07:24 | 02:30:25 | 00:00:00 | |
| DK7TD | 2026-09-02 00:59:09 | 48.83534 | 10.32135 | 94° | 37km/h | 3975m | -12.5m/s | -3.5°C | 52.3% | 634.3hPa | 2.6V | 08:07:24 | 02:30:14 | 00:00:00 | |
| DK7TD | 2026-09-02 00:58:59 | 48.83542 | 10.32006 | 98° | 33km/h | 4089m | -11.5m/s | -4.4°C | 58.4% | 625.1hPa | 2.6V | 08:07:24 | 02:30:04 | 00:00:00 | |
| DK7TD | 2026-09-02 00:58:48 | 48.83562 | 10.31860 | 104° | 38km/h | 4214m | -11.1m/s | -5.1°C | 59% | 615.1hPa | 2.6V | 08:07:24 | 02:29:53 | 00:00:00 | |
| DK7TD | 2026-09-02 00:58:38 | 48.83588 | 10.31721 | 108° | 38km/h | 4326m | -10.5m/s | -5.7°C | 59.2% | 606.4hPa | 2.6V | 08:07:24 | 02:29:43 | 00:00:00 | |
| DK7TD | 2026-09-02 00:58:27 | 48.83626 | 10.31564 | 113° | 42km/h | 4452m | -11.8m/s | -6.8°C | 61.4% | 596.7hPa | 2.6V | 08:08:15 | 02:29:32 | 00:00:00 | |
| DK7TD | 2026-09-02 00:58:17 | 48.83668 | 10.31420 | 113° | 44km/h | 4566m | -11.4m/s | -7.4°C | 61.6% | 588.1hPa | 2.5V | 08:08:15 | 02:29:22 | 00:00:00 | |
| DK7TD | 2026-09-02 00:58:07 | 48.83711 | 10.31263 | 111° | 44km/h | 4681m | -11.4m/s | -8.1°C | 59.4% | 579.6hPa | 2.6V | 08:08:15 | 02:29:12 | 00:00:00 | |
| DK7TD | 2026-09-02 00:57:56 | 48.83752 | 10.31079 | 106° | 47km/h | 4812m | -10.8m/s | -9°C | 64.8% | 569.8hPa | 2.6V | 08:08:15 | 02:29:01 | 00:00:00 | |
| DK7TD | 2026-09-02 00:57:45 | 48.83790 | 10.30887 | 106° | 49km/h | 4938m | -11.2m/s | -10°C | 70.3% | 560.6hPa | 2.5V | 08:08:15 | 02:28:50 | 00:00:00 | |
| DK7TD | 2026-09-02 00:57:35 | 48.83828 | 10.30702 | 109° | 49km/h | 5051m | -11.5m/s | -11°C | 69.4% | 552.6hPa | 2.6V | 08:09:06 | 02:28:40 | 00:00:00 | |
| DK7TD | 2026-09-02 00:57:24 | 48.83872 | 10.30488 | 110° | 55km/h | 5182m | -12.3m/s | -12.1°C | 72.3% | 543.2hPa | 2.5V | 08:09:06 | 02:28:29 | 00:00:00 | |
| DK7TD | 2026-09-02 00:57:13 | 48.83923 | 10.30274 | 112° | 53km/h | 5315m | -12.2m/s | -13.4°C | 80.1% | 533.8hPa | 2.5V | 08:09:06 | 02:28:18 | 00:00:00 | |
| DK7TD | 2026-09-02 00:57:02 | 48.83978 | 10.30062 | 112° | 53km/h | 5450m | -11.6m/s | -14.7°C | 83.9% | 524.6hPa | 2.6V | 08:09:06 | 02:28:07 | 00:00:00 | |
| DK7TD | 2026-09-02 00:56:51 | 48.84023 | 10.29852 | 105° | 53km/h | 5582m | -11.9m/s | -15.7°C | 84.7% | 515.5hPa | 2.6V | 08:09:06 | 02:27:56 | 00:00:00 | |
| DB0ND-19 | 2026-09-02 00:56:50 | 48.84030 | 10.29813 | 103° | 53km/h | 5606m | -12.0m/s | -15.5°C | 72.3% | 513.9hPa | 2.6V | 00:00:00 | 00:00:00 | 00:00:00 | |
| DK7TD | 2026-09-02 00:56:40 | 48.84055 | 10.29628 | 102° | 57km/h | 5715m | -12.1m/s | -15.3°C | 54.2% | 506.7hPa | 2.6V | 08:09:57 | 02:27:45 | 00:00:00 | |
| DK7TD | 2026-09-02 00:56:30 | 48.84083 | 10.29417 | 101° | 57km/h | 5833m | -11.3m/s | -15.9°C | 51.8% | 498.6hPa | 2.6V | 08:09:57 | 02:27:35 | 00:00:00 | |
| DK7TD | 2026-09-02 00:56:20 | 48.84113 | 10.29210 | 105° | 53km/h | 5950m | -12.7m/s | -16.3°C | 47.6% | 490.8hPa | 2.6V | 08:09:57 | 02:27:25 | 00:00:00 | |
| DK7TD | 2026-09-02 00:56:09 | 48.84151 | 10.29000 | 106° | 49km/h | 6083m | -12.9m/s | -17.2°C | 45.8% | 482.4hPa | 2.5V | 08:09:57 | 02:27:14 | 00:00:00 | |
| DK7TD | 2026-09-02 00:55:59 | 48.84185 | 10.28817 | 103° | 49km/h | 6202m | -12.5m/s | -18°C | 42.9% | 474.7hPa | 2.5V | 08:09:57 | 02:27:04 | 00:00:00 | |
| DK7TD | 2026-09-02 00:55:49 | 48.84213 | 10.28630 | 100° | 53km/h | 6321m | -10.7m/s | -18.4°C | 34.5% | 467.1hPa | 2.6V | 08:10:48 | 02:26:54 | 00:00:00 | |
| DK7TD | 2026-09-02 00:55:39 | 48.84236 | 10.28429 | 98° | 57km/h | 6443m | -12.7m/s | -19.3°C | 38% | 459.7hPa | 2.5V | 08:10:48 | 02:26:44 | 00:00:00 | |
| DK7TD | 2026-09-02 00:55:28 | 48.84259 | 10.28197 | 101° | 57km/h | 6578m | -12.3m/s | -20.3°C | 43.9% | 451.3hPa | 2.5V | 08:10:48 | 02:26:33 | 00:00:00 | |
| DK7TD | 2026-09-02 00:55:17 | 48.84292 | 10.27971 | 104° | 51km/h | 6710m | -12.5m/s | -21.5°C | 42.9% | 443.2hPa | 2.5V | 08:10:48 | 02:26:22 | 00:00:00 | |
| DK7TD | 2026-09-02 00:55:07 | 48.84324 | 10.27779 | 103° | 51km/h | 6833m | -12.7m/s | -22.6°C | 50.6% | 435.9hPa | 2.5V | 08:10:48 | 02:26:12 | 00:00:00 | |
| DK7TD | 2026-09-02 00:54:57 | 48.84359 | 10.27584 | 106° | 53km/h | 6957m | -11.2m/s | -23.8°C | 59.2% | 428.7hPa | 2.5V | 08:11:39 | 02:26:02 | 00:00:00 | |
| DK7TD | 2026-09-02 00:54:47 | 48.84403 | 10.27394 | 110° | 55km/h | 7081m | -13.2m/s | -24.3°C | 32.7% | 421.5hPa | 2.5V | 08:11:39 | 02:25:52 | 00:00:00 | |
| DB0ND-19 | 2026-09-02 00:54:46 | 48.84417 | 10.27333 | 106° | 57km/h | 7119m | -12.1m/s | -24.4°C | 24.3% | 419.4hPa | 2.5V | 00:00:00 | 00:00:00 | 00:00:00 | |
| DK7TD | 2026-09-02 00:54:36 | 48.84444 | 10.27165 | 102° | 55km/h | 7217m | -12.7m/s | -24.8°C | 36.8% | 413.7hPa | 2.5V | 08:11:39 | 02:25:41 | 00:00:00 | |
| DK7TD | 2026-09-02 00:54:25 | 48.84480 | 10.26933 | 105° | 55km/h | 7354m | -11.8m/s | -26.1°C | 41.7% | 405.9hPa | 2.5V | 08:11:39 | 02:25:30 | 00:00:00 | |
| DK7TD | 2026-09-02 00:54:14 | 48.84516 | 10.26703 | 103° | 57km/h | 7482m | -11.2m/s | -27.3°C | 44.3% | 398.6hPa | 2.6V | 08:12:30 | 02:25:19 | 00:00:00 | |
| DK7TD | 2026-09-02 00:54:03 | 48.84551 | 10.26461 | 102° | 60km/h | 7611m | -12m/s | -28.4°C | 47.1% | 391.5hPa | 2.6V | 08:12:30 | 02:25:08 | 00:00:00 | |
| DK7TD | 2026-09-02 00:53:52 | 48.84582 | 10.26208 | 99° | 62km/h | 7739m | -11m/s | -29.6°C | 52.2% | 384.6hPa | 2.6V | 08:12:30 | 02:24:57 | 00:00:00 | |
| DF7PN | 2026-09-02 00:53:49 | 48.84589 | 10.26137 | 99° | 62km/h | 7777m | -12.9m/s | -30.0°C | 45.1% | 382.7hPa | 2.6V | 00:00:00 | 00:00:00 | 00:00:00 | |
| DL6DJ-15 | 2026-09-02 00:53:48 | 48.84592 | 10.26113 | 101° | 60km/h | 7789m | -12.8m/s | -30.1°C | 45.6% | 382.0hPa | 2.6V | 00:00:00 | 00:00:00 | 00:00:00 | |
| DK7TD | 2026-09-02 00:53:41 | 48.84609 | 10.25951 | 99° | 60km/h | 7871m | -11.2m/s | -30.9°C | 55.3% | 377.6hPa | 2.6V | 08:12:30 | 02:24:46 | 00:00:00 | |
| DK7TD | 2026-09-02 00:53:31 | 48.84629 | 10.25716 | 97° | 60km/h | 7995m | -13.2m/s | -32°C | 56.5% | 371.1hPa | 2.6V | 08:12:30 | 02:24:36 | 00:00:00 | |
| DK7TD | 2026-09-02 00:53:20 | 48.84643 | 10.25455 | 95° | 62km/h | 8130m | -12.3m/s | -33.2°C | 59.3% | 364hPa | 2.6V | 08:13:21 | 02:24:25 | 00:00:00 | |
| DK7TD | 2026-09-02 00:53:10 | 48.84650 | 10.25203 | 92° | 68km/h | 8251m | -11.5m/s | -34.3°C | 58.1% | 357.8hPa | 2.6V | 08:13:21 | 02:24:15 | 00:00:00 | |
| DK7TD | 2026-09-02 00:53:00 | 48.84656 | 10.24955 | 92° | 66km/h | 8380m | -13.1m/s | -35.5°C | 61.5% | 351.3hPa | 2.5V | 08:13:21 | 02:24:05 | 00:00:00 | |
| DK7TD | 2026-09-02 00:52:50 | 48.84663 | 10.24705 | 92° | 64km/h | 8506m | -11m/s | -36.7°C | 64.6% | 344.9hPa | 2.5V | 08:13:21 | 02:23:55 | 00:00:00 | |
| DF7PN | 2026-09-02 00:52:47 | 48.84665 | 10.24629 | 93° | 66km/h | 8542m | -12.5m/s | -37.1°C | 58.7% | 343.1hPa | 2.5V | 00:00:00 | 00:00:00 | 00:00:00 | |
| DL6DJ-15 | 2026-09-02 00:52:46 | 48.84666 | 10.24604 | 92° | 64km/h | 8555m | -12.7m/s | -37.2°C | 58.9% | 342.5hPa | 2.5V | 00:00:00 | 00:00:00 | 00:00:00 | |
| DK7TD | 2026-09-02 00:52:40 | 48.84670 | 10.24454 | 91° | 66km/h | 8633m | -13.7m/s | -38°C | 65.9% | 338.7hPa | 2.5V | 08:13:21 | 02:23:45 | 00:00:00 | |
| DK7TD | 2026-09-02 00:52:30 | 48.84672 | 10.24210 | 88° | 64km/h | 8768m | -13.4m/s | -38.8°C | 35.6% | 332.2hPa | 2.6V | 08:14:12 | 02:23:35 | 00:00:00 | |
| DF3TZ-5 | 2026-09-02 00:52:30 | 48.84671 | 10.24185 | 88° | 64km/h | 8781m | -14.1m/s | -38.9°C | 26.6% | 331.6hPa | 2.6V | 00:00:00 | 00:00:00 | 00:00:00 | |
| DO3MHA-12 | 2026-09-02 00:52:26 | 48.84669 | 10.24112 | 90° | 66km/h | 8823m | -13.7m/s | -38.8°C | 24.9% | 329.5hPa | 2.6V | 00:00:00 | 02:23:31 | 00:00:00 | |
| DO9HM | 2026-09-02 00:52:23 | 48.84669 | 10.24062 | 89° | 66km/h | 8850m | -14.2m/s | -38.9°C | 19.9% | 328.2hPa | 2.6V | 08:14:00 | 00:00:00 | 00:00:00 | |
| DM0DOS-11 | 2026-09-02 00:52:22 | 48.84667 | 10.23962 | 88° | 66km/h | 8907m | -14.2m/s | -39.3°C | 22.1% | 325.6hPa | 2.6V | 08:13:35 | 02:23:25 | 00:00:00 | |
| DK7TD | 2026-09-02 00:52:20 | 48.84667 | 10.23962 | 88° | 66km/h | 8907m | -14.2m/s | -39.3°C | 23.9% | 325.6hPa | 2.6V | 08:14:12 | 02:23:25 | 00:00:00 | |
| DO3MHA-11 | 2026-09-02 00:52:20 | 48.84667 | 10.23962 | 89° | 68km/h | 8907m | -14.1m/s | -39.2°C | 22.1% | 325.5hPa | 2.6V | 00:00:00 | 02:23:25 | 00:00:00 | |
| DN1GJH-1 | 2026-09-02 00:52:18 | 48.84666 | 10.23936 | 89° | 68km/h | 8921m | -14.6m/s | -39.3°C | 18.1% | 324.9hPa | 2.5V | 08:14:00 | 00:00:00 | 00:00:00 | |
| AZAK | 2026-09-02 00:52:17 | 48.84666 | 10.23884 | 91° | 68km/h | 8950m | -14.4m/s | -39.4°C | 17.4% | 323.6hPa | 2.5V | 08:14:00 | 00:00:00 | 00:00:00 | |
| DO3MHA-12 | 2026-09-02 00:52:16 | 48.84666 | 10.23858 | 91° | 69km/h | 8964m | -14.2m/s | -39.5°C | 20.8% | 322.8hPa | 2.5V | 00:00:00 | 02:23:21 | 00:00:00 | |
| DL6DJ-15 | 2026-09-02 00:52:15 | 48.84666 | 10.23832 | 90° | 68km/h | 8978m | -14.0m/s | -39.7°C | 17.3% | 322.2hPa | 2.5V | 00:00:00 | 00:00:00 | 00:00:00 | |
| DH7VM-15 | 2026-09-02 00:52:14 | 48.84666 | 10.23832 | 91° | 68km/h | 8978m | -14.0m/s | -39.7°C | 17.3% | 322.2hPa | 2.5V | 00:00:00 | 00:00:00 | 00:00:00 | |
| DM0DOS-11 | 2026-09-02 00:52:12 | 48.84668 | 10.23699 | 91° | 69km/h | 9052m | -14.9m/s | -40.3°C | 19.8% | 318.8hPa | 2.5V | 08:13:45 | 02:23:15 | 00:00:00 | |
| DK7TD | 2026-09-02 00:52:09 | 48.84668 | 10.23672 | 92° | 69km/h | 9066m | -15.1m/s | -40.4°C | 21.2% | 318.1hPa | 2.6V | 08:14:12 | 02:23:14 | 00:00:00 | |
| DO3MHA-12 | 2026-09-02 00:52:06 | 48.84669 | 10.23591 | 91° | 71km/h | 9110m | -14.5m/s | -40.5°C | 18.7% | 316.1hPa | 2.5V | 00:00:00 | 02:23:11 | 00:00:00 | |
| DB0UT-7 | 2026-09-02 00:52:05 | 48.84669 | 10.23564 | 90° | 73km/h | 9124m | -14.4m/s | -40.6°C | 18.7% | 315.4hPa | 2.5V | 00:00:00 | 02:23:10 | 00:00:00 | |
| DM0DOS-11 | 2026-09-02 00:52:03 | 48.84667 | 10.23430 | 87° | 71km/h | 9196m | -14.1m/s | -41.1°C | 18.2% | 312.1hPa | 2.5V | 08:13:55 | 02:23:05 | 00:00:00 | |
| DK7TD | 2026-09-02 00:51:58 | 48.84665 | 10.23377 | 86° | 71km/h | 9224m | -15.6m/s | -41.2°C | 19.9% | 310.9hPa | 2.6V | 08:14:12 | 02:23:03 | 00:00:00 | |
| AZAK | 2026-09-02 00:51:57 | 48.84664 | 10.23349 | 88° | 73km/h | 9240m | -15.4m/s | -41.3°C | 14.7% | 310.2hPa | 2.5V | 08:14:00 | 00:00:00 | 00:00:00 | |
| DO3MHA-12 | 2026-09-02 00:51:56 | 48.84663 | 10.23323 | 87° | 73km/h | 9255m | -15.5m/s | -41.4°C | 18.1% | 309.4hPa | 2.5V | 00:00:00 | 02:23:01 | 00:00:00 | |
| DM0DOS-11 | 2026-09-02 00:51:53 | 48.84652 | 10.23071 | 86° | 73km/h | 9388m | -15.4m/s | -42.2°C | 18.9% | 303.5hPa | 2.5V | 08:14:08 | 02:22:52 | 00:00:00 | |
| DK7TD | 2026-09-02 00:51:47 | 48.84652 | 10.23071 | 86° | 73km/h | 9388m | -15.4m/s | -42.2°C | 21.1% | 303.5hPa | 2.5V | 08:14:12 | 02:22:52 | 00:00:00 | |
| DF7PN | 2026-09-02 00:51:45 | 48.84648 | 10.22986 | 85° | 75km/h | 9435m | -14.7m/s | -42.6°C | 16.0% | 301.4hPa | 2.5V | 00:00:00 | 00:00:00 | 00:00:00 | |
| DL6DJ-15 | 2026-09-02 00:51:44 | 48.84648 | 10.22986 | 85° | 75km/h | 9435m | -14.7m/s | -42.6°C | 16.0% | 301.4hPa | 2.5V | 00:00:00 | 00:00:00 | 00:00:00 | |
| DO9HM | 2026-09-02 00:51:43 | 48.84647 | 10.22957 | 86° | 77km/h | 9449m | -14.7m/s | -42.7°C | 16.1% | 300.7hPa | 2.5V | 08:14:00 | 00:00:00 | 00:00:00 | |
| DM0DOS-11 | 2026-09-02 00:51:42 | 48.84637 | 10.22787 | 84° | 77km/h | 9541m | -15.3m/s | -43.5°C | 20.9% | 296.7hPa | 2.5V | 08:14:18 | 02:22:42 | 00:00:00 | |
| DK7TD | 2026-09-02 00:51:37 | 48.84637 | 10.22787 | 84° | 77km/h | 9541m | -15.3m/s | -43.5°C | 23.2% | 296.7hPa | 2.5V | 08:15:03 | 02:22:42 | 00:00:00 | |
| DJ8HS-15 | 2026-09-02 00:51:37 | 48.84636 | 10.22787 | 85° | 77km/h | 9541m | -15.3m/s | -43.4°C | 20.9% | 296.7hPa | 2.5V | 00:00:00 | 02:22:42 | 00:00:00 | |
| AZAK | 2026-09-02 00:51:36 | 48.84634 | 10.22758 | 86° | 77km/h | 9557m | -15.3m/s | -43.6°C | 17.2% | 296.0hPa | 2.5V | 08:15:00 | 00:00:00 | 00:00:00 | |
| DB0UT-7 | 2026-09-02 00:51:35 | 48.84632 | 10.22729 | 86° | 75km/h | 9572m | -15.1m/s | -43.7°C | 21.3% | 295.3hPa | 2.5V | 00:00:00 | 00:00:00 | 00:00:00 | |
| DM0DOS-11 | 2026-09-02 00:51:32 | 48.84620 | 10.22501 | 83° | 77km/h | 9699m | -15.7m/s | -44.8°C | 22.8% | 290hPa | 2.5V | 08:14:28 | 02:22:32 | 00:00:00 | |
| DK7TD | 2026-09-02 00:51:26 | 48.84617 | 10.22472 | 84° | 77km/h | 9715m | -15.4m/s | -44.9°C | 25.6% | 289.3hPa | 2.5V | 08:15:03 | 02:22:31 | 00:00:00 | |
| DO3MHA-12 | 2026-09-02 00:51:26 | 48.84617 | 10.22472 | 84° | 77km/h | 9715m | -15.4m/s | -44.9°C | 23.1% | 289.2hPa | 2.6V | 00:00:00 | 02:22:31 | 00:00:00 | |
| DM0DOS-11 | 2026-09-02 00:51:22 | 48.84602 | 10.22208 | 86° | 78km/h | 9857m | -15.8m/s | -46.2°C | 26.1% | 283.1hPa | 2.6V | 08:14:38 | 02:22:22 | 00:00:00 | |
| DO9HM | 2026-09-02 00:51:22 | 48.84609 | 10.22355 | 86° | 77km/h | 9779m | -15.8m/s | -45.5°C | 19.8% | 286.6hPa | 2.5V | 08:15:00 | 00:00:00 | 00:00:00 | |
| DB0NH | 2026-09-02 00:51:21 | 48.84608 | 10.22325 | 86° | 75km/h | 9794m | -15.7m/s | -45.6°C | 24.7% | 285.8hPa | 2.5V | 00:00:00 | 02:22:26 | 00:00:00 | |
| DO3MHA-11 | 2026-09-02 00:51:20 | 48.84606 | 10.22295 | 86° | 77km/h | 9811m | -15.7m/s | -45.7°C | 25.0% | 285.1hPa | 2.5V | 00:00:00 | 02:22:25 | 00:00:00 | |
| DJ8HS-15 | 2026-09-02 00:51:17 | 48.84602 | 10.22208 | 87° | 75km/h | 9857m | -15.7m/s | -46.2°C | 26.1% | 283.1hPa | 2.6V | 00:00:00 | 02:22:22 | 00:00:00 | |
| DO3MHA-12 | 2026-09-02 00:51:16 | 48.84601 | 10.22178 | 89° | 75km/h | 9874m | -15.9m/s | -46.3°C | 26.6% | 282.4hPa | 2.5V | 00:00:00 | 02:22:21 | 00:00:00 | |
| AZAK | 2026-09-02 00:51:15 | 48.84601 | 10.22178 | 90° | 77km/h | 9874m | -16.0m/s | -46.4°C | 21.7% | 282.4hPa | 2.6V | 08:15:00 | 00:00:00 | 00:00:00 | |
| DF7PN | 2026-09-02 00:51:14 | 48.84599 | 10.22089 | 89° | 77km/h | 9921m | -15.8m/s | -46.6°C | 22.5% | 280.4hPa | 2.6V | 00:00:00 | 00:00:00 | 00:00:00 | |
| DL6DJ-15 | 2026-09-02 00:51:13 | 48.84599 | 10.22089 | 89° | 77km/h | 9921m | -15.8m/s | -46.6°C | 22.5% | 280.4hPa | 2.6V | 00:00:00 | 00:00:00 | 00:00:00 | |
| DM0DOS-11 | 2026-09-02 00:51:12 | 48.84598 | 10.21918 | 90° | 71km/h | 10016m | -15.9m/s | -47.4°C | 29.5% | 276.5hPa | 2.6V | 08:14:48 | 02:22:12 | 00:00:00 | |
| DK7TD | 2026-09-02 00:51:10 | 48.84599 | 10.22002 | 90° | 73km/h | 9968m | -16.1m/s | -47°C | 31.3% | 278.4hPa | 2.5V | 08:15:03 | 02:22:15 | 00:00:00 | |
| DO3MHA-11 | 2026-09-02 00:51:10 | 48.84599 | 10.22002 | 90° | 73km/h | 9968m | -16.1m/s | -47.0°C | 28.7% | 278.4hPa | 2.5V | 00:00:00 | 02:22:15 | 00:00:00 | |
| DB0ND-19 | 2026-09-02 00:51:08 | 48.84598 | 10.21946 | 89° | 71km/h | 10000m | -16.2m/s | -47.3°C | 23.9% | 277.1hPa | 2.5V | 00:00:00 | 00:00:00 | 00:00:00 | |
| DO3MHA-12 | 2026-09-02 00:51:06 | 48.84598 | 10.21891 | 93° | 73km/h | 10032m | -16.8m/s | -47.5°C | 29.8% | 275.7hPa | 2.5V | 00:00:00 | 02:22:11 | 00:00:00 | |
| DB0UT-7 | 2026-09-02 00:51:05 | 48.84599 | 10.21863 | 93° | 75km/h | 10049m | -16.6m/s | -47.7°C | 30.2% | 275.0hPa | 2.5V | 00:00:00 | 02:22:10 | 00:00:00 | |
| DM0DOS-11 | 2026-09-02 00:51:02 | 48.84604 | 10.21640 | 90° | 71km/h | 10177m | -15.9m/s | -48.7°C | 31.7% | 269.6hPa | 2.5V | 08:14:58 | 02:22:02 | 00:00:00 | |
| DK7TD | 2026-09-02 00:50:59 | 48.84603 | 10.21695 | 91° | 73km/h | 10144m | -16.4m/s | -48.5°C | 33.8% | 271hPa | 2.5V | 08:15:03 | 02:22:04 | 00:00:00 | |
| DF3TZ-5 | 2026-09-02 00:50:57 | 48.84604 | 10.21613 | 90° | 69km/h | 10193m | -16.4m/s | -48.8°C | 25.8% | 269.0hPa | 2.6V | 00:00:00 | 00:00:00 | 00:00:00 | |
| DO3MHA-12 | 2026-09-02 00:50:56 | 48.84604 | 10.21613 | 91° | 75km/h | 10193m | -16.3m/s | -48.8°C | 31.8% | 268.9hPa | 2.6V | 00:00:00 | 02:22:01 | 00:00:00 | |
| NBG1-10 | 2026-09-02 00:50:55 | 48.84604 | 10.21586 | 91° | 77km/h | 10209m | -16.8m/s | -48.9°C | 31.8% | 268.3hPa | 2.6V | 00:00:00 | 02:22:00 | 00:00:00 | |
| DK5PH-5 | 2026-09-02 00:50:52 | 48.84604 | 10.21501 | 90° | 77km/h | 10259m | -16.6m/s | -49.1°C | 31.4% | 266.4hPa | 2.5V | 00:00:00 | 02:21:57 | 00:00:00 | |
| DM0DOS-11 | 2026-09-02 00:50:51 | 48.84605 | 10.21358 | 90° | 77km/h | 10341m | -17.4m/s | -49.7°C | 31.4% | 263.1hPa | 2.5V | 08:15:08 | 02:21:52 | 00:00:00 | |
| DK7TD | 2026-09-02 00:50:48 | 48.84604 | 10.21387 | 92° | 75km/h | 10325m | -16.4m/s | -49.6°C | 33.8% | 263.7hPa | 2.5V | 08:15:54 | 02:21:53 | 00:00:00 | |
| DO3MHA-12 | 2026-09-02 00:50:46 | 48.84605 | 10.21328 | 91° | 77km/h | 10358m | -16.6m/s | -49.8°C | 31.5% | 262.4hPa | 2.5V | 00:00:00 | 02:21:51 | 00:00:00 | |
| DF7PN | 2026-09-02 00:50:43 | 48.84606 | 10.21211 | 90° | 75km/h | 10427m | -17.3m/s | -50.2°C | 25.6% | 259.6hPa | 2.5V | 00:00:00 | 00:00:00 | 00:00:00 | |
| DL6DJ-15 | 2026-09-02 00:50:42 | 48.84606 | 10.21211 | 90° | 75km/h | 10427m | -17.3m/s | -50.2°C | 25.6% | 259.6hPa | 2.5V | 00:00:00 | 00:00:00 | 00:00:00 | |
| DM0DOS-11 | 2026-09-02 00:50:41 | 48.84607 | 10.21062 | 90° | 78km/h | 10511m | -16.9m/s | -50.7°C | 32.1% | 256.3hPa | 2.5V | 08:15:18 | 02:21:42 | 00:00:00 | |
| DK7TD | 2026-09-02 00:50:38 | 48.84607 | 10.21092 | 90° | 78km/h | 10495m | -16.6m/s | -50.6°C | 34.1% | 257hPa | 2.6V | 08:15:54 | 02:21:43 | 00:00:00 | |
| DJ8HS-15 | 2026-09-02 00:50:37 | 48.84607 | 10.21062 | 91° | 75km/h | 10511m | -16.9m/s | -50.7°C | 32.1% | 256.3hPa | 2.6V | 00:00:00 | 02:21:42 | 00:00:00 | |
| DO3MHA-12 | 2026-09-02 00:50:36 | 48.84608 | 10.21032 | 92° | 77km/h | 10528m | -16.2m/s | -50.8°C | 32.1% | 255.5hPa | 2.6V | 00:00:00 | 02:21:41 | 00:00:00 | |
| DB0UT-7 | 2026-09-02 00:50:35 | 48.84608 | 10.21003 | 92° | 73km/h | 10545m | -17.9m/s | -50.9°C | 32.1% | 255.0hPa | 2.6V | 00:00:00 | 00:00:00 | 00:00:00 | |
| AZAK | 2026-09-02 00:50:34 | 48.84608 | 10.21003 | 92° | 75km/h | 10545m | -17.9m/s | -50.9°C | 25.6% | 255.0hPa | 2.6V | 08:15:00 | 00:00:00 | 00:00:00 | |
| DM0DOS-11 | 2026-09-02 00:50:31 | 48.84616 | 10.20772 | 93° | 77km/h | 10687m | -19.2m/s | -52°C | 33% | 249.6hPa | 2.6V | 08:15:28 | 02:21:32 | 00:00:00 | |
| DK7TD | 2026-09-02 00:50:28 | 48.84616 | 10.20801 | 94° | 77km/h | 10668m | -19.3m/s | -51.8°C | 34.6% | 250.2hPa | 2.5V | 08:15:54 | 02:21:33 | 00:00:00 | |
| DF3TZ-5 | 2026-09-02 00:50:26 | 48.84619 | 10.20713 | 94° | 75km/h | 10724m | -19.0m/s | -52.3°C | 26.2% | 248.0hPa | 2.5V | 00:00:00 | 00:00:00 | 00:00:00 | |
| DK5PH-5 | 2026-09-02 00:50:22 | 48.84625 | 10.20629 | 99° | 73km/h | 10782m | -19.5m/s | -52.5°C | 32.7% | 245.9hPa | 2.5V | 00:00:00 | 02:21:27 | 00:00:00 | |
| DM0DOS-11 | 2026-09-02 00:50:21 | 48.84638 | 10.20490 | 97° | 71km/h | 10876m | -18.1m/s | -53.1°C | 32.5% | 242.3hPa | 2.5V | 08:15:38 | 02:21:22 | 00:00:00 | |
| DK7TD | 2026-09-02 00:50:17 | 48.84638 | 10.20490 | 97° | 71km/h | 10876m | -18.1m/s | -53.1°C | 33.7% | 242.3hPa | 2.5V | 08:15:54 | 02:21:22 | 00:00:00 | |
| DJ8HS-15 | 2026-09-02 00:50:17 | 48.84638 | 10.20490 | 98° | 73km/h | 10876m | -18.1m/s | -53.0°C | 32.5% | 242.2hPa | 2.5V | 08:15:00 | 02:21:22 | 00:00:00 | |
| DO3MHA-12 | 2026-09-02 00:50:16 | 48.84640 | 10.20463 | 99° | 73km/h | 10895m | -19.2m/s | -53.1°C | 32.4% | 241.6hPa | 2.6V | 08:15:00 | 02:21:21 | 00:00:00 | |
| DN1GJH-1 | 2026-09-02 00:50:14 | 48.84643 | 10.20435 | 98° | 73km/h | 10914m | -19.3m/s | -53.3°C | 25.4% | 240.9hPa | 2.5V | 08:15:00 | 00:00:00 | 00:00:00 | |
| DM0DOS-11 | 2026-09-02 00:50:13 | 48.84659 | 10.20213 | 93° | 71km/h | 11063m | -18.9m/s | -54.3°C | 33.1% | 235.3hPa | 2.5V | 08:15:48 | 02:21:12 | 00:00:00 | |
| BIOWL1-15 | 2026-09-02 00:50:12 | 48.84655 | 10.20297 | 95° | 75km/h | 11008m | -18.5m/s | 0°C | 0% | 0hPa | 2.6V | 18:12:15 | 02:21:15 | 00:00:00 | |
| DK7TD | 2026-09-02 00:50:07 | 48.84659 | 10.20213 | 93° | 71km/h | 11063m | -18.9m/s | -54.3°C | 32.9% | 235.3hPa | 2.5V | 08:15:54 | 02:21:12 | 00:00:00 | |
| DO3MHA-12 | 2026-09-02 00:50:06 | 48.84660 | 10.20186 | 94° | 75km/h | 11083m | -19.9m/s | -54.3°C | 33.2% | 234.6hPa | 2.5V | 00:00:00 | 02:21:11 | 00:00:00 | |
| DB0UT-7 | 2026-09-02 00:50:05 | 48.84660 | 10.20158 | 92° | 77km/h | 11102m | -18.9m/s | -54.3°C | 32.7% | 233.9hPa | 2.5V | 00:00:00 | 02:21:10 | 00:00:00 | |
| DM0DOS-11 | 2026-09-02 00:50:02 | 48.84660 | 10.19930 | 89° | 75km/h | 11259m | -20.4m/s | -54.9°C | 29.7% | 228.3hPa | 2.5V | 08:15:58 | 02:21:02 | 00:00:00 | |
| DK7TD | 2026-09-02 00:49:56 | 48.84659 | 10.19900 | 91° | 78km/h | 11279m | -20.5m/s | -55.1°C | 29% | 227.7hPa | 2.5V | 08:16:45 | 02:21:01 | 00:00:00 | |
| DF3TZ-5 | 2026-09-02 00:49:55 | 48.84660 | 10.19839 | 89° | 77km/h | 11318m | -20.3m/s | -55.3°C | 21.9% | 226.2hPa | 2.6V | 00:00:00 | 00:00:00 | 00:00:00 | |
| DN1GJH-1 | 2026-09-02 00:49:53 | 48.84660 | 10.19839 | 91° | 78km/h | 11318m | -20.3m/s | -55.3°C | 21.9% | 226.2hPa | 2.6V | 08:16:00 | 00:00:00 | 00:00:00 | |
| DM0DOS-11 | 2026-09-02 00:49:52 | 48.84660 | 10.19632 | 89° | 73km/h | 11459m | -20.5m/s | -55.2°C | 24.3% | 221.3hPa | 2.6V | 08:16:08 | 02:20:52 | 00:00:00 | |
| DK7TD | 2026-09-02 00:49:45 | 48.84660 | 10.19576 | 89° | 75km/h | 11499m | -19.6m/s | -55.5°C | 22.4% | 219.9hPa | 2.5V | 08:16:45 | 02:20:50 | 00:00:00 | |
| DO3MHA-11 | 2026-09-02 00:49:41 | 48.84655 | 10.19429 | 86° | 82km/h | 11595m | -19.9m/s | -55.9°C | 21.2% | 216.6hPa | 2.5V | 00:00:00 | 02:20:45 | 00:00:00 | |
| DL6DJ-15 | 2026-09-02 00:49:40 | 48.84654 | 10.19398 | 85° | 80km/h | 11615m | -20.1m/s | -56.1°C | 14.8% | 216.0hPa | 2.5V | 00:00:00 | 00:00:00 | 00:00:00 | |
| DF1GD-15 | 2026-09-02 00:49:38 | 48.84653 | 10.19398 | 86° | 82km/h | 11615m | -20.1m/s | -56.1°C | 14.9% | 216.0hPa | 2.5V | 08:16:00 | 00:00:00 | 00:00:00 | |
| DM0DOS-11 | 2026-09-02 00:49:37 | 48.84670 | 10.18718 | 88° | 73km/h | 12060m | -21.6m/s | -54.2°C | 8.2% | 201.6hPa | 2.5V | 08:16:39 | 02:20:21 | 00:00:00 | |
| DK7TD | 2026-09-02 00:49:25 | 48.84667 | 10.18854 | 95° | 71km/h | 11959m | -19m/s | -54.7°C | 7.2% | 204.7hPa | 2.6V | 08:16:45 | 02:20:26 | 00:00:00 | |
| DF3TZ-5 | 2026-09-02 00:49:24 | 48.84663 | 10.18909 | 96° | 73km/h | 11919m | -19.4m/s | -55.1°C | 6.5% | 205.9hPa | 2.5V | 00:00:00 | 00:00:00 | 00:00:00 | |
| DM0DOS-11 | 2026-09-02 00:49:22 | 48.84668 | 10.18607 | 85° | 75km/h | 12142m | -20.4m/s | -54.7°C | 7.8% | 198.9hPa | 2.5V | 08:16:43 | 02:20:17 | 00:00:00 | |
| DK7TD | 2026-09-02 00:49:10 | 48.84664 | 10.18551 | 84° | 75km/h | 12183m | -20.5m/s | -54.8°C | 4.5% | 197.7hPa | 2.6V | 08:16:45 | 02:20:15 | 00:00:00 | |
| DO3MHA-11 | 2026-09-02 00:49:10 | 48.84664 | 10.18551 | 84° | 80km/h | 12183m | -20.5m/s | -54.8°C | 7.6% | 197.6hPa | 2.5V | 00:00:00 | 02:20:15 | 00:00:00 | |
| DL6DJ-15 | 2026-09-02 00:49:09 | 48.84660 | 10.18492 | 83° | 77km/h | 12221m | -18.3m/s | -55.0°C | 3.8% | 196.4hPa | 2.5V | 00:00:00 | 00:00:00 | 00:00:00 | |
| OE5DRO-10 | 2026-09-02 00:49:08 | 48.84660 | 10.18492 | 84° | 80km/h | 12221m | -18.3m/s | -55.0°C | 7.4% | 196.3hPa | 2.5V | 00:00:00 | 00:00:00 | 00:00:00 | |
| DB0UT-7 | 2026-09-02 00:49:06 | 48.84653 | 10.18403 | 84° | 80km/h | 12279m | -20.1m/s | -54.6°C | 6.7% | 194.6hPa | 2.5V | 00:00:00 | 02:20:10 | 00:00:00 | |
| DB0ND-19 | 2026-09-02 00:49:05 | 48.84650 | 10.18372 | 81° | 80km/h | 12298m | -18.6m/s | -54.7°C | 3.3% | 194.0hPa | 2.5V | 00:00:00 | 00:00:00 | 00:00:00 | |
| DM0DOS-11 | 2026-09-02 00:49:03 | 48.84644 | 10.18309 | 82° | 82km/h | 12335m | -18m/s | -54.4°C | 6.4% | 192.9hPa | 2.5V | 08:16:53 | 02:20:07 | 00:00:00 | |
| DK7TD | 2026-09-02 00:48:59 | 48.84638 | 10.18213 | 85° | 84km/h | 12390m | -18.2m/s | -53.9°C | 2.8% | 191.2hPa | 2.6V | 08:18:27 | 02:20:04 | 00:00:00 | |
| DJ8HS-15 | 2026-09-02 00:48:57 | 48.84634 | 10.18149 | 87° | 80km/h | 12427m | -18.2m/s | -53.7°C | 6.1% | 190.1hPa | 2.6V | 00:00:00 | 02:20:02 | 00:00:00 | |
| DM0DOS-11 | 2026-09-02 00:48:56 | 48.84634 | 10.17988 | 91° | 82km/h | 12514m | -17.2m/s | -53.1°C | 5.7% | 187.5hPa | 2.6V | 08:17:03 | 02:19:57 | 00:00:00 | |
| DO9HM | 2026-09-02 00:48:56 | 48.84633 | 10.18116 | 89° | 86km/h | 12445m | -18.0m/s | -53.6°C | 2.9% | 189.6hPa | 2.5V | 08:17:00 | 00:00:00 | 00:00:00 | |
| DK5PH-5 | 2026-09-02 00:48:52 | 48.84633 | 10.17988 | 92° | 80km/h | 12514m | -17.1m/s | -53.0°C | 5.7% | 187.5hPa | 2.5V | 00:00:00 | 02:19:57 | 00:00:00 | |
| DB0NH | 2026-09-02 00:48:51 | 48.84634 | 10.17957 | 91° | 80km/h | 12532m | -18.3m/s | -53.1°C | 5.7% | 186.9hPa | 2.5V | 00:00:00 | 02:19:56 | 00:00:00 | |
| DO3MHA-11 | 2026-09-02 00:48:50 | 48.84634 | 10.17926 | 91° | 77km/h | 12550m | -19.0m/s | -53.2°C | 5.8% | 186.5hPa | 2.5V | 08:17:00 | 02:19:55 | 00:00:00 | |
| DN1GJH-1 | 2026-09-02 00:48:49 | 48.84634 | 10.17926 | 92° | 80km/h | 12550m | -19.0m/s | -53.3°C | 2.8% | 186.5hPa | 2.5V | 08:17:00 | 00:00:00 | 00:00:00 | |
| OE5DRO-10 | 2026-09-02 00:48:48 | 48.84634 | 10.17866 | 92° | 78km/h | 12588m | -17.7m/s | -53.2°C | 5.8% | 185.4hPa | 2.5V | 00:00:00 | 00:00:00 | 00:00:00 | |
| DO3MHA-12 | 2026-09-02 00:48:46 | 48.84635 | 10.17807 | 91° | 77km/h | 12621m | -18.0m/s | -53.1°C | 5.7% | 184.4hPa | 2.5V | 08:17:00 | 02:19:51 | 00:00:00 | |
| DM0DOS-11 | 2026-09-02 00:48:43 | 48.84631 | 10.17691 | 83° | 77km/h | 12699m | -19.6m/s | -52.6°C | 5.2% | 182.3hPa | 2.6V | 08:17:13 | 02:19:47 | 00:00:00 | |
| NBG1-10 | 2026-09-02 00:48:43 | 48.84633 | 10.17720 | 86° | 82km/h | 12680m | -20.4m/s | -52.7°C | 5.4% | 182.8hPa | 2.6V | 00:00:00 | 02:19:48 | 00:00:00 | |
| OE5DXL-15 | 2026-09-02 00:48:41 | 48.84629 | 10.17661 | 84° | 82km/h | 12720m | -20.5m/s | -52.5°C | 5.2% | 181.7hPa | 2.6V | 00:00:00 | 00:00:00 | 00:00:00 | |
| DO3MHA-11 | 2026-09-02 00:48:40 | 48.84626 | 10.17632 | 82° | 80km/h | 12740m | -20.9m/s | -52.5°C | 5.2% | 181.1hPa | 2.5V | 00:00:00 | 02:19:45 | 00:00:00 | |
| DL6DJ-15 | 2026-09-02 00:48:38 | 48.84617 | 10.17542 | 80° | 78km/h | 12799m | -19.2m/s | -52.6°C | 2.2% | 179.5hPa | 2.5V | 00:00:00 | 00:00:00 | 00:00:00 | |
| DJ8HS-15 | 2026-09-02 00:48:37 | 48.84617 | 10.17542 | 81° | 82km/h | 12799m | -19.1m/s | -52.5°C | 5.0% | 179.5hPa | 2.5V | 00:00:00 | 02:19:42 | 00:00:00 | |
| DM0DOS-11 | 2026-09-02 00:48:36 | 48.84600 | 10.17386 | 82° | 82km/h | 12890m | -18.8m/s | -52.1°C | 4.5% | 176.9hPa | 2.5V | 08:17:23 | 02:19:37 | 00:00:00 | |
| DO3MHA-12 | 2026-09-02 00:48:36 | 48.84613 | 10.17512 | 80° | 82km/h | 12818m | -18.8m/s | -52.6°C | 5.0% | 178.9hPa | 2.5V | 00:00:00 | 02:19:41 | 00:00:00 | |
| DB0UT-7 | 2026-09-02 00:48:35 | 48.84610 | 10.17480 | 81° | 82km/h | 12837m | -18.5m/s | -52.5°C | 4.9% | 178.4hPa | 2.5V | 00:00:00 | 00:00:00 | 00:00:00 | |
| DO9HM | 2026-09-02 00:48:34 | 48.84610 | 10.17480 | 81° | 84km/h | 12837m | -18.5m/s | -52.6°C | 2.2% | 178.4hPa | 2.5V | 08:17:00 | 00:00:00 | 00:00:00 | |
| DB0ND-19 | 2026-09-02 00:48:33 | 48.84603 | 10.17417 | 81° | 80km/h | 12872m | -18.0m/s | -52.2°C | 2.0% | 177.4hPa | 2.5V | 00:00:00 | 00:00:00 | 00:00:00 | |
| DO3MHA-11 | 2026-09-02 00:48:30 | 48.84595 | 10.17322 | 84° | 82km/h | 12925m | -17.6m/s | -52.2°C | 4.5% | 175.9hPa | 2.5V | 00:00:00 | 02:19:35 | 00:00:00 | |
| OE5DRO-10 | 2026-09-02 00:48:29 | 48.84592 | 10.17291 | 84° | 82km/h | 12943m | -17.8m/s | -52.2°C | 4.5% | 175.4hPa | 2.5V | 08:17:00 | 00:00:00 | 00:00:00 | |
| DO3MHA-12 | 2026-09-02 00:48:26 | 48.84586 | 10.17195 | 88° | 82km/h | 12997m | -16.5m/s | -52.1°C | 4.5% | 173.9hPa | 2.5V | 00:00:00 | 02:19:31 | 00:00:00 | |
| DM0DOS-11 | 2026-09-02 00:48:25 | 48.84583 | 10.17068 | 86° | 84km/h | 13069m | -20.3m/s | -52°C | 4.2% | 172.2hPa | 2.5V | 08:17:33 | 02:19:27 | 00:00:00 | |
| DK7TD | 2026-09-02 00:48:23 | 48.84583 | 10.17101 | 88° | 84km/h | 13050m | -18.5m/s | -51.9°C | 1.2% | 172.6hPa | 2.5V | 08:18:27 | 02:19:28 | 00:00:00 | |
| DK5PH-5 | 2026-09-02 00:48:22 | 48.84582 | 10.17068 | 87° | 84km/h | 13070m | -20.2m/s | -51.9°C | 4.2% | 172.1hPa | 2.5V | 08:17:00 | 02:19:27 | 00:00:00 | |
| DB0NH | 2026-09-02 00:48:21 | 48.84581 | 10.17036 | 87° | 84km/h | 13090m | -20.7m/s | -52.0°C | 4.3% | 171.6hPa | 2.5V | 00:00:00 | 02:19:26 | 00:00:00 | |
| PG1ADW-2 | 2026-09-02 00:48:20 | 48.84580 | 10.17004 | 88° | 84km/h | 13110m | -20.1m/s | -52.2°C | 4.4% | 171.0hPa | 2.5V | 00:00:00 | 00:00:00 | 00:00:00 | |
| DJ8HS-15 | 2026-09-02 00:48:17 | 48.84577 | 10.16910 | 87° | 84km/h | 13170m | -19.7m/s | -52.6°C | 4.5% | 169.5hPa | 2.5V | 00:00:00 | 02:19:22 | 00:00:00 | |
| DO3MHA-12 | 2026-09-02 00:48:16 | 48.84575 | 10.16879 | 86° | 82km/h | 13189m | -19.5m/s | -52.6°C | 4.5% | 168.9hPa | 2.5V | 00:00:00 | 02:19:21 | 00:00:00 | |
| DO9HM | 2026-09-02 00:48:14 | 48.84572 | 10.16815 | 86° | 84km/h | 13226m | -16.7m/s | -52.8°C | 1.8% | 167.9hPa | 2.5V | 00:00:00 | 00:00:00 | 00:00:00 | |
| DM0DOS-11 | 2026-09-02 00:48:13 | 48.84568 | 10.16751 | 84° | 82km/h | 13261m | -18.6m/s | -52.8°C | 4.5% | 167.1hPa | 2.5V | 08:17:43 | 02:19:17 | 00:00:00 | |
| OE5DXL-15 | 2026-09-02 00:48:11 | 48.84566 | 10.16719 | 84° | 82km/h | 13280m | -19.8m/s | -52.8°C | 4.4% | 166.6hPa | 2.5V | 00:00:00 | 00:00:00 | 00:00:00 | |
| DO3MHA-11 | 2026-09-02 00:48:10 | 48.84564 | 10.16688 | 85° | 84km/h | 13300m | -20.3m/s | -53.0°C | 4.5% | 166.1hPa | 2.5V | 00:00:00 | 02:19:15 | 00:00:00 | |
| DM0DOS-11 | 2026-09-02 00:48:07 | 48.84543 | 10.16398 | 85° | 86km/h | 13468m | -18.6m/s | -53.2°C | 4.6% | 161.8hPa | 2.5V | 08:17:54 | 02:19:06 | 00:00:00 | |
| DL6DJ-15 | 2026-09-02 00:48:07 | 48.84555 | 10.16561 | 83° | 84km/h | 13377m | -18.6m/s | -53.1°C | 1.8% | 164.2hPa | 2.5V | 00:00:00 | 00:00:00 | 00:00:00 | |
| DO3MHA-12 | 2026-09-02 00:48:06 | 48.84555 | 10.16561 | 84° | 86km/h | 13377m | -18.6m/s | -53.1°C | 4.5% | 164.1hPa | 2.5V | 00:00:00 | 02:19:11 | 00:00:00 | |
| DB0UT-7 | 2026-09-02 00:48:05 | 48.84552 | 10.16529 | 84° | 80km/h | 13396m | -18.9m/s | -53.1°C | 4.6% | 163.6hPa | 2.5V | 00:00:00 | 02:19:10 | 00:00:00 | |
| DN1GJH-1 | 2026-09-02 00:48:04 | 48.84552 | 10.16529 | 85° | 88km/h | 13396m | -18.9m/s | -53.1°C | 1.8% | 163.7hPa | 2.5V | 08:18:00 | 00:00:00 | 00:00:00 | |
| DB0ND-19 | 2026-09-02 00:48:02 | 48.84546 | 10.16431 | 83° | 86km/h | 13450m | -17.6m/s | -53.3°C | 1.8% | 162.2hPa | 2.5V | 00:00:00 | 00:00:00 | 00:00:00 | |
| DO3MHA-11 | 2026-09-02 00:48:00 | 48.84542 | 10.16366 | 85° | 86km/h | 13487m | -18.9m/s | -53.1°C | 4.6% | 161.3hPa | 2.5V | 00:00:00 | 02:19:05 | 00:00:00 | |
| DJ8HS-15 | 2026-09-02 00:47:57 | 48.84536 | 10.16268 | 87° | 78km/h | 13545m | -19.4m/s | -52.8°C | 4.5% | 159.9hPa | 2.5V | 00:00:00 | 02:19:02 | 00:00:00 | |
| DO3MHA-12 | 2026-09-02 00:47:56 | 48.84535 | 10.16235 | 89° | 84km/h | 13564m | -19.5m/s | -52.7°C | 4.4% | 159.4hPa | 2.5V | 00:00:00 | 02:19:01 | 00:00:00 | |
| DM0DOS-11 | 2026-09-02 00:47:55 | 48.84533 | 10.16073 | 90° | 84km/h | 13652m | -19.8m/s | -53.2°C | 4.5% | 157.4hPa | 2.5V | 08:18:04 | 02:18:56 | 00:00:00 | |
| DK7TD | 2026-09-02 00:47:49 | 48.84534 | 10.16010 | 91° | 82km/h | 13692m | -20.2m/s | -53°C | 1% | 156.4hPa | 2.5V | 08:18:27 | 02:18:54 | 00:00:00 | |
| AZAK | 2026-09-02 00:47:48 | 48.84534 | 10.16010 | 92° | 82km/h | 13692m | -20.2m/s | -53.0°C | 1.6% | 156.4hPa | 2.6V | 08:18:00 | 00:00:00 | 00:00:00 | |
| DO3MHA-12 | 2026-09-02 00:47:46 | 48.84536 | 10.15919 | 93° | 73km/h | 13754m | -21.1m/s | -52.7°C | 4.2% | 154.9hPa | 2.6V | 00:00:00 | 02:18:51 | 00:00:00 | |
| DM0DOS-11 | 2026-09-02 00:47:43 | 48.84540 | 10.15779 | 92° | 69km/h | 13860m | -20m/s | -52.8°C | 4.3% | 152.4hPa | 2.6V | 08:18:14 | 02:18:46 | 00:00:00 | |
| DK7TD | 2026-09-02 00:47:38 | 48.84541 | 10.15697 | 90° | 73km/h | 13921m | -19.7m/s | -52.9°C | 0.9% | 151hPa | 2.5V | 08:18:27 | 02:18:43 | 00:00:00 | |
| OE3JTB-15 | 2026-09-02 00:47:38 | 48.84541 | 10.15697 | 91° | 64km/h | 13921m | -19.7m/s | -52.8°C | 4.4% | 150.9hPa | 2.5V | 00:00:00 | 02:18:43 | 00:00:00 | |
| NBG1-10 | 2026-09-02 00:47:37 | 48.84541 | 10.15669 | 91° | 71km/h | 13941m | -20.1m/s | -52.9°C | 4.3% | 150.4hPa | 2.5V | 00:00:00 | 02:18:42 | 00:00:00 | |
| DF1GD-15 | 2026-09-02 00:47:36 | 48.84541 | 10.15640 | 91° | 75km/h | 13960m | -19.6m/s | -53.1°C | 1.6% | 150.0hPa | 2.6V | 08:18:00 | 00:00:00 | 00:00:00 | |
| DB0UT-7 | 2026-09-02 00:47:35 | 48.84542 | 10.15611 | 91° | 71km/h | 13980m | -18.7m/s | -53.2°C | 4.5% | 149.5hPa | 2.6V | 00:00:00 | 00:00:00 | 00:00:00 | |
| DM0DOS-11 | 2026-09-02 00:47:33 | 48.84544 | 10.15492 | 93° | 78km/h | 14056m | -18.7m/s | -53.5°C | 4.5% | 147.8hPa | 2.6V | 08:18:24 | 02:18:36 | 00:00:00 | |
| DK7TD | 2026-09-02 00:47:28 | 48.84548 | 10.15400 | 95° | 78km/h | 14116m | -21.2m/s | -53.1°C | 0.9% | 146.4hPa | 2.5V | 08:18:27 | 02:18:33 | 00:00:00 | |
| AZAK | 2026-09-02 00:47:27 | 48.84549 | 10.15400 | 96° | 78km/h | 14116m | -21.2m/s | -53.1°C | 1.6% | 146.4hPa | 2.5V | 08:18:00 | 00:00:00 | 00:00:00 | |
| DM0DOS-11 | 2026-09-02 00:47:26 | 48.84560 | 10.15204 | 93° | 68km/h | 14256m | -19.4m/s | -52.9°C | 4.4% | 143.2hPa | 2.5V | 08:18:34 | 02:18:26 | 00:00:00 | |
| DO3MHA-12 | 2026-09-02 00:47:26 | 48.84552 | 10.15342 | 96° | 69km/h | 14157m | -20.0m/s | -53.1°C | 4.4% | 145.4hPa | 2.5V | 00:00:00 | 02:18:31 | 00:00:00 | |
| DN1GJH-1 | 2026-09-02 00:47:23 | 48.84556 | 10.15285 | 96° | 73km/h | 14198m | -19.9m/s | -53.1°C | 1.6% | 144.6hPa | 2.5V | 08:19:00 | 00:00:00 | 00:00:00 | |
| DK5PH-5 | 2026-09-02 00:47:22 | 48.84559 | 10.15230 | 95° | 68km/h | 14237m | -19.5m/s | -52.9°C | 4.4% | 143.6hPa | 2.5V | 00:00:00 | 02:18:27 | 00:00:00 | |
| DB0NH | 2026-09-02 00:47:21 | 48.84560 | 10.15204 | 94° | 68km/h | 14256m | -19.3m/s | -52.8°C | 4.4% | 143.2hPa | 2.5V | 00:00:00 | 02:18:26 | 00:00:00 | |
| DO3MHA-12 | 2026-09-02 00:47:16 | 48.84562 | 10.15080 | 89° | 69km/h | 14357m | -20.7m/s | -52.6°C | 4.3% | 141.0hPa | 2.5V | 08:18:00 | 02:18:21 | 00:00:00 | |
| DM0DOS-11 | 2026-09-02 00:47:15 | 48.84557 | 10.14948 | 87° | 69km/h | 14460m | -20.2m/s | -53.3°C | 4.5% | 138.8hPa | 2.5V | 08:18:44 | 02:18:16 | 00:00:00 | |
| DK7TD | 2026-09-02 00:47:12 | 48.84558 | 10.14975 | 87° | 69km/h | 14439m | -22.4m/s | -53.1°C | 0.9% | 139.3hPa | 2.5V | 08:19:18 | 02:18:17 | 00:00:00 | |
| DO9HM | 2026-09-02 00:47:11 | 48.84557 | 10.14948 | 89° | 69km/h | 14460m | -20.2m/s | -53.3°C | 1.6% | 138.8hPa | 2.5V | 08:19:00 | 00:00:00 | 00:00:00 | |
| DO3MHA-11 | 2026-09-02 00:47:10 | 48.84556 | 10.14921 | 88° | 69km/h | 14480m | -19.4m/s | -53.3°C | 4.5% | 138.3hPa | 2.5V | 00:00:00 | 02:18:15 | 00:00:00 | |
| AZAK | 2026-09-02 00:47:08 | 48.84555 | 10.14866 | 90° | 71km/h | 14518m | -17.7m/s | -53.2°C | 1.6% | 137.5hPa | 2.5V | 08:19:00 | 00:00:00 | 00:00:00 | |
| DO3MHA-12 | 2026-09-02 00:47:06 | 48.84555 | 10.14812 | 89° | 68km/h | 14552m | -17.1m/s | -52.7°C | 4.3% | 136.7hPa | 2.5V | 00:00:00 | 02:18:11 | 00:00:00 | |
| NBG1-10 | 2026-09-02 00:47:05 | 48.84554 | 10.14759 | 89° | 68km/h | 14586m | -16.9m/s | -52.4°C | 4.2% | 136.0hPa | 2.5V | 00:00:00 | 02:18:09 | 00:00:00 | |
| DM0DOS-11 | 2026-09-02 00:47:04 | 48.84553 | 10.14682 | 88° | 68km/h | 14644m | -20.4m/s | -51.9°C | 4% | 134.9hPa | 2.5V | 08:18:54 | 02:18:06 | 00:00:00 | |
| DK7TD | 2026-09-02 00:47:02 | 48.84554 | 10.14708 | 89° | 68km/h | 14623m | -20.8m/s | -52°C | 0.6% | 135.4hPa | 2.6V | 08:19:18 | 02:18:07 | 00:00:00 | |
| DO3MHA-11 | 2026-09-02 00:47:00 | 48.84553 | 10.14656 | 89° | 68km/h | 14664m | -19.1m/s | -52.0°C | 4.0% | 134.4hPa | 2.6V | 00:00:00 | 02:18:05 | 00:00:00 | |
| DJ8HS-15 | 2026-09-02 00:46:57 | 48.84551 | 10.14579 | 89° | 68km/h | 14717m | -16.6m/s | -52.0°C | 4.1% | 133.2hPa | 2.6V | 00:00:00 | 02:18:02 | 00:00:00 | |
| DO3MHA-12 | 2026-09-02 00:46:56 | 48.84551 | 10.14554 | 88° | 68km/h | 14735m | -18.9m/s | -51.9°C | 4.0% | 132.9hPa | 2.6V | 00:00:00 | 02:18:01 | 00:00:00 | |
| OE5DRO-10 | 2026-09-02 00:46:54 | 48.84549 | 10.14502 | 87° | 68km/h | 14771m | -17.9m/s | -51.9°C | 4.0% | 132.2hPa | 2.6V | 00:00:00 | 00:00:00 | 00:00:00 | |
| DM0DOS-11 | 2026-09-02 00:46:52 | 48.84545 | 10.14424 | 84° | 68km/h | 14823m | -16.9m/s | -52.1°C | 4.1% | 131.1hPa | 2.6V | 08:19:04 | 02:17:56 | 00:00:00 | |
| DK7TD | 2026-09-02 00:46:51 | 48.84545 | 10.14424 | 85° | 68km/h | 14823m | -16.9m/s | -52.1°C | 0.8% | 131.1hPa | 2.6V | 08:19:18 | 02:17:56 | 00:00:00 | |
| DF3TZ-5 | 2026-09-02 00:46:48 | 48.84540 | 10.14346 | 83° | 68km/h | 14873m | -17.2m/s | -51.9°C | 1.4% | 130.1hPa | 2.6V | 00:00:00 | 00:00:00 | 00:00:00 | |
| DM0DOS-11 | 2026-09-02 00:46:46 | 48.84522 | 10.14137 | 84° | 69km/h | 15025m | -16.6m/s | -52.5°C | 4.2% | 127.1hPa | 2.6V | 08:19:15 | 02:17:45 | 00:00:00 | |
| DK7TD | 2026-09-02 00:46:40 | 48.84522 | 10.14137 | 84° | 69km/h | 15025m | -16.6m/s | -52.5°C | 0.8% | 127.1hPa | 2.6V | 08:19:18 | 02:17:45 | 00:00:00 | |
| PG1ADW-2 | 2026-09-02 00:46:40 | 48.84522 | 10.14137 | 85° | 60km/h | 15025m | -16.6m/s | -52.4°C | 4.2% | 127.0hPa | 2.6V | 00:00:00 | 00:00:00 | 00:00:00 | |
| DJ8HS-15 | 2026-09-02 00:46:37 | 48.84519 | 10.14062 | 89° | 58km/h | 15078m | -20.8m/s | -52.3°C | 4.1% | 126.0hPa | 2.5V | 00:00:00 | 02:17:42 | 00:00:00 | |
| DO3MHA-12 | 2026-09-02 00:46:36 | 48.84520 | 10.14037 | 92° | 60km/h | 15099m | -21.0m/s | -52.1°C | 4.0% | 125.7hPa | 2.5V | 00:00:00 | 02:17:41 | 00:00:00 | |
| DM0DOS-11 | 2026-09-02 00:46:35 | 48.84525 | 10.13919 | 96° | 60km/h | 15203m | -21.9m/s | -52°C | 4% | 123.8hPa | 2.5V | 08:19:24 | 02:17:36 | 00:00:00 | |
| DK7TD | 2026-09-02 00:46:30 | 48.84527 | 10.13896 | 98° | 58km/h | 15225m | -22.7m/s | -51.9°C | 0.6% | 123.4hPa | 2.6V | 08:20:09 | 02:17:35 | 00:00:00 | |
| DO3MHA-11 | 2026-09-02 00:46:30 | 48.84527 | 10.13896 | 98° | 57km/h | 15225m | -22.7m/s | -51.8°C | 3.9% | 123.3hPa | 2.5V | 00:00:00 | 02:17:35 | 00:00:00 | |
| DB0ND-19 | 2026-09-02 00:46:29 | 48.84528 | 10.13874 | 96° | 57km/h | 15248m | -22.9m/s | -51.9°C | 1.4% | 123.0hPa | 2.5V | 00:00:00 | 00:00:00 | 00:00:00 | |
| DO3MHA-12 | 2026-09-02 00:46:26 | 48.84535 | 10.13811 | 101° | 57km/h | 15314m | -20.8m/s | -52.2°C | 4.1% | 121.6hPa | 2.5V | 00:00:00 | 02:17:31 | 00:00:00 | |
| DJTTGO | 2026-09-02 00:46:25 | 48.84535 | 10.13811 | 102° | 55km/h | 15314m | -20.9m/s | -52.3°C | 1.4% | 121.7hPa | 2.5V | 00:00:00 | 00:00:00 | 00:00:00 | |
| DM0DOS-11 | 2026-09-02 00:46:22 | 48.84546 | 10.13706 | 95° | 57km/h | 15421m | -20.7m/s | -52.8°C | 4.2% | 119.7hPa | 2.5V | 08:19:34 | 02:17:26 | 00:00:00 | |
| DK7TD | 2026-09-02 00:46:19 | 48.84549 | 10.13661 | 96° | 58km/h | 15463m | -21.1m/s | -53°C | 0.8% | 118.9hPa | 2.6V | 08:20:09 | 02:17:24 | 00:00:00 | |
| DJ8HS-15 | 2026-09-02 00:46:17 | 48.84552 | 10.13616 | 97° | 55km/h | 15505m | -20.6m/s | -52.8°C | 4.3% | 118.1hPa | 2.5V | 00:00:00 | 02:17:22 | 00:00:00 | |
| OE5DRO-10 | 2026-09-02 00:46:16 | 48.84554 | 10.13593 | 97° | 55km/h | 15524m | -19.4m/s | -52.7°C | 4.2% | 117.6hPa | 2.5V | 00:00:00 | 00:00:00 | 00:00:00 | |
| DM0DOS-11 | 2026-09-02 00:46:15 | 48.84565 | 10.13479 | 100° | 58km/h | 15628m | -22.4m/s | -52.9°C | 4.2% | 115.9hPa | 2.5V | 08:19:44 | 02:17:16 | 00:00:00 | |
| DK7TD | 2026-09-02 00:46:09 | 48.84570 | 10.13436 | 101° | 57km/h | 15670m | -21.3m/s | -53°C | 0.8% | 115.1hPa | 2.6V | 08:20:09 | 02:17:14 | 00:00:00 | |
| DG9SBQ-11 | 2026-09-02 00:46:07 | 48.84573 | 10.13414 | 101° | 57km/h | 15692m | -22.7m/s | -53.0°C | 1.4% | 114.8hPa | 2.5V | 08:20:00 | 00:00:00 | 00:00:00 | |
| DO3MHA-12 | 2026-09-02 00:46:06 | 48.84579 | 10.13372 | 101° | 47km/h | 15736m | -21.5m/s | -53.1°C | 4.2% | 113.9hPa | 2.5V | 00:00:00 | 02:17:11 | 00:00:00 | |
| DM0DOS-11 | 2026-09-02 00:46:05 | 48.84591 | 10.13276 | 98° | 46km/h | 15842m | -21.7m/s | -53.4°C | 4.3% | 112.1hPa | 2.5V | 08:19:54 | 02:17:06 | 00:00:00 | |
| DK7TD | 2026-09-02 00:45:58 | 48.84594 | 10.13226 | 93° | 44km/h | 15902m | -19.4m/s | -53.5°C | 0.8% | 111hPa | 2.6V | 08:20:09 | 02:17:03 | 00:00:00 | |
| OE5DRO-10 | 2026-09-02 00:45:57 | 48.84594 | 10.13209 | 92° | 37km/h | 15922m | -19.7m/s | -53.4°C | 4.3% | 110.6hPa | 2.6V | 00:00:00 | 00:00:00 | 00:00:00 | |
| DO3MHA-12 | 2026-09-02 00:45:56 | 48.84594 | 10.13193 | 89° | 47km/h | 15942m | -21.8m/s | -53.4°C | 4.2% | 110.3hPa | 2.6V | 00:00:00 | 02:17:01 | 00:00:00 | |
| DM0DOS-11 | 2026-09-02 00:45:52 | 48.84590 | 10.13108 | 81° | 46km/h | 16046m | -19.5m/s | -54°C | 4.5% | 108.5hPa | 2.6V | 08:20:04 | 02:16:56 | 00:00:00 | |
| DK7TD | 2026-09-02 00:45:47 | 48.84584 | 10.13032 | 84° | 53km/h | 16128m | -22.4m/s | -54.4°C | 1% | 107.2hPa | 2.6V | 08:20:09 | 02:16:52 | 00:00:00 | |
| AZAK | 2026-09-02 00:45:47 | 48.84584 | 10.13032 | 85° | 53km/h | 16128m | -22.4m/s | -54.4°C | 1.5% | 107.2hPa | 2.6V | 08:20:00 | 00:00:00 | 00:00:00 | |
| DM0DOS-11 | 2026-09-02 00:45:46 | 48.84581 | 10.12903 | 89° | 55km/h | 16264m | -23.3m/s | -54.5°C | 4.7% | 105hPa | 2.6V | 08:20:14 | 02:16:46 | 00:00:00 | |
| DK7TD | 2026-09-02 00:45:37 | 48.84583 | 10.12819 | 94° | 57km/h | 16351m | -19.3m/s | -54°C | 0.8% | 103.5hPa | 2.5V | 08:21:00 | 02:16:42 | 00:00:00 | |
| DK7TD | 2026-09-02 00:45:26 | 48.84590 | 10.12584 | 93° | 57km/h | 16588m | -23m/s | -53.4°C | 0.6% | 99.9hPa | 2.6V | 08:21:00 | 02:16:31 | 00:00:00 | |
| DO3MHA-12 | 2026-09-02 00:45:26 | 48.84590 | 10.12584 | 93° | 53km/h | 16588m | -22.9m/s | -53.4°C | 4.2% | 99.8hPa | 2.5V | 00:00:00 | 02:16:31 | 00:00:00 | |
| NBG1-10 | 2026-09-02 00:45:25 | 48.84590 | 10.12563 | 94° | 47km/h | 16610m | -19.4m/s | -53.4°C | 4.3% | 99.4hPa | 2.5V | 00:00:00 | 02:16:30 | 00:00:00 | |
| DM0DOS-11 | 2026-09-02 00:45:23 | 48.84594 | 10.12481 | 97° | 53km/h | 16698m | -23.6m/s | -53.3°C | 4.1% | 98.2hPa | 2.5V | 08:20:34 | 02:16:26 | 00:00:00 | |
| DB0NH | 2026-09-02 00:45:21 | 48.84594 | 10.12481 | 98° | 46km/h | 16698m | -23.5m/s | -53.2°C | 4.1% | 98.2hPa | 2.6V | 00:00:00 | 02:16:26 | 00:00:00 | |
| DO3MHA-11 | 2026-09-02 00:45:20 | 48.84596 | 10.12460 | 99° | 47km/h | 16721m | -20.6m/s | -53.4°C | 4.1% | 97.8hPa | 2.6V | 00:00:00 | 02:16:25 | 00:00:00 | |
| SONCRA | 2026-09-02 00:45:18 | 48.84601 | 10.12401 | 96° | 49km/h | 16782m | -21.3m/s | -53.7°C | 1.3% | 96.9hPa | 2.5V | 00:00:00 | 00:00:00 | 00:00:00 | |
| DJ8HS-15 | 2026-09-02 00:45:17 | 48.84601 | 10.12401 | 97° | 44km/h | 16782m | -21.2m/s | -53.6°C | 4.2% | 96.8hPa | 2.5V | 00:00:00 | 02:16:22 | 00:00:00 | |
| DM0DOS-11 | 2026-09-02 00:45:16 | 48.84607 | 10.12299 | 93° | 40km/h | 16912m | -22.5m/s | -53.2°C | 4% | 95hPa | 2.5V | 08:20:44 | 02:16:16 | 00:00:00 | |
| DK7TD | 2026-09-02 00:45:16 | 48.84603 | 10.12363 | 95° | 46km/h | 16823m | -21.8m/s | -53.6°C | 0.6% | 96.2hPa | 2.6V | 08:21:00 | 02:16:20 | 00:00:00 | |
| DK7TD | 2026-09-02 00:45:04 | 48.84602 | 10.12192 | 81° | 40km/h | 17060m | -22m/s | -53.5°C | 0.6% | 92.8hPa | 2.6V | 08:21:00 | 02:16:09 | 00:00:00 | |
| DM0DOS-11 | 2026-09-02 00:45:03 | 48.84597 | 10.12143 | 83° | 46km/h | 17131m | -23.6m/s | -53.7°C | 4.2% | 91.8hPa | 2.5V | 08:20:54 | 02:16:06 | 00:00:00 | |
| OE3JTB-15 | 2026-09-02 00:45:01 | 48.84597 | 10.12143 | 84° | 47km/h | 17131m | -23.5m/s | -53.7°C | 4.2% | 91.8hPa | 2.5V | 00:00:00 | 02:16:06 | 00:00:00 | |
| DK5PH-5 | 2026-09-02 00:45:00 | 48.84595 | 10.12125 | 86° | 46km/h | 17155m | -23.2m/s | -53.7°C | 4.2% | 91.4hPa | 2.5V | 00:00:00 | 02:16:05 | 00:00:00 | |
| DJ8HS-15 | 2026-09-02 00:44:57 | 48.84594 | 10.12070 | 88° | 47km/h | 17224m | -23.4m/s | -53.9°C | 4.2% | 90.5hPa | 2.5V | 00:00:00 | 02:16:02 | 00:00:00 | |
| DO3MHA-12 | 2026-09-02 00:44:56 | 48.84594 | 10.12051 | 89° | 49km/h | 17247m | -22.5m/s | -54.0°C | 4.3% | 90.1hPa | 2.5V | 00:00:00 | 02:16:01 | 00:00:00 | |
| DM0DOS-11 | 2026-09-02 00:44:55 | 48.84597 | 10.11957 | 94° | 51km/h | 17359m | -21.1m/s | -54.3°C | 4.4% | 88.5hPa | 2.5V | 08:21:04 | 02:15:56 | 00:00:00 | |
| DK7TD | 2026-09-02 00:44:54 | 48.84594 | 10.12014 | 91° | 51km/h | 17293m | -23.6m/s | -54.2°C | 0.7% | 89.5hPa | 2.6V | 08:21:51 | 02:15:59 | 00:00:00 | |
| SONCRA | 2026-09-02 00:44:47 | 48.84605 | 10.11864 | 97° | 47km/h | 17467m | -22.0m/s | -54.4°C | 1.3% | 87.1hPa | 2.6V | 00:00:00 | 00:00:00 | 00:00:00 | |
| DF3TZ-5 | 2026-09-02 00:44:44 | 48.84608 | 10.11827 | 97° | 47km/h | 17513m | -23.2m/s | -54.4°C | 1.3% | 86.5hPa | 2.6V | 00:00:00 | 00:00:00 | 00:00:00 | |
| DK7TD | 2026-09-02 00:44:43 | 48.84610 | 10.11809 | 99° | 49km/h | 17535m | -20.8m/s | -54.4°C | 0.8% | 86.2hPa | 2.6V | 08:21:51 | 02:15:48 | 00:00:00 | |
| DM0DOS-11 | 2026-09-02 00:44:42 | 48.84614 | 10.11773 | 100° | 44km/h | 17575m | -20.3m/s | -54.2°C | 4.5% | 85.6hPa | 2.5V | 08:21:14 | 02:15:46 | 00:00:00 | |
| OE5DXL-15 | 2026-09-02 00:44:41 | 48.84614 | 10.11773 | 101° | 44km/h | 17575m | -20.2m/s | -54.2°C | 4.5% | 85.6hPa | 2.6V | 00:00:00 | 00:00:00 | 00:00:00 | |
| DO3MHA-11 | 2026-09-02 00:44:40 | 48.84616 | 10.11757 | 100° | 38km/h | 17598m | -24.2m/s | -54.1°C | 4.4% | 85.4hPa | 2.6V | 00:00:00 | 02:15:45 | 00:00:00 | |
| DG9SBQ-11 | 2026-09-02 00:44:38 | 48.84618 | 10.11742 | 102° | 42km/h | 17622m | -23.8m/s | -54.1°C | 1.3% | 85.0hPa | 2.6V | 08:21:00 | 00:00:00 | 00:00:00 | |
| DJ8HS-15 | 2026-09-02 00:44:37 | 48.84621 | 10.11712 | 103° | 44km/h | 17667m | -22.8m/s | -53.9°C | 4.3% | 84.4hPa | 2.6V | 00:00:00 | 02:15:42 | 00:00:00 | |
| DO3MHA-12 | 2026-09-02 00:44:36 | 48.84623 | 10.11698 | 101° | 40km/h | 17690m | -23.0m/s | -53.8°C | 4.3% | 84.1hPa | 2.6V | 00:00:00 | 02:15:41 | 00:00:00 | |
| DM0DOS-11 | 2026-09-02 00:44:35 | 48.84628 | 10.11627 | 91° | 37km/h | 17798m | -21.2m/s | -53.1°C | 4.1% | 82.7hPa | 2.6V | 08:21:24 | 02:15:36 | 00:00:00 | |
| DK7TD | 2026-09-02 00:44:33 | 48.84627 | 10.11656 | 95° | 38km/h | 17755m | -22.9m/s | -53.3°C | 0.5% | 83.3hPa | 2.5V | 08:21:51 | 02:15:38 | 00:00:00 | |
| DO3MHA-11 | 2026-09-02 00:44:30 | 48.84628 | 10.11612 | 90° | 46km/h | 17820m | -22.6m/s | -53.0°C | 4.0% | 82.4hPa | 2.6V | 00:00:00 | 02:15:35 | 00:00:00 | |
| DL6DJ-15 | 2026-09-02 00:44:29 | 48.84627 | 10.11596 | 86° | 42km/h | 17842m | -22.0m/s | -52.9°C | 1.1% | 82.1hPa | 2.6V | 00:00:00 | 00:00:00 | 00:00:00 | |
| DG9SBQ-11 | 2026-09-02 00:44:26 | 48.84624 | 10.11544 | 85° | 46km/h | 17908m | -20.4m/s | -52.7°C | 1.1% | 81.3hPa | 2.6V | 08:21:00 | 00:00:00 | 00:00:00 | |
| DB0ND-19 | 2026-09-02 00:44:25 | 48.84623 | 10.11527 | 84° | 46km/h | 17929m | -21.8m/s | -52.8°C | 1.1% | 81.0hPa | 2.6V | 00:00:00 | 00:00:00 | 00:00:00 | |
| DM0DOS-11 | 2026-09-02 00:44:23 | 48.84621 | 10.11454 | 89° | 49km/h | 18011m | -21.3m/s | -53.3°C | 4.2% | 80hPa | 2.6V | 08:21:34 | 02:15:26 | 00:00:00 | |
| DK7TD | 2026-09-02 00:44:22 | 48.84621 | 10.11472 | 90° | 47km/h | 17990m | -20.4m/s | -53.2°C | 0.6% | 80.2hPa | 2.6V | 08:21:51 | 02:15:27 | 00:00:00 | |
| DB0NH | 2026-09-02 00:44:21 | 48.84621 | 10.11453 | 90° | 38km/h | 18011m | -21.2m/s | -53.3°C | 4.2% | 79.9hPa | 2.5V | 00:00:00 | 02:15:26 | 00:00:00 | |
| DO3MHA-11 | 2026-09-02 00:44:20 | 48.84621 | 10.11434 | 91° | 46km/h | 18032m | -20.7m/s | -53.4°C | 4.2% | 79.7hPa | 2.5V | 08:21:00 | 02:15:25 | 00:00:00 | |
| NBG1-10 | 2026-09-02 00:44:19 | 48.84622 | 10.11416 | 93° | 37km/h | 18053m | -21.8m/s | -53.5°C | 4.3% | 79.4hPa | 2.5V | 08:21:00 | 02:15:24 | 00:00:00 | |
| DJ8HS-15 | 2026-09-02 00:44:17 | 48.84623 | 10.11380 | 95° | 38km/h | 18096m | -20.7m/s | -53.6°C | 4.4% | 78.9hPa | 2.6V | 08:21:00 | 02:15:22 | 00:00:00 | |
| DO3MHA-12 | 2026-09-02 00:44:16 | 48.84624 | 10.11362 | 94° | 42km/h | 18117m | -20.4m/s | -53.6°C | 4.4% | 78.6hPa | 2.6V | 08:21:00 | 02:15:21 | 00:00:00 | |
| DM0DOS-11 | 2026-09-02 00:44:15 | 48.84627 | 10.11276 | 90° | 42km/h | 18213m | -22.2m/s | -53.8°C | 4.4% | 77.5hPa | 2.6V | 08:21:44 | 02:15:16 | 00:00:00 | |
| DK7TD | 2026-09-02 00:44:11 | 48.84627 | 10.11276 | 91° | 42km/h | 18213m | -22.2m/s | -53.8°C | 0.7% | 77.6hPa | 2.6V | 08:21:51 | 02:15:16 | 00:00:00 | |
| OE5DXL-15 | 2026-09-02 00:44:11 | 48.84627 | 10.11275 | 91° | 33km/h | 18213m | -22.1m/s | -53.7°C | 4.4% | 77.5hPa | 2.6V | 00:00:00 | 00:00:00 | 00:00:00 | |
| DO3MHA-11 | 2026-09-02 00:44:10 | 48.84627 | 10.11260 | 90° | 33km/h | 18236m | -23.5m/s | -53.6°C | 4.4% | 77.3hPa | 2.5V | 00:00:00 | 02:15:15 | 00:00:00 | |
| DF1GD-15 | 2026-09-02 00:44:08 | 48.84627 | 10.11245 | 90° | 37km/h | 18259m | -22.2m/s | -53.4°C | 1.2% | 77.0hPa | 2.5V | 08:21:00 | 00:00:00 | 00:00:00 | |
| DG9SBQ-11 | 2026-09-02 00:44:06 | 48.84627 | 10.11218 | 88° | 35km/h | 18302m | -22.0m/s | -53.2°C | 1.2% | 76.5hPa | 2.5V | 08:21:00 | 00:00:00 | 00:00:00 | |
| DB0UT-7 | 2026-09-02 00:44:05 | 48.84626 | 10.11192 | 84° | 33km/h | 18347m | -22.8m/s | -52.8°C | 4.1% | 75.9hPa | 2.5V | 00:00:00 | 02:15:10 | 00:00:00 | |
| AZAK | 2026-09-02 00:44:04 | 48.84623 | 10.11169 | 77° | 29km/h | 18393m | -23.2m/s | -52.4°C | 1.1% | 75.4hPa | 2.5V | 08:22:00 | 00:00:00 | 00:00:00 | |
| IW2NTF | 2026-09-02 00:44:03 | 48.84610 | 10.11113 | 64° | 33km/h | 18506m | -23.2m/s | -52.4°C | 3.9% | 74.1hPa | 2.5V | 08:21:57 | 02:15:03 | 00:00:00 | |
| DH7VM-15 | 2026-09-02 00:44:03 | 48.84625 | 10.11180 | 81° | 31km/h | 18370m | -22.5m/s | -52.7°C | 1.1% | 75.7hPa | 2.6V | 08:21:00 | 00:00:00 | 00:00:00 | |
| DM0DOS-11 | 2026-09-02 00:44:02 | 48.84620 | 10.11147 | 72° | 31km/h | 18438m | -22.4m/s | -52.2°C | 3.9% | 74.9hPa | 2.6V | 08:21:54 | 02:15:06 | 00:00:00 | |
| DK7TD | 2026-09-02 00:44:01 | 48.84620 | 10.11147 | 72° | 31km/h | 18438m | -22.4m/s | -52.2°C | 0.4% | 74.9hPa | 2.6V | 08:22:42 | 02:15:06 | 00:00:00 | |
| BIOWL1-15 | 2026-09-02 00:43:59 | 48.84610 | 10.11113 | 65° | 33km/h | 18506m | -23.2m/s | 0°C | 0% | 0hPa | 2.5V | 18:12:15 | 02:15:03 | 00:00:00 | |
| DF7PN | 2026-09-02 00:43:59 | 48.84610 | 10.11113 | 64° | 33km/h | 18506m | -23.2m/s | -52.4°C | 1.1% | 74.1hPa | 2.5V | 00:00:00 | 00:00:00 | 00:00:00 | |
| DL6DJ-15 | 2026-09-02 00:43:58 | 48.84610 | 10.11113 | 64° | 33km/h | 18506m | -23.2m/s | -52.4°C | 1.1% | 74.1hPa | 2.5V | 00:00:00 | 00:00:00 | 00:00:00 | |
| DO9HM | 2026-09-02 00:43:57 | 48.84607 | 10.11101 | 68° | 35km/h | 18528m | -21.7m/s | -52.3°C | 1.1% | 73.8hPa | 2.5V | 08:22:00 | 00:00:00 | 00:00:00 | |
| DO3MHA-12 | 2026-09-02 00:43:56 | 48.84604 | 10.11089 | 69° | 35km/h | 18549m | -20.2m/s | -52.2°C | 3.9% | 73.5hPa | 2.5V | 00:00:00 | 02:15:01 | 00:00:00 | |
| DN1GJH-1 | 2026-09-02 00:43:55 | 48.84604 | 10.11089 | 70° | 35km/h | 18549m | -20.2m/s | -52.3°C | 1.1% | 73.6hPa | 2.5V | 08:22:00 | 00:00:00 | 00:00:00 | |
| DM0DOS-11 | 2026-09-02 00:43:54 | 48.84594 | 10.11024 | 85° | 33km/h | 18654m | -20.4m/s | -52.7°C | 4% | 72.4hPa | 2.5V | 08:22:04 | 02:14:56 | 00:00:00 | |
| DB0ND-19 | 2026-09-02 00:43:54 | 48.84598 | 10.11063 | 75° | 35km/h | 18591m | -22.3m/s | -52.3°C | 1.1% | 73.1hPa | 2.5V | 00:00:00 | 00:00:00 | 00:00:00 | |
| IW2NTF | 2026-09-02 00:43:53 | 48.84594 | 10.10986 | 95° | 31km/h | 18719m | -20.3m/s | -52.7°C | 4% | 71.7hPa | 2.5V | 08:22:07 | 02:14:53 | 00:00:00 | |
| DK7TD | 2026-09-02 00:43:50 | 48.84593 | 10.11011 | 91° | 33km/h | 18675m | -22.1m/s | -52.7°C | 0.5% | 72.2hPa | 2.6V | 08:22:42 | 02:14:55 | 00:00:00 | |
| SONCRA | 2026-09-02 00:43:45 | 48.84595 | 10.10937 | 84° | 31km/h | 18797m | -19.6m/s | -52.8°C | 1.1% | 70.8hPa | 2.5V | 00:00:00 | 00:00:00 | 00:00:00 | |
| DG9SBQ-11 | 2026-09-02 00:43:44 | 48.84595 | 10.10937 | 86° | 31km/h | 18797m | -19.6m/s | -52.8°C | 1.1% | 70.8hPa | 2.5V | 08:22:00 | 00:00:00 | 00:00:00 | |
| OE5DRO-10 | 2026-09-02 00:43:43 | 48.84594 | 10.10925 | 82° | 31km/h | 18817m | -19.5m/s | -52.7°C | 4.0% | 70.6hPa | 2.5V | 08:22:00 | 00:00:00 | 00:00:00 | |
| DM0DOS-11 | 2026-09-02 00:43:42 | 48.84591 | 10.10900 | 73° | 35km/h | 18859m | -20.1m/s | -52.5°C | 3.9% | 70.1hPa | 2.5V | 08:22:14 | 02:14:46 | 00:00:00 | |
| DK7TD | 2026-09-02 00:43:40 | 48.84588 | 10.10887 | 73° | 37km/h | 18879m | -19.9m/s | -52.5°C | 0.4% | 70hPa | 2.6V | 08:22:42 | 02:14:45 | 00:00:00 | |
| DO3MHA-11 | 2026-09-02 00:43:40 | 48.84588 | 10.10887 | 73° | 33km/h | 18879m | -19.8m/s | -52.4°C | 3.9% | 69.9hPa | 2.5V | 00:00:00 | 02:14:45 | 00:00:00 | |
| IW2NTF | 2026-09-02 00:43:38 | 48.84581 | 10.10849 | 75° | 33km/h | 18939m | -18.7m/s | -52.8°C | 4% | 69.2hPa | 2.5V | 08:22:18 | 02:14:42 | 00:00:00 | |
| BIOWL1-15 | 2026-09-02 00:43:38 | 48.84575 | 10.10798 | 80° | 31km/h | 19021m | -21.9m/s | 0°C | 0% | 0hPa | 2.5V | 18:12:15 | 02:14:38 | 00:00:00 | |
| DJ8HS-15 | 2026-09-02 00:43:37 | 48.84581 | 10.10848 | 76° | 26km/h | 18939m | -18.6m/s | -52.8°C | 4.0% | 69.2hPa | 2.6V | 00:00:00 | 02:14:42 | 00:00:00 | |
| DO3MHA-12 | 2026-09-02 00:43:36 | 48.84579 | 10.10836 | 79° | 31km/h | 18956m | -15.7m/s | -52.9°C | 4.1% | 69.0hPa | 2.6V | 00:00:00 | 02:14:41 | 00:00:00 | |
| DB0UT-7 | 2026-09-02 00:43:35 | 48.84577 | 10.10823 | 83° | 24km/h | 18977m | -23.8m/s | -52.9°C | 4.1% | 68.8hPa | 2.6V | 00:00:00 | 00:00:00 | 00:00:00 | |
| DM0DOS-11 | 2026-09-02 00:43:34 | 48.84573 | 10.10774 | 89° | 27km/h | 19063m | -22.5m/s | -52.6°C | 3.9% | 67.9hPa | 2.5V | 08:22:24 | 02:14:36 | 00:00:00 | |
| IW2NTF | 2026-09-02 00:43:33 | 48.84576 | 10.10733 | 106° | 26km/h | 19150m | -23.7m/s | -52.5°C | 3.8% | 67.1hPa | 2.5V | 08:22:28 | 02:14:32 | 00:00:00 | |
| DK7TD | 2026-09-02 00:43:30 | 48.84573 | 10.10764 | 92° | 27km/h | 19085m | -21.8m/s | -52.6°C | 0.5% | 67.7hPa | 2.5V | 08:22:42 | 02:14:35 | 00:00:00 | |
| BIOWL1-15 | 2026-09-02 00:43:26 | 48.84578 | 10.10724 | 112° | 24km/h | 19173m | -23.4m/s | 0°C | 0% | 0hPa | 2.5V | 18:12:15 | 02:14:31 | 00:00:00 | |
| DO3MHA-12 | 2026-09-02 00:43:26 | 48.84578 | 10.10724 | 112° | 20km/h | 19174m | -23.3m/s | -52.4°C | 3.8% | 66.8hPa | 2.5V | 00:00:00 | 02:14:31 | 00:00:00 | |
| PG1ADW-2 | 2026-09-02 00:43:24 | 48.84583 | 10.10709 | 121° | 18km/h | 19221m | -23.9m/s | -52.6°C | 3.8% | 66.3hPa | 2.5V | 00:00:00 | 02:14:29 | 00:00:00 | |
| DM0DOS-11 | 2026-09-02 00:43:23 | 48.84591 | 10.10691 | 117° | 18km/h | 19292m | -23.8m/s | -53.2°C | 3.9% | 65.6hPa | 2.5V | 08:22:34 | 02:14:26 | 00:00:00 | |
| DK7TD | 2026-09-02 00:43:19 | 48.84596 | 10.10679 | 122° | 18km/h | 19339m | -23.3m/s | -53.5°C | 0.5% | 65.2hPa | 2.6V | 08:22:42 | 02:14:24 | 00:00:00 | |
| DJ8HS-15 | 2026-09-02 00:43:17 | 48.84600 | 10.10667 | 121° | 26km/h | 19389m | -25.4m/s | -53.7°C | 4.2% | 64.6hPa | 2.5V | 00:00:00 | 02:14:22 | 00:00:00 | |
| DO3MHA-12 | 2026-09-02 00:43:16 | 48.84601 | 10.10661 | 111° | 26km/h | 19414m | -24.7m/s | -53.7°C | 4.2% | 64.4hPa | 2.5V | 00:00:00 | 02:14:21 | 00:00:00 | |
| DM0DOS-11 | 2026-09-02 00:43:15 | 48.84605 | 10.10623 | 88° | 26km/h | 19538m | -24.6m/s | -53.8°C | 4.2% | 63.2hPa | 2.6V | 08:22:44 | 02:14:16 | 00:00:00 | |
| IW2NTF | 2026-09-02 00:43:14 | 48.84603 | 10.10591 | 81° | 31km/h | 19604m | -21.3m/s | -54.3°C | 4.3% | 62.5hPa | 2.5V | 08:22:47 | 02:14:13 | 00:00:00 | |
| DK7TD | 2026-09-02 00:43:09 | 48.84604 | 10.10602 | 83° | 29km/h | 19583m | -20.5m/s | -54.2°C | 0.7% | 62.7hPa | 2.5V | 08:23:33 | 02:14:14 | 00:00:00 | |
| DF1GD-15 | 2026-09-02 00:43:07 | 48.84603 | 10.10591 | 83° | 33km/h | 19604m | -21.3m/s | -54.3°C | 1.2% | 62.5hPa | 2.6V | 08:23:00 | 00:00:00 | 00:00:00 | |
| DO3MHA-12 | 2026-09-02 00:43:05 | 48.84599 | 10.10554 | 82° | 24km/h | 19666m | -20.1m/s | -54.6°C | 4.5% | 61.8hPa | 2.6V | 00:00:00 | 02:14:10 | 00:00:00 | |
| DG9SBQ-11 | 2026-09-02 00:43:04 | 48.84599 | 10.10554 | 82° | 33km/h | 19666m | -20.2m/s | -54.7°C | 1.2% | 61.8hPa | 2.6V | 08:23:00 | 00:00:00 | 00:00:00 | |
| DM0DOS-11 | 2026-09-02 00:43:02 | 48.84597 | 10.10509 | 92° | 26km/h | 19748m | -19.1m/s | -54.7°C | 4.6% | 61hPa | 2.6V | 08:22:54 | 02:14:06 | 00:00:00 | |
| DK7TD | 2026-09-02 00:42:59 | 48.84598 | 10.10491 | 100° | 22km/h | 19787m | -22.8m/s | -54.5°C | 0.8% | 60.7hPa | 2.5V | 08:23:33 | 02:14:04 | 00:00:00 | |
| IW2NTF | 2026-09-02 00:42:58 | 48.84599 | 10.10477 | 104° | 18km/h | 19831m | -20.6m/s | -54.4°C | 4.5% | 60.3hPa | 2.5V | 08:22:58 | 02:14:02 | 00:00:00 | |
| DJ8HS-15 | 2026-09-02 00:42:57 | 48.84599 | 10.10477 | 105° | 15km/h | 19831m | -20.6m/s | -54.4°C | 4.5% | 60.2hPa | 2.6V | 00:00:00 | 02:14:02 | 00:00:00 | |
| DO9HM | 2026-09-02 00:42:56 | 48.84600 | 10.10470 | 104° | 16km/h | 19851m | -20.9m/s | -54.4°C | 1.2% | 60.1hPa | 2.6V | 08:23:00 | 00:00:00 | 00:00:00 | |
| DM0DOS-11 | 2026-09-02 00:42:55 | 48.84605 | 10.10438 | 103° | 18km/h | 19955m | -19.9m/s | -54.2°C | 4.4% | 59.1hPa | 2.6V | 08:23:04 | 02:13:56 | 00:00:00 | |
| DO3MHA-12 | 2026-09-02 00:42:55 | 48.84601 | 10.10464 | 106° | 16km/h | 19872m | -21.2m/s | -54.4°C | 4.5% | 59.8hPa | 2.5V | 00:00:00 | 02:14:00 | 00:00:00 | |
| DN1GJH-1 | 2026-09-02 00:42:54 | 48.84601 | 10.10464 | 106° | 16km/h | 19872m | -21.2m/s | -54.5°C | 1.2% | 59.9hPa | 2.5V | 08:23:00 | 00:00:00 | 00:00:00 | |
| IW2NTF | 2026-09-02 00:42:52 | 48.84608 | 10.10413 | 94° | 15km/h | 20039m | -23.3m/s | -53.8°C | 4.3% | 58.4hPa | 2.5V | 08:23:08 | 02:13:52 | 00:00:00 | |
| DK7TD | 2026-09-02 00:42:48 | 48.84607 | 10.10419 | 96° | 16km/h | 20016m | -22.9m/s | -53.7°C | 0.7% | 58.6hPa | 2.5V | 08:23:33 | 02:13:53 | 00:00:00 | |
| OE9MKV-15 | 2026-09-02 00:42:47 | 48.84608 | 10.10413 | 95° | 18km/h | 20039m | -23.2m/s | -53.7°C | 4.3% | 58.4hPa | 2.5V | 00:00:00 | 02:13:52 | 00:00:00 | |
| OE5DRO-10 | 2026-09-02 00:42:46 | 48.84608 | 10.10408 | 92° | 18km/h | 20061m | -20.4m/s | -53.8°C | 4.4% | 58.1hPa | 2.5V | 00:00:00 | 00:00:00 | 00:00:00 | |
| DO3MHA-12 | 2026-09-02 00:42:45 | 48.84608 | 10.10403 | 83° | 13km/h | 20080m | -18.6m/s | -53.9°C | 4.4% | 57.9hPa | 2.6V | 08:23:00 | 02:13:50 | 00:00:00 | |
| DG9SBQ-11 | 2026-09-02 00:42:43 | 48.84608 | 10.10400 | 81° | 9km/h | 20099m | -19.4m/s | -53.9°C | 1.2% | 57.8hPa | 2.5V | 08:23:00 | 00:00:00 | 00:00:00 | |
| DM0DOS-11 | 2026-09-02 00:42:42 | 48.84604 | 10.10392 | 32° | 9km/h | 20160m | -21.2m/s | -53.9°C | 4.4% | 57.2hPa | 2.5V | 08:23:14 | 02:13:46 | 00:00:00 | |
| OE5DXL-15 | 2026-09-02 00:42:41 | 48.84604 | 10.10392 | 33° | 20km/h | 20160m | -21.2m/s | -53.8°C | 4.4% | 57.2hPa | 2.5V | 00:00:00 | 00:00:00 | 00:00:00 | |
| NBG1-10 | 2026-09-02 00:42:40 | 48.84602 | 10.10391 | 18° | 22km/h | 20180m | -18.7m/s | -53.9°C | 4.5% | 57.0hPa | 2.5V | 00:00:00 | 02:13:45 | 00:00:00 | |
| AZAK | 2026-09-02 00:42:39 | 48.84602 | 10.10391 | 18° | 11km/h | 20180m | -18.8m/s | -53.9°C | 1.2% | 57.1hPa | 2.6V | 08:23:00 | 00:00:00 | 00:00:00 | |
| IW2NTF | 2026-09-02 00:42:38 | 48.84593 | 10.10386 | 24° | 16km/h | 20243m | -25m/s | -53.8°C | 4.4% | 56.5hPa | 2.6V | 08:23:18 | 02:13:42 | 00:00:00 | |
| DK7TD | 2026-09-02 00:42:37 | 48.84593 | 10.10386 | 25° | 16km/h | 20243m | -25m/s | -53.8°C | 0.7% | 56.5hPa | 2.6V | 08:23:33 | 02:13:42 | 00:00:00 | |
| DJ8HS-15 | 2026-09-02 00:42:37 | 48.84593 | 10.10386 | 25° | 22km/h | 20243m | -25.0m/s | -53.8°C | 4.4% | 56.5hPa | 2.5V | 00:00:00 | 02:13:42 | 00:00:00 | |
| DO3MHA-12 | 2026-09-02 00:42:35 | 48.84584 | 10.10378 | 33° | 26km/h | 20298m | -28.8m/s | -53.7°C | 4.4% | 56.1hPa | 2.5V | 00:00:00 | 02:13:40 | 00:00:00 | |
| DN1GJH-1 | 2026-09-02 00:42:34 | 48.84584 | 10.10378 | 33° | 24km/h | 20298m | -28.8m/s | -53.7°C | 1.2% | 56.2hPa | 2.5V | 08:23:00 | 00:00:00 | 00:00:00 | |
| IW2NTF | 2026-09-02 00:42:32 | 48.84549 | 10.10311 | 71° | 24km/h | 20536m | -26.7m/s | -53.5°C | 4.4% | 54.1hPa | 2.5V | 08:23:29 | 02:13:31 | 00:00:00 | |
| DK7TD | 2026-09-02 00:42:26 | 48.84549 | 10.10311 | 72° | 24km/h | 20536m | -26.7m/s | -53.5°C | 0.8% | 54.1hPa | 2.5V | 08:23:33 | 02:13:31 | 00:00:00 | |
| DK7TD | 2026-09-02 00:42:15 | 48.84533 | 10.10234 | 74° | 20km/h | 20837m | -21.7m/s | -53.3°C | 0.8% | 51.5hPa | 2.5V | 08:24:24 | 02:13:20 | 00:00:00 | |
| DO3MHA-12 | 2026-09-02 00:42:15 | 48.84533 | 10.10234 | 74° | 22km/h | 20837m | -21.7m/s | -53.2°C | 4.5% | 51.5hPa | 2.5V | 00:00:00 | 02:13:20 | 00:00:00 | |
| DG9SBQ-11 | 2026-09-02 00:42:14 | 48.84533 | 10.10234 | 74° | 20km/h | 20837m | -21.7m/s | -53.3°C | 1.2% | 51.5hPa | 2.5V | 08:24:00 | 00:00:00 | 00:00:00 | |
| DN1GJH-1 | 2026-09-02 00:42:13 | 48.84532 | 10.10227 | 71° | 22km/h | 20861m | -26.6m/s | -53.2°C | 1.2% | 51.4hPa | 2.5V | 08:24:00 | 00:00:00 | 00:00:00 | |
| DM0DOS-11 | 2026-09-02 00:42:12 | 48.84526 | 10.10202 | 69° | 22km/h | 20946m | -27.8m/s | -52.9°C | 4.4% | 50.8hPa | 2.5V | 08:23:44 | 02:13:16 | 00:00:00 | |
| OE5DXL-15 | 2026-09-02 00:42:11 | 48.84526 | 10.10202 | 70° | 13km/h | 20946m | -27.7m/s | -52.9°C | 4.4% | 50.7hPa | 2.5V | 00:00:00 | 00:00:00 | 00:00:00 | |
| DO3MHA-11 | 2026-09-02 00:42:10 | 48.84524 | 10.10194 | 74° | 22km/h | 20974m | -26.9m/s | -52.7°C | 4.3% | 50.5hPa | 2.5V | 00:00:00 | 02:13:15 | 00:00:00 | |
| DF3TZ-5 | 2026-09-02 00:42:09 | 48.84522 | 10.10176 | 78° | 26km/h | 21028m | -27.8m/s | -52.3°C | 1.1% | 50.1hPa | 2.5V | 00:00:00 | 00:00:00 | 00:00:00 | |
| OE5DRO-10 | 2026-09-02 00:42:08 | 48.84522 | 10.10176 | 79° | 13km/h | 21028m | -27.7m/s | -52.3°C | 4.1% | 50.1hPa | 2.5V | 00:00:00 | 00:00:00 | 00:00:00 | |
| NBG1-10 | 2026-09-02 00:42:07 | 48.84521 | 10.10167 | 76° | 11km/h | 21055m | -27.9m/s | -52.3°C | 4.1% | 49.9hPa | 2.5V | 00:00:00 | 02:13:12 | 00:00:00 | |
| DM0DOS-11 | 2026-09-02 00:42:05 | 48.84513 | 10.10119 | 74° | 16km/h | 21220m | -25.6m/s | -51.6°C | 3.9% | 48.6hPa | 2.5V | 08:23:54 | 02:13:06 | 00:00:00 | |
| DK7TD | 2026-09-02 00:42:05 | 48.84518 | 10.10149 | 74° | 22km/h | 21113m | -29.6m/s | -52°C | 0.6% | 49.5hPa | 2.5V | 08:24:24 | 02:13:10 | 00:00:00 | |
| DK7TD | 2026-09-02 00:41:54 | 48.84506 | 10.10103 | 348° | 5km/h | 21424m | -28.1m/s | -51.5°C | 0.4% | 47.1hPa | 2.5V | 08:24:24 | 02:12:59 | 00:00:00 | |
| DK7TD | 2026-09-02 00:41:44 | 48.84491 | 10.10116 | 8° | 9km/h | 21717m | -29.2m/s | -51.4°C | 0.4% | 45.1hPa | 2.5V | 08:24:24 | 02:12:49 | 00:00:00 | |
| DM0DOS-11 | 2026-09-02 00:41:42 | 48.84483 | 10.10114 | 357° | 9km/h | 21801m | -29.4m/s | -51.6°C | 3.8% | 44.5hPa | 2.5V | 08:24:14 | 02:12:46 | 00:00:00 | |
| DF8AY | 2026-09-02 00:41:35 | 48.84471 | 10.10108 | 359° | 7km/h | 21976m | -29m/s | -52.2°C | 0.5% | 43.3hPa | 2.5V | 08:24:24 | 02:12:40 | 00:00:00 | |
| DM0DOS-11 | 2026-09-02 00:41:35 | 48.84466 | 10.10108 | 352° | 2km/h | 22092m | -28.4m/s | -52.4°C | 4% | 42.5hPa | 2.5V | 08:24:24 | 02:12:36 | 00:00:00 | |
| DK7TD | 2026-09-02 00:41:34 | 48.84469 | 10.10108 | 356° | 5km/h | 22006m | -29.7m/s | -52.3°C | 0.5% | 43.1hPa | 2.5V | 08:24:24 | 02:12:39 | 00:00:00 | |
| DF8AY | 2026-09-02 00:41:29 | 48.84462 | 10.10096 | 56° | 9km/h | 22312m | -30.9m/s | -52.6°C | 0.6% | 41.1hPa | 2.5V | 08:25:15 | 02:12:29 | 00:00:00 | |
| IW2NTF | 2026-09-02 00:41:25 | 48.84455 | 10.10085 | 39° | 9km/h | 22428m | -28.4m/s | -52.6°C | 4.1% | 40.4hPa | 2.5V | 08:24:35 | 02:12:25 | 00:00:00 | |
| DK7TD | 2026-09-02 00:41:23 | 48.84460 | 10.10093 | 46° | 9km/h | 22342m | -29.4m/s | -52.7°C | 0.6% | 40.9hPa | 2.6V | 08:25:15 | 02:12:28 | 00:00:00 | |
| DM0DOS-11 | 2026-09-02 00:41:22 | 48.84457 | 10.10087 | 45° | 9km/h | 22399m | -28.9m/s | -52.5°C | 4.1% | 40.5hPa | 2.5V | 08:24:34 | 02:12:26 | 00:00:00 | |
| DK5PH-5 | 2026-09-02 00:41:22 | 48.84458 | 10.10090 | 48° | 11km/h | 22371m | -28.0m/s | -52.6°C | 4.1% | 40.7hPa | 2.5V | 00:00:00 | 02:12:27 | 00:00:00 | |
| DB0NH | 2026-09-02 00:41:21 | 48.84457 | 10.10087 | 46° | 11km/h | 22400m | -28.9m/s | -52.5°C | 4.1% | 40.5hPa | 2.5V | 00:00:00 | 02:12:26 | 00:00:00 | |
| DO3MHA-11 | 2026-09-02 00:41:20 | 48.84455 | 10.10084 | 40° | 5km/h | 22428m | -28.4m/s | -52.6°C | 4.1% | 40.3hPa | 2.5V | 08:24:00 | 02:12:25 | 00:00:00 | |
| DB0ND-19 | 2026-09-02 00:41:19 | 48.84451 | 10.10081 | 29° | 7km/h | 22483m | -26.5m/s | -52.9°C | 1.1% | 40.0hPa | 2.6V | 00:00:00 | 00:00:00 | 00:00:00 | |
| DJ8HS-15 | 2026-09-02 00:41:17 | 48.84449 | 10.10080 | 33° | 11km/h | 22509m | -26.9m/s | -52.9°C | 4.2% | 39.8hPa | 2.6V | 08:24:00 | 02:12:22 | 00:00:00 | |
| AZAK | 2026-09-02 00:41:16 | 48.84450 | 10.10080 | 34° | 5km/h | 22509m | -26.9m/s | -53.0°C | 1.1% | 39.8hPa | 2.5V | 08:25:00 | 00:00:00 | 00:00:00 | |
| IW2NTF | 2026-09-02 00:41:15 | 48.84452 | 10.10076 | 263° | 4km/h | 22718m | -29.2m/s | -52.8°C | 4.2% | 38.6hPa | 2.5V | 08:24:45 | 02:12:15 | 00:00:00 | |
| DM0DOS-11 | 2026-09-02 00:41:15 | 48.84451 | 10.10075 | 223° | 0km/h | 22689m | -30.6m/s | -53°C | 4.3% | 38.8hPa | 2.5V | 08:24:44 | 02:12:16 | 00:00:00 | |
| DF8AY | 2026-09-02 00:41:14 | 48.84449 | 10.10076 | 193° | 2km/h | 22595m | -31.7m/s | -52.9°C | 0.7% | 39.4hPa | 2.5V | 08:25:15 | 02:12:19 | 00:00:00 | |
| DL1XH-west | 2026-09-02 00:41:12 | 48.84451 | 10.10075 | 148° | 4km/h | 22658m | -31.2m/s | -53.1°C | 0.7% | 39hPa | 2.6V | 08:25:15 | 02:12:17 | 00:00:00 | |
| OE5DXL-15 | 2026-09-02 00:41:11 | 48.84451 | 10.10075 | 224° | 13km/h | 22689m | -30.6m/s | -53.0°C | 4.3% | 38.7hPa | 2.5V | 08:24:00 | 00:00:00 | 00:00:00 | |
| DO3MHA-11 | 2026-09-02 00:41:10 | 48.84451 | 10.10076 | 264° | 13km/h | 22718m | -29.1m/s | -52.8°C | 4.2% | 38.5hPa | 2.5V | 00:00:00 | 02:12:15 | 00:00:00 | |
| SONCRA | 2026-09-02 00:41:09 | 48.84451 | 10.10077 | 310° | 2km/h | 22748m | -30.7m/s | -52.8°C | 1.1% | 38.4hPa | 2.5V | 00:00:00 | 00:00:00 | 00:00:00 | |
| KANTATE | 2026-09-02 00:41:08 | 48.84451 | 10.10077 | 312° | 4km/h | 22748m | -30.7m/s | -52.8°C | 1.1% | 38.4hPa | 2.5V | 00:00:00 | 00:00:00 | 00:00:00 | |
| DF3TZ-5 | 2026-09-02 00:41:07 | 48.84447 | 10.10077 | 13° | 11km/h | 22841m | -30.1m/s | -52.8°C | 1.1% | 37.9hPa | 2.5V | 00:00:00 | 00:00:00 | 00:00:00 | |
| IW2NTF | 2026-09-02 00:41:05 | 48.84422 | 10.10062 | 31° | 22km/h | 23027m | -33.4m/s | -52.7°C | 4.2% | 36.8hPa | 2.5V | 08:24:55 | 02:12:05 | 00:00:00 | |
| DF8AY | 2026-09-02 00:41:03 | 48.84435 | 10.10073 | 24° | 20km/h | 22932m | -30.4m/s | -52.9°C | 0.6% | 37.3hPa | 2.6V | 08:25:15 | 02:12:08 | 00:00:00 | |
| DM0DOS-11 | 2026-09-02 00:41:03 | 48.84426 | 10.10067 | 35° | 22km/h | 22994m | -31.9m/s | -52.8°C | 4.2% | 37hPa | 2.5V | 08:24:54 | 02:12:06 | 00:00:00 | |
| DK7TD | 2026-09-02 00:41:02 | 48.84431 | 10.10070 | 21° | 20km/h | 22962m | -31.2m/s | -52.9°C | 0.7% | 37.2hPa | 2.6V | 08:25:15 | 02:12:07 | 00:00:00 | |
| DL1XH-west | 2026-09-02 00:41:01 | 48.84426 | 10.10067 | 36° | 22km/h | 22994m | -31.9m/s | -52.8°C | 0.7% | 37hPa | 2.5V | 08:25:15 | 02:12:06 | 00:00:00 | |
| NBG1-10 | 2026-09-02 00:41:01 | 48.84426 | 10.10067 | 36° | 16km/h | 22995m | -31.8m/s | -52.7°C | 4.2% | 37.0hPa | 2.5V | 00:00:00 | 02:12:06 | 00:00:00 | |
| DO3MHA-11 | 2026-09-02 00:41:00 | 48.84422 | 10.10062 | 32° | 16km/h | 23027m | -33.4m/s | -52.7°C | 4.2% | 36.8hPa | 2.5V | 00:00:00 | 02:12:05 | 00:00:00 | |
| AZAK | 2026-09-02 00:40:57 | 48.84411 | 10.10047 | 60° | 18km/h | 23122m | -31.0m/s | -52.4°C | 1.0% | 36.2hPa | 2.5V | 08:25:00 | 00:00:00 | 00:00:00 | |
| DM0DOS-11 | 2026-09-02 00:40:56 | 48.84411 | 10.10015 | 119° | 11km/h | 23306m | -32.2m/s | -52.3°C | 4% | 35.2hPa | 2.5V | 08:25:04 | 02:11:56 | 00:00:00 | |
| DK7TD | 2026-09-02 00:40:52 | 48.84410 | 10.10019 | 111° | 13km/h | 23275m | -31.9m/s | -52.3°C | 0.5% | 35.4hPa | 2.6V | 08:25:15 | 02:11:57 | 00:00:00 | |
| DL6DJ-15 | 2026-09-02 00:40:51 | 48.84411 | 10.10015 | 119° | 9km/h | 23307m | -32.2m/s | -52.3°C | 1.0% | 35.2hPa | 2.5V | 00:00:00 | 00:00:00 | 00:00:00 | |
| IW2NTF | 2026-09-02 00:40:50 | 48.84412 | 10.10011 | 126° | 9km/h | 23339m | -32.8m/s | -52.4°C | 4% | 35hPa | 2.5V | 08:25:05 | 02:11:55 | 00:00:00 | |
| DL1XH-west | 2026-09-02 00:40:50 | 48.84412 | 10.10011 | 126° | 9km/h | 23339m | -32.8m/s | -52.4°C | 0.6% | 35hPa | 2.5V | 08:25:15 | 02:11:55 | 00:00:00 | |
| DB0ND-19 | 2026-09-02 00:40:48 | 48.84417 | 10.10004 | 130° | 7km/h | 23432m | -30.5m/s | -52.7°C | 1.1% | 34.5hPa | 2.5V | 00:00:00 | 00:00:00 | 00:00:00 | |
| OE9MKV-15 | 2026-09-02 00:40:46 | 48.84417 | 10.10001 | 121° | 16km/h | 23462m | -28.8m/s | -52.7°C | 4.3% | 34.3hPa | 2.5V | 00:00:00 | 02:11:51 | 00:00:00 | |
| DL1XH1-15 | 2026-09-02 00:40:45 | 48.84417 | 10.09979 | 96° | 15km/h | 23630m | -34.3m/s | -52.6°C | 4.2% | 33.5hPa | 2.5V | 08:25:15 | 02:11:45 | 00:00:00 | |
| DO3MHA-12 | 2026-09-02 00:40:45 | 48.84418 | 10.09999 | 94° | 15km/h | 23489m | -26.5m/s | -52.6°C | 4.3% | 34.1hPa | 2.5V | 00:00:00 | 02:11:50 | 00:00:00 | |
| DM0DOS-11 | 2026-09-02 00:40:42 | 48.84417 | 10.09984 | 83° | 15km/h | 23595m | -34.6m/s | -52.5°C | 4.2% | 33.7hPa | 2.5V | 08:25:14 | 02:11:46 | 00:00:00 | |
| DK7TD | 2026-09-02 00:40:41 | 48.84416 | 10.09984 | 84° | 15km/h | 23595m | -34.7m/s | -52.5°C | 0.7% | 33.7hPa | 2.5V | 08:25:15 | 02:11:46 | 00:00:00 | |
| DL1XH-west | 2026-09-02 00:40:40 | 48.84417 | 10.09979 | 96° | 15km/h | 23630m | -34.3m/s | -52.6°C | 0.7% | 33.5hPa | 2.5V | 08:25:15 | 02:11:45 | 00:00:00 | |
| DO3MHA-11 | 2026-09-02 00:40:40 | 48.84417 | 10.09979 | 97° | 22km/h | 23630m | -34.3m/s | -52.6°C | 4.2% | 33.5hPa | 2.5V | 00:00:00 | 02:11:45 | 00:00:00 | |
| DG9SBQ-11 | 2026-09-02 00:40:39 | 48.84417 | 10.09979 | 97° | 15km/h | 23630m | -34.3m/s | -52.6°C | 1.1% | 33.5hPa | 2.5V | 08:25:00 | 00:00:00 | 00:00:00 | |
| SONCRA | 2026-09-02 00:40:38 | 48.84417 | 10.09965 | 106° | 18km/h | 23699m | -35.2m/s | -52.6°C | 1.1% | 33.2hPa | 2.5V | 00:00:00 | 00:00:00 | 00:00:00 | |
| DJ8HS-15 | 2026-09-02 00:40:37 | 48.84418 | 10.09958 | 106° | 20km/h | 23734m | -36.3m/s | -52.2°C | 4.0% | 33.0hPa | 2.5V | 00:00:00 | 02:11:42 | 00:00:00 | |
| DF3TZ-5 | 2026-09-02 00:40:36 | 48.84423 | 10.09943 | 120° | 24km/h | 23805m | -35.4m/s | -52.1°C | 1.0% | 32.6hPa | 2.5V | 00:00:00 | 00:00:00 | 00:00:00 | |
| DM0DOS-11 | 2026-09-02 00:40:35 | 48.84439 | 10.09915 | 140° | 27km/h | 23942m | -31.4m/s | -52.3°C | 4.1% | 31.9hPa | 2.5V | 08:25:24 | 02:11:36 | 00:00:00 | |
| DL1XH1-15 | 2026-09-02 00:40:35 | 48.84444 | 10.09909 | 142° | 26km/h | 23973m | -30.2m/s | -52.3°C | 4.1% | 31.8hPa | 2.5V | 08:25:25 | 02:11:35 | 00:00:00 | |
| DF8AY | 2026-09-02 00:40:31 | 48.84439 | 10.09915 | 140° | 27km/h | 23943m | -31.4m/s | -52.3°C | 0.6% | 31.9hPa | 2.5V | 08:26:06 | 02:11:36 | 00:00:00 | |
| DL1XH-west | 2026-09-02 00:40:30 | 48.84443 | 10.09909 | 143° | 26km/h | 23973m | -30.2m/s | -52.3°C | 0.6% | 31.8hPa | 2.5V | 08:26:06 | 02:11:35 | 00:00:00 | |
| DO3MHA-11 | 2026-09-02 00:40:30 | 48.84443 | 10.09909 | 143° | 20km/h | 23973m | -30.2m/s | -52.3°C | 4.1% | 31.7hPa | 2.5V | 00:00:00 | 02:11:35 | 00:00:00 | |
| DN1GJH-1 | 2026-09-02 00:40:29 | 48.84443 | 10.09909 | 144° | 26km/h | 23973m | -30.2m/s | -52.3°C | 1.1% | 31.8hPa | 2.5V | 08:26:00 | 00:00:00 | 00:00:00 | |
| NBG1-10 | 2026-09-02 00:40:28 | 48.84453 | 10.09897 | 140° | 15km/h | 24033m | -30.0m/s | -52.3°C | 4.1% | 31.4hPa | 2.5V | 00:00:00 | 02:11:33 | 00:00:00 | |
| IW2NTF | 2026-09-02 00:40:25 | 48.84483 | 10.09864 | 156° | 15km/h | 24266m | -28.8m/s | -52.2°C | 4% | 30.3hPa | 2.5V | 08:25:35 | 02:11:25 | 00:00:00 | |
| DO3MHA-12 | 2026-09-02 00:40:25 | 48.84465 | 10.09882 | 137° | 16km/h | 24121m | -29.6m/s | -52.1°C | 4.0% | 31.0hPa | 2.5V | 00:00:00 | 02:11:30 | 00:00:00 | |
| DG9SBQ-11 | 2026-09-02 00:40:23 | 48.84468 | 10.09877 | 135° | 18km/h | 24150m | -28.2m/s | -52.2°C | 1.0% | 30.9hPa | 2.5V | 08:26:00 | 00:00:00 | 00:00:00 | |
| DM0DOS-11 | 2026-09-02 00:40:22 | 48.84479 | 10.09866 | 159° | 15km/h | 24237m | -30.3m/s | -52.2°C | 4.1% | 30.5hPa | 2.5V | 08:25:34 | 02:11:26 | 00:00:00 | |
| DF8AY | 2026-09-02 00:40:20 | 48.84483 | 10.09864 | 157° | 15km/h | 24266m | -28.8m/s | -52.2°C | 0.6% | 30.3hPa | 2.5V | 08:26:06 | 02:11:25 | 00:00:00 | |
| DL1XH-west | 2026-09-02 00:40:19 | 48.84487 | 10.09862 | 166° | 18km/h | 24296m | -29.5m/s | -52.2°C | 0.6% | 30.2hPa | 2.5V | 08:26:06 | 02:11:24 | 00:00:00 | |
| DB0ND-19 | 2026-09-02 00:40:17 | 48.84499 | 10.09861 | 187° | 18km/h | 24387m | -29.2m/s | -52.1°C | 1.0% | 29.8hPa | 2.5V | 00:00:00 | 00:00:00 | 00:00:00 | |
| DO3MHA-12 | 2026-09-02 00:40:15 | 48.84503 | 10.09862 | 188° | 18km/h | 24416m | -28.7m/s | -52.1°C | 4.1% | 29.6hPa | 2.5V | 00:00:00 | 02:11:20 | 00:00:00 | |
| OE5DRO-10 | 2026-09-02 00:40:14 | 48.84508 | 10.09863 | 199° | 13km/h | 24444m | -26.8m/s | -52.0°C | 4.1% | 29.4hPa | 2.5V | 00:00:00 | 00:00:00 | 00:00:00 | |
| IW2NTF | 2026-09-02 00:40:13 | 48.84526 | 10.09874 | 206° | 18km/h | 24541m | -25.8m/s | -52.1°C | 4.1% | 29hPa | 2.5V | 08:25:45 | 02:11:15 | 00:00:00 | |
| OE5WHR-10 | 2026-09-02 00:40:13 | 48.84512 | 10.09865 | 195° | 18km/h | 24469m | -24.1m/s | -52.1°C | 4.1% | 29.3hPa | 2.5V | 00:00:00 | 02:11:18 | 00:00:00 | |
| DM0DOS-11 | 2026-09-02 00:40:12 | 48.84522 | 10.09871 | 204° | 22km/h | 24517m | -22.9m/s | -52.2°C | 4.2% | 29.1hPa | 2.5V | 08:25:44 | 02:11:16 | 00:00:00 | |
| DF8AY | 2026-09-02 00:40:10 | 48.84526 | 10.09874 | 207° | 18km/h | 24541m | -25.8m/s | -52.1°C | 0.6% | 29hPa | 2.5V | 08:26:06 | 02:11:15 | 00:00:00 | |
| DL1XH-west | 2026-09-02 00:40:09 | 48.84530 | 10.09878 | 213° | 18km/h | 24568m | -28m/s | -52°C | 0.6% | 28.9hPa | 2.5V | 08:26:06 | 02:11:14 | 00:00:00 | |
| DN1GJH-1 | 2026-09-02 00:40:08 | 48.84530 | 10.09877 | 214° | 18km/h | 24568m | -28.0m/s | -52.0°C | 1.1% | 28.9hPa | 2.5V | 08:26:00 | 00:00:00 | 00:00:00 | |
| SONCRA | 2026-09-02 00:40:07 | 48.84537 | 10.09885 | 220° | 13km/h | 24626m | -30.0m/s | -51.7°C | 1.0% | 28.7hPa | 2.5V | 00:00:00 | 00:00:00 | 00:00:00 | |
| IW2NTF | 2026-09-02 00:40:05 | 48.84544 | 10.09908 | 282° | 7km/h | 24845m | -33.5m/s | -51.8°C | 4% | 27.8hPa | 2.5V | 08:25:55 | 02:11:05 | 00:00:00 | |
| DM0DOS-11 | 2026-09-02 00:40:05 | 48.84544 | 10.09905 | 266° | 7km/h | 24812m | -31.2m/s | -51.7°C | 4% | 27.9hPa | 2.5V | 08:25:54 | 02:11:06 | 00:00:00 | |
| DF8AY | 2026-09-02 00:39:59 | 48.84543 | 10.09911 | 281° | 7km/h | 24877m | -31.2m/s | -52°C | 0.6% | 27.6hPa | 2.5V | 08:26:06 | 02:11:04 | 00:00:00 | |
| DK7TD | 2026-09-02 00:39:58 | 48.84543 | 10.09913 | 265° | 7km/h | 24907m | -28.6m/s | -52.1°C | 0.6% | 27.4hPa | 2.6V | 08:26:06 | 02:11:03 | 00:00:00 | |
| PG1ADW-2 | 2026-09-02 00:39:57 | 48.84543 | 10.09916 | 262° | 7km/h | 24936m | -28.2m/s | -52.0°C | 4.2% | 27.2hPa | 2.5V | 00:00:00 | 02:11:02 | 00:00:00 | |
| NBG1-10 | 2026-09-02 00:39:55 | 48.84544 | 10.09920 | 245° | 7km/h | 24991m | -27.6m/s | -51.9°C | 4.1% | 27.0hPa | 2.5V | 00:00:00 | 02:11:00 | 00:00:00 | |
| DJ2DS-15 | 2026-09-02 00:39:54 | 48.84545 | 10.09923 | 233° | 9km/h | 25019m | -27.7m/s | -51.9°C | 4.2% | 26.9hPa | 2.5V | 00:00:00 | 02:10:59 | 00:00:00 | |
| DM0DOS-11 | 2026-09-02 00:39:53 | 48.84549 | 10.09928 | 220° | 5km/h | 25103m | -28.5m/s | -51.7°C | 4.1% | 26.6hPa | 2.5V | 08:26:04 | 02:10:56 | 00:00:00 | |
| IW2NTF | 2026-09-02 00:39:52 | 48.84550 | 10.09929 | 208° | 4km/h | 25132m | -29.1m/s | -51.6°C | 4.1% | 26.5hPa | 2.5V | 08:26:05 | 02:10:55 | 00:00:00 | |
| DF8AY | 2026-09-02 00:39:49 | 48.84551 | 10.09930 | 203° | 2km/h | 25161m | -29.1m/s | -51.6°C | 0.6% | 26.4hPa | 2.5V | 08:26:06 | 02:10:54 | 00:00:00 | |
| DL1XH1-15 | 2026-09-02 00:39:49 | 48.84551 | 10.09930 | 196° | 2km/h | 25189m | -28.4m/s | -51.6°C | 4.1% | 26.3hPa | 2.5V | 08:26:07 | 02:10:53 | 00:00:00 | |
| DL1XH-west | 2026-09-02 00:39:48 | 48.84551 | 10.09930 | 197° | 2km/h | 25189m | -28.4m/s | -51.6°C | 0.7% | 26.3hPa | 2.5V | 08:26:57 | 02:10:53 | 00:00:00 | |
| DK7TD | 2026-09-02 00:39:47 | 48.84552 | 10.09930 | 222° | 2km/h | 25217m | -27.7m/s | -51.5°C | 0.7% | 26.1hPa | 2.6V | 08:26:57 | 02:10:52 | 00:00:00 | |
| DB0ND-19 | 2026-09-02 00:39:46 | 48.84554 | 10.09932 | 225° | 5km/h | 25272m | -30.0m/s | -51.2°C | 1.0% | 25.9hPa | 2.6V | 00:00:00 | 00:00:00 | 00:00:00 | |
| IW2NTF | 2026-09-02 00:39:45 | 48.84563 | 10.09948 | 234° | 13km/h | 25410m | -21.7m/s | -51.1°C | 4.1% | 25.3hPa | 2.6V | 08:26:15 | 02:10:45 | 00:00:00 | |
| DJ2DS-15 | 2026-09-02 00:39:45 | 48.84555 | 10.09935 | 227° | 9km/h | 25302m | -30.7m/s | -51.2°C | 1.0% | 25.8hPa | 2.5V | 00:00:00 | 00:00:00 | 00:00:00 | |
| DL1XH1-15 | 2026-09-02 00:39:43 | 48.84566 | 10.09956 | 249° | 11km/h | 25456m | -22.4m/s | -50.9°C | 4% | 25.1hPa | 2.5V | 08:26:17 | 02:10:43 | 00:00:00 | |
| DM0DOS-11 | 2026-09-02 00:39:42 | 48.84561 | 10.09944 | 228° | 15km/h | 25386m | -24.9m/s | -51.2°C | 4.1% | 25.4hPa | 2.6V | 08:26:14 | 02:10:46 | 00:00:00 | |
| DF8AY | 2026-09-02 00:39:38 | 48.84566 | 10.09956 | 250° | 11km/h | 25457m | -22.4m/s | -50.9°C | 0.6% | 25.1hPa | 2.5V | 08:26:57 | 02:10:43 | 00:00:00 | |
| DK7TD | 2026-09-02 00:39:37 | 48.84567 | 10.09961 | 252° | 11km/h | 25478m | -21.3m/s | -50.9°C | 0.6% | 25.1hPa | 2.5V | 08:26:57 | 02:10:42 | 00:00:00 | |
| DJ8HS-15 | 2026-09-02 00:39:37 | 48.84567 | 10.09960 | 253° | 9km/h | 25479m | -21.3m/s | -50.8°C | 4.0% | 25.0hPa | 2.6V | 00:00:00 | 02:10:42 | 00:00:00 | |
| SONCRA | 2026-09-02 00:39:36 | 48.84567 | 10.09964 | 268° | 7km/h | 25502m | -26.2m/s | -50.8°C | 1.0% | 25.0hPa | 2.6V | 00:00:00 | 00:00:00 | 00:00:00 | |
| DO3MHA-12 | 2026-09-02 00:39:35 | 48.84567 | 10.09967 | 296° | 7km/h | 25529m | -27.6m/s | -50.8°C | 4.0% | 24.9hPa | 2.6V | 00:00:00 | 02:10:40 | 00:00:00 | |
| DF3TZ-5 | 2026-09-02 00:39:33 | 48.84564 | 10.09971 | 327° | 5km/h | 25586m | -27.7m/s | -50.8°C | 1.0% | 24.7hPa | 2.6V | 00:00:00 | 00:00:00 | 00:00:00 | |
| IW2NTF | 2026-09-02 00:39:32 | 48.84562 | 10.09975 | 320° | 5km/h | 25671m | -28.2m/s | -50.7°C | 4.1% | 24.4hPa | 2.6V | 08:26:25 | 02:10:35 | 00:00:00 | |
| DM0DOS-11 | 2026-09-02 00:39:32 | 48.84562 | 10.09974 | 323° | 4km/h | 25642m | -30.1m/s | -50.7°C | 4.1% | 24.5hPa | 2.6V | 08:26:24 | 02:10:36 | 00:00:00 | |
| DJ2DS-15 | 2026-09-02 00:39:32 | 48.84563 | 10.09973 | 319° | 9km/h | 25613m | -28.3m/s | -50.8°C | 4.1% | 24.6hPa | 2.5V | 00:00:00 | 02:10:37 | 00:00:00 | |
| DL8DAS-14 | 2026-09-02 00:39:31 | 48.84562 | 10.09974 | 323° | 4km/h | 25642m | -30.1m/s | -50.7°C | 1.0% | 24.5hPa | 2.5V | 00:00:00 | 00:00:00 | 00:00:00 | |
| DO3MHA-11 | 2026-09-02 00:39:30 | 48.84561 | 10.09975 | 321° | 9km/h | 25671m | -28.1m/s | -50.7°C | 4.1% | 24.3hPa | 2.5V | 00:00:00 | 02:10:35 | 00:00:00 | |
| DL1XH1-15 | 2026-09-02 00:39:29 | 48.84560 | 10.09979 | 278° | 7km/h | 25725m | -26.2m/s | -50.3°C | 4% | 24.1hPa | 2.5V | 08:26:27 | 02:10:33 | 00:00:00 | |
| DL1XH-west | 2026-09-02 00:39:27 | 48.84560 | 10.09982 | 285° | 7km/h | 25751m | -25.5m/s | -50.1°C | 0.5% | 24.1hPa | 2.5V | 08:26:57 | 02:10:32 | 00:00:00 | |
| DK7TD | 2026-09-02 00:39:26 | 48.84559 | 10.09986 | 277° | 11km/h | 25777m | -27.3m/s | -50°C | 0.6% | 24hPa | 2.6V | 08:26:57 | 02:10:31 | 00:00:00 | |
| IW2NTF | 2026-09-02 00:39:25 | 48.84555 | 10.10011 | 301° | 9km/h | 25941m | -28.1m/s | -49.4°C | 3.7% | 23.4hPa | 2.6V | 08:26:35 | 02:10:25 | 00:00:00 | |
| DO3MHA-12 | 2026-09-02 00:39:25 | 48.84558 | 10.09990 | 284° | 9km/h | 25804m | -26.5m/s | -49.9°C | 3.9% | 23.8hPa | 2.5V | 00:00:00 | 02:10:30 | 00:00:00 | |
| DG9SBQ-11 | 2026-09-02 00:39:24 | 48.84558 | 10.09990 | 285° | 11km/h | 25804m | -26.5m/s | -49.9°C | 0.9% | 23.8hPa | 2.5V | 08:26:00 | 00:00:00 | 00:00:00 | |
| DL1XH1-15 | 2026-09-02 00:39:23 | 48.84553 | 10.10016 | 303° | 9km/h | 26002m | -32.2m/s | -49.4°C | 3.7% | 23.2hPa | 2.5V | 08:26:37 | 02:10:23 | 00:00:00 | |
| DK7TD | 2026-09-02 00:39:16 | 48.84551 | 10.10020 | 307° | 7km/h | 26066m | -31.2m/s | -49.2°C | 0.5% | 22.9hPa | 2.6V | 08:26:57 | 02:10:21 | 00:00:00 | |
| DF8AY | 2026-09-02 00:39:16 | 48.84541 | 10.10026 | 345° | 9km/h | 26255m | -32.1m/s | -48.3°C | 0.3% | 22.3hPa | 2.6V | 08:26:57 | 02:10:15 | 00:00:00 | |
| DM0DOS-11 | 2026-09-02 00:39:15 | 48.84543 | 10.10025 | 348° | 7km/h | 26223m | -31.1m/s | -48.3°C | 3.4% | 22.4hPa | 2.5V | 08:26:44 | 02:10:16 | 00:00:00 | |
| DB0ND-19 | 2026-09-02 00:39:15 | 48.84548 | 10.10024 | 335° | 5km/h | 26127m | -30.4m/s | -48.9°C | 0.9% | 22.7hPa | 2.5V | 00:00:00 | 00:00:00 | 00:00:00 | |
| DG9SBQ-11 | 2026-09-02 00:39:13 | 48.84549 | 10.10023 | 336° | 5km/h | 26127m | -30.4m/s | -48.9°C | 0.9% | 22.7hPa | 2.5V | 08:26:00 | 00:00:00 | 00:00:00 | |
| DJ2DS-15 | 2026-09-02 00:39:12 | 48.84545 | 10.10025 | 354° | 15km/h | 26191m | -32.8m/s | -48.4°C | 3.5% | 22.5hPa | 2.5V | 08:26:00 | 02:10:17 | 00:00:00 | |
| OE5DXL-15 | 2026-09-02 00:39:11 | 48.84543 | 10.10025 | 349° | 15km/h | 26223m | -31.1m/s | -48.2°C | 3.4% | 22.4hPa | 2.6V | 00:00:00 | 00:00:00 | 00:00:00 | |
| DO3MHA-11 | 2026-09-02 00:39:10 | 48.84541 | 10.10026 | 345° | 13km/h | 26255m | -32.1m/s | -48.2°C | 3.5% | 22.3hPa | 2.6V | 00:00:00 | 02:10:15 | 00:00:00 | |
| DL1XH1-15 | 2026-09-02 00:39:09 | 48.84537 | 10.10028 | 344° | 9km/h | 26318m | -31.2m/s | -48.2°C | 3.4% | 22.1hPa | 2.6V | 08:26:47 | 02:10:13 | 00:00:00 | |
| DL1XH-west | 2026-09-02 00:39:05 | 48.84528 | 10.10031 | 341° | 15km/h | 26412m | -32.5m/s | -48.1°C | 0.2% | 21.8hPa | 2.5V | 08:26:57 | 02:10:10 | 00:00:00 | |
| DO3MHA-12 | 2026-09-02 00:39:05 | 48.84528 | 10.10031 | 342° | 16km/h | 26412m | -32.4m/s | -48.0°C | 3.4% | 21.7hPa | 2.5V | 00:00:00 | 02:10:10 | 00:00:00 | |
| OE5DRO-10 | 2026-09-02 00:39:04 | 48.84525 | 10.10033 | 337° | 16km/h | 26444m | -31.3m/s | -48.0°C | 3.4% | 21.6hPa | 2.5V | 00:00:00 | 00:00:00 | 00:00:00 | |
| DL1XH1-15 | 2026-09-02 00:39:03 | 48.84500 | 10.10059 | 315° | 20km/h | 26651m | -31.8m/s | -47.9°C | 3.3% | 20.9hPa | 2.5V | 08:26:58 | 02:10:02 | 00:00:00 | |
| DM0DOS-11 | 2026-09-02 00:39:02 | 48.84514 | 10.10043 | 322° | 15km/h | 26532m | -29.2m/s | -47.9°C | 3.4% | 21.3hPa | 2.5V | 08:26:54 | 02:10:06 | 00:00:00 | |
| DF8AY | 2026-09-02 00:39:00 | 48.84511 | 10.10046 | 323° | 16km/h | 26561m | -29.2m/s | -47.9°C | 0.2% | 21.2hPa | 2.5V | 08:26:57 | 02:10:05 | 00:00:00 | |
| DF1GD-15 | 2026-09-02 00:39:00 | 48.84511 | 10.10046 | 324° | 16km/h | 26562m | -29.2m/s | -47.9°C | 0.8% | 21.2hPa | 2.6V | 08:26:00 | 00:00:00 | 00:00:00 | |
| DJ8HS-15 | 2026-09-02 00:38:57 | 48.84500 | 10.10059 | 316° | 16km/h | 26651m | -31.8m/s | -47.9°C | 3.3% | 20.9hPa | 2.6V | 00:00:00 | 02:10:02 | 00:00:00 | |
| DM0DOS-11 | 2026-09-02 00:38:55 | 48.84481 | 10.10089 | 318° | 18km/h | 26835m | -29.8m/s | -47.8°C | 3.3% | 20.4hPa | 2.6V | 08:27:04 | 02:09:56 | 00:00:00 | |
| DL1XH-west | 2026-09-02 00:38:54 | 48.84490 | 10.10075 | 312° | 18km/h | 26744m | -29.5m/s | -48.1°C | 0.3% | 20.6hPa | 2.5V | 08:27:48 | 02:09:59 | 00:00:00 | |
| AZAK | 2026-09-02 00:38:53 | 48.84488 | 10.10080 | 313° | 18km/h | 26774m | -31.0m/s | -48.1°C | 0.8% | 20.5hPa | 2.5V | 08:27:00 | 00:00:00 | 00:00:00 | |
| IW2NTF | 2026-09-02 00:38:52 | 48.84478 | 10.10093 | 320° | 16km/h | 26864m | -29.5m/s | -47.6°C | 3.3% | 20.3hPa | 2.5V | 08:27:05 | 02:09:55 | 00:00:00 | |
| DK5PH-5 | 2026-09-02 00:38:52 | 48.84484 | 10.10084 | 318° | 15km/h | 26805m | -31.0m/s | -47.9°C | 3.4% | 20.4hPa | 2.6V | 08:27:00 | 02:09:57 | 00:00:00 | |
| DB0NH | 2026-09-02 00:38:51 | 48.84481 | 10.10089 | 319° | 15km/h | 26836m | -29.7m/s | -47.7°C | 3.3% | 20.3hPa | 2.6V | 00:00:00 | 02:09:56 | 00:00:00 | |
| DO3MHA-11 | 2026-09-02 00:38:50 | 48.84478 | 10.10093 | 321° | 16km/h | 26865m | -29.5m/s | -47.6°C | 3.3% | 20.2hPa | 2.5V | 00:00:00 | 02:09:55 | 00:00:00 | |
| DL1XH1-15 | 2026-09-02 00:38:49 | 48.84472 | 10.10099 | 336° | 15km/h | 26920m | -27m/s | -47.6°C | 3.3% | 20.1hPa | 2.5V | 08:27:07 | 02:09:53 | 00:00:00 | |
| DF7PN | 2026-09-02 00:38:48 | 48.84472 | 10.10099 | 336° | 15km/h | 26920m | -27.0m/s | -47.6°C | 0.8% | 20.1hPa | 2.5V | 00:00:00 | 00:00:00 | 00:00:00 | |
| DL6DJ-15 | 2026-09-02 00:38:47 | 48.84468 | 10.10101 | 345° | 15km/h | 26948m | -27.8m/s | -47.6°C | 0.8% | 20.0hPa | 2.5V | 00:00:00 | 00:00:00 | 00:00:00 | |
| IW2NTF | 2026-09-02 00:38:45 | 48.84439 | 10.10090 | 37° | 18km/h | 27121m | -22.1m/s | -48.1°C | 3.6% | 19.4hPa | 2.5V | 08:27:15 | 02:09:45 | 00:00:00 | |
| DL1XH-west | 2026-09-02 00:38:44 | 48.84455 | 10.10101 | 5° | 16km/h | 27026m | -24.3m/s | -48°C | 0.3% | 19.7hPa | 2.5V | 08:27:48 | 02:09:49 | 00:00:00 | |
| DG9SBQ-11 | 2026-09-02 00:38:43 | 48.84455 | 10.10101 | 6° | 16km/h | 27026m | -24.3m/s | -48.0°C | 0.9% | 19.7hPa | 2.6V | 08:27:00 | 00:00:00 | 00:00:00 | |
| DM0DOS-11 | 2026-09-02 00:38:42 | 48.84443 | 10.10095 | 32° | 18km/h | 27098m | -25.1m/s | -48.1°C | 3.6% | 19.5hPa | 2.6V | 08:27:14 | 02:09:46 | 00:00:00 | |
| DF8AY | 2026-09-02 00:38:39 | 48.84436 | 10.10086 | 60° | 16km/h | 27145m | -24.2m/s | -48°C | 0.3% | 19.4hPa | 2.5V | 08:27:48 | 02:09:44 | 00:00:00 | |
| DL1XH-west | 2026-09-02 00:38:33 | 48.84441 | 10.10053 | 129° | 20km/h | 27322m | -31.9m/s | -47.7°C | 0.3% | 18.9hPa | 2.5V | 08:27:48 | 02:09:38 | 00:00:00 | |
| IW2NTF | 2026-09-02 00:38:32 | 48.84452 | 10.10036 | 136° | 16km/h | 27426m | -36.1m/s | -47.4°C | 3.4% | 18.6hPa | 2.5V | 08:27:25 | 02:09:35 | 00:00:00 | |
| DF8AY | 2026-09-02 00:38:29 | 48.84457 | 10.10029 | 137° | 13km/h | 27500m | -38.1m/s | -47.5°C | 0.3% | 18.4hPa | 2.5V | 08:27:48 | 02:09:33 | 00:00:00 | |
| OM5KV | 2026-09-02 00:38:27 | 48.84457 | 10.10029 | 138° | 13km/h | 27500m | -38.1m/s | -47.5°C | 0.8% | 18.4hPa | 2.6V | 08:27:00 | 00:00:00 | 00:00:00 | |
| OE5DRO-10 | 2026-09-02 00:38:26 | 48.84461 | 10.10023 | 122° | 7km/h | 27574m | -35.9m/s | -47.6°C | 3.5% | 18.2hPa | 2.6V | 00:00:00 | 00:00:00 | 00:00:00 | |
| IW2NTF | 2026-09-02 00:38:25 | 48.84467 | 10.10011 | 161° | 4km/h | 27772m | -29.5m/s | -47.4°C | 3.6% | 17.6hPa | 2.5V | 08:27:35 | 02:09:25 | 00:00:00 | |
| DO3MHA-12 | 2026-09-02 00:38:25 | 48.84462 | 10.10020 | 122° | 5km/h | 27609m | -34.3m/s | -47.6°C | 3.5% | 18.1hPa | 2.6V | 00:00:00 | 02:09:30 | 00:00:00 | |
| OE5MMP-10 | 2026-09-02 00:38:24 | 48.84463 | 10.10018 | 123° | 5km/h | 27644m | -36.7m/s | -47.6°C | 3.6% | 18.0hPa | 2.6V | 00:00:00 | 02:09:29 | 00:00:00 | |
| DM0DOS-11 | 2026-09-02 00:38:23 | 48.84467 | 10.10012 | 151° | 5km/h | 27744m | -28.8m/s | -47.5°C | 3.6% | 17.7hPa | 2.6V | 08:27:34 | 02:09:26 | 00:00:00 | |
| DL1XH-west | 2026-09-02 00:38:23 | 48.84464 | 10.10015 | 127° | 7km/h | 27679m | -34.9m/s | -47.6°C | 0.4% | 17.9hPa | 2.5V | 08:27:48 | 02:09:28 | 00:00:00 | |
| DK7TD | 2026-09-02 00:38:22 | 48.84465 | 10.10013 | 134° | 7km/h | 27713m | -32.9m/s | -47.6°C | 0.4% | 17.8hPa | 2.6V | 08:27:48 | 02:09:27 | 00:00:00 | |
| DF8AY | 2026-09-02 00:38:18 | 48.84470 | 10.10006 | 88° | 4km/h | 27925m | -30.8m/s | -46.7°C | 0.3% | 17.2hPa | 2.5V | 08:27:48 | 02:09:20 | 00:00:00 | |
| DF8AY-15 | 2026-09-02 00:38:18 | 48.84469 | 10.10009 | 146° | 7km/h | 27834m | -30.6m/s | -47.0°C | 3.5% | 17.4hPa | 2.6V | 00:00:00 | 02:09:23 | 00:00:00 | |
| DJ8HS-15 | 2026-09-02 00:38:17 | 48.84469 | 10.10008 | 139° | 9km/h | 27864m | -29.7m/s | -46.9°C | 3.5% | 17.4hPa | 2.6V | 08:27:00 | 02:09:22 | 00:00:00 | |
| DM0DOS-11 | 2026-09-02 00:38:16 | 48.84471 | 10.09994 | 113° | 13km/h | 28044m | -36m/s | -45.7°C | 3.1% | 16.9hPa | 2.6V | 08:27:44 | 02:09:16 | 00:00:00 | |
| DO3MHA-12 | 2026-09-02 00:38:15 | 48.84470 | 10.10006 | 89° | 11km/h | 27926m | -30.7m/s | -46.6°C | 3.4% | 17.2hPa | 2.5V | 08:27:00 | 02:09:20 | 00:00:00 | |
| OE5MMP-10 | 2026-09-02 00:38:14 | 48.84470 | 10.10004 | 65° | 11km/h | 27954m | -27.5m/s | -46.5°C | 3.4% | 17.1hPa | 2.6V | 00:00:00 | 02:09:19 | 00:00:00 | |
| DG9SBQ-11 | 2026-09-02 00:38:13 | 48.84469 | 10.10004 | 65° | 5km/h | 27954m | -27.6m/s | -46.6°C | 0.8% | 17.1hPa | 2.6V | 08:27:00 | 00:00:00 | 00:00:00 | |
| IW2NTF | 2026-09-02 00:38:12 | 48.84472 | 10.09990 | 125° | 13km/h | 28080m | -34.8m/s | -45.2°C | 3% | 16.9hPa | 2.6V | 08:27:45 | 02:09:15 | 00:00:00 | |
| DK7TD | 2026-09-02 00:38:12 | 48.84470 | 10.09998 | 108° | 11km/h | 28010m | -33.4m/s | -46°C | 0.2% | 17hPa | 2.6V | 08:27:48 | 02:09:17 | 00:00:00 | |
| DJ2DS-15 | 2026-09-02 00:38:12 | 48.84470 | 10.09998 | 108° | 11km/h | 28010m | -33.3m/s | -45.9°C | 3.3% | 17.0hPa | 2.6V | 00:00:00 | 02:09:17 | 00:00:00 | |
| OE5DXL-15 | 2026-09-02 00:38:11 | 48.84471 | 10.09994 | 114° | 9km/h | 28045m | -36.0m/s | -45.6°C | 3.1% | 16.9hPa | 2.6V | 00:00:00 | 00:00:00 | 00:00:00 | |
| DO3MHA-11 | 2026-09-02 00:38:10 | 48.84472 | 10.09990 | 126° | 11km/h | 28080m | -34.8m/s | -45.2°C | 3.0% | 16.8hPa | 2.5V | 00:00:00 | 02:09:15 | 00:00:00 | |
| DL1XH1-15 | 2026-09-02 00:38:09 | 48.84477 | 10.09983 | 148° | 15km/h | 28149m | -34.4m/s | -44.9°C | 2.9% | 16.7hPa | 2.5V | 08:27:47 | 02:09:13 | 00:00:00 | |
| DF8AY | 2026-09-02 00:38:07 | 48.84480 | 10.09980 | 154° | 15km/h | 28184m | -35.7m/s | -45°C | 0% | 16.6hPa | 2.5V | 08:27:48 | 02:09:12 | 00:00:00 | |
| OE5DRO-10 | 2026-09-02 00:38:07 | 48.84480 | 10.09980 | 154° | 9km/h | 28185m | -35.7m/s | -44.9°C | 3.0% | 16.5hPa | 2.6V | 00:00:00 | 00:00:00 | 00:00:00 | |
| IW2NTF | 2026-09-02 00:38:06 | 48.84482 | 10.09970 | 19° | 13km/h | 28436m | -34m/s | -45.1°C | 3.1% | 16hPa | 2.6V | 08:27:55 | 02:09:05 | 00:00:00 | |
| OM5KV | 2026-09-02 00:38:06 | 48.84483 | 10.09978 | 150° | 13km/h | 28221m | -36.4m/s | -45.1°C | 0.7% | 16.5hPa | 2.6V | 08:28:00 | 00:00:00 | 00:00:00 | |
| DO3MHA-12 | 2026-09-02 00:38:05 | 48.84485 | 10.09976 | 149° | 9km/h | 28256m | -33.9m/s | -45.1°C | 3.0% | 16.4hPa | 2.6V | 00:00:00 | 02:09:10 | 00:00:00 | |
| OE5MMP-10 | 2026-09-02 00:38:04 | 48.84487 | 10.09974 | 143° | 9km/h | 28290m | -34.5m/s | -45.0°C | 3.0% | 16.3hPa | 2.6V | 00:00:00 | 02:09:09 | 00:00:00 | |
| DL1XH1-15 | 2026-09-02 00:38:03 | 48.84476 | 10.09966 | 33° | 13km/h | 28503m | -33m/s | -45.1°C | 3.1% | 15.8hPa | 2.5V | 08:27:57 | 02:09:03 | 00:00:00 | |
| DM0DOS-11 | 2026-09-02 00:38:03 | 48.84484 | 10.09971 | 16° | 11km/h | 28401m | -37.1m/s | -45.1°C | 3% | 16.1hPa | 2.5V | 08:27:54 | 02:09:06 | 00:00:00 | |
| DL1XH-west | 2026-09-02 00:38:02 | 48.84487 | 10.09972 | 24° | 7km/h | 28363m | -38.1m/s | -45.1°C | 0% | 16.2hPa | 2.5V | 08:28:39 | 02:09:07 | 00:00:00 | |
| DK7TD | 2026-09-02 00:38:01 | 48.84485 | 10.09971 | 17° | 11km/h | 28401m | -37.1m/s | -45.1°C | 0% | 16.1hPa | 2.5V | 08:28:39 | 02:09:06 | 00:00:00 | |
| DF8AY | 2026-09-02 00:37:57 | 48.84474 | 10.09963 | 41° | 9km/h | 28537m | -33.2m/s | -45.1°C | 0% | 15.7hPa | 2.5V | 08:28:39 | 02:09:02 | 00:00:00 | |
| PG1ADW-2 | 2026-09-02 00:37:57 | 48.84474 | 10.09963 | 41° | 9km/h | 28537m | -33.1m/s | -45.1°C | 3.1% | 15.7hPa | 2.5V | 00:00:00 | 00:00:00 | 00:00:00 | |
| DF1GD-15 | 2026-09-02 00:37:56 | 48.84475 | 10.09963 | 42° | 9km/h | 28537m | -33.2m/s | -45.1°C | 0.8% | 15.7hPa | 2.5V | 08:28:00 | 00:00:00 | 00:00:00 | |
| DM0DOS-11 | 2026-09-02 00:37:55 | 48.84475 | 10.09947 | 126° | 9km/h | 28733m | -32.2m/s | -45.2°C | 3.1% | 15.2hPa | 2.5V | 08:28:04 | 02:08:56 | 00:00:00 | |
| DO3MHA-12 | 2026-09-02 00:37:55 | 48.84471 | 10.09957 | 73° | 7km/h | 28604m | -31.8m/s | -45.2°C | 3.1% | 15.5hPa | 2.6V | 00:00:00 | 02:09:00 | 00:00:00 | |
| OE5MMP-10 | 2026-09-02 00:37:54 | 48.84471 | 10.09954 | 106° | 11km/h | 28637m | -33.7m/s | -45.3°C | 3.1% | 15.4hPa | 2.6V | 00:00:00 | 02:08:59 | 00:00:00 | |
| OM5KV | 2026-09-02 00:37:53 | 48.84471 | 10.09954 | 106° | 7km/h | 28637m | -33.7m/s | -45.3°C | 0.8% | 15.5hPa | 2.6V | 08:28:00 | 00:00:00 | 00:00:00 | |
| IW2NTF | 2026-09-02 00:37:52 | 48.84478 | 10.09942 | 136° | 5km/h | 28800m | -34.4m/s | -44.9°C | 3% | 15.1hPa | 2.6V | 08:28:06 | 02:08:54 | 00:00:00 | |
| DL1XH-west | 2026-09-02 00:37:51 | 48.84475 | 10.09947 | 127° | 9km/h | 28733m | -32.2m/s | -45.2°C | 0.1% | 15.2hPa | 2.5V | 08:28:39 | 02:08:56 | 00:00:00 | |
| DK7TD | 2026-09-02 00:37:50 | 48.84476 | 10.09944 | 136° | 9km/h | 28766m | -33.5m/s | -45.1°C | 0% | 15.2hPa | 2.6V | 08:28:39 | 02:08:55 | 00:00:00 | |
| DO3MHA-11 | 2026-09-02 00:37:50 | 48.84476 | 10.09944 | 137° | 9km/h | 28767m | -33.4m/s | -45.1°C | 3.1% | 15.1hPa | 2.6V | 00:00:00 | 02:08:55 | 00:00:00 | |
| DL1XH1-15 | 2026-09-02 00:37:49 | 48.84478 | 10.09940 | 104° | 7km/h | 28835m | -36.2m/s | -44.7°C | 3% | 15hPa | 2.5V | 08:28:07 | 02:08:53 | 00:00:00 | |
| DF8AY | 2026-09-02 00:37:46 | 48.84489 | 10.09913 | 141° | 15km/h | 29119m | -35m/s | -44.3°C | 0% | 14.4hPa | 2.6V | 08:28:39 | 02:08:45 | 00:00:00 | |
| DG9SBQ-11 | 2026-09-02 00:37:45 | 48.84480 | 10.09932 | 100° | 9km/h | 28944m | -37.2m/s | -44.2°C | 0.7% | 14.8hPa | 2.5V | 08:28:00 | 00:00:00 | 00:00:00 | |
| DL1XH1-15 | 2026-09-02 00:37:43 | 48.84495 | 10.09908 | 151° | 15km/h | 29186m | -31.6m/s | -44.4°C | 2.9% | 14.2hPa | 2.5V | 08:28:17 | 02:08:43 | 00:00:00 | |
| NBG1-10 | 2026-09-02 00:37:43 | 48.84482 | 10.09924 | 121° | 11km/h | 29015m | -35.1m/s | -44.2°C | 2.9% | 14.6hPa | 2.5V | 00:00:00 | 02:08:48 | 00:00:00 | |
| DM0DOS-11 | 2026-09-02 00:37:42 | 48.84486 | 10.09916 | 136° | 13km/h | 29085m | -33m/s | -44.3°C | 2.9% | 14.5hPa | 2.5V | 08:28:14 | 02:08:46 | 00:00:00 | |
| DB0ND-19 | 2026-09-02 00:37:42 | 48.84487 | 10.09916 | 136° | 11km/h | 29085m | -33.0m/s | -44.3°C | 0.7% | 14.5hPa | 2.6V | 00:00:00 | 00:00:00 | 00:00:00 | |
| IW2NTF | 2026-09-02 00:37:41 | 48.84492 | 10.09910 | 156° | 13km/h | 29153m | -33.7m/s | -44.3°C | 2.9% | 14.3hPa | 2.6V | 08:28:16 | 02:08:44 | 00:00:00 | |
| DL1XH-west | 2026-09-02 00:37:41 | 48.84487 | 10.09916 | 136° | 13km/h | 29085m | -33m/s | -44.3°C | 0% | 14.5hPa | 2.5V | 08:28:39 | 02:08:46 | 00:00:00 | |
| DK7TD | 2026-09-02 00:37:39 | 48.84492 | 10.09910 | 156° | 13km/h | 29153m | -33.7m/s | -44.3°C | 0% | 14.3hPa | 2.6V | 08:28:39 | 02:08:44 | 00:00:00 | |
| OM5KV | 2026-09-02 00:37:39 | 48.84492 | 10.09910 | 157° | 13km/h | 29154m | -33.7m/s | -44.3°C | 0.7% | 14.3hPa | 2.5V | 08:28:00 | 00:00:00 | 00:00:00 | |
| OE5MMP-10 | 2026-09-02 00:37:38 | 48.84495 | 10.09908 | 152° | 7km/h | 29186m | -31.6m/s | -44.3°C | 2.9% | 14.2hPa | 2.5V | 00:00:00 | 02:08:43 | 00:00:00 | |
| DF8AY-15 | 2026-09-02 00:37:37 | 48.84498 | 10.09906 | 166° | 9km/h | 29217m | -30.7m/s | -44.3°C | 2.9% | 14.1hPa | 2.5V | 00:00:00 | 02:08:42 | 00:00:00 | |
| DM0DOS-11 | 2026-09-02 00:37:35 | 48.84504 | 10.09902 | 39° | 4km/h | 29405m | -32.5m/s | -44.3°C | 2.9% | 13.8hPa | 2.5V | 08:28:24 | 02:08:36 | 00:00:00 | |
| DO3MHA-12 | 2026-09-02 00:37:35 | 48.84502 | 10.09904 | 160° | 7km/h | 29278m | -31.6m/s | -44.3°C | 2.9% | 14.0hPa | 2.5V | 00:00:00 | 02:08:40 | 00:00:00 | |
| DG9SBQ-11 | 2026-09-02 00:37:34 | 48.84502 | 10.09904 | 160° | 7km/h | 29278m | -31.6m/s | -44.4°C | 0.7% | 14.0hPa | 2.5V | 08:28:00 | 00:00:00 | 00:00:00 | |
| DJ2DS-15 | 2026-09-02 00:37:32 | 48.84505 | 10.09902 | 24° | 11km/h | 29372m | -32.6m/s | -44.3°C | 2.9% | 13.8hPa | 2.5V | 00:00:00 | 02:08:37 | 00:00:00 | |
| IW2NTF | 2026-09-02 00:37:31 | 48.84503 | 10.09897 | 72° | 9km/h | 29475m | -35.4m/s | -44.4°C | 2.9% | 13.6hPa | 2.5V | 08:28:26 | 02:08:34 | 00:00:00 | |
| DL1XH-west | 2026-09-02 00:37:30 | 48.84503 | 10.09900 | 66° | 7km/h | 29439m | -36.4m/s | -44.3°C | 0% | 13.7hPa | 2.5V | 08:28:39 | 02:08:35 | 00:00:00 | |
| DO3MHA-11 | 2026-09-02 00:37:30 | 48.84503 | 10.09917 | 66° | 11km/h | 29439m | -36.3m/s | -44.2°C | 2.9% | 13.7hPa | 2.6V | 00:00:00 | 02:08:35 | 00:00:00 | |
| DL1XH1-15 | 2026-09-02 00:37:29 | 48.84502 | 10.09894 | 78° | 9km/h | 29511m | -37.7m/s | -44.4°C | 3% | 13.6hPa | 2.6V | 08:28:27 | 02:08:33 | 00:00:00 | |
| DK7TD | 2026-09-02 00:37:28 | 48.84502 | 10.09894 | 78° | 9km/h | 29511m | -37.7m/s | -44.4°C | 0% | 13.6hPa | 2.6V | 08:28:39 | 02:08:33 | 00:00:00 | |
| OE5MMP-10 | 2026-09-02 00:37:28 | 48.84502 | 10.09894 | 79° | 13km/h | 29511m | -37.6m/s | -44.4°C | 3.0% | 13.5hPa | 2.6V | 00:00:00 | 02:08:33 | 00:00:00 | |
| OE5WHR-10 | 2026-09-02 00:37:27 | 48.84502 | 10.09890 | 88° | 11km/h | 29550m | -39.3m/s | -44.4°C | 3.0% | 13.4hPa | 2.6V | 00:00:00 | 02:08:32 | 00:00:00 | |
| DO9HM | 2026-09-02 00:37:26 | 48.84502 | 10.09890 | 88° | 11km/h | 29550m | -39.4m/s | -44.5°C | 0.8% | 13.5hPa | 2.6V | 08:28:00 | 00:00:00 | 00:00:00 | |
| DO3MHA-12 | 2026-09-02 00:37:25 | 48.84503 | 10.09880 | 98° | 13km/h | 29620m | -30.4m/s | -44.6°C | 3.1% | 13.3hPa | 2.6V | 00:00:00 | 02:08:30 | 00:00:00 | |
| OM5KV | 2026-09-02 00:37:24 | 48.84502 | 10.09880 | 98° | 11km/h | 29620m | -30.4m/s | -44.6°C | 0% | 0hPa | 2.6V | 08:28:00 | 00:00:00 | 00:00:00 | |
| DL1XH1-15 | 2026-09-02 00:37:23 | 48.84510 | 10.09847 | 116° | 16km/h | 29840m | -36.7m/s | -43.9°C | 3% | 12.9hPa | 2.6V | 08:28:37 | 02:08:23 | 00:00:00 | |
| DM0DOS-11 | 2026-09-02 00:37:22 | 48.84505 | 10.09863 | 107° | 11km/h | 29741m | -28.9m/s | -44.2°C | 3% | 13.1hPa | 2.5V | 08:28:34 | 02:08:26 | 00:00:00 | |
| DN1GJH-1 | 2026-09-02 00:37:22 | 48.84504 | 10.09871 | 102° | 15km/h | 29681m | -32.4m/s | -44.3°C | 0.8% | 13.2hPa | 2.5V | 08:28:00 | 00:00:00 | 00:00:00 | |
| IW2NTF | 2026-09-02 00:37:21 | 48.84508 | 10.09853 | 113° | 16km/h | 29804m | -34.6m/s | -44°C | 3% | 13hPa | 2.5V | 08:28:36 | 02:08:24 | 00:00:00 | |
| DL1XH-west | 2026-09-02 00:37:20 | 48.84507 | 10.09858 | 109° | 15km/h | 29771m | -31.5m/s | -44.1°C | 0% | 13hPa | 2.5V | 08:28:39 | 02:08:25 | 00:00:00 | |
| DF8AY | 2026-09-02 00:37:19 | 48.84508 | 10.09853 | 113° | 16km/h | 29804m | -34.6m/s | -44°C | 0% | 13hPa | 2.5V | 08:28:39 | 02:08:24 | 00:00:00 | |
| DK7TD | 2026-09-02 00:37:17 | 48.84512 | 10.09842 | 112° | 16km/h | 29877m | -37.4m/s | -43.9°C | 0% | 12.8hPa | 2.6V | 08:28:39 | 02:08:22 | 00:00:00 | |
| DF8AY-15 | 2026-09-02 00:37:17 | 48.84512 | 10.09842 | 113° | 9km/h | 29877m | -37.4m/s | -43.8°C | 3.0% | 12.8hPa | 2.5V | 00:00:00 | 02:08:22 | 00:00:00 | |
| DM0DOS-11 | 2026-09-02 00:37:15 | 48.84520 | 10.09820 | 139° | 7km/h | 30098m | -32.5m/s | -43.5°C | 3% | 12.4hPa | 2.5V | 08:28:44 | 02:08:16 | 00:00:00 | |
| DO3MHA-12 | 2026-09-02 00:37:15 | 48.84515 | 10.09832 | 121° | 9km/h | 29952m | -38.9m/s | -43.8°C | 3.0% | 12.7hPa | 2.5V | 00:00:00 | 02:08:20 | 00:00:00 | |
| DL6DJ-15 | 2026-09-02 00:37:14 | 48.84518 | 10.09825 | 125° | 9km/h | 30029m | -37.7m/s | -43.6°C | 0.7% | 12.6hPa | 2.6V | 00:00:00 | 00:00:00 | 00:00:00 | |
| DJ2DS-15 | 2026-09-02 00:37:12 | 48.84519 | 10.09822 | 138° | 11km/h | 30065m | -34.7m/s | -43.4°C | 2.9% | 12.4hPa | 2.6V | 00:00:00 | 02:08:17 | 00:00:00 | |
| OE5DXL-15 | 2026-09-02 00:37:11 | 48.84520 | 10.09820 | 140° | 15km/h | 30099m | -32.4m/s | -43.5°C | 3.0% | 12.4hPa | 2.5V | 00:00:00 | 00:00:00 | 00:00:00 | |
| IW2NTF | 2026-09-02 00:37:10 | 48.84523 | 10.09816 | 129° | 7km/h | 30160m | -31m/s | -43.4°C | 2.9% | 12.3hPa | 2.5V | 08:28:46 | 02:08:14 | 00:00:00 | |
| AZAK | 2026-09-02 00:37:10 | 48.84521 | 10.09818 | 144° | 7km/h | 30130m | -30.3m/s | -43.5°C | 0.7% | 12.3hPa | 2.6V | 08:29:00 | 00:00:00 | 00:00:00 | |
| DL1XH1-15 | 2026-09-02 00:37:09 | 48.84524 | 10.09814 | 124° | 9km/h | 30191m | -31.6m/s | -43.3°C | 3% | 12.2hPa | 2.6V | 08:28:47 | 02:08:13 | 00:00:00 | |
| DL1XH-west | 2026-09-02 00:37:09 | 48.84523 | 10.09816 | 130° | 7km/h | 30160m | -31m/s | -43.4°C | 0% | 12.3hPa | 2.5V | 08:29:30 | 02:08:14 | 00:00:00 | |
| DF8AY | 2026-09-02 00:37:08 | 48.84524 | 10.09814 | 125° | 9km/h | 30191m | -31.6m/s | -43.3°C | 0% | 12.2hPa | 2.6V | 18:12:15 | 02:08:13 | 00:00:00 | |
| DK7TD | 2026-09-02 00:37:06 | 48.84527 | 10.09809 | 119° | 9km/h | 30257m | -33m/s | -43.2°C | 0% | 12.1hPa | 2.5V | 08:29:30 | 02:08:11 | 00:00:00 | |
| OE5WHR-10 | 2026-09-02 00:37:06 | 48.84527 | 10.09808 | 119° | 16km/h | 30258m | -33.0m/s | -43.1°C | 2.9% | 12.0hPa | 2.5V | 00:00:00 | 00:00:00 | 00:00:00 | |
| DO3MHA-12 | 2026-09-02 00:37:05 | 48.84527 | 10.09806 | 98° | 11km/h | 30293m | -37.6m/s | -43.0°C | 2.8% | 12.0hPa | 2.5V | 00:00:00 | 02:08:10 | 00:00:00 | |
| IW2NTF | 2026-09-02 00:37:04 | 48.84521 | 10.09799 | 356° | 15km/h | 30509m | -33.9m/s | -42.1°C | 2.6% | 11.6hPa | 2.5V | 08:28:56 | 02:08:04 | 00:00:00 | |
| DL1XH1-15 | 2026-09-02 00:37:03 | 48.84517 | 10.09799 | 357° | 15km/h | 30542m | -32m/s | -42.2°C | 2.6% | 11.6hPa | 2.6V | 08:28:57 | 02:08:03 | 00:00:00 | |
| DL1XH-west | 2026-09-02 00:36:59 | 48.84521 | 10.09799 | 357° | 15km/h | 30509m | -33.9m/s | -42.1°C | 0% | 11.6hPa | 2.5V | 08:29:30 | 02:08:04 | 00:00:00 | |
| DF8AY | 2026-09-02 00:36:58 | 48.84517 | 10.09799 | 358° | 15km/h | 30542m | -32m/s | -42.2°C | 0% | 11.6hPa | 2.6V | 18:12:15 | 02:08:03 | 00:00:00 | |
| DK7TD | 2026-09-02 00:36:56 | 48.84508 | 10.09800 | 7° | 20km/h | 30604m | -31.7m/s | -42.2°C | 0% | 11.5hPa | 2.5V | 08:29:30 | 02:08:01 | 00:00:00 | |
| DL8DAS-14 | 2026-09-02 00:36:56 | 48.84503 | 10.09798 | 11° | 20km/h | 30639m | -37.1m/s | -42.2°C | 0.6% | 11.4hPa | 2.5V | 00:00:00 | 00:00:00 | 00:00:00 | |
| DO3MHA-12 | 2026-09-02 00:36:55 | 48.84503 | 10.09798 | 12° | 24km/h | 30639m | -37.0m/s | -42.1°C | 2.6% | 11.4hPa | 2.5V | 00:00:00 | 02:08:00 | 00:00:00 | |
| DF1GD-15 | 2026-09-02 00:36:54 | 48.84503 | 10.09798 | 13° | 22km/h | 30639m | -37.1m/s | -42.2°C | 0.7% | 11.4hPa | 2.5V | 08:29:00 | 00:00:00 | 00:00:00 | |
| DM0DOS-11 | 2026-09-02 00:36:54 | 48.84481 | 10.09782 | 38° | 26km/h | 30789m | -35.8m/s | -42.1°C | 2.7% | 11.2hPa | 2.5V | 08:29:04 | 02:07:56 | 00:00:00 | |
| DJ2DS-15 | 2026-09-02 00:36:52 | 48.84487 | 10.09787 | 30° | 20km/h | 30752m | -37.6m/s | -42.0°C | 2.6% | 11.2hPa | 2.5V | 00:00:00 | 02:07:57 | 00:00:00 | |
| DB0NH | 2026-09-02 00:36:51 | 48.84481 | 10.09782 | 39° | 20km/h | 30789m | -35.8m/s | -42.1°C | 2.7% | 11.1hPa | 2.5V | 00:00:00 | 02:07:56 | 00:00:00 | |
| DO3MHA-11 | 2026-09-02 00:36:50 | 48.84477 | 10.09776 | 39° | 20km/h | 30825m | -35.4m/s | -42.2°C | 2.7% | 11.1hPa | 2.5V | 08:29:00 | 02:07:55 | 00:00:00 | |
| DL1XH1-15 | 2026-09-02 00:36:49 | 48.84468 | 10.09763 | 47° | 22km/h | 30890m | -29.8m/s | -42.5°C | 2.8% | 11hPa | 2.6V | 08:29:07 | 02:07:53 | 00:00:00 | |
| DL1XH-west | 2026-09-02 00:36:48 | 48.84468 | 10.09763 | 48° | 22km/h | 30890m | -29.8m/s | -42.5°C | 0% | 11hPa | 2.6V | 08:29:30 | 02:07:53 | 00:00:00 | |
| DK7TD | 2026-09-02 00:36:45 | 48.84459 | 10.09744 | 70° | 16km/h | 30984m | -35.3m/s | -42.4°C | 0% | 10.8hPa | 2.5V | 08:29:30 | 02:07:50 | 00:00:00 | |
| DO3MHA-12 | 2026-09-02 00:36:45 | 48.84459 | 10.09744 | 71° | 18km/h | 30985m | -35.2m/s | -42.4°C | 2.8% | 10.8hPa | 2.5V | 08:29:00 | 02:07:50 | 00:00:00 | |
| DF7PN | 2026-09-02 00:36:44 | 48.84457 | 10.09731 | 78° | 20km/h | 31056m | -35.7m/s | -42.5°C | 0.7% | 10.7hPa | 2.6V | 00:00:00 | 00:00:00 | 00:00:00 | |
| DL1XH1-15 | 2026-09-02 00:36:43 | 48.84452 | 10.09692 | 84° | 20km/h | 31228m | -38.4m/s | -41.6°C | 2.7% | 10.4hPa | 2.6V | 08:29:17 | 02:07:43 | 00:00:00 | |
| DM0DOS-11 | 2026-09-02 00:36:42 | 48.84455 | 10.09716 | 79° | 20km/h | 31125m | -33.9m/s | -42.3°C | 2.9% | 10.6hPa | 2.5V | 08:29:14 | 02:07:46 | 00:00:00 | |
| IW2NTF | 2026-09-02 00:36:41 | 48.84449 | 10.09676 | 65° | 11km/h | 31369m | -46.1m/s | -41.3°C | 2.7% | 10.3hPa | 2.5V | 08:29:20 | 02:07:40 | 00:00:00 | |
| DL1XH-west | 2026-09-02 00:36:37 | 48.84451 | 10.09685 | 78° | 15km/h | 31273m | -50.2m/s | -41.4°C | 0% | 10.4hPa | 2.6V | 08:29:30 | 02:07:42 | 00:00:00 | |
| DK7TD | 2026-09-02 00:36:34 | 48.84448 | 10.09672 | 55° | 11km/h | 31413m | -41.3m/s | -41.5°C | 0% | 10.2hPa | 2.5V | 08:29:30 | 02:07:39 | 00:00:00 | |
| DF8AY | 2026-09-02 00:36:33 | 48.84446 | 10.09669 | 61° | 13km/h | 31452m | -37.4m/s | -41.6°C | 0% | 10.1hPa | 2.6V | 18:12:15 | 02:07:38 | 00:00:00 | |
| DG9SBQ-11 | 2026-09-02 00:36:33 | 48.84446 | 10.09669 | 61° | 13km/h | 31452m | -37.4m/s | -41.6°C | 0.6% | 10.1hPa | 2.6V | 08:29:00 | 00:00:00 | 00:00:00 | |
| OE5DRO-10 | 2026-09-02 00:36:32 | 48.84445 | 10.09665 | 58° | 16km/h | 31488m | -34.8m/s | -41.5°C | 2.7% | 10.0hPa | 2.6V | 00:00:00 | 00:00:00 | 00:00:00 | |
| DO3MHA-11 | 2026-09-02 00:36:30 | 48.84441 | 10.09654 | 68° | 20km/h | 31562m | -38.8m/s | -41.2°C | 2.7% | 9.9hPa | 2.6V | 00:00:00 | 02:07:35 | 00:00:00 | |
| DL1XH1-15 | 2026-09-02 00:36:29 | 48.84437 | 10.09640 | 68° | 24km/h | 31636m | -35.2m/s | -41°C | 2.7% | 9.8hPa | 2.6V | 08:29:27 | 02:07:33 | 00:00:00 | |
| OE5MMP-10 | 2026-09-02 00:36:28 | 48.84437 | 10.09640 | 69° | 18km/h | 31636m | -35.1m/s | -41.0°C | 2.7% | 9.8hPa | 2.6V | 00:00:00 | 02:07:33 | 00:00:00 | |
| DF3TZ-5 | 2026-09-02 00:36:27 | 48.84435 | 10.09631 | 72° | 24km/h | 31672m | -36.5m/s | -40.9°C | 0.6% | 9.8hPa | 2.5V | 00:00:00 | 00:00:00 | 00:00:00 | |
| IW2NTF | 2026-09-02 00:36:26 | 48.84431 | 10.09614 | 72° | 24km/h | 31742m | -34.7m/s | -40.5°C | 2.6% | 9.7hPa | 2.5V | 08:29:30 | 02:07:30 | 00:00:00 | |
| DL1XH-west | 2026-09-02 00:36:26 | 48.84433 | 10.09623 | 70° | 24km/h | 31708m | -34.7m/s | -40.7°C | 0% | 9.7hPa | 2.5V | 08:29:30 | 02:07:31 | 00:00:00 | |
| DK7TD | 2026-09-02 00:36:24 | 48.84430 | 10.09606 | 76° | 22km/h | 31778m | -36.5m/s | -40.4°C | 0% | 9.6hPa | 2.5V | 18:12:15 | 02:07:29 | 00:00:00 | |
| DL1XH1-15 | 2026-09-02 00:36:23 | 48.84427 | 10.09574 | 72° | 13km/h | 32008m | -37.3m/s | -39.7°C | 2.4% | 9.3hPa | 2.6V | 08:30:00 | 02:07:23 | 00:00:00 | |
| DF8AY | 2026-09-02 00:36:23 | 48.84416 | 10.09509 | 94° | 18km/h | 32443m | -32m/s | -39.2°C | 0% | 8.7hPa | 2.6V | 18:12:15 | 02:07:12 | 00:00:00 | |
| OE5WHR-10 | 2026-09-02 00:36:23 | 48.84429 | 10.09599 | 85° | 15km/h | 31817m | -41.6m/s | -40.2°C | 2.5% | 9.5hPa | 2.5V | 00:00:00 | 02:07:28 | 00:00:00 | |
| DK5PH-5 | 2026-09-02 00:36:22 | 48.84428 | 10.09592 | 91° | 20km/h | 31856m | -36.9m/s | -40.1°C | 2.5% | 9.4hPa | 2.5V | 00:00:00 | 02:07:27 | 00:00:00 | |
| IW2NTF | 2026-09-02 00:36:21 | 48.84423 | 10.09561 | 68° | 15km/h | 32122m | -38.2m/s | -39.4°C | 2.4% | 9.1hPa | 2.5V | 08:30:00 | 02:07:20 | 00:00:00 | |
| DL1XH-west | 2026-09-02 00:36:15 | 48.84423 | 10.09561 | 69° | 15km/h | 32122m | -38.2m/s | -39.4°C | 0% | 9.1hPa | 2.5V | 18:12:15 | 02:07:20 | 00:00:00 | |
| DK7TD | 2026-09-02 00:36:14 | 48.84421 | 10.09555 | 67° | 16km/h | 32160m | -40.3m/s | -39.3°C | 0% | 9.1hPa | 2.5V | 18:12:15 | 02:07:19 | 00:00:00 | |
| OE5DRO-10 | 2026-09-02 00:36:13 | 48.84420 | 10.09549 | 72° | 22km/h | 32202m | -42.8m/s | -39.3°C | 2.4% | 9.0hPa | 2.5V | 00:00:00 | 00:00:00 | 00:00:00 | |
| DM0DOS-11 | 2026-09-02 00:36:12 | 48.84417 | 10.09537 | 75° | 18km/h | 32287m | -42m/s | -39.4°C | 2.4% | 8.9hPa | 2.5V | 08:30:00 | 02:07:16 | 00:00:00 | |
| DF8AY | 2026-09-02 00:36:11 | 48.84417 | 10.09502 | 94° | 18km/h | 32474m | -30.3m/s | -39.2°C | 0% | 8.6hPa | 2.5V | 18:12:15 | 02:07:11 | 00:00:00 | |
| OE5DXL-15 | 2026-09-02 00:36:11 | 48.84417 | 10.09537 | 76° | 22km/h | 32288m | -42.0m/s | -39.3°C | 2.4% | 8.9hPa | 2.5V | 00:00:00 | 00:00:00 | 00:00:00 | |
| DO3MHA-11 | 2026-09-02 00:36:10 | 48.84416 | 10.09530 | 88° | 20km/h | 32330m | -42.5m/s | -39.3°C | 2.4% | 8.8hPa | 2.5V | 00:00:00 | 02:07:15 | 00:00:00 | |
| IW2NTF | 2026-09-02 00:36:09 | 48.84417 | 10.09495 | 88° | 20km/h | 32502m | -27.6m/s | -39.2°C | 2.4% | 8.6hPa | 2.5V | 08:30:00 | 02:07:10 | 00:00:00 | |
| DL1XH1-15 | 2026-09-02 00:36:09 | 48.84416 | 10.09516 | 91° | 18km/h | 32409m | -35.5m/s | -39.2°C | 2.4% | 8.7hPa | 2.6V | 08:30:00 | 02:07:13 | 00:00:00 | |
| EDDB2-11 | 2026-09-02 00:36:09 | 48.84416 | 10.09516 | 91° | 16km/h | 32409m | -35.5m/s | -39.3°C | 0.6% | 8.7hPa | 2.5V | 00:00:00 | 00:00:00 | 00:00:00 | |
| OE5MMP-10 | 2026-09-02 00:36:08 | 48.84416 | 10.09516 | 92° | 22km/h | 32409m | -35.4m/s | -39.2°C | 2.4% | 8.7hPa | 2.5V | 00:00:00 | 02:07:13 | 00:00:00 | |
| DM0DOS-11 | 2026-09-02 00:36:05 | 48.84414 | 10.09461 | 78° | 26km/h | 32599m | -21.7m/s | -38.7°C | 2.3% | 8.4hPa | 2.5V | 08:30:00 | 02:07:06 | 00:00:00 | |
| DL1XH-west | 2026-09-02 00:36:05 | 48.84417 | 10.09495 | 88° | 20km/h | 32502m | -27.6m/s | -39.2°C | 0% | 8.6hPa | 2.5V | 18:12:15 | 02:07:10 | 00:00:00 | |
| DK7TD | 2026-09-02 00:36:04 | 48.84417 | 10.09487 | 88° | 20km/h | 32529m | -25.9m/s | -39.1°C | 0% | 8.5hPa | 2.5V | 18:12:15 | 02:07:09 | 00:00:00 | |
| NBG1-10 | 2026-09-02 00:36:04 | 48.84417 | 10.09487 | 88° | 22km/h | 32529m | -25.8m/s | -39.0°C | 2.4% | 8.5hPa | 2.5V | 00:00:00 | 02:07:09 | 00:00:00 | |
| DL1XH1-15 | 2026-09-02 00:36:03 | 48.84411 | 10.09431 | 89° | 26km/h | 32665m | -21.8m/s | -38.5°C | 2.3% | 8.3hPa | 2.6V | 08:30:00 | 02:07:03 | 00:00:00 | |
| DF8AY | 2026-09-02 00:35:56 | 48.84412 | 10.09412 | 101° | 24km/h | 32706m | -18.8m/s | -38.5°C | 0% | 8.3hPa | 2.5V | 18:12:15 | 02:07:01 | 00:00:00 | |
| DL1XH-west | 2026-09-02 00:35:54 | 48.84416 | 10.09396 | 124° | 20km/h | 32743m | -18.2m/s | -38.5°C | 0% | 8.3hPa | 2.6V | 18:12:15 | 02:06:59 | 00:00:00 | |
| DL8DAS-14 | 2026-09-02 00:35:54 | 48.84419 | 10.09390 | 128° | 18km/h | 32761m | -17.6m/s | -38.6°C | 0.6% | 8.2hPa | 2.5V | 00:00:00 | 00:00:00 | 00:00:00 | |
| DJ2DS-15 | 2026-09-02 00:35:52 | 48.84422 | 10.09384 | 132° | 22km/h | 32778m | -17.3m/s | -38.5°C | 2.4% | 8.2hPa | 2.5V | 00:00:00 | 02:06:57 | 00:00:00 | |
| DB0NH | 2026-09-02 00:35:51 | 48.84424 | 10.09379 | 127° | 20km/h | 32796m | -18.0m/s | -38.5°C | 2.4% | 8.1hPa | 2.5V | 00:00:00 | 02:06:56 | 08:30:00 | |
| IW2NTF | 2026-09-02 00:35:50 | 48.84427 | 10.09360 | 70° | 18km/h | 32867m | -18.4m/s | -38.2°C | 2.4% | 8.1hPa | 2.6V | 08:30:00 | 02:06:52 | 00:00:00 | |
| DF8AY | 2026-09-02 00:35:45 | 48.84415 | 10.09306 | 88° | 24km/h | 33014m | -27.1m/s | -37.9°C | 0% | 7.9hPa | 2.5V | 18:12:15 | 02:06:46 | 00:00:00 | |
| DK7TD | 2026-09-02 00:35:43 | 48.84418 | 10.09326 | 72° | 29km/h | 32961m | -26.2m/s | -38°C | 0% | 8hPa | 2.6V | 18:12:15 | 02:06:48 | 00:00:00 | |
| DM0DOS-11 | 2026-09-02 00:35:43 | 48.84415 | 10.09306 | 87° | 24km/h | 33014m | -27.1m/s | -37.9°C | 2.4% | 7.9hPa | 2.5V | 08:30:00 | 02:06:46 | 00:00:00 | |
| DF7PN | 2026-09-02 00:35:42 | 48.84415 | 10.09306 | 87° | 24km/h | 33014m | -27.1m/s | -37.9°C | 0.6% | 7.9hPa | 2.6V | 00:00:00 | 00:00:00 | 00:00:00 | |
| OE5DXL-15 | 2026-09-02 00:35:41 | 48.84415 | 10.09306 | 88° | 16km/h | 33014m | -27.0m/s | -37.9°C | 2.4% | 7.9hPa | 2.6V | 00:00:00 | 00:00:00 | 00:00:00 | |
| DO3MHA-11 | 2026-09-02 00:35:40 | 48.84416 | 10.09297 | 101° | 24km/h | 33042m | -27.1m/s | -37.8°C | 2.4% | 7.9hPa | 2.6V | 00:00:00 | 02:06:45 | 00:00:00 | |
| IW2NTF | 2026-09-02 00:35:38 | 48.84423 | 10.09279 | 144° | 20km/h | 33121m | -25.1m/s | -37.4°C | 2.3% | 7.8hPa | 2.6V | 08:30:00 | 02:06:42 | 00:00:00 | |
| DF8AY | 2026-09-02 00:35:35 | 48.84432 | 10.09269 | 139° | 24km/h | 33170m | -26m/s | -36.9°C | 0% | 7.8hPa | 2.5V | 18:12:15 | 02:06:40 | 00:00:00 | |
| DO3MHA-12 | 2026-09-02 00:35:35 | 48.84432 | 10.09269 | 139° | 22km/h | 33170m | -25.9m/s | -36.9°C | 2.2% | 7.7hPa | 2.5V | 00:00:00 | 02:06:40 | 00:00:00 | |
| DN1GJH-1 | 2026-09-02 00:35:34 | 48.84432 | 10.09269 | 140° | 24km/h | 33170m | -26.0m/s | -36.9°C | 0.5% | 7.8hPa | 2.5V | 00:00:00 | 00:00:00 | 00:00:00 | |
| DM0DOS-11 | 2026-09-02 00:35:33 | 48.84446 | 10.09233 | 106° | 27km/h | 33276m | -25.2m/s | -36.1°C | 2% | 7.6hPa | 2.5V | 08:30:00 | 02:06:36 | 00:00:00 | |
| DK7TD | 2026-09-02 00:35:33 | 48.84440 | 10.09253 | 119° | 29km/h | 33225m | -28.1m/s | -36.4°C | 0% | 7.7hPa | 2.6V | 18:12:15 | 02:06:38 | 00:00:00 | |
| DL1XH-west | 2026-09-02 00:35:32 | 48.84443 | 10.09243 | 115° | 29km/h | 33251m | -24.9m/s | -36.3°C | 0% | 7.7hPa | 2.6V | 18:12:15 | 02:06:37 | 00:00:00 | |
| DF8AY | 2026-09-02 00:35:24 | 48.84434 | 10.09194 | 26° | 9km/h | 33384m | 5.4m/s | -36°C | 0% | 7.5hPa | 2.5V | 18:12:15 | 02:06:29 | 00:00:00 | |
| DM0DOS-11 | 2026-09-02 00:35:23 | 48.84431 | 10.09198 | 253° | 5km/h | 33366m | 6.3m/s | -36.1°C | 2% | 7.5hPa | 2.6V | 08:30:00 | 02:06:26 | 00:00:00 | |
| DL1XH1-15 | 2026-09-02 00:35:23 | 48.84435 | 10.09194 | 112° | 13km/h | 33349m | 5.5m/s | -36.2°C | 2% | 7.5hPa | 2.7V | 08:30:00 | 02:06:23 | 00:00:00 | |
| DL1XH-west | 2026-09-02 00:35:22 | 48.84431 | 10.09196 | 290° | 5km/h | 33373m | 5.9m/s | -36.1°C | 0% | 7.5hPa | 2.6V | 18:12:15 | 02:06:27 | 00:00:00 | |
| DB0NH | 2026-09-02 00:35:21 | 48.84431 | 10.09198 | 254° | 15km/h | 33367m | 6.2m/s | -36.1°C | 2.0% | 7.4hPa | 2.6V | 00:00:00 | 02:06:26 | 00:00:00 | |
| DO3MHA-11 | 2026-09-02 00:35:20 | 48.84432 | 10.09199 | 187° | 15km/h | 33361m | 5.9m/s | -36.1°C | 2.0% | 7.4hPa | 2.6V | 00:00:00 | 02:06:25 | 08:30:00 | |
| DG9SBQ-11 | 2026-09-02 00:35:19 | 48.84432 | 10.09199 | 188° | 4km/h | 33361m | 5.9m/s | -36.2°C | 0.5% | 7.5hPa | 2.6V | 00:00:00 | 00:00:00 | 00:00:00 | |
| OE5MMP-10 | 2026-09-02 00:35:18 | 48.84434 | 10.09194 | 113° | 16km/h | 33349m | 5.4m/s | -36.2°C | 2.0% | 7.5hPa | 2.6V | 00:00:00 | 02:06:23 | 00:00:00 | |
| DF8AY-15 | 2026-09-02 00:35:17 | 48.84435 | 10.09189 | 101° | 15km/h | 33344m | 5.4m/s | -36.2°C | 2.0% | 7.5hPa | 2.6V | 00:00:00 | 02:06:22 | 00:00:00 | |
| OE5DRO-10 | 2026-09-02 00:35:16 | 48.84436 | 10.09183 | 88° | 15km/h | 33338m | 5.3m/s | -36.2°C | 2.0% | 7.5hPa | 2.6V | 00:00:00 | 00:00:00 | 00:00:00 | |
| DO3MHA-12 | 2026-09-02 00:35:15 | 48.84435 | 10.09176 | 76° | 15km/h | 33333m | 6.4m/s | -36.3°C | 2.0% | 7.5hPa | 2.6V | 00:00:00 | 02:06:20 | 08:30:00 | |
| IW2NTF | 2026-09-02 00:35:14 | 48.84431 | 10.09165 | 52° | 16km/h | 33320m | 5.1m/s | -36.4°C | 2% | 7.5hPa | 2.7V | 08:30:00 | 02:06:18 | 00:00:00 | |
| DF8AY | 2026-09-02 00:35:14 | 48.84433 | 10.09170 | 61° | 16km/h | 33326m | 6.1m/s | -36.3°C | 0% | 7.5hPa | 2.6V | 18:12:15 | 02:06:19 | 00:00:00 | |
| DK5PH-5 | 2026-09-02 00:35:14 | 48.84433 | 10.09170 | 62° | 15km/h | 33326m | 6.0m/s | -36.3°C | 2.0% | 7.5hPa | 2.6V | 00:00:00 | 02:06:19 | 00:00:00 | |
| DN1GJH-1 | 2026-09-02 00:35:13 | 48.84433 | 10.09170 | 62° | 16km/h | 33326m | 6.1m/s | -36.3°C | 0.5% | 7.5hPa | 2.6V | 00:00:00 | 00:00:00 | 00:00:00 | |
| DM0DOS-11 | 2026-09-02 00:35:12 | 48.84426 | 10.09155 | 59° | 16km/h | 33310m | 5.4m/s | -36.4°C | 2% | 7.6hPa | 2.6V | 08:30:00 | 02:06:16 | 00:00:00 | |
| DK7TD | 2026-09-02 00:35:12 | 48.84428 | 10.09160 | 53° | 16km/h | 33315m | 4.7m/s | -36.4°C | 0% | 7.5hPa | 2.6V | 18:12:15 | 02:06:17 | 00:00:00 | |
| DL1XH-west | 2026-09-02 00:35:11 | 48.84426 | 10.09155 | 60° | 16km/h | 33310m | 5.4m/s | -36.4°C | 0% | 7.6hPa | 2.6V | 18:12:15 | 02:06:16 | 00:00:00 | |
| DF8AY | 2026-09-02 00:35:04 | 48.84437 | 10.09135 | 223° | 11km/h | 33264m | 4.7m/s | -36.7°C | 0% | 7.6hPa | 2.7V | 18:12:15 | 02:06:08 | 00:00:00 | |
| DL1XH1-15 | 2026-09-02 00:35:03 | 48.84443 | 10.09115 | 93° | 31km/h | 33237m | 5.4m/s | -37°C | 2% | 7.6hPa | 2.7V | 08:30:00 | 02:06:03 | 00:00:00 | |
| DM0DOS-11 | 2026-09-02 00:35:02 | 48.84440 | 10.09137 | 126° | 7km/h | 33256m | 4.7m/s | -36.8°C | 2% | 7.6hPa | 2.6V | 08:30:00 | 02:06:06 | 00:00:00 | |
| DK7TD | 2026-09-02 00:35:01 | 48.84440 | 10.09137 | 126° | 7km/h | 33256m | 4.7m/s | -36.8°C | 0% | 7.6hPa | 2.6V | 18:12:15 | 02:06:06 | 00:00:00 | |
| DL1XH-west | 2026-09-02 00:35:00 | 48.84441 | 10.09133 | 103° | 15km/h | 33250m | 6.8m/s | -36.9°C | 0% | 7.6hPa | 2.6V | 18:12:15 | 02:06:05 | 00:00:00 | |
| IW2NTF | 2026-09-02 00:34:59 | 48.84441 | 10.09075 | 72° | 13km/h | 33216m | 6.1m/s | -37.2°C | 2% | 7.7hPa | 2.6V | 08:30:00 | 02:05:59 | 00:00:00 | |
| DF8AY | 2026-09-02 00:34:54 | 48.84440 | 10.09071 | 318° | 2km/h | 33206m | 5m/s | -37.3°C | 0% | 7.7hPa | 2.6V | 18:12:15 | 02:05:57 | 00:00:00 | |
| DN1GJH-1 | 2026-09-02 00:34:53 | 48.84441 | 10.09075 | 74° | 13km/h | 33217m | 6.1m/s | -37.2°C | 0.5% | 7.7hPa | 2.6V | 00:00:00 | 00:00:00 | 00:00:00 | |
| DM0DOS-11 | 2026-09-02 00:34:52 | 48.84440 | 10.09072 | 230° | 2km/h | 33200m | 5.2m/s | -37.4°C | 2.1% | 7.7hPa | 2.6V | 08:30:00 | 02:05:56 | 00:00:00 | |
| DK7TD | 2026-09-02 00:34:51 | 48.84440 | 10.09072 | 231° | 2km/h | 33200m | 5.2m/s | -37.4°C | 0% | 7.7hPa | 2.6V | 18:12:15 | 02:05:56 | 00:00:00 | |
| DL1XH-west | 2026-09-02 00:34:50 | 48.84441 | 10.09072 | 172° | 5km/h | 33195m | 5.9m/s | -37.5°C | 0% | 7.7hPa | 2.6V | 18:12:15 | 02:05:55 | 00:00:00 | |
| DO3MHA-11 | 2026-09-02 00:34:50 | 48.84440 | 10.09072 | 172° | 20km/h | 33195m | 5.9m/s | -37.4°C | 2.1% | 7.6hPa | 2.6V | 00:00:00 | 02:05:55 | 00:00:00 | |
| DL1XH1-15 | 2026-09-02 00:34:49 | 48.84445 | 10.09067 | 133° | 16km/h | 33183m | 5.3m/s | -37.6°C | 2.1% | 7.7hPa | 2.6V | 08:30:00 | 02:05:53 | 00:00:00 | |
| DG9SBQ-11 | 2026-09-02 00:34:48 | 48.84448 | 10.09062 | 126° | 22km/h | 33178m | 5.0m/s | -37.7°C | 0.5% | 7.7hPa | 2.6V | 00:00:00 | 00:00:00 | 00:00:00 | |
| IW2NTF | 2026-09-02 00:34:47 | 48.84459 | 10.09022 | 99° | 22km/h | 33150m | 5.2m/s | -38°C | 2.2% | 7.8hPa | 2.6V | 08:30:00 | 02:05:47 | 00:00:00 | |
| DO3MHA-12 | 2026-09-02 00:34:45 | 48.84454 | 10.09046 | 114° | 26km/h | 33167m | 5.6m/s | -37.8°C | 2.2% | 7.7hPa | 2.6V | 00:00:00 | 02:05:50 | 00:00:00 | |
| DK5PH-5 | 2026-09-02 00:34:44 | 48.84456 | 10.09038 | 110° | 22km/h | 33162m | 5.6m/s | -37.8°C | 2.2% | 7.7hPa | 2.7V | 00:00:00 | 02:05:49 | 00:00:00 | |
| DL1XH1-15 | 2026-09-02 00:34:43 | 48.84459 | 10.08982 | 84° | 31km/h | 33128m | 5.5m/s | -38.1°C | 2.2% | 7.8hPa | 2.7V | 08:30:00 | 02:05:43 | 00:00:00 | |
| DF8AY | 2026-09-02 00:34:42 | 48.84458 | 10.08970 | 82° | 31km/h | 33123m | 4.2m/s | -38.1°C | 0% | 7.8hPa | 2.6V | 18:12:15 | 02:05:42 | 00:00:00 | |
| DL1XH-west | 2026-09-02 00:34:40 | 48.84460 | 10.09004 | 91° | 26km/h | 33140m | 5.7m/s | -38°C | 0% | 7.8hPa | 2.6V | 18:12:15 | 02:05:45 | 00:00:00 | |
| DO3MHA-11 | 2026-09-02 00:34:40 | 48.84460 | 10.09004 | 91° | 20km/h | 33140m | 5.6m/s | -38.0°C | 2.2% | 7.7hPa | 2.6V | 00:00:00 | 02:05:45 | 00:00:00 | |
| DL6DJ-15 | 2026-09-02 00:34:39 | 48.84459 | 10.08982 | 84° | 31km/h | 33128m | 5.5m/s | -38.1°C | 0.5% | 7.8hPa | 2.6V | 00:00:00 | 00:00:00 | 00:00:00 | |
| OE5MMP-10 | 2026-09-02 00:34:38 | 48.84459 | 10.08982 | 85° | 20km/h | 33128m | 5.4m/s | -38.0°C | 2.2% | 7.7hPa | 2.6V | 00:00:00 | 02:05:43 | 00:00:00 | |
| DF8AY-15 | 2026-09-02 00:34:37 | 48.84458 | 10.08970 | 83° | 22km/h | 33123m | 4.2m/s | -38.1°C | 2.2% | 7.7hPa | 2.6V | 00:00:00 | 02:05:42 | 00:00:00 | |
| DM0DOS-11 | 2026-09-02 00:34:36 | 48.84456 | 10.08932 | 108° | 13km/h | 33090m | 5m/s | -38.3°C | 2.2% | 7.8hPa | 2.6V | 08:30:00 | 02:05:36 | 00:00:00 | |
| DL1XH-west | 2026-09-02 00:34:30 | 48.84457 | 10.08927 | 105° | 18km/h | 33085m | 6.3m/s | -38.3°C | 0% | 7.8hPa | 2.6V | 18:12:15 | 02:05:35 | 00:00:00 | |
| DF8AY | 2026-09-02 00:34:30 | 48.84460 | 10.08872 | 86° | 27km/h | 33057m | 6.2m/s | -38.4°C | 0% | 7.9hPa | 2.6V | 18:12:15 | 02:05:30 | 00:00:00 | |
| DO3MHA-11 | 2026-09-02 00:34:30 | 48.84457 | 10.08927 | 106° | 24km/h | 33085m | 6.2m/s | -38.3°C | 2.2% | 7.8hPa | 2.6V | 00:00:00 | 02:05:35 | 00:00:00 | |
| DF1GD-15 | 2026-09-02 00:34:29 | 48.84457 | 10.08927 | 106° | 18km/h | 33085m | 6.3m/s | -38.3°C | 0.6% | 7.8hPa | 2.6V | 00:00:00 | 00:00:00 | 00:00:00 | |
| DL1XH1-15 | 2026-09-02 00:34:29 | 48.84460 | 10.08908 | 96° | 31km/h | 33073m | 5.2m/s | -38.4°C | 2.2% | 7.8hPa | 2.6V | 08:30:00 | 02:05:33 | 00:00:00 | |
| OE5MMP-10 | 2026-09-02 00:34:28 | 48.84460 | 10.08908 | 97° | 24km/h | 33073m | 5.2m/s | -38.3°C | 2.2% | 7.8hPa | 2.6V | 00:00:00 | 02:05:33 | 00:00:00 | |
| SONCRA | 2026-09-02 00:34:26 | 48.84460 | 10.08872 | 85° | 26km/h | 33057m | 6.2m/s | -38.4°C | 0.5% | 7.9hPa | 2.6V | 00:00:00 | 00:00:00 | 00:00:00 | |
| DO3MHA-12 | 2026-09-02 00:34:25 | 48.84460 | 10.08872 | 86° | 22km/h | 33058m | 6.2m/s | -38.3°C | 2.2% | 7.8hPa | 2.6V | 00:00:00 | 02:05:30 | 00:00:00 | |
| IW2NTF | 2026-09-02 00:34:24 | 48.84455 | 10.08845 | 70° | 16km/h | 33035m | 5.3m/s | -38.3°C | 2.2% | 7.9hPa | 2.6V | 08:30:00 | 02:05:26 | 00:00:00 | |
| DL1XH1-15 | 2026-09-02 00:34:23 | 48.84452 | 10.08821 | 77° | 26km/h | 33018m | 5m/s | -38.4°C | 2.3% | 7.9hPa | 2.6V | 08:30:00 | 02:05:23 | 00:00:00 | |
| DK7TD | 2026-09-02 00:34:19 | 48.84453 | 10.08831 | 78° | 24km/h | 33023m | 5.7m/s | -38.3°C | 0% | 7.9hPa | 2.6V | 18:12:15 | 02:05:24 | 00:00:00 | |
| DF8AY | 2026-09-02 00:34:18 | 48.84444 | 10.08786 | 65° | 20km/h | 32996m | 5m/s | -38.5°C | 0% | 7.9hPa | 2.6V | 18:12:15 | 02:05:19 | 00:00:00 | |
| DF8AY-15 | 2026-09-02 00:34:17 | 48.84450 | 10.08812 | 77° | 22km/h | 33013m | 4.9m/s | -38.3°C | 2.2% | 7.9hPa | 2.6V | 00:00:00 | 02:05:22 | 00:00:00 | |
| IW2NTF | 2026-09-02 00:34:15 | 48.84439 | 10.08762 | 78° | 24km/h | 32980m | 6.4m/s | -38.5°C | 2.3% | 8hPa | 2.6V | 08:30:00 | 02:05:16 | 00:00:00 | |
| DF8AY | 2026-09-02 00:34:13 | 48.84437 | 10.08724 | 83° | 18km/h | 32959m | 4.9m/s | -38.5°C | 0% | 8hPa | 2.6V | 18:12:15 | 02:05:12 | 00:00:00 | |
| OE5WHR-10 | 2026-09-02 00:34:12 | 48.84440 | 10.08771 | 73° | 20km/h | 32986m | 4.9m/s | -38.5°C | 2.3% | 7.9hPa | 2.6V | 00:00:00 | 02:05:17 | 00:00:00 | |
| OE5DXL-15 | 2026-09-02 00:34:11 | 48.84439 | 10.08762 | 79° | 20km/h | 32981m | 6.4m/s | -38.5°C | 2.3% | 7.9hPa | 2.6V | 00:00:00 | 00:00:00 | 00:00:00 | |
| DO3MHA-11 | 2026-09-02 00:34:10 | 48.84438 | 10.08753 | 85° | 18km/h | 32974m | 6.0m/s | -38.4°C | 2.3% | 7.9hPa | 2.6V | 00:00:00 | 02:05:15 | 00:00:00 | |
| DL1XH1-15 | 2026-09-02 00:34:09 | 48.84437 | 10.08732 | 87° | 24km/h | 32964m | 4.3m/s | -38.5°C | 2.2% | 8hPa | 2.6V | 08:30:00 | 02:05:13 | 00:00:00 | |
| DK7TD | 2026-09-02 00:34:09 | 48.84437 | 10.08742 | 88° | 27km/h | 32968m | 5m/s | -38.5°C | 0% | 8hPa | 2.6V | 18:12:15 | 02:05:14 | 00:00:00 | |
| OE5MMP-10 | 2026-09-02 00:34:08 | 48.84437 | 10.08732 | 88° | 18km/h | 32964m | 4.3m/s | -38.4°C | 2.2% | 7.9hPa | 2.6V | 00:00:00 | 02:05:13 | 00:00:00 | |
| DL6DJ-15 | 2026-09-02 00:34:07 | 48.84437 | 10.08724 | 82° | 18km/h | 32959m | 4.9m/s | -38.5°C | 0.5% | 8.0hPa | 2.6V | 00:00:00 | 00:00:00 | 00:00:00 | |
| AZAK | 2026-09-02 00:34:06 | 48.84436 | 10.08719 | 70° | 13km/h | 32954m | 6.6m/s | -38.5°C | 0.5% | 8.0hPa | 2.6V | 00:00:00 | 00:00:00 | 00:00:00 | |
| DO3MHA-12 | 2026-09-02 00:34:05 | 48.84434 | 10.08715 | 37° | 20km/h | 32947m | 6.1m/s | -38.4°C | 2.2% | 7.9hPa | 2.6V | 00:00:00 | 02:05:10 | 00:00:00 | |
| DB0ND-19 | 2026-09-02 00:34:04 | 48.84432 | 10.08713 | 17° | 11km/h | 32942m | 5.2m/s | -38.5°C | 0.5% | 8.0hPa | 2.6V | 00:00:00 | 00:00:00 | 00:00:00 | |
| DL1XH1-15 | 2026-09-02 00:34:03 | 48.84419 | 10.08675 | 84° | 29km/h | 32909m | 5m/s | -38.6°C | 2.2% | 8hPa | 2.6V | 08:30:00 | 02:05:03 | 00:00:00 | |
| DL1XH-west | 2026-09-02 00:33:58 | 48.84419 | 10.08675 | 85° | 29km/h | 32909m | 5.1m/s | -38.6°C | 0% | 8hPa | 2.6V | 18:12:15 | 02:05:03 | 00:00:00 | |
| DF8AY | 2026-09-02 00:33:57 | 48.84418 | 10.08655 | 93° | 24km/h | 32897m | 6m/s | -38.7°C | 0% | 8.1hPa | 2.6V | 18:12:15 | 02:05:01 | 00:00:00 | |
| DM0DOS-11 | 2026-09-02 00:33:56 | 48.84423 | 10.08618 | 100° | 22km/h | 32869m | 5.7m/s | -38.8°C | 2.3% | 8.1hPa | 2.6V | 08:30:00 | 02:04:56 | 00:00:00 | |
| SONCRA | 2026-09-02 00:33:55 | 48.84420 | 10.08640 | 102° | 16km/h | 32887m | 5.0m/s | -38.8°C | 0.5% | 8.1hPa | 2.7V | 00:00:00 | 00:00:00 | 00:00:00 | |
| SONDE2-11 | 2026-09-02 00:33:52 | 48.84423 | 10.08618 | 100° | 20km/h | 32870m | 5.7m/s | -38.8°C | 0.5% | 8.1hPa | 2.7V | 00:00:00 | 00:00:00 | 00:00:00 | |
| DL8DAS-14 | 2026-09-02 00:33:50 | 48.84424 | 10.08602 | 92° | 18km/h | 32859m | 5.4m/s | -38.9°C | 0.5% | 8.1hPa | 2.7V | 00:00:00 | 00:00:00 | 00:00:00 | |
| DL1XH1-15 | 2026-09-02 00:33:49 | 48.84425 | 10.08596 | 87° | 16km/h | 32853m | 6.6m/s | -38.9°C | 2.3% | 8.1hPa | 2.7V | 08:30:00 | 02:04:53 | 00:00:00 | |
| DL1XH-west | 2026-09-02 00:33:48 | 48.84425 | 10.08596 | 88° | 16km/h | 32853m | 6.6m/s | -38.9°C | 0% | 8.1hPa | 2.7V | 18:12:15 | 02:04:53 | 00:00:00 | |
| DK7TD | 2026-09-02 00:33:47 | 48.84424 | 10.08590 | 82° | 13km/h | 32846m | 5.9m/s | -38.9°C | 0% | 8.1hPa | 2.6V | 18:12:15 | 02:04:52 | 00:00:00 | |
| DF8AY | 2026-09-02 00:33:45 | 48.84423 | 10.08579 | 88° | 16km/h | 32837m | 4.6m/s | -39°C | 0% | 8.1hPa | 2.6V | 18:12:15 | 02:04:50 | 00:00:00 | |
| DO3MHA-12 | 2026-09-02 00:33:45 | 48.84423 | 10.08579 | 89° | 22km/h | 32837m | 4.5m/s | -38.9°C | 2.3% | 8.1hPa | 2.6V | 00:00:00 | 02:04:50 | 08:30:00 | |
| DL1XH1-15 | 2026-09-02 00:33:43 | 48.84431 | 10.08513 | 94° | 15km/h | 32798m | 6.3m/s | -38.9°C | 2.3% | 8.2hPa | 2.6V | 08:30:00 | 02:04:43 | 00:00:00 | |
| DM0DOS-11 | 2026-09-02 00:33:43 | 48.84427 | 10.08540 | 103° | 31km/h | 32814m | 4.7m/s | -39°C | 2.3% | 8.2hPa | 2.6V | 08:30:00 | 02:04:46 | 00:00:00 | |
| OE5DXL-15 | 2026-09-02 00:33:41 | 48.84427 | 10.08540 | 104° | 24km/h | 32814m | 4.7m/s | -38.9°C | 2.3% | 8.1hPa | 2.6V | 00:00:00 | 00:00:00 | 00:00:00 | |
| IW2NTF | 2026-09-02 00:33:40 | 48.84426 | 10.08495 | 67° | 18km/h | 32776m | 6.3m/s | -38.8°C | 2.3% | 8.2hPa | 2.6V | 08:30:00 | 02:04:39 | 00:00:00 | |
| DL1XH-west | 2026-09-02 00:33:37 | 48.84430 | 10.08508 | 76° | 11km/h | 32792m | 5.7m/s | -38.9°C | 0% | 8.2hPa | 2.6V | 18:12:15 | 02:04:42 | 00:00:00 | |
| DK7TD | 2026-09-02 00:33:36 | 48.84429 | 10.08505 | 58° | 11km/h | 32786m | 4.9m/s | -38.9°C | 0% | 8.2hPa | 2.6V | 18:12:15 | 02:04:41 | 00:00:00 | |
| DF8AY | 2026-09-02 00:33:33 | 48.84431 | 10.08377 | 59° | 15km/h | 32695m | 5.4m/s | -39°C | 0% | 8.3hPa | 2.6V | 18:12:15 | 02:04:25 | 00:00:00 | |
| DL1XH-west | 2026-09-02 00:33:27 | 48.84427 | 10.08429 | 113° | 22km/h | 32736m | 5.2m/s | -38.8°C | 0% | 8.3hPa | 2.6V | 18:12:15 | 02:04:32 | 00:00:00 | |
| DK7TD | 2026-09-02 00:33:26 | 48.84430 | 10.08421 | 113° | 24km/h | 32730m | 6m/s | -38.9°C | 0% | 8.3hPa | 2.6V | 18:12:15 | 02:04:31 | 00:00:00 | |
| DO3MHA-12 | 2026-09-02 00:33:25 | 48.84432 | 10.08413 | 110° | 20km/h | 32724m | 6.0m/s | -38.8°C | 2.2% | 8.2hPa | 2.7V | 00:00:00 | 02:04:30 | 00:00:00 | |
| SONCRA | 2026-09-02 00:33:24 | 48.84434 | 10.08396 | 93° | 20km/h | 32713m | 5.0m/s | -38.9°C | 0.5% | 8.3hPa | 2.7V | 00:00:00 | 00:00:00 | 00:00:00 | |
| DL1XH1-15 | 2026-09-02 00:33:23 | 48.84428 | 10.08366 | 73° | 20km/h | 32685m | 5.3m/s | -39.1°C | 2.3% | 8.3hPa | 2.7V | 08:30:00 | 02:04:23 | 00:00:00 | |
| DF8AY | 2026-09-02 00:33:23 | 48.84431 | 10.08297 | 101° | 26km/h | 32651m | 6.2m/s | -39.3°C | 0% | 8.4hPa | 2.6V | 18:12:15 | 02:04:17 | 00:00:00 | |
| DL1XH-west | 2026-09-02 00:33:17 | 48.84427 | 10.08357 | 82° | 26km/h | 32679m | 6.7m/s | -39.1°C | 0% | 8.3hPa | 2.6V | 18:12:15 | 02:04:22 | 00:00:00 | |
| DF8AY | 2026-09-02 00:33:16 | 48.84432 | 10.08289 | 96° | 18km/h | 32645m | 5.9m/s | -39.3°C | 0% | 8.3hPa | 2.6V | 18:12:15 | 02:04:16 | 00:00:00 | |
| DM0DOS-11 | 2026-09-02 00:33:15 | 48.84432 | 10.08289 | 96° | 18km/h | 32645m | 5.9m/s | -39.3°C | 2.3% | 8.3hPa | 2.6V | 08:30:00 | 02:04:16 | 00:00:00 | |
| DK7TD | 2026-09-02 00:33:15 | 48.84427 | 10.08334 | 96° | 35km/h | 32667m | 5.2m/s | -39.2°C | 0% | 8.3hPa | 2.6V | 18:12:15 | 02:04:20 | 00:00:00 | |
| DO3MHA-12 | 2026-09-02 00:33:15 | 48.84427 | 10.08334 | 96° | 24km/h | 32667m | 5.2m/s | -39.2°C | 2.3% | 8.3hPa | 2.6V | 00:00:00 | 02:04:20 | 00:00:00 | |
| DK5PH-5 | 2026-09-02 00:33:14 | 48.84428 | 10.08320 | 100° | 26km/h | 32662m | 4.6m/s | -39.2°C | 2.3% | 8.3hPa | 2.7V | 00:00:00 | 02:04:19 | 00:00:00 | |
| DL1XH1-15 | 2026-09-02 00:33:13 | 48.84430 | 10.08272 | 66° | 16km/h | 32630m | 5m/s | -39.3°C | 2.3% | 8.4hPa | 2.7V | 08:30:00 | 02:04:13 | 00:00:00 | |
| DL1XH-west | 2026-09-02 00:33:06 | 48.84426 | 10.08256 | 76° | 29km/h | 32618m | 6.4m/s | -39.5°C | 0% | 8.4hPa | 2.6V | 18:12:15 | 02:04:11 | 00:00:00 | |
| DK7TD | 2026-09-02 00:33:05 | 48.84425 | 10.08245 | 81° | 35km/h | 32612m | 5.5m/s | -39.5°C | 0% | 8.4hPa | 2.6V | 18:12:15 | 02:04:10 | 00:00:00 | |
| DO3MHA-12 | 2026-09-02 00:33:05 | 48.84425 | 10.08245 | 81° | 26km/h | 32613m | 5.5m/s | -39.5°C | 2.3% | 8.3hPa | 2.6V | 00:00:00 | 02:04:10 | 00:00:00 | |
| AZAK | 2026-09-02 00:33:04 | 48.84425 | 10.08245 | 82° | 35km/h | 32613m | 5.5m/s | -39.5°C | 0.6% | 8.4hPa | 2.6V | 00:00:00 | 00:00:00 | 00:00:00 | |
| OE5DRO-10 | 2026-09-02 00:33:03 | 48.84423 | 10.08218 | 90° | 24km/h | 32603m | 4.8m/s | -39.5°C | 2.3% | 8.4hPa | 2.6V | 00:00:00 | 00:00:00 | 00:00:00 | |
| DM0DOS-11 | 2026-09-02 00:33:02 | 48.84424 | 10.08194 | 100° | 26km/h | 32591m | 6.2m/s | -39.6°C | 2.3% | 8.4hPa | 2.6V | 08:30:00 | 02:04:06 | 00:00:00 | |
| DF8AY | 2026-09-02 00:33:01 | 48.84424 | 10.08194 | 100° | 26km/h | 32591m | 6.2m/s | -39.6°C | 0% | 8.4hPa | 2.6V | 18:12:15 | 02:04:06 | 00:00:00 | |
| DO9HM | 2026-09-02 00:33:01 | 48.84426 | 10.08186 | 111° | 20km/h | 32585m | 5.6m/s | -39.7°C | 0.6% | 8.4hPa | 2.7V | 00:00:00 | 00:00:00 | 00:00:00 | |
| DO3MHA-11 | 2026-09-02 00:33:00 | 48.84426 | 10.08186 | 110° | 22km/h | 32585m | 5.6m/s | -39.6°C | 2.4% | 8.4hPa | 2.7V | 00:00:00 | 02:04:05 | 00:00:00 | |
| DL1XH1-15 | 2026-09-02 00:32:58 | 48.84430 | 10.08173 | 122° | 20km/h | 32574m | 5.7m/s | -39.7°C | 2.4% | 8.4hPa | 2.7V | 08:30:00 | 02:04:03 | 00:00:00 | |
| DL1XH-west | 2026-09-02 00:32:56 | 48.84435 | 10.08159 | 110° | 22km/h | 32562m | 5.3m/s | -39.8°C | 0% | 8.5hPa | 2.6V | 18:12:15 | 02:04:01 | 00:00:00 | |
| DM0DOS-11 | 2026-09-02 00:32:56 | 48.84425 | 10.08124 | 33° | 27km/h | 32533m | 5.6m/s | -39.9°C | 2.4% | 8.5hPa | 2.6V | 08:30:00 | 02:03:56 | 00:00:00 | |
| DK7TD | 2026-09-02 00:32:54 | 48.84436 | 10.08144 | 75° | 20km/h | 32552m | 5.1m/s | -39.8°C | 0% | 8.5hPa | 2.6V | 18:12:15 | 02:03:59 | 00:00:00 | |
| DL1XH1-15 | 2026-09-02 00:32:53 | 48.84408 | 10.08102 | 55° | 29km/h | 32517m | 6.3m/s | -39.9°C | 2.4% | 8.5hPa | 2.6V | 08:30:00 | 02:03:53 | 00:00:00 | |
| DF8AY | 2026-09-02 00:32:50 | 48.84419 | 10.08118 | 35° | 29km/h | 32528m | 4.5m/s | -39.9°C | 0% | 8.5hPa | 2.6V | 18:12:15 | 02:03:55 | 00:00:00 | |
| DL1XH-west | 2026-09-02 00:32:46 | 48.84403 | 10.08083 | 83° | 24km/h | 32506m | 5.1m/s | -40°C | 0% | 8.5hPa | 2.6V | 18:12:15 | 02:03:51 | 00:00:00 | |
| NBG1-10 | 2026-09-02 00:32:46 | 48.84403 | 10.08083 | 83° | 16km/h | 32506m | 5.1m/s | -39.9°C | 2.4% | 8.5hPa | 2.6V | 00:00:00 | 02:03:51 | 00:00:00 | |
| DO3MHA-12 | 2026-09-02 00:32:45 | 48.84403 | 10.08075 | 92° | 15km/h | 32501m | 5.3m/s | -39.9°C | 2.3% | 8.5hPa | 2.6V | 00:00:00 | 02:03:50 | 00:00:00 | |
| DM0DOS-11 | 2026-09-02 00:32:44 | 48.84403 | 10.08066 | 0° | 4km/h | 32477m | 4.8m/s | -40°C | 2.4% | 8.6hPa | 2.6V | 08:30:00 | 02:03:46 | 00:00:00 | |
| DK7TD | 2026-09-02 00:32:43 | 48.84404 | 10.08066 | 111° | 5km/h | 32488m | 6.5m/s | -40°C | 0% | 8.6hPa | 2.7V | 18:12:15 | 02:03:48 | 00:00:00 | |
| DF8AY | 2026-09-02 00:32:39 | 48.84399 | 10.08062 | 39° | 16km/h | 32466m | 6.5m/s | -40.1°C | 0% | 8.6hPa | 2.6V | 18:12:15 | 02:03:44 | 00:00:00 | |
| DL1XH-west | 2026-09-02 00:32:36 | 48.84386 | 10.08041 | 50° | 31km/h | 32448m | 5.4m/s | -40.2°C | 0% | 8.6hPa | 2.6V | 18:12:15 | 02:03:41 | 00:00:00 | |
| DO3MHA-12 | 2026-09-02 00:32:35 | 48.84381 | 10.08032 | 50° | 16km/h | 32443m | 6.0m/s | -40.1°C | 2.4% | 8.6hPa | 2.6V | 00:00:00 | 02:03:40 | 00:00:00 | |
| DL6DJ-15 | 2026-09-02 00:32:34 | 48.84377 | 10.08024 | 49° | 24km/h | 32436m | 6.0m/s | -40.2°C | 0.6% | 8.6hPa | 2.6V | 00:00:00 | 00:00:00 | 00:00:00 | |
| IW2NTF | 2026-09-02 00:32:33 | 48.84372 | 10.08012 | 78° | 15km/h | 32425m | 5.6m/s | -40.3°C | 2.5% | 8.6hPa | 2.6V | 08:30:00 | 02:03:37 | 00:00:00 | |
| DL1XH1-15 | 2026-09-02 00:32:33 | 48.84379 | 10.07991 | 132° | 15km/h | 32401m | 4.4m/s | -40.4°C | 2.5% | 8.7hPa | 2.7V | 08:30:00 | 02:03:33 | 00:00:00 | |
| DK7TD | 2026-09-02 00:32:33 | 48.84373 | 10.08017 | 57° | 18km/h | 32430m | 5.6m/s | -40.3°C | 0% | 8.6hPa | 2.6V | 18:12:15 | 02:03:38 | 00:00:00 | |
| DF8AY | 2026-09-02 00:32:29 | 48.84379 | 10.07991 | 133° | 15km/h | 32401m | 4.4m/s | -40.4°C | 0% | 8.7hPa | 2.7V | 18:12:15 | 02:03:33 | 00:00:00 | |
| DL1XH-west | 2026-09-02 00:32:26 | 48.84382 | 10.07984 | 85° | 5km/h | 32390m | 6.7m/s | -40.3°C | 0% | 8.7hPa | 2.6V | 18:12:15 | 02:03:31 | 00:00:00 | |
| DO3MHA-12 | 2026-09-02 00:32:25 | 48.84380 | 10.07982 | 29° | 22km/h | 32384m | 6.1m/s | -40.3°C | 2.5% | 8.7hPa | 2.6V | 00:00:00 | 02:03:30 | 00:00:00 | |
| IW2NTF | 2026-09-02 00:32:23 | 48.84368 | 10.07970 | 42° | 27km/h | 32367m | 5.9m/s | -40.4°C | 2.5% | 8.7hPa | 2.6V | 08:30:00 | 02:03:27 | 00:00:00 | |
| DK7TD | 2026-09-02 00:32:22 | 48.84368 | 10.07970 | 42° | 27km/h | 32367m | 5.9m/s | -40.4°C | 0% | 8.7hPa | 2.6V | 18:12:15 | 02:03:27 | 00:00:00 | |
| DF8AY | 2026-09-02 00:32:19 | 48.84359 | 10.07932 | 102° | 22km/h | 32345m | 5m/s | -40.3°C | 0% | 8.8hPa | 2.6V | 18:12:15 | 02:03:23 | 00:00:00 | |
| DL1XH1-15 | 2026-09-02 00:32:18 | 48.84359 | 10.07932 | 101° | 22km/h | 32345m | 5m/s | -40.3°C | 2.4% | 8.7hPa | 2.6V | 08:30:00 | 02:03:23 | 00:00:00 | |
| DL1XH-west | 2026-09-02 00:32:15 | 48.84364 | 10.07919 | 182° | 5km/h | 32327m | 6.3m/s | -40.3°C | 0% | 8.8hPa | 2.6V | 18:12:15 | 02:03:20 | 00:00:00 | |
| DO3MHA-12 | 2026-09-02 00:32:15 | 48.84364 | 10.07919 | 183° | 15km/h | 32328m | 6.3m/s | -40.3°C | 2.5% | 8.7hPa | 2.6V | 00:00:00 | 02:03:20 | 08:30:00 | |
| IW2NTF | 2026-09-02 00:32:14 | 48.84363 | 10.07921 | 16° | 9km/h | 32311m | 5.1m/s | -40.3°C | 2.4% | 8.8hPa | 2.6V | 08:30:00 | 02:03:17 | 00:00:00 | |
| DK5PH-5 | 2026-09-02 00:32:14 | 48.84365 | 10.07920 | 272° | 13km/h | 32322m | 5.4m/s | -40.2°C | 2.4% | 8.8hPa | 2.6V | 00:00:00 | 02:03:19 | 00:00:00 | |
| DL1XH1-15 | 2026-09-02 00:32:13 | 48.84356 | 10.07896 | 87° | 26km/h | 32288m | 5.6m/s | -40.3°C | 2.4% | 8.8hPa | 2.6V | 08:30:00 | 02:03:13 | 00:00:00 | |
| DK7TD | 2026-09-02 00:32:11 | 48.84361 | 10.07919 | 49° | 13km/h | 32306m | 5.9m/s | -40.3°C | 0% | 8.8hPa | 2.6V | 18:12:15 | 02:03:16 | 00:00:00 | |
| DF8AY | 2026-09-02 00:32:07 | 48.84356 | 10.07887 | 91° | 24km/h | 32283m | 5.6m/s | -40.3°C | 0% | 8.8hPa | 2.6V | 18:12:15 | 02:03:12 | 00:00:00 | |
| DM0DOS-11 | 2026-09-02 00:32:06 | 48.84354 | 10.07860 | 78° | 5km/h | 32247m | 6.6m/s | -40.2°C | 2.5% | 8.9hPa | 2.6V | 08:30:00 | 02:03:06 | 00:00:00 | |
| DL1XH-west | 2026-09-02 00:32:05 | 48.84356 | 10.07871 | 86° | 15km/h | 32271m | 6.3m/s | -40.3°C | 0% | 8.8hPa | 2.6V | 18:12:15 | 02:03:10 | 00:00:00 | |
| DO3MHA-12 | 2026-09-02 00:32:05 | 48.84356 | 10.07871 | 87° | 9km/h | 32271m | 6.3m/s | -40.2°C | 2.5% | 8.8hPa | 2.6V | 00:00:00 | 02:03:10 | 00:00:00 | |
| IW2NTF | 2026-09-02 00:32:04 | 48.84355 | 10.07862 | 64° | 5km/h | 32253m | 5.5m/s | -40.2°C | 2.4% | 8.9hPa | 2.6V | 08:30:00 | 02:03:07 | 00:00:00 | |
| DK7TD | 2026-09-02 00:32:00 | 48.84354 | 10.07857 | 94° | 9km/h | 32241m | 6.3m/s | -40.2°C | 0% | 8.9hPa | 2.6V | 18:12:15 | 02:03:05 | 00:00:00 | |
| DO3MHA-11 | 2026-09-02 00:32:00 | 48.84354 | 10.07857 | 94° | 13km/h | 32241m | 6.2m/s | -40.2°C | 2.4% | 8.9hPa | 2.7V | 00:00:00 | 02:03:05 | 00:00:00 | |
| DL1XH1-15 | 2026-09-02 00:31:58 | 48.84355 | 10.07848 | 99° | 13km/h | 32229m | 5.4m/s | -40.2°C | 2.4% | 8.9hPa | 2.7V | 08:30:00 | 02:03:03 | 00:00:00 | |
| DF8AY | 2026-09-02 00:31:56 | 48.84356 | 10.07837 | 89° | 9km/h | 32210m | 5.5m/s | -40.2°C | 0% | 8.9hPa | 2.6V | 18:12:15 | 02:03:00 | 00:00:00 | |
| DJ2DS-15 | 2026-09-02 00:31:56 | 48.84356 | 10.07837 | 88° | 9km/h | 32211m | 5.5m/s | -40.2°C | 0.6% | 8.9hPa | 2.7V | 00:00:00 | 00:00:00 | 00:00:00 | |
| IW2NTF | 2026-09-02 00:31:55 | 48.84356 | 10.07821 | 92° | 20km/h | 32192m | 6.7m/s | -40.2°C | 2.4% | 8.9hPa | 2.7V | 08:30:00 | 02:02:57 | 00:00:00 | |
| DO3MHA-12 | 2026-09-02 00:31:55 | 48.84356 | 10.07836 | 89° | 15km/h | 32211m | 5.5m/s | -40.2°C | 2.4% | 8.9hPa | 2.7V | 00:00:00 | 02:03:00 | 00:00:00 | |
| DM0DOS-11 | 2026-09-02 00:31:54 | 48.84356 | 10.07813 | 91° | 22km/h | 32186m | 5.6m/s | -40.3°C | 2.4% | 9hPa | 2.7V | 08:30:00 | 02:02:56 | 00:00:00 | |
| DL1XH-west | 2026-09-02 00:31:54 | 48.84356 | 10.07832 | 90° | 11km/h | 32205m | 5.4m/s | -40.2°C | 0% | 8.9hPa | 2.6V | 18:12:15 | 02:02:59 | 00:00:00 | |
| DK7TD | 2026-09-02 00:31:50 | 48.84356 | 10.07804 | 88° | 22km/h | 32181m | 4.5m/s | -40.4°C | 0% | 9hPa | 2.6V | 18:12:15 | 02:02:55 | 00:00:00 | |
| DF3TZ-5 | 2026-09-02 00:31:48 | 48.84353 | 10.07787 | 41° | 9km/h | 32164m | 7.2m/s | -40.5°C | 0.6% | 9.0hPa | 2.6V | 00:00:00 | 00:00:00 | 00:00:00 | |
| IW2NTF | 2026-09-02 00:31:47 | 48.84346 | 10.07774 | 90° | 16km/h | 32134m | 5.4m/s | -40.7°C | 2.5% | 9hPa | 2.6V | 08:30:00 | 02:02:47 | 00:00:00 | |
| DF8AY | 2026-09-02 00:31:45 | 48.84347 | 10.07782 | 51° | 7km/h | 32146m | 6.1m/s | -40.6°C | 0% | 9hPa | 2.6V | 18:12:15 | 02:02:49 | 00:00:00 | |
| DM0DOS-11 | 2026-09-02 00:31:44 | 48.84346 | 10.07767 | 90° | 20km/h | 32129m | 5.1m/s | -40.7°C | 2.5% | 9hPa | 2.6V | 08:30:00 | 02:02:46 | 00:00:00 | |
| DL1XH-west | 2026-09-02 00:31:43 | 48.84346 | 10.07779 | 80° | 11km/h | 32140m | 6.2m/s | -40.6°C | 0% | 9hPa | 2.6V | 18:12:15 | 02:02:48 | 00:00:00 | |
| DK7TD | 2026-09-02 00:31:39 | 48.84345 | 10.07752 | 79° | 18km/h | 32117m | 6.6m/s | -40.7°C | 0% | 9.1hPa | 2.6V | 18:12:15 | 02:02:44 | 00:00:00 | |
| DG9SBQ-11 | 2026-09-02 00:31:39 | 48.84345 | 10.07752 | 80° | 18km/h | 32117m | 6.6m/s | -40.7°C | 0.6% | 9.1hPa | 2.6V | 00:00:00 | 00:00:00 | 00:00:00 | |
| OE5MMP-10 | 2026-09-02 00:31:38 | 48.84344 | 10.07745 | 71° | 15km/h | 32111m | 5.9m/s | -40.6°C | 2.5% | 9.0hPa | 2.6V | 00:00:00 | 02:02:43 | 00:00:00 | |
| DF8AY-15 | 2026-09-02 00:31:37 | 48.84342 | 10.07739 | 65° | 20km/h | 32105m | 5.2m/s | -40.6°C | 2.5% | 9.0hPa | 2.6V | 00:00:00 | 02:02:42 | 00:00:00 | |
| IW2NTF | 2026-09-02 00:31:35 | 48.84338 | 10.07707 | 96° | 16km/h | 32075m | 5.3m/s | -40.6°C | 2.4% | 9.1hPa | 2.6V | 08:30:00 | 02:02:37 | 00:00:00 | |
| DF8AY | 2026-09-02 00:31:34 | 48.84338 | 10.07721 | 82° | 18km/h | 32087m | 6.6m/s | -40.6°C | 0% | 9.1hPa | 2.6V | 18:12:15 | 02:02:39 | 00:00:00 | |
| DM0DOS-11 | 2026-09-02 00:31:33 | 48.84338 | 10.07702 | 100° | 13km/h | 32070m | 5.8m/s | -40.6°C | 2.4% | 9.1hPa | 2.6V | 08:30:00 | 02:02:36 | 00:00:00 | |
| DL1XH-west | 2026-09-02 00:31:32 | 48.84338 | 10.07707 | 97° | 16km/h | 32075m | 5.4m/s | -40.6°C | 0% | 9.1hPa | 2.6V | 18:12:15 | 02:02:37 | 00:00:00 | |
| DK7TD | 2026-09-02 00:31:29 | 48.84339 | 10.07695 | 71° | 7km/h | 32057m | 5.7m/s | -40.6°C | 0% | 9.1hPa | 2.6V | 18:12:15 | 02:02:34 | 00:00:00 | |
| OE5WHR-10 | 2026-09-02 00:31:28 | 48.84338 | 10.07692 | 48° | 24km/h | 32052m | 4.3m/s | -40.5°C | 2.4% | 9.1hPa | 2.6V | 00:00:00 | 02:02:33 | 00:00:00 | |
| IW2NTF | 2026-09-02 00:31:27 | 48.84317 | 10.07637 | 66° | 33km/h | 32017m | 5.3m/s | -40.7°C | 2.5% | 9.2hPa | 2.6V | 08:30:00 | 02:02:27 | 00:00:00 | |
| DF8AY | 2026-09-02 00:31:23 | 48.84321 | 10.07649 | 65° | 38km/h | 32023m | 4.9m/s | -40.7°C | 0% | 9.2hPa | 2.6V | 18:12:15 | 02:02:28 | 00:00:00 | |
| DF1GD-15 | 2026-09-02 00:31:23 | 48.84325 | 10.07662 | 65° | 37km/h | 32028m | 6.2m/s | -40.7°C | 0.6% | 9.2hPa | 2.6V | 00:00:00 | 00:00:00 | 00:00:00 | |
| DM0DOS-11 | 2026-09-02 00:31:22 | 48.84314 | 10.07626 | 68° | 27km/h | 32012m | 6.1m/s | -40.7°C | 2.5% | 9.2hPa | 2.6V | 08:30:00 | 02:02:26 | 00:00:00 | |
| DL1XH-west | 2026-09-02 00:31:22 | 48.84317 | 10.07637 | 66° | 33km/h | 32017m | 5.4m/s | -40.7°C | 0% | 9.2hPa | 2.6V | 18:12:15 | 02:02:27 | 00:00:00 | |
| DK7TD | 2026-09-02 00:31:18 | 48.84313 | 10.07608 | 122° | 13km/h | 31994m | 5.7m/s | -40.7°C | 0% | 9.2hPa | 2.5V | 18:12:15 | 02:02:23 | 00:00:00 | |
| OE5MMP-10 | 2026-09-02 00:31:18 | 48.84313 | 10.07608 | 123° | 24km/h | 31995m | 5.6m/s | -40.6°C | 2.5% | 9.2hPa | 2.6V | 00:00:00 | 02:02:23 | 00:00:00 | |
| DF3TZ-5 | 2026-09-02 00:31:17 | 48.84317 | 10.07599 | 119° | 18km/h | 31982m | 5.9m/s | -40.7°C | 0.6% | 9.3hPa | 2.6V | 00:00:00 | 00:00:00 | 00:00:00 | |
| DM0DOS-11 | 2026-09-02 00:31:16 | 48.84311 | 10.07556 | 50° | 31km/h | 31952m | 6.2m/s | -40.7°C | 2.4% | 9.3hPa | 2.6V | 08:30:00 | 02:02:16 | 00:00:00 | |
| SONDE2-11 | 2026-09-02 00:31:16 | 48.84317 | 10.07599 | 119° | 18km/h | 31982m | 5.9m/s | -40.7°C | 0.6% | 9.3hPa | 2.6V | 00:00:00 | 00:00:00 | 00:00:00 | |
| IW2NTF | 2026-09-02 00:31:15 | 48.84315 | 10.07565 | 59° | 27km/h | 31959m | 7.2m/s | -40.7°C | 2.4% | 9.3hPa | 2.6V | 08:30:00 | 02:02:17 | 00:00:00 | |
| DO3MHA-12 | 2026-09-02 00:31:15 | 48.84319 | 10.07592 | 105° | 29km/h | 31977m | 4.9m/s | -40.6°C | 2.4% | 9.2hPa | 2.6V | 00:00:00 | 02:02:20 | 00:00:00 | |
| DK5PH-5 | 2026-09-02 00:31:14 | 48.84319 | 10.07583 | 88° | 26km/h | 31972m | 4.8m/s | -40.6°C | 2.5% | 9.2hPa | 2.6V | 00:00:00 | 02:02:19 | 00:00:00 | |
| DL1XH1-15 | 2026-09-02 00:31:13 | 48.84298 | 10.07526 | 65° | 33km/h | 31937m | 6.3m/s | -40.7°C | 2.4% | 9.3hPa | 2.6V | 08:30:00 | 02:02:13 | 00:00:00 | |
| DL1XH-west | 2026-09-02 00:31:12 | 48.84316 | 10.07565 | 59° | 27km/h | 31959m | 7.2m/s | -40.7°C | 0% | 9.3hPa | 2.6V | 18:12:15 | 02:02:17 | 00:00:00 | |
| DK7TD | 2026-09-02 00:31:08 | 48.84297 | 10.07526 | 66° | 33km/h | 31937m | 6.3m/s | -40.7°C | 0% | 9.3hPa | 2.6V | 18:12:15 | 02:02:13 | 00:00:00 | |
| OE5MMP-10 | 2026-09-02 00:31:08 | 48.84297 | 10.07526 | 66° | 22km/h | 31937m | 6.3m/s | -40.7°C | 2.4% | 9.3hPa | 2.6V | 00:00:00 | 02:02:13 | 00:00:00 | |
| OE5WHR-10 | 2026-09-02 00:31:07 | 48.84295 | 10.07514 | 81° | 24km/h | 31931m | 6.3m/s | -40.7°C | 2.4% | 9.3hPa | 2.6V | 00:00:00 | 00:00:00 | 00:00:00 | |
| DB0UT-7 | 2026-09-02 00:31:06 | 48.84296 | 10.07492 | 108° | 22km/h | 31919m | 5.2m/s | -40.8°C | 2.4% | 9.3hPa | 2.6V | 00:00:00 | 02:02:10 | 00:00:00 | |
| DO3MHA-12 | 2026-09-02 00:31:05 | 48.84296 | 10.07492 | 108° | 22km/h | 31919m | 5.2m/s | -40.8°C | 2.4% | 9.3hPa | 2.6V | 00:00:00 | 02:02:10 | 00:00:00 | |
| DG9SBQ-11 | 2026-09-02 00:31:04 | 48.84296 | 10.07492 | 109° | 27km/h | 31919m | 5.2m/s | -40.9°C | 0.6% | 9.3hPa | 2.6V | 00:00:00 | 00:00:00 | 00:00:00 | |
| DF1GD-15 | 2026-09-02 00:31:03 | 48.84298 | 10.07483 | 117° | 22km/h | 31914m | 5.4m/s | -41.0°C | 0.6% | 9.4hPa | 2.6V | 00:00:00 | 00:00:00 | 00:00:00 | |
| DL1XH1-15 | 2026-09-02 00:31:03 | 48.84290 | 10.07450 | 53° | 29km/h | 31878m | 5.8m/s | -41.2°C | 2.5% | 9.4hPa | 2.6V | 08:30:00 | 02:02:03 | 00:00:00 | |
| DM0DOS-11 | 2026-09-02 00:31:02 | 48.84301 | 10.07468 | 54° | 13km/h | 31896m | 5.8m/s | -41.1°C | 2.5% | 9.4hPa | 2.6V | 08:30:00 | 02:02:06 | 00:00:00 | |
| DL1XH-west | 2026-09-02 00:31:02 | 48.84301 | 10.07472 | 93° | 11km/h | 31902m | 5.9m/s | -41.1°C | 0% | 9.4hPa | 2.6V | 18:12:15 | 02:02:07 | 00:00:00 | |
| DF8AY | 2026-09-02 00:31:01 | 48.84301 | 10.07468 | 55° | 13km/h | 31896m | 5.8m/s | -41.1°C | 0% | 9.4hPa | 2.6V | 18:12:15 | 02:02:06 | 00:00:00 | |
| DK7TD | 2026-09-02 00:30:57 | 48.84286 | 10.07440 | 62° | 33km/h | 31873m | 5.6m/s | -41.2°C | 0% | 9.4hPa | 2.6V | 18:12:15 | 02:02:02 | 00:00:00 | |
| DF8AY-15 | 2026-09-02 00:30:57 | 48.84286 | 10.07440 | 62° | 24km/h | 31873m | 5.5m/s | -41.2°C | 2.5% | 9.4hPa | 2.6V | 00:00:00 | 02:02:02 | 08:30:00 | |
| DM0DOS-11 | 2026-09-02 00:30:56 | 48.84272 | 10.07382 | 56° | 20km/h | 31839m | 6.1m/s | -41.2°C | 2.5% | 9.4hPa | 2.6V | 08:30:00 | 02:01:56 | 00:00:00 | |
| DO9HM | 2026-09-02 00:30:56 | 48.84282 | 10.07428 | 70° | 33km/h | 31868m | 5.4m/s | -41.2°C | 0.6% | 9.4hPa | 2.6V | 00:00:00 | 00:00:00 | 00:00:00 | |
| DO3MHA-12 | 2026-09-02 00:30:55 | 48.84280 | 10.07417 | 76° | 26km/h | 31862m | 5.2m/s | -41.2°C | 2.5% | 9.4hPa | 2.6V | 00:00:00 | 02:02:00 | 00:00:00 | |
| DL1XH1-15 | 2026-09-02 00:30:53 | 48.84262 | 10.07362 | 59° | 24km/h | 31822m | 5.5m/s | -41.2°C | 2.5% | 9.4hPa | 2.6V | 08:30:00 | 02:01:53 | 00:00:00 | |
| DL1XH-west | 2026-09-02 00:30:51 | 48.84272 | 10.07382 | 57° | 20km/h | 31839m | 6.1m/s | -41.2°C | 0% | 9.4hPa | 2.6V | 18:12:15 | 02:01:56 | 00:00:00 | |
| DK7TD | 2026-09-02 00:30:47 | 48.84260 | 10.07353 | 69° | 27km/h | 31816m | 7m/s | -41.3°C | 0% | 9.5hPa | 2.6V | 18:12:15 | 02:01:52 | 00:00:00 | |
| DF3TZ-5 | 2026-09-02 00:30:46 | 48.84256 | 10.07332 | 80° | 29km/h | 31804m | 5.0m/s | -41.3°C | 0.6% | 9.5hPa | 2.6V | 00:00:00 | 00:00:00 | 00:00:00 | |
| DO3MHA-12 | 2026-09-02 00:30:45 | 48.84256 | 10.07332 | 81° | 18km/h | 31804m | 5.0m/s | -41.2°C | 2.5% | 9.5hPa | 2.6V | 00:00:00 | 02:01:50 | 08:30:00 | |
| DL1XH1-15 | 2026-09-02 00:30:43 | 48.84241 | 10.07288 | 58° | 11km/h | 31762m | 6.3m/s | -41.5°C | 2.5% | 9.6hPa | 2.6V | 08:30:00 | 02:01:43 | 00:00:00 | |
| DJ2DS-15 | 2026-09-02 00:30:43 | 48.84253 | 10.07312 | 71° | 24km/h | 31793m | 6.8m/s | -41.3°C | 0.6% | 9.5hPa | 2.6V | 00:00:00 | 00:00:00 | 00:00:00 | |
| DM0DOS-11 | 2026-09-02 00:30:42 | 48.84248 | 10.07299 | 45° | 16km/h | 31780m | 5.9m/s | -41.4°C | 2.5% | 9.5hPa | 2.6V | 08:30:00 | 02:01:46 | 00:00:00 | |
| DL1XH-west | 2026-09-02 00:30:41 | 48.84248 | 10.07299 | 45° | 16km/h | 31780m | 5.9m/s | -41.4°C | 0% | 9.5hPa | 2.6V | 18:12:15 | 02:01:46 | 00:00:00 | |
| DF8AY | 2026-09-02 00:30:40 | 48.84245 | 10.07295 | 39° | 15km/h | 31774m | 5.7m/s | -41.4°C | 0% | 9.6hPa | 2.6V | 18:12:15 | 02:01:45 | 00:00:00 | |
| DK7TD | 2026-09-02 00:30:37 | 48.84240 | 10.07284 | 71° | 13km/h | 31756m | 5.4m/s | -41.5°C | 0% | 9.6hPa | 2.7V | 18:12:15 | 02:01:42 | 00:00:00 | |
| DF8AY-15 | 2026-09-02 00:30:37 | 48.84240 | 10.07284 | 72° | 13km/h | 31757m | 5.4m/s | -41.5°C | 2.6% | 9.5hPa | 2.6V | 00:00:00 | 02:01:42 | 00:00:00 | |
| DG9SBQ-11 | 2026-09-02 00:30:36 | 48.84240 | 10.07284 | 72° | 13km/h | 31757m | 5.4m/s | -41.5°C | 0.6% | 9.6hPa | 2.6V | 00:00:00 | 00:00:00 | 00:00:00 | |
| DO3MHA-12 | 2026-09-02 00:30:35 | 48.84237 | 10.07273 | 65° | 18km/h | 31746m | 5.7m/s | -41.5°C | 2.5% | 9.5hPa | 2.6V | 00:00:00 | 02:01:40 | 00:00:00 | |
| NBG1-10 | 2026-09-02 00:30:34 | 48.84234 | 10.07267 | 56° | 13km/h | 31739m | 7.0m/s | -41.6°C | 2.6% | 9.5hPa | 2.6V | 00:00:00 | 02:01:39 | 00:00:00 | |
| DL1XH1-15 | 2026-09-02 00:30:33 | 48.84217 | 10.07225 | 75° | 16km/h | 31703m | 5.1m/s | -41.9°C | 2.6% | 9.7hPa | 2.6V | 08:30:00 | 02:01:33 | 00:00:00 | |
| DL1XH-west | 2026-09-02 00:30:30 | 48.84221 | 10.07239 | 64° | 22km/h | 31715m | 6.6m/s | -41.8°C | 0% | 9.7hPa | 2.6V | 18:12:15 | 02:01:35 | 00:00:00 | |
| DF8AY | 2026-09-02 00:30:28 | 48.84217 | 10.07225 | 76° | 16km/h | 31703m | 5.1m/s | -41.9°C | 0% | 9.7hPa | 2.6V | 18:12:15 | 02:01:33 | 00:00:00 | |
| DK7TD | 2026-09-02 00:30:26 | 48.84215 | 10.07215 | 55° | 9km/h | 31691m | 6.8m/s | -41.9°C | 0% | 9.7hPa | 2.6V | 18:12:15 | 02:01:31 | 00:00:00 | |
| DO3MHA-12 | 2026-09-02 00:30:25 | 48.84213 | 10.07213 | 28° | 7km/h | 31685m | 5.8m/s | -41.8°C | 2.6% | 9.6hPa | 2.6V | 00:00:00 | 02:01:30 | 00:00:00 | |
| DL1XH1-15 | 2026-09-02 00:30:23 | 48.84209 | 10.07204 | 42° | 11km/h | 31643m | 6.9m/s | -41.9°C | 2.6% | 9.7hPa | 2.6V | 08:30:00 | 02:01:23 | 00:00:00 | |
| OE5WHR-10 | 2026-09-02 00:30:23 | 48.84211 | 10.07212 | 14° | 11km/h | 31674m | 5.9m/s | -41.8°C | 2.6% | 9.7hPa | 2.7V | 00:00:00 | 02:01:28 | 00:00:00 | |
| DM0DOS-11 | 2026-09-02 00:30:22 | 48.84211 | 10.07210 | 115° | 4km/h | 31660m | 5.8m/s | -41.9°C | 2.6% | 9.7hPa | 2.7V | 08:30:00 | 02:01:26 | 00:00:00 | |
| DL1XH-west | 2026-09-02 00:30:20 | 48.84211 | 10.07209 | 95° | 5km/h | 31655m | 5m/s | -41.9°C | 0% | 9.7hPa | 2.6V | 18:12:15 | 02:01:25 | 00:00:00 | |
| DF8AY | 2026-09-02 00:30:18 | 48.84190 | 10.07165 | 67° | 18km/h | 31601m | 5.8m/s | -41.9°C | 0% | 9.8hPa | 2.6V | 18:12:15 | 02:01:16 | 00:00:00 | |
| SONCRA | 2026-09-02 00:30:18 | 48.84207 | 10.07200 | 33° | 15km/h | 31637m | 6.4m/s | -41.9°C | 0.6% | 9.8hPa | 2.6V | 00:00:00 | 00:00:00 | 00:00:00 | |
| DJ8HS-15 | 2026-09-02 00:30:17 | 48.84206 | 10.07200 | 34° | 15km/h | 31637m | 6.3m/s | -41.8°C | 2.6% | 9.7hPa | 2.6V | 00:00:00 | 02:01:22 | 00:00:00 | |
| DM0DOS-11 | 2026-09-02 00:30:16 | 48.84190 | 10.07164 | 66° | 18km/h | 31601m | 5.8m/s | -41.9°C | 2.6% | 9.8hPa | 2.6V | 08:30:00 | 02:01:16 | 00:00:00 | |
| DK7TD | 2026-09-02 00:30:16 | 48.84199 | 10.07192 | 45° | 20km/h | 31625m | 5.7m/s | -41.9°C | 0% | 9.8hPa | 2.6V | 18:12:15 | 02:01:20 | 00:00:00 | |
| DG9SBQ-11 | 2026-09-02 00:30:16 | 48.84203 | 10.07197 | 38° | 20km/h | 31631m | 5.5m/s | -41.9°C | 0.6% | 9.8hPa | 2.6V | 00:00:00 | 00:00:00 | 00:00:00 | |
| DF3TZ-5 | 2026-09-02 00:30:15 | 48.84196 | 10.07186 | 54° | 20km/h | 31619m | 6.8m/s | -41.9°C | 0.6% | 9.8hPa | 2.6V | 00:00:00 | 00:00:00 | 00:00:00 | |
| DK5PH-5 | 2026-09-02 00:30:14 | 48.84196 | 10.07186 | 55° | 13km/h | 31619m | 6.8m/s | -41.9°C | 2.6% | 9.7hPa | 2.6V | 00:00:00 | 02:01:19 | 00:00:00 | |
| DL1XH1-15 | 2026-09-02 00:30:13 | 48.84182 | 10.07151 | 37° | 13km/h | 31583m | 5.2m/s | -42.1°C | 2.6% | 9.8hPa | 2.6V | 08:30:00 | 02:01:13 | 00:00:00 | |
| DL1XH-west | 2026-09-02 00:30:09 | 48.84185 | 10.07154 | 44° | 15km/h | 31588m | 6.1m/s | -42°C | 0% | 9.8hPa | 2.7V | 18:12:15 | 02:01:14 | 00:00:00 | |
| DK7TD | 2026-09-02 00:30:04 | 48.84178 | 10.07140 | 82° | 7km/h | 31559m | 5.3m/s | -42.3°C | 0% | 9.9hPa | 2.7V | 18:12:15 | 02:01:09 | 00:00:00 | |
| DL1XH1-15 | 2026-09-02 00:30:03 | 48.84163 | 10.07117 | 55° | 20km/h | 31525m | 5.5m/s | -42.2°C | 2.7% | 9.9hPa | 2.6V | 08:30:00 | 02:01:03 | 00:00:00 | |
| DM0DOS-11 | 2026-09-02 00:30:02 | 48.84174 | 10.07131 | 35° | 15km/h | 31541m | 6.2m/s | -42.2°C | 2.7% | 9.9hPa | 2.6V | 08:30:00 | 02:01:06 | 00:00:00 | |
| DF8AY | 2026-09-02 00:30:01 | 48.84170 | 10.07127 | 35° | 18km/h | 31535m | 5.2m/s | -42.2°C | 0% | 9.9hPa | 2.6V | 18:12:15 | 02:01:05 | 00:00:00 | |
| DL1XH-west | 2026-09-02 00:29:59 | 48.84166 | 10.07123 | 42° | 20km/h | 31530m | 4.8m/s | -42.2°C | 0% | 9.9hPa | 2.7V | 18:12:15 | 02:01:04 | 00:00:00 | |
| DK7TD | 2026-09-02 00:29:54 | 48.84162 | 10.07088 | 102° | 18km/h | 31501m | 4.5m/s | -42.1°C | 0% | 9.9hPa | 2.7V | 18:12:15 | 02:00:59 | 00:00:00 | |
| OE5DRO-10 | 2026-09-02 00:29:53 | 48.84162 | 10.07082 | 94° | 15km/h | 31496m | 5.9m/s | -42.0°C | 2.6% | 9.9hPa | 2.6V | 00:00:00 | 00:00:00 | 00:00:00 | |
| DM0DOS-11 | 2026-09-02 00:29:52 | 48.84160 | 10.07076 | 15° | 9km/h | 31483m | 5.9m/s | -42°C | 2.7% | 10hPa | 2.6V | 08:30:00 | 02:00:56 | 00:00:00 | |
| DL1XH-west | 2026-09-02 00:29:49 | 48.84156 | 10.07077 | 338° | 9km/h | 31472m | 5.5m/s | -42°C | 0% | 10hPa | 2.7V | 18:12:15 | 02:00:54 | 00:00:00 | |
| AU51GT2 | 2026-09-02 00:29:47 | 48.84153 | 10.07078 | 42° | 2km/h | 31460m | 6.1m/s | -42.0°C | 0.7% | 10.0hPa | 2.6V | 00:00:00 | 00:00:00 | 00:00:00 | |
| SONCRA | 2026-09-02 00:29:46 | 48.84153 | 10.07077 | 101° | 5km/h | 31454m | 5.7m/s | -42.0°C | 0.7% | 10.0hPa | 2.6V | 00:00:00 | 00:00:00 | 00:00:00 | |
| DO3MHA-12 | 2026-09-02 00:29:45 | 48.84153 | 10.07073 | 98° | 22km/h | 31449m | 5.6m/s | -41.9°C | 2.6% | 10.0hPa | 2.6V | 00:00:00 | 02:00:50 | 00:00:00 | |
| DK5PH-5 | 2026-09-02 00:29:44 | 48.84154 | 10.07066 | 88° | 18km/h | 31443m | 6.0m/s | -41.9°C | 2.6% | 10.0hPa | 2.7V | 00:00:00 | 02:00:49 | 08:30:00 | |
| DL1XH1-15 | 2026-09-02 00:29:43 | 48.84145 | 10.07010 | 92° | 20km/h | 31405m | 6.5m/s | -41.8°C | 2.6% | 10.1hPa | 2.7V | 08:30:00 | 02:00:43 | 00:00:00 | |
| DK7TD | 2026-09-02 00:29:43 | 48.84153 | 10.07058 | 78° | 24km/h | 31436m | 7.4m/s | -41.9°C | 0% | 10hPa | 2.6V | 18:12:15 | 02:00:48 | 00:00:00 | |
| IW2NTF | 2026-09-02 00:29:42 | 48.84149 | 10.07038 | 70° | 29km/h | 31423m | 5.1m/s | -41.9°C | 2.6% | 10.1hPa | 2.6V | 08:30:00 | 02:00:46 | 00:00:00 | |
| DF8AY | 2026-09-02 00:29:39 | 48.84145 | 10.07018 | 81° | 24km/h | 31412m | 6.7m/s | -41.8°C | 0% | 10.1hPa | 2.6V | 18:12:15 | 02:00:44 | 00:00:00 | |
| DL1XH-west | 2026-09-02 00:29:38 | 48.84145 | 10.07010 | 93° | 20km/h | 31405m | 6.5m/s | -41.8°C | 0% | 10.1hPa | 2.7V | 18:12:15 | 02:00:43 | 00:00:00 | |
| OE5MMP-10 | 2026-09-02 00:29:38 | 48.84145 | 10.07010 | 93° | 11km/h | 31406m | 6.4m/s | -41.8°C | 2.6% | 10.0hPa | 2.7V | 00:00:00 | 02:00:43 | 00:00:00 | |
| DJ8HS-15 | 2026-09-02 00:29:37 | 48.84145 | 10.07003 | 106° | 15km/h | 31400m | 5.8m/s | -41.8°C | 2.6% | 10.0hPa | 2.7V | 00:00:00 | 02:00:42 | 00:00:00 | |
| DF8AY-15 | 2026-09-02 00:29:36 | 48.84147 | 10.06999 | 111° | 15km/h | 31394m | 5.7m/s | 0°C | 0% | 0hPa | 2.7V | 00:00:00 | 02:00:41 | 00:00:00 | |
| DO3MHA-12 | 2026-09-02 00:29:35 | 48.84147 | 10.06996 | 97° | 15km/h | 31388m | 6.5m/s | -41.8°C | 2.6% | 10.1hPa | 2.7V | 00:00:00 | 02:00:40 | 00:00:00 | |
| DL1XH1-15 | 2026-09-02 00:29:34 | 48.84143 | 10.06970 | 94° | 24km/h | 31346m | 5.5m/s | -42°C | 2.6% | 10.2hPa | 2.7V | 08:30:00 | 02:00:33 | 00:00:00 | |
| DM0DOS-11 | 2026-09-02 00:29:33 | 48.84143 | 10.06990 | 65° | 9km/h | 31365m | 6.2m/s | -42°C | 2.6% | 10.1hPa | 2.6V | 08:30:00 | 02:00:36 | 00:00:00 | |
| DK7TD | 2026-09-02 00:29:32 | 48.84144 | 10.06993 | 41° | 7km/h | 31370m | 4.5m/s | -42°C | 0% | 10.1hPa | 2.6V | 18:12:15 | 02:00:37 | 00:00:00 | |
| DF8AY | 2026-09-02 00:29:29 | 48.84142 | 10.06978 | 95° | 20km/h | 31352m | 6.2m/s | -42°C | 0% | 10.2hPa | 2.6V | 18:12:15 | 02:00:34 | 00:00:00 | |
| DL1XH-west | 2026-09-02 00:29:27 | 48.84143 | 10.06960 | 88° | 26km/h | 31341m | 5.3m/s | -42°C | 0% | 10.2hPa | 2.6V | 18:12:15 | 02:00:32 | 00:00:00 | |
| DG9SBQ-11 | 2026-09-02 00:29:26 | 48.84143 | 10.06960 | 89° | 26km/h | 31341m | 5.3m/s | -42.0°C | 0.7% | 10.2hPa | 2.6V | 00:00:00 | 00:00:00 | 00:00:00 | |
| DO3MHA-12 | 2026-09-02 00:29:25 | 48.84140 | 10.06941 | 70° | 16km/h | 31329m | 5.9m/s | -42.0°C | 2.7% | 10.2hPa | 2.6V | 00:00:00 | 02:00:30 | 00:00:00 | |
| IW2NTF | 2026-09-02 00:29:22 | 48.84133 | 10.06916 | 83° | 13km/h | 31305m | 6.6m/s | -42.1°C | 2.7% | 10.2hPa | 2.6V | 08:30:00 | 02:00:26 | 00:00:00 | |
| DK7TD | 2026-09-02 00:29:21 | 48.84133 | 10.06916 | 84° | 13km/h | 31305m | 6.6m/s | -42.1°C | 0% | 10.2hPa | 2.6V | 18:12:15 | 02:00:26 | 00:00:00 | |
| DF8AY | 2026-09-02 00:29:18 | 48.84121 | 10.06867 | 73° | 26km/h | 31257m | 6.9m/s | -42.1°C | 0% | 10.3hPa | 2.6V | 18:12:15 | 02:00:18 | 00:00:00 | |
| DL1XH-west | 2026-09-02 00:29:17 | 48.84129 | 10.06890 | 54° | 20km/h | 31275m | 6.1m/s | -42.1°C | 0% | 10.3hPa | 2.6V | 18:12:15 | 02:00:21 | 00:00:00 | |
| DF8AY-15 | 2026-09-02 00:29:16 | 48.84129 | 10.06890 | 55° | 22km/h | 31275m | 6.0m/s | 0°C | 0% | 0hPa | 2.6V | 00:00:00 | 02:00:21 | 00:00:00 | |
| DM0DOS-11 | 2026-09-02 00:29:15 | 48.84119 | 10.06847 | 87° | 26km/h | 31245m | 5.1m/s | -42.1°C | 2.6% | 10.3hPa | 2.6V | 08:30:00 | 02:00:16 | 00:00:00 | |
| OE5DRO-10 | 2026-09-02 00:29:15 | 48.84126 | 10.06884 | 56° | 22km/h | 31269m | 5.5m/s | -42.1°C | 2.6% | 10.3hPa | 2.6V | 00:00:00 | 00:00:00 | 00:00:00 | |
| DL1XH1-15 | 2026-09-02 00:29:14 | 48.84117 | 10.06823 | 66° | 16km/h | 31226m | 6.3m/s | -42.1°C | 2.6% | 10.4hPa | 2.6V | 08:30:00 | 02:00:13 | 00:00:00 | |
| DK7TD | 2026-09-02 00:29:11 | 48.84119 | 10.06847 | 87° | 26km/h | 31245m | 5.1m/s | -42.1°C | 0% | 10.3hPa | 2.6V | 18:12:15 | 02:00:16 | 00:00:00 | |
| DL1XH-west | 2026-09-02 00:29:06 | 48.84113 | 10.06813 | 60° | 15km/h | 31215m | 5.3m/s | -42.1°C | 0% | 10.4hPa | 2.6V | 18:12:15 | 02:00:11 | 00:00:00 | |
| DO3MHA-12 | 2026-09-02 00:29:05 | 48.84111 | 10.06808 | 70° | 22km/h | 31210m | 6.5m/s | -42.1°C | 2.6% | 10.4hPa | 2.6V | 00:00:00 | 02:00:10 | 00:00:00 | |
| DG9SBQ-11 | 2026-09-02 00:29:04 | 48.84111 | 10.06808 | 71° | 15km/h | 31210m | 6.5m/s | -42.1°C | 0.6% | 10.4hPa | 2.6V | 00:00:00 | 00:00:00 | 00:00:00 | |
| DL1XH1-15 | 2026-09-02 00:29:03 | 48.84100 | 10.06752 | 56° | 24km/h | 31167m | 5.3m/s | -42.3°C | 2.7% | 10.5hPa | 2.6V | 08:30:00 | 02:00:03 | 00:00:00 | |
| DF8AY | 2026-09-02 00:29:03 | 48.84109 | 10.06787 | 84° | 24km/h | 31191m | 5.1m/s | -42.2°C | 0% | 10.4hPa | 2.6V | 18:12:15 | 02:00:07 | 00:00:00 | |
| DM0DOS-11 | 2026-09-02 00:29:03 | 48.84108 | 10.06778 | 77° | 24km/h | 31186m | 5.6m/s | -42.2°C | 2.6% | 10.4hPa | 2.6V | 08:30:00 | 02:00:06 | 00:00:00 | |
| DK7TD | 2026-09-02 00:29:00 | 48.84106 | 10.06769 | 67° | 26km/h | 31180m | 7.1m/s | -42.2°C | 0% | 10.4hPa | 2.7V | 18:12:15 | 02:00:05 | 00:00:00 | |
| DL1XH-west | 2026-09-02 00:28:56 | 48.84094 | 10.06722 | 99° | 18km/h | 31143m | 5.6m/s | -42.4°C | 0% | 10.5hPa | 2.6V | 18:12:15 | 01:59:59 | 00:00:00 | |
| IW2NTF | 2026-09-02 00:28:55 | 48.84095 | 10.06707 | 73° | 9km/h | 31125m | 6.9m/s | -42.5°C | 2.7% | 10.5hPa | 2.6V | 08:30:00 | 01:59:56 | 00:00:00 | |
| DF8AY | 2026-09-02 00:28:52 | 48.84086 | 10.06682 | 77° | 26km/h | 31094m | 6.4m/s | -42.6°C | 0% | 10.6hPa | 2.6V | 18:12:15 | 01:59:51 | 00:00:00 | |
| DK7TD | 2026-09-02 00:28:50 | 48.84094 | 10.06703 | 47° | 11km/h | 31119m | 5.6m/s | -42.5°C | 0% | 10.6hPa | 2.6V | 18:12:15 | 01:59:55 | 00:00:00 | |
| AU51GT2 | 2026-09-02 00:28:46 | 48.84084 | 10.06671 | 81° | 27km/h | 31089m | 5.2m/s | -42.6°C | 0.6% | 10.6hPa | 2.6V | 00:00:00 | 00:00:00 | 00:00:00 | |
| SONCRA | 2026-09-02 00:28:44 | 48.84083 | 10.06660 | 80° | 29km/h | 31084m | 4.5m/s | -42.6°C | 0.7% | 10.6hPa | 2.6V | 00:00:00 | 00:00:00 | 00:00:00 | |
| DL1XH-west | 2026-09-02 00:28:43 | 48.84082 | 10.06649 | 75° | 29km/h | 31078m | 5.9m/s | -42.6°C | 0% | 10.6hPa | 2.6V | 18:12:15 | 01:59:48 | 00:00:00 | |
| IW2NTF | 2026-09-02 00:28:42 | 48.84077 | 10.06631 | 58° | 22km/h | 31065m | 6.5m/s | -42.7°C | 2.7% | 10.6hPa | 2.6V | 08:30:00 | 01:59:46 | 00:00:00 | |
| DL1XH1-15 | 2026-09-02 00:28:41 | 48.84069 | 10.06614 | 62° | 13km/h | 31046m | 6.7m/s | -42.7°C | 2.7% | 10.7hPa | 2.6V | 08:30:00 | 01:59:43 | 00:00:00 | |
| DK7TD | 2026-09-02 00:28:39 | 48.84072 | 10.06619 | 55° | 16km/h | 31052m | 6.4m/s | -42.7°C | 0% | 10.6hPa | 2.6V | 18:12:15 | 01:59:44 | 00:00:00 | |
| OE5MMP-10 | 2026-09-02 00:28:38 | 48.84069 | 10.06614 | 63° | 16km/h | 31046m | 6.6m/s | -42.6°C | 2.7% | 10.6hPa | 2.6V | 00:00:00 | 01:59:43 | 00:00:00 | |
| OE5WHR-10 | 2026-09-02 00:28:37 | 48.84068 | 10.06610 | 71° | 16km/h | 31040m | 5.5m/s | -42.6°C | 2.7% | 10.6hPa | 2.6V | 00:00:00 | 00:00:00 | 00:00:00 | |
| IW2NTF | 2026-09-02 00:28:36 | 48.84053 | 10.06593 | 39° | 22km/h | 31005m | 5.8m/s | -42.6°C | 2.7% | 10.7hPa | 2.6V | 08:30:00 | 01:59:36 | 00:00:00 | |
| AZAK | 2026-09-02 00:28:35 | 48.84066 | 10.06603 | 50° | 9km/h | 31030m | 5.8m/s | -42.6°C | 0.7% | 10.7hPa | 2.6V | 00:00:00 | 00:00:00 | 00:00:00 | |
| DL1XH1-15 | 2026-09-02 00:28:33 | 48.84042 | 10.06569 | 62° | 29km/h | 30986m | 5.1m/s | -42.6°C | 2.7% | 10.8hPa | 2.6V | 08:30:00 | 01:59:33 | 00:00:00 | |
| DL1XH-west | 2026-09-02 00:28:32 | 48.84058 | 10.06597 | 28° | 18km/h | 31011m | 5.7m/s | -42.6°C | 0% | 10.7hPa | 2.7V | 18:12:15 | 01:59:37 | 00:00:00 | |
| DK7TD | 2026-09-02 00:28:28 | 48.84042 | 10.06569 | 63° | 29km/h | 30986m | 5.1m/s | -42.6°C | 0% | 10.8hPa | 2.6V | 18:12:15 | 01:59:33 | 00:00:00 | |
| OE5MMP-10 | 2026-09-02 00:28:28 | 48.84042 | 10.06569 | 63° | 18km/h | 30986m | 5.1m/s | -42.5°C | 2.7% | 10.7hPa | 2.6V | 00:00:00 | 01:59:33 | 00:00:00 | |
| DF7PN | 2026-09-02 00:28:27 | 48.84035 | 10.06552 | 50° | 24km/h | 30975m | 6.7m/s | -42.6°C | 0.7% | 10.8hPa | 2.6V | 00:00:00 | 00:00:00 | 00:00:00 | |
| DL6DJ-15 | 2026-09-02 00:28:26 | 48.84031 | 10.06546 | 35° | 18km/h | 30968m | 6.7m/s | -42.5°C | 0.6% | 10.8hPa | 2.6V | 00:00:00 | 00:00:00 | 00:00:00 | |
| DO3MHA-12 | 2026-09-02 00:28:25 | 48.84031 | 10.06546 | 36° | 16km/h | 30968m | 6.7m/s | -42.5°C | 2.7% | 10.7hPa | 2.6V | 00:00:00 | 01:59:30 | 00:00:00 | |
| DL1XH1-15 | 2026-09-02 00:28:23 | 48.84008 | 10.06538 | 7° | 18km/h | 30925m | 6.7m/s | -42.6°C | 2.7% | 10.8hPa | 2.6V | 08:30:00 | 01:59:23 | 00:00:00 | |
| IW2NTF | 2026-09-02 00:28:23 | 48.84018 | 10.06540 | 8° | 11km/h | 30943m | 5.9m/s | -42.6°C | 2.7% | 10.8hPa | 2.6V | 08:30:00 | 01:59:26 | 00:00:00 | |
| DL1XH-west | 2026-09-02 00:28:21 | 48.84018 | 10.06540 | 8° | 11km/h | 30943m | 5.9m/s | -42.6°C | 0% | 10.8hPa | 2.6V | 18:12:15 | 01:59:26 | 00:00:00 | |
| DF8AY | 2026-09-02 00:28:18 | 48.84008 | 10.06538 | 8° | 18km/h | 30925m | 6.7m/s | -42.6°C | 0% | 10.8hPa | 2.6V | 18:12:15 | 01:59:23 | 00:00:00 | |
| DK7TD | 2026-09-02 00:28:17 | 48.84003 | 10.06536 | 15° | 22km/h | 30919m | 5.8m/s | -42.6°C | 0% | 10.9hPa | 2.6V | 18:12:15 | 01:59:22 | 00:00:00 | |
| DJ8HS-15 | 2026-09-02 00:28:17 | 48.84003 | 10.06536 | 16° | 22km/h | 30919m | 5.7m/s | -42.5°C | 2.7% | 10.8hPa | 2.6V | 00:00:00 | 01:59:22 | 00:00:00 | |
| OE5WHR-10 | 2026-09-02 00:28:16 | 48.83998 | 10.06533 | 29° | 20km/h | 30914m | 5.0m/s | -42.5°C | 2.7% | 10.8hPa | 2.6V | 00:00:00 | 01:59:21 | 00:00:00 | |
| IW2NTF | 2026-09-02 00:28:15 | 48.83978 | 10.06488 | 64° | 26km/h | 30884m | 5.5m/s | -42.4°C | 2.7% | 10.9hPa | 2.6V | 08:30:00 | 01:59:16 | 00:00:00 | |
| DO3MHA-12 | 2026-09-02 00:28:15 | 48.83992 | 10.06527 | 43° | 20km/h | 30908m | 6.2m/s | -42.5°C | 2.7% | 10.8hPa | 2.6V | 00:00:00 | 01:59:20 | 00:00:00 | |
| DK5PH-5 | 2026-09-02 00:28:14 | 48.83988 | 10.06519 | 55° | 22km/h | 30901m | 7.3m/s | -42.5°C | 2.7% | 10.9hPa | 2.7V | 00:00:00 | 01:59:19 | 00:00:00 | |
| DL1XH1-15 | 2026-09-02 00:28:13 | 48.83969 | 10.06475 | 358° | 11km/h | 30865m | 5.9m/s | -42.3°C | 2.7% | 11hPa | 2.6V | 08:30:00 | 01:59:13 | 00:00:00 | |
| DL1XH-west | 2026-09-02 00:28:10 | 48.83975 | 10.06481 | 55° | 20km/h | 30878m | 6.5m/s | -42.4°C | 0% | 10.9hPa | 2.6V | 18:12:15 | 01:59:15 | 00:00:00 | |
| DF8AY | 2026-09-02 00:28:07 | 48.83961 | 10.06477 | 29° | 9km/h | 30841m | 5.7m/s | -42.3°C | 0% | 11hPa | 2.7V | 18:12:15 | 01:59:09 | 00:00:00 | |
| DK7TD | 2026-09-02 00:28:07 | 48.83967 | 10.06476 | 337° | 11km/h | 30859m | 5.5m/s | -42.3°C | 0% | 11hPa | 2.6V | 18:12:15 | 01:59:12 | 00:00:00 | |
| DO3MHA-12 | 2026-09-02 00:28:05 | 48.83962 | 10.06478 | 357° | 22km/h | 30848m | 6.4m/s | -42.2°C | 2.7% | 10.9hPa | 2.6V | 00:00:00 | 01:59:10 | 00:00:00 | |
| DL1XH1-15 | 2026-09-02 00:28:03 | 48.83930 | 10.06451 | 33° | 33km/h | 30804m | 6.6m/s | -42.5°C | 2.7% | 11hPa | 2.6V | 08:30:00 | 01:59:03 | 00:00:00 | |
| IW2NTF | 2026-09-02 00:28:02 | 48.83950 | 10.06468 | 26° | 24km/h | 30823m | 7.1m/s | -42.3°C | 2.7% | 11hPa | 2.6V | 08:30:00 | 01:59:06 | 00:00:00 | |
| DL1XH-west | 2026-09-02 00:27:59 | 48.83938 | 10.06458 | 29° | 33km/h | 30810m | 5.6m/s | -42.5°C | 0% | 11hPa | 2.6V | 18:12:15 | 01:59:04 | 00:00:00 | |
| DK7TD | 2026-09-02 00:27:57 | 48.83924 | 10.06444 | 37° | 33km/h | 30798m | 6m/s | -42.5°C | 0% | 11.1hPa | 2.6V | 18:12:15 | 01:59:02 | 00:00:00 | |
| DJ8HS-15 | 2026-09-02 00:27:57 | 48.83923 | 10.06444 | 38° | 24km/h | 30799m | 6.0m/s | -42.4°C | 2.7% | 11.0hPa | 2.6V | 00:00:00 | 01:59:02 | 00:00:00 | |
| PG1ADW-2 | 2026-09-02 00:27:56 | 48.83918 | 10.06437 | 37° | 24km/h | 30793m | 4.7m/s | -42.4°C | 2.7% | 11.0hPa | 2.6V | 00:00:00 | 01:59:01 | 00:00:00 | |
| DO3MHA-12 | 2026-09-02 00:27:55 | 48.83912 | 10.06432 | 27° | 18km/h | 30788m | 5.0m/s | -42.4°C | 2.7% | 11.0hPa | 2.6V | 00:00:00 | 01:59:00 | 00:00:00 | |
| OE5WHR-10 | 2026-09-02 00:27:54 | 48.83908 | 10.06430 | 7° | 22km/h | 30782m | 6.7m/s | -42.5°C | 2.7% | 11.1hPa | 2.6V | 00:00:00 | 00:00:00 | 00:00:00 | |
| DL1XH1-15 | 2026-09-02 00:27:53 | 48.83888 | 10.06450 | 18° | 15km/h | 30746m | 6.8m/s | -42.4°C | 2.7% | 11.2hPa | 2.7V | 08:30:00 | 01:58:53 | 00:00:00 | |
| DL1XH-west | 2026-09-02 00:27:49 | 48.83891 | 10.06450 | 339° | 13km/h | 30753m | 6.4m/s | -42.5°C | 0% | 11.2hPa | 2.6V | 18:12:15 | 01:58:54 | 00:00:00 | |
| DK7TD | 2026-09-02 00:27:46 | 48.83879 | 10.06440 | 38° | 29km/h | 30734m | 5.7m/s | -42.4°C | 0% | 11.2hPa | 2.6V | 18:12:15 | 01:58:51 | 00:00:00 | |
| DO3MHA-12 | 2026-09-02 00:27:45 | 48.83873 | 10.06434 | 33° | 26km/h | 30729m | 5.9m/s | -42.3°C | 2.6% | 11.1hPa | 2.6V | 00:00:00 | 01:58:50 | 08:30:00 | |
| DK5PH-5 | 2026-09-02 00:27:44 | 48.83865 | 10.06427 | 25° | 24km/h | 30723m | 6.5m/s | -42.3°C | 2.6% | 11.2hPa | 2.7V | 00:00:00 | 01:58:49 | 00:00:00 | |
| DL1XH1-15 | 2026-09-02 00:27:43 | 48.83821 | 10.06426 | 352° | 18km/h | 30687m | 5.8m/s | -42.4°C | 2.7% | 11.3hPa | 2.7V | 08:30:00 | 01:58:43 | 00:00:00 | |
| IW2NTF | 2026-09-02 00:27:43 | 48.83840 | 10.06422 | 354° | 31km/h | 30704m | 5.3m/s | -42.3°C | 2.6% | 11.2hPa | 2.6V | 08:30:00 | 01:58:46 | 00:00:00 | |
| DL1XH-west | 2026-09-02 00:27:38 | 48.83821 | 10.06426 | 353° | 18km/h | 30687m | 5.8m/s | -42.4°C | 0% | 11.3hPa | 2.7V | 18:12:15 | 01:58:43 | 00:00:00 | |
| DK7TD | 2026-09-02 00:27:35 | 48.83812 | 10.06427 | 0° | 7km/h | 30670m | 6.8m/s | -42.5°C | 0% | 11.3hPa | 2.6V | 18:12:15 | 01:58:40 | 00:00:00 | |
| DO3MHA-12 | 2026-09-02 00:27:35 | 48.83812 | 10.06427 | 1° | 15km/h | 30670m | 6.7m/s | -42.5°C | 2.7% | 11.3hPa | 2.6V | 00:00:00 | 01:58:40 | 00:00:00 | |
| IW2NTF | 2026-09-02 00:27:34 | 48.83803 | 10.06421 | 41° | 16km/h | 30646m | 7.1m/s | -42.6°C | 2.7% | 11.3hPa | 2.6V | 08:30:00 | 01:58:36 | 00:00:00 | |
| DF1GD-15 | 2026-09-02 00:27:34 | 48.83812 | 10.06427 | 1° | 7km/h | 30670m | 6.8m/s | -42.5°C | 0.7% | 11.3hPa | 2.6V | 00:00:00 | 00:00:00 | 00:00:00 | |
| OE5WHR-10 | 2026-09-02 00:27:33 | 48.83808 | 10.06426 | 14° | 11km/h | 30658m | 5.1m/s | -42.5°C | 2.7% | 11.3hPa | 2.6V | 00:00:00 | 00:00:00 | 00:00:00 | |
| DG9SBQ-11 | 2026-09-02 00:27:31 | 48.83806 | 10.06425 | 32° | 13km/h | 30653m | 5.6m/s | -42.6°C | 0.7% | 11.3hPa | 2.6V | 00:00:00 | 00:00:00 | 00:00:00 | |
| DL1XH1-15 | 2026-09-02 00:27:30 | 48.83791 | 10.06408 | 23° | 18km/h | 30629m | 6m/s | -42.6°C | 2.7% | 11.3hPa | 2.6V | 08:30:00 | 01:58:33 | 00:00:00 | |
| DL1XH-west | 2026-09-02 00:27:28 | 48.83791 | 10.06408 | 23° | 20km/h | 30629m | 6m/s | -42.6°C | 0% | 11.4hPa | 2.6V | 18:12:15 | 01:58:33 | 00:00:00 | |
| DK7TD | 2026-09-02 00:27:24 | 48.83777 | 10.06412 | 321° | 11km/h | 30606m | 5.6m/s | -42.6°C | 0% | 11.4hPa | 2.6V | 18:12:15 | 01:58:29 | 00:00:00 | |
| DL6DJ-15 | 2026-09-02 00:27:24 | 48.83775 | 10.06414 | 329° | 5km/h | 30600m | 6.4m/s | -42.6°C | 0.7% | 11.4hPa | 2.6V | 00:00:00 | 00:00:00 | 00:00:00 | |
| DL1XH1-15 | 2026-09-02 00:27:23 | 48.83773 | 10.06405 | 76° | 5km/h | 30570m | 6.4m/s | -42.5°C | 2.7% | 11.4hPa | 2.6V | 08:30:00 | 01:58:23 | 00:00:00 | |
| IW2NTF | 2026-09-02 00:27:23 | 48.83773 | 10.06413 | 86° | 7km/h | 30588m | 5.7m/s | -42.6°C | 2.7% | 11.4hPa | 2.6V | 08:30:00 | 01:58:26 | 00:00:00 | |
| DL1XH-west | 2026-09-02 00:27:17 | 48.83773 | 10.06403 | 67° | 5km/h | 30564m | 5.2m/s | -42.5°C | 0% | 11.5hPa | 2.7V | 18:12:15 | 01:58:22 | 00:00:00 | |
| DK7TD | 2026-09-02 00:27:14 | 48.83771 | 10.06394 | 81° | 11km/h | 30546m | 6.6m/s | -42.4°C | 0% | 11.5hPa | 2.6V | 18:12:15 | 01:58:19 | 00:00:00 | |
| DL1XH1-15 | 2026-09-02 00:27:13 | 48.83770 | 10.06386 | 258° | 7km/h | 30511m | 5.3m/s | -42.4°C | 2.6% | 11.5hPa | 2.6V | 08:30:00 | 01:58:13 | 00:00:00 | |
| DL1XH-west | 2026-09-02 00:27:06 | 48.83771 | 10.06389 | 176° | 5km/h | 30500m | 6.5m/s | -42.5°C | 0% | 11.6hPa | 2.6V | 18:12:15 | 01:58:11 | 00:00:00 | |
| DO3MHA-12 | 2026-09-02 00:27:05 | 48.83773 | 10.06387 | 137° | 7km/h | 30494m | 5.7m/s | -42.5°C | 2.6% | 11.5hPa | 2.6V | 00:00:00 | 01:58:10 | 00:00:00 | |
| DL1XH1-15 | 2026-09-02 00:27:03 | 48.83776 | 10.06371 | 340° | 0km/h | 30454m | 5.7m/s | -43°C | 2.7% | 11.7hPa | 2.6V | 08:30:00 | 01:58:03 | 00:00:00 | |
| DK7TD | 2026-09-02 00:27:03 | 48.83776 | 10.06380 | 113° | 13km/h | 30484m | 5.2m/s | -42.7°C | 0% | 11.6hPa | 2.6V | 18:12:15 | 01:58:08 | 00:00:00 | |
| DF8AY | 2026-09-02 00:26:56 | 48.83777 | 10.06370 | 131° | 5km/h | 30443m | 5.9m/s | -43.1°C | 0% | 11.7hPa | 2.7V | 18:12:15 | 01:58:01 | 00:00:00 | |
| DM0DOS-11 | 2026-09-02 00:26:56 | 48.83788 | 10.06364 | 169° | 15km/h | 30414m | 5.4m/s | -43.3°C | 2.7% | 11.7hPa | 2.6V | 08:30:00 | 01:57:56 | 00:00:00 | |
| DL1XH-west | 2026-09-02 00:26:55 | 48.83779 | 10.06368 | 140° | 7km/h | 30437m | 5.4m/s | -43.1°C | 0% | 11.7hPa | 2.6V | 18:12:15 | 01:58:00 | 00:00:00 | |
| DK7TD | 2026-09-02 00:26:53 | 48.83782 | 10.06365 | 166° | 9km/h | 30425m | 6.3m/s | -43.2°C | 0% | 11.7hPa | 2.6V | 18:12:15 | 01:57:58 | 00:00:00 | |
| DL6DJ-15 | 2026-09-02 00:26:53 | 48.83785 | 10.06365 | 173° | 11km/h | 30419m | 5.3m/s | -43.2°C | 0.7% | 11.7hPa | 2.6V | 00:00:00 | 00:00:00 | 00:00:00 | |
| EDDB2-11 | 2026-09-02 00:26:50 | 48.83797 | 10.06360 | 162° | 22km/h | 30401m | 5.9m/s | -43.3°C | 0.7% | 11.8hPa | 2.6V | 00:00:00 | 00:00:00 | 00:00:00 | |
| OE5MMP-10 | 2026-09-02 00:26:49 | 48.83802 | 10.06358 | 166° | 11km/h | 30396m | 4.4m/s | -43.3°C | 2.7% | 11.7hPa | 2.6V | 00:00:00 | 01:57:53 | 00:00:00 | |
| DG9SBQ-11 | 2026-09-02 00:26:47 | 48.83802 | 10.06358 | 166° | 22km/h | 30396m | 4.5m/s | -43.3°C | 0.7% | 11.8hPa | 2.6V | 00:00:00 | 00:00:00 | 00:00:00 | |
| DM0DOS-11 | 2026-09-02 00:26:45 | 48.83814 | 10.06369 | 324° | 2km/h | 30358m | 5.9m/s | -43.5°C | 2.8% | 11.8hPa | 2.6V | 08:30:00 | 01:57:46 | 00:00:00 | |
| DL1XH-west | 2026-09-02 00:26:45 | 48.83815 | 10.06357 | 215° | 11km/h | 30379m | 6.7m/s | -43.4°C | 0% | 11.8hPa | 2.6V | 18:12:15 | 01:57:50 | 00:00:00 | |
| DK7TD | 2026-09-02 00:26:43 | 48.83816 | 10.06364 | 283° | 11km/h | 30368m | 4.4m/s | -43.5°C | 0% | 11.8hPa | 2.7V | 18:12:15 | 01:57:48 | 00:00:00 | |
| DF8AY | 2026-09-02 00:26:34 | 48.83831 | 10.06349 | 50° | 2km/h | 30314m | 6.1m/s | -43.6°C | 0% | 11.9hPa | 2.7V | 18:12:15 | 01:57:38 | 00:00:00 | |
| IW2NTF | 2026-09-02 00:26:34 | 48.83829 | 10.06347 | 42° | 7km/h | 30302m | 5.4m/s | -43.7°C | 2.8% | 11.9hPa | 2.6V | 08:30:00 | 01:57:36 | 00:00:00 | |
| DL1XH1-15 | 2026-09-02 00:26:33 | 48.83828 | 10.06341 | 143° | 5km/h | 30286m | 6.1m/s | -43.7°C | 2.8% | 11.9hPa | 2.7V | 08:30:00 | 01:57:33 | 00:00:00 | |
| DK7TD | 2026-09-02 00:26:32 | 48.83830 | 10.06348 | 31° | 5km/h | 30307m | 6.2m/s | -43.6°C | 0% | 11.9hPa | 2.6V | 18:12:15 | 01:57:37 | 00:00:00 | |
| DF8AY | 2026-09-02 00:26:27 | 48.83843 | 10.06327 | 117° | 11km/h | 30246m | 5.1m/s | -43.8°C | 0% | 12hPa | 2.7V | 18:12:15 | 01:57:26 | 00:00:00 | |
| DG9SBQ-11 | 2026-09-02 00:26:26 | 48.83829 | 10.06340 | 176° | 7km/h | 30280m | 6.2m/s | -43.7°C | 0.7% | 12.0hPa | 2.6V | 00:00:00 | 00:00:00 | 00:00:00 | |
| DM0DOS-11 | 2026-09-02 00:26:25 | 48.83844 | 10.06324 | 125° | 9km/h | 30240m | 6.4m/s | -43.8°C | 2.8% | 12.1hPa | 2.6V | 08:30:00 | 01:57:25 | 00:00:00 | |
| DL1XH-west | 2026-09-02 00:26:24 | 48.83837 | 10.06338 | 152° | 13km/h | 30264m | 6.5m/s | -43.8°C | 0% | 12hPa | 2.6V | 18:12:15 | 01:57:29 | 00:00:00 | |
| IW2NTF | 2026-09-02 00:26:23 | 48.83843 | 10.06327 | 117° | 11km/h | 30246m | 5.1m/s | -43.8°C | 2.8% | 12hPa | 2.7V | 08:30:00 | 01:57:26 | 00:00:00 | |
| DK7TD | 2026-09-02 00:26:22 | 48.83841 | 10.06331 | 119° | 13km/h | 30251m | 5.5m/s | -43.8°C | 0% | 12hPa | 2.7V | 18:12:15 | 01:57:27 | 00:00:00 | |
| DB0NH | 2026-09-02 00:26:21 | 48.83843 | 10.06327 | 118° | 11km/h | 30246m | 5.1m/s | -43.7°C | 2.8% | 12.0hPa | 2.6V | 00:00:00 | 01:57:26 | 00:00:00 | |
| DO3MHA-11 | 2026-09-02 00:26:20 | 48.83844 | 10.06323 | 126° | 9km/h | 30240m | 6.4m/s | -43.7°C | 2.8% | 12.0hPa | 2.6V | 00:00:00 | 01:57:25 | 08:30:00 | |
| DL1XH1-15 | 2026-09-02 00:26:19 | 48.83847 | 10.06321 | 168° | 7km/h | 30229m | 4.9m/s | -43.7°C | 2.8% | 12.1hPa | 2.6V | 08:30:00 | 01:57:23 | 00:00:00 | |
| EDDB2-11 | 2026-09-02 00:26:19 | 48.83847 | 10.06321 | 168° | 7km/h | 30229m | 4.9m/s | -43.7°C | 0.7% | 12.1hPa | 2.6V | 00:00:00 | 00:00:00 | 00:00:00 | |
| OE5MMP-10 | 2026-09-02 00:26:18 | 48.83847 | 10.06321 | 169° | 7km/h | 30229m | 4.8m/s | -43.7°C | 2.8% | 12.0hPa | 2.6V | 00:00:00 | 01:57:23 | 00:00:00 | |
| DN1GJH-1 | 2026-09-02 00:26:17 | 48.83849 | 10.06320 | 166° | 7km/h | 30224m | 4.3m/s | -43.7°C | 0.7% | 12.1hPa | 2.6V | 00:00:00 | 00:00:00 | 00:00:00 | |
| DG9SBQ-11 | 2026-09-02 00:26:16 | 48.83849 | 10.06320 | 166° | 7km/h | 30224m | 4.3m/s | -43.7°C | 0.7% | 12.1hPa | 2.6V | 00:00:00 | 00:00:00 | 00:00:00 | |
| IW2NTF | 2026-09-02 00:26:15 | 48.83853 | 10.06302 | 117° | 7km/h | 30189m | 6.7m/s | -43.7°C | 2.8% | 12.1hPa | 2.6V | 08:30:00 | 01:57:16 | 00:00:00 | |
| DM0DOS-11 | 2026-09-02 00:26:15 | 48.83854 | 10.06300 | 147° | 5km/h | 30183m | 5.6m/s | -43.7°C | 2.8% | 12.2hPa | 2.6V | 08:30:00 | 01:57:15 | 00:00:00 | |
| DL1XH-west | 2026-09-02 00:26:13 | 48.83853 | 10.06309 | 92° | 11km/h | 30200m | 5.2m/s | -43.7°C | 0% | 12.1hPa | 2.6V | 18:12:15 | 01:57:18 | 00:00:00 | |
| DK7TD | 2026-09-02 00:26:11 | 48.83853 | 10.06302 | 118° | 7km/h | 30189m | 6.7m/s | -43.7°C | 0% | 12.2hPa | 2.6V | 18:12:15 | 01:57:16 | 00:00:00 | |
| DF8AY | 2026-09-02 00:26:10 | 48.83854 | 10.06300 | 147° | 5km/h | 30183m | 5.6m/s | -43.8°C | 0% | 12.2hPa | 2.6V | 18:12:15 | 01:57:15 | 00:00:00 | |
| NBG1-10 | 2026-09-02 00:26:10 | 48.83854 | 10.06300 | 148° | 13km/h | 30183m | 5.5m/s | -43.7°C | 2.8% | 12.1hPa | 2.6V | 00:00:00 | 01:57:15 | 00:00:00 | |
| SONCRA | 2026-09-02 00:26:09 | 48.83857 | 10.06297 | 132° | 7km/h | 30172m | 6.0m/s | -43.8°C | 0.7% | 12.2hPa | 2.6V | 00:00:00 | 00:00:00 | 00:00:00 | |
| OE5MMP-10 | 2026-09-02 00:26:08 | 48.83857 | 10.06297 | 133° | 11km/h | 30172m | 6.0m/s | -43.7°C | 2.9% | 12.1hPa | 2.6V | 00:00:00 | 01:57:13 | 00:00:00 | |
| SONDE2-11 | 2026-09-02 00:26:06 | 48.83859 | 10.06290 | 110° | 11km/h | 30160m | 5.4m/s | -43.8°C | 0.7% | 12.2hPa | 2.6V | 00:00:00 | 00:00:00 | 00:00:00 | |
| DM0DOS-11 | 2026-09-02 00:26:05 | 48.83871 | 10.06271 | 138° | 13km/h | 30126m | 6.2m/s | -43.8°C | 2.8% | 12.2hPa | 2.6V | 08:30:00 | 01:57:05 | 00:00:00 | |
| DB0UT-7 | 2026-09-02 00:26:05 | 48.83861 | 10.06286 | 113° | 13km/h | 30155m | 4.7m/s | -43.8°C | 2.8% | 12.1hPa | 2.7V | 00:00:00 | 01:57:10 | 00:00:00 | |
| DL8DAS-14 | 2026-09-02 00:26:04 | 48.83862 | 10.06282 | 121° | 11km/h | 30150m | 6.2m/s | -43.8°C | 0.7% | 12.2hPa | 2.7V | 00:00:00 | 00:00:00 | 00:00:00 | |
| IW2NTF | 2026-09-02 00:26:03 | 48.83869 | 10.06274 | 151° | 11km/h | 30131m | 5.1m/s | -43.8°C | 2.8% | 12.2hPa | 2.7V | 08:30:00 | 01:57:06 | 00:00:00 | |
| DL1XH-west | 2026-09-02 00:26:03 | 48.83864 | 10.06278 | 139° | 11km/h | 30143m | 6.5m/s | -43.8°C | 0% | 12.2hPa | 2.6V | 18:12:15 | 01:57:08 | 00:00:00 | |
| DK7TD | 2026-09-02 00:26:00 | 48.83871 | 10.06271 | 139° | 13km/h | 30126m | 6.2m/s | -43.8°C | 0% | 12.2hPa | 2.6V | 18:12:15 | 01:57:05 | 00:00:00 | |
| DF8AY | 2026-09-02 00:26:00 | 48.83874 | 10.06267 | 125° | 15km/h | 30119m | 6.6m/s | -43.8°C | 0% | 12.3hPa | 2.6V | 18:12:15 | 01:57:04 | 00:00:00 | |
| DL1XH1-15 | 2026-09-02 00:25:59 | 48.83876 | 10.06262 | 118° | 16km/h | 30113m | 5.5m/s | -43.8°C | 2.8% | 12.3hPa | 2.6V | 08:30:00 | 01:57:03 | 00:00:00 | |
| OE5MMP-10 | 2026-09-02 00:25:58 | 48.83876 | 10.06262 | 119° | 16km/h | 30114m | 5.4m/s | -43.8°C | 2.8% | 12.2hPa | 2.6V | 00:00:00 | 01:57:03 | 00:00:00 | |
| DJ8HS-15 | 2026-09-02 00:25:57 | 48.83878 | 10.06257 | 123° | 13km/h | 30108m | 5.4m/s | -43.8°C | 2.8% | 12.3hPa | 2.7V | 00:00:00 | 01:57:02 | 00:00:00 | |
| DO3MHA-12 | 2026-09-02 00:25:55 | 48.83883 | 10.06248 | 144° | 16km/h | 30096m | 6.3m/s | -43.8°C | 2.8% | 12.3hPa | 2.7V | 00:00:00 | 01:57:00 | 00:00:00 | |
| PG1ADW-2 | 2026-09-02 00:25:54 | 48.83887 | 10.06244 | 149° | 11km/h | 30090m | 5.3m/s | -43.8°C | 2.8% | 12.3hPa | 2.7V | 00:00:00 | 00:00:00 | 00:00:00 | |
| IW2NTF | 2026-09-02 00:25:53 | 48.83897 | 10.06231 | 130° | 18km/h | 30072m | 5.7m/s | -43.9°C | 2.8% | 12.3hPa | 2.7V | 08:30:00 | 01:56:56 | 00:00:00 | |
| DL1XH1-15 | 2026-09-02 00:25:53 | 48.83907 | 10.06219 | 154° | 15km/h | 30055m | 6.8m/s | -43.9°C | 2.8% | 12.4hPa | 2.6V | 08:30:00 | 01:56:53 | 00:00:00 | |
| DL1XH-west | 2026-09-02 00:25:52 | 48.83894 | 10.06236 | 137° | 18km/h | 30078m | 6.7m/s | -43.9°C | 0% | 12.3hPa | 2.6V | 18:12:15 | 01:56:57 | 00:00:00 | |
| DM0DOS-11 | 2026-09-02 00:25:51 | 48.83913 | 10.06215 | 162° | 13km/h | 30043m | 5.4m/s | -44°C | 2.8% | 12.4hPa | 2.7V | 08:30:00 | 01:56:51 | 00:00:00 | |
| DK7TD | 2026-09-02 00:25:50 | 48.83900 | 10.06226 | 132° | 18km/h | 30066m | 4.8m/s | -43.9°C | 0% | 12.4hPa | 2.6V | 18:12:15 | 01:56:55 | 00:00:00 | |
| DF8AY | 2026-09-02 00:25:49 | 48.83903 | 10.06222 | 140° | 16km/h | 30061m | 5.9m/s | -43.9°C | 0% | 12.4hPa | 2.6V | 18:12:15 | 01:56:54 | 00:00:00 | |
| EDDB2-11 | 2026-09-02 00:25:48 | 48.83910 | 10.06217 | 164° | 13km/h | 30049m | 5.7m/s | -43.9°C | 0.7% | 12.4hPa | 2.6V | 00:00:00 | 00:00:00 | 00:00:00 | |
| DG9SBQ-11 | 2026-09-02 00:25:47 | 48.83906 | 10.06219 | 155° | 15km/h | 30055m | 6.8m/s | -43.9°C | 0.7% | 12.4hPa | 2.6V | 00:00:00 | 00:00:00 | 00:00:00 | |
| IW2NTF | 2026-09-02 00:25:46 | 48.83923 | 10.06198 | 118° | 9km/h | 30015m | 5.8m/s | -44.2°C | 2.9% | 12.5hPa | 2.6V | 08:30:00 | 01:56:46 | 00:00:00 | |
| DO3MHA-12 | 2026-09-02 00:25:45 | 48.83916 | 10.06213 | 150° | 7km/h | 30037m | 6.6m/s | -43.9°C | 2.8% | 12.4hPa | 2.6V | 00:00:00 | 01:56:50 | 00:00:00 | |
| HEMX73-6 | 2026-09-02 00:25:44 | 48.83919 | 10.06210 | 131° | 13km/h | 30031m | 6.3m/s | 0°C | 0% | 0hPa | 2.6V | 00:00:00 | 01:56:49 | 00:00:00 | |
| DM0DOS-11 | 2026-09-02 00:25:41 | 48.83926 | 10.06198 | 109° | 4km/h | 29987m | 5.8m/s | -44.3°C | 2.9% | 12.5hPa | 2.6V | 08:30:00 | 01:56:41 | 00:00:00 | |
| DL1XH-west | 2026-09-02 00:25:41 | 48.83923 | 10.06198 | 119° | 9km/h | 30015m | 5.8m/s | -44.2°C | 0% | 12.5hPa | 2.6V | 18:12:15 | 01:56:46 | 00:00:00 | |
| OE5DXL-15 | 2026-09-02 00:25:41 | 48.83923 | 10.06198 | 119° | 13km/h | 30015m | 5.7m/s | -44.1°C | 2.9% | 12.4hPa | 2.6V | 00:00:00 | 00:00:00 | 00:00:00 | |
| DO3MHA-11 | 2026-09-02 00:25:40 | 48.83924 | 10.06196 | 142° | 9km/h | 30009m | 6.5m/s | -44.2°C | 2.9% | 12.4hPa | 2.6V | 00:00:00 | 01:56:45 | 00:00:00 | |
| DL1XH1-15 | 2026-09-02 00:25:39 | 48.83926 | 10.06197 | 242° | 4km/h | 29997m | 5.4m/s | -44.3°C | 2.9% | 12.5hPa | 2.6V | 08:30:00 | 01:56:43 | 00:00:00 | |
| DK7TD | 2026-09-02 00:25:39 | 48.83925 | 10.06196 | 210° | 4km/h | 30003m | 6m/s | -44.3°C | 0% | 12.5hPa | 2.6V | 18:12:15 | 01:56:44 | 00:00:00 | |
| DF8AY | 2026-09-02 00:25:38 | 48.83928 | 10.06184 | 103° | 18km/h | 29969m | 4.8m/s | -44.3°C | 0% | 12.6hPa | 2.6V | 18:12:15 | 01:56:38 | 00:00:00 | |
| SONCRA | 2026-09-02 00:25:38 | 48.83926 | 10.06198 | 239° | 2km/h | 29992m | 4.9m/s | -44.3°C | 0.7% | 12.5hPa | 2.6V | 00:00:00 | 00:00:00 | 00:00:00 | |
| NBG1-10 | 2026-09-02 00:25:37 | 48.83926 | 10.06198 | 240° | 13km/h | 29992m | 4.8m/s | -44.3°C | 2.9% | 12.5hPa | 2.6V | 00:00:00 | 01:56:42 | 00:00:00 | |
| DG9SBQ-11 | 2026-09-02 00:25:36 | 48.83926 | 10.06198 | 110° | 4km/h | 29987m | 5.8m/s | -44.3°C | 0.7% | 12.5hPa | 2.6V | 00:00:00 | 00:00:00 | 00:00:00 | |
| DO3MHA-12 | 2026-09-02 00:25:35 | 48.83926 | 10.06195 | 97° | 16km/h | 29981m | 6.6m/s | -44.3°C | 2.9% | 12.5hPa | 2.6V | 00:00:00 | 01:56:40 | 00:00:00 | |
| PG1ADW-2 | 2026-09-02 00:25:34 | 48.83927 | 10.06191 | 98° | 16km/h | 29974m | 5.8m/s | -44.3°C | 2.9% | 12.5hPa | 2.6V | 00:00:00 | 00:00:00 | 08:30:00 | |
| DL1XH1-15 | 2026-09-02 00:25:33 | 48.83941 | 10.06157 | 142° | 18km/h | 29940m | 6.5m/s | -44.3°C | 2.9% | 12.6hPa | 2.6V | 08:30:00 | 01:56:33 | 00:00:00 | |
| DL1XH-west | 2026-09-02 00:25:31 | 48.83931 | 10.06171 | 122° | 18km/h | 29957m | 6.3m/s | -44.3°C | 0% | 12.6hPa | 2.6V | 18:12:15 | 01:56:36 | 00:00:00 | |
| DK7TD | 2026-09-02 00:25:30 | 48.83937 | 10.06161 | 142° | 18km/h | 29946m | 5.4m/s | -44.3°C | 0% | 12.6hPa | 2.6V | 18:12:15 | 01:56:34 | 00:00:00 | |
| DF8AY | 2026-09-02 00:25:27 | 48.83948 | 10.06149 | 142° | 16km/h | 29928m | 4.8m/s | -44.3°C | 0% | 12.7hPa | 2.6V | 18:12:15 | 01:56:31 | 00:00:00 | |
| IW2NTF | 2026-09-02 00:25:25 | 48.83955 | 10.06146 | 30° | 2km/h | 29901m | 3.8m/s | -44.3°C | 2.9% | 12.7hPa | 2.6V | 08:30:00 | 01:56:26 | 00:00:00 | |
| DO3MHA-12 | 2026-09-02 00:25:25 | 48.83950 | 10.06146 | 149° | 15km/h | 29923m | 4.7m/s | -44.3°C | 2.9% | 12.6hPa | 2.6V | 00:00:00 | 01:56:30 | 00:00:00 | |
| DG9SBQ-11 | 2026-09-02 00:25:24 | 48.83950 | 10.06146 | 150° | 13km/h | 29923m | 4.7m/s | -44.4°C | 0.7% | 12.7hPa | 2.6V | 00:00:00 | 00:00:00 | 00:00:00 | |
| DL1XH1-15 | 2026-09-02 00:25:23 | 48.83953 | 10.06132 | 80° | 26km/h | 29884m | 6.8m/s | -44.3°C | 2.9% | 12.7hPa | 2.6V | 08:30:00 | 01:56:23 | 00:00:00 | |
| DL1XH-west | 2026-09-02 00:25:21 | 48.83955 | 10.06146 | 31° | 2km/h | 29901m | 3.8m/s | -44.3°C | 0% | 12.7hPa | 2.6V | 18:12:15 | 01:56:26 | 00:00:00 | |
| DK7TD | 2026-09-02 00:25:19 | 48.83954 | 10.06140 | 76° | 16km/h | 29891m | 7.2m/s | -44.3°C | 0% | 12.7hPa | 2.7V | 18:12:15 | 01:56:24 | 00:00:00 | |
| DJ2DS-15 | 2026-09-02 00:25:19 | 48.83953 | 10.06132 | 80° | 24km/h | 29884m | 6.8m/s | -44.3°C | 0.7% | 12.7hPa | 2.6V | 00:00:00 | 00:00:00 | 00:00:00 | |
| OE5MMP-10 | 2026-09-02 00:25:18 | 48.83953 | 10.06132 | 81° | 16km/h | 29884m | 6.8m/s | -44.3°C | 2.9% | 12.7hPa | 2.6V | 00:00:00 | 01:56:23 | 00:00:00 | |
| EDDB2-11 | 2026-09-02 00:25:17 | 48.83952 | 10.06110 | 92° | 29km/h | 29873m | 4.9m/s | -44.3°C | 0.7% | 12.7hPa | 2.6V | 00:00:00 | 00:00:00 | 00:00:00 | |
| IW2NTF | 2026-09-02 00:25:15 | 48.83958 | 10.06084 | 238° | 2km/h | 29843m | 6.4m/s | -44.4°C | 2.9% | 12.8hPa | 2.6V | 08:30:00 | 01:56:16 | 00:00:00 | |
| DF8AY | 2026-09-02 00:25:15 | 48.83953 | 10.06099 | 99° | 26km/h | 29867m | 6m/s | -44.3°C | 0% | 12.8hPa | 2.6V | 18:12:15 | 01:56:20 | 00:00:00 | |
| DO3MHA-12 | 2026-09-02 00:25:15 | 48.83953 | 10.06099 | 100° | 9km/h | 29867m | 5.9m/s | -44.3°C | 2.9% | 12.7hPa | 2.6V | 00:00:00 | 01:56:20 | 00:00:00 | |
| PG1ADW-2 | 2026-09-02 00:25:14 | 48.83954 | 10.06091 | 109° | 15km/h | 29862m | 5.7m/s | -44.3°C | 2.9% | 12.7hPa | 2.6V | 00:00:00 | 01:56:19 | 00:00:00 | |
| DL1XH1-15 | 2026-09-02 00:25:13 | 48.83955 | 10.06086 | 1° | 7km/h | 29825m | 5m/s | -44.5°C | 2.9% | 12.8hPa | 2.6V | 08:30:00 | 01:56:13 | 00:00:00 | |
| DL1XH-west | 2026-09-02 00:25:10 | 48.83958 | 10.06085 | 307° | 4km/h | 29837m | 6.7m/s | -44.5°C | 0% | 12.8hPa | 2.6V | 18:12:15 | 01:56:15 | 00:00:00 | |
| DK7TD | 2026-09-02 00:25:09 | 48.83957 | 10.06086 | 344° | 5km/h | 29830m | 5.5m/s | -44.5°C | 0% | 12.8hPa | 2.7V | 18:12:15 | 01:56:14 | 00:00:00 | |
| OE5MMP-10 | 2026-09-02 00:25:08 | 48.83955 | 10.06086 | 2° | 20km/h | 29825m | 4.9m/s | -44.5°C | 2.9% | 12.8hPa | 2.6V | 00:00:00 | 01:56:13 | 00:00:00 | |
| SONCRA | 2026-09-02 00:25:07 | 48.83952 | 10.06085 | 54° | 4km/h | 29814m | 6.3m/s | -44.6°C | 0.7% | 12.8hPa | 2.6V | 00:00:00 | 00:00:00 | 00:00:00 | |
| IW2NTF | 2026-09-02 00:25:06 | 48.83958 | 10.06047 | 104° | 35km/h | 29783m | 5.3m/s | -44.6°C | 2.9% | 12.9hPa | 2.6V | 08:30:00 | 01:56:06 | 00:00:00 | |
| DF8AY | 2026-09-02 00:25:04 | 48.83953 | 10.06077 | 105° | 16km/h | 29802m | 5.5m/s | -44.6°C | 0% | 12.9hPa | 2.7V | 18:12:15 | 01:56:09 | 00:00:00 | |
| NBG1-10 | 2026-09-02 00:25:04 | 48.83953 | 10.06077 | 106° | 18km/h | 29803m | 5.4m/s | -44.5°C | 2.9% | 12.8hPa | 2.7V | 00:00:00 | 01:56:09 | 00:00:00 | |
| DL1XH1-15 | 2026-09-02 00:25:03 | 48.83966 | 10.06017 | 130° | 20km/h | 29770m | 6.5m/s | -44.6°C | 2.9% | 12.9hPa | 2.7V | 08:30:00 | 01:56:03 | 00:00:00 | |
| DL1XH-west | 2026-09-02 00:25:00 | 48.83960 | 10.06035 | 109° | 33km/h | 29779m | 3.7m/s | -44.6°C | 0% | 12.9hPa | 2.6V | 18:12:15 | 01:56:05 | 00:00:00 | |
| DK7TD | 2026-09-02 00:24:58 | 48.83966 | 10.06017 | 130° | 20km/h | 29770m | 6.5m/s | -44.6°C | 0% | 12.9hPa | 2.7V | 18:12:15 | 01:56:03 | 00:00:00 | |
| OE5MMP-10 | 2026-09-02 00:24:58 | 48.83966 | 10.06017 | 131° | 15km/h | 29770m | 6.4m/s | -44.6°C | 2.9% | 12.9hPa | 2.7V | 00:00:00 | 01:56:03 | 08:30:00 | |
| DJ8HS-15 | 2026-09-02 00:24:57 | 48.83969 | 10.06013 | 164° | 15km/h | 29763m | 6.7m/s | -44.6°C | 2.9% | 12.9hPa | 2.6V | 00:00:00 | 01:56:02 | 00:00:00 | |
| DG9SBQ-11 | 2026-09-02 00:24:56 | 48.83969 | 10.06013 | 165° | 13km/h | 29763m | 6.8m/s | -44.6°C | 0.7% | 13.0hPa | 2.6V | 00:00:00 | 00:00:00 | 00:00:00 | |
| IW2NTF | 2026-09-02 00:24:55 | 48.83968 | 10.06024 | 52° | 15km/h | 29730m | 5.1m/s | -44.6°C | 3% | 13hPa | 2.6V | 08:30:00 | 01:55:56 | 00:00:00 | |
| DF8AY | 2026-09-02 00:24:54 | 48.83973 | 10.06026 | 320° | 9km/h | 29740m | 5.6m/s | -44.6°C | 0% | 13hPa | 2.7V | 18:12:15 | 01:55:58 | 00:00:00 | |
| DL1XH-west | 2026-09-02 00:24:50 | 48.83967 | 10.06019 | 75° | 18km/h | 29724m | 6.3m/s | -44.6°C | 0% | 13hPa | 2.6V | 18:12:15 | 01:55:55 | 00:00:00 | |
| DK7TD | 2026-09-02 00:24:48 | 48.83967 | 10.06002 | 104° | 26km/h | 29711m | 6m/s | -44.7°C | 0% | 13.1hPa | 2.7V | 18:12:15 | 01:55:53 | 00:00:00 | |
| OE5MMP-10 | 2026-09-02 00:24:48 | 48.83967 | 10.06002 | 104° | 15km/h | 29712m | 5.9m/s | -44.6°C | 2.9% | 13.0hPa | 2.7V | 00:00:00 | 01:55:53 | 00:00:00 | |
| DM0DOS-11 | 2026-09-02 00:24:46 | 48.83973 | 10.05960 | 80° | 15km/h | 29684m | 5.7m/s | -44.8°C | 3% | 13.1hPa | 2.7V | 08:30:00 | 01:55:48 | 00:00:00 | |
| EDDB2-11 | 2026-09-02 00:24:46 | 48.83972 | 10.05974 | 99° | 22km/h | 29695m | 6.0m/s | -44.8°C | 0.7% | 13.1hPa | 2.6V | 00:00:00 | 00:00:00 | 00:00:00 | |
| OE5WHR-10 | 2026-09-02 00:24:45 | 48.83972 | 10.05974 | 100° | 11km/h | 29696m | 5.9m/s | -44.7°C | 3.0% | 13.0hPa | 2.6V | 00:00:00 | 00:00:00 | 00:00:00 | |
| IW2NTF | 2026-09-02 00:24:44 | 48.83971 | 10.05954 | 32° | 4km/h | 29671m | 6.8m/s | -44.9°C | 3% | 13.1hPa | 2.6V | 08:30:00 | 01:55:46 | 00:00:00 | |
| DL1XH1-15 | 2026-09-02 00:24:44 | 48.83966 | 10.05957 | 340° | 13km/h | 29654m | 5.9m/s | -44.9°C | 3% | 13.2hPa | 2.6V | 08:30:00 | 01:55:43 | 00:00:00 | |
| DF8AY | 2026-09-02 00:24:43 | 48.83972 | 10.05959 | 80° | 15km/h | 29684m | 5.7m/s | -44.8°C | 0% | 13.1hPa | 2.7V | 18:12:15 | 01:55:48 | 00:00:00 | |
| DL1XH-west | 2026-09-02 00:24:39 | 48.83969 | 10.05955 | 328° | 9km/h | 29659m | 5m/s | -44.9°C | 0% | 13.2hPa | 2.6V | 18:12:15 | 01:55:44 | 00:00:00 | |
| DK7TD | 2026-09-02 00:24:37 | 48.83963 | 10.05958 | 354° | 15km/h | 29648m | 6.7m/s | -45°C | 0% | 13.2hPa | 2.7V | 18:12:15 | 01:55:42 | 00:00:00 | |
| DJ8HS-15 | 2026-09-02 00:24:37 | 48.83963 | 10.05958 | 355° | 11km/h | 29648m | 6.6m/s | -44.9°C | 3.0% | 13.1hPa | 2.6V | 00:00:00 | 01:55:42 | 00:00:00 | |
| SONCRA | 2026-09-02 00:24:36 | 48.83955 | 10.05955 | 33° | 16km/h | 29637m | 5.2m/s | -45.0°C | 0.8% | 13.2hPa | 2.6V | 00:00:00 | 00:00:00 | 00:00:00 | |
| IW2NTF | 2026-09-02 00:24:35 | 48.83951 | 10.05933 | 100° | 15km/h | 29613m | 5m/s | -44.9°C | 3% | 13.3hPa | 2.6V | 08:30:00 | 01:55:36 | 00:00:00 | |
| DM0DOS-11 | 2026-09-02 00:24:35 | 48.83951 | 10.05945 | 81° | 16km/h | 29624m | 6.3m/s | -45°C | 3% | 13.2hPa | 2.6V | 08:30:00 | 01:55:38 | 00:00:00 | |
| DF8AY | 2026-09-02 00:24:33 | 48.83951 | 10.05939 | 98° | 16km/h | 29618m | 4.9m/s | -44.9°C | 0.1% | 13.3hPa | 2.7V | 18:12:15 | 01:55:37 | 00:00:00 | |
| SONDE2-11 | 2026-09-02 00:24:33 | 48.83951 | 10.05939 | 97° | 15km/h | 29619m | 4.9m/s | -44.9°C | 0.8% | 13.3hPa | 2.6V | 00:00:00 | 00:00:00 | 00:00:00 | |
| NBG1-10 | 2026-09-02 00:24:31 | 48.83951 | 10.05934 | 101° | 9km/h | 29614m | 5.0m/s | -44.9°C | 3.0% | 13.2hPa | 2.6V | 00:00:00 | 01:55:36 | 08:30:00 | |
| DL1XH1-15 | 2026-09-02 00:24:30 | 48.83949 | 10.05923 | 15° | 9km/h | 29596m | 5.3m/s | -44.9°C | 3.1% | 13.3hPa | 2.6V | 08:30:00 | 01:55:33 | 00:00:00 | |
| DL1XH-west | 2026-09-02 00:24:28 | 48.83949 | 10.05923 | 16° | 9km/h | 29596m | 5.3m/s | -44.9°C | 0.1% | 13.3hPa | 2.6V | 18:12:15 | 01:55:33 | 00:00:00 | |
| DK7TD | 2026-09-02 00:24:26 | 48.83945 | 10.05924 | 346° | 9km/h | 29584m | 6.4m/s | -44.8°C | 0.1% | 13.3hPa | 2.6V | 18:12:15 | 01:55:31 | 00:00:00 | |
| DO3MHA-12 | 2026-09-02 00:24:25 | 48.83942 | 10.05924 | 340° | 9km/h | 29578m | 6.5m/s | -44.8°C | 3.0% | 13.3hPa | 2.6V | 00:00:00 | 01:55:30 | 00:00:00 | |
| OE5WHR-10 | 2026-09-02 00:24:24 | 48.83941 | 10.05925 | 347° | 9km/h | 29572m | 5.9m/s | -44.8°C | 3.0% | 13.3hPa | 2.6V | 00:00:00 | 00:00:00 | 00:00:00 | |
| DL1XH1-15 | 2026-09-02 00:24:23 | 48.83932 | 10.05911 | 72° | 11km/h | 29537m | 5.5m/s | -44.8°C | 3% | 13.4hPa | 2.6V | 08:30:00 | 01:55:23 | 00:00:00 | |
| DF8AY | 2026-09-02 00:24:21 | 48.83935 | 10.05919 | 47° | 13km/h | 29548m | 6.4m/s | -44.8°C | 0% | 13.4hPa | 2.6V | 18:12:15 | 01:55:25 | 00:00:00 | |
| DL1XH-west | 2026-09-02 00:24:18 | 48.83932 | 10.05911 | 72° | 11km/h | 29537m | 5.5m/s | -44.8°C | 0% | 13.4hPa | 2.6V | 18:12:15 | 01:55:23 | 00:00:00 | |
| DK7TD | 2026-09-02 00:24:16 | 48.83933 | 10.05903 | 132° | 9km/h | 29524m | 5.9m/s | -44.8°C | 0% | 13.4hPa | 2.7V | 18:12:15 | 01:55:21 | 00:00:00 | |
| DM0DOS-11 | 2026-09-02 00:24:15 | 48.83939 | 10.05900 | 196° | 4km/h | 29500m | 5.6m/s | -44.7°C | 3% | 13.5hPa | 2.6V | 08:30:00 | 01:55:17 | 00:00:00 | |
| DF8AY | 2026-09-02 00:24:11 | 48.83945 | 10.05892 | 86° | 11km/h | 29466m | 6.8m/s | -44.7°C | 0% | 13.6hPa | 2.7V | 18:12:15 | 01:55:11 | 00:00:00 | |
| OE5DXL-15 | 2026-09-02 00:24:11 | 48.83940 | 10.05900 | 193° | 13km/h | 29495m | 5.4m/s | -44.7°C | 3.0% | 13.4hPa | 2.6V | 00:00:00 | 00:00:00 | 00:00:00 | |
| DL1XH1-15 | 2026-09-02 00:24:10 | 48.83944 | 10.05898 | 136° | 9km/h | 29477m | 5.1m/s | -44.7°C | 3% | 13.5hPa | 2.6V | 08:30:00 | 01:55:13 | 00:00:00 | |
| DL1XH-west | 2026-09-02 00:24:07 | 48.83945 | 10.05895 | 109° | 9km/h | 29472m | 5m/s | -44.7°C | 0% | 13.5hPa | 2.6V | 18:12:15 | 01:55:12 | 00:00:00 | |
| AU51GT2 | 2026-09-02 00:24:06 | 48.83945 | 10.05887 | 69° | 11km/h | 29459m | 6.7m/s | -44.7°C | 0.7% | 13.6hPa | 2.6V | 00:00:00 | 00:00:00 | 00:00:00 | |
| IW2NTF | 2026-09-02 00:24:05 | 48.83944 | 10.05869 | 131° | 15km/h | 29435m | 6.4m/s | -44.7°C | 3% | 13.6hPa | 2.6V | 08:30:00 | 01:55:06 | 00:00:00 | |
| DM0DOS-11 | 2026-09-02 00:24:05 | 48.83943 | 10.05873 | 104° | 13km/h | 29442m | 6.6m/s | -44.7°C | 3% | 13.6hPa | 2.6V | 08:30:00 | 01:55:07 | 00:00:00 | |
| DK7TD | 2026-09-02 00:24:05 | 48.83945 | 10.05887 | 70° | 13km/h | 29459m | 6.7m/s | -44.7°C | 0% | 13.6hPa | 2.6V | 18:12:15 | 01:55:10 | 00:00:00 | |
| DO3MHA-12 | 2026-09-02 00:24:05 | 48.83945 | 10.05887 | 70° | 13km/h | 29460m | 6.6m/s | -44.7°C | 3.0% | 13.5hPa | 2.6V | 00:00:00 | 01:55:10 | 00:00:00 | |
| SONCRA | 2026-09-02 00:24:04 | 48.83943 | 10.05883 | 69° | 13km/h | 29453m | 5.5m/s | -44.7°C | 0.7% | 13.6hPa | 2.6V | 00:00:00 | 00:00:00 | 00:00:00 | |
| DL1XH1-15 | 2026-09-02 00:24:03 | 48.83953 | 10.05862 | 169° | 11km/h | 29418m | 7m/s | -44.6°C | 3% | 13.7hPa | 2.6V | 08:30:00 | 01:55:03 | 00:00:00 | |
| DF8AY | 2026-09-02 00:24:01 | 48.83944 | 10.05869 | 132° | 15km/h | 29435m | 6.4m/s | -44.7°C | 0% | 13.6hPa | 2.6V | 18:12:15 | 01:55:06 | 00:00:00 | |
| DL1XH-west | 2026-09-02 00:23:57 | 48.83956 | 10.05862 | 186° | 7km/h | 29411m | 6.2m/s | -44.6°C | 0% | 13.7hPa | 2.6V | 18:12:15 | 01:55:02 | 00:00:00 | |
| DK7TD | 2026-09-02 00:23:55 | 48.83959 | 10.05862 | 182° | 5km/h | 29400m | 5.6m/s | -44.6°C | 0% | 13.7hPa | 2.7V | 18:12:15 | 01:55:00 | 00:00:00 | |
| DO3MHA-12 | 2026-09-02 00:23:55 | 48.83959 | 10.05862 | 182° | 15km/h | 29400m | 5.6m/s | -44.5°C | 3.0% | 13.7hPa | 2.6V | 00:00:00 | 01:55:00 | 00:00:00 | |
| PG1ADW-2 | 2026-09-02 00:23:54 | 48.83960 | 10.05862 | 160° | 13km/h | 29394m | 6.6m/s | -44.5°C | 3.0% | 13.6hPa | 2.6V | 00:00:00 | 01:54:59 | 00:00:00 | |
| DL1XH1-15 | 2026-09-02 00:23:53 | 48.83968 | 10.05833 | 92° | 16km/h | 29359m | 4.8m/s | -44.6°C | 3% | 13.8hPa | 2.6V | 08:30:00 | 01:54:53 | 00:00:00 | |
| IW2NTF | 2026-09-02 00:23:53 | 48.83966 | 10.05851 | 111° | 16km/h | 29377m | 5.4m/s | -44.6°C | 2.9% | 13.7hPa | 2.6V | 08:30:00 | 01:54:56 | 00:00:00 | |
| DF8AY | 2026-09-02 00:23:50 | 48.83967 | 10.05845 | 98° | 16km/h | 29371m | 7.1m/s | -44.6°C | 0% | 13.8hPa | 2.7V | 18:12:15 | 01:54:55 | 00:00:00 | |
| DL1XH-west | 2026-09-02 00:23:47 | 48.83968 | 10.05827 | 106° | 16km/h | 29354m | 5.2m/s | -44.6°C | 0% | 13.8hPa | 2.6V | 18:12:15 | 01:54:52 | 00:00:00 | |
| DK7TD | 2026-09-02 00:23:44 | 48.83978 | 10.05812 | 157° | 22km/h | 29335m | 5.3m/s | -44.6°C | 0% | 13.8hPa | 2.6V | 18:12:15 | 01:54:49 | 00:00:00 | |
| EDDB2-11 | 2026-09-02 00:23:44 | 48.83983 | 10.05810 | 167° | 18km/h | 29331m | 4.6m/s | -44.6°C | 0.7% | 13.8hPa | 2.6V | 00:00:00 | 00:00:00 | 00:00:00 | |
| DL1XH1-15 | 2026-09-02 00:23:43 | 48.83995 | 10.05811 | 171° | 4km/h | 29302m | 5.7m/s | -44.7°C | 2.9% | 13.9hPa | 2.6V | 08:30:00 | 01:54:43 | 00:00:00 | |
| DF8AY | 2026-09-02 00:23:39 | 48.83994 | 10.05811 | 216° | 4km/h | 29307m | 5m/s | -44.6°C | 0% | 13.9hPa | 2.7V | 18:12:15 | 01:54:44 | 00:00:00 | |
| DL1XH-west | 2026-09-02 00:23:36 | 48.83998 | 10.05808 | 144° | 13km/h | 29290m | 5.9m/s | -44.8°C | 0% | 13.9hPa | 2.6V | 18:12:15 | 01:54:41 | 00:00:00 | |
| AU51GT2 | 2026-09-02 00:23:35 | 48.84005 | 10.05801 | 142° | 16km/h | 29279m | 5.3m/s | -44.8°C | 0.7% | 13.9hPa | 2.6V | 00:00:00 | 00:00:00 | 00:00:00 | |
| DM0DOS-11 | 2026-09-02 00:23:34 | 48.84013 | 10.05788 | 121° | 11km/h | 29260m | 5.8m/s | -44.9°C | 3% | 14hPa | 2.6V | 08:30:00 | 01:54:36 | 00:00:00 | |
| DK7TD | 2026-09-02 00:23:34 | 48.84005 | 10.05801 | 142° | 18km/h | 29279m | 5.3m/s | -44.8°C | 0% | 13.9hPa | 2.7V | 18:12:15 | 01:54:39 | 00:00:00 | |
| DF8AY | 2026-09-02 00:23:29 | 48.84016 | 10.05780 | 119° | 15km/h | 29249m | 5.8m/s | -44.9°C | 0% | 14hPa | 2.7V | 18:12:15 | 01:54:34 | 00:00:00 | |
| DL1XH-west | 2026-09-02 00:23:25 | 48.84024 | 10.05755 | 104° | 20km/h | 29226m | 4.7m/s | -44.9°C | 0% | 14.1hPa | 2.6V | 18:12:15 | 01:54:30 | 00:00:00 | |
| DM0DOS-11 | 2026-09-02 00:23:24 | 48.84020 | 10.05733 | 49° | 13km/h | 29201m | 5.5m/s | -44.8°C | 3% | 14.1hPa | 2.6V | 08:30:00 | 01:54:26 | 00:00:00 | |
| DK7TD | 2026-09-02 00:23:23 | 48.84024 | 10.05742 | 67° | 15km/h | 29213m | 7.1m/s | -44.8°C | 0% | 14.1hPa | 2.7V | 18:12:15 | 01:54:28 | 00:00:00 | |
| DF8AY | 2026-09-02 00:23:18 | 48.84022 | 10.05723 | 164° | 9km/h | 29178m | 7.1m/s | -44.8°C | 0% | 14.2hPa | 2.6V | 18:12:15 | 01:54:22 | 00:00:00 | |
| OE5MMP-10 | 2026-09-02 00:23:18 | 48.84019 | 10.05725 | 145° | 16km/h | 29184m | 5.4m/s | -44.8°C | 3.0% | 14.1hPa | 2.6V | 00:00:00 | 01:54:23 | 00:00:00 | |
| DJ8HS-15 | 2026-09-02 00:23:17 | 48.84021 | 10.05723 | 165° | 15km/h | 29178m | 7.1m/s | -44.8°C | 3.0% | 14.1hPa | 2.6V | 00:00:00 | 01:54:22 | 08:30:00 | |
| DF7PN | 2026-09-02 00:23:16 | 48.84027 | 10.05723 | 181° | 13km/h | 29165m | 5.2m/s | -44.8°C | 0.8% | 14.2hPa | 2.6V | 00:00:00 | 00:00:00 | 00:00:00 | |
| DM0DOS-11 | 2026-09-02 00:23:15 | 48.84044 | 10.05712 | 133° | 24km/h | 29142m | 5.3m/s | -44.8°C | 3% | 14.2hPa | 2.6V | 08:30:00 | 01:54:16 | 00:00:00 | |
| DL1XH-west | 2026-09-02 00:23:14 | 48.84031 | 10.05722 | 172° | 16km/h | 29160m | 4.8m/s | -44.8°C | 0% | 14.2hPa | 2.6V | 18:12:15 | 01:54:19 | 00:00:00 | |
| PG1ADW-2 | 2026-09-02 00:23:14 | 48.84031 | 10.05722 | 173° | 16km/h | 29160m | 4.8m/s | -44.7°C | 3.0% | 14.2hPa | 2.6V | 00:00:00 | 00:00:00 | 00:00:00 | |
| IW2NTF | 2026-09-02 00:23:12 | 48.84047 | 10.05705 | 118° | 22km/h | 29137m | 4.5m/s | -44.8°C | 3% | 14.2hPa | 2.6V | 08:30:00 | 01:54:15 | 00:00:00 | |
| DK7TD | 2026-09-02 00:23:12 | 48.84040 | 10.05717 | 147° | 22km/h | 29148m | 6.8m/s | -44.8°C | 0% | 14.2hPa | 2.6V | 18:12:15 | 01:54:17 | 00:00:00 | |
| DF8AY | 2026-09-02 00:23:09 | 48.84047 | 10.05687 | 43° | 15km/h | 29118m | 6m/s | -44.8°C | 0% | 14.3hPa | 2.7V | 18:12:15 | 01:54:12 | 00:00:00 | |
| OE5MMP-10 | 2026-09-02 00:23:08 | 48.84049 | 10.05692 | 74° | 13km/h | 29125m | 7.0m/s | -44.8°C | 3.0% | 14.2hPa | 2.6V | 00:00:00 | 01:54:13 | 00:00:00 | |
| IW2NTF | 2026-09-02 00:23:05 | 48.84049 | 10.05669 | 167° | 16km/h | 29078m | 6.5m/s | -44.9°C | 3% | 14.4hPa | 2.6V | 08:30:00 | 01:54:05 | 00:00:00 | |
| DO3MHA-12 | 2026-09-02 00:23:05 | 48.84042 | 10.05681 | 35° | 15km/h | 29107m | 5.8m/s | -44.8°C | 3.0% | 14.3hPa | 2.6V | 00:00:00 | 01:54:10 | 00:00:00 | |
| DM0DOS-11 | 2026-09-02 00:23:04 | 48.84045 | 10.05671 | 161° | 16km/h | 29084m | 5.5m/s | -44.9°C | 3% | 14.4hPa | 2.6V | 08:30:00 | 01:54:06 | 00:00:00 | |
| DL1XH-west | 2026-09-02 00:23:04 | 48.84040 | 10.05679 | 61° | 7km/h | 29101m | 6.4m/s | -44.9°C | 0% | 14.3hPa | 2.6V | 18:12:15 | 01:54:09 | 00:00:00 | |
| AU51GT2 | 2026-09-02 00:23:04 | 48.84040 | 10.05676 | 119° | 7km/h | 29095m | 5.6m/s | -44.9°C | 0.8% | 14.3hPa | 2.6V | 00:00:00 | 00:00:00 | 00:00:00 | |
| DL1XH1-15 | 2026-09-02 00:23:03 | 48.84057 | 10.05667 | 159° | 15km/h | 29066m | 5.1m/s | -45°C | 3% | 14.4hPa | 2.6V | 08:30:00 | 01:54:03 | 00:00:00 | |
| DK7TD | 2026-09-02 00:23:02 | 48.84042 | 10.05673 | 150° | 13km/h | 29090m | 5.2m/s | -44.9°C | 0.1% | 14.4hPa | 2.7V | 18:12:15 | 01:54:07 | 00:00:00 | |
| DF8AY | 2026-09-02 00:22:58 | 48.84057 | 10.05667 | 160° | 15km/h | 29066m | 5.1m/s | -45°C | 0% | 14.4hPa | 2.6V | 18:12:15 | 01:54:03 | 00:00:00 | |
| DL1XH-west | 2026-09-02 00:22:53 | 48.84068 | 10.05634 | 92° | 24km/h | 29037m | 5m/s | -44.9°C | 0% | 14.5hPa | 2.6V | 18:12:15 | 01:53:58 | 00:00:00 | |
| IW2NTF | 2026-09-02 00:22:52 | 48.84065 | 10.05611 | 81° | 4km/h | 29014m | 5.3m/s | -44.9°C | 3% | 14.5hPa | 2.6V | 08:30:00 | 01:53:54 | 00:00:00 | |
| DK7TD | 2026-09-02 00:22:52 | 48.84068 | 10.05625 | 83° | 22km/h | 29032m | 6.5m/s | -44.9°C | 0% | 14.5hPa | 2.6V | 18:12:15 | 01:53:57 | 00:00:00 | |
| DF8AY | 2026-09-02 00:22:48 | 48.84066 | 10.05610 | 139° | 5km/h | 29008m | 6.5m/s | -44.9°C | 0% | 14.6hPa | 2.6V | 18:12:15 | 01:53:53 | 00:00:00 | |
| DF7PN | 2026-09-02 00:22:45 | 48.84077 | 10.05600 | 145° | 16km/h | 28986m | 6.2m/s | -44.8°C | 0.7% | 14.6hPa | 2.7V | 00:00:00 | 00:00:00 | 00:00:00 | |
| DL6DJ-15 | 2026-09-02 00:22:44 | 48.84077 | 10.05600 | 145° | 16km/h | 28986m | 6.2m/s | -44.8°C | 0.7% | 14.6hPa | 2.7V | 00:00:00 | 00:00:00 | 00:00:00 | |
| DM0DOS-11 | 2026-09-02 00:22:43 | 48.84085 | 10.05588 | 117° | 15km/h | 28968m | 5.2m/s | -44.8°C | 2.9% | 14.6hPa | 2.7V | 08:30:00 | 01:53:46 | 00:00:00 | |
| DL1XH-west | 2026-09-02 00:22:43 | 48.84081 | 10.05596 | 138° | 15km/h | 28979m | 6.4m/s | -44.8°C | 0% | 14.6hPa | 2.6V | 18:12:15 | 01:53:48 | 00:00:00 | |
| DK7TD | 2026-09-02 00:22:41 | 48.84085 | 10.05588 | 117° | 15km/h | 28968m | 5.3m/s | -44.8°C | 0% | 14.6hPa | 2.7V | 18:12:15 | 01:53:46 | 00:00:00 | |
| OE5DXL-15 | 2026-09-02 00:22:41 | 48.84085 | 10.05588 | 118° | 16km/h | 28968m | 5.2m/s | -44.8°C | 2.9% | 14.6hPa | 2.6V | 00:00:00 | 00:00:00 | 00:00:00 | |
| DO3MHA-11 | 2026-09-02 00:22:40 | 48.84086 | 10.05582 | 113° | 15km/h | 28962m | 5.6m/s | -44.8°C | 2.9% | 14.6hPa | 2.6V | 00:00:00 | 01:53:45 | 00:00:00 | |
| DL4BBY-15 | 2026-09-02 00:22:39 | 48.84088 | 10.05575 | 114° | 16km/h | 28956m | 6.8m/s | -44.4°C | 0% | 0hPa | 2.6V | 00:00:00 | 00:00:00 | 00:00:00 | |
| IW2NTF | 2026-09-02 00:22:38 | 48.84093 | 10.05561 | 118° | 20km/h | 28944m | 4.9m/s | -45°C | 2.9% | 14.7hPa | 2.6V | 08:30:00 | 01:53:42 | 00:00:00 | |
| DF8AY | 2026-09-02 00:22:36 | 48.84097 | 10.05551 | 133° | 11km/h | 28932m | 6.9m/s | -45°C | 0% | 14.7hPa | 2.7V | 18:12:15 | 01:53:40 | 00:00:00 | |
| OE5DRO-10 | 2026-09-02 00:22:36 | 48.84095 | 10.05555 | 123° | 15km/h | 28939m | 5.9m/s | -45.0°C | 2.9% | 14.6hPa | 2.7V | 00:00:00 | 00:00:00 | 00:00:00 | |
| DO3MHA-12 | 2026-09-02 00:22:35 | 48.84097 | 10.05551 | 133° | 13km/h | 28933m | 6.8m/s | -45.0°C | 2.9% | 14.6hPa | 2.7V | 00:00:00 | 01:53:40 | 00:00:00 | |
| PG1ADW-2 | 2026-09-02 00:22:34 | 48.84099 | 10.05549 | 162° | 15km/h | 28926m | 5.7m/s | -45.0°C | 2.9% | 14.7hPa | 2.7V | 00:00:00 | 01:53:39 | 08:30:00 | |
| DM0DOS-11 | 2026-09-02 00:22:33 | 48.84105 | 10.05547 | 156° | 13km/h | 28908m | 6.3m/s | -45.2°C | 3% | 14.7hPa | 2.6V | 08:30:00 | 01:53:36 | 00:00:00 | |
| DL1XH1-15 | 2026-09-02 00:22:33 | 48.84114 | 10.05536 | 130° | 16km/h | 28891m | 6.7m/s | -45.4°C | 3% | 14.8hPa | 2.6V | 08:30:00 | 01:53:33 | 00:00:00 | |
| DL1XH-west | 2026-09-02 00:22:32 | 48.84103 | 10.05549 | 171° | 9km/h | 28915m | 6.4m/s | -45.1°C | 0% | 14.8hPa | 2.6V | 18:12:15 | 01:53:37 | 00:00:00 | |
| DK7TD | 2026-09-02 00:22:30 | 48.84108 | 10.05544 | 144° | 16km/h | 28902m | 5.6m/s | -45.2°C | 0% | 14.8hPa | 2.7V | 18:12:15 | 01:53:35 | 00:00:00 | |
| DJ2DS-15 | 2026-09-02 00:22:30 | 48.84108 | 10.05544 | 145° | 16km/h | 28903m | 5.5m/s | -45.2°C | 3.0% | 14.7hPa | 2.6V | 00:00:00 | 01:53:35 | 00:00:00 | |
| SONDE2-11 | 2026-09-02 00:22:29 | 48.84115 | 10.05536 | 130° | 16km/h | 28891m | 6.7m/s | -45.4°C | 0.8% | 14.8hPa | 2.6V | 00:00:00 | 00:00:00 | 00:00:00 | |
| OE5MMP-10 | 2026-09-02 00:22:28 | 48.84114 | 10.05536 | 131° | 18km/h | 28891m | 6.6m/s | -45.3°C | 3.0% | 14.7hPa | 2.6V | 00:00:00 | 01:53:33 | 00:00:00 | |
| DG9SBQ-11 | 2026-09-02 00:22:26 | 48.84117 | 10.05531 | 125° | 15km/h | 28885m | 6.3m/s | -45.5°C | 0.8% | 14.8hPa | 2.6V | 00:00:00 | 00:00:00 | 00:00:00 | |
| DM0DOS-11 | 2026-09-02 00:22:25 | 48.84134 | 10.05491 | 134° | 20km/h | 28850m | 5.9m/s | -45.7°C | 3.1% | 14.9hPa | 2.6V | 08:30:00 | 01:53:26 | 00:00:00 | |
| DF8AY | 2026-09-02 00:22:24 | 48.84127 | 10.05505 | 123° | 24km/h | 28861m | 5.8m/s | -45.6°C | 0.1% | 14.8hPa | 2.6V | 18:12:15 | 01:53:28 | 00:00:00 | |
| DL1XH1-15 | 2026-09-02 00:22:24 | 48.84142 | 10.05482 | 160° | 9km/h | 28831m | 5.1m/s | -45.8°C | 3.1% | 14.9hPa | 2.7V | 08:30:00 | 01:53:23 | 00:00:00 | |
| IW2NTF | 2026-09-02 00:22:22 | 48.84145 | 10.05481 | 150° | 11km/h | 28826m | 6m/s | -45.8°C | 3.1% | 14.9hPa | 2.6V | 08:30:00 | 01:53:22 | 00:00:00 | |
| DL1XH-west | 2026-09-02 00:22:22 | 48.84130 | 10.05497 | 128° | 24km/h | 28855m | 5.1m/s | -45.6°C | 0% | 14.9hPa | 2.6V | 18:12:15 | 01:53:27 | 00:00:00 | |
| DK7TD | 2026-09-02 00:22:20 | 48.84137 | 10.05487 | 142° | 15km/h | 28843m | 7m/s | -45.7°C | 0.1% | 14.9hPa | 2.6V | 18:12:15 | 01:53:25 | 00:00:00 | |
| DO3MHA-11 | 2026-09-02 00:22:20 | 48.84137 | 10.05486 | 143° | 15km/h | 28844m | 7.0m/s | -45.7°C | 3.1% | 14.9hPa | 2.6V | 00:00:00 | 01:53:25 | 00:00:00 | |
| NBG1-10 | 2026-09-02 00:22:19 | 48.84140 | 10.05484 | 157° | 11km/h | 28837m | 5.8m/s | -45.7°C | 3.1% | 14.9hPa | 2.6V | 00:00:00 | 01:53:24 | 00:00:00 | |
| OE5MMP-10 | 2026-09-02 00:22:18 | 48.84142 | 10.05482 | 161° | 16km/h | 28832m | 5.0m/s | -45.7°C | 3.1% | 14.9hPa | 2.6V | 00:00:00 | 01:53:23 | 00:00:00 | |
| OE5DRO-10 | 2026-09-02 00:22:17 | 48.84145 | 10.05481 | 151° | 11km/h | 28826m | 5.9m/s | -45.7°C | 3.1% | 14.9hPa | 2.6V | 00:00:00 | 00:00:00 | 00:00:00 | |
| OE5WHR-10 | 2026-09-02 00:22:16 | 48.84147 | 10.05478 | 136° | 11km/h | 28820m | 6.2m/s | -45.8°C | 3.1% | 14.9hPa | 2.6V | 00:00:00 | 00:00:00 | 00:00:00 | |
| DO3MHA-12 | 2026-09-02 00:22:15 | 48.84149 | 10.05473 | 122° | 16km/h | 28814m | 5.1m/s | -45.8°C | 3.1% | 14.9hPa | 2.6V | 00:00:00 | 01:53:20 | 00:00:00 | |
| DF7PN | 2026-09-02 00:22:14 | 48.84152 | 10.05461 | 95° | 16km/h | 28803m | 6.5m/s | -45.9°C | 0.8% | 15.0hPa | 2.6V | 00:00:00 | 00:00:00 | 00:00:00 | |
| DM0DOS-11 | 2026-09-02 00:22:13 | 48.84151 | 10.05448 | 71° | 18km/h | 28790m | 5.7m/s | -45.9°C | 3.1% | 15hPa | 2.6V | 08:30:00 | 01:53:16 | 00:00:00 | |
| DL1XH1-15 | 2026-09-02 00:22:13 | 48.84148 | 10.05429 | 86° | 16km/h | 28772m | 5.6m/s | -45.9°C | 3.1% | 15.1hPa | 2.6V | 08:30:00 | 01:53:13 | 00:00:00 | |
| DF8AY | 2026-09-02 00:22:13 | 48.84147 | 10.05417 | 332° | 4km/h | 28743m | 4.7m/s | -45.9°C | 0.1% | 15.1hPa | 2.7V | 18:12:15 | 01:53:08 | 00:00:00 | |
| IW2NTF | 2026-09-02 00:22:12 | 48.84148 | 10.05423 | 92° | 13km/h | 28767m | 4.9m/s | -45.9°C | 3.2% | 15.1hPa | 2.6V | 08:30:00 | 01:53:12 | 00:00:00 | |
| DL1XH-west | 2026-09-02 00:22:11 | 48.84151 | 10.05448 | 71° | 18km/h | 28790m | 5.7m/s | -45.9°C | 0.1% | 15hPa | 2.6V | 18:12:15 | 01:53:16 | 00:00:00 | |
| DK7TD | 2026-09-02 00:22:09 | 48.84149 | 10.05435 | 77° | 16km/h | 28778m | 6.5m/s | -45.9°C | 0.1% | 15.1hPa | 2.7V | 18:12:15 | 01:53:14 | 00:00:00 | |
| OE5MMP-10 | 2026-09-02 00:22:08 | 48.84148 | 10.05429 | 87° | 5km/h | 28773m | 5.5m/s | -45.8°C | 3.1% | 15.0hPa | 2.6V | 00:00:00 | 01:53:13 | 00:00:00 | |
| DO3MHA-12 | 2026-09-02 00:22:05 | 48.84148 | 10.05417 | 78° | 4km/h | 28756m | 7.0m/s | -45.8°C | 3.1% | 15.0hPa | 2.6V | 00:00:00 | 01:53:10 | 00:00:00 | |
| DF1GD-15 | 2026-09-02 00:22:04 | 48.84148 | 10.05417 | 78° | 4km/h | 28756m | 7.1m/s | -45.9°C | 0.8% | 15.1hPa | 2.6V | 00:00:00 | 00:00:00 | 00:00:00 | |
| DM0DOS-11 | 2026-09-02 00:22:03 | 48.84146 | 10.05417 | 121° | 2km/h | 28733m | 6m/s | -45.9°C | 3.2% | 15.2hPa | 2.6V | 08:30:00 | 01:53:06 | 00:00:00 | |
| DL1XH1-15 | 2026-09-02 00:22:03 | 48.84148 | 10.05413 | 112° | 5km/h | 28716m | 5.5m/s | -45.9°C | 3.2% | 15.2hPa | 2.7V | 08:30:00 | 01:53:03 | 00:00:00 | |
| DL1XH-west | 2026-09-02 00:22:00 | 48.84147 | 10.05416 | 131° | 5km/h | 28727m | 5.8m/s | -45.9°C | 0.1% | 15.2hPa | 2.6V | 18:12:15 | 01:53:05 | 00:00:00 | |
| DF8AY | 2026-09-02 00:21:59 | 48.84148 | 10.05414 | 127° | 7km/h | 28721m | 5m/s | -45.9°C | 0.1% | 15.2hPa | 2.6V | 18:12:15 | 01:53:04 | 00:00:00 | |
| DK7TD | 2026-09-02 00:21:58 | 48.84148 | 10.05413 | 112° | 5km/h | 28716m | 5.5m/s | -45.9°C | 0.1% | 15.2hPa | 2.7V | 18:12:15 | 01:53:03 | 00:00:00 | |
| DF3TZ-5 | 2026-09-02 00:21:58 | 48.84148 | 10.05411 | 65° | 4km/h | 28710m | 6.9m/s | -45.9°C | 0.8% | 15.2hPa | 2.6V | 00:00:00 | 00:00:00 | 00:00:00 | |
| SONDE2-11 | 2026-09-02 00:21:57 | 48.84148 | 10.05411 | 65° | 4km/h | 28710m | 6.9m/s | -45.9°C | 0.8% | 15.2hPa | 2.6V | 00:00:00 | 00:00:00 | 00:00:00 | |
| DL8DAS-14 | 2026-09-02 00:21:56 | 48.84146 | 10.05408 | 27° | 9km/h | 28698m | 5.6m/s | -45.9°C | 0.8% | 15.2hPa | 2.6V | 00:00:00 | 00:00:00 | 00:00:00 | |
| DM0DOS-11 | 2026-09-02 00:21:55 | 48.84135 | 10.05396 | 28° | 16km/h | 28675m | 5.7m/s | -45.8°C | 3.2% | 15.3hPa | 2.6V | 08:30:00 | 01:52:56 | 00:00:00 | |
| DO3MHA-12 | 2026-09-02 00:21:55 | 48.84145 | 10.05408 | 28° | 13km/h | 28698m | 5.6m/s | -45.8°C | 3.2% | 15.2hPa | 2.6V | 00:00:00 | 01:53:00 | 00:00:00 | |
| PG1ADW-2 | 2026-09-02 00:21:54 | 48.84143 | 10.05406 | 36° | 9km/h | 28692m | 6.8m/s | -45.8°C | 3.2% | 15.2hPa | 2.6V | 00:00:00 | 00:00:00 | 00:00:00 | |
| DL1XH1-15 | 2026-09-02 00:21:53 | 48.84124 | 10.05392 | 5° | 15km/h | 28657m | 5.1m/s | -45.7°C | 3.1% | 15.3hPa | 2.6V | 08:30:00 | 01:52:53 | 00:00:00 | |
| DL1XH-west | 2026-09-02 00:21:49 | 48.84127 | 10.05393 | 7° | 16km/h | 28662m | 5.5m/s | -45.8°C | 0.1% | 15.3hPa | 2.6V | 18:12:15 | 01:52:54 | 00:00:00 | |
| DF8AY | 2026-09-02 00:21:48 | 48.84117 | 10.05380 | 351° | 5km/h | 28591m | 6m/s | -45.7°C | 0.1% | 15.5hPa | 2.7V | 18:12:15 | 01:52:42 | 00:00:00 | |
| DK7TD | 2026-09-02 00:21:47 | 48.84121 | 10.05392 | 16° | 9km/h | 28652m | 5.5m/s | -45.7°C | 0.1% | 15.3hPa | 2.7V | 18:12:15 | 01:52:52 | 00:00:00 | |
| NBG1-10 | 2026-09-02 00:21:46 | 48.84119 | 10.05390 | 57° | 7km/h | 28645m | 6.9m/s | -45.6°C | 3.1% | 15.3hPa | 2.6V | 00:00:00 | 01:52:51 | 00:00:00 | |
| DO3MHA-12 | 2026-09-02 00:21:45 | 48.84119 | 10.05388 | 109° | 7km/h | 28639m | 6.3m/s | -45.6°C | 3.1% | 15.3hPa | 2.6V | 00:00:00 | 01:52:50 | 08:30:00 | |
| DF1GD-15 | 2026-09-02 00:21:44 | 48.84119 | 10.05388 | 109° | 9km/h | 28639m | 6.4m/s | -45.7°C | 0.8% | 15.4hPa | 2.6V | 00:00:00 | 00:00:00 | 00:00:00 | |
| DL1XH1-15 | 2026-09-02 00:21:43 | 48.84118 | 10.05379 | 339° | 7km/h | 28598m | 6.9m/s | -45.6°C | 3.2% | 15.5hPa | 2.6V | 08:30:00 | 01:52:43 | 00:00:00 | |
| DL1XH-west | 2026-09-02 00:21:38 | 48.84118 | 10.05379 | 340° | 7km/h | 28598m | 6.9m/s | -45.7°C | 0.1% | 15.5hPa | 2.6V | 18:12:15 | 01:52:43 | 00:00:00 | |
| DK7TD | 2026-09-02 00:21:36 | 48.84116 | 10.05380 | 3° | 4km/h | 28586m | 5.1m/s | -45.6°C | 0.1% | 15.5hPa | 2.6V | 18:12:15 | 01:52:41 | 00:00:00 | |
| DO3MHA-12 | 2026-09-02 00:21:35 | 48.84114 | 10.05380 | 7° | 7km/h | 28581m | 5.3m/s | -45.6°C | 3.1% | 15.5hPa | 2.6V | 00:00:00 | 01:52:40 | 00:00:00 | |
| OE5WHR-10 | 2026-09-02 00:21:34 | 48.84113 | 10.05380 | 5° | 7km/h | 28575m | 6.6m/s | -45.6°C | 3.1% | 15.5hPa | 2.6V | 00:00:00 | 00:00:00 | 00:00:00 | |
| DL1XH1-15 | 2026-09-02 00:21:33 | 48.84109 | 10.05365 | 115° | 7km/h | 28540m | 4.7m/s | -45.5°C | 3.1% | 15.6hPa | 2.6V | 08:30:00 | 01:52:33 | 00:00:00 | |
| DL1XH-west | 2026-09-02 00:21:28 | 48.84109 | 10.05365 | 115° | 7km/h | 28541m | 4.7m/s | -45.5°C | 0.1% | 15.6hPa | 2.6V | 18:12:15 | 01:52:33 | 00:00:00 | |
| DK7TD | 2026-09-02 00:21:25 | 48.84110 | 10.05368 | 269° | 11km/h | 28522m | 5.6m/s | -45.5°C | 0.1% | 15.6hPa | 2.6V | 18:12:15 | 01:52:30 | 00:00:00 | |
| DO3MHA-12 | 2026-09-02 00:21:25 | 48.84110 | 10.05368 | 270° | 9km/h | 28523m | 5.5m/s | -45.4°C | 3.1% | 15.6hPa | 2.6V | 00:00:00 | 01:52:30 | 00:00:00 | |
| AZAK | 2026-09-02 00:21:24 | 48.84110 | 10.05375 | 250° | 9km/h | 28512m | 6.3m/s | -45.4°C | 0.8% | 15.7hPa | 2.6V | 00:00:00 | 00:00:00 | 00:00:00 | |
| DL1XH1-15 | 2026-09-02 00:21:23 | 48.84117 | 10.05370 | 112° | 7km/h | 28482m | 6.3m/s | -45.4°C | 3.1% | 15.7hPa | 2.6V | 08:30:00 | 01:52:23 | 00:00:00 | |
| DM0DOS-11 | 2026-09-02 00:21:23 | 48.84113 | 10.05377 | 156° | 7km/h | 28499m | 5.3m/s | -45.4°C | 3.1% | 15.7hPa | 2.7V | 08:30:00 | 01:52:26 | 00:00:00 | |
| DL1XH-west | 2026-09-02 00:21:18 | 48.84117 | 10.05370 | 113° | 7km/h | 28482m | 6.3m/s | -45.4°C | 0.1% | 15.8hPa | 2.6V | 18:12:15 | 01:52:23 | 00:00:00 | |
| DF8AY | 2026-09-02 00:21:17 | 48.84129 | 10.05347 | 164° | 11km/h | 28441m | 7m/s | -45.4°C | 0% | 15.8hPa | 2.6V | 18:12:15 | 01:52:16 | 00:00:00 | |
| DK7TD | 2026-09-02 00:21:15 | 48.84119 | 10.05361 | 119° | 11km/h | 28465m | 6m/s | -45.4°C | 0.1% | 15.8hPa | 2.7V | 18:12:15 | 01:52:20 | 00:00:00 | |
| DO3MHA-12 | 2026-09-02 00:21:15 | 48.84119 | 10.05361 | 120° | 13km/h | 28466m | 6.0m/s | -45.3°C | 3.1% | 15.7hPa | 2.7V | 00:00:00 | 01:52:20 | 00:00:00 | |
| PG1ADW-2 | 2026-09-02 00:21:14 | 48.84121 | 10.05357 | 129° | 15km/h | 28459m | 6.6m/s | -45.3°C | 3.1% | 15.7hPa | 2.6V | 00:00:00 | 01:52:19 | 00:00:00 | |
| DM0DOS-11 | 2026-09-02 00:21:13 | 48.84129 | 10.05347 | 164° | 11km/h | 28441m | 7m/s | -45.4°C | 3% | 15.8hPa | 2.6V | 08:30:00 | 01:52:16 | 00:00:00 | |
| NBG1-10 | 2026-09-02 00:21:13 | 48.84123 | 10.05353 | 138° | 15km/h | 28453m | 5.5m/s | -45.3°C | 3.1% | 15.8hPa | 2.6V | 00:00:00 | 01:52:18 | 00:00:00 | |
| DF7PN | 2026-09-02 00:21:12 | 48.84129 | 10.05347 | 164° | 11km/h | 28441m | 7.0m/s | -45.4°C | 0.8% | 15.8hPa | 2.7V | 00:00:00 | 00:00:00 | 00:00:00 | |
| DL6DJ-15 | 2026-09-02 00:21:11 | 48.84132 | 10.05347 | 188° | 9km/h | 28434m | 5.8m/s | -45.4°C | 0.8% | 15.9hPa | 2.7V | 00:00:00 | 00:00:00 | 00:00:00 | |
| DJ2DS-15 | 2026-09-02 00:21:10 | 48.84132 | 10.05347 | 189° | 15km/h | 28435m | 5.7m/s | -45.3°C | 3.1% | 15.8hPa | 2.7V | 00:00:00 | 01:52:15 | 08:30:00 | |
| DL1XH1-15 | 2026-09-02 00:21:09 | 48.84137 | 10.05349 | 194° | 11km/h | 28424m | 5.3m/s | -45.4°C | 3.1% | 15.9hPa | 2.6V | 08:30:00 | 01:52:13 | 00:00:00 | |
| DL1XH-west | 2026-09-02 00:21:08 | 48.84137 | 10.05349 | 194° | 11km/h | 28424m | 5.3m/s | -45.4°C | 0.1% | 15.9hPa | 2.6V | 18:12:15 | 01:52:13 | 00:00:00 | |
| DK7TD | 2026-09-02 00:21:04 | 48.84150 | 10.05342 | 134° | 16km/h | 28402m | 5.1m/s | -45.3°C | 0.1% | 15.9hPa | 2.6V | 18:12:15 | 01:52:09 | 00:00:00 | |
| DK5PH-5 | 2026-09-02 00:21:04 | 48.84150 | 10.05342 | 134° | 16km/h | 28402m | 5.0m/s | -45.3°C | 3.1% | 15.9hPa | 2.6V | 00:00:00 | 01:52:09 | 00:00:00 | |
| DM0DOS-11 | 2026-09-02 00:21:03 | 48.84154 | 10.05329 | 98° | 13km/h | 28383m | 5.4m/s | -45.3°C | 3.1% | 16hPa | 2.6V | 08:30:00 | 01:52:06 | 00:00:00 | |
| DL1XH1-15 | 2026-09-02 00:21:03 | 48.84158 | 10.05313 | 125° | 16km/h | 28366m | 5.5m/s | -45.2°C | 3% | 16hPa | 2.7V | 08:30:00 | 01:52:03 | 00:00:00 | |
| DF8AY | 2026-09-02 00:21:00 | 48.84155 | 10.05324 | 101° | 15km/h | 28378m | 5.7m/s | -45.3°C | 0% | 16hPa | 2.6V | 18:12:15 | 01:52:05 | 00:00:00 | |
| DL1XH-west | 2026-09-02 00:20:58 | 48.84158 | 10.05313 | 126° | 16km/h | 28366m | 5.5m/s | -45.2°C | 0% | 16hPa | 2.7V | 18:12:15 | 01:52:03 | 00:00:00 | |
| SONDE2-11 | 2026-09-02 00:20:55 | 48.84168 | 10.05305 | 181° | 15km/h | 28348m | 6.4m/s | -45.2°C | 0.8% | 16.1hPa | 2.6V | 00:00:00 | 00:00:00 | 00:00:00 | |
| DM0DOS-11 | 2026-09-02 00:20:54 | 48.84185 | 10.05305 | 158° | 20km/h | 28324m | 5.6m/s | -45.3°C | 3.1% | 16.1hPa | 2.6V | 08:30:00 | 01:51:56 | 00:00:00 | |
| DK7TD | 2026-09-02 00:20:53 | 48.84176 | 10.05306 | 187° | 18km/h | 28337m | 5.7m/s | -45.3°C | 0% | 16.1hPa | 2.6V | 18:12:15 | 01:51:58 | 00:00:00 | |
| DF8AY | 2026-09-02 00:20:49 | 48.84194 | 10.05291 | 107° | 15km/h | 28307m | 6.8m/s | -45.5°C | 0.1% | 16.2hPa | 2.7V | 18:12:15 | 01:51:53 | 00:00:00 | |
| DL1XH-west | 2026-09-02 00:20:47 | 48.84195 | 10.05285 | 90° | 15km/h | 28301m | 5.6m/s | -45.5°C | 0.1% | 16.2hPa | 2.6V | 18:12:15 | 01:51:52 | 00:00:00 | |
| OE5MMP-10 | 2026-09-02 00:20:46 | 48.84195 | 10.05280 | 88° | 15km/h | 28296m | 4.8m/s | -45.4°C | 3.1% | 16.2hPa | 2.6V | 00:00:00 | 01:51:51 | 00:00:00 | |
| DO3MHA-12 | 2026-09-02 00:20:45 | 48.84195 | 10.05273 | 95° | 15km/h | 28291m | 5.9m/s | -45.4°C | 3.1% | 16.1hPa | 2.6V | 00:00:00 | 01:51:50 | 00:00:00 | |
| DM0DOS-11 | 2026-09-02 00:20:44 | 48.84204 | 10.05251 | 145° | 16km/h | 28267m | 6.4m/s | -45.4°C | 3.1% | 16.3hPa | 2.6V | 08:30:00 | 01:51:46 | 00:00:00 | |
| DK7TD | 2026-09-02 00:20:43 | 48.84198 | 10.05261 | 123° | 18km/h | 28278m | 5.4m/s | -45.4°C | 0.1% | 16.3hPa | 2.7V | 18:12:15 | 01:51:48 | 00:00:00 | |
| DF8AY | 2026-09-02 00:20:38 | 48.84213 | 10.05245 | 153° | 13km/h | 28249m | 5.2m/s | -45.4°C | 0.1% | 16.3hPa | 2.7V | 18:12:15 | 01:51:43 | 00:00:00 | |
| DL1XH-west | 2026-09-02 00:20:36 | 48.84218 | 10.05238 | 123° | 16km/h | 28237m | 5.6m/s | -45.4°C | 0.1% | 16.4hPa | 2.6V | 18:12:15 | 01:51:41 | 00:00:00 | |
| DK7TD | 2026-09-02 00:20:32 | 48.84218 | 10.05214 | 65° | 18km/h | 28214m | 5m/s | -45.3°C | 0% | 16.4hPa | 2.7V | 18:12:15 | 01:51:37 | 00:00:00 | |
| DF8AY | 2026-09-02 00:20:28 | 48.84219 | 10.05181 | 130° | 16km/h | 28184m | 6.5m/s | -45.2°C | 0% | 16.5hPa | 2.7V | 18:12:15 | 01:51:32 | 00:00:00 | |
| DL1XH-west | 2026-09-02 00:20:26 | 48.84222 | 10.05177 | 140° | 15km/h | 28178m | 6.4m/s | -45.2°C | 0% | 16.5hPa | 2.6V | 18:12:15 | 01:51:31 | 00:00:00 | |
| DJTTGO | 2026-09-02 00:20:25 | 48.84225 | 10.05173 | 144° | 13km/h | 28172m | 4.9m/s | -45.2°C | 0.8% | 16.5hPa | 2.6V | 00:00:00 | 00:00:00 | 00:00:00 | |
| DF3TZ-5 | 2026-09-02 00:20:24 | 48.84227 | 10.05170 | 137° | 13km/h | 28167m | 5.3m/s | -45.2°C | 0.7% | 16.5hPa | 2.6V | 00:00:00 | 00:00:00 | 00:00:00 | |
| DL1XH1-15 | 2026-09-02 00:20:23 | 48.84225 | 10.05137 | 38° | 20km/h | 28131m | 5.4m/s | -45.2°C | 2.9% | 16.6hPa | 2.6V | 08:30:00 | 01:51:23 | 00:00:00 | |
| OE5MMP-10 | 2026-09-02 00:20:23 | 48.84230 | 10.05166 | 127° | 16km/h | 28161m | 6.4m/s | -45.1°C | 2.9% | 16.5hPa | 2.6V | 00:00:00 | 01:51:28 | 08:30:00 | |
| DM0DOS-11 | 2026-09-02 00:20:22 | 48.84232 | 10.05154 | 88° | 16km/h | 28150m | 5.5m/s | -45.2°C | 2.9% | 16.6hPa | 2.6V | 08:30:00 | 01:51:26 | 00:00:00 | |
| DK7TD | 2026-09-02 00:20:22 | 48.84232 | 10.05161 | 109° | 16km/h | 28155m | 5.3m/s | -45.2°C | 0% | 16.5hPa | 2.7V | 18:12:15 | 01:51:27 | 00:00:00 | |
| BIOWL1-15 | 2026-09-02 00:20:16 | 48.84221 | 10.05108 | 148° | 13km/h | 28097m | 6.7m/s | 0°C | 0% | 0hPa | 2.6V | 18:12:15 | 01:51:17 | 00:00:00 | |
| DL1XH-west | 2026-09-02 00:20:15 | 48.84217 | 10.05122 | 78° | 15km/h | 28114m | 6.1m/s | -45.3°C | 0% | 16.6hPa | 2.6V | 18:12:15 | 01:51:20 | 00:00:00 | |
| DO3MHA-12 | 2026-09-02 00:20:15 | 48.84217 | 10.05122 | 78° | 11km/h | 28115m | 6.0m/s | -45.2°C | 2.9% | 16.6hPa | 2.6V | 00:00:00 | 01:51:20 | 08:30:00 | |
| PG1ADW-2 | 2026-09-02 00:20:14 | 48.84217 | 10.05117 | 107° | 11km/h | 28109m | 5.1m/s | -45.3°C | 2.9% | 16.6hPa | 2.6V | 00:00:00 | 00:00:00 | 00:00:00 | |
| DL1XH1-15 | 2026-09-02 00:20:13 | 48.84232 | 10.05106 | 154° | 7km/h | 28074m | 5.6m/s | -45.8°C | 3% | 16.8hPa | 2.6V | 08:30:00 | 01:51:13 | 00:00:00 | |
| OE5MMP-10 | 2026-09-02 00:20:13 | 48.84219 | 10.05112 | 128° | 11km/h | 28104m | 5.6m/s | -45.3°C | 2.9% | 16.6hPa | 2.7V | 00:00:00 | 01:51:18 | 00:00:00 | |
| DM0DOS-11 | 2026-09-02 00:20:12 | 48.84224 | 10.05107 | 168° | 13km/h | 28091m | 6.5m/s | -45.6°C | 2.9% | 16.7hPa | 2.7V | 08:30:00 | 01:51:16 | 00:00:00 | |
| DK7TD | 2026-09-02 00:20:11 | 48.84224 | 10.05107 | 169° | 13km/h | 28091m | 6.5m/s | -45.6°C | 0% | 16.7hPa | 2.7V | 18:12:15 | 01:51:16 | 00:00:00 | |
| DL1XH-west | 2026-09-02 00:20:05 | 48.84231 | 10.05091 | 47° | 15km/h | 28050m | 6.9m/s | -46.2°C | 0.1% | 16.8hPa | 2.7V | 18:12:15 | 01:51:09 | 00:00:00 | |
| OE5DRO-10 | 2026-09-02 00:20:04 | 48.84231 | 10.05091 | 48° | 13km/h | 28050m | 6.9m/s | -46.2°C | 3.1% | 16.8hPa | 2.6V | 00:00:00 | 00:00:00 | 00:00:00 | |
| DL1XH1-15 | 2026-09-02 00:20:03 | 48.84218 | 10.05078 | 139° | 2km/h | 28014m | 5.4m/s | -46.4°C | 3.1% | 16.9hPa | 2.6V | 08:30:00 | 01:51:03 | 00:00:00 | |
| BIOWL1-15 | 2026-09-02 00:20:03 | 48.84228 | 10.05088 | 29° | 15km/h | 28043m | 6.2m/s | 0°C | 0% | 0hPa | 2.6V | 18:12:15 | 01:51:08 | 00:00:00 | |
| DM0DOS-11 | 2026-09-02 00:20:02 | 48.84222 | 10.05083 | 24° | 13km/h | 28032m | 5.8m/s | -46.4°C | 3.1% | 16.9hPa | 2.6V | 08:30:00 | 01:51:06 | 00:00:00 | |
| DK7TD | 2026-09-02 00:20:00 | 48.84219 | 10.05081 | 35° | 9km/h | 28026m | 6.4m/s | -46.4°C | 0.1% | 16.9hPa | 2.7V | 18:12:15 | 01:51:05 | 00:00:00 | |
| DL1XH-west | 2026-09-02 00:19:54 | 48.84224 | 10.05083 | 185° | 9km/h | 27992m | 5.1m/s | -46.7°C | 0.1% | 17hPa | 2.7V | 18:12:15 | 01:50:59 | 00:00:00 | |
| PG1ADW-2 | 2026-09-02 00:19:54 | 48.84224 | 10.05083 | 186° | 11km/h | 27993m | 5.1m/s | -46.6°C | 3.1% | 16.9hPa | 2.7V | 00:00:00 | 01:50:59 | 00:00:00 | |
| DL1XH1-15 | 2026-09-02 00:19:53 | 48.84226 | 10.05060 | 40° | 18km/h | 27955m | 5.4m/s | -46.9°C | 3.2% | 17.1hPa | 2.7V | 08:30:00 | 01:50:53 | 00:00:00 | |
| OE5MMP-10 | 2026-09-02 00:19:53 | 48.84227 | 10.05082 | 158° | 15km/h | 27986m | 6.9m/s | -46.7°C | 3.2% | 16.9hPa | 2.6V | 00:00:00 | 01:50:58 | 00:00:00 | |
| DM0DOS-11 | 2026-09-02 00:19:52 | 48.84230 | 10.05075 | 99° | 15km/h | 27974m | 5.2m/s | -46.8°C | 3.2% | 17hPa | 2.6V | 08:30:00 | 01:50:56 | 00:00:00 | |
| DK7TD | 2026-09-02 00:19:50 | 48.84230 | 10.05069 | 78° | 15km/h | 27968m | 6.6m/s | -46.8°C | 0.1% | 17hPa | 2.6V | 18:12:15 | 01:50:55 | 00:00:00 | |
| DF8AY | 2026-09-02 00:19:43 | 48.84213 | 10.05041 | 42° | 4km/h | 27927m | 7.1m/s | -47°C | 0.1% | 17.2hPa | 2.6V | 18:12:15 | 01:50:48 | 00:00:00 | |
| DL1XH1-15 | 2026-09-02 00:19:43 | 48.84215 | 10.05038 | 101° | 9km/h | 27897m | 4.8m/s | -47.2°C | 3.3% | 17.2hPa | 2.7V | 08:30:00 | 01:50:43 | 00:00:00 | |
| OE5MMP-10 | 2026-09-02 00:19:43 | 48.84213 | 10.05041 | 42° | 5km/h | 27927m | 7.0m/s | -47.0°C | 3.2% | 17.1hPa | 2.6V | 00:00:00 | 01:50:48 | 00:00:00 | |
| DM0DOS-11 | 2026-09-02 00:19:42 | 48.84213 | 10.05041 | 223° | 4km/h | 27914m | 5.2m/s | -47.1°C | 3.2% | 17.2hPa | 2.6V | 08:30:00 | 01:50:46 | 00:00:00 | |
| DK7TD | 2026-09-02 00:19:39 | 48.84214 | 10.05041 | 130° | 5km/h | 27902m | 6.3m/s | -47.2°C | 0.2% | 17.2hPa | 2.6V | 18:12:15 | 01:50:44 | 00:00:00 | |
| DL1XH-west | 2026-09-02 00:19:33 | 48.84210 | 10.05027 | 21° | 5km/h | 27869m | 5.2m/s | -47.3°C | 0.2% | 17.3hPa | 2.7V | 18:12:15 | 01:50:38 | 00:00:00 | |
| OE5MMP-10 | 2026-09-02 00:19:33 | 48.84210 | 10.05027 | 22° | 5km/h | 27869m | 5.2m/s | -47.2°C | 3.3% | 17.2hPa | 2.6V | 00:00:00 | 01:50:38 | 00:00:00 | |
| DM0DOS-11 | 2026-09-02 00:19:32 | 48.84208 | 10.05024 | 95° | 5km/h | 27857m | 6.4m/s | -47.4°C | 3.3% | 17.3hPa | 2.6V | 08:30:00 | 01:50:36 | 00:00:00 | |
| DF8AY | 2026-09-02 00:19:31 | 48.84208 | 10.05024 | 96° | 5km/h | 27857m | 6.4m/s | -47.4°C | 0.2% | 17.3hPa | 2.6V | 18:12:15 | 01:50:36 | 00:00:00 | |
| DK7TD | 2026-09-02 00:19:29 | 48.84209 | 10.05021 | 130° | 5km/h | 27846m | 5.2m/s | -47.4°C | 0.2% | 17.4hPa | 2.6V | 18:12:15 | 01:50:34 | 00:00:00 | |
| DL1XH-west | 2026-09-02 00:19:23 | 48.84205 | 10.05016 | 34° | 13km/h | 27810m | 4.9m/s | -47.5°C | 0.2% | 17.4hPa | 2.6V | 18:12:15 | 01:50:28 | 00:00:00 | |
| DL1XH1-15 | 2026-09-02 00:19:23 | 48.84191 | 10.05009 | 39° | 7km/h | 27783m | 5.6m/s | -47.8°C | 3.4% | 17.5hPa | 2.6V | 08:30:00 | 01:50:23 | 00:00:00 | |
| OE5MMP-10 | 2026-09-02 00:19:23 | 48.84205 | 10.05016 | 35° | 11km/h | 27811m | 4.8m/s | -47.5°C | 3.3% | 17.4hPa | 2.6V | 00:00:00 | 01:50:28 | 00:00:00 | |
| DM0DOS-11 | 2026-09-02 00:19:22 | 48.84199 | 10.05011 | 14° | 13km/h | 27799m | 6.7m/s | -47.6°C | 3.3% | 17.5hPa | 2.7V | 08:30:00 | 01:50:26 | 00:00:00 | |
| DF8AY | 2026-09-02 00:19:20 | 48.84195 | 10.05010 | 7° | 13km/h | 27793m | 5.2m/s | -47.7°C | 0.3% | 17.5hPa | 2.6V | 18:12:15 | 01:50:25 | 00:00:00 | |
| DK7TD | 2026-09-02 00:19:18 | 48.84191 | 10.05009 | 40° | 7km/h | 27783m | 5.6m/s | -47.8°C | 0.3% | 17.5hPa | 2.6V | 18:12:15 | 01:50:23 | 00:00:00 | |
| DJ2DS-15 | 2026-09-02 00:19:18 | 48.84190 | 10.05006 | 81° | 7km/h | 27777m | 6.4m/s | -47.8°C | 0.9% | 17.5hPa | 2.7V | 00:00:00 | 00:00:00 | 00:00:00 | |
| DJ8HS-15 | 2026-09-02 00:19:17 | 48.84190 | 10.05006 | 82° | 9km/h | 27777m | 6.4m/s | -47.7°C | 3.4% | 17.5hPa | 2.7V | 00:00:00 | 01:50:22 | 00:00:00 | |
| DO9HM | 2026-09-02 00:19:16 | 48.84190 | 10.05006 | 83° | 7km/h | 27777m | 6.4m/s | -47.8°C | 0.9% | 17.5hPa | 2.6V | 00:00:00 | 00:00:00 | 00:00:00 | |
| DO3MHA-12 | 2026-09-02 00:19:15 | 48.84192 | 10.04999 | 119° | 7km/h | 27765m | 5.1m/s | -47.7°C | 3.4% | 17.5hPa | 2.6V | 00:00:00 | 01:50:20 | 00:00:00 | |
| PG1ADW-2 | 2026-09-02 00:19:14 | 48.84193 | 10.04996 | 130° | 9km/h | 27760m | 6.5m/s | -47.8°C | 3.4% | 17.5hPa | 2.6V | 00:00:00 | 00:00:00 | 00:00:00 | |
| DL1XH1-15 | 2026-09-02 00:19:13 | 48.84202 | 10.04983 | 118° | 9km/h | 27725m | 5.4m/s | -47.8°C | 3.4% | 17.7hPa | 2.6V | 08:30:00 | 01:50:13 | 00:00:00 | |
| DL1XH-west | 2026-09-02 00:19:13 | 48.84196 | 10.04993 | 153° | 7km/h | 27748m | 4.9m/s | -47.8°C | 0.3% | 17.6hPa | 2.6V | 18:12:15 | 01:50:17 | 00:00:00 | |
| DF8AY | 2026-09-02 00:19:10 | 48.84199 | 10.04989 | 133° | 9km/h | 27736m | 6.6m/s | -47.8°C | 0.3% | 17.6hPa | 2.7V | 18:12:15 | 01:50:15 | 00:00:00 | |
| DK7TD | 2026-09-02 00:19:08 | 48.84202 | 10.04983 | 119° | 9km/h | 27725m | 5.4m/s | -47.8°C | 0.3% | 17.7hPa | 2.6V | 18:12:15 | 01:50:13 | 00:00:00 | |
| OE5WHR-10 | 2026-09-02 00:19:08 | 48.84203 | 10.04980 | 113° | 11km/h | 27719m | 6.6m/s | -47.8°C | 3.4% | 17.6hPa | 2.7V | 00:00:00 | 00:00:00 | 00:00:00 | |
| DL6DJ-15 | 2026-09-02 00:19:07 | 48.84203 | 10.04978 | 101° | 4km/h | 27713m | 5.9m/s | -47.8°C | 0.9% | 17.7hPa | 2.7V | 00:00:00 | 00:00:00 | 00:00:00 | |
| DM0DOS-11 | 2026-09-02 00:19:05 | 48.84207 | 10.04961 | 115° | 16km/h | 27685m | 5m/s | -47.9°C | 3.4% | 17.8hPa | 2.7V | 08:30:00 | 01:50:06 | 00:00:00 | |
| DO3MHA-12 | 2026-09-02 00:19:05 | 48.84203 | 10.04977 | 100° | 11km/h | 27708m | 4.6m/s | -47.8°C | 3.5% | 17.7hPa | 2.6V | 00:00:00 | 01:50:10 | 00:00:00 | |
| EDDB2-11 | 2026-09-02 00:19:04 | 48.84204 | 10.04974 | 100° | 5km/h | 27703m | 5.5m/s | -47.9°C | 0.8% | 17.7hPa | 2.6V | 00:00:00 | 00:00:00 | 00:00:00 | |
| DL1XH1-15 | 2026-09-02 00:19:03 | 48.84212 | 10.04949 | 136° | 9km/h | 27667m | 5.6m/s | -47.9°C | 3.4% | 17.8hPa | 2.6V | 08:30:00 | 01:50:03 | 00:00:00 | |
| DL1XH-west | 2026-09-02 00:19:01 | 48.84207 | 10.04961 | 116° | 16km/h | 27685m | 5m/s | -47.9°C | 0.3% | 17.8hPa | 2.7V | 18:12:15 | 01:50:06 | 00:00:00 | |
| DF8AY | 2026-09-02 00:18:59 | 48.84218 | 10.04941 | 131° | 13km/h | 27649m | 6.2m/s | -48°C | 0.3% | 17.9hPa | 2.7V | 18:12:15 | 01:50:00 | 00:00:00 | |
| DK7TD | 2026-09-02 00:18:58 | 48.84212 | 10.04949 | 136° | 9km/h | 27667m | 5.6m/s | -47.9°C | 0.3% | 17.8hPa | 2.6V | 18:12:15 | 01:50:03 | 00:00:00 | |
| DJ8HS-15 | 2026-09-02 00:18:57 | 48.84214 | 10.04946 | 142° | 15km/h | 27662m | 5.4m/s | -47.9°C | 3.4% | 17.8hPa | 2.6V | 00:00:00 | 01:50:02 | 00:00:00 | |
| DM0DOS-11 | 2026-09-02 00:18:55 | 48.84223 | 10.04926 | 96° | 9km/h | 27626m | 5.5m/s | -48°C | 3.4% | 17.9hPa | 2.6V | 08:30:00 | 01:49:56 | 00:00:00 | |
| DO3MHA-12 | 2026-09-02 00:18:55 | 48.84218 | 10.04941 | 131° | 13km/h | 27650m | 6.2m/s | -47.9°C | 3.5% | 17.8hPa | 2.6V | 00:00:00 | 01:50:00 | 00:00:00 | |
| PG1ADW-2 | 2026-09-02 00:18:54 | 48.84220 | 10.04937 | 125° | 15km/h | 27644m | 4.8m/s | -47.9°C | 3.5% | 17.8hPa | 2.6V | 00:00:00 | 00:00:00 | 00:00:00 | |
| DL1XH1-15 | 2026-09-02 00:18:53 | 48.84224 | 10.04911 | 100° | 18km/h | 27609m | 5.6m/s | -47.9°C | 3.5% | 18hPa | 2.6V | 08:30:00 | 01:49:53 | 00:00:00 | |
| DL1XH-west | 2026-09-02 00:18:51 | 48.84223 | 10.04926 | 96° | 9km/h | 27626m | 5.5m/s | -48°C | 0.3% | 17.9hPa | 2.6V | 18:12:15 | 01:49:56 | 00:00:00 | |
| DK7TD | 2026-09-02 00:18:47 | 48.84225 | 10.04904 | 106° | 18km/h | 27604m | 4.5m/s | -47.9°C | 0.3% | 18hPa | 2.6V | 18:12:15 | 01:49:52 | 00:00:00 | |
| DG9SBQ-11 | 2026-09-02 00:18:47 | 48.84225 | 10.04904 | 107° | 18km/h | 27604m | 4.5m/s | -47.9°C | 0.9% | 18.0hPa | 2.6V | 00:00:00 | 00:00:00 | 00:00:00 | |
| OE5WHR-10 | 2026-09-02 00:18:46 | 48.84227 | 10.04897 | 112° | 15km/h | 27599m | 5.7m/s | -47.9°C | 3.4% | 18.0hPa | 2.6V | 00:00:00 | 01:49:51 | 00:00:00 | |
| DM0DOS-11 | 2026-09-02 00:18:45 | 48.84241 | 10.04881 | 156° | 20km/h | 27569m | 5.7m/s | -47.8°C | 3.4% | 18.1hPa | 2.6V | 08:30:00 | 01:49:46 | 00:00:00 | |
| DF8AY | 2026-09-02 00:18:44 | 48.84230 | 10.04889 | 143° | 13km/h | 27587m | 5.5m/s | -47.8°C | 0.3% | 18.1hPa | 2.7V | 18:12:15 | 01:49:49 | 00:00:00 | |
| DL1XH1-15 | 2026-09-02 00:18:43 | 48.84253 | 10.04871 | 144° | 13km/h | 27555m | 6.3m/s | -47.8°C | 3.4% | 18.1hPa | 2.7V | 08:30:00 | 01:49:43 | 00:00:00 | |
| DL1XH-west | 2026-09-02 00:18:40 | 48.84246 | 10.04878 | 152° | 20km/h | 27564m | 4.4m/s | -47.8°C | 0.3% | 18.1hPa | 2.6V | 18:12:15 | 01:49:45 | 00:00:00 | |
| DK7TD | 2026-09-02 00:18:36 | 48.84256 | 10.04866 | 101° | 7km/h | 27543m | 5.1m/s | -47.7°C | 0.3% | 18.2hPa | 2.6V | 18:12:15 | 01:49:41 | 00:00:00 | |
| DO9HM | 2026-09-02 00:18:36 | 48.84256 | 10.04866 | 102° | 7km/h | 27543m | 5.1m/s | -47.7°C | 0.9% | 18.2hPa | 2.6V | 00:00:00 | 00:00:00 | 00:00:00 | |
| DM0DOS-11 | 2026-09-02 00:18:35 | 48.84261 | 10.04841 | 123° | 18km/h | 27516m | 5.6m/s | -47.7°C | 3.4% | 18.2hPa | 2.6V | 08:30:00 | 01:49:36 | 00:00:00 | |
| DF8AY | 2026-09-02 00:18:33 | 48.84257 | 10.04854 | 108° | 16km/h | 27526m | 6.1m/s | -47.7°C | 0.3% | 18.2hPa | 2.7V | 18:12:15 | 01:49:38 | 00:00:00 | |
| OE5MMP-10 | 2026-09-02 00:18:33 | 48.84257 | 10.04853 | 109° | 16km/h | 27527m | 6.0m/s | -47.6°C | 3.4% | 18.2hPa | 2.7V | 00:00:00 | 01:49:38 | 00:00:00 | |
| DL1XH1-15 | 2026-09-02 00:18:30 | 48.84269 | 10.04827 | 135° | 15km/h | 27499m | 4.6m/s | -47.7°C | 3.4% | 18.3hPa | 2.7V | 08:30:00 | 01:49:33 | 00:00:00 | |
| DL1XH-west | 2026-09-02 00:18:29 | 48.84267 | 10.04831 | 135° | 15km/h | 27504m | 5.1m/s | -47.7°C | 0.3% | 18.3hPa | 2.6V | 18:12:15 | 01:49:34 | 00:00:00 | |
| DK7TD | 2026-09-02 00:18:26 | 48.84275 | 10.04818 | 128° | 16km/h | 27488m | 5.4m/s | -47.7°C | 0.3% | 18.3hPa | 2.6V | 18:12:15 | 01:49:31 | 00:00:00 | |
| DO3MHA-12 | 2026-09-02 00:18:25 | 48.84277 | 10.04813 | 121° | 13km/h | 27483m | 4.7m/s | -47.7°C | 3.4% | 18.3hPa | 2.6V | 00:00:00 | 01:49:30 | 00:00:00 | |
| DL1XH1-15 | 2026-09-02 00:18:23 | 48.84278 | 10.04786 | 117° | 18km/h | 27445m | 5.6m/s | -47.7°C | 3.4% | 18.4hPa | 2.6V | 08:30:00 | 01:49:23 | 00:00:00 | |
| DF8AY | 2026-09-02 00:18:23 | 48.84279 | 10.04806 | 81° | 7km/h | 27471m | 6m/s | -47.7°C | 0.2% | 18.4hPa | 2.7V | 18:12:15 | 01:49:28 | 00:00:00 | |
| OE5MMP-10 | 2026-09-02 00:18:23 | 48.84279 | 10.04806 | 81° | 15km/h | 27472m | 6.0m/s | -47.6°C | 3.3% | 18.3hPa | 2.7V | 00:00:00 | 01:49:28 | 00:00:00 | |
| DM0DOS-11 | 2026-09-02 00:18:22 | 48.84277 | 10.04800 | 64° | 9km/h | 27462m | 3.8m/s | -47.7°C | 3.3% | 18.4hPa | 2.6V | 08:30:00 | 01:49:26 | 00:00:00 | |
| DL1XH-west | 2026-09-02 00:18:19 | 48.84278 | 10.04786 | 117° | 18km/h | 27445m | 5.6m/s | -47.7°C | 0.3% | 18.4hPa | 2.6V | 18:12:15 | 01:49:23 | 00:00:00 | |
| DK7TD | 2026-09-02 00:18:16 | 48.84284 | 10.04773 | 128° | 22km/h | 27435m | 5.6m/s | -47.7°C | 0.3% | 18.5hPa | 2.7V | 18:12:15 | 01:49:21 | 00:00:00 | |
| DF8AY | 2026-09-02 00:18:13 | 48.84299 | 10.04684 | 123° | 16km/h | 27348m | 5.9m/s | -48.2°C | 0.4% | 18.7hPa | 2.7V | 18:12:15 | 01:49:05 | 00:00:00 | |
| OE5MMP-10 | 2026-09-02 00:18:13 | 48.84293 | 10.04758 | 130° | 15km/h | 27419m | 4.6m/s | -47.7°C | 3.4% | 18.5hPa | 2.6V | 00:00:00 | 01:49:18 | 00:00:00 | |
| DG9SBQ-11 | 2026-09-02 00:18:12 | 48.84293 | 10.04758 | 131° | 15km/h | 27419m | 4.7m/s | -47.8°C | 0.9% | 18.5hPa | 2.6V | 00:00:00 | 00:00:00 | 00:00:00 | |
| OE5DXL-15 | 2026-09-02 00:18:11 | 48.84297 | 10.04748 | 116° | 16km/h | 27407m | 5.8m/s | -47.7°C | 3.3% | 18.5hPa | 2.6V | 00:00:00 | 00:00:00 | 00:00:00 | |
| DL1XH1-15 | 2026-09-02 00:18:10 | 48.84299 | 10.04731 | 77° | 13km/h | 27391m | 6.5m/s | -47.9°C | 3.4% | 18.6hPa | 2.6V | 08:30:00 | 01:49:13 | 00:00:00 | |
| DL1XH-west | 2026-09-02 00:18:08 | 48.84299 | 10.04731 | 77° | 13km/h | 27391m | 6.5m/s | -47.9°C | 0.3% | 18.6hPa | 2.6V | 18:12:15 | 01:49:13 | 00:00:00 | |
| DK7TD | 2026-09-02 00:18:06 | 48.84296 | 10.04722 | 59° | 15km/h | 27380m | 5m/s | -47.9°C | 0.3% | 18.6hPa | 2.7V | 18:12:15 | 01:49:11 | 00:00:00 | |
| DM0DOS-11 | 2026-09-02 00:18:06 | 48.84297 | 10.04690 | 117° | 20km/h | 27353m | 5.7m/s | -48.2°C | 3.4% | 18.7hPa | 2.7V | 08:30:00 | 01:49:06 | 00:00:00 | |
| AM1SDL-15 | 2026-09-02 00:18:05 | 48.84293 | 10.04711 | 85° | 18km/h | 27370m | 6.4m/s | -48.0°C | 3.4% | 18.6hPa | 2.6V | 00:00:00 | 01:49:09 | 00:00:00 | |
| OE5WHR-10 | 2026-09-02 00:18:04 | 48.84293 | 10.04711 | 85° | 18km/h | 27370m | 6.4m/s | -48.0°C | 3.4% | 18.6hPa | 2.6V | 00:00:00 | 00:00:00 | 00:00:00 | |
| DL1XH1-15 | 2026-09-02 00:18:03 | 48.84303 | 10.04675 | 107° | 11km/h | 27338m | 4.7m/s | -48.2°C | 3.5% | 18.8hPa | 2.6V | 08:30:00 | 01:49:03 | 00:00:00 | |
| DL1XH-west | 2026-09-02 00:17:58 | 48.84302 | 10.04675 | 108° | 11km/h | 27338m | 4.7m/s | -48.2°C | 0.4% | 18.8hPa | 2.6V | 18:12:15 | 01:49:03 | 00:00:00 | |
| DF8AY | 2026-09-02 00:17:57 | 48.84303 | 10.04671 | 93° | 13km/h | 27332m | 6m/s | -48.2°C | 0.4% | 18.8hPa | 2.6V | 18:12:15 | 01:49:02 | 00:00:00 | |
| DJ8HS-15 | 2026-09-02 00:17:57 | 48.84303 | 10.04671 | 93° | 20km/h | 27333m | 5.9m/s | -48.2°C | 3.5% | 18.7hPa | 2.6V | 00:00:00 | 01:49:02 | 00:00:00 | |
| DG9SBQ-11 | 2026-09-02 00:17:56 | 48.84303 | 10.04671 | 94° | 13km/h | 27333m | 6.0m/s | -48.2°C | 0.9% | 18.8hPa | 2.6V | 00:00:00 | 00:00:00 | 00:00:00 | |
| DM0DOS-11 | 2026-09-02 00:17:55 | 48.84284 | 10.04642 | 32° | 22km/h | 27301m | 4.8m/s | -48.2°C | 3.4% | 18.9hPa | 2.6V | 08:30:00 | 01:48:56 | 00:00:00 | |
| DK7TD | 2026-09-02 00:17:55 | 48.84301 | 10.04660 | 55° | 18km/h | 27322m | 3.9m/s | -48.2°C | 0.3% | 18.8hPa | 2.7V | 18:12:15 | 01:49:00 | 00:00:00 | |
| NBG1-10 | 2026-09-02 00:17:55 | 48.84301 | 10.04660 | 55° | 20km/h | 27323m | 3.9m/s | -48.2°C | 3.5% | 18.7hPa | 2.7V | 00:00:00 | 01:49:00 | 00:00:00 | |
| DL1XH1-15 | 2026-09-02 00:17:53 | 48.84275 | 10.04622 | 79° | 24km/h | 27284m | 5.2m/s | -48.2°C | 3.4% | 18.9hPa | 2.6V | 08:30:00 | 01:48:53 | 00:00:00 | |
| DL1XH-west | 2026-09-02 00:17:48 | 48.84275 | 10.04613 | 91° | 24km/h | 27279m | 4m/s | -48.3°C | 0.3% | 18.9hPa | 2.6V | 18:12:15 | 01:48:52 | 00:00:00 | |
| DF8AY | 2026-09-02 00:17:47 | 48.84275 | 10.04605 | 98° | 20km/h | 27274m | 6m/s | -48.3°C | 0.3% | 18.9hPa | 2.6V | 18:12:15 | 01:48:51 | 00:00:00 | |
| DK7TD | 2026-09-02 00:17:45 | 48.84276 | 10.04594 | 86° | 9km/h | 27264m | 4.1m/s | -48.3°C | 0.3% | 19hPa | 2.7V | 18:12:15 | 01:48:49 | 00:00:00 | |
| DL1XH1-15 | 2026-09-02 00:17:43 | 48.84250 | 10.04579 | 2° | 29km/h | 27233m | 6.2m/s | -48.3°C | 3.5% | 19hPa | 2.7V | 08:30:00 | 01:48:43 | 00:00:00 | |
| DL1XH-west | 2026-09-02 00:17:37 | 48.84243 | 10.04579 | 359° | 27km/h | 27227m | 5m/s | -48.3°C | 0.3% | 19.1hPa | 2.6V | 18:12:15 | 01:48:42 | 00:00:00 | |
| DF8AY | 2026-09-02 00:17:37 | 48.84236 | 10.04579 | 3° | 24km/h | 27223m | 4.3m/s | -48.3°C | 0.3% | 19.1hPa | 2.6V | 18:12:15 | 01:48:41 | 00:00:00 | |
| DK7TD | 2026-09-02 00:17:34 | 48.84226 | 10.04574 | 35° | 20km/h | 27213m | 6.4m/s | -48.3°C | 0.2% | 19.1hPa | 2.7V | 18:12:15 | 01:48:39 | 00:00:00 | |
| HEMX73-6 | 2026-09-02 00:17:34 | 48.84226 | 10.04574 | 35° | 16km/h | 27213m | 6.3m/s | 0°C | 0% | 0hPa | 2.7V | 00:00:00 | 01:48:39 | 00:00:00 | |
| DL1XH1-15 | 2026-09-02 00:17:33 | 48.84211 | 10.04546 | 347° | 13km/h | 27183m | 4.5m/s | -48.5°C | 3.5% | 19.2hPa | 2.7V | 08:30:00 | 01:48:33 | 00:00:00 | |
| DL1XH-west | 2026-09-02 00:17:27 | 48.84207 | 10.04547 | 339° | 16km/h | 27178m | 4.9m/s | -48.5°C | 0.3% | 19.2hPa | 2.7V | 18:12:15 | 01:48:32 | 00:00:00 | |
| DF8AY | 2026-09-02 00:17:26 | 48.84199 | 10.04552 | 346° | 22km/h | 27167m | 5.1m/s | -48.5°C | 0.3% | 19.2hPa | 2.6V | 18:12:15 | 01:48:30 | 00:00:00 | |
| DK7TD | 2026-09-02 00:17:23 | 48.84187 | 10.04556 | 349° | 26km/h | 27158m | 5.2m/s | -48.5°C | 0.3% | 19.3hPa | 2.7V | 18:12:15 | 01:48:28 | 00:00:00 | |
| DG9SBQ-11 | 2026-09-02 00:17:23 | 48.84193 | 10.04554 | 349° | 24km/h | 27163m | 4.2m/s | -48.5°C | 0.9% | 19.3hPa | 2.7V | 00:00:00 | 00:00:00 | 00:00:00 | |
| OE5WHR-10 | 2026-09-02 00:17:22 | 48.84180 | 10.04558 | 349° | 20km/h | 27152m | 5.7m/s | -48.5°C | 3.5% | 19.3hPa | 2.7V | 00:00:00 | 00:00:00 | 08:30:00 | |
| DB0NH | 2026-09-02 00:17:21 | 48.84173 | 10.04560 | 351° | 20km/h | 27147m | 5.2m/s | -48.6°C | 3.5% | 19.3hPa | 2.7V | 00:00:00 | 01:48:26 | 00:00:00 | |
| IW2NTF | 2026-09-02 00:17:20 | 48.84155 | 10.04558 | 24° | 24km/h | 27132m | 6.3m/s | -48.6°C | 3.6% | 19.3hPa | 2.7V | 08:30:00 | 01:48:23 | 00:00:00 | |
| DF8AY | 2026-09-02 00:17:16 | 48.84143 | 10.04542 | 48° | 15km/h | 27118m | 4.1m/s | -48.6°C | 0.4% | 19.4hPa | 2.6V | 18:12:15 | 01:48:20 | 00:00:00 | |
| DO3MHA-12 | 2026-09-02 00:17:16 | 48.84143 | 10.04542 | 48° | 18km/h | 27118m | 4.0m/s | -48.6°C | 3.6% | 19.4hPa | 2.6V | 00:00:00 | 01:48:20 | 08:30:00 | |
| AZAK | 2026-09-02 00:17:14 | 48.84141 | 10.04539 | 36° | 7km/h | 27113m | 5.9m/s | -48.6°C | 0.9% | 19.4hPa | 2.6V | 00:00:00 | 00:00:00 | 00:00:00 | |
| DL1XH1-15 | 2026-09-02 00:17:13 | 48.84127 | 10.04565 | 330° | 26km/h | 27082m | 4.7m/s | -48.5°C | 3.5% | 19.5hPa | 2.6V | 08:30:00 | 01:48:13 | 00:00:00 | |
| DK7TD | 2026-09-02 00:17:13 | 48.84140 | 10.04540 | 305° | 5km/h | 27107m | 5.4m/s | -48.6°C | 0.3% | 19.4hPa | 2.6V | 18:12:15 | 01:48:18 | 00:00:00 | |
| OE5DRO-10 | 2026-09-02 00:17:13 | 48.84140 | 10.04540 | 306° | 18km/h | 27108m | 5.3m/s | -48.5°C | 3.5% | 19.4hPa | 2.7V | 00:00:00 | 00:00:00 | 00:00:00 | |
| OE5MMP-10 | 2026-09-02 00:17:12 | 48.84139 | 10.04543 | 286° | 24km/h | 27103m | 5.0m/s | -48.5°C | 3.5% | 19.4hPa | 2.7V | 00:00:00 | 01:48:17 | 08:30:00 | |
| OE5DXL-15 | 2026-09-02 00:17:11 | 48.84138 | 10.04548 | 292° | 22km/h | 27098m | 5.1m/s | -48.5°C | 3.5% | 19.4hPa | 2.7V | 00:00:00 | 00:00:00 | 00:00:00 | |
| IW2NTF | 2026-09-02 00:17:10 | 48.84113 | 10.04575 | 337° | 31km/h | 27071m | 6.3m/s | -48.5°C | 3.5% | 19.6hPa | 2.7V | 08:30:00 | 01:48:11 | 00:00:00 | |
| DL1XH-west | 2026-09-02 00:17:05 | 48.84099 | 10.04582 | 348° | 29km/h | 27060m | 5.2m/s | -48.4°C | 0.3% | 19.6hPa | 2.6V | 18:12:15 | 01:48:09 | 00:00:00 | |
| DF8AY | 2026-09-02 00:17:05 | 48.84106 | 10.04579 | 341° | 31km/h | 27066m | 5.6m/s | -48.5°C | 0.4% | 19.6hPa | 2.6V | 18:12:15 | 01:48:10 | 00:00:00 | |
| DM0DOS-11 | 2026-09-02 00:17:05 | 48.84081 | 10.04582 | 6° | 16km/h | 27045m | 3.5m/s | -48.4°C | 3.4% | 19.6hPa | 2.7V | 08:30:00 | 01:48:06 | 00:00:00 | |
| DK7TD | 2026-09-02 00:17:03 | 48.84092 | 10.04583 | 357° | 26km/h | 27054m | 6.3m/s | -48.4°C | 0.3% | 19.6hPa | 2.6V | 18:12:15 | 01:48:08 | 00:00:00 | |
| DL6DJ-15 | 2026-09-02 00:17:03 | 48.84086 | 10.04583 | 6° | 22km/h | 27049m | 4.9m/s | -48.4°C | 0.9% | 19.6hPa | 2.6V | 00:00:00 | 00:00:00 | 00:00:00 | |
| OE5WHR-10 | 2026-09-02 00:17:01 | 48.84081 | 10.04582 | 7° | 20km/h | 27045m | 3.5m/s | -48.3°C | 3.4% | 19.6hPa | 2.6V | 00:00:00 | 00:00:00 | 00:00:00 | |
| DO3MHA-11 | 2026-09-02 00:17:00 | 48.84077 | 10.04582 | 351° | 16km/h | 27041m | 5.0m/s | -48.3°C | 3.4% | 19.6hPa | 2.6V | 00:00:00 | 01:48:05 | 00:00:00 | |
| DF1GD-15 | 2026-09-02 00:16:59 | 48.84075 | 10.04584 | 312° | 9km/h | 27035m | 6.6m/s | -48.3°C | 0.9% | 19.6hPa | 2.6V | 00:00:00 | 00:00:00 | 00:00:00 | |
| DM7RM-13 | 2026-09-02 00:16:58 | 48.84075 | 10.04584 | 312° | 9km/h | 27035m | 6.6m/s | -48.3°C | 0.9% | 19.6hPa | 2.6V | 00:00:00 | 00:00:00 | 00:00:00 | |
| DJ8HS-15 | 2026-09-02 00:16:57 | 48.84073 | 10.04594 | 281° | 22km/h | 27024m | 4.7m/s | -48.3°C | 3.4% | 19.6hPa | 2.6V | 00:00:00 | 01:48:02 | 00:00:00 | |
| DM0DOS-11 | 2026-09-02 00:16:56 | 48.84055 | 10.04625 | 329° | 22km/h | 26994m | 6.2m/s | -48.4°C | 3.4% | 19.8hPa | 2.6V | 08:30:00 | 01:47:56 | 00:00:00 | |
| DL1XH-west | 2026-09-02 00:16:55 | 48.84070 | 10.04608 | 298° | 18km/h | 27014m | 5.3m/s | -48.4°C | 0.2% | 19.7hPa | 2.7V | 18:12:15 | 01:48:00 | 00:00:00 | |
| DF8AY | 2026-09-02 00:16:54 | 48.84068 | 10.04613 | 315° | 16km/h | 27008m | 4.9m/s | -48.4°C | 0.3% | 19.7hPa | 2.6V | 18:12:15 | 01:47:59 | 00:00:00 | |
| DL1XH1-15 | 2026-09-02 00:16:54 | 48.84040 | 10.04640 | 327° | 22km/h | 26978m | 4.3m/s | -48.6°C | 3.4% | 19.8hPa | 2.6V | 08:30:00 | 01:47:53 | 00:00:00 | |
| DK7TD | 2026-09-02 00:16:53 | 48.84064 | 10.04617 | 328° | 18km/h | 27004m | 4.4m/s | -48.4°C | 0.3% | 19.8hPa | 2.6V | 18:12:15 | 01:47:58 | 00:00:00 | |
| SONCRA | 2026-09-02 00:16:50 | 48.84046 | 10.04635 | 324° | 24km/h | 26983m | 4.6m/s | -48.5°C | 0.9% | 19.8hPa | 2.6V | 00:00:00 | 00:00:00 | 00:00:00 | |
| SONDE2-11 | 2026-09-02 00:16:47 | 48.84036 | 10.04644 | 333° | 20km/h | 26973m | 6.2m/s | -48.7°C | 0.9% | 19.8hPa | 2.6V | 00:00:00 | 00:00:00 | 00:00:00 | |
| DM0DOS-11 | 2026-09-02 00:16:45 | 48.84011 | 10.04674 | 301° | 27km/h | 26940m | 5m/s | -49.1°C | 3.7% | 19.9hPa | 2.6V | 08:30:00 | 01:47:46 | 00:00:00 | |
| DL1XH-west | 2026-09-02 00:16:44 | 48.84023 | 10.04653 | 327° | 20km/h | 26957m | 5.2m/s | -48.9°C | 0.3% | 19.9hPa | 2.7V | 18:12:15 | 01:47:49 | 00:00:00 | |
| DK7TD | 2026-09-02 00:16:42 | 48.84015 | 10.04665 | 305° | 26km/h | 26946m | 5.5m/s | -49°C | 0.5% | 19.9hPa | 2.6V | 18:12:15 | 01:47:47 | 00:00:00 | |
| DF8AY | 2026-09-02 00:16:41 | 48.84011 | 10.04674 | 301° | 27km/h | 26940m | 5m/s | -49.1°C | 0.5% | 19.9hPa | 2.6V | 18:12:15 | 01:47:46 | 00:00:00 | |
| IW2NTF | 2026-09-02 00:16:41 | 48.84000 | 10.04698 | 309° | 24km/h | 26923m | 5.3m/s | -49.1°C | 3.7% | 20hPa | 2.7V | 08:30:00 | 01:47:43 | 00:00:00 | |
| OE5WHR-10 | 2026-09-02 00:16:40 | 48.84008 | 10.04682 | 302° | 22km/h | 26935m | 6.1m/s | -49.1°C | 3.7% | 19.9hPa | 2.6V | 00:00:00 | 01:47:45 | 00:00:00 | |
| DN1GJH-1 | 2026-09-02 00:16:39 | 48.84008 | 10.04682 | 303° | 27km/h | 26935m | 6.1m/s | -49.1°C | 1.0% | 19.9hPa | 2.6V | 00:00:00 | 00:00:00 | 00:00:00 | |
| DF1GD-15 | 2026-09-02 00:16:38 | 48.84004 | 10.04690 | 306° | 24km/h | 26929m | 5.9m/s | -49.1°C | 1.0% | 20.0hPa | 2.6V | 00:00:00 | 00:00:00 | 00:00:00 | |
| DJ8HS-15 | 2026-09-02 00:16:37 | 48.83997 | 10.04705 | 311° | 22km/h | 26918m | 5.9m/s | -49.1°C | 3.7% | 19.9hPa | 2.6V | 00:00:00 | 01:47:42 | 00:00:00 | |
| DO3MHA-12 | 2026-09-02 00:16:35 | 48.83989 | 10.04719 | 313° | 20km/h | 26907m | 4.4m/s | -49.1°C | 3.6% | 20.0hPa | 2.6V | 00:00:00 | 01:47:40 | 00:00:00 | |
| DM0DOS-11 | 2026-09-02 00:16:34 | 48.83975 | 10.04734 | 327° | 15km/h | 26884m | 5.3m/s | -49°C | 3.5% | 20.1hPa | 2.6V | 08:30:00 | 01:47:36 | 00:00:00 | |
| DL1XH-west | 2026-09-02 00:16:34 | 48.83985 | 10.04724 | 319° | 20km/h | 26901m | 5.3m/s | -49.1°C | 0.4% | 20.1hPa | 2.7V | 18:12:15 | 01:47:39 | 00:00:00 | |
| DK7TD | 2026-09-02 00:16:31 | 48.83975 | 10.04734 | 328° | 15km/h | 26884m | 5.3m/s | -49°C | 0.3% | 20.1hPa | 2.6V | 18:12:15 | 01:47:36 | 00:00:00 | |
| OE5MMP-10 | 2026-09-02 00:16:31 | 48.83975 | 10.04734 | 328° | 22km/h | 26884m | 5.3m/s | -49.0°C | 3.5% | 20.0hPa | 2.7V | 00:00:00 | 01:47:36 | 00:00:00 | |
| IW2NTF | 2026-09-02 00:16:30 | 48.83965 | 10.04752 | 299° | 26km/h | 26866m | 5m/s | -49°C | 3.5% | 20.2hPa | 2.7V | 08:30:00 | 01:47:33 | 00:00:00 | |
| DO3MHA-11 | 2026-09-02 00:16:30 | 48.83971 | 10.04738 | 316° | 22km/h | 26878m | 6.2m/s | -48.9°C | 3.6% | 20.1hPa | 2.6V | 00:00:00 | 01:47:35 | 00:00:00 | |
| DJ2DS-15 | 2026-09-02 00:16:29 | 48.83968 | 10.04744 | 305° | 22km/h | 26872m | 5.9m/s | -48.9°C | 3.5% | 20.1hPa | 2.6V | 00:00:00 | 01:47:34 | 00:00:00 | |
| DG9SBQ-11 | 2026-09-02 00:16:26 | 48.83962 | 10.04760 | 299° | 27km/h | 26862m | 4.6m/s | -49.0°C | 0.9% | 20.2hPa | 2.6V | 00:00:00 | 00:00:00 | 00:00:00 | |
| DO3MHA-12 | 2026-09-02 00:16:25 | 48.83956 | 10.04777 | 303° | 22km/h | 26850m | 5.8m/s | -48.9°C | 3.6% | 20.2hPa | 2.6V | 00:00:00 | 01:47:30 | 00:00:00 | |
| DM0DOS-11 | 2026-09-02 00:16:24 | 48.83944 | 10.04803 | 303° | 24km/h | 26828m | 6m/s | -48.9°C | 3.6% | 20.3hPa | 2.6V | 08:30:00 | 01:47:26 | 00:00:00 | |
| DL1XH-west | 2026-09-02 00:16:24 | 48.83953 | 10.04783 | 307° | 20km/h | 26845m | 5.2m/s | -49°C | 0.4% | 20.2hPa | 2.6V | 18:12:15 | 01:47:29 | 00:00:00 | |
| IW2NTF | 2026-09-02 00:16:21 | 48.83928 | 10.04830 | 325° | 22km/h | 26805m | 6.1m/s | -48.9°C | 3.6% | 20.3hPa | 2.7V | 08:30:00 | 01:47:22 | 00:00:00 | |
| DK7TD | 2026-09-02 00:16:20 | 48.83940 | 10.04810 | 306° | 26km/h | 26822m | 5m/s | -48.9°C | 0.4% | 20.3hPa | 2.6V | 18:12:15 | 01:47:25 | 00:00:00 | |
| DF8AY | 2026-09-02 00:16:19 | 48.83936 | 10.04818 | 311° | 26km/h | 26817m | 4.7m/s | -48.9°C | 0.4% | 20.3hPa | 2.6V | 18:12:15 | 01:47:24 | 00:00:00 | |
| OE5WHR-10 | 2026-09-02 00:16:19 | 48.83936 | 10.04818 | 311° | 26km/h | 26818m | 4.7m/s | -48.9°C | 3.6% | 20.3hPa | 2.6V | 00:00:00 | 00:00:00 | 00:00:00 | |
| DJ2DS-15 | 2026-09-02 00:16:18 | 48.83928 | 10.04830 | 325° | 20km/h | 26805m | 6.1m/s | -48.9°C | 0.9% | 20.4hPa | 2.7V | 00:00:00 | 00:00:00 | 00:00:00 | |
| DJ8HS-15 | 2026-09-02 00:16:17 | 48.83928 | 10.04830 | 326° | 26km/h | 26806m | 6.1m/s | -48.9°C | 3.6% | 20.3hPa | 2.7V | 00:00:00 | 01:47:22 | 00:00:00 | |
| NBG1-10 | 2026-09-02 00:16:16 | 48.83923 | 10.04834 | 328° | 24km/h | 26800m | 4.7m/s | -48.9°C | 3.6% | 20.3hPa | 2.7V | 00:00:00 | 01:47:21 | 00:00:00 | |
| DM0DOS-11 | 2026-09-02 00:16:15 | 48.83903 | 10.04859 | 328° | 22km/h | 26771m | 6.5m/s | -49°C | 3.6% | 20.5hPa | 2.7V | 08:30:00 | 01:47:16 | 00:00:00 | |
| DL1XH-west | 2026-09-02 00:16:14 | 48.83911 | 10.04849 | 317° | 22km/h | 26782m | 5.2m/s | -48.9°C | 0.4% | 20.4hPa | 2.6V | 18:12:15 | 01:47:18 | 00:00:00 | |
| DL1XH1-15 | 2026-09-02 00:16:14 | 48.83886 | 10.04874 | 324° | 27km/h | 26756m | 5.4m/s | -49°C | 3.6% | 20.5hPa | 2.6V | 08:30:00 | 01:47:13 | 00:00:00 | |
| DK7TD | 2026-09-02 00:16:10 | 48.83898 | 10.04863 | 334° | 24km/h | 26765m | 5.1m/s | -49°C | 0.4% | 20.5hPa | 2.6V | 18:12:15 | 01:47:15 | 00:00:00 | |
| DF8AY | 2026-09-02 00:16:08 | 48.83886 | 10.04874 | 325° | 27km/h | 26756m | 5.4m/s | -49°C | 0.5% | 20.5hPa | 2.6V | 18:12:15 | 01:47:13 | 00:00:00 | |
| DM0DOS-11 | 2026-09-02 00:16:06 | 48.83850 | 10.04928 | 326° | 24km/h | 26714m | 5.5m/s | -49°C | 3.6% | 20.6hPa | 2.7V | 08:30:00 | 01:47:06 | 00:00:00 | |
| DB0UT-7 | 2026-09-02 00:16:05 | 48.83871 | 10.04899 | 307° | 22km/h | 26738m | 5.0m/s | -48.9°C | 3.6% | 20.5hPa | 2.6V | 00:00:00 | 01:47:10 | 00:00:00 | |
| DG9SBQ-11 | 2026-09-02 00:16:04 | 48.83866 | 10.04908 | 310° | 29km/h | 26732m | 6.0m/s | -49.0°C | 0.9% | 20.6hPa | 2.6V | 00:00:00 | 00:00:00 | 00:00:00 | |
| DL1XH1-15 | 2026-09-02 00:16:03 | 48.83835 | 10.04944 | 329° | 24km/h | 26697m | 4.9m/s | -49°C | 3.5% | 20.7hPa | 2.6V | 08:30:00 | 01:47:03 | 00:00:00 | |
| DL1XH-west | 2026-09-02 00:16:02 | 48.83856 | 10.04923 | 323° | 26km/h | 26720m | 5.6m/s | -49°C | 0.4% | 20.6hPa | 2.6V | 18:12:15 | 01:47:07 | 00:00:00 | |
| DF7PN | 2026-09-02 00:16:01 | 48.83851 | 10.04928 | 326° | 24km/h | 26715m | 5.5m/s | -49.0°C | 0.9% | 20.6hPa | 2.6V | 00:00:00 | 00:00:00 | 00:00:00 | |
| IW2NTF | 2026-09-02 00:16:00 | 48.83830 | 10.04948 | 336° | 24km/h | 26691m | 6.7m/s | -48.9°C | 3.5% | 20.7hPa | 2.6V | 08:30:00 | 01:47:02 | 00:00:00 | |
| DK7TD | 2026-09-02 00:16:00 | 48.83846 | 10.04934 | 325° | 24km/h | 26708m | 6.7m/s | -49°C | 0.4% | 20.7hPa | 2.7V | 18:12:15 | 01:47:05 | 00:00:00 | |
| DF8AY | 2026-09-02 00:15:57 | 48.83830 | 10.04948 | 336° | 24km/h | 26691m | 6.7m/s | -49°C | 0.3% | 20.7hPa | 2.6V | 18:12:15 | 01:47:02 | 00:00:00 | |
| DJ8HS-15 | 2026-09-02 00:15:57 | 48.83830 | 10.04948 | 337° | 20km/h | 26691m | 6.6m/s | -48.9°C | 3.5% | 20.7hPa | 2.6V | 00:00:00 | 01:47:02 | 00:00:00 | |
| DM7RM-13 | 2026-09-02 00:15:56 | 48.83825 | 10.04951 | 343° | 24km/h | 26685m | 6.3m/s | -48.9°C | 1.0% | 20.7hPa | 2.6V | 00:00:00 | 00:00:00 | 00:00:00 | |
| DM0DOS-11 | 2026-09-02 00:15:55 | 48.83798 | 10.04976 | 315° | 26km/h | 26656m | 4.9m/s | -48.9°C | 3.5% | 20.8hPa | 2.6V | 08:30:00 | 01:46:56 | 00:00:00 | |
| DL1XH-west | 2026-09-02 00:15:52 | 48.83798 | 10.04976 | 316° | 26km/h | 26656m | 4.9m/s | -48.9°C | 0.4% | 20.8hPa | 2.6V | 18:12:15 | 01:46:56 | 00:00:00 | |
| AZAK | 2026-09-02 00:15:52 | 48.83803 | 10.04969 | 318° | 27km/h | 26661m | 5.2m/s | -48.9°C | 0.9% | 20.8hPa | 2.6V | 00:00:00 | 00:00:00 | 00:00:00 | |
| IW2NTF | 2026-09-02 00:15:51 | 48.83781 | 10.04997 | 321° | 16km/h | 26632m | 5.8m/s | -48.8°C | 3.5% | 20.9hPa | 2.6V | 08:30:00 | 01:46:52 | 00:00:00 | |
| DK7TD | 2026-09-02 00:15:50 | 48.83793 | 10.04983 | 319° | 24km/h | 26650m | 6.6m/s | -48.8°C | 0.4% | 20.8hPa | 2.7V | 18:12:15 | 01:46:55 | 00:00:00 | |
| SONCRA | 2026-09-02 00:15:48 | 48.83781 | 10.04997 | 321° | 15km/h | 26633m | 5.8m/s | -48.8°C | 0.9% | 20.9hPa | 2.6V | 00:00:00 | 00:00:00 | 00:00:00 | |
| DF8AY | 2026-09-02 00:15:46 | 48.83770 | 10.05013 | 331° | 15km/h | 26608m | 6.8m/s | -48.8°C | 0.4% | 21hPa | 2.6V | 18:12:15 | 01:46:48 | 00:00:00 | |
| DM0DOS-11 | 2026-09-02 00:15:45 | 48.83762 | 10.05017 | 344° | 18km/h | 26596m | 5.4m/s | -48.9°C | 3.6% | 21hPa | 2.6V | 08:30:00 | 01:46:46 | 00:00:00 | |
| DK5PH-5 | 2026-09-02 00:15:44 | 48.83773 | 10.05009 | 319° | 15km/h | 26615m | 5.3m/s | -48.8°C | 3.5% | 20.9hPa | 2.7V | 00:00:00 | 01:46:49 | 00:00:00 | |
| NBG1-10 | 2026-09-02 00:15:43 | 48.83770 | 10.05012 | 331° | 15km/h | 26609m | 6.8m/s | -48.8°C | 3.5% | 20.9hPa | 2.6V | 00:00:00 | 01:46:48 | 00:00:00 | |
| DG9SBQ-11 | 2026-09-02 00:15:41 | 48.83762 | 10.05017 | 345° | 18km/h | 26596m | 5.4m/s | -48.9°C | 0.9% | 21.0hPa | 2.6V | 00:00:00 | 00:00:00 | 00:00:00 | |
| IW2NTF | 2026-09-02 00:15:40 | 48.83747 | 10.05029 | 323° | 15km/h | 26572m | 5.5m/s | -48.8°C | 3.6% | 21.1hPa | 2.6V | 08:30:00 | 01:46:42 | 00:00:00 | |
| DL1XH-west | 2026-09-02 00:15:40 | 48.83758 | 10.05019 | 338° | 18km/h | 26590m | 6.5m/s | -48.9°C | 0.4% | 21.1hPa | 2.6V | 18:12:15 | 01:46:45 | 00:00:00 | |
| DK7TD | 2026-09-02 00:15:39 | 48.83754 | 10.05022 | 327° | 16km/h | 26583m | 6.6m/s | -48.8°C | 0.4% | 21hPa | 2.7V | 18:12:15 | 01:46:44 | 00:00:00 | |
| DJ8HS-15 | 2026-09-02 00:15:37 | 48.83748 | 10.05029 | 324° | 13km/h | 26572m | 5.5m/s | -48.8°C | 3.6% | 21.0hPa | 2.6V | 00:00:00 | 01:46:42 | 00:00:00 | |
| DO3MHA-12 | 2026-09-02 00:15:35 | 48.83742 | 10.05034 | 339° | 16km/h | 26560m | 5.3m/s | -48.8°C | 3.6% | 21.1hPa | 2.6V | 00:00:00 | 01:46:40 | 00:00:00 | |
| DM0DOS-11 | 2026-09-02 00:15:34 | 48.83732 | 10.05046 | 300° | 16km/h | 26537m | 5.8m/s | -48.8°C | 3.5% | 21.2hPa | 2.6V | 08:30:00 | 01:46:36 | 00:00:00 | |
| DF8AY | 2026-09-02 00:15:34 | 48.83734 | 10.05041 | 309° | 13km/h | 26544m | 6.5m/s | -48.8°C | 0.4% | 21.2hPa | 2.6V | 18:12:15 | 01:46:37 | 00:00:00 | |
| PG1ADW-2 | 2026-09-02 00:15:34 | 48.83739 | 10.05036 | 338° | 15km/h | 26555m | 4.4m/s | -48.7°C | 3.6% | 21.1hPa | 2.7V | 00:00:00 | 00:00:00 | 00:00:00 | |
| OE5MMP-10 | 2026-09-02 00:15:31 | 48.83732 | 10.05046 | 301° | 15km/h | 26538m | 5.8m/s | -48.7°C | 3.5% | 21.2hPa | 2.6V | 00:00:00 | 01:46:36 | 08:30:00 | |
| IW2NTF | 2026-09-02 00:15:30 | 48.83718 | 10.05064 | 343° | 20km/h | 26513m | 5.5m/s | -48.7°C | 3.5% | 21.3hPa | 2.7V | 08:30:00 | 01:46:32 | 00:00:00 | |
| DL1XH-west | 2026-09-02 00:15:30 | 48.83730 | 10.05051 | 304° | 18km/h | 26532m | 5.3m/s | -48.8°C | 0.3% | 21.2hPa | 2.6V | 18:12:15 | 01:46:35 | 00:00:00 | |
| DK7TD | 2026-09-02 00:15:28 | 48.83723 | 10.05061 | 329° | 20km/h | 26519m | 6.9m/s | -48.7°C | 0.4% | 21.3hPa | 2.7V | 18:12:15 | 01:46:33 | 00:00:00 | |
| DO9HM | 2026-09-02 00:15:26 | 48.83718 | 10.05064 | 345° | 20km/h | 26513m | 5.5m/s | -48.7°C | 0.9% | 21.3hPa | 2.6V | 00:00:00 | 00:00:00 | 00:00:00 | |
| DM0DOS-11 | 2026-09-02 00:15:25 | 48.83701 | 10.05074 | 316° | 7km/h | 26479m | 5.7m/s | -48.8°C | 3.6% | 21.4hPa | 2.6V | 08:30:00 | 01:46:26 | 00:00:00 | |
| DF8AY | 2026-09-02 00:15:23 | 48.83703 | 10.05072 | 308° | 7km/h | 26484m | 5.4m/s | -48.8°C | 0.4% | 21.4hPa | 2.7V | 18:12:15 | 01:46:27 | 00:00:00 | |
| DL1XH1-15 | 2026-09-02 00:15:22 | 48.83695 | 10.05079 | 330° | 13km/h | 26461m | 5.5m/s | -48.8°C | 3.6% | 21.5hPa | 2.6V | 08:30:00 | 01:46:23 | 00:00:00 | |
| OE5MMP-10 | 2026-09-02 00:15:21 | 48.83701 | 10.05074 | 317° | 15km/h | 26479m | 5.6m/s | -48.8°C | 3.6% | 21.3hPa | 2.7V | 00:00:00 | 01:46:26 | 00:00:00 | |
| IW2NTF | 2026-09-02 00:15:20 | 48.83692 | 10.05082 | 320° | 15km/h | 26455m | 7m/s | -48.8°C | 3.6% | 21.5hPa | 2.7V | 08:30:00 | 01:46:22 | 00:00:00 | |
| DK7TD | 2026-09-02 00:15:17 | 48.83692 | 10.05082 | 320° | 15km/h | 26455m | 7m/s | -48.8°C | 0.4% | 21.5hPa | 2.7V | 18:12:15 | 01:46:22 | 00:00:00 | |
| OE5WHR-10 | 2026-09-02 00:15:17 | 48.83689 | 10.05086 | 310° | 18km/h | 26448m | 6.2m/s | -48.7°C | 3.5% | 21.5hPa | 2.7V | 00:00:00 | 00:00:00 | 00:00:00 | |
| DM0DOS-11 | 2026-09-02 00:15:15 | 48.83671 | 10.05111 | 325° | 18km/h | 26418m | 5.5m/s | -48.8°C | 3.5% | 21.6hPa | 2.7V | 08:30:00 | 01:46:16 | 00:00:00 | |
| PG1ADW-2 | 2026-09-02 00:15:14 | 48.83683 | 10.05097 | 315° | 18km/h | 26437m | 6.2m/s | -48.7°C | 3.5% | 21.5hPa | 2.6V | 00:00:00 | 00:00:00 | 00:00:00 | |
| DG9SBQ-11 | 2026-09-02 00:15:12 | 48.83679 | 10.05103 | 323° | 20km/h | 26430m | 6.8m/s | -48.7°C | 0.9% | 21.5hPa | 2.6V | 00:00:00 | 00:00:00 | 00:00:00 | |
| DF8AY | 2026-09-02 00:15:12 | 48.83675 | 10.05107 | 327° | 20km/h | 26424m | 5.6m/s | -48.8°C | 0.4% | 21.6hPa | 2.7V | 18:12:15 | 01:46:17 | 00:00:00 | |
| DL1XH1-15 | 2026-09-02 00:15:11 | 48.83661 | 10.05125 | 314° | 16km/h | 26400m | 4.5m/s | -48.7°C | 3.6% | 21.7hPa | 2.6V | 08:30:00 | 01:46:13 | 00:00:00 | |
| OE5MMP-10 | 2026-09-02 00:15:11 | 48.83671 | 10.05111 | 326° | 18km/h | 26419m | 5.4m/s | -48.7°C | 3.5% | 21.6hPa | 2.7V | 00:00:00 | 01:46:16 | 00:00:00 | |
| IW2NTF | 2026-09-02 00:15:10 | 48.83654 | 10.05132 | 335° | 16km/h | 26389m | 6.9m/s | -48.7°C | 3.6% | 21.7hPa | 2.7V | 08:30:00 | 01:46:11 | 00:00:00 | |
| DL1XH-west | 2026-09-02 00:15:09 | 48.83664 | 10.05120 | 313° | 18km/h | 26405m | 5.9m/s | -48.7°C | 0.4% | 21.6hPa | 2.6V | 18:12:15 | 01:46:14 | 00:00:00 | |
| DK7TD | 2026-09-02 00:15:06 | 48.83654 | 10.05132 | 335° | 16km/h | 26389m | 6.9m/s | -48.7°C | 0.4% | 21.7hPa | 2.7V | 18:12:15 | 01:46:11 | 00:00:00 | |
| DM0DOS-11 | 2026-09-02 00:15:05 | 48.83635 | 10.05145 | 311° | 18km/h | 26359m | 5.7m/s | -48.6°C | 3.5% | 21.8hPa | 2.7V | 08:30:00 | 01:46:06 | 00:00:00 | |
| DL1XH1-15 | 2026-09-02 00:15:03 | 48.83625 | 10.05161 | 318° | 16km/h | 26342m | 6.6m/s | -48.6°C | 3.5% | 21.9hPa | 2.6V | 08:30:00 | 01:46:03 | 00:00:00 | |
| OE5MMP-10 | 2026-09-02 00:15:01 | 48.83634 | 10.05145 | 312° | 16km/h | 26359m | 5.7m/s | -48.6°C | 3.5% | 21.8hPa | 2.7V | 00:00:00 | 01:46:06 | 00:00:00 | |
| IW2NTF | 2026-09-02 00:15:00 | 48.83619 | 10.05168 | 332° | 16km/h | 26330m | 4.9m/s | -48.6°C | 3.5% | 21.9hPa | 2.6V | 08:30:00 | 01:46:01 | 00:00:00 | |
| DF8AY | 2026-09-02 00:15:00 | 48.83629 | 10.05156 | 310° | 18km/h | 26348m | 5.7m/s | -48.6°C | 0.3% | 21.9hPa | 2.6V | 18:12:15 | 01:46:04 | 00:00:00 | |
| DL1XH-west | 2026-09-02 00:14:58 | 48.83626 | 10.05161 | 318° | 16km/h | 26342m | 6.6m/s | -48.6°C | 0.3% | 21.9hPa | 2.6V | 18:12:15 | 01:46:03 | 00:00:00 | |
| DK7TD | 2026-09-02 00:14:56 | 48.83619 | 10.05168 | 333° | 16km/h | 26330m | 4.9m/s | -48.6°C | 0.3% | 21.9hPa | 2.6V | 18:12:15 | 01:46:01 | 00:00:00 | |
| DN1GJH-1 | 2026-09-02 00:14:55 | 48.83619 | 10.05168 | 334° | 16km/h | 26331m | 4.9m/s | -48.6°C | 0.9% | 21.9hPa | 2.6V | 00:00:00 | 00:00:00 | 00:00:00 | |
| PG1ADW-2 | 2026-09-02 00:14:54 | 48.83612 | 10.05175 | 318° | 13km/h | 26319m | 6.7m/s | -48.6°C | 3.5% | 21.9hPa | 2.6V | 00:00:00 | 00:00:00 | 00:00:00 | |
| DL1XH1-15 | 2026-09-02 00:14:51 | 48.83596 | 10.05193 | 338° | 13km/h | 26284m | 5m/s | -48.7°C | 3.5% | 22.1hPa | 2.6V | 08:30:00 | 01:45:53 | 00:00:00 | |
| DB0NH | 2026-09-02 00:14:51 | 48.83604 | 10.05187 | 319° | 13km/h | 26302m | 6.3m/s | -48.6°C | 3.5% | 22.0hPa | 2.6V | 00:00:00 | 01:45:56 | 00:00:00 | |
| IW2NTF | 2026-09-02 00:14:50 | 48.83590 | 10.05199 | 309° | 16km/h | 26272m | 6.3m/s | -48.7°C | 3.5% | 22.1hPa | 2.6V | 08:30:00 | 01:45:51 | 00:00:00 | |
| DF8AY | 2026-09-02 00:14:49 | 48.83599 | 10.05191 | 344° | 13km/h | 26290m | 5.4m/s | -48.7°C | 0.3% | 22hPa | 2.7V | 18:12:15 | 01:45:54 | 00:00:00 | |
| DL1XH-west | 2026-09-02 00:14:48 | 48.83596 | 10.05193 | 339° | 13km/h | 26284m | 5m/s | -48.7°C | 0.4% | 22.1hPa | 2.6V | 18:12:15 | 01:45:53 | 00:00:00 | |
| DK7TD | 2026-09-02 00:14:46 | 48.83590 | 10.05199 | 310° | 16km/h | 26272m | 6.4m/s | -48.7°C | 0.3% | 22.1hPa | 2.6V | 18:12:15 | 01:45:51 | 00:00:00 | |
| SONCRA | 2026-09-02 00:14:46 | 48.83588 | 10.05204 | 298° | 15km/h | 26266m | 5.1m/s | -48.7°C | 0.9% | 22.1hPa | 2.6V | 00:00:00 | 00:00:00 | 00:00:00 | |
| DM0DOS-11 | 2026-09-02 00:14:45 | 48.83581 | 10.05221 | 321° | 9km/h | 26244m | 4.8m/s | -48.8°C | 3.5% | 22.2hPa | 2.6V | 08:30:00 | 01:45:46 | 00:00:00 | |
| DO3MHA-12 | 2026-09-02 00:14:45 | 48.83588 | 10.05204 | 299° | 13km/h | 26267m | 5.1m/s | -48.7°C | 3.5% | 22.1hPa | 2.6V | 00:00:00 | 01:45:50 | 00:00:00 | |
| DK5PH-5 | 2026-09-02 00:14:44 | 48.83586 | 10.05210 | 294° | 13km/h | 26262m | 5.2m/s | -48.7°C | 3.5% | 22.1hPa | 2.7V | 00:00:00 | 01:45:49 | 00:00:00 | |
| DL1XH1-15 | 2026-09-02 00:14:43 | 48.83574 | 10.05229 | 327° | 13km/h | 26226m | 5.4m/s | -48.9°C | 3.5% | 22.2hPa | 2.7V | 08:30:00 | 01:45:43 | 00:00:00 | |
| DF3TZ-5 | 2026-09-02 00:14:43 | 48.83584 | 10.05215 | 299° | 11km/h | 26255m | 6.4m/s | -48.7°C | 0.9% | 22.2hPa | 2.6V | 00:00:00 | 00:00:00 | 00:00:00 | |
| DO9HM | 2026-09-02 00:14:42 | 48.83584 | 10.05214 | 300° | 13km/h | 26256m | 6.4m/s | -48.7°C | 0.9% | 22.2hPa | 2.6V | 00:00:00 | 00:00:00 | 00:00:00 | |
| IW2NTF | 2026-09-02 00:14:41 | 48.83568 | 10.05232 | 351° | 15km/h | 26214m | 6.7m/s | -48.9°C | 3.5% | 22.3hPa | 2.6V | 08:30:00 | 01:45:41 | 00:00:00 | |
| DL1XH-west | 2026-09-02 00:14:38 | 48.83574 | 10.05229 | 328° | 15km/h | 26226m | 5.4m/s | -48.9°C | 0.4% | 22.3hPa | 2.7V | 18:12:15 | 01:45:43 | 00:00:00 | |
| DK7TD | 2026-09-02 00:14:35 | 48.83564 | 10.05233 | 2° | 15km/h | 26208m | 5.2m/s | -49°C | 0.4% | 22.3hPa | 2.6V | 18:12:15 | 01:45:40 | 00:00:00 | |
| DM0DOS-11 | 2026-09-02 00:14:35 | 48.83554 | 10.05239 | 300° | 13km/h | 26186m | 5.6m/s | -49.1°C | 3.6% | 22.4hPa | 2.6V | 08:30:00 | 01:45:36 | 00:00:00 | |
| OE5WHR-10 | 2026-09-02 00:14:34 | 48.83561 | 10.05233 | 359° | 13km/h | 26203m | 4.1m/s | -49.0°C | 3.6% | 22.3hPa | 2.6V | 00:00:00 | 01:45:39 | 00:00:00 | |
| AZAK | 2026-09-02 00:14:31 | 48.83551 | 10.05248 | 299° | 13km/h | 26175m | 6.7m/s | -49.1°C | 0.9% | 22.4hPa | 2.6V | 00:00:00 | 00:00:00 | 00:00:00 | |
| IW2NTF | 2026-09-02 00:14:30 | 48.83546 | 10.05256 | 319° | 7km/h | 26157m | 5.5m/s | -49.1°C | 3.5% | 22.5hPa | 2.6V | 08:30:00 | 01:45:31 | 00:00:00 | |
| DO3MHA-11 | 2026-09-02 00:14:30 | 48.83552 | 10.05244 | 296° | 9km/h | 26180m | 5.3m/s | -49.1°C | 3.6% | 22.4hPa | 2.7V | 00:00:00 | 01:45:35 | 00:00:00 | |
| DJ2DS-15 | 2026-09-02 00:14:29 | 48.83551 | 10.05248 | 298° | 13km/h | 26175m | 6.6m/s | -49.1°C | 3.6% | 22.4hPa | 2.7V | 00:00:00 | 01:45:34 | 00:00:00 | |
| DF7PN | 2026-09-02 00:14:28 | 48.83548 | 10.05254 | 319° | 7km/h | 26163m | 4.8m/s | -49.1°C | 0.9% | 22.5hPa | 2.7V | 00:00:00 | 00:00:00 | 00:00:00 | |
| DL6DJ-15 | 2026-09-02 00:14:27 | 48.83548 | 10.05254 | 319° | 7km/h | 26163m | 4.8m/s | -49.1°C | 0.9% | 22.5hPa | 2.7V | 00:00:00 | 00:00:00 | 00:00:00 | |
| DL1XH-west | 2026-09-02 00:14:27 | 48.83548 | 10.05254 | 320° | 7km/h | 26163m | 4.8m/s | -49.1°C | 0.4% | 22.5hPa | 2.7V | 18:12:15 | 01:45:32 | 00:00:00 | |
| DM0DOS-11 | 2026-09-02 00:14:25 | 48.83537 | 10.05265 | 359° | 11km/h | 26127m | 5.6m/s | -49.1°C | 3.5% | 22.6hPa | 2.7V | 08:30:00 | 01:45:26 | 00:00:00 | |
| DK7TD | 2026-09-02 00:14:24 | 48.83543 | 10.05261 | 316° | 9km/h | 26145m | 5.6m/s | -49.1°C | 0.4% | 22.5hPa | 2.6V | 18:12:15 | 01:45:29 | 00:00:00 | |
| DF8AY | 2026-09-02 00:14:17 | 48.83516 | 10.05306 | 287° | 15km/h | 26077m | 5.4m/s | -49.5°C | 0.5% | 22.8hPa | 2.6V | 18:12:15 | 01:45:17 | 00:00:00 | |
| DL1XH-west | 2026-09-02 00:14:17 | 48.83526 | 10.05275 | 302° | 20km/h | 26104m | 5.7m/s | -49.3°C | 0.4% | 22.7hPa | 2.7V | 18:12:15 | 01:45:22 | 00:00:00 | |
| DJ8HS-15 | 2026-09-02 00:14:17 | 48.83525 | 10.05275 | 302° | 16km/h | 26105m | 5.6m/s | -49.2°C | 3.6% | 22.6hPa | 2.7V | 00:00:00 | 01:45:22 | 08:30:00 | |
| DF1GD-15 | 2026-09-02 00:14:15 | 48.83521 | 10.05288 | 296° | 20km/h | 26093m | 6.4m/s | -49.4°C | 1.0% | 22.7hPa | 2.6V | 00:00:00 | 00:00:00 | 00:00:00 | |
| PG1ADW-2 | 2026-09-02 00:14:14 | 48.83519 | 10.05295 | 296° | 15km/h | 26088m | 5.4m/s | -49.3°C | 3.7% | 22.7hPa | 2.6V | 00:00:00 | 00:00:00 | 00:00:00 | |
| DL1XH1-15 | 2026-09-02 00:14:13 | 48.83514 | 10.05327 | 280° | 9km/h | 26053m | 6.6m/s | -49.5°C | 3.7% | 22.8hPa | 2.6V | 08:30:00 | 01:45:13 | 00:00:00 | |
| DK7TD | 2026-09-02 00:14:13 | 48.83517 | 10.05300 | 291° | 15km/h | 26082m | 4.9m/s | -49.4°C | 0.5% | 22.8hPa | 2.6V | 18:12:15 | 01:45:18 | 00:00:00 | |
| OE5WHR-10 | 2026-09-02 00:14:13 | 48.83517 | 10.05300 | 292° | 15km/h | 26082m | 4.9m/s | -49.4°C | 3.7% | 22.7hPa | 2.6V | 00:00:00 | 00:00:00 | 08:30:00 | |
| SONDE2-11 | 2026-09-02 00:14:12 | 48.83515 | 10.05312 | 282° | 15km/h | 26071m | 6.6m/s | -49.5°C | 1.0% | 22.8hPa | 2.7V | 00:00:00 | 00:00:00 | 00:00:00 | |
| OE5DXL-15 | 2026-09-02 00:14:11 | 48.83515 | 10.05312 | 283° | 16km/h | 26071m | 6.5m/s | -49.4°C | 3.7% | 22.7hPa | 2.7V | 00:00:00 | 00:00:00 | 08:30:00 | |
| DO3MHA-11 | 2026-09-02 00:14:10 | 48.83514 | 10.05318 | 279° | 15km/h | 26065m | 5.6m/s | -49.4°C | 3.7% | 22.8hPa | 2.6V | 00:00:00 | 01:45:15 | 00:00:00 | |
| DJ2DS-15 | 2026-09-02 00:14:09 | 48.83514 | 10.05323 | 277° | 13km/h | 26060m | 5.0m/s | -49.4°C | 3.7% | 22.8hPa | 2.6V | 00:00:00 | 01:45:14 | 00:00:00 | |
| AZAK | 2026-09-02 00:14:07 | 48.83514 | 10.05327 | 282° | 9km/h | 26054m | 6.6m/s | -49.5°C | 0.9% | 22.8hPa | 2.6V | 00:00:00 | 00:00:00 | 00:00:00 | |
| DG9SBQ-11 | 2026-09-02 00:14:06 | 48.83513 | 10.05330 | 291° | 5km/h | 26048m | 5.6m/s | -49.4°C | 1.0% | 22.9hPa | 2.6V | 00:00:00 | 00:00:00 | 00:00:00 | |
| DL1XH-west | 2026-09-02 00:14:06 | 48.83512 | 10.05332 | 292° | 7km/h | 26043m | 4m/s | -49.4°C | 0.4% | 22.9hPa | 2.7V | 18:12:15 | 01:45:11 | 00:00:00 | |
| DM0DOS-11 | 2026-09-02 00:14:05 | 48.83509 | 10.05364 | 274° | 22km/h | 26015m | 6.1m/s | -49.3°C | 3.6% | 23hPa | 2.6V | 08:30:00 | 01:45:06 | 00:00:00 | |
| NBG1-10 | 2026-09-02 00:14:04 | 48.83511 | 10.05340 | 281° | 16km/h | 26032m | 6.4m/s | -49.3°C | 3.6% | 22.9hPa | 2.6V | 00:00:00 | 01:45:09 | 00:00:00 | |
| DL1XH1-15 | 2026-09-02 00:14:03 | 48.83509 | 10.05385 | 271° | 16km/h | 25999m | 4.9m/s | -49.3°C | 3.6% | 23.1hPa | 2.6V | 08:30:00 | 01:45:03 | 00:00:00 | |
| DK7TD | 2026-09-02 00:14:02 | 48.83510 | 10.05355 | 275° | 24km/h | 26021m | 4.7m/s | -49.3°C | 0.4% | 23hPa | 2.6V | 18:12:15 | 01:45:07 | 00:00:00 | |
| DF8AY | 2026-09-02 00:14:02 | 48.83509 | 10.05372 | 274° | 20km/h | 26009m | 5.8m/s | -49.3°C | 0.4% | 23hPa | 2.7V | 18:12:15 | 01:45:05 | 00:00:00 | |
| DL1XH-west | 2026-09-02 00:13:55 | 48.83508 | 10.05404 | 274° | 15km/h | 25981m | 5m/s | -49.3°C | 0.4% | 23.1hPa | 2.7V | 18:12:15 | 01:45:00 | 00:00:00 | |
| DO3MHA-12 | 2026-09-02 00:13:55 | 48.83508 | 10.05404 | 275° | 16km/h | 25982m | 5.0m/s | -49.3°C | 3.6% | 23.1hPa | 2.6V | 00:00:00 | 01:45:00 | 00:00:00 | |
| DM0DOS-11 | 2026-09-02 00:13:54 | 48.83505 | 10.05417 | 310° | 7km/h | 25960m | 3.5m/s | -49.3°C | 3.6% | 23.2hPa | 2.6V | 08:30:00 | 01:44:56 | 00:00:00 | |
| PG1ADW-2 | 2026-09-02 00:13:54 | 48.83508 | 10.05409 | 278° | 15km/h | 25977m | 5.8m/s | -49.2°C | 3.6% | 23.1hPa | 2.7V | 00:00:00 | 00:00:00 | 00:00:00 | |
| DL1XH1-15 | 2026-09-02 00:13:53 | 48.83501 | 10.05433 | 284° | 24km/h | 25944m | 5.8m/s | -49.4°C | 3.6% | 23.2hPa | 2.7V | 08:30:00 | 01:44:53 | 00:00:00 | |
| DK7TD | 2026-09-02 00:13:51 | 48.83505 | 10.05417 | 311° | 7km/h | 25960m | 3.5m/s | -49.3°C | 0.4% | 23.2hPa | 2.6V | 18:12:15 | 01:44:56 | 00:00:00 | |
| DF8AY | 2026-09-02 00:13:51 | 48.83504 | 10.05420 | 300° | 13km/h | 25956m | 5.2m/s | -49.3°C | 0.4% | 23.2hPa | 2.6V | 18:12:15 | 01:44:55 | 00:00:00 | |
| IW2NTF | 2026-09-02 00:13:50 | 48.83498 | 10.05453 | 282° | 27km/h | 25932m | 5.7m/s | -49.5°C | 3.6% | 23.3hPa | 2.6V | 08:30:00 | 01:44:51 | 00:00:00 | |
| DO3MHA-11 | 2026-09-02 00:13:50 | 48.83503 | 10.05420 | 300° | 22km/h | 25956m | 5.1m/s | -49.3°C | 3.6% | 23.1hPa | 2.6V | 00:00:00 | 01:44:55 | 00:00:00 | |
| AZAK | 2026-09-02 00:13:49 | 48.83499 | 10.05443 | 284° | 27km/h | 25938m | 5.4m/s | -49.4°C | 0.9% | 23.3hPa | 2.6V | 00:00:00 | 00:00:00 | 00:00:00 | |
| DO3MHA-12 | 2026-09-02 00:13:45 | 48.83496 | 10.05463 | 283° | 15km/h | 25927m | 5.7m/s | -49.4°C | 3.6% | 23.3hPa | 2.6V | 00:00:00 | 01:44:50 | 00:00:00 | |
| DM0DOS-11 | 2026-09-02 00:13:44 | 48.83495 | 10.05493 | 257° | 16km/h | 25906m | 5m/s | -49.5°C | 3.6% | 23.4hPa | 2.6V | 08:30:00 | 01:44:46 | 00:00:00 | |
| DL1XH-west | 2026-09-02 00:13:44 | 48.83495 | 10.05472 | 280° | 22km/h | 25922m | 4.6m/s | -49.5°C | 0.4% | 23.3hPa | 2.7V | 18:12:15 | 01:44:49 | 00:00:00 | |
| SONCRA | 2026-09-02 00:13:44 | 48.83494 | 10.05480 | 273° | 18km/h | 25917m | 4.8m/s | -49.5°C | 0.9% | 23.3hPa | 2.7V | 00:00:00 | 00:00:00 | 00:00:00 | |
| DL1XH1-15 | 2026-09-02 00:13:43 | 48.83498 | 10.05505 | 258° | 5km/h | 25888m | 6m/s | -49.4°C | 3.6% | 23.5hPa | 2.7V | 08:30:00 | 01:44:43 | 00:00:00 | |
| DK7TD | 2026-09-02 00:13:41 | 48.83495 | 10.05493 | 258° | 16km/h | 25906m | 5m/s | -49.5°C | 0.4% | 23.4hPa | 2.6V | 18:12:15 | 01:44:46 | 00:00:00 | |
| DF8AY | 2026-09-02 00:13:41 | 48.83496 | 10.05499 | 254° | 13km/h | 25901m | 5.1m/s | -49.5°C | 0.4% | 23.4hPa | 2.6V | 18:12:15 | 01:44:45 | 00:00:00 | |
| DO3MHA-11 | 2026-09-02 00:13:40 | 48.83496 | 10.05499 | 254° | 13km/h | 25901m | 5.1m/s | -49.4°C | 3.7% | 23.4hPa | 2.6V | 00:00:00 | 01:44:45 | 00:00:00 | |
| DO9HM | 2026-09-02 00:13:39 | 48.83496 | 10.05499 | 255° | 13km/h | 25901m | 5.1m/s | -49.5°C | 1.0% | 23.4hPa | 2.6V | 00:00:00 | 00:00:00 | 00:00:00 | |
| DG9SBQ-11 | 2026-09-02 00:13:38 | 48.83497 | 10.05503 | 251° | 9km/h | 25895m | 6.2m/s | -49.4°C | 0.9% | 23.4hPa | 2.6V | 00:00:00 | 00:00:00 | 00:00:00 | |
| DJ8HS-15 | 2026-09-02 00:13:37 | 48.83497 | 10.05507 | 285° | 13km/h | 25884m | 4.3m/s | -49.3°C | 3.6% | 23.4hPa | 2.6V | 00:00:00 | 01:44:42 | 00:00:00 | |
| DO3MHA-12 | 2026-09-02 00:13:35 | 48.83497 | 10.05512 | 272° | 15km/h | 25875m | 5.6m/s | -49.3°C | 3.5% | 23.4hPa | 2.6V | 00:00:00 | 01:44:40 | 00:00:00 | |
| DM0DOS-11 | 2026-09-02 00:13:34 | 48.83500 | 10.05540 | 260° | 20km/h | 25854m | 5.5m/s | -49.3°C | 3.5% | 23.6hPa | 2.6V | 08:30:00 | 01:44:36 | 00:00:00 | |
| DL1XH-west | 2026-09-02 00:13:33 | 48.83498 | 10.05525 | 257° | 22km/h | 25863m | 5m/s | -49.3°C | 0.4% | 23.5hPa | 2.7V | 18:12:15 | 01:44:38 | 00:00:00 | |
| DK7TD | 2026-09-02 00:13:31 | 48.83500 | 10.05540 | 261° | 20km/h | 25854m | 5.5m/s | -49.3°C | 0.4% | 23.6hPa | 2.6V | 18:12:15 | 01:44:36 | 00:00:00 | |
| NBG1-10 | 2026-09-02 00:13:31 | 48.83500 | 10.05540 | 261° | 9km/h | 25854m | 5.4m/s | -49.3°C | 3.5% | 23.5hPa | 2.7V | 00:00:00 | 01:44:36 | 00:00:00 | |
| IW2NTF | 2026-09-02 00:13:30 | 48.83497 | 10.05562 | 298° | 11km/h | 25827m | 5.6m/s | -49.4°C | 3.6% | 23.7hPa | 2.7V | 08:30:00 | 01:44:31 | 00:00:00 | |
| DF8AY | 2026-09-02 00:13:26 | 48.83497 | 10.05562 | 299° | 11km/h | 25827m | 5.6m/s | -49.4°C | 0.4% | 23.7hPa | 2.7V | 18:12:15 | 01:44:31 | 00:00:00 | |
| DL1XH-west | 2026-09-02 00:13:23 | 48.83493 | 10.05572 | 313° | 9km/h | 25811m | 6.4m/s | -49.6°C | 0.4% | 23.7hPa | 2.6V | 18:12:15 | 01:44:28 | 00:00:00 | |
| DM0DOS-11 | 2026-09-02 00:13:22 | 48.83490 | 10.05577 | 284° | 7km/h | 25800m | 4.8m/s | -49.6°C | 3.6% | 23.8hPa | 2.7V | 08:30:00 | 01:44:26 | 00:00:00 | |
| DL1XH1-15 | 2026-09-02 00:13:22 | 48.83496 | 10.05591 | 220° | 11km/h | 25778m | 6.1m/s | -49.8°C | 3.7% | 23.8hPa | 2.6V | 08:30:00 | 01:44:22 | 00:00:00 | |
| DK7TD | 2026-09-02 00:13:20 | 48.83490 | 10.05580 | 258° | 9km/h | 25795m | 6.5m/s | -49.7°C | 0.4% | 23.8hPa | 2.6V | 18:12:15 | 01:44:25 | 00:00:00 | |
| DF8AY | 2026-09-02 00:13:16 | 48.83498 | 10.05594 | 206° | 7km/h | 25773m | 5.3m/s | -49.8°C | 0.4% | 23.9hPa | 2.7V | 18:12:15 | 01:44:21 | 00:00:00 | |
| DM0DOS-11 | 2026-09-02 00:13:15 | 48.83504 | 10.05599 | 250° | 5km/h | 25747m | 4.7m/s | -50°C | 3.7% | 23.9hPa | 2.7V | 08:30:00 | 01:44:16 | 00:00:00 | |
| DL1XH-west | 2026-09-02 00:13:12 | 48.83503 | 10.05597 | 233° | 5km/h | 25752m | 4.9m/s | -50°C | 0.5% | 24hPa | 2.6V | 18:12:15 | 01:44:17 | 00:00:00 | |
| IW2NTF | 2026-09-02 00:13:11 | 48.83496 | 10.05612 | 287° | 11km/h | 25716m | 5.9m/s | -49.9°C | 3.6% | 24.1hPa | 2.7V | 08:30:00 | 01:44:10 | 00:00:00 | |
| DK7TD | 2026-09-02 00:13:09 | 48.83503 | 10.05603 | 321° | 7km/h | 25737m | 6.3m/s | -50°C | 0.5% | 24hPa | 2.6V | 18:12:15 | 01:44:14 | 00:00:00 | |
| DL8DAS-14 | 2026-09-02 00:13:08 | 48.83501 | 10.05605 | 336° | 9km/h | 25731m | 4.8m/s | -50.0°C | 0.9% | 24.0hPa | 2.6V | 00:00:00 | 00:00:00 | 00:00:00 | |
| DJ2DS-15 | 2026-09-02 00:13:07 | 48.83499 | 10.05606 | 329° | 11km/h | 25727m | 3.7m/s | -49.9°C | 3.7% | 24.0hPa | 2.6V | 00:00:00 | 01:44:12 | 00:00:00 | |
| AZAK | 2026-09-02 00:13:06 | 48.83499 | 10.05606 | 330° | 9km/h | 25727m | 3.8m/s | -49.9°C | 1.0% | 24.0hPa | 2.6V | 00:00:00 | 00:00:00 | 00:00:00 | |
| DO3MHA-12 | 2026-09-02 00:13:05 | 48.83496 | 10.05612 | 288° | 9km/h | 25716m | 5.8m/s | -49.8°C | 3.6% | 24.0hPa | 2.6V | 00:00:00 | 01:44:10 | 00:00:00 | |
| DL1XH1-15 | 2026-09-02 00:13:02 | 48.83499 | 10.05642 | 233° | 7km/h | 25673m | 4.6m/s | -50.1°C | 3.7% | 24.2hPa | 2.6V | 08:30:00 | 01:44:02 | 00:00:00 | |
| DL1XH-west | 2026-09-02 00:13:02 | 48.83496 | 10.05627 | 264° | 11km/h | 25700m | 6.2m/s | -49.9°C | 0.4% | 24.1hPa | 2.6V | 18:12:15 | 01:44:07 | 00:00:00 | |
| DK7TD | 2026-09-02 00:12:59 | 48.83497 | 10.05636 | 247° | 7km/h | 25684m | 6.2m/s | -50°C | 0.4% | 24.2hPa | 2.7V | 18:12:15 | 01:44:04 | 00:00:00 | |
| IW2NTF | 2026-09-02 00:12:59 | 48.83500 | 10.05644 | 329° | 2km/h | 25661m | 5.8m/s | -50.2°C | 3.7% | 24.3hPa | 2.6V | 08:30:00 | 01:44:00 | 00:00:00 | |
| DF8AY | 2026-09-02 00:12:58 | 48.83498 | 10.05639 | 240° | 9km/h | 25678m | 5.5m/s | -50°C | 0.5% | 24.2hPa | 2.6V | 18:12:15 | 01:44:03 | 00:00:00 | |
| NBG1-10 | 2026-09-02 00:12:58 | 48.83498 | 10.05639 | 240° | 13km/h | 25678m | 5.4m/s | -50.0°C | 3.7% | 24.2hPa | 2.6V | 00:00:00 | 01:44:03 | 00:00:00 | |
| DJ8HS-15 | 2026-09-02 00:12:57 | 48.83499 | 10.05642 | 234° | 11km/h | 25673m | 4.5m/s | -50.0°C | 3.7% | 24.2hPa | 2.6V | 00:00:00 | 01:44:02 | 00:00:00 | |
| DO3MHA-12 | 2026-09-02 00:12:55 | 48.83499 | 10.05644 | 330° | 13km/h | 25662m | 5.8m/s | -50.1°C | 3.7% | 24.2hPa | 2.6V | 00:00:00 | 01:44:00 | 00:00:00 | |
| DM0DOS-11 | 2026-09-02 00:12:54 | 48.83495 | 10.05653 | 280° | 15km/h | 25641m | 5.6m/s | -50.4°C | 3.8% | 24.4hPa | 2.6V | 08:30:00 | 01:43:56 | 00:00:00 | |
| DL1XH-west | 2026-09-02 00:12:51 | 48.83494 | 10.05653 | 280° | 15km/h | 25641m | 5.6m/s | -50.4°C | 0.5% | 24.4hPa | 2.6V | 18:12:15 | 01:43:56 | 00:00:00 | |
| DK7TD | 2026-09-02 00:12:48 | 48.83494 | 10.05673 | 271° | 18km/h | 25627m | 5.9m/s | -50.5°C | 0.5% | 24.4hPa | 2.7V | 18:12:15 | 01:43:53 | 00:00:00 | |
| DF8AY | 2026-09-02 00:12:47 | 48.83493 | 10.05690 | 270° | 13km/h | 25611m | 5.6m/s | -50.5°C | 0.5% | 24.5hPa | 2.6V | 18:12:15 | 01:43:50 | 00:00:00 | |
| DL1XH1-15 | 2026-09-02 00:12:47 | 48.83494 | 10.05680 | 276° | 16km/h | 25621m | 5.3m/s | -50.5°C | 3.8% | 24.4hPa | 2.6V | 08:30:00 | 01:43:52 | 00:00:00 | |
| DJ2DS-15 | 2026-09-02 00:12:47 | 48.83494 | 10.05680 | 277° | 15km/h | 25621m | 5.3m/s | -50.5°C | 3.8% | 24.4hPa | 2.6V | 00:00:00 | 01:43:52 | 00:00:00 | |
| DO3MHA-12 | 2026-09-02 00:12:45 | 48.83493 | 10.05690 | 271° | 11km/h | 25611m | 5.6m/s | -50.5°C | 3.8% | 24.4hPa | 2.6V | 00:00:00 | 01:43:50 | 08:30:00 | |
| DM0DOS-11 | 2026-09-02 00:12:44 | 48.83493 | 10.05705 | 302° | 9km/h | 25590m | 6.3m/s | -50.5°C | 3.7% | 24.6hPa | 2.6V | 08:30:00 | 01:43:46 | 00:00:00 | |
| DL1XH-west | 2026-09-02 00:12:40 | 48.83491 | 10.05708 | 318° | 11km/h | 25584m | 4.7m/s | -50.5°C | 0.5% | 24.6hPa | 2.6V | 18:12:15 | 01:43:45 | 00:00:00 | |
| DO9HM | 2026-09-02 00:12:40 | 48.83488 | 10.05715 | 289° | 13km/h | 25575m | 5.8m/s | -50.5°C | 1.0% | 24.6hPa | 2.6V | 00:00:00 | 00:00:00 | 00:00:00 | |
| DF3TZ-5 | 2026-09-02 00:12:39 | 48.83488 | 10.05715 | 288° | 11km/h | 25575m | 5.8m/s | -50.5°C | 0.9% | 24.6hPa | 2.6V | 00:00:00 | 00:00:00 | 00:00:00 | |
| IW2NTF | 2026-09-02 00:12:38 | 48.83491 | 10.05732 | 240° | 18km/h | 25560m | 4.8m/s | -50.5°C | 3.8% | 24.7hPa | 2.6V | 08:30:00 | 01:43:40 | 00:00:00 | |
| DG9SBQ-11 | 2026-09-02 00:12:38 | 48.83490 | 10.05711 | 307° | 11km/h | 25580m | 3.7m/s | -50.5°C | 1.0% | 24.6hPa | 2.7V | 00:00:00 | 00:00:00 | 00:00:00 | |
| DL1XH1-15 | 2026-09-02 00:12:37 | 48.83488 | 10.05720 | 263° | 15km/h | 25570m | 5.3m/s | -50.5°C | 3.7% | 24.6hPa | 2.7V | 08:30:00 | 01:43:42 | 00:00:00 | |
| DK7TD | 2026-09-02 00:12:37 | 48.83488 | 10.05720 | 263° | 15km/h | 25570m | 5.4m/s | -50.5°C | 0.5% | 24.6hPa | 2.7V | 18:12:15 | 01:43:42 | 00:00:00 | |
| DF8AY | 2026-09-02 00:12:35 | 48.83511 | 10.05764 | 214° | 15km/h | 25524m | 4.3m/s | -50.8°C | 0.5% | 24.8hPa | 2.6V | 18:12:15 | 01:43:33 | 00:00:00 | |
| DB0UT-7 | 2026-09-02 00:12:35 | 48.83491 | 10.05732 | 241° | 13km/h | 25561m | 4.7m/s | -50.5°C | 3.8% | 24.6hPa | 2.6V | 00:00:00 | 00:00:00 | 00:00:00 | |
| PG1ADW-2 | 2026-09-02 00:12:34 | 48.83493 | 10.05738 | 238° | 15km/h | 25555m | 5.2m/s | -50.6°C | 3.8% | 24.6hPa | 2.6V | 00:00:00 | 00:00:00 | 00:00:00 | |
| DL1XH1-15 | 2026-09-02 00:12:32 | 48.83514 | 10.05766 | 218° | 11km/h | 25519m | 6.2m/s | -50.8°C | 3.8% | 24.8hPa | 2.7V | 08:30:00 | 01:43:32 | 00:00:00 | |
| DL1XH-west | 2026-09-02 00:12:29 | 48.83508 | 10.05760 | 214° | 16km/h | 25529m | 4.6m/s | -50.8°C | 0.6% | 24.8hPa | 2.6V | 18:12:15 | 01:43:34 | 00:00:00 | |
| IW2NTF | 2026-09-02 00:12:28 | 48.83516 | 10.05771 | 245° | 7km/h | 25508m | 4.9m/s | -50.8°C | 3.9% | 24.9hPa | 2.6V | 08:30:00 | 01:43:30 | 00:00:00 | |
| DK7TD | 2026-09-02 00:12:27 | 48.83515 | 10.05769 | 232° | 7km/h | 25513m | 5.2m/s | -50.8°C | 0.5% | 24.9hPa | 2.7V | 18:12:15 | 01:43:31 | 00:00:00 | |
| DO3MHA-12 | 2026-09-02 00:12:25 | 48.83516 | 10.05771 | 246° | 13km/h | 25508m | 4.9m/s | -50.8°C | 3.9% | 24.8hPa | 2.6V | 00:00:00 | 01:43:30 | 00:00:00 | |
| OE5MMP-10 | 2026-09-02 00:12:24 | 48.83517 | 10.05774 | 248° | 15km/h | 25503m | 5.6m/s | -50.7°C | 3.9% | 24.8hPa | 2.6V | 00:00:00 | 01:43:29 | 00:00:00 | |
| DL6DJ-15 | 2026-09-02 00:12:23 | 48.83520 | 10.05782 | 236° | 15km/h | 25492m | 4.6m/s | -50.8°C | 1.0% | 24.9hPa | 2.6V | 00:00:00 | 00:00:00 | 00:00:00 | |
| DL1XH1-15 | 2026-09-02 00:12:22 | 48.83532 | 10.05800 | 199° | 16km/h | 25466m | 6.2m/s | -50.7°C | 3.8% | 25hPa | 2.6V | 08:30:00 | 01:43:22 | 00:00:00 | |
| DL1XH-west | 2026-09-02 00:12:18 | 48.83529 | 10.05797 | 207° | 13km/h | 25471m | 4.7m/s | -50.7°C | 0.5% | 25hPa | 2.6V | 18:12:15 | 01:43:23 | 00:00:00 | |
| IW2NTF | 2026-09-02 00:12:18 | 48.83541 | 10.05803 | 189° | 18km/h | 25455m | 4.2m/s | -50.7°C | 3.8% | 25.1hPa | 2.7V | 08:30:00 | 01:43:20 | 00:00:00 | |
| DK7TD | 2026-09-02 00:12:15 | 48.83541 | 10.05803 | 190° | 18km/h | 25455m | 4.3m/s | -50.7°C | 0.5% | 25.1hPa | 2.7V | 18:12:15 | 01:43:20 | 00:00:00 | |
| DM0DOS-11 | 2026-09-02 00:12:15 | 48.83553 | 10.05806 | 208° | 7km/h | 25435m | 5.4m/s | -50.7°C | 3.7% | 25.1hPa | 2.6V | 08:30:00 | 01:43:16 | 00:00:00 | |
| DL1XH-west | 2026-09-02 00:12:08 | 48.83558 | 10.05815 | 237° | 13km/h | 25419m | 4.6m/s | -50.7°C | 0.5% | 25.2hPa | 2.6V | 18:12:15 | 01:43:13 | 00:00:00 | |
| DL1XH1-15 | 2026-09-02 00:12:07 | 48.83560 | 10.05819 | 245° | 13km/h | 25414m | 6.1m/s | -50.7°C | 3.8% | 25.2hPa | 2.6V | 08:30:00 | 01:43:12 | 00:00:00 | |
| OE5WHR-10 | 2026-09-02 00:12:07 | 48.83560 | 10.05819 | 246° | 11km/h | 25414m | 6.1m/s | -50.7°C | 3.8% | 25.2hPa | 2.6V | 00:00:00 | 00:00:00 | 00:00:00 | |
| IW2NTF | 2026-09-02 00:12:06 | 48.83562 | 10.05827 | 240° | 13km/h | 25404m | 4.2m/s | -50.8°C | 3.8% | 25.3hPa | 2.7V | 08:30:00 | 01:43:10 | 00:00:00 | |
| DK7TD | 2026-09-02 00:12:05 | 48.83562 | 10.05827 | 240° | 13km/h | 25404m | 4.2m/s | -50.8°C | 0.5% | 25.3hPa | 2.7V | 18:12:15 | 01:43:10 | 00:00:00 | |
| DM0DOS-11 | 2026-09-02 00:12:05 | 48.83574 | 10.05843 | 209° | 13km/h | 25383m | 6m/s | -50.9°C | 3.8% | 25.4hPa | 2.6V | 08:30:00 | 01:43:06 | 00:00:00 | |
| DF8AY | 2026-09-02 00:12:05 | 48.83564 | 10.05832 | 231° | 15km/h | 25399m | 6.2m/s | -50.8°C | 0.5% | 25.3hPa | 2.7V | 18:12:15 | 01:43:09 | 00:00:00 | |
| AZAK | 2026-09-02 00:12:04 | 48.83564 | 10.05832 | 232° | 15km/h | 25399m | 6.2m/s | -50.8°C | 1.0% | 25.3hPa | 2.6V | 00:00:00 | 00:00:00 | 00:00:00 | |
| DL1XH1-15 | 2026-09-02 00:12:02 | 48.83582 | 10.05847 | 193° | 9km/h | 25361m | 5.7m/s | -51°C | 3.9% | 25.4hPa | 2.6V | 08:30:00 | 01:43:02 | 00:00:00 | |
| DL1XH-west | 2026-09-02 00:11:58 | 48.83580 | 10.05846 | 190° | 9km/h | 25367m | 5.5m/s | -51°C | 0.5% | 25.4hPa | 2.7V | 18:12:15 | 01:43:03 | 00:00:00 | |
| DJ8HS-15 | 2026-09-02 00:11:57 | 48.83582 | 10.05847 | 194° | 7km/h | 25361m | 5.6m/s | -50.9°C | 3.9% | 25.4hPa | 2.6V | 00:00:00 | 01:43:02 | 00:00:00 | |
| DM0DOS-11 | 2026-09-02 00:11:56 | 48.83590 | 10.05860 | 237° | 11km/h | 25330m | 6.3m/s | -51.2°C | 3.9% | 25.5hPa | 2.6V | 08:30:00 | 01:42:56 | 00:00:00 | |
| IW2NTF | 2026-09-02 00:11:56 | 48.83587 | 10.05850 | 217° | 7km/h | 25351m | 4.7m/s | -51°C | 3.8% | 25.5hPa | 2.6V | 08:30:00 | 01:43:00 | 00:00:00 | |
| DK7TD | 2026-09-02 00:11:54 | 48.83588 | 10.05852 | 238° | 5km/h | 25346m | 6.3m/s | -51.1°C | 0.5% | 25.5hPa | 2.7V | 18:12:15 | 01:42:59 | 00:00:00 | |
| DF8AY | 2026-09-02 00:11:54 | 48.83589 | 10.05857 | 249° | 9km/h | 25336m | 4.9m/s | -51.1°C | 0.5% | 25.6hPa | 2.6V | 18:12:15 | 01:42:57 | 00:00:00 | |
| PG1ADW-2 | 2026-09-02 00:11:54 | 48.83588 | 10.05852 | 238° | 9km/h | 25346m | 6.2m/s | -51.0°C | 3.8% | 25.4hPa | 2.7V | 00:00:00 | 01:42:59 | 00:00:00 | |
| DL1XH1-15 | 2026-09-02 00:11:52 | 48.83600 | 10.05871 | 200° | 9km/h | 25309m | 6m/s | -51.2°C | 3.9% | 25.7hPa | 2.7V | 08:30:00 | 01:42:52 | 00:00:00 | |
| DL1XH-west | 2026-09-02 00:11:47 | 48.83600 | 10.05871 | 200° | 9km/h | 25309m | 6m/s | -51.2°C | 0.6% | 25.7hPa | 2.7V | 18:12:15 | 01:42:52 | 00:00:00 | |
| IW2NTF | 2026-09-02 00:11:46 | 48.83603 | 10.05871 | 160° | 5km/h | 25299m | 4.9m/s | -51.3°C | 3.9% | 25.7hPa | 2.6V | 08:30:00 | 01:42:50 | 00:00:00 | |
| DK7TD | 2026-09-02 00:11:43 | 48.83606 | 10.05870 | 159° | 7km/h | 25288m | 4.7m/s | -51.2°C | 0.6% | 25.7hPa | 2.7V | 18:12:15 | 01:42:48 | 00:00:00 | |
| DL1XH-west | 2026-09-02 00:11:36 | 48.83619 | 10.05874 | 204° | 20km/h | 25250m | 4.4m/s | -51.3°C | 0.6% | 25.9hPa | 2.7V | 18:12:15 | 01:42:41 | 00:00:00 | |
| DO9HM | 2026-09-02 00:11:36 | 48.83619 | 10.05874 | 205° | 20km/h | 25250m | 4.4m/s | -51.3°C | 1.0% | 25.9hPa | 2.7V | 00:00:00 | 00:00:00 | 00:00:00 | |
| DO3MHA-12 | 2026-09-02 00:11:35 | 48.83623 | 10.05877 | 205° | 11km/h | 25246m | 4.2m/s | -51.3°C | 3.9% | 25.8hPa | 2.7V | 00:00:00 | 01:42:40 | 00:00:00 | |
| DM0DOS-11 | 2026-09-02 00:11:34 | 48.83637 | 10.05884 | 175° | 11km/h | 25225m | 6m/s | -51.7°C | 4% | 26hPa | 2.7V | 08:30:00 | 01:42:36 | 00:00:00 | |
| DF8AY | 2026-09-02 00:11:33 | 48.83632 | 10.05882 | 204° | 13km/h | 25235m | 5.2m/s | -51.6°C | 0.6% | 25.9hPa | 2.6V | 18:12:15 | 01:42:38 | 00:00:00 | |
| DL1ZP-14 | 2026-09-02 00:11:33 | 48.83634 | 10.05884 | 192° | 9km/h | 25230m | 4.9m/s | -51.6°C | 1.0% | 26.0hPa | 2.7V | 00:00:00 | 00:00:00 | 00:00:00 | |
| DL1XH1-15 | 2026-09-02 00:11:32 | 48.83646 | 10.05877 | 133° | 7km/h | 25203m | 6.2m/s | -51.8°C | 4% | 26.1hPa | 2.6V | 08:30:00 | 01:42:32 | 00:00:00 | |
| DK7TD | 2026-09-02 00:11:32 | 48.83634 | 10.05884 | 193° | 11km/h | 25230m | 4.9m/s | -51.6°C | 0.6% | 26hPa | 2.7V | 18:12:15 | 01:42:37 | 00:00:00 | |
| DG9SBQ-11 | 2026-09-02 00:11:31 | 48.83634 | 10.05884 | 194° | 11km/h | 25230m | 4.9m/s | -51.6°C | 1.0% | 26.0hPa | 2.6V | 00:00:00 | 00:00:00 | 00:00:00 | |
| DO3MHA-11 | 2026-09-02 00:11:30 | 48.83640 | 10.05883 | 159° | 11km/h | 25219m | 5.5m/s | -51.7°C | 4.0% | 26.0hPa | 2.6V | 00:00:00 | 01:42:35 | 00:00:00 | |
| DF1GD-15 | 2026-09-02 00:11:29 | 48.83640 | 10.05883 | 160° | 11km/h | 25219m | 5.6m/s | -51.8°C | 1.1% | 26.0hPa | 2.6V | 00:00:00 | 00:00:00 | 00:00:00 | |
| DN1GJH-1 | 2026-09-02 00:11:28 | 48.83642 | 10.05881 | 149° | 11km/h | 25214m | 4.4m/s | -51.8°C | 1.0% | 26.0hPa | 2.6V | 00:00:00 | 00:00:00 | 00:00:00 | |
| DM7RM-13 | 2026-09-02 00:11:27 | 48.83644 | 10.05879 | 142° | 11km/h | 25209m | 5.1m/s | -51.8°C | 1.1% | 26.1hPa | 2.6V | 00:00:00 | 00:00:00 | 00:00:00 | |
| IW2NTF | 2026-09-02 00:11:26 | 48.83653 | 10.05875 | 192° | 13km/h | 25181m | 4.9m/s | -51.9°C | 4% | 26.2hPa | 2.6V | 08:30:00 | 01:42:28 | 00:00:00 | |
| DL1XH-west | 2026-09-02 00:11:25 | 48.83648 | 10.05874 | 173° | 5km/h | 25192m | 4.6m/s | -51.8°C | 0.6% | 26.1hPa | 2.7V | 18:12:15 | 01:42:30 | 00:00:00 | |
| OE5WHR-10 | 2026-09-02 00:11:25 | 48.83648 | 10.05874 | 174° | 9km/h | 25193m | 4.6m/s | -51.8°C | 4.0% | 26.1hPa | 2.7V | 00:00:00 | 01:42:30 | 00:00:00 | |
| DM0DOS-11 | 2026-09-02 00:11:24 | 48.83659 | 10.05878 | 205° | 13km/h | 25171m | 6.5m/s | -51.8°C | 4% | 26.2hPa | 2.7V | 08:30:00 | 01:42:26 | 00:00:00 | |
| DK7TD | 2026-09-02 00:11:21 | 48.83659 | 10.05878 | 205° | 13km/h | 25171m | 6.5m/s | -51.8°C | 0.7% | 26.2hPa | 2.7V | 18:12:15 | 01:42:26 | 00:00:00 | |
| DF8AY | 2026-09-02 00:11:18 | 48.83667 | 10.05885 | 189° | 7km/h | 25148m | 6.4m/s | -51.8°C | 0.6% | 26.3hPa | 2.6V | 18:12:15 | 01:42:22 | 00:00:00 | |
| DL1XH1-15 | 2026-09-02 00:11:18 | 48.83667 | 10.05885 | 189° | 7km/h | 25148m | 6.4m/s | -51.8°C | 4% | 26.3hPa | 2.6V | 08:30:00 | 01:42:22 | 00:00:00 | |
| IW2NTF | 2026-09-02 00:11:17 | 48.83673 | 10.05885 | 219° | 4km/h | 25126m | 5.4m/s | -51.8°C | 4% | 26.4hPa | 2.6V | 08:30:00 | 01:42:18 | 00:00:00 | |
| DL1XH-west | 2026-09-02 00:11:14 | 48.83673 | 10.05885 | 184° | 5km/h | 25132m | 6.3m/s | -51.8°C | 0.6% | 26.4hPa | 2.7V | 18:12:15 | 01:42:19 | 00:00:00 | |
| OE5DRO-10 | 2026-09-02 00:11:14 | 48.83673 | 10.05885 | 185° | 7km/h | 25132m | 6.2m/s | -51.7°C | 4.0% | 26.3hPa | 2.6V | 00:00:00 | 00:00:00 | 00:00:00 | |
| DK5PH-5 | 2026-09-02 00:11:13 | 48.83673 | 10.05885 | 220° | 7km/h | 25126m | 5.3m/s | -51.7°C | 4.0% | 26.3hPa | 2.6V | 00:00:00 | 01:42:18 | 00:00:00 | |
| DM0DOS-11 | 2026-09-02 00:11:12 | 48.83675 | 10.05888 | 219° | 7km/h | 25116m | 6.2m/s | -51.8°C | 4% | 26.4hPa | 2.6V | 08:30:00 | 01:42:16 | 00:00:00 | |
| DL1XH1-15 | 2026-09-02 00:11:12 | 48.83684 | 10.05899 | 238° | 11km/h | 25094m | 6.4m/s | -51.8°C | 4% | 26.5hPa | 2.6V | 08:30:00 | 01:42:12 | 00:00:00 | |
| DK7TD | 2026-09-02 00:11:10 | 48.83677 | 10.05890 | 213° | 11km/h | 25109m | 5.7m/s | -51.8°C | 0.7% | 26.4hPa | 2.7V | 18:12:15 | 01:42:15 | 00:00:00 | |
| DF8AY | 2026-09-02 00:11:07 | 48.83685 | 10.05903 | 263° | 9km/h | 25088m | 5.6m/s | -51.8°C | 0.6% | 26.6hPa | 2.6V | 18:12:15 | 01:42:11 | 00:00:00 | |
| DM7RM-13 | 2026-09-02 00:11:06 | 48.83684 | 10.05899 | 239° | 11km/h | 25094m | 6.4m/s | -51.8°C | 1.1% | 26.5hPa | 2.7V | 00:00:00 | 00:00:00 | 00:00:00 | |
| IW2NTF | 2026-09-02 00:11:05 | 48.83685 | 10.05911 | 265° | 4km/h | 25071m | 5.6m/s | -51.8°C | 4% | 26.6hPa | 2.7V | 08:30:00 | 01:42:08 | 00:00:00 | |
| DL1XH-west | 2026-09-02 00:11:03 | 48.83685 | 10.05911 | 265° | 4km/h | 25072m | 5.6m/s | -51.8°C | 0.6% | 26.6hPa | 2.7V | 18:12:15 | 01:42:08 | 00:00:00 | |
| DK7TD | 2026-09-02 00:10:59 | 48.83684 | 10.05912 | 349° | 2km/h | 25050m | 4.8m/s | -51.9°C | 0.6% | 26.7hPa | 2.7V | 18:12:15 | 01:42:04 | 00:00:00 | |
| OE5MMP-10 | 2026-09-02 00:10:59 | 48.83684 | 10.05912 | 349° | 11km/h | 25050m | 4.7m/s | 0°C | 0% | 0hPa | 2.6V | 00:00:00 | 01:42:04 | 00:00:00 | |
| DL1XH1-15 | 2026-09-02 00:10:57 | 48.83685 | 10.05913 | 207° | 7km/h | 25040m | 6.5m/s | -52°C | 4% | 26.8hPa | 2.6V | 08:30:00 | 01:42:02 | 00:00:00 | |
| DF8AY | 2026-09-02 00:10:56 | 48.83687 | 10.05915 | 213° | 13km/h | 25034m | 5.4m/s | -52°C | 0.6% | 26.8hPa | 2.6V | 18:12:15 | 01:42:01 | 00:00:00 | |
| IW2NTF | 2026-09-02 00:10:55 | 48.83696 | 10.05929 | 245° | 16km/h | 25017m | 6.3m/s | -52°C | 4% | 26.8hPa | 2.7V | 08:30:00 | 01:41:58 | 00:00:00 | |
| DL1XH-west | 2026-09-02 00:10:53 | 48.83696 | 10.05929 | 246° | 16km/h | 25017m | 6.3m/s | -52°C | 0.6% | 26.8hPa | 2.7V | 18:12:15 | 01:41:58 | 00:00:00 | |
| DL1XH1-15 | 2026-09-02 00:10:52 | 48.83697 | 10.05944 | 96° | 5km/h | 24985m | 5.1m/s | -52°C | 4% | 27hPa | 2.7V | 08:30:00 | 01:41:52 | 00:00:00 | |
| DK7TD | 2026-09-02 00:10:48 | 48.83697 | 10.05945 | 133° | 2km/h | 24991m | 5.3m/s | -52°C | 0.6% | 27hPa | 2.7V | 18:12:15 | 01:41:53 | 00:00:00 | |
| DF8AY | 2026-09-02 00:10:46 | 48.83697 | 10.05939 | 77° | 5km/h | 24974m | 4.7m/s | -52°C | 0.6% | 27hPa | 2.6V | 18:12:15 | 01:41:50 | 00:00:00 | |
| NBG1-10 | 2026-09-02 00:10:46 | 48.83697 | 10.05941 | 83° | 11km/h | 24980m | 6.2m/s | -51.9°C | 4.0% | 27.0hPa | 2.7V | 00:00:00 | 01:41:51 | 00:00:00 | |
| DM0DOS-11 | 2026-09-02 00:10:45 | 48.83701 | 10.05946 | 241° | 18km/h | 24953m | 4.4m/s | -52.1°C | 4% | 27.1hPa | 2.7V | 08:30:00 | 01:41:46 | 00:00:00 | |
| DL1XH-west | 2026-09-02 00:10:43 | 48.83697 | 10.05938 | 225° | 5km/h | 24964m | 6.4m/s | -52°C | 0.6% | 27.1hPa | 2.6V | 18:12:15 | 01:41:48 | 00:00:00 | |
| DK7TD | 2026-09-02 00:10:38 | 48.83704 | 10.05965 | 272° | 15km/h | 24938m | 5.1m/s | -52.2°C | 0.7% | 27.2hPa | 2.6V | 18:12:15 | 01:41:43 | 00:00:00 | |
| DF8AY | 2026-09-02 00:10:35 | 48.83704 | 10.05975 | 246° | 5km/h | 24923m | 5.7m/s | -52.3°C | 0.7% | 27.2hPa | 2.6V | 18:12:15 | 01:41:40 | 00:00:00 | |
| DO3MHA-12 | 2026-09-02 00:10:35 | 48.83703 | 10.05975 | 246° | 9km/h | 24923m | 5.6m/s | -52.2°C | 4.1% | 27.2hPa | 2.6V | 00:00:00 | 01:41:40 | 00:00:00 | |
| IW2NTF | 2026-09-02 00:10:34 | 48.83705 | 10.05977 | 216° | 4km/h | 24912m | 4.8m/s | -52.2°C | 4.1% | 27.3hPa | 2.6V | 08:30:00 | 01:41:38 | 00:00:00 | |
| DM0DOS-11 | 2026-09-02 00:10:34 | 48.83706 | 10.05979 | 271° | 4km/h | 24901m | 5.3m/s | -52.2°C | 4.1% | 27.3hPa | 2.7V | 08:30:00 | 01:41:36 | 00:00:00 | |
| DL1XH-west | 2026-09-02 00:10:32 | 48.83706 | 10.05978 | 241° | 2km/h | 24907m | 6.2m/s | -52.2°C | 0.7% | 0hPa | 2.6V | 18:12:15 | 01:41:37 | 00:00:00 | |
| DK7TD | 2026-09-02 00:10:27 | 48.83711 | 10.05991 | 219° | 18km/h | 24880m | 5.7m/s | -52.2°C | 0.7% | 27.4hPa | 2.6V | 18:12:15 | 01:41:32 | 00:00:00 | |
| DF8AY | 2026-09-02 00:10:25 | 48.83748 | 10.06032 | 206° | 16km/h | 24805m | 4.5m/s | -52.1°C | 0.7% | 27.8hPa | 2.6V | 18:12:15 | 01:41:18 | 00:00:00 | |
| DL1XH-west | 2026-09-02 00:10:21 | 48.83731 | 10.06008 | 197° | 15km/h | 24848m | 5.8m/s | -52.2°C | 0.7% | 0hPa | 2.6V | 18:12:15 | 01:41:26 | 00:00:00 | |
| DO3MHA-11 | 2026-09-02 00:10:20 | 48.83734 | 10.06010 | 200° | 13km/h | 24843m | 5.0m/s | -52.1°C | 4.1% | 27.5hPa | 2.7V | 00:00:00 | 01:41:25 | 00:00:00 | |
| OE5MMP-10 | 2026-09-02 00:10:19 | 48.83737 | 10.06012 | 212° | 13km/h | 24838m | 4.8m/s | 0°C | 0% | 0hPa | 2.6V | 00:00:00 | 01:41:24 | 00:00:00 | |
| DL1XH1-15 | 2026-09-02 00:10:17 | 48.83740 | 10.06018 | 252° | 9km/h | 24826m | 5.7m/s | -52.2°C | 0% | 27.6hPa | 2.6V | 08:30:00 | 01:41:22 | 00:00:00 | |
| DK7TD | 2026-09-02 00:10:16 | 48.83741 | 10.06021 | 253° | 11km/h | 24820m | 4.7m/s | -52.2°C | 0.7% | 27.7hPa | 2.6V | 18:12:15 | 01:41:21 | 00:00:00 | |
| DO3MHA-12 | 2026-09-02 00:10:15 | 48.83742 | 10.06025 | 240° | 15km/h | 24816m | 6.0m/s | -52.1°C | 4.1% | 27.6hPa | 2.7V | 00:00:00 | 01:41:20 | 00:00:00 | |
| IW2NTF | 2026-09-02 00:10:14 | 48.83759 | 10.06038 | 197° | 15km/h | 24788m | 5.5m/s | -52.2°C | 4.1% | 27.8hPa | 2.6V | 08:30:00 | 01:41:15 | 00:00:00 | |
| DL1XH-west | 2026-09-02 00:10:11 | 48.83756 | 10.06037 | 197° | 16km/h | 24794m | 6.1m/s | -52.2°C | 0% | 0hPa | 2.6V | 18:12:15 | 01:41:16 | 00:00:00 | |
| DF8AY | 2026-09-02 00:10:09 | 48.83763 | 10.06040 | 199° | 15km/h | 24783m | 5m/s | -52.2°C | 0.7% | 27.8hPa | 2.7V | 18:12:15 | 01:41:14 | 00:00:00 | |
| OE5MMP-10 | 2026-09-02 00:10:09 | 48.83763 | 10.06040 | 199° | 20km/h | 24784m | 5.0m/s | 0°C | 0% | 0hPa | 2.6V | 00:00:00 | 01:41:14 | 00:00:00 | |
| DL1XH1-15 | 2026-09-02 00:10:07 | 48.83770 | 10.06044 | 203° | 18km/h | 24771m | 5.5m/s | -52.2°C | 0% | 27.9hPa | 2.6V | 08:30:00 | 01:41:12 | 00:00:00 | |
| SONCRA | 2026-09-02 00:10:06 | 48.83774 | 10.06047 | 211° | 15km/h | 24767m | 4.1m/s | -52.2°C | 1.0% | 27.9hPa | 2.6V | 00:00:00 | 00:00:00 | 00:00:00 | |
| DO3MHA-12 | 2026-09-02 00:10:05 | 48.83777 | 10.06051 | 224° | 15km/h | 24762m | 5.7m/s | -52.1°C | 4.0% | 27.9hPa | 2.6V | 00:00:00 | 01:41:10 | 00:00:00 | |
| DK7TD | 2026-09-02 00:10:05 | 48.83777 | 10.06051 | 223° | 15km/h | 24762m | 5.8m/s | -52.2°C | 0.6% | 27.9hPa | 2.6V | 18:12:15 | 01:41:10 | 00:00:00 | |
| DM0DOS-11 | 2026-09-02 00:10:04 | 48.83783 | 10.06068 | 234° | 15km/h | 24739m | 6.3m/s | -52.2°C | 4.1% | 28hPa | 2.6V | 08:30:00 | 01:41:06 | 00:00:00 | |
| DL1XH-west | 2026-09-02 00:10:00 | 48.83786 | 10.06072 | 218° | 16km/h | 24734m | 5.4m/s | 0°C | 0% | 0hPa | 2.6V | 18:12:15 | 01:41:05 | 00:00:00 | |
| DF8AY | 2026-09-02 00:09:59 | 48.83821 | 10.06096 | 213° | 24km/h | 24691m | 5.2m/s | -52°C | 0.5% | 28.2hPa | 2.7V | 18:12:15 | 01:40:57 | 00:00:00 | |
| DK7TD | 2026-09-02 00:09:55 | 48.83805 | 10.06085 | 197° | 20km/h | 24706m | 6m/s | -52°C | 0.6% | 28.2hPa | 2.6V | 18:12:15 | 01:41:00 | 00:00:00 | |
| DO3MHA-12 | 2026-09-02 00:09:55 | 48.83805 | 10.06085 | 198° | 20km/h | 24706m | 5.9m/s | -52.0°C | 4.0% | 28.1hPa | 2.6V | 00:00:00 | 01:41:00 | 00:00:00 | |
| DM0DOS-11 | 2026-09-02 00:09:54 | 48.83826 | 10.06101 | 223° | 22km/h | 24685m | 6.4m/s | -51.9°C | 4% | 28.3hPa | 2.6V | 08:30:00 | 01:40:56 | 00:00:00 | |
| DL1XH-west | 2026-09-02 00:09:50 | 48.83829 | 10.06107 | 233° | 20km/h | 24679m | 5.4m/s | 0°C | 0% | 0hPa | 2.6V | 18:12:15 | 01:40:55 | 00:00:00 | |
| DK7TD | 2026-09-02 00:09:44 | 48.83850 | 10.06129 | 181° | 18km/h | 24646m | 5.1m/s | -52.1°C | 0.6% | 28.4hPa | 2.6V | 18:12:15 | 01:40:49 | 00:00:00 | |
| DF8AY | 2026-09-02 00:09:41 | 48.83877 | 10.06123 | 172° | 31km/h | 24624m | 4.1m/s | -52.1°C | 0.7% | 28.5hPa | 2.6V | 18:12:15 | 01:40:45 | 00:00:00 | |
| OE5DXL-15 | 2026-09-02 00:09:41 | 48.83869 | 10.06125 | 170° | 22km/h | 24629m | 5.5m/s | -52.1°C | 4.0% | 28.5hPa | 2.7V | 00:00:00 | 00:00:00 | 08:30:00 | |
| NBG1-10 | 2026-09-02 00:09:40 | 48.83877 | 10.06123 | 173° | 22km/h | 24624m | 4.1m/s | -52.1°C | 4.1% | 28.5hPa | 2.6V | 00:00:00 | 01:40:45 | 08:30:00 | |
| OE5DRO-10 | 2026-09-02 00:09:39 | 48.83884 | 10.06122 | 178° | 20km/h | 24619m | 5.8m/s | -52.1°C | 4.1% | 28.5hPa | 2.7V | 00:00:00 | 00:00:00 | 00:00:00 | |
| DJ8HS-15 | 2026-09-02 00:09:37 | 48.83896 | 10.06124 | 196° | 20km/h | 24608m | 5.2m/s | -52.2°C | 4.1% | 28.6hPa | 2.7V | 00:00:00 | 01:40:42 | 00:00:00 | |
| DO3MHA-12 | 2026-09-02 00:09:35 | 48.83906 | 10.06130 | 206° | 22km/h | 24597m | 6.0m/s | -52.2°C | 4.1% | 28.6hPa | 2.7V | 00:00:00 | 01:40:40 | 00:00:00 | |
| DM0DOS-11 | 2026-09-02 00:09:34 | 48.83923 | 10.06142 | 204° | 16km/h | 24575m | 5.6m/s | -52.3°C | 4.1% | 28.7hPa | 2.7V | 08:30:00 | 01:40:36 | 00:00:00 | |
| DK7TD | 2026-09-02 00:09:33 | 48.83914 | 10.06136 | 206° | 18km/h | 24586m | 4.3m/s | -52.3°C | 0.6% | 28.7hPa | 2.6V | 18:12:15 | 01:40:38 | 00:00:00 | |
| DF8AY | 2026-09-02 00:09:29 | 48.83957 | 10.06144 | 181° | 22km/h | 24543m | 5.9m/s | -52.5°C | 0.7% | 28.9hPa | 2.7V | 18:12:15 | 01:40:30 | 00:00:00 | |
| DF1GD-15 | 2026-09-02 00:09:29 | 48.83951 | 10.06145 | 178° | 26km/h | 24549m | 5.2m/s | -52.5°C | 1.1% | 28.9hPa | 2.6V | 00:00:00 | 00:00:00 | 00:00:00 | |
| DM0DOS-11 | 2026-09-02 00:09:28 | 48.83974 | 10.06151 | 198° | 20km/h | 24523m | 5.4m/s | -52.5°C | 4.1% | 29hPa | 2.6V | 08:30:00 | 01:40:26 | 00:00:00 | |
| DK7TD | 2026-09-02 00:09:24 | 48.83966 | 10.06146 | 196° | 16km/h | 24533m | 4.4m/s | -52.5°C | 0.7% | 28.9hPa | 2.6V | 18:12:15 | 01:40:28 | 00:00:00 | |
| DF8AY | 2026-09-02 00:09:15 | 48.84011 | 10.06159 | 159° | 29km/h | 24487m | 5.8m/s | -52.5°C | 0.7% | 29.1hPa | 2.7V | 18:12:15 | 01:40:19 | 00:00:00 | |
| DB0ND-19 | 2026-09-02 00:09:15 | 48.84011 | 10.06159 | 159° | 29km/h | 24487m | 5.8m/s | -52.5°C | 1.1% | 29.1hPa | 2.6V | 00:00:00 | 00:00:00 | 00:00:00 | |
| DM0DOS-11 | 2026-09-02 00:09:14 | 48.84033 | 10.06145 | 158° | 29km/h | 24472m | 5.5m/s | -52.4°C | 4.1% | 29.2hPa | 2.6V | 08:30:00 | 01:40:16 | 00:00:00 | |
| DK7TD | 2026-09-02 00:09:12 | 48.84025 | 10.06149 | 156° | 33km/h | 24477m | 4.3m/s | -52.4°C | 0.7% | 29.2hPa | 2.6V | 18:12:15 | 01:40:17 | 00:00:00 | |
| OE5DXL-15 | 2026-09-02 00:09:11 | 48.84033 | 10.06145 | 159° | 18km/h | 24472m | 5.4m/s | -52.4°C | 4.1% | 29.2hPa | 2.6V | 00:00:00 | 01:40:16 | 00:00:00 | |
| DO3MHA-11 | 2026-09-02 00:09:10 | 48.84039 | 10.06141 | 165° | 20km/h | 24467m | 5.4m/s | -52.4°C | 4.1% | 29.2hPa | 2.6V | 00:00:00 | 01:40:15 | 00:00:00 | |
| DG9SBQ-11 | 2026-09-02 00:09:08 | 48.84050 | 10.06139 | 179° | 20km/h | 24457m | 4.5m/s | -52.5°C | 1.1% | 29.3hPa | 2.6V | 00:00:00 | 00:00:00 | 00:00:00 | |
| NBG1-10 | 2026-09-02 00:09:07 | 48.84055 | 10.06138 | 179° | 16km/h | 24451m | 5.9m/s | -52.5°C | 4.1% | 29.3hPa | 2.6V | 00:00:00 | 01:40:12 | 00:00:00 | |
| DJ2DS-15 | 2026-09-02 00:09:05 | 48.84071 | 10.06137 | 177° | 20km/h | 24435m | 5.8m/s | -52.5°C | 1.1% | 29.4hPa | 2.6V | 00:00:00 | 00:00:00 | 00:00:00 | |
| DM0DOS-11 | 2026-09-02 00:09:04 | 48.84084 | 10.06135 | 165° | 18km/h | 24418m | 4.7m/s | -52.4°C | 4.1% | 29.5hPa | 2.6V | 08:30:00 | 01:40:06 | 00:00:00 | |
| DF8AY | 2026-09-02 00:09:03 | 48.84076 | 10.06137 | 178° | 18km/h | 24429m | 6.2m/s | -52.5°C | 0.7% | 29.4hPa | 2.7V | 18:12:15 | 01:40:08 | 00:00:00 | |
| DK7TD | 2026-09-02 00:09:02 | 48.84080 | 10.06136 | 174° | 16km/h | 24423m | 5m/s | -52.4°C | 0.7% | 29.4hPa | 2.7V | 18:12:15 | 01:40:07 | 00:00:00 | |
| OE5DRO-10 | 2026-09-02 00:09:01 | 48.84084 | 10.06135 | 166° | 16km/h | 24418m | 4.7m/s | -52.4°C | 4.1% | 29.4hPa | 2.6V | 00:00:00 | 00:00:00 | 08:30:00 | |
| DO3MHA-11 | 2026-09-02 00:09:00 | 48.84089 | 10.06133 | 159° | 16km/h | 24413m | 6.4m/s | -52.3°C | 4.1% | 29.4hPa | 2.7V | 00:00:00 | 01:40:05 | 00:00:00 | |
| AZAK | 2026-09-02 00:08:59 | 48.84099 | 10.06125 | 152° | 22km/h | 24402m | 4.8m/s | -52.4°C | 1.1% | 29.5hPa | 2.7V | 00:00:00 | 00:00:00 | 00:00:00 | |
| OE5WHR-10 | 2026-09-02 00:08:58 | 48.84099 | 10.06125 | 151° | 15km/h | 24402m | 4.7m/s | -52.3°C | 4.1% | 29.5hPa | 2.7V | 00:00:00 | 00:00:00 | 00:00:00 | |
| DJ8HS-15 | 2026-09-02 00:08:57 | 48.84103 | 10.06121 | 151° | 15km/h | 24396m | 5.9m/s | -52.3°C | 4.1% | 29.5hPa | 2.7V | 00:00:00 | 01:40:02 | 00:00:00 | |
| DG9SBQ-11 | 2026-09-02 00:08:56 | 48.84103 | 10.06121 | 151° | 20km/h | 24396m | 6.0m/s | -52.4°C | 1.1% | 29.6hPa | 2.7V | 00:00:00 | 00:00:00 | 00:00:00 | |
| DO3MHA-12 | 2026-09-02 00:08:55 | 48.84110 | 10.06116 | 155° | 13km/h | 24386m | 4.8m/s | -52.3°C | 4.1% | 29.6hPa | 2.7V | 00:00:00 | 01:40:00 | 00:00:00 | |
| PG1ADW-2 | 2026-09-02 00:08:54 | 48.84113 | 10.06114 | 161° | 15km/h | 24380m | 5.4m/s | -52.3°C | 4.1% | 29.6hPa | 2.7V | 00:00:00 | 00:00:00 | 00:00:00 | |
| DM0DOS-11 | 2026-09-02 00:08:53 | 48.84123 | 10.06110 | 163° | 13km/h | 24364m | 5.1m/s | -52.3°C | 4.1% | 29.7hPa | 2.7V | 08:30:00 | 01:39:56 | 00:00:00 | |
| DF8AY | 2026-09-02 00:08:52 | 48.84120 | 10.06111 | 165° | 15km/h | 24369m | 4.6m/s | -52.3°C | 0.7% | 29.7hPa | 2.7V | 18:12:15 | 01:39:57 | 00:00:00 | |
| DK7TD | 2026-09-02 00:08:51 | 48.84123 | 10.06110 | 163° | 13km/h | 24364m | 5.1m/s | -52.3°C | 0.7% | 29.7hPa | 2.7V | 18:12:15 | 01:39:56 | 00:00:00 | |
| DF7PN | 2026-09-02 00:08:46 | 48.84136 | 10.06097 | 143° | 18km/h | 24338m | 6.0m/s | -52.3°C | 1.1% | 29.8hPa | 2.6V | 00:00:00 | 00:00:00 | 00:00:00 | |
| DO3MHA-12 | 2026-09-02 00:08:45 | 48.84140 | 10.06092 | 148° | 15km/h | 24333m | 4.7m/s | -52.2°C | 4.1% | 29.8hPa | 2.6V | 00:00:00 | 01:39:50 | 00:00:00 | |
| DB0ND-19 | 2026-09-02 00:08:44 | 48.84149 | 10.06085 | 154° | 18km/h | 24323m | 5.8m/s | -52.3°C | 1.1% | 29.9hPa | 2.7V | 00:00:00 | 00:00:00 | 00:00:00 | |
| DM0DOS-11 | 2026-09-02 00:08:43 | 48.84156 | 10.06079 | 140° | 11km/h | 24313m | 4.5m/s | -52.4°C | 4.1% | 29.9hPa | 2.7V | 08:30:00 | 01:39:46 | 00:00:00 | |
| DF8AY | 2026-09-02 00:08:42 | 48.84166 | 10.06061 | 132° | 13km/h | 24287m | 6.1m/s | -52.4°C | 0.7% | 30.1hPa | 2.7V | 18:12:15 | 01:39:41 | 00:00:00 | |
| DK7TD | 2026-09-02 00:08:41 | 48.84156 | 10.06079 | 141° | 11km/h | 24313m | 4.5m/s | -52.4°C | 0.7% | 29.9hPa | 2.7V | 18:12:15 | 01:39:46 | 00:00:00 | |
| DG9SBQ-11 | 2026-09-02 00:08:41 | 48.84156 | 10.06079 | 142° | 11km/h | 24313m | 4.5m/s | -52.4°C | 1.1% | 29.9hPa | 2.6V | 00:00:00 | 00:00:00 | 00:00:00 | |
| DO3MHA-11 | 2026-09-02 00:08:40 | 48.84158 | 10.06076 | 132° | 15km/h | 24309m | 4.7m/s | -52.3°C | 4.1% | 29.9hPa | 2.6V | 00:00:00 | 01:39:45 | 00:00:00 | |
| AZAK | 2026-09-02 00:08:37 | 48.84164 | 10.06065 | 131° | 15km/h | 24293m | 5.1m/s | -52.4°C | 1.1% | 30.1hPa | 2.6V | 00:00:00 | 00:00:00 | 00:00:00 | |
| DH7VM-15 | 2026-09-02 00:08:36 | 48.84164 | 10.06065 | 131° | 15km/h | 24293m | 5.1m/s | -52.4°C | 1.1% | 30.1hPa | 2.6V | 00:00:00 | 00:00:00 | 00:00:00 | |
| OE5WHR-10 | 2026-09-02 00:08:35 | 48.84168 | 10.06058 | 136° | 22km/h | 24282m | 5.6m/s | -52.3°C | 4.1% | 30.1hPa | 2.6V | 00:00:00 | 00:00:00 | 00:00:00 | |
| PG1ADW-2 | 2026-09-02 00:08:34 | 48.84170 | 10.06054 | 140° | 22km/h | 24276m | 4.2m/s | -52.3°C | 4.1% | 30.1hPa | 2.6V | 00:00:00 | 00:00:00 | 00:00:00 | |
| DM0DOS-11 | 2026-09-02 00:08:33 | 48.84181 | 10.06040 | 136° | 26km/h | 24260m | 5.2m/s | -52.3°C | 4.1% | 30.2hPa | 2.6V | 08:30:00 | 01:39:36 | 00:00:00 | |
| DF8AY | 2026-09-02 00:08:32 | 48.84196 | 10.06004 | 111° | 22km/h | 24234m | 6.2m/s | -52.3°C | 0.7% | 30.3hPa | 2.6V | 18:12:15 | 01:39:31 | 00:00:00 | |
| DK7TD | 2026-09-02 00:08:30 | 48.84186 | 10.06033 | 132° | 24km/h | 24255m | 4.9m/s | -52.3°C | 0.7% | 30.2hPa | 2.7V | 18:12:15 | 01:39:35 | 00:00:00 | |
| DG9SBQ-11 | 2026-09-02 00:08:30 | 48.84186 | 10.06033 | 133° | 24km/h | 24255m | 4.9m/s | -52.3°C | 1.1% | 30.2hPa | 2.6V | 00:00:00 | 00:00:00 | 00:00:00 | |
| DJ2DS-15 | 2026-09-02 00:08:29 | 48.84192 | 10.06019 | 116° | 20km/h | 24244m | 5.2m/s | -52.3°C | 1.1% | 30.3hPa | 2.6V | 00:00:00 | 00:00:00 | 00:00:00 | |
| DG9SBQ-11 | 2026-09-02 00:08:25 | 48.84199 | 10.05996 | 114° | 24km/h | 24228m | 5.7m/s | -52.4°C | 1.0% | 30.3hPa | 2.6V | 00:00:00 | 00:00:00 | 00:00:00 | |
| DM0DOS-11 | 2026-09-02 00:08:23 | 48.84208 | 10.05968 | 126° | 18km/h | 24206m | 4.5m/s | -52.5°C | 4.1% | 30.4hPa | 2.6V | 08:30:00 | 01:39:26 | 00:00:00 | |
| DF8AY | 2026-09-02 00:08:21 | 48.84208 | 10.05968 | 127° | 18km/h | 24206m | 4.5m/s | -52.5°C | 0.7% | 30.4hPa | 2.6V | 18:12:15 | 01:39:26 | 00:00:00 | |
| DK7TD | 2026-09-02 00:08:19 | 48.84215 | 10.05956 | 130° | 24km/h | 24195m | 6m/s | -52.5°C | 0.7% | 30.5hPa | 2.7V | 18:12:15 | 01:39:24 | 00:00:00 | |
| OE3JTB-15 | 2026-09-02 00:08:19 | 48.84219 | 10.05948 | 130° | 24km/h | 24190m | 4.8m/s | -52.4°C | 4.1% | 30.5hPa | 2.6V | 00:00:00 | 00:00:00 | 00:00:00 | |
| DJ8HS-15 | 2026-09-02 00:08:17 | 48.84223 | 10.05940 | 128° | 26km/h | 24184m | 6.0m/s | -52.4°C | 4.1% | 30.5hPa | 2.6V | 00:00:00 | 01:39:22 | 08:30:00 | |
| DO3MHA-12 | 2026-09-02 00:08:15 | 48.84230 | 10.05926 | 120° | 26km/h | 24174m | 4.2m/s | -52.4°C | 4.1% | 30.6hPa | 2.6V | 00:00:00 | 01:39:20 | 08:30:00 | |
| PG1ADW-2 | 2026-09-02 00:08:14 | 48.84232 | 10.05918 | 118° | 26km/h | 24169m | 5.4m/s | -52.4°C | 4.1% | 30.6hPa | 2.6V | 00:00:00 | 00:00:00 | 00:00:00 | |
| DM0DOS-11 | 2026-09-02 00:08:13 | 48.84241 | 10.05890 | 114° | 26km/h | 24151m | 5.7m/s | -52.5°C | 4.1% | 30.7hPa | 2.6V | 08:30:00 | 01:39:16 | 00:00:00 | |
| DF8AY | 2026-09-02 00:08:11 | 48.84241 | 10.05890 | 115° | 26km/h | 24151m | 5.7m/s | -52.5°C | 0.7% | 30.7hPa | 2.6V | 18:12:15 | 01:39:16 | 00:00:00 | |
| DK7TD | 2026-09-02 00:08:08 | 48.84250 | 10.05867 | 129° | 22km/h | 24136m | 4.8m/s | -52.5°C | 0.7% | 30.8hPa | 2.7V | 18:12:15 | 01:39:13 | 00:00:00 | |
| DO3MHA-12 | 2026-09-02 00:08:05 | 48.84265 | 10.05847 | 144° | 27km/h | 24120m | 5.2m/s | -52.4°C | 4.1% | 30.8hPa | 2.6V | 00:00:00 | 01:39:10 | 00:00:00 | |
| DM0DOS-11 | 2026-09-02 00:08:04 | 48.84283 | 10.05822 | 125° | 24km/h | 24098m | 5m/s | -52.5°C | 4.1% | 30.9hPa | 2.6V | 08:30:00 | 01:39:06 | 00:00:00 | |
| DF8AY | 2026-09-02 00:08:00 | 48.84287 | 10.05814 | 121° | 27km/h | 24093m | 6.4m/s | -52.5°C | 0.7% | 31hPa | 2.6V | 18:12:15 | 01:39:05 | 00:00:00 | |
| DK7TD | 2026-09-02 00:07:58 | 48.84294 | 10.05793 | 114° | 31km/h | 24082m | 5m/s | -52.6°C | 0.7% | 31hPa | 2.6V | 18:12:15 | 01:39:03 | 00:00:00 | |
| DG9SBQ-11 | 2026-09-02 00:07:58 | 48.84294 | 10.05793 | 115° | 31km/h | 24082m | 5.0m/s | -52.6°C | 1.1% | 31.0hPa | 2.7V | 00:00:00 | 00:00:00 | 00:00:00 | |
| DJ8HS-15 | 2026-09-02 00:07:57 | 48.84297 | 10.05783 | 114° | 29km/h | 24076m | 6.1m/s | -52.6°C | 4.1% | 31.0hPa | 2.7V | 00:00:00 | 01:39:02 | 00:00:00 | |
| DO3MHA-12 | 2026-09-02 00:07:55 | 48.84303 | 10.05764 | 119° | 29km/h | 24066m | 4.1m/s | -52.6°C | 4.1% | 31.1hPa | 2.7V | 00:00:00 | 01:39:00 | 00:00:00 | |
| DM0DOS-11 | 2026-09-02 00:07:54 | 48.84321 | 10.05726 | 131° | 31km/h | 24045m | 4.5m/s | -52.7°C | 4.2% | 31.2hPa | 2.7V | 08:30:00 | 01:38:56 | 00:00:00 | |
| DF8AY | 2026-09-02 00:07:50 | 48.84326 | 10.05718 | 131° | 29km/h | 24039m | 6m/s | -52.7°C | 0.7% | 31.2hPa | 2.6V | 18:12:15 | 01:38:55 | 00:00:00 | |
| DK7TD | 2026-09-02 00:07:47 | 48.84338 | 10.05692 | 118° | 29km/h | 24023m | 6.2m/s | -52.6°C | 0.7% | 31.3hPa | 2.6V | 18:12:15 | 01:38:52 | 00:00:00 | |
| DG9SBQ-11 | 2026-09-02 00:07:47 | 48.84338 | 10.05692 | 119° | 29km/h | 24023m | 6.2m/s | -52.6°C | 1.1% | 31.3hPa | 2.7V | 00:00:00 | 00:00:00 | 00:00:00 | |
| DO3MHA-12 | 2026-09-02 00:07:45 | 48.84344 | 10.05671 | 110° | 27km/h | 24012m | 4.6m/s | -52.5°C | 4.1% | 31.3hPa | 2.7V | 00:00:00 | 01:38:50 | 00:00:00 | |
| DM0DOS-11 | 2026-09-02 00:07:44 | 48.84351 | 10.05630 | 103° | 26km/h | 23991m | 4.8m/s | -52.6°C | 4.1% | 31.5hPa | 2.7V | 08:30:00 | 01:38:46 | 00:00:00 | |
| DF8AY | 2026-09-02 00:07:41 | 48.84353 | 10.05620 | 108° | 27km/h | 23985m | 6.2m/s | -52.6°C | 0.7% | 31.5hPa | 2.7V | 18:12:15 | 01:38:45 | 00:00:00 | |
| DK7TD | 2026-09-02 00:07:36 | 48.84365 | 10.05584 | 127° | 24km/h | 23963m | 4.8m/s | -52.8°C | 0.7% | 31.6hPa | 2.6V | 18:12:15 | 01:38:41 | 00:00:00 | |
| DF8AY | 2026-09-02 00:07:30 | 48.84382 | 10.05535 | 100° | 20km/h | 23932m | 5.9m/s | 0°C | 0% | 31.8hPa | 2.7V | 18:12:15 | 01:38:35 | 00:00:00 | |
| DK7TD | 2026-09-02 00:07:26 | 48.84382 | 10.05502 | 85° | 24km/h | 23911m | 4.9m/s | -52.7°C | 0.8% | 31.9hPa | 2.6V | 18:12:15 | 01:38:31 | 00:00:00 | |
| OE5WHR-10 | 2026-09-02 00:07:26 | 48.84382 | 10.05502 | 86° | 20km/h | 23911m | 4.8m/s | -52.7°C | 4.3% | 31.8hPa | 2.6V | 00:00:00 | 00:00:00 | 00:00:00 | |
| DG9SBQ-11 | 2026-09-02 00:07:25 | 48.84381 | 10.05493 | 86° | 22km/h | 23906m | 5.3m/s | -52.7°C | 1.1% | 31.9hPa | 2.6V | 00:00:00 | 00:00:00 | 00:00:00 | |
| DM0DOS-11 | 2026-09-02 00:07:24 | 48.84382 | 10.05465 | 102° | 20km/h | 23885m | 5.8m/s | -52.7°C | 4.2% | 32hPa | 2.6V | 08:30:00 | 01:38:26 | 00:00:00 | |
| DF8AY | 2026-09-02 00:07:18 | 48.84386 | 10.05440 | 102° | 24km/h | 23868m | 5.4m/s | 0°C | 0% | 32.1hPa | 2.7V | 18:12:15 | 01:38:23 | 00:00:00 | |
| DK7TD | 2026-09-02 00:07:15 | 48.84386 | 10.05416 | 72° | 22km/h | 23852m | 5.2m/s | -52.6°C | 0.8% | 32.2hPa | 2.6V | 18:12:15 | 01:38:20 | 00:00:00 | |
| DO3MHA-12 | 2026-09-02 00:07:15 | 48.84386 | 10.05416 | 72° | 18km/h | 23852m | 5.1m/s | -52.6°C | 4.2% | 32.1hPa | 2.6V | 00:00:00 | 01:38:20 | 00:00:00 | |
| DM0DOS-11 | 2026-09-02 00:07:14 | 48.84377 | 10.05385 | 64° | 18km/h | 23831m | 6.1m/s | -52.5°C | 4.1% | 32.3hPa | 2.6V | 08:30:00 | 01:38:16 | 00:00:00 | |
| PG1ADW-2 | 2026-09-02 00:07:14 | 48.84384 | 10.05408 | 68° | 18km/h | 23847m | 6.0m/s | -52.5°C | 4.2% | 32.1hPa | 2.7V | 00:00:00 | 00:00:00 | 00:00:00 | |
| DF7PN | 2026-09-02 00:07:13 | 48.84379 | 10.05392 | 63° | 20km/h | 23837m | 4.5m/s | -52.5°C | 1.1% | 32.2hPa | 2.7V | 00:00:00 | 00:00:00 | 00:00:00 | |
| DL6DJ-15 | 2026-09-02 00:07:12 | 48.84379 | 10.05392 | 63° | 20km/h | 23837m | 4.5m/s | -52.5°C | 1.1% | 32.2hPa | 2.7V | 00:00:00 | 00:00:00 | 00:00:00 | |
| OE5DXL-15 | 2026-09-02 00:07:11 | 48.84377 | 10.05385 | 65° | 18km/h | 23832m | 6.1m/s | -52.5°C | 4.1% | 32.2hPa | 2.7V | 00:00:00 | 00:00:00 | 00:00:00 | |
| DO3MHA-11 | 2026-09-02 00:07:10 | 48.84375 | 10.05380 | 74° | 18km/h | 23826m | 5.1m/s | -52.4°C | 4.1% | 32.2hPa | 2.7V | 00:00:00 | 01:38:15 | 00:00:00 | |
| DG9SBQ-11 | 2026-09-02 00:07:09 | 48.84375 | 10.05375 | 91° | 13km/h | 23821m | 4.6m/s | -52.5°C | 1.1% | 32.3hPa | 2.7V | 00:00:00 | 00:00:00 | 00:00:00 | |
| DO9HM | 2026-09-02 00:07:07 | 48.84376 | 10.05364 | 107° | 18km/h | 23810m | 5.9m/s | -52.4°C | 1.1% | 32.4hPa | 2.7V | 00:00:00 | 00:00:00 | 00:00:00 | |
| DO3MHA-12 | 2026-09-02 00:07:05 | 48.84379 | 10.05348 | 101° | 20km/h | 23800m | 4.4m/s | -52.3°C | 4.0% | 32.4hPa | 2.7V | 00:00:00 | 01:38:10 | 00:00:00 | |
| DM0DOS-11 | 2026-09-02 00:07:04 | 48.84377 | 10.05321 | 62° | 16km/h | 23779m | 4.9m/s | -52.3°C | 4% | 32.5hPa | 2.7V | 08:30:00 | 01:38:06 | 00:00:00 | |
| DK7TD | 2026-09-02 00:07:04 | 48.84379 | 10.05340 | 95° | 20km/h | 23795m | 5.6m/s | -52.3°C | 0.7% | 32.5hPa | 2.6V | 18:12:15 | 01:38:09 | 00:00:00 | |
| DL1XH-west | 2026-09-02 00:07:02 | 48.84379 | 10.05326 | 71° | 16km/h | 23784m | 5.2m/s | -52.3°C | 0.6% | 32.5hPa | 2.7V | 18:12:15 | 01:38:07 | 00:00:00 | |
| DF8AY | 2026-09-02 00:06:56 | 48.84368 | 10.05286 | 69° | 18km/h | 23752m | 6.3m/s | 0°C | 0% | 32.7hPa | 2.7V | 18:12:15 | 01:38:01 | 00:00:00 | |
| DL8DAS-14 | 2026-09-02 00:06:56 | 48.84366 | 10.05280 | 70° | 16km/h | 23746m | 4.9m/s | -52.7°C | 1.1% | 32.7hPa | 2.7V | 00:00:00 | 00:00:00 | 00:00:00 | |
| DO3MHA-12 | 2026-09-02 00:06:55 | 48.84366 | 10.05280 | 71° | 18km/h | 23746m | 4.8m/s | -52.7°C | 4.1% | 32.6hPa | 2.7V | 00:00:00 | 01:38:00 | 00:00:00 | |
| DM0DOS-11 | 2026-09-02 00:06:54 | 48.84362 | 10.05252 | 76° | 18km/h | 23726m | 4.3m/s | -52.9°C | 4.2% | 32.8hPa | 2.7V | 08:30:00 | 01:37:56 | 00:00:00 | |
| DK7TD | 2026-09-02 00:06:53 | 48.84364 | 10.05267 | 81° | 18km/h | 23735m | 6.1m/s | -52.8°C | 0.7% | 32.8hPa | 2.6V | 18:12:15 | 01:37:58 | 00:00:00 | |
| DL1XH-west | 2026-09-02 00:06:51 | 48.84362 | 10.05252 | 76° | 18km/h | 23726m | 4.3m/s | -52.9°C | 0.8% | 32.8hPa | 2.7V | 18:12:15 | 01:37:56 | 00:00:00 | |
| DB0NH | 2026-09-02 00:06:51 | 48.84362 | 10.05252 | 77° | 15km/h | 23726m | 4.3m/s | -52.8°C | 4.2% | 32.7hPa | 2.7V | 00:00:00 | 01:37:56 | 00:00:00 | |
| DO3MHA-11 | 2026-09-02 00:06:50 | 48.84361 | 10.05245 | 67° | 18km/h | 23721m | 5.8m/s | -52.8°C | 4.2% | 32.8hPa | 2.7V | 00:00:00 | 01:37:55 | 08:30:00 | |
| OE5DRO-10 | 2026-09-02 00:06:48 | 48.84356 | 10.05236 | 44° | 16km/h | 23710m | 4.4m/s | -52.9°C | 4.3% | 32.9hPa | 2.6V | 00:00:00 | 00:00:00 | 00:00:00 | |
| DG9SBQ-11 | 2026-09-02 00:06:46 | 48.84350 | 10.05226 | 55° | 18km/h | 23699m | 5.9m/s | -53.0°C | 1.1% | 32.9hPa | 2.6V | 00:00:00 | 00:00:00 | 00:00:00 | |
| DJTTGO | 2026-09-02 00:06:45 | 48.84348 | 10.05220 | 60° | 20km/h | 23694m | 5.0m/s | -53.0°C | 1.1% | 33.0hPa | 2.6V | 00:00:00 | 00:00:00 | 00:00:00 | |
| DM0DOS-11 | 2026-09-02 00:06:44 | 48.84338 | 10.05195 | 58° | 18km/h | 23672m | 4.6m/s | -53°C | 4.3% | 33.1hPa | 2.6V | 08:30:00 | 01:37:46 | 00:00:00 | |
| DK7TD | 2026-09-02 00:06:42 | 48.84340 | 10.05201 | 55° | 18km/h | 23677m | 5.2m/s | -53°C | 0.8% | 33.1hPa | 2.6V | 18:12:15 | 01:37:47 | 00:00:00 | |
| DL1XH-west | 2026-09-02 00:06:38 | 48.84331 | 10.05175 | 68° | 18km/h | 23656m | 4.5m/s | -52.9°C | 0.8% | 33.2hPa | 2.6V | 18:12:15 | 01:37:43 | 00:00:00 | |
| DF8AY | 2026-09-02 00:06:36 | 48.84327 | 10.05165 | 49° | 13km/h | 23645m | 6.1m/s | 0°C | 0% | 33.3hPa | 2.6V | 18:12:15 | 01:37:41 | 00:00:00 | |
| DO3MHA-12 | 2026-09-02 00:06:35 | 48.84325 | 10.05162 | 31° | 11km/h | 23639m | 5.1m/s | -52.8°C | 4.3% | 33.2hPa | 2.6V | 00:00:00 | 01:37:40 | 00:00:00 | |
| DM0DOS-11 | 2026-09-02 00:06:34 | 48.84318 | 10.05151 | 62° | 11km/h | 23618m | 5.1m/s | -52.7°C | 4.2% | 33.4hPa | 2.6V | 08:30:00 | 01:37:36 | 00:00:00 | |
| DK7TD | 2026-09-02 00:06:32 | 48.84319 | 10.05155 | 57° | 11km/h | 23623m | 5.6m/s | -52.8°C | 0.8% | 33.4hPa | 2.6V | 18:12:15 | 01:37:37 | 00:00:00 | |
| DL1XH1-15 | 2026-09-02 00:06:31 | 48.84314 | 10.05140 | 64° | 9km/h | 23601m | 5.2m/s | -52.7°C | 0% | 33.5hPa | 2.7V | 08:30:00 | 01:37:33 | 00:00:00 | |
| DL1XH-west | 2026-09-02 00:06:28 | 48.84314 | 10.05141 | 65° | 9km/h | 23601m | 5.2m/s | -52.7°C | 0.8% | 33.5hPa | 2.7V | 18:12:15 | 01:37:33 | 00:00:00 | |
| SONDE2-11 | 2026-09-02 00:06:26 | 48.84313 | 10.05133 | 81° | 11km/h | 23589m | 5.7m/s | -52.6°C | 1.1% | 33.5hPa | 2.6V | 00:00:00 | 00:00:00 | 00:00:00 | |
| DO3MHA-12 | 2026-09-02 00:06:25 | 48.84312 | 10.05129 | 84° | 7km/h | 23584m | 4.4m/s | -52.5°C | 4.2% | 33.5hPa | 2.6V | 00:00:00 | 01:37:30 | 00:00:00 | |
| DM0DOS-11 | 2026-09-02 00:06:24 | 48.84310 | 10.05120 | 41° | 5km/h | 23563m | 4.3m/s | -52.6°C | 4.1% | 33.7hPa | 2.6V | 08:30:00 | 01:37:26 | 00:00:00 | |
| DG9SBQ-11 | 2026-09-02 00:06:24 | 48.84312 | 10.05125 | 78° | 9km/h | 23579m | 5.9m/s | -52.6°C | 1.1% | 33.6hPa | 2.7V | 00:00:00 | 00:00:00 | 00:00:00 | |
| DL1XH1-15 | 2026-09-02 00:06:23 | 48.84307 | 10.05111 | 77° | 11km/h | 23547m | 5m/s | -52.7°C | 0% | 33.7hPa | 2.7V | 08:30:00 | 01:37:23 | 00:00:00 | |
| DK7TD | 2026-09-02 00:06:21 | 48.84310 | 10.05120 | 42° | 5km/h | 23563m | 4.3m/s | -52.6°C | 0.7% | 33.7hPa | 2.6V | 18:12:15 | 01:37:26 | 00:00:00 | |
| DL1XH-west | 2026-09-02 00:06:17 | 48.84307 | 10.05107 | 77° | 9km/h | 23542m | 5.5m/s | -52.7°C | 0.7% | 33.8hPa | 2.6V | 18:12:15 | 01:37:22 | 00:00:00 | |
| DJ8HS-15 | 2026-09-02 00:06:17 | 48.84307 | 10.05107 | 78° | 7km/h | 23542m | 5.4m/s | -52.7°C | 4.1% | 33.7hPa | 2.6V | 00:00:00 | 01:37:22 | 00:00:00 | |
| DM7RM-13 | 2026-09-02 00:06:16 | 48.84307 | 10.05107 | 78° | 9km/h | 23542m | 5.5m/s | -52.7°C | 1.1% | 33.8hPa | 2.6V | 00:00:00 | 00:00:00 | 00:00:00 | |
| DO3MHA-12 | 2026-09-02 00:06:15 | 48.84306 | 10.05103 | 78° | 4km/h | 23530m | 5.4m/s | -52.7°C | 4.2% | 33.8hPa | 2.6V | 00:00:00 | 01:37:20 | 00:00:00 | |
| DM0DOS-11 | 2026-09-02 00:06:14 | 48.84308 | 10.05098 | 155° | 2km/h | 23507m | 6m/s | -52.8°C | 4.2% | 34hPa | 2.6V | 08:30:00 | 01:37:16 | 00:00:00 | |
| DK7TD | 2026-09-02 00:06:11 | 48.84308 | 10.05098 | 155° | 2km/h | 23507m | 6m/s | -52.8°C | 0.7% | 34hPa | 2.6V | 18:12:15 | 01:37:16 | 00:00:00 | |
| DL1XH-west | 2026-09-02 00:06:07 | 48.84307 | 10.05095 | 81° | 9km/h | 23484m | 6.1m/s | -52.9°C | 0.7% | 34.1hPa | 2.7V | 18:12:15 | 01:37:12 | 00:00:00 | |
| DB0UT-7 | 2026-09-02 00:06:05 | 48.84306 | 10.05086 | 91° | 13km/h | 23475m | 4.5m/s | -52.9°C | 4.3% | 34.1hPa | 2.6V | 00:00:00 | 01:37:10 | 00:00:00 | |
| DM0DOS-11 | 2026-09-02 00:06:04 | 48.84307 | 10.05072 | 111° | 7km/h | 23453m | 4.9m/s | -53°C | 4.3% | 34.2hPa | 2.7V | 08:30:00 | 01:37:06 | 00:00:00 | |
| DL1XH1-15 | 2026-09-02 00:06:04 | 48.84307 | 10.05074 | 99° | 7km/h | 23458m | 5.3m/s | -53°C | 0% | 34.2hPa | 2.7V | 08:30:00 | 01:37:07 | 00:00:00 | |
| DK7TD | 2026-09-02 00:06:01 | 48.84307 | 10.05072 | 112° | 7km/h | 23453m | 4.9m/s | -53°C | 0.8% | 34.3hPa | 2.7V | 18:12:15 | 01:37:06 | 00:00:00 | |
| SONCRA | 2026-09-02 00:05:58 | 48.84311 | 10.05062 | 122° | 9km/h | 23436m | 4.9m/s | -52.9°C | 1.1% | 34.3hPa | 2.6V | 00:00:00 | 00:00:00 | 00:00:00 | |
| DL1XH1-15 | 2026-09-02 00:05:57 | 48.84315 | 10.05041 | 103° | 18km/h | 23403m | 4.5m/s | -52.8°C | 0% | 34.5hPa | 2.6V | 08:30:00 | 01:36:57 | 00:00:00 | |
| DL1XH-west | 2026-09-02 00:05:57 | 48.84325 | 10.04990 | 86° | 9km/h | 23360m | 6.4m/s | 0°C | 0% | 34.7hPa | 2.6V | 18:12:15 | 01:36:49 | 00:00:00 | |
| DF8AY | 2026-09-02 00:05:57 | 48.84324 | 10.04987 | 66° | 5km/h | 23353m | 6.1m/s | 0°C | 0% | 34.8hPa | 2.6V | 18:12:15 | 01:36:48 | 00:00:00 | |
| DG9SBQ-11 | 2026-09-02 00:05:57 | 48.84312 | 10.05059 | 127° | 7km/h | 23431m | 6.2m/s | -52.8°C | 1.1% | 34.4hPa | 2.7V | 00:00:00 | 00:00:00 | 00:00:00 | |
| DM0DOS-11 | 2026-09-02 00:05:55 | 48.84316 | 10.05034 | 108° | 18km/h | 23398m | 6.3m/s | -52.8°C | 4.1% | 34.5hPa | 2.7V | 08:30:00 | 01:36:56 | 00:00:00 | |
| IW2NTF | 2026-09-02 00:05:55 | 48.84324 | 10.05007 | 105° | 20km/h | 23375m | 5.9m/s | -52.8°C | 4.2% | 34.7hPa | 2.6V | 08:30:00 | 01:36:52 | 00:00:00 | |
| DK7TD | 2026-09-02 00:05:55 | 48.84316 | 10.05034 | 109° | 18km/h | 23398m | 6.3m/s | -52.8°C | 0.7% | 34.5hPa | 2.7V | 18:12:15 | 01:36:56 | 00:00:00 | |
| DL8DAS-14 | 2026-09-02 00:05:54 | 48.84316 | 10.05034 | 108° | 18km/h | 23398m | 6.3m/s | 0°C | -1.0% | -1.0hPa | 2.6V | 00:00:00 | 00:00:00 | 00:00:00 | |
| DL1XH1-15 | 2026-09-02 00:05:51 | 48.84324 | 10.04985 | 35° | 5km/h | 23348m | 5m/s | -52.8°C | 0% | 34.8hPa | 2.6V | 08:30:00 | 01:36:47 | 00:00:00 | |
| DB0NH | 2026-09-02 00:05:51 | 48.84316 | 10.05034 | 109° | 16km/h | 23398m | 6.2m/s | -52.8°C | 4.1% | 34.5hPa | 2.7V | 00:00:00 | 01:36:56 | 00:00:00 | |
| DO3MHA-11 | 2026-09-02 00:05:50 | 48.84318 | 10.05027 | 115° | 15km/h | 23392m | 5.3m/s | -52.8°C | 4.2% | 34.5hPa | 2.7V | 00:00:00 | 01:36:55 | 00:00:00 | |
| NBG1-10 | 2026-09-02 00:05:49 | 48.84320 | 10.05021 | 115° | 16km/h | 23387m | 5.1m/s | -52.8°C | 4.2% | 34.5hPa | 2.7V | 00:00:00 | 01:36:54 | 00:00:00 | |
| DG9SBQ-11 | 2026-09-02 00:05:47 | 48.84324 | 10.05000 | 99° | 18km/h | 23370m | 4.7m/s | -52.8°C | 1.1% | 34.7hPa | 2.7V | 00:00:00 | 00:00:00 | 00:00:00 | |
| DO3MHA-12 | 2026-09-02 00:05:45 | 48.84325 | 10.04994 | 92° | 13km/h | 23365m | 4.3m/s | -52.8°C | 4.2% | 34.7hPa | 2.7V | 00:00:00 | 01:36:50 | 00:00:00 | |
| IW2NTF | 2026-09-02 00:05:43 | 48.84312 | 10.04967 | 63° | 16km/h | 23322m | 6.1m/s | -52.7°C | 4.2% | 35hPa | 2.6V | 08:30:00 | 01:36:42 | 00:00:00 | |
| DK7TD | 2026-09-02 00:05:41 | 48.84322 | 10.04984 | 33° | 9km/h | 23342m | 6m/s | -52.8°C | 0.7% | 34.8hPa | 2.6V | 18:12:15 | 01:36:46 | 00:00:00 | |
| DL1XH-west | 2026-09-02 00:05:36 | 48.84309 | 10.04947 | 82° | 22km/h | 23306m | 5.6m/s | 0°C | 0% | 0hPa | 2.7V | 18:12:15 | 01:36:39 | 00:00:00 | |
| DM0DOS-11 | 2026-09-02 00:05:35 | 48.84306 | 10.04921 | 71° | 20km/h | 23290m | 4.8m/s | -52.7°C | 4.1% | 35.1hPa | 2.6V | 08:30:00 | 01:36:36 | 00:00:00 | |
| DO3MHA-12 | 2026-09-02 00:05:35 | 48.84310 | 10.04954 | 82° | 18km/h | 23312m | 4.8m/s | -52.7°C | 4.1% | 35.0hPa | 2.6V | 00:00:00 | 01:36:40 | 00:00:00 | |
| IW2NTF | 2026-09-02 00:05:34 | 48.84297 | 10.04908 | 13° | 15km/h | 23269m | 5.9m/s | -52.8°C | 4.1% | 35.2hPa | 2.6V | 08:30:00 | 01:36:32 | 00:00:00 | |
| PG1ADW-2 | 2026-09-02 00:05:34 | 48.84309 | 10.04947 | 83° | 20km/h | 23307m | 5.5m/s | -52.6°C | 4.1% | 35.0hPa | 2.7V | 00:00:00 | 00:00:00 | 00:00:00 | |
| OE5DRO-10 | 2026-09-02 00:05:33 | 48.84307 | 10.04929 | 76° | 20km/h | 23295m | 4.6m/s | -52.6°C | 4.1% | 35.0hPa | 2.6V | 00:00:00 | 00:00:00 | 00:00:00 | |
| DL1XH1-15 | 2026-09-02 00:05:32 | 48.84304 | 10.04915 | 63° | 15km/h | 23285m | 6.2m/s | -52.7°C | 0% | 0hPa | 2.6V | 08:30:00 | 01:36:35 | 00:00:00 | |
| DK7TD | 2026-09-02 00:05:31 | 48.84304 | 10.04915 | 64° | 15km/h | 23285m | 6.2m/s | -52.7°C | 0.7% | 35.1hPa | 2.6V | 18:12:15 | 01:36:35 | 00:00:00 | |
| DF8AY | 2026-09-02 00:05:28 | 48.84300 | 10.04909 | 21° | 11km/h | 23275m | 4.6m/s | 0°C | 0% | 35.2hPa | 2.7V | 18:12:15 | 01:36:33 | 00:00:00 | |
| DL1XH-west | 2026-09-02 00:05:25 | 48.84288 | 10.04905 | 14° | 20km/h | 23258m | 5.2m/s | 0°C | 0% | 0hPa | 2.6V | 18:12:15 | 01:36:30 | 00:00:00 | |
| DM0DOS-11 | 2026-09-02 00:05:25 | 48.84270 | 10.04896 | 30° | 16km/h | 23236m | 4.4m/s | -52.9°C | 4.2% | 35.4hPa | 2.6V | 08:30:00 | 01:36:26 | 00:00:00 | |
| DL1XH1-15 | 2026-09-02 00:05:24 | 48.84263 | 10.04887 | 46° | 22km/h | 23226m | 6.2m/s | -53.1°C | 0% | 0hPa | 2.6V | 08:30:00 | 01:36:24 | 00:00:00 | |
| SONDE2-11 | 2026-09-02 00:05:24 | 48.84278 | 10.04901 | 15° | 18km/h | 23247m | 6.2m/s | -52.8°C | 1.1% | 35.4hPa | 2.7V | 00:00:00 | 00:00:00 | 00:00:00 | |
| IW2NTF | 2026-09-02 00:05:23 | 48.84254 | 10.04873 | 45° | 26km/h | 23215m | 4.9m/s | -53.1°C | 4.3% | 35.5hPa | 2.7V | 08:30:00 | 01:36:22 | 00:00:00 | |
| DK7TD | 2026-09-02 00:05:20 | 48.84267 | 10.04892 | 41° | 18km/h | 23232m | 5.2m/s | -53°C | 0.8% | 35.5hPa | 2.6V | 18:12:15 | 01:36:25 | 00:00:00 | |
| DF8AY | 2026-09-02 00:05:17 | 48.84250 | 10.04866 | 43° | 24km/h | 23210m | 4.9m/s | 0°C | 0% | 35.6hPa | 2.6V | 18:12:15 | 01:36:21 | 00:00:00 | |
| NBG1-10 | 2026-09-02 00:05:16 | 48.84250 | 10.04866 | 44° | 24km/h | 23211m | 4.9m/s | -53.0°C | 4.3% | 35.5hPa | 2.6V | 00:00:00 | 01:36:21 | 00:00:00 | |
| DM0DOS-11 | 2026-09-02 00:05:15 | 48.84227 | 10.04842 | 24° | 26km/h | 23183m | 5.9m/s | -53.1°C | 4.2% | 35.7hPa | 2.6V | 08:30:00 | 01:36:16 | 00:00:00 | |
| DM7RM-13 | 2026-09-02 00:05:15 | 48.84246 | 10.04860 | 42° | 22km/h | 23205m | 5.6m/s | -53.1°C | 1.2% | 35.6hPa | 2.6V | 00:00:00 | 00:00:00 | 00:00:00 | |
| PG1ADW-2 | 2026-09-02 00:05:14 | 48.84241 | 10.04855 | 38° | 24km/h | 23200m | 5.1m/s | -53.0°C | 4.2% | 35.6hPa | 2.6V | 00:00:00 | 01:36:19 | 00:00:00 | |
| DL1XH1-15 | 2026-09-02 00:05:13 | 48.84214 | 10.04835 | 17° | 27km/h | 23172m | 6.5m/s | -53.2°C | 0% | 0hPa | 2.6V | 08:30:00 | 01:36:14 | 00:00:00 | |
| IW2NTF | 2026-09-02 00:05:13 | 48.84201 | 10.04830 | 12° | 29km/h | 23161m | 4.7m/s | -53.2°C | 4.3% | 35.8hPa | 2.7V | 08:30:00 | 01:36:12 | 00:00:00 | |
| DK7TD | 2026-09-02 00:05:09 | 48.84214 | 10.04835 | 17° | 27km/h | 23172m | 6.5m/s | -53.2°C | 0.8% | 35.8hPa | 2.6V | 18:12:15 | 01:36:14 | 00:00:00 | |
| DO9HM | 2026-09-02 00:05:09 | 48.84214 | 10.04835 | 18° | 27km/h | 23172m | 6.5m/s | -53.2°C | 1.2% | 35.8hPa | 2.7V | 00:00:00 | 00:00:00 | 00:00:00 | |
| DL6DJ-15 | 2026-09-02 00:05:08 | 48.84201 | 10.04830 | 12° | 27km/h | 23161m | 4.7m/s | -53.2°C | 1.1% | 35.8hPa | 2.7V | 00:00:00 | 00:00:00 | 00:00:00 | |
| DG9SBQ-11 | 2026-09-02 00:05:07 | 48.84193 | 10.04827 | 13° | 31km/h | 23156m | 6.5m/s | -53.2°C | 1.1% | 35.9hPa | 2.7V | 00:00:00 | 00:00:00 | 00:00:00 | |
| DO3MHA-12 | 2026-09-02 00:05:06 | 48.84186 | 10.04825 | 13° | 24km/h | 23150m | 5.0m/s | -53.2°C | 4.3% | 35.9hPa | 2.7V | 00:00:00 | 01:36:10 | 00:00:00 | |
| DM0DOS-11 | 2026-09-02 00:05:04 | 48.84161 | 10.04817 | 15° | 18km/h | 23129m | 4.4m/s | -53.2°C | 4.3% | 36hPa | 2.7V | 08:30:00 | 01:36:06 | 00:00:00 | |
| DL1XH1-15 | 2026-09-02 00:05:03 | 48.84141 | 10.04805 | 22° | 24km/h | 23108m | 5m/s | 0°C | 0% | 0hPa | 2.7V | 00:00:00 | 01:36:02 | 00:00:00 | |
| IW2NTF | 2026-09-02 00:05:02 | 48.84130 | 10.04799 | 8° | 22km/h | 23097m | 5.7m/s | -53.2°C | 4.3% | 36.2hPa | 2.6V | 08:30:00 | 01:36:00 | 00:00:00 | |
| DK7TD | 2026-09-02 00:04:59 | 48.84152 | 10.04812 | 24° | 22km/h | 23118m | 5.8m/s | -53.2°C | 0.8% | 36.1hPa | 2.6V | 18:12:15 | 01:36:04 | 00:00:00 | |
| DM0DOS-11 | 2026-09-02 00:04:58 | 48.84104 | 10.04798 | 2° | 27km/h | 23075m | 4.5m/s | -53.1°C | 4.3% | 36.3hPa | 2.7V | 08:30:00 | 01:35:56 | 00:00:00 | |
| SONCRA | 2026-09-02 00:04:57 | 48.84135 | 10.04801 | 17° | 22km/h | 23103m | 5.9m/s | -53.2°C | 1.2% | 36.2hPa | 2.6V | 00:00:00 | 00:00:00 | 00:00:00 | |
| SONDE2-11 | 2026-09-02 00:04:53 | 48.84111 | 10.04798 | 2° | 26km/h | 23081m | 5.9m/s | -53.2°C | 1.1% | 36.3hPa | 2.6V | 00:00:00 | 00:00:00 | 00:00:00 | |
| DL8DAS-14 | 2026-09-02 00:04:52 | 48.84091 | 10.04798 | 356° | 24km/h | 23065m | 6.3m/s | 0°C | -1.0% | -1.0hPa | 2.6V | 00:00:00 | 00:00:00 | 00:00:00 | |
| DB0NH | 2026-09-02 00:04:51 | 48.84104 | 10.04797 | 3° | 20km/h | 23076m | 4.4m/s | -53.1°C | 4.3% | 36.3hPa | 2.6V | 00:00:00 | 01:35:56 | 00:00:00 | |
| IW2NTF | 2026-09-02 00:04:50 | 48.84063 | 10.04802 | 3° | 22km/h | 23038m | 4.5m/s | -53°C | 4.2% | 36.5hPa | 2.6V | 08:30:00 | 01:35:49 | 00:00:00 | |
| DK7TD | 2026-09-02 00:04:48 | 48.84085 | 10.04799 | 350° | 22km/h | 23059m | 5.7m/s | -53°C | 0.8% | 36.4hPa | 2.6V | 18:12:15 | 01:35:53 | 00:00:00 | |
| DO9HM | 2026-09-02 00:04:48 | 48.84085 | 10.04799 | 351° | 22km/h | 23059m | 5.7m/s | -53.0°C | 1.2% | 36.4hPa | 2.6V | 00:00:00 | 00:00:00 | 00:00:00 | |
| AM1SDL-15 | 2026-09-02 00:04:47 | 48.84079 | 10.04800 | 349° | 22km/h | 23054m | 4.8m/s | -53.0°C | 4.3% | 36.4hPa | 2.6V | 00:00:00 | 01:35:52 | 00:00:00 | |
| DM0DOS-11 | 2026-09-02 00:04:45 | 48.84048 | 10.04802 | 357° | 18km/h | 23022m | 4.9m/s | -53°C | 4.2% | 36.6hPa | 2.6V | 08:30:00 | 01:35:46 | 00:00:00 | |
| DO3MHA-12 | 2026-09-02 00:04:45 | 48.84068 | 10.04802 | 1° | 20km/h | 23043m | 5.6m/s | -53.0°C | 4.2% | 36.5hPa | 2.7V | 00:00:00 | 01:35:50 | 00:00:00 | |
| NBG1-10 | 2026-09-02 00:04:43 | 48.84058 | 10.04801 | 2° | 18km/h | 23033m | 5.8m/s | -52.9°C | 4.3% | 36.5hPa | 2.6V | 00:00:00 | 01:35:48 | 08:30:00 | |
| DG9SBQ-11 | 2026-09-02 00:04:42 | 48.84058 | 10.04801 | 3° | 20km/h | 23033m | 5.9m/s | -53.0°C | 1.2% | 36.5hPa | 2.7V | 00:00:00 | 00:00:00 | 00:00:00 | |
| OE5DXL-15 | 2026-09-02 00:04:41 | 48.84048 | 10.04801 | 358° | 18km/h | 23022m | 4.9m/s | -52.9°C | 4.2% | 36.6hPa | 2.7V | 00:00:00 | 00:00:00 | 00:00:00 | |
| DO3MHA-11 | 2026-09-02 00:04:40 | 48.84043 | 10.04802 | 360° | 22km/h | 23017m | 5.5m/s | -52.9°C | 4.3% | 36.6hPa | 2.7V | 00:00:00 | 01:35:45 | 00:00:00 | |
| OE9MKV-15 | 2026-09-02 00:04:39 | 48.84032 | 10.04801 | 2° | 18km/h | 23006m | 4.5m/s | -53.0°C | 4.3% | 36.7hPa | 2.7V | 00:00:00 | 01:35:43 | 00:00:00 | |
| DL1XH1-15 | 2026-09-02 00:04:38 | 48.84016 | 10.04805 | 337° | 22km/h | 22990m | 5.3m/s | 0°C | 0% | 0hPa | 2.7V | 00:00:00 | 01:35:40 | 00:00:00 | |
| DK7TD | 2026-09-02 00:04:37 | 48.84026 | 10.04801 | 356° | 22km/h | 23001m | 4.8m/s | -53.1°C | 0.8% | 36.8hPa | 2.6V | 18:12:15 | 01:35:42 | 00:00:00 | |
| DF8AY | 2026-09-02 00:04:36 | 48.83988 | 10.04820 | 339° | 13km/h | 22958m | 5.3m/s | 0°C | 0% | 0hPa | 2.7V | 18:12:15 | 01:35:34 | 00:00:00 | |
| PG1ADW-2 | 2026-09-02 00:04:35 | 48.84011 | 10.04808 | 336° | 18km/h | 22985m | 4.5m/s | -53.0°C | 4.3% | 36.8hPa | 2.7V | 00:00:00 | 00:00:00 | 08:30:00 | |
| DM7RM-13 | 2026-09-02 00:04:34 | 48.84011 | 10.04808 | 337° | 22km/h | 22985m | 4.6m/s | -53.1°C | 1.2% | 36.8hPa | 2.6V | 00:00:00 | 00:00:00 | 00:00:00 | |
| DG9SBQ-11 | 2026-09-02 00:04:32 | 48.84006 | 10.04812 | 341° | 22km/h | 22979m | 5.9m/s | -53.1°C | 1.1% | 36.9hPa | 2.6V | 00:00:00 | 00:00:00 | 00:00:00 | |
| DM0DOS-11 | 2026-09-02 00:04:31 | 48.83996 | 10.04816 | 345° | 18km/h | 22969m | 4.3m/s | -53°C | 4.3% | 36.9hPa | 2.6V | 08:30:00 | 01:35:36 | 00:00:00 | |
| DK7TD | 2026-09-02 00:04:28 | 48.83982 | 10.04822 | 356° | 13km/h | 22948m | 5.8m/s | -53°C | 0.8% | 37hPa | 2.6V | 18:12:15 | 01:35:32 | 00:00:00 | |
| DF8AY | 2026-09-02 00:04:20 | 48.83955 | 10.04826 | 325° | 18km/h | 22912m | 6.1m/s | 0°C | 0% | 0hPa | 2.6V | 18:12:15 | 01:35:25 | 00:00:00 | |
| DK7TD | 2026-09-02 00:04:16 | 48.83941 | 10.04847 | 309° | 18km/h | 22890m | 4.5m/s | -52.7°C | 0.7% | 37.4hPa | 2.6V | 18:12:15 | 01:35:21 | 00:00:00 | |
| DF8AY | 2026-09-02 00:04:09 | 48.83920 | 10.04849 | 16° | 7km/h | 22855m | 4.4m/s | 0°C | 0% | 0hPa | 2.6V | 18:12:15 | 01:35:14 | 00:00:00 | |
| DK7TD | 2026-09-02 00:04:05 | 48.83909 | 10.04857 | 316° | 18km/h | 22833m | 6m/s | -52.8°C | 0.8% | 37.7hPa | 2.6V | 18:12:15 | 01:35:10 | 00:00:00 | |
| DF8AY | 2026-09-02 00:03:59 | 48.83885 | 10.04885 | 355° | 7km/h | 22793m | 6.1m/s | 0°C | 0% | 0hPa | 2.7V | 18:12:15 | 01:35:02 | 00:00:00 | |
| DK7TD | 2026-09-02 00:03:55 | 48.83884 | 10.04886 | 293° | 2km/h | 22783m | 4.1m/s | -52.7°C | 0.7% | 38hPa | 2.6V | 18:12:15 | 01:35:00 | 00:00:00 | |
| DO3MHA-11 | 2026-09-02 00:03:54 | 48.83880 | 10.04899 | 281° | 13km/h | 22760m | 5.8m/s | -52.6°C | 4.1% | 38.1hPa | 2.7V | 00:00:00 | 01:34:55 | 08:30:00 | |
| DG9SBQ-11 | 2026-09-02 00:03:53 | 48.83879 | 10.04904 | 274° | 15km/h | 22754m | 5.0m/s | -52.6°C | 1.1% | 38.2hPa | 2.6V | 00:00:00 | 00:00:00 | 00:00:00 | |
| AZAK | 2026-09-02 00:03:52 | 48.83877 | 10.04919 | 302° | 15km/h | 22739m | 5.1m/s | -52.6°C | 1.1% | 38.3hPa | 2.6V | 00:00:00 | 00:00:00 | 00:00:00 | |
| DM0DOS-11 | 2026-09-02 00:03:49 | 48.83873 | 10.04928 | 298° | 13km/h | 22730m | 5.2m/s | -52.6°C | 4.1% | 38.3hPa | 2.6V | 08:30:00 | 01:34:49 | 00:00:00 | |
| DF8AY | 2026-09-02 00:03:49 | 48.83872 | 10.04944 | 265° | 9km/h | 22709m | 6m/s | 0°C | 0% | 0hPa | 2.7V | 18:12:15 | 01:34:45 | 00:00:00 | |
| DK7TD | 2026-09-02 00:03:46 | 48.83875 | 10.04923 | 306° | 13km/h | 22734m | 3.6m/s | -52.6°C | 0.7% | 38.3hPa | 2.7V | 18:12:15 | 01:34:50 | 00:00:00 | |
| DO3MHA-11 | 2026-09-02 00:03:45 | 48.83872 | 10.04943 | 266° | 7km/h | 22709m | 5.9m/s | -52.5°C | 4.0% | 38.4hPa | 2.6V | 00:00:00 | 01:34:45 | 00:00:00 | |
| OE5DRO-10 | 2026-09-02 00:03:44 | 48.83872 | 10.04949 | 266° | 5km/h | 22699m | 4.4m/s | -52.6°C | 4.1% | 38.5hPa | 2.6V | 00:00:00 | 00:00:00 | 00:00:00 | |
| DG9SBQ-11 | 2026-09-02 00:03:43 | 48.83872 | 10.04949 | 266° | 5km/h | 22699m | 4.5m/s | -52.6°C | 1.1% | 38.5hPa | 2.6V | 00:00:00 | 00:00:00 | 00:00:00 | |
| DM0DOS-11 | 2026-09-02 00:03:42 | 48.83875 | 10.04962 | 277° | 7km/h | 22672m | 4.8m/s | -53°C | 4.2% | 38.7hPa | 2.6V | 08:30:00 | 01:34:38 | 00:00:00 | |
| DK7TD | 2026-09-02 00:03:34 | 48.83875 | 10.04960 | 260° | 7km/h | 22678m | 6m/s | -52.9°C | 0.7% | 38.6hPa | 2.7V | 18:12:15 | 01:34:39 | 00:00:00 | |
| IW2NTF | 2026-09-02 00:03:34 | 48.83875 | 10.04968 | 271° | 9km/h | 22663m | 5.8m/s | -53.1°C | 4.3% | 38.7hPa | 2.6V | 08:30:00 | 01:34:36 | 00:00:00 | |
| DG9SBQ-11 | 2026-09-02 00:03:32 | 48.83875 | 10.04965 | 279° | 7km/h | 22668m | 4.1m/s | -53.1°C | 1.1% | 38.7hPa | 2.7V | 00:00:00 | 00:00:00 | 00:00:00 | |
| DM7RM-13 | 2026-09-02 00:03:31 | 48.83875 | 10.04965 | 279° | 7km/h | 22668m | 4.1m/s | -53.1°C | 1.2% | 38.7hPa | 2.7V | 00:00:00 | 00:00:00 | 00:00:00 | |
| DF8AY | 2026-09-02 00:03:31 | 48.83874 | 10.04968 | 271° | 9km/h | 22663m | 5.8m/s | 0°C | 0% | 0hPa | 2.6V | 18:12:15 | 01:34:36 | 00:00:00 | |
| DG9SBQ-11 | 2026-09-02 00:03:30 | 48.83876 | 10.04978 | 0° | 0km/h | 22643m | 5.8m/s | -53.3°C | 1.1% | 38.8hPa | 2.7V | 00:00:00 | 00:00:00 | 00:00:00 | |
| DM0DOS-11 | 2026-09-02 00:03:28 | 48.83879 | 10.04976 | 163° | 7km/h | 22627m | 5.2m/s | -53.2°C | 4.3% | 38.9hPa | 2.7V | 08:30:00 | 01:34:29 | 00:00:00 | |
| IW2NTF | 2026-09-02 00:03:27 | 48.83883 | 10.04973 | 126° | 5km/h | 22612m | 5.8m/s | -53.1°C | 4.4% | 39hPa | 2.6V | 08:30:00 | 01:34:26 | 00:00:00 | |
| DK7TD | 2026-09-02 00:03:24 | 48.83879 | 10.04976 | 164° | 7km/h | 22627m | 5.2m/s | -53.2°C | 0.8% | 38.9hPa | 2.7V | 18:12:15 | 01:34:29 | 00:00:00 | |
| DF8AY | 2026-09-02 00:03:21 | 48.83884 | 10.04971 | 91° | 4km/h | 22606m | 4.6m/s | 0°C | 0% | 0hPa | 2.6V | 18:12:15 | 01:34:25 | 00:00:00 | |
| DM0DOS-11 | 2026-09-02 00:03:17 | 48.83879 | 10.04965 | 38° | 9km/h | 22576m | 4.9m/s | -53°C | 4.2% | 39.3hPa | 2.6V | 08:30:00 | 01:34:19 | 00:00:00 | |
| OE5WHR-10 | 2026-09-02 00:03:16 | 48.83856 | 10.04962 | 27° | 13km/h | 22515m | 5.6m/s | -53.1°C | 4.3% | 39.6hPa | 2.6V | 00:00:00 | 00:00:00 | 00:00:00 | |
| IW2NTF | 2026-09-02 00:03:14 | 48.83874 | 10.04961 | 11° | 5km/h | 22560m | 4.7m/s | -52.9°C | 4.2% | 39.4hPa | 2.6V | 08:30:00 | 01:34:16 | 00:00:00 | |
| DK7TD | 2026-09-02 00:03:13 | 48.83877 | 10.04963 | 39° | 9km/h | 22571m | 5.2m/s | -53°C | 0.7% | 39.3hPa | 2.7V | 18:12:15 | 01:34:18 | 00:00:00 | |
| DG9SBQ-11 | 2026-09-02 00:03:12 | 48.83838 | 10.04954 | 7° | 18km/h | 22494m | 6.0m/s | -53.0°C | 1.1% | 39.8hPa | 2.6V | 00:00:00 | 00:00:00 | 00:00:00 | |
| DJ8HS-15 | 2026-09-02 00:03:11 | 48.83834 | 10.04954 | 355° | 9km/h | 22489m | 5.0m/s | -53.0°C | 4.3% | 39.7hPa | 2.6V | 00:00:00 | 01:34:02 | 00:00:00 | |
| DF8AY | 2026-09-02 00:03:10 | 48.83871 | 10.04960 | 357° | 9km/h | 22549m | 5.8m/s | 0°C | 0% | 0hPa | 2.6V | 18:12:15 | 01:34:14 | 00:00:00 | |
| DM0DOS-11 | 2026-09-02 00:03:10 | 48.83858 | 10.04964 | 24° | 7km/h | 22520m | 5.1m/s | -53.1°C | 4.3% | 39.6hPa | 2.6V | 08:30:00 | 01:34:08 | 00:00:00 | |
| DF1GD-15 | 2026-09-02 00:03:09 | 48.83823 | 10.04958 | 348° | 16km/h | 22474m | 5.4m/s | -53.0°C | 1.2% | 39.9hPa | 2.7V | 00:00:00 | 00:00:00 | 00:00:00 | |
| IW2NTF | 2026-09-02 00:03:07 | 48.83852 | 10.04960 | 22° | 18km/h | 22509m | 5m/s | -53.1°C | 4.3% | 39.7hPa | 2.7V | 08:30:00 | 01:34:06 | 00:00:00 | |
| SONCRA | 2026-09-02 00:03:06 | 48.83812 | 10.04962 | 336° | 11km/h | 22459m | 6.1m/s | -52.9°C | 1.1% | 40.0hPa | 2.7V | 00:00:00 | 00:00:00 | 00:00:00 | |
| DB0NH | 2026-09-02 00:03:05 | 48.83812 | 10.04962 | 337° | 7km/h | 22459m | 6.1m/s | -52.9°C | 4.2% | 39.9hPa | 2.7V | 00:00:00 | 01:33:56 | 00:00:00 | |
| DK7TD | 2026-09-02 00:03:03 | 48.83858 | 10.04964 | 24° | 7km/h | 22520m | 5.1m/s | -53.1°C | 0.8% | 39.6hPa | 2.6V | 18:12:15 | 01:34:08 | 00:00:00 | |
| SONDE2-11 | 2026-09-02 00:03:02 | 48.83807 | 10.04967 | 352° | 5km/h | 22444m | 5.8m/s | -52.9°C | 1.1% | 40.1hPa | 2.6V | 00:00:00 | 00:00:00 | 00:00:00 | |
| DG9SBQ-11 | 2026-09-02 00:02:59 | 48.83805 | 10.04966 | 22° | 7km/h | 22438m | 5.6m/s | -52.9°C | 1.1% | 40.1hPa | 2.6V | 00:00:00 | 00:00:00 | 00:00:00 | |
| DM0DOS-11 | 2026-09-02 00:02:58 | 48.83823 | 10.04958 | 347° | 16km/h | 22474m | 5.4m/s | -53°C | 4.2% | 39.9hPa | 2.6V | 08:30:00 | 01:33:59 | 00:00:00 | |
| DO9HM | 2026-09-02 00:02:57 | 48.83803 | 10.04965 | 39° | 7km/h | 22433m | 4.7m/s | -52.9°C | 1.1% | 40.2hPa | 2.7V | 00:00:00 | 00:00:00 | 00:00:00 | |
| DJ2DS-15 | 2026-09-02 00:02:56 | 48.83802 | 10.04963 | 53° | 7km/h | 22428m | 5.3m/s | -52.8°C | 4.2% | 40.1hPa | 2.7V | 00:00:00 | 01:33:50 | 00:00:00 | |
| DO3MHA-12 | 2026-09-02 00:02:55 | 48.83802 | 10.04963 | 53° | 5km/h | 22428m | 5.3m/s | -52.8°C | 4.2% | 40.1hPa | 2.7V | 00:00:00 | 01:33:50 | 00:00:00 | |
| DK7TD | 2026-09-02 00:02:53 | 48.83819 | 10.04959 | 347° | 16km/h | 22469m | 4.3m/s | -53°C | 0.8% | 39.9hPa | 2.6V | 18:12:15 | 01:33:58 | 00:00:00 | |
| DK5PH-5 | 2026-09-02 00:02:52 | 48.83801 | 10.04960 | 48° | 7km/h | 22417m | 4.3m/s | -52.9°C | 4.2% | 40.2hPa | 2.6V | 00:00:00 | 01:33:48 | 00:00:00 | |
| IW2NTF | 2026-09-02 00:02:51 | 48.83808 | 10.04966 | 330° | 7km/h | 22448m | 3.7m/s | -52.9°C | 4.2% | 40hPa | 2.6V | 08:30:00 | 01:33:54 | 00:00:00 | |
| OE5DXL-15 | 2026-09-02 00:02:50 | 48.83799 | 10.04959 | 357° | 7km/h | 22408m | 5.9m/s | -53.0°C | 4.3% | 40.3hPa | 2.6V | 00:00:00 | 00:00:00 | 00:00:00 | |
| DM0DOS-11 | 2026-09-02 00:02:49 | 48.83801 | 10.04960 | 47° | 2km/h | 22417m | 4.4m/s | -52.9°C | 4.2% | 40.2hPa | 2.6V | 08:30:00 | 01:33:48 | 00:00:00 | |
| DO3MHA-11 | 2026-09-02 00:02:49 | 48.83797 | 10.04960 | 355° | 5km/h | 22402m | 5.0m/s | -53.1°C | 4.3% | 40.3hPa | 2.6V | 00:00:00 | 01:33:45 | 00:00:00 | |
| OE3JTB-15 | 2026-09-02 00:02:47 | 48.83795 | 10.04960 | 354° | 7km/h | 22398m | 3.9m/s | -53.1°C | 4.3% | 40.3hPa | 2.6V | 00:00:00 | 00:00:00 | 00:00:00 | |
| OE9MKV-15 | 2026-09-02 00:02:46 | 48.83792 | 10.04961 | 314° | 7km/h | 22388m | 5.2m/s | -53.1°C | 4.4% | 40.4hPa | 2.6V | 00:00:00 | 01:33:42 | 00:00:00 | |
| DG9SBQ-11 | 2026-09-02 00:02:45 | 48.83792 | 10.04961 | 160° | 2km/h | 22383m | 4.5m/s | -53.1°C | 1.2% | 40.5hPa | 2.6V | 00:00:00 | 00:00:00 | 00:00:00 | |
| IW2NTF | 2026-09-02 00:02:44 | 48.83795 | 10.04960 | 353° | 9km/h | 22397m | 4m/s | -53.2°C | 4.3% | 40.4hPa | 2.6V | 08:30:00 | 01:33:44 | 00:00:00 | |
| PG1ADW-2 | 2026-09-02 00:02:42 | 48.83793 | 10.04958 | 120° | 7km/h | 22372m | 5.3m/s | -53.0°C | 4.3% | 40.5hPa | 2.7V | 00:00:00 | 01:33:39 | 00:00:00 | |
| DK7TD | 2026-09-02 00:02:42 | 48.83800 | 10.04959 | 5° | 4km/h | 22413m | 4.4m/s | -53°C | 0.7% | 40.3hPa | 2.6V | 18:12:15 | 01:33:47 | 00:00:00 | |
| NBG1-10 | 2026-09-02 00:02:41 | 48.83797 | 10.04952 | 148° | 9km/h | 22356m | 5.0m/s | -53.0°C | 4.3% | 40.6hPa | 2.6V | 00:00:00 | 01:33:36 | 00:00:00 | |
| DG9SBQ-11 | 2026-09-02 00:02:40 | 48.83799 | 10.04950 | 142° | 9km/h | 22352m | 3.9m/s | -53.0°C | 1.2% | 40.7hPa | 2.6V | 00:00:00 | 00:00:00 | 00:00:00 | |
| DJ2DS-15 | 2026-09-02 00:02:39 | 48.83803 | 10.04940 | 104° | 11km/h | 22336m | 5.2m/s | -52.9°C | 1.2% | 40.8hPa | 2.6V | 00:00:00 | 00:00:00 | 00:00:00 | |
| DM0DOS-11 | 2026-09-02 00:02:38 | 48.83796 | 10.04954 | 137° | 9km/h | 22361m | 5.9m/s | -53°C | 4.3% | 40.6hPa | 2.6V | 08:30:00 | 01:33:37 | 00:00:00 | |
| DO3MHA-12 | 2026-09-02 00:02:35 | 48.83805 | 10.04932 | 104° | 7km/h | 22325m | 4.5m/s | -52.8°C | 4.3% | 40.8hPa | 2.6V | 00:00:00 | 01:33:30 | 00:00:00 | |
| AM1SDL-15 | 2026-09-02 00:02:34 | 48.83804 | 10.04926 | 58° | 5km/h | 22316m | 6.2m/s | 0°C | 0% | 0hPa | 2.6V | 00:00:00 | 01:33:28 | 00:00:00 | |
| DK7TD | 2026-09-02 00:02:32 | 48.83796 | 10.04954 | 137° | 9km/h | 22361m | 5.9m/s | -53°C | 0.8% | 40.6hPa | 2.6V | 18:12:15 | 01:33:37 | 00:00:00 | |
| DB0NH | 2026-09-02 00:02:32 | 48.83801 | 10.04924 | 1° | 7km/h | 22305m | 5.1m/s | -52.7°C | 4.2% | 40.9hPa | 2.6V | 00:00:00 | 01:33:26 | 00:00:00 | |
| SONCRA | 2026-09-02 00:02:31 | 48.83800 | 10.04925 | 325° | 5km/h | 22299m | 5.9m/s | -52.7°C | 1.1% | 41.0hPa | 2.6V | 00:00:00 | 00:00:00 | 00:00:00 | |
| OE5WHR-10 | 2026-09-02 00:02:30 | 48.83800 | 10.04925 | 326° | 9km/h | 22299m | 5.9m/s | -52.7°C | 4.1% | 40.9hPa | 2.6V | 00:00:00 | 00:00:00 | 00:00:00 | |
| DG9SBQ-11 | 2026-09-02 00:02:28 | 48.83799 | 10.04926 | 283° | 7km/h | 22294m | 5.5m/s | -52.7°C | 1.1% | 41.0hPa | 2.6V | 00:00:00 | 00:00:00 | 00:00:00 | |
| DF3TZ-5 | 2026-09-02 00:02:27 | 48.83799 | 10.04932 | 261° | 5km/h | 22284m | 5.0m/s | -52.8°C | 1.1% | 41.1hPa | 2.6V | 00:00:00 | 00:00:00 | 00:00:00 | |
| DJ8HS-15 | 2026-09-02 00:02:26 | 48.83799 | 10.04932 | 262° | 9km/h | 22284m | 5.0m/s | -52.8°C | 4.2% | 41.0hPa | 2.6V | 00:00:00 | 01:33:22 | 08:30:00 | |
| DM0DOS-11 | 2026-09-02 00:02:25 | 48.83803 | 10.04925 | 27° | 7km/h | 22310m | 5.2m/s | -52.8°C | 4.2% | 40.9hPa | 2.6V | 08:30:00 | 01:33:27 | 00:00:00 | |
| DO3MHA-12 | 2026-09-02 00:02:23 | 48.83799 | 10.04934 | 101° | 9km/h | 22274m | 5.2m/s | -52.9°C | 4.2% | 41.1hPa | 2.6V | 00:00:00 | 01:33:20 | 08:30:00 | |
| DK7TD | 2026-09-02 00:02:21 | 48.83801 | 10.04924 | 0° | 7km/h | 22305m | 5.2m/s | -52.8°C | 0.8% | 41hPa | 2.6V | 18:12:15 | 01:33:26 | 00:00:00 | |
| DG9SBQ-11 | 2026-09-02 00:02:21 | 48.83800 | 10.04933 | 108° | 4km/h | 22268m | 6.0m/s | -53.0°C | 1.1% | 41.2hPa | 2.7V | 00:00:00 | 00:00:00 | 00:00:00 | |
| DK5PH-5 | 2026-09-02 00:02:20 | 48.83800 | 10.04931 | 108° | 7km/h | 22262m | 5.6m/s | -53.0°C | 4.3% | 41.2hPa | 2.7V | 00:00:00 | 01:33:18 | 00:00:00 | |
| DN1GJH-1 | 2026-09-02 00:02:19 | 48.83801 | 10.04927 | 95° | 11km/h | 22257m | 4.5m/s | -53.0°C | 1.2% | 41.3hPa | 2.6V | 00:00:00 | 00:00:00 | 00:00:00 | |
| OE5DXL-15 | 2026-09-02 00:02:18 | 48.83800 | 10.04923 | 75° | 7km/h | 22252m | 5.3m/s | -52.9°C | 4.3% | 41.2hPa | 2.6V | 00:00:00 | 00:00:00 | 00:00:00 | |
| OE3JTB-15 | 2026-09-02 00:02:17 | 48.83796 | 10.04914 | 43° | 7km/h | 22241m | 4.7m/s | -52.9°C | 4.2% | 41.3hPa | 2.7V | 00:00:00 | 00:00:00 | 00:00:00 | |
| DM0DOS-11 | 2026-09-02 00:02:16 | 48.83801 | 10.04928 | 93° | 11km/h | 22256m | 4.5m/s | -53°C | 4.3% | 41.3hPa | 2.7V | 08:30:00 | 01:33:17 | 00:00:00 | |
| OE9MKV-15 | 2026-09-02 00:02:16 | 48.83790 | 10.04908 | 31° | 7km/h | 22230m | 5.6m/s | -52.9°C | 4.3% | 41.4hPa | 2.7V | 00:00:00 | 01:33:12 | 00:00:00 | |
| IW2NTF | 2026-09-02 00:02:14 | 48.83791 | 10.04908 | 30° | 11km/h | 22230m | 5.7m/s | -52.9°C | 4.3% | 41.4hPa | 2.7V | 00:00:00 | 01:33:12 | 00:00:00 | |
| DL6DJ-15 | 2026-09-02 00:02:12 | 48.83778 | 10.04907 | 1° | 5km/h | 22199m | 6.1m/s | -52.8°C | 1.1% | 41.6hPa | 2.6V | 00:00:00 | 00:00:00 | 00:00:00 | |
| DK7TD | 2026-09-02 00:02:11 | 48.83800 | 10.04923 | 75° | 13km/h | 22252m | 5.3m/s | -53°C | 0.8% | 41.3hPa | 2.6V | 18:12:15 | 01:33:16 | 00:00:00 | |
| AZAK | 2026-09-02 00:02:11 | 48.83782 | 10.04906 | 351° | 11km/h | 22209m | 4.9m/s | -52.8°C | 1.1% | 41.6hPa | 2.7V | 00:00:00 | 00:00:00 | 00:00:00 | |
| DF7PN | 2026-09-02 00:02:10 | 48.83780 | 10.04907 | 354° | 7km/h | 22204m | 4.1m/s | -52.8°C | 1.1% | 41.6hPa | 2.7V | 00:00:00 | 00:00:00 | 00:00:00 | |
| DG9SBQ-11 | 2026-09-02 00:02:09 | 48.83780 | 10.04907 | 356° | 9km/h | 22204m | 4.1m/s | -52.8°C | 1.1% | 41.6hPa | 2.7V | 00:00:00 | 00:00:00 | 00:00:00 | |
| DB0ND-19 | 2026-09-02 00:02:08 | 48.83776 | 10.04907 | 23° | 4km/h | 22193m | 5.3m/s | -52.8°C | 1.1% | 41.7hPa | 2.7V | 00:00:00 | 00:00:00 | 00:00:00 | |
| OE5WHR-10 | 2026-09-02 00:02:07 | 48.83775 | 10.04905 | 38° | 5km/h | 22189m | 4.8m/s | -52.7°C | 4.2% | 41.7hPa | 2.7V | 00:00:00 | 00:00:00 | 00:00:00 | |
| DM0DOS-11 | 2026-09-02 00:02:04 | 48.83780 | 10.04907 | 354° | 9km/h | 22204m | 4.1m/s | -52.8°C | 4.2% | 41.6hPa | 2.7V | 08:30:00 | 01:33:07 | 00:00:00 | |
| NBG1-10 | 2026-09-02 00:02:04 | 48.83773 | 10.04904 | 31° | 5km/h | 22183m | 6.0m/s | -52.7°C | 4.2% | 41.7hPa | 2.6V | 00:00:00 | 01:33:03 | 00:00:00 | |
| DJ8HS-15 | 2026-09-02 00:02:03 | 48.83771 | 10.04902 | 19° | 5km/h | 22178m | 4.8m/s | -52.7°C | 4.2% | 41.7hPa | 2.6V | 00:00:00 | 01:33:02 | 00:00:00 | |
| DG9SBQ-11 | 2026-09-02 00:02:02 | 48.83771 | 10.04902 | 20° | 11km/h | 22178m | 4.8m/s | -52.7°C | 1.1% | 41.8hPa | 2.6V | 00:00:00 | 00:00:00 | 00:00:00 | |
| DO3MHA-12 | 2026-09-02 00:02:01 | 48.83766 | 10.04901 | 5° | 5km/h | 22169m | 5.4m/s | -52.7°C | 4.2% | 41.8hPa | 2.6V | 00:00:00 | 01:33:00 | 00:00:00 | |
| DK7TD | 2026-09-02 00:02:00 | 48.83776 | 10.04907 | 24° | 5km/h | 22193m | 5.3m/s | -52.8°C | 0.8% | 41.7hPa | 2.6V | 18:12:15 | 01:33:05 | 00:00:00 | |
| PG1ADW-2 | 2026-09-02 00:02:00 | 48.83764 | 10.04901 | 355° | 4km/h | 22163m | 5.5m/s | -52.8°C | 4.2% | 41.8hPa | 2.7V | 00:00:00 | 00:00:00 | 00:00:00 | |
| DB0NH | 2026-09-02 00:01:58 | 48.83761 | 10.04902 | 352° | 5km/h | 22147m | 5.9m/s | -52.9°C | 4.3% | 41.9hPa | 2.7V | 00:00:00 | 01:32:56 | 00:00:00 | |
| DM7RM-13 | 2026-09-02 00:01:57 | 48.83760 | 10.04902 | 361° | 7km/h | 22142m | 5.0m/s | -53.0°C | 1.2% | 42.0hPa | 2.7V | 00:00:00 | 00:00:00 | 00:00:00 | |
| DM0DOS-11 | 2026-09-02 00:01:56 | 48.83763 | 10.04902 | 344° | 4km/h | 22153m | 5.1m/s | -52.9°C | 4.2% | 41.9hPa | 2.7V | 08:30:00 | 01:32:57 | 00:00:00 | |
| AM1SDL-15 | 2026-09-02 00:01:56 | 48.83757 | 10.04902 | 322° | 5km/h | 22126m | 4.5m/s | 0°C | 0% | 0hPa | 2.7V | 00:00:00 | 01:32:52 | 00:00:00 | |
| SONDE2-11 | 2026-09-02 00:01:55 | 48.83756 | 10.04903 | 317° | 4km/h | 22121m | 5.1m/s | -52.9°C | 1.2% | 42.1hPa | 2.7V | 00:00:00 | 00:00:00 | 00:00:00 | |
| DJ2DS-15 | 2026-09-02 00:01:54 | 48.83755 | 10.04904 | 330° | 5km/h | 22116m | 5.7m/s | -52.8°C | 4.3% | 42.1hPa | 2.7V | 00:00:00 | 01:32:50 | 00:00:00 | |
| AZAK | 2026-09-02 00:01:53 | 48.83752 | 10.04906 | 356° | 5km/h | 22106m | 4.4m/s | -52.9°C | 1.1% | 42.2hPa | 2.7V | 00:00:00 | 00:00:00 | 00:00:00 | |
| DO3MHA-11 | 2026-09-02 00:01:50 | 48.83752 | 10.04903 | 127° | 4km/h | 22090m | 4.4m/s | -52.8°C | 4.3% | 42.3hPa | 2.7V | 00:00:00 | 01:32:45 | 00:00:00 | |
| DK7TD | 2026-09-02 00:01:50 | 48.83758 | 10.04902 | 7° | 5km/h | 22136m | 5.4m/s | -53°C | 0.8% | 42hPa | 2.6V | 18:12:15 | 01:32:54 | 00:00:00 | |
| DG9SBQ-11 | 2026-09-02 00:01:49 | 48.83752 | 10.04903 | 127° | 7km/h | 22090m | 4.5m/s | -52.9°C | 1.2% | 42.3hPa | 2.7V | 00:00:00 | 00:00:00 | 00:00:00 | |
| IW2NTF | 2026-09-02 00:01:47 | 48.83755 | 10.04904 | 329° | 5km/h | 22115m | 5.8m/s | -52.9°C | 4.3% | 42.2hPa | 2.7V | 00:00:00 | 01:32:50 | 00:00:00 | |
| OE5WHR-10 | 2026-09-02 00:01:46 | 48.83753 | 10.04899 | 112° | 5km/h | 22080m | 5.5m/s | -52.8°C | 4.3% | 42.4hPa | 2.6V | 00:00:00 | 01:32:43 | 00:00:00 | |
| DJ8HS-15 | 2026-09-02 00:01:44 | 48.83754 | 10.04897 | 94° | 5km/h | 22075m | 5.1m/s | -52.8°C | 4.3% | 42.4hPa | 2.6V | 00:00:00 | 01:32:42 | 00:00:00 | |
| DM0DOS-11 | 2026-09-02 00:01:43 | 48.83751 | 10.04906 | 38° | 2km/h | 22100m | 6.1m/s | -52.9°C | 4.3% | 42.2hPa | 2.6V | 08:30:00 | 01:32:47 | 00:00:00 | |
| DO3MHA-12 | 2026-09-02 00:01:43 | 48.83754 | 10.04896 | 177° | 5km/h | 22064m | 5.9m/s | -52.8°C | 4.3% | 42.5hPa | 2.6V | 00:00:00 | 01:32:40 | 00:00:00 | |
| DG9SBQ-11 | 2026-09-02 00:01:42 | 48.83755 | 10.04896 | 192° | 4km/h | 22059m | 5.2m/s | -52.9°C | 1.2% | 42.5hPa | 2.6V | 00:00:00 | 00:00:00 | 00:00:00 | |
| DF7PN | 2026-09-02 00:01:40 | 48.83756 | 10.04897 | 5° | 2km/h | 22043m | 5.7m/s | -52.8°C | 1.2% | 42.6hPa | 2.6V | 00:00:00 | 00:00:00 | 00:00:00 | |
| DK7TD | 2026-09-02 00:01:39 | 48.83753 | 10.04901 | 123° | 7km/h | 22085m | 5.2m/s | -52.9°C | 0.8% | 42.4hPa | 2.6V | 18:12:15 | 01:32:44 | 00:00:00 | |
| DM0DOS-11 | 2026-09-02 00:01:38 | 48.83756 | 10.04897 | 5° | 2km/h | 22043m | 5.7m/s | -52.8°C | 4.3% | 42.6hPa | 2.6V | 08:30:00 | 01:32:36 | 00:00:00 | |
| IW2NTF | 2026-09-02 00:01:37 | 48.83754 | 10.04896 | 176° | 2km/h | 22064m | 5.9m/s | -52.9°C | 4.3% | 42.5hPa | 2.7V | 00:00:00 | 01:32:40 | 00:00:00 | |
| DB0ND-19 | 2026-09-02 00:01:37 | 48.83754 | 10.04895 | 48° | 5km/h | 22033m | 5.7m/s | -52.7°C | 1.2% | 42.7hPa | 2.7V | 00:00:00 | 00:00:00 | 00:00:00 | |
| DM7RM-13 | 2026-09-02 00:01:36 | 48.83754 | 10.04895 | 49° | 7km/h | 22033m | 5.7m/s | -52.7°C | 1.2% | 42.7hPa | 2.7V | 00:00:00 | 00:00:00 | 00:00:00 | |
| DG9SBQ-11 | 2026-09-02 00:01:35 | 48.83753 | 10.04893 | 65° | 7km/h | 22027m | 5.5m/s | -52.7°C | 1.2% | 42.7hPa | 2.7V | 00:00:00 | 00:00:00 | 00:00:00 | |
| DJ2DS-15 | 2026-09-02 00:01:31 | 48.83749 | 10.04885 | 39° | 7km/h | 22012m | 6.0m/s | -52.6°C | 4.3% | 42.8hPa | 2.7V | 00:00:00 | 01:32:30 | 00:00:00 | |
| NBG1-10 | 2026-09-02 00:01:30 | 48.83749 | 10.04885 | 39° | 5km/h | 22012m | 6.0m/s | -52.6°C | 4.3% | 42.8hPa | 2.7V | 00:00:00 | 01:32:30 | 00:00:00 | |
| DK7TD | 2026-09-02 00:01:28 | 48.83753 | 10.04893 | 64° | 7km/h | 22027m | 5.5m/s | -52.7°C | 0.8% | 42.7hPa | 2.6V | 18:12:15 | 01:32:33 | 00:00:00 | |
| AM1SDL-15 | 2026-09-02 00:01:28 | 48.83745 | 10.04882 | 21° | 5km/h | 22002m | 4.1m/s | 0°C | 0% | 0hPa | 2.7V | 00:00:00 | 01:32:28 | 00:00:00 | |
| IW2NTF | 2026-09-02 00:01:27 | 48.83749 | 10.04885 | 38° | 9km/h | 22012m | 6m/s | -52.6°C | 4.3% | 42.9hPa | 2.7V | 00:00:00 | 01:32:30 | 00:00:00 | |
| DM0DOS-11 | 2026-09-02 00:01:26 | 48.83741 | 10.04879 | 39° | 4km/h | 21992m | 5.3m/s | -52.5°C | 4.3% | 43hPa | 2.6V | 08:30:00 | 01:32:26 | 00:00:00 | |
| DG9SBQ-11 | 2026-09-02 00:01:26 | 48.83743 | 10.04880 | 25° | 7km/h | 21998m | 5.3m/s | -52.6°C | 1.1% | 42.9hPa | 2.6V | 00:00:00 | 00:00:00 | 00:00:00 | |
| DB0NH | 2026-09-02 00:01:25 | 48.83742 | 10.04879 | 40° | 5km/h | 21992m | 5.3m/s | -52.5°C | 4.3% | 42.9hPa | 2.6V | 00:00:00 | 01:32:26 | 00:00:00 | |
| DO3MHA-11 | 2026-09-02 00:01:24 | 48.83741 | 10.04878 | 57° | 5km/h | 21987m | 4.8m/s | -52.5°C | 4.2% | 43.0hPa | 2.6V | 00:00:00 | 01:32:25 | 00:00:00 | |
| SONCRA | 2026-09-02 00:01:22 | 48.83740 | 10.04878 | 353° | 2km/h | 21976m | 5.9m/s | -52.5°C | 1.1% | 43.1hPa | 2.7V | 00:00:00 | 00:00:00 | 00:00:00 | |
| DG9SBQ-11 | 2026-09-02 00:01:20 | 48.83739 | 10.04878 | 353° | 4km/h | 21971m | 5.1m/s | -52.5°C | 1.2% | 43.1hPa | 2.7V | 00:00:00 | 00:00:00 | 00:00:00 | |
| DK7TD | 2026-09-02 00:01:18 | 48.83740 | 10.04878 | 354° | 4km/h | 21976m | 5.9m/s | -52.5°C | 0.7% | 43.1hPa | 2.7V | 18:12:15 | 01:32:23 | 00:00:00 | |
| DK5PH-5 | 2026-09-02 00:01:18 | 48.83734 | 10.04877 | 4° | 5km/h | 21949m | 6.2m/s | -52.3°C | 4.2% | 43.2hPa | 2.7V | 00:00:00 | 01:32:18 | 00:00:00 | |
| IW2NTF | 2026-09-02 00:01:17 | 48.83734 | 10.04877 | 3° | 7km/h | 21948m | 6.2m/s | -52.3°C | 4.2% | 43.3hPa | 2.7V | 00:00:00 | 01:32:18 | 00:00:00 | |
| OE5DXL-15 | 2026-09-02 00:01:16 | 48.83729 | 10.04877 | 2° | 5km/h | 21938m | 4.5m/s | -52.2°C | 4.2% | 43.3hPa | 2.6V | 00:00:00 | 00:00:00 | 00:00:00 | |
| DH7VM-15 | 2026-09-02 00:01:15 | 48.83729 | 10.04877 | 2° | 13km/h | 21938m | 4.6m/s | -52.2°C | 1.2% | 43.4hPa | 2.6V | 00:00:00 | 00:00:00 | 00:00:00 | |
| DN1GJH-1 | 2026-09-02 00:01:14 | 48.83726 | 10.04877 | 9° | 11km/h | 21932m | 5.6m/s | -52.2°C | 1.2% | 43.4hPa | 2.6V | 00:00:00 | 00:00:00 | 00:00:00 | |
| DM0DOS-11 | 2026-09-02 00:01:13 | 48.83729 | 10.04877 | 1° | 13km/h | 21937m | 4.6m/s | -52.2°C | 4.2% | 43.4hPa | 2.6V | 08:30:00 | 01:32:16 | 00:00:00 | |
| DM7RM-13 | 2026-09-02 00:01:11 | 48.83721 | 10.04875 | 28° | 7km/h | 21922m | 3.6m/s | -52.1°C | 1.2% | 43.5hPa | 2.7V | 00:00:00 | 00:00:00 | 00:00:00 | |
| OE9MKV-15 | 2026-09-02 00:01:10 | 48.83720 | 10.04874 | 13° | 5km/h | 21918m | 5.2m/s | -52.0°C | 4.1% | 43.4hPa | 2.7V | 00:00:00 | 01:32:12 | 00:00:00 | |
| DO9HM | 2026-09-02 00:01:09 | 48.83713 | 10.04877 | 361° | 4km/h | 21890m | 5.9m/s | -51.8°C | 1.1% | 43.7hPa | 2.7V | 00:00:00 | 00:00:00 | 00:00:00 | |
| DK7TD | 2026-09-02 00:01:08 | 48.83721 | 10.04875 | 27° | 7km/h | 21922m | 3.6m/s | -52.1°C | 0.7% | 43.5hPa | 2.7V | 18:12:15 | 01:32:13 | 00:00:00 | |
| DG9SBQ-11 | 2026-09-02 00:01:07 | 48.83718 | 10.04874 | 350° | 5km/h | 21912m | 6.0m/s | -52.0°C | 1.1% | 43.5hPa | 2.6V | 00:00:00 | 00:00:00 | 00:00:00 | |
| DM0DOS-11 | 2026-09-02 00:01:06 | 48.83712 | 10.04877 | 15° | 2km/h | 21884m | 4.4m/s | -51.8°C | 4.1% | 43.7hPa | 2.6V | 08:30:00 | 01:32:06 | 00:00:00 | |
| DJ2DS-15 | 2026-09-02 00:01:06 | 48.83717 | 10.04875 | 334° | 5km/h | 21907m | 5.4m/s | -51.9°C | 4.1% | 43.5hPa | 2.6V | 00:00:00 | 01:32:10 | 00:00:00 | |
| DO3MHA-11 | 2026-09-02 00:01:00 | 48.83712 | 10.04877 | 354° | 5km/h | 21879m | 5.5m/s | -51.7°C | 4.1% | 43.7hPa | 2.7V | 00:00:00 | 01:32:05 | 00:00:00 | |
| DL6DJ-15 | 2026-09-02 00:00:59 | 48.83711 | 10.04878 | 331° | 4km/h | 21874m | 5.8m/s | -51.7°C | 1.1% | 43.8hPa | 2.7V | 00:00:00 | 00:00:00 | 00:00:00 | |
| DK7TD | 2026-09-02 00:00:58 | 48.83709 | 10.04879 | 326° | 7km/h | 21868m | 5.1m/s | -51.7°C | 0.7% | 43.8hPa | 2.7V | 18:12:15 | 01:32:03 | 00:00:00 | |
| OE5WHR-10 | 2026-09-02 00:00:57 | 48.83707 | 10.04881 | 344° | 5km/h | 21858m | 5.6m/s | -51.6°C | 4.1% | 43.9hPa | 2.7V | 00:00:00 | 00:00:00 | 00:00:00 | |
| DO3MHA-12 | 2026-09-02 00:00:56 | 48.83706 | 10.04881 | 348° | 5km/h | 21852m | 4.8m/s | -51.6°C | 4.0% | 43.9hPa | 2.7V | 00:00:00 | 01:32:00 | 00:00:00 | |
| IW2NTF | 2026-09-02 00:00:56 | 48.83704 | 10.04883 | 315° | 7km/h | 21842m | 6.1m/s | -51.6°C | 0% | 44hPa | 2.6V | 00:00:00 | 01:31:58 | 00:00:00 | |
| PG1ADW-2 | 2026-09-02 00:00:55 | 48.83705 | 10.04882 | 329° | 5km/h | 21848m | 4.4m/s | -51.6°C | 4.1% | 43.9hPa | 2.7V | 00:00:00 | 00:00:00 | 00:00:00 | |
| DM0DOS-11 | 2026-09-02 00:00:54 | 48.83701 | 10.04888 | 312° | 7km/h | 21832m | 5.1m/s | -51.5°C | 4% | 44.1hPa | 2.7V | 08:30:00 | 01:31:56 | 00:00:00 | |
| NBG1-10 | 2026-09-02 00:00:52 | 48.83703 | 10.04885 | 310° | 5km/h | 21837m | 4.9m/s | -51.5°C | 4.1% | 44.0hPa | 2.7V | 00:00:00 | 01:31:57 | 00:00:00 | |
| DB0NH | 2026-09-02 00:00:51 | 48.83701 | 10.04888 | 313° | 5km/h | 21832m | 5.1m/s | -51.5°C | 4.0% | 44.0hPa | 2.7V | 00:00:00 | 01:31:56 | 00:00:00 | |
| AM1SDL-15 | 2026-09-02 00:00:50 | 48.83698 | 10.04890 | 310° | 5km/h | 21811m | 5.6m/s | 0°C | 0% | 0hPa | 2.7V | 00:00:00 | 01:31:52 | 08:30:00 | |
| OE5DRO-10 | 2026-09-02 00:00:49 | 48.83698 | 10.04890 | 310° | 5km/h | 21811m | 5.6m/s | -51.4°C | 4.0% | 44.2hPa | 2.7V | 00:00:00 | 00:00:00 | 00:00:00 | |
| SONDE2-11 | 2026-09-02 00:00:48 | 48.83696 | 10.04895 | 326° | 5km/h | 21795m | 4.7m/s | -51.3°C | 1.1% | 44.3hPa | 2.7V | 00:00:00 | 00:00:00 | 00:00:00 | |
| DK7TD | 2026-09-02 00:00:47 | 48.83698 | 10.04891 | 310° | 2km/h | 21810m | 5.7m/s | -51.4°C | 0.7% | 44.2hPa | 2.7V | 18:12:15 | 01:31:52 | 00:00:00 | |
| DG9SBQ-11 | 2026-09-02 00:00:47 | 48.83694 | 10.04896 | 348° | 5km/h | 21790m | 5.9m/s | -51.3°C | 1.1% | 44.3hPa | 2.6V | 00:00:00 | 00:00:00 | 00:00:00 | |
| IW2NTF | 2026-09-02 00:00:46 | 48.83694 | 10.04896 | 347° | 5km/h | 21790m | 5.9m/s | -51.3°C | 0% | 44.3hPa | 2.6V | 00:00:00 | 01:31:48 | 00:00:00 | |
| DO9HM | 2026-09-02 00:00:45 | 48.83692 | 10.04896 | 346° | 5km/h | 21780m | 4.2m/s | -51.3°C | 1.1% | 44.4hPa | 2.6V | 00:00:00 | 00:00:00 | 00:00:00 | |
| DO3MHA-11 | 2026-09-02 00:00:44 | 48.83691 | 10.04897 | 312° | 5km/h | 21775m | 5.9m/s | -51.3°C | 3.9% | 44.4hPa | 2.6V | 00:00:00 | 01:31:45 | 00:00:00 | |
| DJ2DS-15 | 2026-09-02 00:00:43 | 48.83690 | 10.04899 | 277° | 5km/h | 21769m | 5.6m/s | -51.3°C | 1.1% | 44.5hPa | 2.6V | 00:00:00 | 00:00:00 | 00:00:00 | |
| DJ8HS-15 | 2026-09-02 00:00:38 | 48.83690 | 10.04905 | 253° | 7km/h | 21759m | 5.9m/s | -51.2°C | 4.0% | 44.5hPa | 2.6V | 00:00:00 | 01:31:42 | 00:00:00 | |
| PG1ADW-2 | 2026-09-02 00:00:37 | 48.83693 | 10.04912 | 248° | 5km/h | 21743m | 6.2m/s | -51.2°C | 4.0% | 44.6hPa | 2.6V | 00:00:00 | 00:00:00 | 00:00:00 | |
| DK7TD | 2026-09-02 00:00:36 | 48.83691 | 10.04907 | 237° | 5km/h | 21753m | 5.3m/s | -51.3°C | 0.6% | 44.6hPa | 2.7V | 18:12:15 | 01:31:41 | 00:00:00 | |
| IW2NTF | 2026-09-02 00:00:35 | 48.83693 | 10.04914 | 260° | 7km/h | 21737m | 5m/s | -51.2°C | 0% | 44.7hPa | 2.6V | 00:00:00 | 01:31:38 | 00:00:00 | |
| DO3MHA-11 | 2026-09-02 00:00:35 | 48.83692 | 10.04918 | 20° | 7km/h | 21721m | 5.0m/s | -51.1°C | 4.0% | 44.8hPa | 2.6V | 00:00:00 | 01:31:35 | 00:00:00 | |
| OE5DRO-10 | 2026-09-02 00:00:33 | 48.83688 | 10.04916 | 8° | 7km/h | 21712m | 5.6m/s | -51.1°C | 3.9% | 44.8hPa | 2.6V | 00:00:00 | 00:00:00 | 08:30:00 | |
| DB0ND-19 | 2026-09-02 00:00:32 | 48.83685 | 10.04916 | 349° | 9km/h | 21706m | 5.4m/s | -51.1°C | 1.1% | 44.9hPa | 2.6V | 00:00:00 | 00:00:00 | 00:00:00 | |
| DM7RM-13 | 2026-09-02 00:00:31 | 48.83685 | 10.04916 | 351° | 11km/h | 21706m | 5.4m/s | -51.1°C | 1.1% | 44.9hPa | 2.6V | 00:00:00 | 00:00:00 | 00:00:00 | |
| DG9SBQ-11 | 2026-09-02 00:00:29 | 48.83682 | 10.04917 | 336° | 9km/h | 21701m | 4.8m/s | -51.1°C | 1.1% | 44.9hPa | 2.6V | 00:00:00 | 00:00:00 | 00:00:00 | |
| IW2NTF | 2026-09-02 00:00:28 | 48.83679 | 10.04921 | 245° | 2km/h | 21685m | 5.1m/s | -51.2°C | 0% | 45.1hPa | 2.6V | 00:00:00 | 01:31:28 | 00:00:00 | |
| DJ2DS-15 | 2026-09-02 00:00:28 | 48.83681 | 10.04919 | 328° | 7km/h | 21697m | 4.6m/s | -51.1°C | 3.9% | 45.0hPa | 2.6V | 00:00:00 | 00:00:00 | 00:00:00 | |
| DB0NH | 2026-09-02 00:00:27 | 48.83681 | 10.04923 | 217° | 5km/h | 21675m | 5.9m/s | -51.1°C | 3.9% | 45.1hPa | 2.6V | 00:00:00 | 01:31:26 | 00:00:00 | |
| DM0DOS-11 | 2026-09-02 00:00:26 | 48.83681 | 10.04923 | 216° | 7km/h | 21675m | 6m/s | -51.1°C | 3.9% | 45.1hPa | 2.6V | 08:30:00 | 01:31:26 | 00:00:00 | |
| DO3MHA-11 | 2026-09-02 00:00:26 | 48.83682 | 10.04925 | 216° | 7km/h | 21670m | 4.3m/s | -51.1°C | 3.9% | 45.1hPa | 2.7V | 00:00:00 | 01:31:25 | 00:00:00 | |
| DK7TD | 2026-09-02 00:00:25 | 48.83681 | 10.04919 | 327° | 7km/h | 21696m | 4.7m/s | -51.2°C | 0.6% | 45hPa | 2.7V | 18:12:15 | 01:31:30 | 00:00:00 | |
| NBG1-10 | 2026-09-02 00:00:25 | 48.83684 | 10.04926 | 204° | 5km/h | 21665m | 5.7m/s | -51.1°C | 3.9% | 45.2hPa | 2.7V | 00:00:00 | 01:31:24 | 00:00:00 | |
| SONCRA | 2026-09-02 00:00:22 | 48.83684 | 10.04926 | 350° | 4km/h | 21649m | 5.8m/s | -51.0°C | 1.1% | 45.3hPa | 2.7V | 00:00:00 | 00:00:00 | 00:00:00 | |
| SONDE2-11 | 2026-09-02 00:00:20 | 48.83678 | 10.04930 | 332° | 9km/h | 21634m | 4.1m/s | -51.0°C | 1.0% | 45.4hPa | 2.7V | 00:00:00 | 00:00:00 | 00:00:00 | |
| OE5WHR-10 | 2026-09-02 00:00:19 | 48.83678 | 10.04930 | 333° | 5km/h | 21635m | 4.1m/s | -50.9°C | 3.8% | 45.4hPa | 2.7V | 00:00:00 | 00:00:00 | 00:00:00 | |
| IW2NTF | 2026-09-02 00:00:17 | 48.83678 | 10.04930 | 332° | 11km/h | 21634m | 4.1m/s | -51°C | 0% | 45.4hPa | 2.7V | 00:00:00 | 01:31:18 | 00:00:00 | |
| DK7TD | 2026-09-02 00:00:17 | 48.83683 | 10.04927 | 334° | 7km/h | 21644m | 5.7m/s | -51°C | 0.5% | 45.4hPa | 2.6V | 18:12:15 | 01:31:20 | 00:00:00 | |
| OE5DXL-15 | 2026-09-02 00:00:17 | 48.83674 | 10.04932 | 7° | 5km/h | 21625m | 5.1m/s | -50.9°C | 3.8% | 45.4hPa | 2.6V | 00:00:00 | 00:00:00 | 00:00:00 | |
| DM0DOS-11 | 2026-09-02 00:00:14 | 48.83674 | 10.04932 | 6° | 9km/h | 21624m | 5.2m/s | -51°C | 3.8% | 45.5hPa | 2.6V | 08:30:00 | 01:31:16 | 00:00:00 | |
| DO3MHA-11 | 2026-09-02 00:00:13 | 48.83672 | 10.04931 | 13° | 5km/h | 21620m | 4.4m/s | -50.9°C | 3.8% | 45.5hPa | 2.7V | 00:00:00 | 01:31:15 | 00:00:00 | |
| OE5DRO-10 | 2026-09-02 00:00:12 | 48.83670 | 10.04931 | 1° | 5km/h | 21615m | 4.9m/s | -50.9°C | 3.8% | 45.5hPa | 2.7V | 00:00:00 | 00:00:00 | 00:00:00 | |
| DG9SBQ-11 | 2026-09-02 00:00:11 | 48.83669 | 10.04931 | 322° | 5km/h | 21610m | 5.6m/s | -50.9°C | 1.0% | 45.6hPa | 2.7V | 00:00:00 | 00:00:00 | 00:00:00 | |
| DN1GJH-1 | 2026-09-02 00:00:10 | 48.83669 | 10.04931 | 322° | 5km/h | 21610m | 5.6m/s | -50.9°C | 1.0% | 45.6hPa | 2.7V | 00:00:00 | 00:00:00 | 00:00:00 | |
| IW2NTF | 2026-09-02 00:00:09 | 48.83673 | 10.04941 | 207° | 5km/h | 21586m | 3.6m/s | -51.1°C | 0% | 45.8hPa | 2.7V | 00:00:00 | 01:31:08 | 00:00:00 | |
| DM0DOS-11 | 2026-09-02 00:00:08 | 48.83674 | 10.04943 | 270° | 4km/h | 21577m | 5.3m/s | -51.2°C | 3.9% | 45.8hPa | 2.6V | 08:30:00 | 01:31:06 | 00:00:00 | |
| DO3MHA-12 | 2026-09-02 00:00:06 | 48.83670 | 10.04938 | 227° | 5km/h | 21596m | 5.3m/s | -50.9°C | 3.8% | 45.6hPa | 2.6V | 00:00:00 | 01:31:10 | 00:00:00 | |
| DK7TD | 2026-09-02 00:00:06 | 48.83671 | 10.04940 | 211° | 7km/h | 21591m | 5m/s | -51.1°C | 0.5% | 45.7hPa | 2.6V | 18:12:15 | 01:31:09 | 00:00:00 | |
| DG9SBQ-11 | 2026-09-02 00:00:01 | 48.83673 | 10.04942 | 232° | 4km/h | 21582m | 5.0m/s | -51.2°C | 1.0% | 45.8hPa | 2.6V | 00:00:00 | 00:00:00 | 00:00:00 | |
| OE3JTB-15 | 2026-09-02 00:00:00 | 48.83673 | 10.04947 | 272° | 5km/h | 21567m | 5.1m/s | -51.3°C | 3.9% | 45.9hPa | 2.6V | 00:00:00 | 00:00:00 | 00:00:00 | |
| DF7PN | 2026-09-01 23:59:58 | 48.83674 | 10.04950 | 247° | 4km/h | 21557m | 4.0m/s | -51.5°C | 1.1% | 46.0hPa | 2.6V | 00:00:00 | 00:00:00 | 00:00:00 | |
| DJ8HS-15 | 2026-09-01 23:59:57 | 48.83674 | 10.04950 | 248° | 5km/h | 21557m | 3.9m/s | -51.5°C | 4.0% | 45.9hPa | 2.6V | 00:00:00 | 01:31:02 | 00:00:00 | |
| DB0ND-19 | 2026-09-01 23:59:56 | 48.83675 | 10.04952 | 260° | 5km/h | 21552m | 5.5m/s | -51.6°C | 1.1% | 46.0hPa | 2.6V | 00:00:00 | 00:00:00 | 00:00:00 | |
| DH7VM-15 | 2026-09-01 23:59:55 | 48.83675 | 10.04952 | 262° | 5km/h | 21552m | 5.5m/s | -51.6°C | 1.1% | 46.0hPa | 2.6V | 00:00:00 | 00:00:00 | 00:00:00 | |
| IW2NTF | 2026-09-01 23:59:54 | 48.83674 | 10.04958 | 302° | 4km/h | 21537m | 5.5m/s | -51.7°C | 0% | 46.1hPa | 2.6V | 00:00:00 | 01:30:58 | 00:00:00 | |
| PG1ADW-2 | 2026-09-01 23:59:54 | 48.83674 | 10.04957 | 293° | 5km/h | 21542m | 4.4m/s | -51.7°C | 4.0% | 46.0hPa | 2.6V | 00:00:00 | 01:30:59 | 00:00:00 | |
| DK7TD | 2026-09-01 23:59:53 | 48.83674 | 10.04958 | 303° | 4km/h | 21537m | 5.5m/s | -51.7°C | 0.7% | 46.1hPa | 2.6V | 18:12:15 | 01:30:58 | 00:00:00 | |
| DM0DOS-11 | 2026-09-01 23:59:52 | 48.83673 | 10.04958 | 66° | 2km/h | 21527m | 4m/s | -51.9°C | 4.1% | 46.2hPa | 2.7V | 08:30:00 | 01:30:56 | 00:00:00 | |
| OE5WHR-10 | 2026-09-01 23:59:52 | 48.83673 | 10.04958 | 34° | 5km/h | 21532m | 5.1m/s | -51.7°C | 4.0% | 46.1hPa | 2.7V | 00:00:00 | 00:00:00 | 00:00:00 | |
| DB0NH | 2026-09-01 23:59:51 | 48.83673 | 10.04958 | 67° | 7km/h | 21527m | 4.0m/s | -51.8°C | 4.1% | 46.1hPa | 2.7V | 00:00:00 | 01:30:56 | 08:30:00 | |
| DO3MHA-11 | 2026-09-01 23:59:50 | 48.83673 | 10.04957 | 31° | 5km/h | 21523m | 5.2m/s | -51.8°C | 4.0% | 46.2hPa | 2.6V | 00:00:00 | 01:30:55 | 00:00:00 | |
| DF1GD-15 | 2026-09-01 23:59:49 | 48.83673 | 10.04957 | 32° | 4km/h | 21523m | 5.2m/s | -51.9°C | 1.1% | 46.2hPa | 2.7V | 00:00:00 | 00:00:00 | 00:00:00 | |
| SONCRA | 2026-09-01 23:59:46 | 48.83672 | 10.04963 | 236° | 4km/h | 21498m | 4.1m/s | -51.8°C | 1.1% | 46.4hPa | 2.7V | 00:00:00 | 00:00:00 | 00:00:00 | |
| DM0DOS-11 | 2026-09-01 23:59:45 | 48.83674 | 10.04970 | 219° | 5km/h | 21478m | 5.7m/s | -51.7°C | 4% | 46.5hPa | 2.7V | 08:30:00 | 01:30:46 | 00:00:00 | |
| IW2NTF | 2026-09-01 23:59:44 | 48.83673 | 10.04967 | 257° | 5km/h | 21488m | 5.4m/s | -51.7°C | 0% | 46.5hPa | 2.6V | 00:00:00 | 01:30:48 | 00:00:00 | |
| DK7TD | 2026-09-01 23:59:43 | 48.83673 | 10.04967 | 257° | 5km/h | 21488m | 5.4m/s | -51.7°C | 0.7% | 46.5hPa | 2.6V | 18:12:15 | 01:30:48 | 00:00:00 | |
| DJ2DS-15 | 2026-09-01 23:59:43 | 48.83673 | 10.04967 | 258° | 7km/h | 21488m | 5.3m/s | -51.7°C | 4.0% | 46.4hPa | 2.6V | 00:00:00 | 01:30:48 | 00:00:00 | |
| DO3MHA-12 | 2026-09-01 23:59:42 | 48.83673 | 10.04969 | 247° | 5km/h | 21483m | 4.2m/s | -51.7°C | 4.0% | 46.5hPa | 2.6V | 00:00:00 | 01:30:47 | 00:00:00 | |
| OE5DXL-15 | 2026-09-01 23:59:41 | 48.83674 | 10.04970 | 220° | 9km/h | 21478m | 5.7m/s | -51.6°C | 4.0% | 46.5hPa | 2.6V | 00:00:00 | 00:00:00 | 00:00:00 | |
| DO3MHA-11 | 2026-09-01 23:59:40 | 48.83675 | 10.04971 | 190° | 5km/h | 21472m | 6.0m/s | -51.6°C | 4.0% | 46.5hPa | 2.6V | 00:00:00 | 01:30:45 | 00:00:00 | |
| AM1SDL-15 | 2026-09-01 23:59:39 | 48.83677 | 10.04971 | 173° | 9km/h | 21467m | 4.4m/s | 0°C | 0% | 0hPa | 2.6V | 00:00:00 | 01:30:44 | 00:00:00 | |
| DG9SBQ-11 | 2026-09-01 23:59:38 | 48.83677 | 10.04971 | 174° | 9km/h | 21467m | 4.5m/s | -51.7°C | 1.1% | 46.6hPa | 2.6V | 00:00:00 | 00:00:00 | 00:00:00 | |
| DJ8HS-15 | 2026-09-01 23:59:37 | 48.83682 | 10.04969 | 166° | 7km/h | 21459m | 4.9m/s | -51.6°C | 4.0% | 46.6hPa | 2.6V | 00:00:00 | 01:30:42 | 00:00:00 | |
| PG1ADW-2 | 2026-09-01 23:59:34 | 48.83683 | 10.04968 | 69° | 9km/h | 21445m | 4.6m/s | -51.5°C | 4.0% | 46.7hPa | 2.6V | 00:00:00 | 00:00:00 | 00:00:00 | |
| DM0DOS-11 | 2026-09-01 23:59:33 | 48.83682 | 10.04961 | 73° | 9km/h | 21431m | 4.2m/s | -51.6°C | 4% | 46.9hPa | 2.7V | 08:30:00 | 01:30:36 | 00:00:00 | |
| DK7TD | 2026-09-01 23:59:33 | 48.83683 | 10.04964 | 84° | 7km/h | 21435m | 4.7m/s | -51.6°C | 0.6% | 46.9hPa | 2.6V | 18:12:15 | 01:30:37 | 00:00:00 | |
| DO3MHA-12 | 2026-09-01 23:59:32 | 48.83683 | 10.04964 | 85° | 9km/h | 21435m | 4.7m/s | -51.6°C | 4.0% | 46.8hPa | 2.7V | 00:00:00 | 01:30:37 | 00:00:00 | |
| OE5DRO-10 | 2026-09-01 23:59:31 | 48.83682 | 10.04961 | 74° | 11km/h | 21431m | 4.2m/s | -51.6°C | 4.0% | 46.8hPa | 2.7V | 00:00:00 | 00:00:00 | 00:00:00 | |
| DO3MHA-11 | 2026-09-01 23:59:30 | 48.83682 | 10.04958 | 65° | 9km/h | 21426m | 5.7m/s | -51.6°C | 4.0% | 46.9hPa | 2.6V | 00:00:00 | 01:30:35 | 00:00:00 | |
| OE3JTB-15 | 2026-09-01 23:59:29 | 48.83680 | 10.04954 | 62° | 13km/h | 21421m | 4.5m/s | -51.6°C | 4.0% | 46.9hPa | 2.6V | 00:00:00 | 01:30:34 | 00:00:00 | |
| DJ2DS-15 | 2026-09-01 23:59:28 | 48.83679 | 10.04946 | 86° | 11km/h | 21412m | 5.8m/s | -51.6°C | 1.1% | 47.0hPa | 2.6V | 00:00:00 | 00:00:00 | 00:00:00 | |
| DF7PN | 2026-09-01 23:59:27 | 48.83679 | 10.04941 | 102° | 11km/h | 21407m | 4.5m/s | -51.6°C | 1.1% | 47.1hPa | 2.6V | 00:00:00 | 00:00:00 | 00:00:00 | |
| DM0DOS-11 | 2026-09-01 23:59:26 | 48.83682 | 10.04928 | 148° | 4km/h | 21385m | 4m/s | -51.5°C | 3.9% | 47.2hPa | 2.6V | 08:30:00 | 01:30:26 | 00:00:00 | |
| DB0ND-19 | 2026-09-01 23:59:25 | 48.83670 | 10.04878 | 74° | 9km/h | 21328m | 5.3m/s | -51.5°C | 1.0% | 47.6hPa | 2.6V | 00:00:00 | 00:00:00 | 00:00:00 | |
| DG9SBQ-11 | 2026-09-01 23:59:23 | 48.83681 | 10.04930 | 110° | 5km/h | 21393m | 4.9m/s | -51.6°C | 1.1% | 47.1hPa | 2.6V | 00:00:00 | 00:00:00 | 00:00:00 | |
| DO3MHA-12 | 2026-09-01 23:59:22 | 48.83682 | 10.04929 | 121° | 11km/h | 21389m | 3.8m/s | -51.5°C | 4.0% | 47.1hPa | 2.6V | 00:00:00 | 01:30:27 | 00:00:00 | |
| DK7TD | 2026-09-01 23:59:21 | 48.83682 | 10.04928 | 149° | 4km/h | 21385m | 4.1m/s | -51.5°C | 0.6% | 47.2hPa | 2.6V | 18:12:15 | 01:30:26 | 00:00:00 | |
| DB0NH | 2026-09-01 23:59:21 | 48.83682 | 10.04928 | 149° | 16km/h | 21385m | 4.0m/s | -51.5°C | 3.9% | 47.2hPa | 2.7V | 00:00:00 | 01:30:26 | 00:00:00 | |
| DO3MHA-11 | 2026-09-01 23:59:20 | 48.83683 | 10.04927 | 153° | 15km/h | 21380m | 5.3m/s | -51.5°C | 3.9% | 47.2hPa | 2.7V | 00:00:00 | 01:30:25 | 08:30:00 | |
| DO9HM | 2026-09-01 23:59:18 | 48.83684 | 10.04926 | 139° | 7km/h | 21375m | 4.4m/s | -51.5°C | 1.1% | 47.3hPa | 2.6V | 00:00:00 | 00:00:00 | 00:00:00 | |
| DJ8HS-15 | 2026-09-01 23:59:17 | 48.83686 | 10.04920 | 88° | 18km/h | 21367m | 4.5m/s | -51.5°C | 4.0% | 47.3hPa | 2.6V | 00:00:00 | 01:30:22 | 08:30:00 | |
| DG9SBQ-11 | 2026-09-01 23:59:16 | 48.83686 | 10.04920 | 88° | 11km/h | 21367m | 4.6m/s | -51.5°C | 1.1% | 47.3hPa | 2.7V | 00:00:00 | 00:00:00 | 00:00:00 | |
| SONCRA | 2026-09-01 23:59:14 | 48.83680 | 10.04905 | 49° | 18km/h | 21352m | 4.6m/s | -51.5°C | 1.1% | 47.4hPa | 2.7V | 00:00:00 | 00:00:00 | 00:00:00 | |
| DK5PH-5 | 2026-09-01 23:59:13 | 48.83677 | 10.04899 | 55° | 20km/h | 21348m | 5.2m/s | -51.4°C | 3.9% | 47.4hPa | 2.7V | 00:00:00 | 01:30:18 | 00:00:00 | |
| DM0DOS-11 | 2026-09-01 23:59:12 | 48.83672 | 10.04887 | 70° | 15km/h | 21338m | 4m/s | -51.5°C | 3.8% | 47.5hPa | 2.6V | 08:30:00 | 01:30:16 | 00:00:00 | |
| DO3MHA-12 | 2026-09-01 23:59:12 | 48.83674 | 10.04893 | 62° | 13km/h | 21342m | 5.1m/s | -51.4°C | 3.9% | 47.5hPa | 2.6V | 00:00:00 | 01:30:17 | 08:30:00 | |
| DK7TD | 2026-09-01 23:59:11 | 48.83672 | 10.04887 | 71° | 15km/h | 21338m | 4m/s | -51.5°C | 0.5% | 47.6hPa | 2.6V | 18:12:15 | 01:30:16 | 00:00:00 | |
| OE5DXL-15 | 2026-09-01 23:59:11 | 48.83672 | 10.04887 | 71° | 20km/h | 21338m | 3.9m/s | -51.4°C | 3.8% | 47.5hPa | 2.6V | 00:00:00 | 00:00:00 | 00:00:00 | |
| DO3MHA-11 | 2026-09-01 23:59:10 | 48.83671 | 10.04882 | 73° | 15km/h | 21333m | 5.2m/s | -51.4°C | 3.9% | 47.5hPa | 2.7V | 00:00:00 | 01:30:15 | 00:00:00 | |
| OE5WHR-10 | 2026-09-01 23:59:08 | 48.83670 | 10.04875 | 86° | 20km/h | 21323m | 4.2m/s | -51.5°C | 3.8% | 47.6hPa | 2.7V | 00:00:00 | 00:00:00 | 00:00:00 | |
| DM0DOS-11 | 2026-09-01 23:59:06 | 48.83664 | 10.04836 | 56° | 27km/h | 21288m | 6m/s | -51.8°C | 3.9% | 47.9hPa | 2.6V | 08:30:00 | 01:30:06 | 00:00:00 | |
| IW2NTF | 2026-09-01 23:59:04 | 48.83655 | 10.04818 | 54° | 29km/h | 21278m | 3.7m/s | -51.8°C | 0% | 48hPa | 2.6V | 00:00:00 | 01:30:04 | 00:00:00 | |
| DJ2DS-15 | 2026-09-01 23:59:03 | 48.83670 | 10.04851 | 65° | 24km/h | 21298m | 4.8m/s | -51.6°C | 3.9% | 47.8hPa | 2.7V | 00:00:00 | 01:30:08 | 00:00:00 | |
| DB0UT-7 | 2026-09-01 23:59:02 | 48.83667 | 10.04844 | 57° | 24km/h | 21294m | 4.5m/s | -51.7°C | 3.9% | 47.8hPa | 2.6V | 00:00:00 | 01:30:07 | 00:00:00 | |
| DK7TD | 2026-09-01 23:59:01 | 48.83664 | 10.04836 | 56° | 27km/h | 21288m | 6m/s | -51.8°C | 0.6% | 47.9hPa | 2.6V | 18:12:15 | 01:30:06 | 00:00:00 | |
| DF7PN | 2026-09-01 23:58:56 | 48.83642 | 10.04789 | 67° | 16km/h | 21260m | 4.8m/s | -52.0°C | 1.1% | 48.1hPa | 2.6V | 00:00:00 | 00:00:00 | 00:00:00 | |
| DG9SBQ-11 | 2026-09-01 23:58:55 | 48.83642 | 10.04789 | 68° | 16km/h | 21260m | 4.8m/s | -52.0°C | 1.1% | 48.1hPa | 2.6V | 00:00:00 | 00:00:00 | 00:00:00 | |
| PG1ADW-2 | 2026-09-01 23:58:54 | 48.83640 | 10.04783 | 83° | 24km/h | 21255m | 6.0m/s | -52.0°C | 4.0% | 48.1hPa | 2.6V | 00:00:00 | 00:00:00 | 00:00:00 | |
| OE5DRO-10 | 2026-09-01 23:58:53 | 48.83640 | 10.04775 | 92° | 24km/h | 21249m | 4.8m/s | -52.1°C | 4.0% | 48.2hPa | 2.6V | 00:00:00 | 00:00:00 | 00:00:00 | |
| DM0DOS-11 | 2026-09-01 23:58:52 | 48.83640 | 10.04758 | 87° | 24km/h | 21240m | 5m/s | -52.4°C | 4.1% | 48.3hPa | 2.6V | 08:30:00 | 01:29:56 | 00:00:00 | |
| DK7TD | 2026-09-01 23:58:50 | 48.83640 | 10.04749 | 80° | 24km/h | 21235m | 4.6m/s | -52.4°C | 0.7% | 48.3hPa | 2.6V | 18:12:15 | 01:29:55 | 00:00:00 | |
| DO3MHA-11 | 2026-09-01 23:58:50 | 48.83640 | 10.04749 | 80° | 26km/h | 21235m | 4.6m/s | -52.4°C | 4.1% | 48.2hPa | 2.6V | 00:00:00 | 01:29:55 | 00:00:00 | |
| DG9SBQ-11 | 2026-09-01 23:58:49 | 48.83640 | 10.04749 | 81° | 24km/h | 21235m | 4.6m/s | -52.4°C | 1.1% | 48.3hPa | 2.6V | 00:00:00 | 00:00:00 | 00:00:00 | |
| OE5WHR-10 | 2026-09-01 23:58:47 | 48.83634 | 10.04721 | 72° | 24km/h | 21222m | 5.1m/s | -52.4°C | 4.1% | 48.4hPa | 2.6V | 00:00:00 | 00:00:00 | 00:00:00 | |
| DM0DOS-11 | 2026-09-01 23:58:46 | 48.83615 | 10.04663 | 75° | 20km/h | 21188m | 4.2m/s | -52.5°C | 4% | 48.7hPa | 2.6V | 08:30:00 | 01:29:45 | 00:00:00 | |
| DK7TD | 2026-09-01 23:58:39 | 48.83614 | 10.04656 | 80° | 20km/h | 21184m | 4.9m/s | -52.5°C | 0.6% | 48.7hPa | 2.6V | 18:12:15 | 01:29:44 | 00:00:00 | |
| DG9SBQ-11 | 2026-09-01 23:58:38 | 48.83614 | 10.04656 | 80° | 20km/h | 21184m | 4.9m/s | -52.5°C | 1.1% | 48.7hPa | 2.7V | 00:00:00 | 00:00:00 | 00:00:00 | |
| OE9MKV-15 | 2026-09-01 23:58:37 | 48.83613 | 10.04641 | 82° | 22km/h | 21174m | 4.9m/s | -52.6°C | 4.1% | 48.7hPa | 2.7V | 00:00:00 | 01:29:42 | 00:00:00 | |
| DM0DOS-11 | 2026-09-01 23:58:35 | 48.83596 | 10.04584 | 36° | 20km/h | 21140m | 4.1m/s | -52.9°C | 4.2% | 49hPa | 2.7V | 08:30:00 | 01:29:35 | 00:00:00 | |
| DK7TD | 2026-09-01 23:58:29 | 48.83592 | 10.04580 | 39° | 18km/h | 21136m | 4.3m/s | -52.9°C | 0.7% | 49hPa | 2.6V | 18:12:15 | 01:29:34 | 00:00:00 | |
| DG9SBQ-11 | 2026-09-01 23:58:28 | 48.83592 | 10.04580 | 40° | 18km/h | 21136m | 4.3m/s | -52.9°C | 1.1% | 49.0hPa | 2.7V | 00:00:00 | 00:00:00 | 00:00:00 | |
| OE5WHR-10 | 2026-09-01 23:58:26 | 48.83585 | 10.04563 | 75° | 24km/h | 21122m | 4.5m/s | -53.0°C | 4.1% | 49.1hPa | 2.7V | 00:00:00 | 01:29:31 | 00:00:00 | |
| DL6DJ-15 | 2026-09-01 23:58:24 | 48.83583 | 10.04544 | 86° | 15km/h | 21106m | 4.6m/s | -53.1°C | 1.2% | 49.3hPa | 2.7V | 00:00:00 | 00:00:00 | 00:00:00 | |
| DM0DOS-11 | 2026-09-01 23:58:23 | 48.83581 | 10.04523 | 67° | 22km/h | 21091m | 4.2m/s | -53.1°C | 4.2% | 49.4hPa | 2.7V | 08:30:00 | 01:29:25 | 00:00:00 | |
| DK7TD | 2026-09-01 23:58:18 | 48.83575 | 10.04509 | 47° | 24km/h | 21081m | 4.3m/s | -53.1°C | 0.7% | 49.5hPa | 2.6V | 18:12:15 | 01:29:23 | 00:00:00 | |
| AZAK | 2026-09-01 23:58:18 | 48.83570 | 10.04502 | 45° | 26km/h | 21077m | 4.5m/s | -53.2°C | 1.2% | 49.5hPa | 2.6V | 00:00:00 | 00:00:00 | 00:00:00 | |
| DJ8HS-15 | 2026-09-01 23:58:17 | 48.83570 | 10.04502 | 44° | 24km/h | 21077m | 4.4m/s | -53.1°C | 4.2% | 49.5hPa | 2.6V | 00:00:00 | 01:29:22 | 00:00:00 | |
| DO9HM | 2026-09-01 23:58:16 | 48.83565 | 10.04495 | 46° | 27km/h | 21072m | 5.5m/s | -53.2°C | 1.2% | 49.5hPa | 2.6V | 00:00:00 | 00:00:00 | 00:00:00 | |
| DM0DOS-11 | 2026-09-01 23:58:15 | 48.83546 | 10.04450 | 80° | 18km/h | 21044m | 5m/s | -53.5°C | 4.2% | 49.8hPa | 2.6V | 08:30:00 | 01:29:15 | 00:00:00 | |
| DK7TD | 2026-09-01 23:58:08 | 48.83545 | 10.04434 | 92° | 24km/h | 21034m | 4.4m/s | -53.7°C | 0.7% | 49.8hPa | 2.7V | 18:12:15 | 01:29:13 | 00:00:00 | |
| NBG1-10 | 2026-09-01 23:58:07 | 48.83545 | 10.04425 | 93° | 18km/h | 21030m | 4.2m/s | -53.7°C | 4.3% | 49.8hPa | 2.6V | 00:00:00 | 01:29:12 | 00:00:00 | |
| AM1SDL-15 | 2026-09-01 23:58:05 | 48.83545 | 10.04409 | 79° | 24km/h | 21021m | 3.9m/s | 0°C | 0% | 0hPa | 2.7V | 00:00:00 | 01:29:10 | 00:00:00 | |
| OE5WHR-10 | 2026-09-01 23:58:04 | 48.83543 | 10.04401 | 67° | 16km/h | 21017m | 3.7m/s | -53.7°C | 4.3% | 49.9hPa | 2.7V | 00:00:00 | 00:00:00 | 08:30:00 | |
| DJ2DS-15 | 2026-09-01 23:58:03 | 48.83541 | 10.04393 | 62° | 20km/h | 21012m | 5.3m/s | 0°C | 0% | 0hPa | 2.6V | 00:00:00 | 01:29:08 | 00:00:00 | |
| DM0DOS-11 | 2026-09-01 23:58:02 | 48.83529 | 10.04366 | 52° | 29km/h | 20997m | 5.2m/s | -54°C | 4.4% | 50.1hPa | 2.6V | 08:30:00 | 01:29:05 | 00:00:00 | |
| DK7TD | 2026-09-01 23:57:57 | 48.83518 | 10.04345 | 49° | 20km/h | 20983m | 4.9m/s | -54.1°C | 0.9% | 50.2hPa | 2.6V | 18:12:15 | 01:29:02 | 00:00:00 | |
| DJ8HS-15 | 2026-09-01 23:57:57 | 48.83518 | 10.04345 | 50° | 16km/h | 20983m | 4.8m/s | -54.0°C | 4.5% | 50.2hPa | 2.6V | 00:00:00 | 01:29:02 | 00:00:00 | |
| AZAK | 2026-09-01 23:57:56 | 48.83514 | 10.04340 | 47° | 18km/h | 20978m | 5.5m/s | -54.1°C | 1.2% | 50.3hPa | 2.6V | 00:00:00 | 00:00:00 | 00:00:00 | |
| DM0DOS-11 | 2026-09-01 23:57:54 | 48.83499 | 10.04315 | 49° | 16km/h | 20949m | 5.4m/s | -54.1°C | 4.4% | 50.5hPa | 2.6V | 08:30:00 | 01:28:55 | 00:00:00 | |
| DK7TD | 2026-09-01 23:57:47 | 48.83491 | 10.04298 | 65° | 18km/h | 20935m | 5.3m/s | -54.2°C | 0.9% | 50.6hPa | 2.7V | 18:12:15 | 01:28:52 | 00:00:00 | |
| DF1GD-15 | 2026-09-01 23:57:44 | 48.83488 | 10.04286 | 72° | 16km/h | 20926m | 4.1m/s | -54.1°C | 1.3% | 50.7hPa | 2.6V | 00:00:00 | 00:00:00 | 00:00:00 | |
| DJ2DS-15 | 2026-09-01 23:57:43 | 48.83485 | 10.04273 | 64° | 13km/h | 20916m | 4.3m/s | 0°C | 0% | 0hPa | 2.6V | 00:00:00 | 01:28:48 | 00:00:00 | |
| DM0DOS-11 | 2026-09-01 23:57:42 | 48.83481 | 10.04257 | 81° | 11km/h | 20901m | 5.1m/s | -54.1°C | 4.5% | 50.9hPa | 2.6V | 08:30:00 | 01:28:45 | 00:00:00 | |
| DK7TD | 2026-09-01 23:57:37 | 48.83479 | 10.04244 | 69° | 13km/h | 20887m | 4.7m/s | -54.1°C | 0.8% | 51hPa | 2.7V | 18:12:15 | 01:28:42 | 00:00:00 | |
| DJ8HS-15 | 2026-09-01 23:57:37 | 48.83479 | 10.04244 | 69° | 13km/h | 20887m | 4.7m/s | -54.0°C | 4.4% | 51.0hPa | 2.6V | 00:00:00 | 01:28:42 | 00:00:00 | |
| DO9HM | 2026-09-01 23:57:35 | 48.83478 | 10.04240 | 70° | 13km/h | 20883m | 4.5m/s | -54.1°C | 1.3% | 51.1hPa | 2.6V | 00:00:00 | 00:00:00 | 00:00:00 | |
| DM0DOS-11 | 2026-09-01 23:57:34 | 48.83471 | 10.04219 | 45° | 11km/h | 20854m | 3.9m/s | -54°C | 4.5% | 51.2hPa | 2.6V | 08:30:00 | 01:28:35 | 00:00:00 | |
| DK7TD | 2026-09-01 23:57:26 | 48.83469 | 10.04205 | 98° | 11km/h | 20835m | 4.5m/s | -54°C | 0.8% | 51.4hPa | 2.7V | 18:12:15 | 01:28:31 | 00:00:00 | |
| DF1GD-15 | 2026-09-01 23:57:24 | 48.83469 | 10.04201 | 86° | 11km/h | 20830m | 5.4m/s | -54.0°C | 1.2% | 51.5hPa | 2.6V | 00:00:00 | 00:00:00 | 00:00:00 | |
| DJ2DS-15 | 2026-09-01 23:57:23 | 48.83467 | 10.04192 | 73° | 16km/h | 20820m | 4.7m/s | 0°C | 0% | 0hPa | 2.6V | 00:00:00 | 01:28:28 | 00:00:00 | |
| IW2NTF | 2026-09-01 23:57:22 | 48.83456 | 10.04161 | 46° | 16km/h | 20790m | 3.9m/s | -54.1°C | 0% | 51.8hPa | 2.6V | 00:00:00 | 01:28:22 | 00:00:00 | |
| DM0DOS-11 | 2026-09-01 23:57:22 | 48.83464 | 10.04176 | 63° | 15km/h | 20804m | 5.6m/s | -54.2°C | 4.5% | 51.7hPa | 2.7V | 08:30:00 | 01:28:25 | 00:00:00 | |
| DK7TD | 2026-09-01 23:57:15 | 48.83452 | 10.04153 | 69° | 13km/h | 20780m | 4.8m/s | -54.1°C | 0.8% | 51.8hPa | 2.7V | 18:12:15 | 01:28:20 | 00:00:00 | |
| DO9HM | 2026-09-01 23:57:15 | 48.83452 | 10.04153 | 70° | 13km/h | 20780m | 4.8m/s | -54.1°C | 1.2% | 51.8hPa | 2.7V | 00:00:00 | 00:00:00 | 00:00:00 | |
| OE3JTB-15 | 2026-09-01 23:57:14 | 48.83451 | 10.04148 | 75° | 16km/h | 20775m | 4.4m/s | -54.0°C | 4.4% | 51.9hPa | 2.7V | 00:00:00 | 00:00:00 | 00:00:00 | |
| DK5PH-5 | 2026-09-01 23:57:13 | 48.83450 | 10.04143 | 73° | 18km/h | 20771m | 5.6m/s | -54.0°C | 4.4% | 51.9hPa | 2.7V | 00:00:00 | 01:28:18 | 00:00:00 | |
| DG9SBQ-11 | 2026-09-01 23:57:12 | 48.83449 | 10.04138 | 68° | 15km/h | 20765m | 4.8m/s | -54.0°C | 1.2% | 52.0hPa | 2.7V | 00:00:00 | 00:00:00 | 00:00:00 | |
| OE5DXL-15 | 2026-09-01 23:57:11 | 48.83447 | 10.04132 | 68° | 18km/h | 20761m | 3.9m/s | -54.0°C | 4.4% | 52.0hPa | 2.7V | 00:00:00 | 00:00:00 | 00:00:00 | |
| DO3MHA-11 | 2026-09-01 23:57:10 | 48.83446 | 10.04126 | 74° | 16km/h | 20756m | 5.4m/s | -54.0°C | 4.4% | 52.0hPa | 2.7V | 00:00:00 | 01:28:15 | 00:00:00 | |
| OE9MKV-15 | 2026-09-01 23:57:07 | 48.83443 | 10.04108 | 72° | 18km/h | 20741m | 5.4m/s | -54.1°C | 4.4% | 52.1hPa | 2.7V | 00:00:00 | 01:28:12 | 00:00:00 | |
| IW2NTF | 2026-09-01 23:57:06 | 48.83440 | 10.04098 | 53° | 16km/h | 20730m | 4.1m/s | -54.2°C | 0% | 52.3hPa | 2.7V | 00:00:00 | 01:28:10 | 00:00:00 | |
| DK7TD | 2026-09-01 23:57:05 | 48.83440 | 10.04098 | 53° | 16km/h | 20730m | 4.1m/s | -54.2°C | 0.8% | 52.3hPa | 2.7V | 18:12:15 | 01:28:10 | 00:00:00 | |
| DF1GD-15 | 2026-09-01 23:57:03 | 48.83438 | 10.04092 | 60° | 15km/h | 20726m | 4.0m/s | -54.2°C | 1.3% | 52.3hPa | 2.6V | 00:00:00 | 00:00:00 | 00:00:00 | |
| DB0UT-7 | 2026-09-01 23:57:02 | 48.83435 | 10.04081 | 86° | 20km/h | 20716m | 4.6m/s | -54.1°C | 4.5% | 52.3hPa | 2.6V | 00:00:00 | 01:28:07 | 00:00:00 | |
| NBG1-10 | 2026-09-01 23:57:01 | 48.83435 | 10.04075 | 91° | 20km/h | 20712m | 4.1m/s | -54.1°C | 4.5% | 52.4hPa | 2.6V | 00:00:00 | 01:28:06 | 00:00:00 | |
| DO3MHA-11 | 2026-09-01 23:57:00 | 48.83435 | 10.04068 | 92° | 22km/h | 20707m | 5.0m/s | -54.1°C | 4.5% | 52.4hPa | 2.6V | 00:00:00 | 01:28:05 | 00:00:00 | |
| OE5DRO-10 | 2026-09-01 23:56:59 | 48.83435 | 10.04061 | 87° | 20km/h | 20702m | 5.2m/s | -54.1°C | 4.5% | 52.4hPa | 2.6V | 00:00:00 | 00:00:00 | 00:00:00 | |
| DJ8HS-15 | 2026-09-01 23:56:57 | 48.83434 | 10.04047 | 87° | 20km/h | 20692m | 4.6m/s | -54.0°C | 4.5% | 52.5hPa | 2.6V | 00:00:00 | 01:28:02 | 00:00:00 | |
| IW2NTF | 2026-09-01 23:56:56 | 48.83434 | 10.04033 | 88° | 18km/h | 20681m | 4.4m/s | -54.1°C | 0% | 52.7hPa | 2.6V | 00:00:00 | 01:28:00 | 00:00:00 | |
| OE5WHR-10 | 2026-09-01 23:56:56 | 48.83434 | 10.04040 | 90° | 24km/h | 20687m | 5.6m/s | -54.0°C | 4.4% | 52.6hPa | 2.6V | 00:00:00 | 00:00:00 | 00:00:00 | |
| DM0DOS-11 | 2026-09-01 23:56:55 | 48.83424 | 10.03987 | 70° | 31km/h | 20657m | 5.6m/s | -54°C | 4.4% | 52.9hPa | 2.6V | 08:30:00 | 01:27:55 | 00:00:00 | |
| DK7TD | 2026-09-01 23:56:54 | 48.83434 | 10.04026 | 81° | 20km/h | 20677m | 4.8m/s | -54.1°C | 0.8% | 52.7hPa | 2.7V | 18:12:15 | 01:27:59 | 00:00:00 | |
| PG1ADW-2 | 2026-09-01 23:56:53 | 48.83432 | 10.04018 | 72° | 22km/h | 20672m | 5.8m/s | -54.0°C | 4.4% | 52.7hPa | 2.6V | 00:00:00 | 00:00:00 | 00:00:00 | |
| DO3MHA-12 | 2026-09-01 23:56:52 | 48.83430 | 10.04008 | 66° | 22km/h | 20666m | 5.1m/s | -54.0°C | 4.4% | 52.7hPa | 2.6V | 00:00:00 | 01:27:57 | 00:00:00 | |
| DB0NH | 2026-09-01 23:56:51 | 48.83427 | 10.03998 | 67° | 20km/h | 20662m | 4.1m/s | -54.0°C | 4.4% | 52.8hPa | 2.6V | 00:00:00 | 01:27:56 | 00:00:00 | |
| DO3MHA-11 | 2026-09-01 23:56:50 | 48.83424 | 10.03987 | 71° | 18km/h | 20657m | 5.5m/s | -54.0°C | 4.4% | 52.8hPa | 2.6V | 00:00:00 | 01:27:55 | 00:00:00 | |
| DG9SBQ-11 | 2026-09-01 23:56:49 | 48.83424 | 10.03987 | 72° | 31km/h | 20657m | 5.6m/s | -54.0°C | 1.2% | 52.9hPa | 2.6V | 00:00:00 | 00:00:00 | 00:00:00 | |
| IW2NTF | 2026-09-01 23:56:46 | 48.83415 | 10.03945 | 63° | 13km/h | 20633m | 4.5m/s | -54°C | 0% | 53.1hPa | 2.6V | 00:00:00 | 01:27:50 | 00:00:00 | |
| DK7TD | 2026-09-01 23:56:44 | 48.83414 | 10.03941 | 73° | 9km/h | 20629m | 4.8m/s | -54.1°C | 0.8% | 53.1hPa | 2.6V | 18:12:15 | 01:27:49 | 00:00:00 | |
| DM0DOS-11 | 2026-09-01 23:56:43 | 48.83412 | 10.03922 | 71° | 18km/h | 20609m | 5.3m/s | -54.2°C | 4.4% | 53.2hPa | 2.6V | 08:30:00 | 01:27:45 | 00:00:00 | |
| DO3MHA-12 | 2026-09-01 23:56:42 | 48.83414 | 10.03933 | 88° | 22km/h | 20619m | 4.4m/s | -54.1°C | 4.4% | 53.1hPa | 2.7V | 00:00:00 | 01:27:47 | 00:00:00 | |
| DN1GJH-1 | 2026-09-01 23:56:41 | 48.83413 | 10.03928 | 82° | 15km/h | 20614m | 4.2m/s | -54.2°C | 1.3% | 53.2hPa | 2.6V | 00:00:00 | 00:00:00 | 00:00:00 | |
| DO3MHA-11 | 2026-09-01 23:56:40 | 48.83412 | 10.03922 | 72° | 24km/h | 20609m | 5.3m/s | -54.2°C | 4.4% | 53.2hPa | 2.6V | 00:00:00 | 01:27:45 | 00:00:00 | |
| AM1SDL-15 | 2026-09-01 23:56:39 | 48.83410 | 10.03915 | 64° | 22km/h | 20604m | 4.7m/s | 0°C | 0% | 0hPa | 2.6V | 00:00:00 | 01:27:44 | 00:00:00 | |
| DG9SBQ-11 | 2026-09-01 23:56:38 | 48.83410 | 10.03915 | 64° | 22km/h | 20604m | 4.7m/s | -54.3°C | 1.2% | 53.3hPa | 2.6V | 00:00:00 | 00:00:00 | 00:00:00 | |
| DJ8HS-15 | 2026-09-01 23:56:37 | 48.83405 | 10.03898 | 66° | 20km/h | 20594m | 5.8m/s | -54.3°C | 4.4% | 53.4hPa | 2.6V | 00:00:00 | 01:27:42 | 00:00:00 | |
| DF3TZ-5 | 2026-09-01 23:56:36 | 48.83399 | 10.03879 | 62° | 27km/h | 20584m | 5.1m/s | -54.3°C | 1.2% | 53.5hPa | 2.6V | 00:00:00 | 00:00:00 | 00:00:00 | |
| OE5WHR-10 | 2026-09-01 23:56:35 | 48.83399 | 10.03879 | 63° | 18km/h | 20584m | 5.0m/s | -54.2°C | 4.4% | 53.4hPa | 2.6V | 00:00:00 | 00:00:00 | 00:00:00 | |
| DM0DOS-11 | 2026-09-01 23:56:34 | 48.83384 | 10.03845 | 56° | 13km/h | 20559m | 4.2m/s | -54.2°C | 4.4% | 53.7hPa | 2.6V | 08:30:00 | 01:27:35 | 00:00:00 | |
| DK7TD | 2026-09-01 23:56:33 | 48.83392 | 10.03862 | 54° | 24km/h | 20574m | 4.5m/s | -54.3°C | 0.9% | 53.5hPa | 2.6V | 18:12:15 | 01:27:38 | 00:00:00 | |
| DK7TD | 2026-09-01 23:56:23 | 48.83364 | 10.03821 | 46° | 20km/h | 20526m | 5.1m/s | -54.5°C | 0.9% | 54hPa | 2.6V | 18:12:15 | 01:27:28 | 00:00:00 | |
| DG9SBQ-11 | 2026-09-01 23:56:23 | 48.83364 | 10.03821 | 47° | 20km/h | 20526m | 5.1m/s | -54.5°C | 1.2% | 54.0hPa | 2.6V | 00:00:00 | 00:00:00 | 00:00:00 | |
| DM0DOS-11 | 2026-09-01 23:56:22 | 48.83353 | 10.03805 | 46° | 22km/h | 20510m | 5.5m/s | -54.4°C | 4.4% | 54.1hPa | 2.6V | 08:30:00 | 01:27:25 | 00:00:00 | |
| DO3MHA-12 | 2026-09-01 23:56:22 | 48.83360 | 10.03816 | 43° | 20km/h | 20521m | 5.4m/s | -54.4°C | 4.5% | 53.9hPa | 2.6V | 00:00:00 | 01:27:27 | 00:00:00 | |
| OE5DRO-10 | 2026-09-01 23:56:21 | 48.83356 | 10.03810 | 42° | 18km/h | 20515m | 4.3m/s | -54.4°C | 4.4% | 54.0hPa | 2.6V | 00:00:00 | 00:00:00 | 00:00:00 | |
| DO3MHA-11 | 2026-09-01 23:56:20 | 48.83353 | 10.03805 | 47° | 20km/h | 20511m | 5.4m/s | -54.4°C | 4.4% | 54.0hPa | 2.6V | 00:00:00 | 01:27:25 | 08:30:00 | |
| DL6DJ-15 | 2026-09-01 23:56:19 | 48.83349 | 10.03799 | 48° | 22km/h | 20505m | 5.0m/s | -54.4°C | 1.2% | 54.1hPa | 2.6V | 00:00:00 | 00:00:00 | 00:00:00 | |
| DJ8HS-15 | 2026-09-01 23:56:17 | 48.83341 | 10.03787 | 38° | 16km/h | 20496m | 5.8m/s | -54.3°C | 4.5% | 54.2hPa | 2.6V | 00:00:00 | 01:27:22 | 08:30:00 | |
| DG9SBQ-11 | 2026-09-01 23:56:16 | 48.83341 | 10.03787 | 38° | 20km/h | 20496m | 5.8m/s | -54.3°C | 1.3% | 54.2hPa | 2.7V | 00:00:00 | 00:00:00 | 00:00:00 | |
| OE3JTB-15 | 2026-09-01 23:56:15 | 48.83332 | 10.03780 | 22° | 13km/h | 20485m | 4.2m/s | -54.3°C | 4.5% | 54.3hPa | 2.7V | 00:00:00 | 00:00:00 | 00:00:00 | |
| DM0DOS-11 | 2026-09-01 23:56:14 | 48.83312 | 10.03772 | 2° | 18km/h | 20461m | 4.8m/s | -54.3°C | 4.4% | 54.5hPa | 2.7V | 08:30:00 | 01:27:15 | 00:00:00 | |
| DK7TD | 2026-09-01 23:56:13 | 48.83324 | 10.03775 | 20° | 16km/h | 20475m | 4.3m/s | -54.3°C | 0.8% | 54.4hPa | 2.6V | 18:12:15 | 01:27:18 | 00:00:00 | |
| OE5WHR-10 | 2026-09-01 23:56:13 | 48.83324 | 10.03775 | 21° | 15km/h | 20475m | 4.3m/s | -54.3°C | 4.4% | 54.3hPa | 2.6V | 00:00:00 | 01:27:18 | 00:00:00 | |
| DO3MHA-12 | 2026-09-01 23:56:12 | 48.83320 | 10.03773 | 16° | 16km/h | 20471m | 4.0m/s | -54.3°C | 4.4% | 54.4hPa | 2.6V | 00:00:00 | 01:27:17 | 08:30:00 | |
| OE5DXL-15 | 2026-09-01 23:56:11 | 48.83316 | 10.03772 | 8° | 15km/h | 20466m | 5.6m/s | -54.3°C | 4.4% | 54.4hPa | 2.7V | 00:00:00 | 00:00:00 | 08:30:00 | |
| DO3MHA-11 | 2026-09-01 23:56:10 | 48.83312 | 10.03771 | 3° | 16km/h | 20461m | 4.8m/s | -54.3°C | 4.4% | 54.5hPa | 2.7V | 00:00:00 | 01:27:15 | 00:00:00 | |
| SONCRA | 2026-09-01 23:56:08 | 48.83299 | 10.03766 | 32° | 18km/h | 20446m | 4.4m/s | -54.4°C | 1.2% | 54.6hPa | 2.7V | 00:00:00 | 00:00:00 | 00:00:00 | |
| DG9SBQ-11 | 2026-09-01 23:56:07 | 48.83299 | 10.03766 | 34° | 18km/h | 20447m | 4.4m/s | -54.4°C | 1.2% | 54.6hPa | 2.7V | 00:00:00 | 00:00:00 | 00:00:00 | |
| SONDE2-11 | 2026-09-01 23:56:05 | 48.83288 | 10.03755 | 25° | 15km/h | 20432m | 4.9m/s | -54.4°C | 1.3% | 54.8hPa | 2.7V | 00:00:00 | 00:00:00 | 00:00:00 | |
| AM1SDL-15 | 2026-09-01 23:56:03 | 48.83284 | 10.03753 | 19° | 13km/h | 20427m | 4.0m/s | 0°C | 0% | 0hPa | 2.7V | 00:00:00 | 01:27:08 | 00:00:00 | |
| DM0DOS-11 | 2026-09-01 23:56:02 | 48.83274 | 10.03748 | 11° | 13km/h | 20414m | 3.9m/s | -54.7°C | 4.5% | 54.9hPa | 2.7V | 08:30:00 | 01:27:05 | 00:00:00 | |
| DK7TD | 2026-09-01 23:56:02 | 48.83281 | 10.03751 | 19° | 15km/h | 20423m | 4.7m/s | -54.5°C | 0.8% | 54.8hPa | 2.6V | 18:12:15 | 01:27:07 | 00:00:00 | |
| DO3MHA-12 | 2026-09-01 23:56:02 | 48.83281 | 10.03751 | 19° | 13km/h | 20423m | 4.6m/s | -54.5°C | 4.5% | 54.8hPa | 2.7V | 00:00:00 | 01:27:07 | 00:00:00 | |
| DO3MHA-11 | 2026-09-01 23:56:00 | 48.83274 | 10.03748 | 12° | 11km/h | 20414m | 3.8m/s | -54.7°C | 4.5% | 54.9hPa | 2.7V | 00:00:00 | 01:27:05 | 00:00:00 | |
| DN1GJH-1 | 2026-09-01 23:55:59 | 48.83274 | 10.03748 | 13° | 13km/h | 20414m | 3.9m/s | -54.7°C | 1.3% | 54.9hPa | 2.7V | 00:00:00 | 00:00:00 | 00:00:00 | |
| DM7RM-13 | 2026-09-01 23:55:58 | 48.83271 | 10.03748 | 359° | 15km/h | 20409m | 5.1m/s | -54.8°C | 1.3% | 54.9hPa | 2.7V | 00:00:00 | 00:00:00 | 00:00:00 | |
| DJ8HS-15 | 2026-09-01 23:55:57 | 48.83264 | 10.03751 | 336° | 11km/h | 20399m | 4.1m/s | -54.8°C | 4.6% | 55.0hPa | 2.7V | 00:00:00 | 01:27:02 | 00:00:00 | |
| NBG1-10 | 2026-09-01 23:55:55 | 48.83258 | 10.03754 | 349° | 9km/h | 20390m | 5.5m/s | -54.9°C | 4.7% | 55.1hPa | 2.7V | 00:00:00 | 01:27:00 | 00:00:00 | |
| DM0DOS-11 | 2026-09-01 23:55:54 | 48.83247 | 10.03751 | 27° | 9km/h | 20366m | 5.2m/s | -54.8°C | 4.6% | 55.3hPa | 2.7V | 08:30:00 | 01:26:55 | 00:00:00 | |
| DK7TD | 2026-09-01 23:55:51 | 48.83249 | 10.03752 | 18° | 9km/h | 20371m | 4.2m/s | -54.8°C | 0.9% | 55.3hPa | 2.6V | 18:12:15 | 01:26:56 | 00:00:00 | |
| DF7PN | 2026-09-01 23:55:49 | 48.83245 | 10.03749 | 34° | 9km/h | 20361m | 4.9m/s | -54.8°C | 1.3% | 55.4hPa | 2.7V | 00:00:00 | 00:00:00 | 00:00:00 | |
| DL6DJ-15 | 2026-09-01 23:55:48 | 48.83243 | 10.03747 | 25° | 11km/h | 20356m | 4.1m/s | -54.8°C | 1.3% | 55.4hPa | 2.7V | 00:00:00 | 00:00:00 | 00:00:00 | |
| OE3JTB-15 | 2026-09-01 23:55:46 | 48.83237 | 10.03746 | 353° | 11km/h | 20347m | 5.6m/s | -54.6°C | 4.5% | 55.4hPa | 2.7V | 00:00:00 | 00:00:00 | 00:00:00 | |
| OE5DRO-10 | 2026-09-01 23:55:43 | 48.83225 | 10.03752 | 341° | 7km/h | 20334m | 5.1m/s | -54.6°C | 4.5% | 55.5hPa | 2.7V | 00:00:00 | 00:00:00 | 00:00:00 | |
| DM0DOS-11 | 2026-09-01 23:55:42 | 48.83218 | 10.03753 | 19° | 4km/h | 20319m | 4.7m/s | -54.6°C | 4.5% | 55.7hPa | 2.6V | 08:30:00 | 01:26:45 | 00:00:00 | |
| DK7TD | 2026-09-01 23:55:41 | 48.83220 | 10.03754 | 2° | 7km/h | 20324m | 4.4m/s | -54.6°C | 0.9% | 55.7hPa | 2.6V | 18:12:15 | 01:26:46 | 00:00:00 | |
| OE5DXL-15 | 2026-09-01 23:55:41 | 48.83219 | 10.03753 | 2° | 5km/h | 20324m | 4.4m/s | -54.5°C | 4.5% | 55.6hPa | 2.7V | 00:00:00 | 00:00:00 | 00:00:00 | |
| DO3MHA-11 | 2026-09-01 23:55:40 | 48.83218 | 10.03753 | 20° | 7km/h | 20319m | 4.7m/s | -54.5°C | 4.5% | 55.7hPa | 2.7V | 00:00:00 | 01:26:45 | 00:00:00 | |
| AM1SDL-15 | 2026-09-01 23:55:38 | 48.83217 | 10.03752 | 45° | 7km/h | 20310m | 3.7m/s | 0°C | 0% | 0hPa | 2.7V | 00:00:00 | 01:26:43 | 00:00:00 | |
| DJ8HS-15 | 2026-09-01 23:55:37 | 48.83216 | 10.03751 | 42° | 5km/h | 20306m | 3.9m/s | -54.7°C | 4.6% | 55.8hPa | 2.7V | 00:00:00 | 01:26:42 | 00:00:00 | |
| DG9SBQ-11 | 2026-09-01 23:55:36 | 48.83216 | 10.03751 | 43° | 5km/h | 20306m | 4.0m/s | -54.7°C | 1.3% | 55.9hPa | 2.7V | 00:00:00 | 00:00:00 | 00:00:00 | |
| DF3TZ-5 | 2026-09-01 23:55:34 | 48.83210 | 10.03741 | 47° | 9km/h | 20288m | 5.6m/s | -54.7°C | 1.3% | 56.0hPa | 2.7V | 00:00:00 | 00:00:00 | 00:00:00 | |
| PG1ADW-2 | 2026-09-01 23:55:33 | 48.83210 | 10.03741 | 48° | 5km/h | 20288m | 5.6m/s | -54.7°C | 4.6% | 56.0hPa | 2.7V | 00:00:00 | 00:00:00 | 08:30:00 | |
| DM0DOS-11 | 2026-09-01 23:55:32 | 48.83206 | 10.03736 | 26° | 7km/h | 20274m | 5m/s | -54.7°C | 4.7% | 56.1hPa | 2.6V | 08:30:00 | 01:26:35 | 00:00:00 | |
| DK7TD | 2026-09-01 23:55:30 | 48.83206 | 10.03736 | 26° | 7km/h | 20274m | 5m/s | -54.7°C | 1% | 56.1hPa | 2.6V | 18:12:15 | 01:26:35 | 00:00:00 | |
| DO3MHA-11 | 2026-09-01 23:55:30 | 48.83206 | 10.03736 | 27° | 5km/h | 20274m | 5.0m/s | -54.6°C | 4.7% | 56.1hPa | 2.6V | 00:00:00 | 01:26:35 | 00:00:00 | |
| DG9SBQ-11 | 2026-09-01 23:55:26 | 48.83200 | 10.03731 | 64° | 4km/h | 20256m | 5.3m/s | -54.6°C | 1.3% | 56.3hPa | 2.6V | 00:00:00 | 00:00:00 | 00:00:00 | |
| OE5DRO-10 | 2026-09-01 23:55:24 | 48.83200 | 10.03729 | 112° | 7km/h | 20246m | 4.8m/s | -54.5°C | 4.6% | 56.3hPa | 2.6V | 00:00:00 | 00:00:00 | 00:00:00 | |
| DM0DOS-11 | 2026-09-01 23:55:22 | 48.83200 | 10.03721 | 99° | 5km/h | 20227m | 5.5m/s | -54.5°C | 4.5% | 56.5hPa | 2.6V | 08:30:00 | 01:26:25 | 00:00:00 | |
| DK7TD | 2026-09-01 23:55:19 | 48.83200 | 10.03719 | 110° | 5km/h | 20222m | 4.9m/s | -54.5°C | 0.9% | 56.6hPa | 2.6V | 18:12:15 | 01:26:24 | 00:00:00 | |
| DF7PN | 2026-09-01 23:55:18 | 48.83201 | 10.03718 | 91° | 4km/h | 20217m | 4.9m/s | -54.6°C | 1.3% | 56.6hPa | 2.7V | 00:00:00 | 00:00:00 | 00:00:00 | |
| DJ8HS-15 | 2026-09-01 23:55:17 | 48.83200 | 10.03716 | 63° | 13km/h | 20213m | 5.3m/s | -54.7°C | 4.6% | 56.6hPa | 2.7V | 00:00:00 | 01:26:22 | 00:00:00 | |
| AM1SDL-15 | 2026-09-01 23:55:14 | 48.83199 | 10.03709 | 96° | 13km/h | 20199m | 5.4m/s | 0°C | 0% | 0hPa | 2.6V | 00:00:00 | 01:26:19 | 00:00:00 | |
| DK5PH-5 | 2026-09-01 23:55:13 | 48.83199 | 10.03706 | 107° | 16km/h | 20194m | 4.2m/s | -54.7°C | 4.6% | 56.8hPa | 2.6V | 00:00:00 | 01:26:18 | 00:00:00 | |
| DM0DOS-11 | 2026-09-01 23:55:12 | 48.83200 | 10.03695 | 96° | 11km/h | 20180m | 4.1m/s | -54.6°C | 4.6% | 57hPa | 2.6V | 08:30:00 | 01:26:15 | 00:00:00 | |
| DK7TD | 2026-09-01 23:55:09 | 48.83201 | 10.03691 | 109° | 11km/h | 20175m | 4.6m/s | -54.6°C | 0.9% | 57hPa | 2.6V | 18:12:15 | 01:26:14 | 00:00:00 | |
| DG9SBQ-11 | 2026-09-01 23:55:09 | 48.83201 | 10.03691 | 110° | 11km/h | 20175m | 4.6m/s | -54.6°C | 1.3% | 57.0hPa | 2.6V | 00:00:00 | 00:00:00 | 00:00:00 | |
| OE9MKV-15 | 2026-09-01 23:55:07 | 48.83204 | 10.03682 | 122° | 16km/h | 20165m | 4.7m/s | -54.5°C | 4.5% | 57.1hPa | 2.6V | 00:00:00 | 01:26:12 | 00:00:00 | |
| SONCRA | 2026-09-01 23:55:06 | 48.83208 | 10.03672 | 110° | 15km/h | 20155m | 5.9m/s | -54.4°C | 1.3% | 57.2hPa | 2.6V | 00:00:00 | 00:00:00 | 00:00:00 | |
| OE5DRO-10 | 2026-09-01 23:55:05 | 48.83208 | 10.03671 | 111° | 16km/h | 20155m | 5.8m/s | -54.4°C | 4.6% | 57.1hPa | 2.6V | 00:00:00 | 00:00:00 | 00:00:00 | |
| DM0DOS-11 | 2026-09-01 23:55:03 | 48.83215 | 10.03643 | 112° | 15km/h | 20130m | 5.8m/s | -54.3°C | 4.5% | 57.4hPa | 2.6V | 08:30:00 | 01:26:05 | 00:00:00 | |
| DO3MHA-12 | 2026-09-01 23:55:02 | 48.83212 | 10.03654 | 116° | 16km/h | 20140m | 5.6m/s | -54.3°C | 4.5% | 57.3hPa | 2.6V | 00:00:00 | 01:26:07 | 00:00:00 | |
| IW2NTF | 2026-09-01 23:55:01 | 48.83218 | 10.03633 | 115° | 15km/h | 20120m | 4.6m/s | -54.2°C | 0% | 57.5hPa | 2.6V | 00:00:00 | 01:26:03 | 00:00:00 | |
| DK7TD | 2026-09-01 23:54:59 | 48.83217 | 10.03638 | 111° | 15km/h | 20125m | 5m/s | -54.2°C | 0.9% | 57.4hPa | 2.6V | 18:12:15 | 01:26:04 | 00:00:00 | |
| DJ8HS-15 | 2026-09-01 23:54:57 | 48.83220 | 10.03628 | 125° | 16km/h | 20115m | 5.5m/s | -54.1°C | 4.5% | 57.5hPa | 2.6V | 00:00:00 | 01:26:02 | 00:00:00 | |
| DM7RM-13 | 2026-09-01 23:54:56 | 48.83220 | 10.03628 | 125° | 15km/h | 20115m | 5.6m/s | -54.2°C | 1.3% | 57.5hPa | 2.6V | 00:00:00 | 00:00:00 | 00:00:00 | |
| DM0DOS-11 | 2026-09-01 23:54:52 | 48.83237 | 10.03564 | 105° | 18km/h | 20068m | 4.4m/s | -54.2°C | 4.5% | 58hPa | 2.6V | 08:30:00 | 01:25:52 | 00:00:00 | |
| DK7TD | 2026-09-01 23:54:49 | 48.83235 | 10.03578 | 112° | 20km/h | 20077m | 4m/s | -54.2°C | 0.9% | 57.9hPa | 2.6V | 18:12:15 | 01:25:54 | 00:00:00 | |
| OE5WHR-10 | 2026-09-01 23:54:49 | 48.83234 | 10.03578 | 113° | 16km/h | 20078m | 3.9m/s | -54.2°C | 4.5% | 57.8hPa | 2.6V | 00:00:00 | 00:00:00 | 08:30:00 | |
| DO9HM | 2026-09-01 23:54:48 | 48.83234 | 10.03578 | 113° | 20km/h | 20078m | 4.0m/s | -54.2°C | 1.3% | 57.9hPa | 2.7V | 00:00:00 | 00:00:00 | 00:00:00 | |
| IW2NTF | 2026-09-01 23:54:47 | 48.83239 | 10.03557 | 109° | 18km/h | 20063m | 4.3m/s | -54.2°C | 0% | 58hPa | 2.7V | 00:00:00 | 01:25:51 | 00:00:00 | |
| DF7PN | 2026-09-01 23:54:47 | 48.83238 | 10.03564 | 105° | 18km/h | 20068m | 4.4m/s | -54.2°C | 1.3% | 58.0hPa | 2.7V | 00:00:00 | 00:00:00 | 00:00:00 | |
| OE5DRO-10 | 2026-09-01 23:54:46 | 48.83239 | 10.03557 | 110° | 15km/h | 20064m | 4.2m/s | -54.1°C | 4.4% | 57.9hPa | 2.7V | 00:00:00 | 00:00:00 | 08:30:00 | |
| DK5PH-5 | 2026-09-01 23:54:43 | 48.83245 | 10.03540 | 118° | 16km/h | 20049m | 5.2m/s | -54.0°C | 4.4% | 58.1hPa | 2.6V | 00:00:00 | 01:25:48 | 00:00:00 | |
| DM0DOS-11 | 2026-09-01 23:54:42 | 48.83255 | 10.03511 | 119° | 16km/h | 20021m | 4.2m/s | -53.9°C | 4.3% | 58.4hPa | 2.6V | 08:30:00 | 01:25:42 | 00:00:00 | |
| DO3MHA-12 | 2026-09-01 23:54:42 | 48.83246 | 10.03535 | 111° | 16km/h | 20044m | 4.8m/s | -54.0°C | 4.4% | 58.1hPa | 2.6V | 00:00:00 | 01:25:47 | 08:30:00 | |
| OE5DXL-15 | 2026-09-01 23:54:41 | 48.83247 | 10.03530 | 110° | 16km/h | 20040m | 4.0m/s | -54.0°C | 4.4% | 58.2hPa | 2.6V | 00:00:00 | 00:00:00 | 00:00:00 | |
| IW2NTF | 2026-09-01 23:54:40 | 48.83257 | 10.03505 | 111° | 18km/h | 20016m | 5.6m/s | -53.9°C | 0% | 58.4hPa | 2.6V | 00:00:00 | 01:25:41 | 00:00:00 | |
| DK7TD | 2026-09-01 23:54:39 | 48.83250 | 10.03521 | 121° | 15km/h | 20030m | 5.5m/s | -53.9°C | 0.8% | 58.3hPa | 2.7V | 18:12:15 | 01:25:44 | 00:00:00 | |
| OE9MKV-15 | 2026-09-01 23:54:37 | 48.83255 | 10.03511 | 120° | 16km/h | 20021m | 4.1m/s | -53.9°C | 4.3% | 58.3hPa | 2.6V | 00:00:00 | 01:25:42 | 08:30:00 | |
| DG9SBQ-11 | 2026-09-01 23:54:36 | 48.83255 | 10.03511 | 121° | 16km/h | 20021m | 4.2m/s | -53.9°C | 1.2% | 58.4hPa | 2.6V | 00:00:00 | 00:00:00 | 00:00:00 | |
| SONCRA | 2026-09-01 23:54:35 | 48.83259 | 10.03491 | 107° | 20km/h | 20006m | 4.4m/s | -53.9°C | 1.2% | 58.5hPa | 2.6V | 00:00:00 | 00:00:00 | 00:00:00 | |
| DM0DOS-11 | 2026-09-01 23:54:32 | 48.83271 | 10.03460 | 158° | 5km/h | 19974m | 5m/s | -54.2°C | 4.3% | 58.8hPa | 2.6V | 08:30:00 | 01:25:32 | 00:00:00 | |
| DK7TD | 2026-09-01 23:54:29 | 48.83269 | 10.03462 | 127° | 5km/h | 19978m | 4.3m/s | -54.1°C | 0.7% | 58.8hPa | 2.6V | 18:12:15 | 01:25:33 | 00:00:00 | |
| DO9HM | 2026-09-01 23:54:28 | 48.83269 | 10.03462 | 128° | 5km/h | 19979m | 4.3m/s | -54.1°C | 1.2% | 58.8hPa | 2.6V | 00:00:00 | 00:00:00 | 00:00:00 | |
| IW2NTF | 2026-09-01 23:54:27 | 48.83272 | 10.03460 | 175° | 9km/h | 19969m | 5.3m/s | -54.4°C | 0% | 58.9hPa | 2.6V | 00:00:00 | 01:25:31 | 00:00:00 | |
| OE5DRO-10 | 2026-09-01 23:54:27 | 48.83270 | 10.03460 | 159° | 16km/h | 19974m | 5.0m/s | -54.2°C | 4.3% | 58.8hPa | 2.6V | 00:00:00 | 00:00:00 | 00:00:00 | |
| DG9SBQ-11 | 2026-09-01 23:54:25 | 48.83272 | 10.03460 | 176° | 9km/h | 19969m | 5.3m/s | -54.4°C | 1.2% | 58.9hPa | 2.6V | 00:00:00 | 00:00:00 | 00:00:00 | |
| DM0DOS-11 | 2026-09-01 23:54:22 | 48.83300 | 10.03421 | 122° | 22km/h | 19927m | 5.4m/s | -54.6°C | 4.5% | 59.2hPa | 2.6V | 08:30:00 | 01:25:22 | 00:00:00 | |
| DO3MHA-12 | 2026-09-01 23:54:22 | 48.83282 | 10.03454 | 134° | 20km/h | 19951m | 4.3m/s | -54.5°C | 4.5% | 59.0hPa | 2.6V | 00:00:00 | 01:25:27 | 00:00:00 | |
| DB0NH | 2026-09-01 23:54:21 | 48.83285 | 10.03449 | 132° | 20km/h | 19946m | 4.9m/s | -54.5°C | 4.5% | 59.0hPa | 2.6V | 00:00:00 | 01:25:26 | 00:00:00 | |
| DO3MHA-11 | 2026-09-01 23:54:20 | 48.83288 | 10.03443 | 132° | 20km/h | 19941m | 5.4m/s | -54.5°C | 4.5% | 59.0hPa | 2.6V | 00:00:00 | 01:25:25 | 00:00:00 | |
| IW2NTF | 2026-09-01 23:54:19 | 48.83303 | 10.03414 | 117° | 20km/h | 19922m | 3.9m/s | -54.6°C | 0% | 59.3hPa | 2.6V | 00:00:00 | 01:25:21 | 00:00:00 | |
| DK7TD | 2026-09-01 23:54:18 | 48.83297 | 10.03429 | 128° | 24km/h | 19932m | 4.1m/s | -54.6°C | 0.9% | 59.2hPa | 2.7V | 18:12:15 | 01:25:23 | 00:00:00 | |
| DN1GJH-1 | 2026-09-01 23:54:17 | 48.83297 | 10.03429 | 129° | 24km/h | 19932m | 4.1m/s | -54.6°C | 1.3% | 59.2hPa | 2.7V | 00:00:00 | 00:00:00 | 00:00:00 | |
| NBG1-10 | 2026-09-01 23:54:16 | 48.83303 | 10.03414 | 118° | 20km/h | 19922m | 3.8m/s | -54.5°C | 4.5% | 59.2hPa | 2.7V | 00:00:00 | 01:25:21 | 00:00:00 | |
| DL6DJ-15 | 2026-09-01 23:54:15 | 48.83305 | 10.03408 | 119° | 18km/h | 19918m | 4.4m/s | -54.6°C | 1.3% | 59.3hPa | 2.7V | 00:00:00 | 00:00:00 | 00:00:00 | |
| OE3JTB-15 | 2026-09-01 23:54:14 | 48.83308 | 10.03401 | 125° | 20km/h | 19913m | 5.1m/s | -54.6°C | 4.5% | 59.3hPa | 2.7V | 00:00:00 | 00:00:00 | 00:00:00 | |
| DK5PH-5 | 2026-09-01 23:54:13 | 48.83311 | 10.03395 | 130° | 20km/h | 19909m | 4.4m/s | -54.6°C | 4.5% | 59.4hPa | 2.7V | 00:00:00 | 01:25:18 | 00:00:00 | |
| DM0DOS-11 | 2026-09-01 23:54:12 | 48.83322 | 10.03364 | 108° | 20km/h | 19881m | 5.5m/s | -54.9°C | 4.6% | 59.7hPa | 2.7V | 08:30:00 | 01:25:12 | 00:00:00 | |
| DO3MHA-12 | 2026-09-01 23:54:12 | 48.83314 | 10.03390 | 132° | 18km/h | 19904m | 4.0m/s | -54.6°C | 4.5% | 59.4hPa | 2.6V | 00:00:00 | 01:25:17 | 00:00:00 | |
| OE5DXL-15 | 2026-09-01 23:54:11 | 48.83316 | 10.03385 | 128° | 20km/h | 19900m | 4.8m/s | -54.7°C | 4.5% | 59.5hPa | 2.6V | 00:00:00 | 00:00:00 | 00:00:00 | |
| DO3MHA-11 | 2026-09-01 23:54:10 | 48.83318 | 10.03380 | 118° | 20km/h | 19895m | 5.3m/s | -54.7°C | 4.6% | 59.5hPa | 2.6V | 00:00:00 | 01:25:15 | 00:00:00 | |
| OE5DRO-10 | 2026-09-01 23:54:08 | 48.83321 | 10.03370 | 105° | 20km/h | 19886m | 3.7m/s | -54.8°C | 4.6% | 59.6hPa | 2.6V | 00:00:00 | 00:00:00 | 00:00:00 | |
| IW2NTF | 2026-09-01 23:54:07 | 48.83324 | 10.03356 | 111° | 24km/h | 19876m | 4.2m/s | -54.9°C | 0% | 59.7hPa | 2.6V | 00:00:00 | 01:25:11 | 00:00:00 | |
| DK7TD | 2026-09-01 23:54:07 | 48.83322 | 10.03364 | 108° | 20km/h | 19881m | 5.5m/s | -54.9°C | 0.9% | 59.7hPa | 2.7V | 18:12:15 | 01:25:12 | 00:00:00 | |
| OE5WHR-10 | 2026-09-01 23:54:07 | 48.83322 | 10.03364 | 109° | 22km/h | 19881m | 5.4m/s | -54.8°C | 4.6% | 59.6hPa | 2.7V | 00:00:00 | 01:25:12 | 00:00:00 | |
| DO9HM | 2026-09-01 23:54:06 | 48.83322 | 10.03364 | 109° | 20km/h | 19881m | 5.5m/s | -54.9°C | 1.3% | 59.7hPa | 2.7V | 00:00:00 | 00:00:00 | 00:00:00 | |
| AM1SDL-15 | 2026-09-01 23:54:05 | 48.83326 | 10.03348 | 110° | 20km/h | 19872m | 4.3m/s | 0°C | 0% | 0hPa | 2.7V | 00:00:00 | 01:25:10 | 00:00:00 | |
| SONCRA | 2026-09-01 23:54:03 | 48.83329 | 10.03330 | 104° | 24km/h | 19862m | 4.6m/s | -54.8°C | 1.3% | 59.9hPa | 2.7V | 00:00:00 | 00:00:00 | 00:00:00 | |
| DM0DOS-11 | 2026-09-01 23:54:02 | 48.83340 | 10.03285 | 96° | 11km/h | 19832m | 4.9m/s | -54.7°C | 4.5% | 60.1hPa | 2.7V | 08:30:00 | 01:25:02 | 00:00:00 | |
| DF3TZ-5 | 2026-09-01 23:54:01 | 48.83335 | 10.03304 | 113° | 22km/h | 19847m | 4.5m/s | -54.7°C | 1.3% | 60.0hPa | 2.6V | 00:00:00 | 00:00:00 | 00:00:00 | |
| DO3MHA-11 | 2026-09-01 23:54:00 | 48.83335 | 10.03304 | 114° | 18km/h | 19847m | 4.5m/s | -54.7°C | 4.5% | 59.9hPa | 2.6V | 00:00:00 | 01:25:05 | 00:00:00 | |
| IW2NTF | 2026-09-01 23:53:59 | 48.83339 | 10.03278 | 81° | 11km/h | 19824m | 4.9m/s | -54.8°C | 0% | 60.2hPa | 2.6V | 00:00:00 | 01:25:00 | 00:00:00 | |
| DK7TD | 2026-09-01 23:53:56 | 48.83340 | 10.03282 | 84° | 9km/h | 19828m | 3.9m/s | -54.7°C | 0.9% | 60.2hPa | 2.6V | 18:12:15 | 01:25:01 | 00:00:00 | |
| DM7RM-13 | 2026-09-01 23:53:55 | 48.83340 | 10.03281 | 85° | 9km/h | 19828m | 3.9m/s | -54.7°C | 1.3% | 60.2hPa | 2.6V | 00:00:00 | 00:00:00 | 00:00:00 | |
| DO3MHA-12 | 2026-09-01 23:53:52 | 48.83339 | 10.03257 | 92° | 26km/h | 19810m | 4.0m/s | -54.7°C | 4.5% | 60.3hPa | 2.6V | 00:00:00 | 01:24:57 | 00:00:00 | |
| DB0NH | 2026-09-01 23:53:51 | 48.83339 | 10.03247 | 90° | 27km/h | 19805m | 5.5m/s | -54.7°C | 4.5% | 60.3hPa | 2.6V | 00:00:00 | 01:24:56 | 00:00:00 | |
| DM0DOS-11 | 2026-09-01 23:53:50 | 48.83342 | 10.03202 | 102° | 29km/h | 19785m | 3.6m/s | -54.7°C | 4.5% | 60.6hPa | 2.7V | 08:30:00 | 01:24:52 | 00:00:00 | |
| PG1ADW-2 | 2026-09-01 23:53:50 | 48.83339 | 10.03236 | 91° | 27km/h | 19800m | 4.8m/s | -54.7°C | 4.5% | 60.4hPa | 2.6V | 00:00:00 | 00:00:00 | 00:00:00 | |
| OE5DRO-10 | 2026-09-01 23:53:49 | 48.83340 | 10.03225 | 94° | 29km/h | 19795m | 5.0m/s | -54.7°C | 4.5% | 60.4hPa | 2.6V | 00:00:00 | 00:00:00 | 00:00:00 | |
| IW2NTF | 2026-09-01 23:53:47 | 48.83345 | 10.03182 | 97° | 24km/h | 19777m | 5.5m/s | -54.7°C | 0% | 60.6hPa | 2.6V | 00:00:00 | 01:24:50 | 00:00:00 | |
| DK7TD | 2026-09-01 23:53:46 | 48.83343 | 10.03191 | 103° | 27km/h | 19782m | 3.4m/s | -54.7°C | 0.9% | 60.6hPa | 2.7V | 18:12:15 | 01:24:51 | 00:00:00 | |
| DF7PN | 2026-09-01 23:53:45 | 48.83345 | 10.03182 | 97° | 24km/h | 19777m | 5.5m/s | -54.7°C | 1.3% | 60.6hPa | 2.7V | 00:00:00 | 00:00:00 | 00:00:00 | |
| DL6DJ-15 | 2026-09-01 23:53:44 | 48.83345 | 10.03173 | 89° | 20km/h | 19772m | 5.0m/s | -54.8°C | 1.3% | 60.7hPa | 2.7V | 00:00:00 | 00:00:00 | 00:00:00 | |
| DK5PH-5 | 2026-09-01 23:53:43 | 48.83345 | 10.03166 | 83° | 27km/h | 19767m | 4.6m/s | -54.8°C | 4.5% | 60.7hPa | 2.7V | 00:00:00 | 01:24:48 | 00:00:00 | |
| DM0DOS-11 | 2026-09-01 23:53:42 | 48.83342 | 10.03114 | 87° | 29km/h | 19737m | 4.5m/s | -55.2°C | 4.8% | 61hPa | 2.7V | 08:30:00 | 01:24:42 | 00:00:00 | |
| DK7TD | 2026-09-01 23:53:35 | 48.83343 | 10.03090 | 93° | 35km/h | 19727m | 4.1m/s | -55.1°C | 1% | 61.1hPa | 2.6V | 18:12:15 | 01:24:40 | 00:00:00 | |
| AM1SDL-15 | 2026-09-01 23:53:34 | 48.83343 | 10.03077 | 91° | 31km/h | 19723m | 3.6m/s | 0°C | 0% | 0hPa | 2.6V | 00:00:00 | 01:24:39 | 00:00:00 | |
| DM0DOS-11 | 2026-09-01 23:53:32 | 48.83332 | 10.02999 | 77° | 29km/h | 19689m | 4.9m/s | -54.8°C | 4.6% | 61.5hPa | 2.6V | 08:30:00 | 01:24:32 | 00:00:00 | |
| DK7TD | 2026-09-01 23:53:24 | 48.83328 | 10.02966 | 81° | 31km/h | 19675m | 5m/s | -54.7°C | 0.9% | 61.6hPa | 2.6V | 18:12:15 | 01:24:29 | 00:00:00 | |
| DM0DOS-11 | 2026-09-01 23:53:22 | 48.83319 | 10.02889 | 81° | 29km/h | 19641m | 4.6m/s | -54.5°C | 4.6% | 62hPa | 2.6V | 08:30:00 | 01:24:22 | 00:00:00 | |
| DO3MHA-12 | 2026-09-01 23:53:22 | 48.83326 | 10.02942 | 85° | 29km/h | 19666m | 3.9m/s | -54.6°C | 4.6% | 61.7hPa | 2.7V | 00:00:00 | 01:24:27 | 00:00:00 | |
| DB0NH | 2026-09-01 23:53:21 | 48.83325 | 10.02931 | 81° | 26km/h | 19661m | 5.6m/s | -54.6°C | 4.6% | 61.7hPa | 2.7V | 00:00:00 | 01:24:26 | 00:00:00 | |
| DO3MHA-11 | 2026-09-01 23:53:20 | 48.83323 | 10.02920 | 78° | 29km/h | 19656m | 4.5m/s | -54.6°C | 4.6% | 61.8hPa | 2.7V | 00:00:00 | 01:24:25 | 08:30:00 | |
| DG9SBQ-11 | 2026-09-01 23:53:19 | 48.83324 | 10.02920 | 78° | 27km/h | 19656m | 4.5m/s | -54.6°C | 1.3% | 61.8hPa | 2.7V | 00:00:00 | 00:00:00 | 00:00:00 | |
| DF1GD-15 | 2026-09-01 23:53:18 | 48.83322 | 10.02910 | 78° | 27km/h | 19652m | 4.5m/s | -54.6°C | 1.3% | 61.9hPa | 2.7V | 00:00:00 | 00:00:00 | 00:00:00 | |
| IW2NTF | 2026-09-01 23:53:17 | 48.83317 | 10.02866 | 78° | 29km/h | 19632m | 5.4m/s | -54.5°C | 0% | 62hPa | 2.7V | 00:00:00 | 01:24:20 | 00:00:00 | |
| DK7TD | 2026-09-01 23:53:14 | 48.83315 | 10.02855 | 74° | 29km/h | 19626m | 5.1m/s | -54.5°C | 0.9% | 62.1hPa | 2.7V | 18:12:15 | 01:24:19 | 00:00:00 | |
| DF7PN | 2026-09-01 23:53:14 | 48.83315 | 10.02855 | 74° | 27km/h | 19626m | 5.1m/s | -54.5°C | 1.3% | 62.1hPa | 2.6V | 00:00:00 | 00:00:00 | 00:00:00 | |
| DK5PH-5 | 2026-09-01 23:53:13 | 48.83313 | 10.02845 | 75° | 22km/h | 19622m | 4.2m/s | -54.4°C | 4.6% | 62.1hPa | 2.6V | 00:00:00 | 01:24:18 | 00:00:00 | |
| DM0DOS-11 | 2026-09-01 23:53:12 | 48.83313 | 10.02786 | 97° | 22km/h | 19592m | 4.3m/s | -54.2°C | 4.6% | 62.4hPa | 2.6V | 08:30:00 | 01:24:12 | 00:00:00 | |
| DO3MHA-12 | 2026-09-01 23:53:12 | 48.83312 | 10.02835 | 80° | 24km/h | 19617m | 5.0m/s | -54.4°C | 4.6% | 62.1hPa | 2.6V | 00:00:00 | 01:24:17 | 08:30:00 | |
| IW2NTF | 2026-09-01 23:53:11 | 48.83315 | 10.02769 | 97° | 24km/h | 19582m | 5.6m/s | 0°C | 0% | 0hPa | 2.7V | 00:00:00 | 01:24:10 | 00:00:00 | |
| DK7TD | 2026-09-01 23:53:04 | 48.83315 | 10.02760 | 95° | 24km/h | 19577m | 4.5m/s | -54.1°C | 0.9% | 62.6hPa | 2.7V | 18:12:15 | 01:24:09 | 00:00:00 | |
| OE5WHR-10 | 2026-09-01 23:53:04 | 48.83315 | 10.02760 | 96° | 18km/h | 19577m | 4.4m/s | -54.1°C | 4.5% | 62.6hPa | 2.6V | 00:00:00 | 01:24:09 | 00:00:00 | |
| DH7VM-15 | 2026-09-01 23:53:03 | 48.83315 | 10.02760 | 96° | 24km/h | 19577m | 4.5m/s | -54.1°C | 1.3% | 62.6hPa | 2.6V | 00:00:00 | 00:00:00 | 00:00:00 | |
| DM0DOS-11 | 2026-09-01 23:53:02 | 48.83315 | 10.02694 | 95° | 26km/h | 19543m | 5.4m/s | -53.8°C | 4.5% | 62.9hPa | 2.6V | 08:30:00 | 01:24:02 | 00:00:00 | |
| DO3MHA-12 | 2026-09-01 23:53:02 | 48.83315 | 10.02742 | 86° | 24km/h | 19567m | 5.1m/s | -54.0°C | 4.5% | 62.6hPa | 2.7V | 00:00:00 | 01:24:07 | 00:00:00 | |
| SONCRA | 2026-09-01 23:53:01 | 48.83315 | 10.02734 | 83° | 22km/h | 19562m | 4.1m/s | -54.0°C | 1.3% | 62.7hPa | 2.7V | 00:00:00 | 00:00:00 | 00:00:00 | |
| DF3TZ-5 | 2026-09-01 23:52:58 | 48.83314 | 10.02704 | 92° | 27km/h | 19547m | 4.2m/s | -53.9°C | 1.2% | 62.9hPa | 2.7V | 00:00:00 | 00:00:00 | 00:00:00 | |
| DJ8HS-15 | 2026-09-01 23:52:57 | 48.83314 | 10.02694 | 96° | 20km/h | 19543m | 5.4m/s | -53.8°C | 4.5% | 62.9hPa | 2.7V | 00:00:00 | 01:24:02 | 00:00:00 | |
| DG9SBQ-11 | 2026-09-01 23:52:56 | 48.83314 | 10.02694 | 96° | 26km/h | 19543m | 5.4m/s | -53.8°C | 1.3% | 62.9hPa | 2.7V | 00:00:00 | 00:00:00 | 00:00:00 | |
| IW2NTF | 2026-09-01 23:52:55 | 48.83320 | 10.02662 | 114° | 20km/h | 19522m | 4.8m/s | 0°C | 0% | 0hPa | 2.7V | 00:00:00 | 01:23:58 | 00:00:00 | |
| DK7TD | 2026-09-01 23:52:53 | 48.83320 | 10.02662 | 114° | 20km/h | 19522m | 4.8m/s | -53.7°C | 0.9% | 63.1hPa | 2.7V | 18:12:15 | 01:23:58 | 00:00:00 | |
| DO3MHA-12 | 2026-09-01 23:52:52 | 48.83322 | 10.02655 | 115° | 16km/h | 19518m | 3.6m/s | -53.6°C | 4.4% | 63.1hPa | 2.6V | 00:00:00 | 01:23:57 | 00:00:00 | |
| DB0NH | 2026-09-01 23:52:51 | 48.83323 | 10.02649 | 113° | 18km/h | 19515m | 4.2m/s | -53.6°C | 4.4% | 63.2hPa | 2.6V | 00:00:00 | 01:23:56 | 00:00:00 | |
| DO3MHA-11 | 2026-09-01 23:52:50 | 48.83325 | 10.02644 | 106° | 18km/h | 19510m | 5.5m/s | -53.5°C | 4.4% | 63.2hPa | 2.6V | 00:00:00 | 01:23:55 | 00:00:00 | |
| AZAK | 2026-09-01 23:52:47 | 48.83326 | 10.02630 | 100° | 15km/h | 19495m | 5.4m/s | -53.4°C | 1.3% | 63.4hPa | 2.7V | 00:00:00 | 00:00:00 | 00:00:00 | |
| DO9HM | 2026-09-01 23:52:45 | 48.83327 | 10.02616 | 97° | 20km/h | 19486m | 5.0m/s | -53.4°C | 1.3% | 63.5hPa | 2.7V | 00:00:00 | 00:00:00 | 00:00:00 | |
| IW2NTF | 2026-09-01 23:52:44 | 48.83328 | 10.02600 | 96° | 22km/h | 19475m | 4.1m/s | 0°C | 0% | 0hPa | 2.7V | 00:00:00 | 01:23:48 | 00:00:00 | |
| OE3JTB-15 | 2026-09-01 23:52:44 | 48.83328 | 10.02608 | 94° | 18km/h | 19480m | 5.4m/s | -53.3°C | 4.3% | 63.5hPa | 2.7V | 00:00:00 | 00:00:00 | 00:00:00 | |
| DM0DOS-11 | 2026-09-01 23:52:43 | 48.83335 | 10.02549 | 101° | 15km/h | 19446m | 3.9m/s | -53°C | 4.3% | 63.9hPa | 2.7V | 08:30:00 | 01:23:42 | 00:00:00 | |
| DK7TD | 2026-09-01 23:52:42 | 48.83329 | 10.02591 | 100° | 26km/h | 19471m | 5.4m/s | -53.3°C | 0.8% | 63.6hPa | 2.6V | 18:12:15 | 01:23:47 | 00:00:00 | |
| DO3MHA-12 | 2026-09-01 23:52:42 | 48.83329 | 10.02591 | 101° | 18km/h | 19471m | 5.4m/s | -53.2°C | 4.3% | 63.6hPa | 2.6V | 00:00:00 | 01:23:47 | 00:00:00 | |
| OE5DXL-15 | 2026-09-01 23:52:41 | 48.83330 | 10.02581 | 104° | 18km/h | 19465m | 5.4m/s | -53.2°C | 4.3% | 63.6hPa | 2.7V | 00:00:00 | 00:00:00 | 00:00:00 | |
| DO3MHA-11 | 2026-09-01 23:52:40 | 48.83332 | 10.02572 | 106° | 16km/h | 19461m | 3.7m/s | -53.1°C | 4.3% | 63.7hPa | 2.7V | 00:00:00 | 01:23:45 | 00:00:00 | |
| DG9SBQ-11 | 2026-09-01 23:52:38 | 48.83334 | 10.02563 | 104° | 22km/h | 19456m | 5.3m/s | -53.1°C | 1.2% | 63.8hPa | 2.7V | 00:00:00 | 00:00:00 | 00:00:00 | |
| DJ8HS-15 | 2026-09-01 23:52:37 | 48.83336 | 10.02549 | 102° | 16km/h | 19447m | 3.9m/s | -53.0°C | 4.3% | 63.8hPa | 2.7V | 00:00:00 | 01:23:42 | 00:00:00 | |
| DF1GD-15 | 2026-09-01 23:52:36 | 48.83335 | 10.02549 | 103° | 15km/h | 19447m | 3.9m/s | -53.1°C | 1.3% | 63.9hPa | 2.7V | 00:00:00 | 00:00:00 | 00:00:00 | |
| IW2NTF | 2026-09-01 23:52:34 | 48.83340 | 10.02531 | 111° | 13km/h | 19427m | 4.9m/s | 0°C | 0% | 0hPa | 2.7V | 00:00:00 | 01:23:38 | 00:00:00 | |
| DG9SBQ-11 | 2026-09-01 23:52:33 | 48.83339 | 10.02536 | 120° | 13km/h | 19432m | 4.2m/s | -52.9°C | 1.2% | 64.0hPa | 2.7V | 00:00:00 | 00:00:00 | 00:00:00 | |
| DM0DOS-11 | 2026-09-01 23:52:32 | 48.83348 | 10.02494 | 114° | 20km/h | 19398m | 4.7m/s | -52.8°C | 4.2% | 64.4hPa | 2.7V | 08:30:00 | 01:23:32 | 00:00:00 | |
| DK7TD | 2026-09-01 23:52:31 | 48.83342 | 10.02521 | 98° | 16km/h | 19417m | 4.4m/s | -52.8°C | 0.7% | 64.2hPa | 2.6V | 18:12:15 | 01:23:36 | 00:00:00 | |
| OE5DRO-10 | 2026-09-01 23:52:31 | 48.83342 | 10.02521 | 98° | 20km/h | 19418m | 4.4m/s | -52.8°C | 4.2% | 64.1hPa | 2.7V | 00:00:00 | 00:00:00 | 00:00:00 | |
| DO3MHA-11 | 2026-09-01 23:52:30 | 48.83343 | 10.02515 | 105° | 20km/h | 19412m | 5.6m/s | -52.8°C | 4.2% | 64.1hPa | 2.7V | 00:00:00 | 01:23:35 | 00:00:00 | |
| SONDE2-11 | 2026-09-01 23:52:28 | 48.83348 | 10.02494 | 114° | 20km/h | 19398m | 4.7m/s | -52.8°C | 1.2% | 64.4hPa | 2.7V | 00:00:00 | 00:00:00 | 00:00:00 | |
| AZAK | 2026-09-01 23:52:27 | 48.83350 | 10.02487 | 111° | 20km/h | 19393m | 6.1m/s | -52.8°C | 1.2% | 64.4hPa | 2.7V | 00:00:00 | 00:00:00 | 00:00:00 | |
| DO9HM | 2026-09-01 23:52:26 | 48.83352 | 10.02480 | 107° | 20km/h | 19387m | 4.8m/s | -52.8°C | 1.2% | 64.5hPa | 2.7V | 00:00:00 | 00:00:00 | 00:00:00 | |
| IW2NTF | 2026-09-01 23:52:24 | 48.83355 | 10.02464 | 110° | 22km/h | 19376m | 5.8m/s | 0°C | 0% | 0hPa | 2.7V | 00:00:00 | 01:23:28 | 00:00:00 | |
| DG9SBQ-11 | 2026-09-01 23:52:24 | 48.83354 | 10.02472 | 108° | 22km/h | 19382m | 5.4m/s | -52.9°C | 1.2% | 64.5hPa | 2.7V | 00:00:00 | 00:00:00 | 00:00:00 | |
| DM0DOS-11 | 2026-09-01 23:52:22 | 48.83367 | 10.02427 | 131° | 18km/h | 19347m | 5.8m/s | -53.2°C | 4.4% | 64.8hPa | 2.7V | 08:30:00 | 01:23:22 | 00:00:00 | |
| DK7TD | 2026-09-01 23:52:20 | 48.83361 | 10.02443 | 109° | 16km/h | 19360m | 5.2m/s | -53.2°C | 0.8% | 64.7hPa | 2.6V | 18:12:15 | 01:23:25 | 00:00:00 | |
| DO3MHA-11 | 2026-09-01 23:52:20 | 48.83361 | 10.02442 | 109° | 20km/h | 19361m | 5.1m/s | -53.1°C | 4.3% | 64.7hPa | 2.6V | 00:00:00 | 01:23:25 | 00:00:00 | |
| DJ8HS-15 | 2026-09-01 23:52:17 | 48.83367 | 10.02427 | 132° | 24km/h | 19347m | 5.8m/s | -53.2°C | 4.4% | 64.8hPa | 2.7V | 00:00:00 | 01:23:22 | 00:00:00 | |
| DF1GD-15 | 2026-09-01 23:52:16 | 48.83367 | 10.02427 | 133° | 18km/h | 19347m | 5.8m/s | -53.2°C | 1.3% | 64.8hPa | 2.6V | 00:00:00 | 00:00:00 | 00:00:00 | |
| OE3JTB-15 | 2026-09-01 23:52:15 | 48.83375 | 10.02415 | 143° | 24km/h | 19337m | 3.8m/s | -53.1°C | 4.4% | 64.9hPa | 2.6V | 00:00:00 | 01:23:20 | 00:00:00 | |
| IW2NTF | 2026-09-01 23:52:14 | 48.83385 | 10.02404 | 136° | 24km/h | 19327m | 5.5m/s | 0°C | 0% | 0hPa | 2.6V | 00:00:00 | 01:23:18 | 00:00:00 | |
| DK5PH-5 | 2026-09-01 23:52:13 | 48.83384 | 10.02403 | 137° | 24km/h | 19328m | 5.4m/s | -53.1°C | 4.3% | 65.0hPa | 2.7V | 00:00:00 | 01:23:18 | 00:00:00 | |
| DM0DOS-11 | 2026-09-01 23:52:12 | 48.83405 | 10.02359 | 122° | 24km/h | 19297m | 6m/s | -52.9°C | 4.3% | 65.4hPa | 2.7V | 08:30:00 | 01:23:12 | 00:00:00 | |
| DK7TD | 2026-09-01 23:52:09 | 48.83398 | 10.02375 | 121° | 26km/h | 19307m | 4.8m/s | -53°C | 0.8% | 65.3hPa | 2.6V | 18:12:15 | 01:23:14 | 00:00:00 | |
| IW2NTF | 2026-09-01 23:52:08 | 48.83420 | 10.02332 | 134° | 26km/h | 19278m | 4.4m/s | 0°C | 0% | 0hPa | 2.6V | 00:00:00 | 01:23:08 | 00:00:00 | |
| DG9SBQ-11 | 2026-09-01 23:52:07 | 48.83405 | 10.02358 | 124° | 24km/h | 19298m | 6.0m/s | -52.9°C | 1.2% | 65.4hPa | 2.6V | 00:00:00 | 00:00:00 | 00:00:00 | |
| AZAK | 2026-09-01 23:52:06 | 48.83408 | 10.02351 | 128° | 22km/h | 19293m | 4.6m/s | -52.9°C | 1.2% | 65.4hPa | 2.6V | 00:00:00 | 00:00:00 | 00:00:00 | |
| DO9HM | 2026-09-01 23:52:04 | 48.83416 | 10.02339 | 136° | 24km/h | 19283m | 5.5m/s | -52.9°C | 1.2% | 65.5hPa | 2.6V | 00:00:00 | 00:00:00 | 00:00:00 | |
| DM0DOS-11 | 2026-09-01 23:52:03 | 48.83441 | 10.02288 | 117° | 26km/h | 19249m | 4.4m/s | -52.7°C | 4.3% | 65.8hPa | 2.6V | 08:30:00 | 01:23:02 | 00:00:00 | |
| DK7TD | 2026-09-01 23:51:58 | 48.83438 | 10.02297 | 119° | 24km/h | 19254m | 5.4m/s | -52.8°C | 0.8% | 65.8hPa | 2.6V | 18:12:15 | 01:23:03 | 00:00:00 | |
| DJ8HS-15 | 2026-09-01 23:51:57 | 48.83441 | 10.02288 | 118° | 24km/h | 19249m | 4.3m/s | -52.7°C | 4.3% | 65.8hPa | 2.6V | 00:00:00 | 01:23:02 | 00:00:00 | |
| DF1GD-15 | 2026-09-01 23:51:56 | 48.83441 | 10.02288 | 119° | 26km/h | 19249m | 4.4m/s | -52.7°C | 1.2% | 65.9hPa | 2.6V | 00:00:00 | 00:00:00 | 00:00:00 | |
| DG9SBQ-11 | 2026-09-01 23:51:55 | 48.83444 | 10.02280 | 118° | 24km/h | 19245m | 4.6m/s | -52.7°C | 1.2% | 65.9hPa | 2.6V | 00:00:00 | 00:00:00 | 00:00:00 | |
| OE5DRO-10 | 2026-09-01 23:51:53 | 48.83451 | 10.02258 | 117° | 24km/h | 19230m | 3.8m/s | -52.5°C | 4.2% | 66.0hPa | 2.6V | 00:00:00 | 00:00:00 | 08:30:00 | |
| DO3MHA-12 | 2026-09-01 23:51:52 | 48.83454 | 10.02251 | 118° | 24km/h | 19226m | 5.7m/s | -52.5°C | 4.2% | 66.0hPa | 2.7V | 00:00:00 | 01:22:57 | 00:00:00 | |
| DM0DOS-11 | 2026-09-01 23:51:51 | 48.83469 | 10.02201 | 103° | 22km/h | 19197m | 4.6m/s | -52.4°C | 4.1% | 66.4hPa | 2.7V | 08:30:00 | 01:22:51 | 00:00:00 | |
| DK7TD | 2026-09-01 23:51:48 | 48.83465 | 10.02217 | 115° | 22km/h | 19205m | 5.1m/s | -52.5°C | 0.7% | 66.3hPa | 2.6V | 18:12:15 | 01:22:53 | 00:00:00 | |
| OE3JTB-15 | 2026-09-01 23:51:46 | 48.83469 | 10.02201 | 104° | 27km/h | 19197m | 4.6m/s | -52.3°C | 4.1% | 66.3hPa | 2.7V | 00:00:00 | 00:00:00 | 00:00:00 | |
| AZAK | 2026-09-01 23:51:45 | 48.83469 | 10.02201 | 105° | 22km/h | 19197m | 4.6m/s | -52.4°C | 1.2% | 66.4hPa | 2.6V | 00:00:00 | 00:00:00 | 00:00:00 | |
| DG9SBQ-11 | 2026-09-01 23:51:44 | 48.83470 | 10.02192 | 102° | 26km/h | 19192m | 5.6m/s | -52.4°C | 1.2% | 66.4hPa | 2.6V | 00:00:00 | 00:00:00 | 00:00:00 | |
| DK5PH-5 | 2026-09-01 23:51:43 | 48.83472 | 10.02173 | 100° | 29km/h | 19183m | 4.8m/s | -52.4°C | 4.1% | 66.5hPa | 2.6V | 00:00:00 | 01:22:48 | 08:30:00 | |
| DM0DOS-11 | 2026-09-01 23:51:42 | 48.83482 | 10.02108 | 100° | 22km/h | 19149m | 4.5m/s | -52.4°C | 4.1% | 66.9hPa | 2.6V | 08:30:00 | 01:22:41 | 00:00:00 | |
| DK7TD | 2026-09-01 23:51:37 | 48.83481 | 10.02117 | 102° | 24km/h | 19154m | 5.6m/s | -52.4°C | 0.7% | 66.8hPa | 2.6V | 18:12:15 | 01:22:42 | 00:00:00 | |
| DJ8HS-15 | 2026-09-01 23:51:37 | 48.83481 | 10.02117 | 103° | 29km/h | 19154m | 5.5m/s | -52.4°C | 4.1% | 66.8hPa | 2.7V | 00:00:00 | 01:22:42 | 00:00:00 | |
| DF1GD-15 | 2026-09-01 23:51:36 | 48.83481 | 10.02117 | 103° | 24km/h | 19154m | 5.6m/s | -52.4°C | 1.2% | 66.8hPa | 2.7V | 00:00:00 | 00:00:00 | 00:00:00 | |
| OE5WHR-10 | 2026-09-01 23:51:35 | 48.83483 | 10.02099 | 100° | 31km/h | 19144m | 4.9m/s | -52.3°C | 4.1% | 66.9hPa | 2.7V | 00:00:00 | 00:00:00 | 08:30:00 | |
| OE5DRO-10 | 2026-09-01 23:51:34 | 48.83484 | 10.02090 | 100° | 33km/h | 19139m | 5.2m/s | -52.3°C | 4.1% | 66.9hPa | 2.6V | 00:00:00 | 00:00:00 | 00:00:00 | |
| DO3MHA-12 | 2026-09-01 23:51:32 | 48.83486 | 10.02070 | 101° | 31km/h | 19130m | 5.5m/s | -52.2°C | 4.1% | 67.0hPa | 2.6V | 00:00:00 | 01:22:37 | 00:00:00 | |
| DM0DOS-11 | 2026-09-01 23:51:31 | 48.83487 | 10.01998 | 79° | 35km/h | 19102m | 5.7m/s | -52.3°C | 4.1% | 67.4hPa | 2.6V | 08:30:00 | 01:22:31 | 00:00:00 | |
| DK7TD | 2026-09-01 23:51:27 | 48.83488 | 10.02011 | 83° | 37km/h | 19106m | 4.1m/s | -52.4°C | 0.7% | 67.3hPa | 2.6V | 18:12:15 | 01:22:32 | 00:00:00 | |
| DF3TZ-5 | 2026-09-01 23:51:25 | 48.83485 | 10.01985 | 75° | 31km/h | 19096m | 4.6m/s | -52.4°C | 1.2% | 67.5hPa | 2.6V | 00:00:00 | 00:00:00 | 00:00:00 | |
| DG9SBQ-11 | 2026-09-01 23:51:22 | 48.83479 | 10.01950 | 82° | 31km/h | 19083m | 4.7m/s | -52.4°C | 1.2% | 67.6hPa | 2.6V | 00:00:00 | 00:00:00 | 00:00:00 | |
| DM0DOS-11 | 2026-09-01 23:51:21 | 48.83480 | 10.01883 | 92° | 35km/h | 19054m | 4.7m/s | -52.4°C | 4% | 67.9hPa | 2.6V | 08:30:00 | 01:22:21 | 00:00:00 | |
| DK7TD | 2026-09-01 23:51:16 | 48.83480 | 10.01883 | 92° | 35km/h | 19054m | 4.7m/s | -52.4°C | 0.6% | 67.9hPa | 2.6V | 18:12:15 | 01:22:21 | 00:00:00 | |
| OE5WHR-10 | 2026-09-01 23:51:14 | 48.83479 | 10.01855 | 84° | 35km/h | 19045m | 5.5m/s | -52.4°C | 4.0% | 67.9hPa | 2.6V | 00:00:00 | 00:00:00 | 00:00:00 | |
| DK5PH-5 | 2026-09-01 23:51:13 | 48.83477 | 10.01841 | 79° | 33km/h | 19041m | 4.1m/s | -52.4°C | 4.0% | 68.0hPa | 2.6V | 00:00:00 | 01:22:18 | 00:00:00 | |
| DO3MHA-12 | 2026-09-01 23:51:12 | 48.83475 | 10.01827 | 78° | 33km/h | 19037m | 3.9m/s | -52.3°C | 4.1% | 68.0hPa | 2.6V | 00:00:00 | 01:22:17 | 00:00:00 | |
| DM0DOS-11 | 2026-09-01 23:51:11 | 48.83467 | 10.01749 | 82° | 27km/h | 19007m | 3.8m/s | -52.6°C | 4.1% | 68.4hPa | 2.6V | 08:30:00 | 01:22:11 | 00:00:00 | |
| DK7TD | 2026-09-01 23:51:05 | 48.83466 | 10.01738 | 84° | 27km/h | 19002m | 5.6m/s | -52.8°C | 0.7% | 68.4hPa | 2.6V | 18:12:15 | 01:22:10 | 00:00:00 | |
| DK7TD | 2026-09-01 23:50:54 | 48.83438 | 10.01590 | 67° | 38km/h | 18950m | 3.9m/s | -53°C | 0.8% | 69hPa | 2.6V | 18:12:15 | 01:21:59 | 00:00:00 | |
| DF3TZ-5 | 2026-09-01 23:50:54 | 48.83438 | 10.01590 | 67° | 37km/h | 18950m | 3.9m/s | -53.0°C | 1.2% | 69.0hPa | 2.6V | 00:00:00 | 00:00:00 | 00:00:00 | |
| OE5WHR-10 | 2026-09-01 23:50:53 | 48.83434 | 10.01577 | 67° | 31km/h | 18946m | 4.1m/s | -52.9°C | 4.2% | 69.0hPa | 2.6V | 00:00:00 | 01:21:58 | 00:00:00 | |
| DM0DOS-11 | 2026-09-01 23:50:52 | 48.83425 | 10.01541 | 69° | 31km/h | 18931m | 3.7m/s | -52.9°C | 4.2% | 69.2hPa | 2.6V | 08:30:00 | 01:21:55 | 00:00:00 | |
| DK7TD | 2026-09-01 23:50:45 | 48.83411 | 10.01483 | 90° | 31km/h | 18902m | 5.3m/s | -52.6°C | 0.7% | 69.5hPa | 2.6V | 18:12:15 | 01:21:49 | 00:00:00 | |
| DK5PH-5 | 2026-09-01 23:50:43 | 48.83412 | 10.01471 | 93° | 37km/h | 18896m | 6.2m/s | -52.5°C | 4.1% | 69.5hPa | 2.6V | 00:00:00 | 01:21:48 | 00:00:00 | |
| DM0DOS-11 | 2026-09-01 23:50:42 | 48.83413 | 10.01429 | 91° | 42km/h | 18880m | 6.2m/s | -52.5°C | 4% | 69.7hPa | 2.6V | 08:30:00 | 01:21:45 | 00:00:00 | |
| DO3MHA-12 | 2026-09-01 23:50:42 | 48.83412 | 10.01458 | 93° | 37km/h | 18890m | 5.3m/s | -52.5°C | 4.1% | 69.6hPa | 2.7V | 00:00:00 | 01:21:47 | 00:00:00 | |
| OE5DXL-15 | 2026-09-01 23:50:41 | 48.83412 | 10.01444 | 92° | 37km/h | 18885m | 4.0m/s | -52.5°C | 4.1% | 69.6hPa | 2.6V | 00:00:00 | 00:00:00 | 00:00:00 | |
| DO3MHA-11 | 2026-09-01 23:50:40 | 48.83412 | 10.01429 | 92° | 37km/h | 18880m | 6.2m/s | -52.5°C | 4.0% | 69.7hPa | 2.6V | 00:00:00 | 01:21:45 | 00:00:00 | |
| DF7PN | 2026-09-01 23:50:39 | 48.83413 | 10.01395 | 88° | 44km/h | 18867m | 4.7m/s | -52.6°C | 1.2% | 69.8hPa | 2.6V | 00:00:00 | 00:00:00 | 00:00:00 | |
| DL6DJ-15 | 2026-09-01 23:50:38 | 48.83412 | 10.01379 | 83° | 40km/h | 18862m | 6.0m/s | -52.7°C | 1.2% | 69.9hPa | 2.6V | 00:00:00 | 00:00:00 | 00:00:00 | |
| OE9MKV-15 | 2026-09-01 23:50:37 | 48.83412 | 10.01379 | 84° | 35km/h | 18862m | 6.0m/s | -52.6°C | 4.0% | 69.9hPa | 2.6V | 00:00:00 | 01:21:42 | 00:00:00 | |
| DF1GD-15 | 2026-09-01 23:50:35 | 48.83410 | 10.01364 | 77° | 35km/h | 18856m | 6.1m/s | -52.8°C | 1.2% | 70.0hPa | 2.6V | 00:00:00 | 00:00:00 | 00:00:00 | |
| DM0DOS-11 | 2026-09-01 23:50:34 | 48.83397 | 10.01297 | 94° | 35km/h | 18822m | 6.1m/s | -53.4°C | 4.2% | 70.3hPa | 2.6V | 08:30:00 | 01:21:35 | 00:00:00 | |
| DK7TD | 2026-09-01 23:50:33 | 48.83401 | 10.01332 | 64° | 29km/h | 18840m | 5.9m/s | -53.2°C | 0.7% | 70.2hPa | 2.6V | 18:12:15 | 01:21:38 | 00:00:00 | |
| OE5WHR-10 | 2026-09-01 23:50:32 | 48.83398 | 10.01322 | 75° | 37km/h | 18835m | 5.2m/s | -53.2°C | 4.2% | 70.2hPa | 2.7V | 00:00:00 | 00:00:00 | 00:00:00 | |
| OE5DRO-10 | 2026-09-01 23:50:31 | 48.83397 | 10.01310 | 85° | 37km/h | 18829m | 6.3m/s | -53.3°C | 4.2% | 70.2hPa | 2.7V | 00:00:00 | 00:00:00 | 00:00:00 | |
| DO3MHA-11 | 2026-09-01 23:50:30 | 48.83397 | 10.01297 | 95° | 37km/h | 18823m | 6.0m/s | -53.3°C | 4.2% | 70.3hPa | 2.7V | 00:00:00 | 01:21:35 | 00:00:00 | |
| DG9SBQ-11 | 2026-09-01 23:50:28 | 48.83400 | 10.01271 | 107° | 35km/h | 18812m | 5.8m/s | -53.3°C | 1.2% | 70.4hPa | 2.7V | 00:00:00 | 00:00:00 | 00:00:00 | |
| DM7RM-13 | 2026-09-01 23:50:27 | 48.83400 | 10.01271 | 107° | 35km/h | 18812m | 5.8m/s | -53.3°C | 1.3% | 70.4hPa | 2.7V | 00:00:00 | 00:00:00 | 00:00:00 | |
| SONCRA | 2026-09-01 23:50:26 | 48.83405 | 10.01245 | 105° | 33km/h | 18802m | 4.5m/s | -53.4°C | 1.2% | 70.6hPa | 2.7V | 00:00:00 | 00:00:00 | 00:00:00 | |
| NBG1-10 | 2026-09-01 23:50:25 | 48.83407 | 10.01232 | 102° | 37km/h | 18797m | 5.6m/s | -53.3°C | 4.3% | 70.6hPa | 2.7V | 00:00:00 | 01:21:30 | 00:00:00 | |
| IW2NTF | 2026-09-01 23:50:23 | 48.83405 | 10.01144 | 81° | 38km/h | 18766m | 5.6m/s | 0°C | 0% | 0hPa | 2.7V | 00:00:00 | 01:21:24 | 00:00:00 | |
| DK7TD | 2026-09-01 23:50:23 | 48.83409 | 10.01203 | 90° | 40km/h | 18786m | 4.1m/s | -53.3°C | 0.8% | 70.8hPa | 2.6V | 18:12:15 | 01:21:28 | 00:00:00 | |
| DM0DOS-11 | 2026-09-01 23:50:23 | 48.83406 | 10.01159 | 80° | 38km/h | 18771m | 4.7m/s | -53.4°C | 4.3% | 70.9hPa | 2.7V | 08:30:00 | 01:21:25 | 00:00:00 | |
| DK7TD | 2026-09-01 23:50:13 | 48.83402 | 10.01065 | 88° | 37km/h | 18736m | 4.6m/s | -53.6°C | 0.8% | 71.3hPa | 2.7V | 18:12:15 | 01:21:18 | 00:00:00 | |
| DK5PH-5 | 2026-09-01 23:50:13 | 48.83402 | 10.01065 | 88° | 37km/h | 18736m | 4.6m/s | -53.6°C | 4.4% | 71.3hPa | 2.7V | 00:00:00 | 01:21:18 | 00:00:00 | |
| DM0DOS-11 | 2026-09-01 23:50:12 | 48.83398 | 10.01024 | 76° | 35km/h | 18721m | 5.1m/s | -53.5°C | 4.4% | 71.5hPa | 2.6V | 08:30:00 | 01:21:15 | 00:00:00 | |
| DO3MHA-12 | 2026-09-01 23:50:12 | 48.83401 | 10.01051 | 85° | 37km/h | 18731m | 4.1m/s | -53.5°C | 4.4% | 71.3hPa | 2.6V | 00:00:00 | 01:21:17 | 08:30:00 | |
| OE5DXL-15 | 2026-09-01 23:50:11 | 48.83400 | 10.01037 | 82° | 37km/h | 18727m | 5.4m/s | -53.5°C | 4.4% | 71.3hPa | 2.6V | 00:00:00 | 00:00:00 | 00:00:00 | |
| DO3MHA-11 | 2026-09-01 23:50:10 | 48.83399 | 10.01024 | 77° | 37km/h | 18721m | 5.1m/s | -53.5°C | 4.4% | 71.4hPa | 2.6V | 00:00:00 | 01:21:15 | 00:00:00 | |
| DG9SBQ-11 | 2026-09-01 23:50:09 | 48.83398 | 10.01024 | 77° | 35km/h | 18721m | 5.1m/s | -53.5°C | 1.3% | 71.5hPa | 2.6V | 00:00:00 | 00:00:00 | 00:00:00 | |
| OE5WHR-10 | 2026-09-01 23:50:08 | 48.83393 | 10.00998 | 73° | 37km/h | 18712m | 4.6m/s | -53.4°C | 4.4% | 71.5hPa | 2.6V | 00:00:00 | 00:00:00 | 00:00:00 | |
| DL6DJ-15 | 2026-09-01 23:50:07 | 48.83388 | 10.00969 | 75° | 40km/h | 18702m | 4.4m/s | -53.4°C | 1.3% | 71.7hPa | 2.6V | 00:00:00 | 00:00:00 | 00:00:00 | |
| DB0ND-19 | 2026-09-01 23:50:06 | 48.83388 | 10.00969 | 75° | 40km/h | 18702m | 4.4m/s | -53.4°C | 1.3% | 71.7hPa | 2.6V | 00:00:00 | 00:00:00 | 00:00:00 | |
| DG9SBQ-11 | 2026-09-01 23:50:04 | 48.83384 | 10.00940 | 79° | 38km/h | 18692m | 5.9m/s | -53.3°C | 1.2% | 71.8hPa | 2.6V | 00:00:00 | 00:00:00 | 00:00:00 | |
| DM0DOS-11 | 2026-09-01 23:50:02 | 48.83376 | 10.00886 | 75° | 37km/h | 18672m | 4.4m/s | -53.3°C | 4.3% | 72hPa | 2.6V | 08:30:00 | 01:21:05 | 00:00:00 | |
| DK7TD | 2026-09-01 23:50:02 | 48.83380 | 10.00913 | 79° | 35km/h | 18682m | 5m/s | -53.3°C | 0.8% | 71.9hPa | 2.6V | 18:12:15 | 01:21:07 | 00:00:00 | |
| DK7TD | 2026-09-01 23:49:52 | 48.83351 | 10.00785 | 75° | 35km/h | 18631m | 4.1m/s | -53.3°C | 0.8% | 72.5hPa | 2.7V | 18:12:15 | 01:20:57 | 00:00:00 | |
| NBG1-10 | 2026-09-01 23:49:52 | 48.83351 | 10.00785 | 75° | 33km/h | 18632m | 4.1m/s | -53.2°C | 4.3% | 72.4hPa | 2.7V | 00:00:00 | 01:20:57 | 08:30:00 | |
| DM0DOS-11 | 2026-09-01 23:49:51 | 48.83346 | 10.00702 | 87° | 37km/h | 18601m | 5.5m/s | -53.4°C | 4.3% | 72.8hPa | 2.6V | 08:30:00 | 01:20:51 | 00:00:00 | |
| DK7TD | 2026-09-01 23:49:42 | 48.83340 | 10.00648 | 75° | 33km/h | 18582m | 5.1m/s | -53.5°C | 0.8% | 73.1hPa | 2.7V | 18:12:15 | 01:20:47 | 00:00:00 | |
| DM0DOS-11 | 2026-09-01 23:49:42 | 48.83326 | 10.00574 | 76° | 29km/h | 18553m | 4.4m/s | -53.3°C | 4.3% | 73.4hPa | 2.6V | 08:30:00 | 01:20:41 | 00:00:00 | |
| DK7TD | 2026-09-01 23:49:31 | 48.83321 | 10.00515 | 85° | 31km/h | 18528m | 5.4m/s | -53.3°C | 0.7% | 73.7hPa | 2.6V | 18:12:15 | 01:20:36 | 00:00:00 | |
| DK7TD | 2026-09-01 23:49:21 | 48.83310 | 10.00404 | 83° | 31km/h | 18479m | 4.8m/s | -53.3°C | 0.7% | 74.2hPa | 2.6V | 18:12:15 | 01:20:26 | 00:00:00 | |
| DK7TD | 2026-09-01 23:49:10 | 48.83315 | 10.00255 | 90° | 35km/h | 18427m | 4.2m/s | -53.6°C | 0.7% | 74.8hPa | 2.6V | 18:12:15 | 01:20:15 | 00:00:00 | |
| DK7TD | 2026-09-01 23:49:00 | 48.83303 | 10.00110 | 92° | 51km/h | 18379m | 5.9m/s | -54.1°C | 0.9% | 75.4hPa | 2.6V | 18:12:15 | 01:20:05 | 00:00:00 | |
| SONCRA | 2026-09-01 23:48:53 | 48.83301 | 9.99969 | 82° | 38km/h | 18340m | 5.5m/s | -54.1°C | 1.3% | 75.8hPa | 2.6V | 00:00:00 | 00:00:00 | 00:00:00 | |
| DM0DOS-11 | 2026-09-01 23:48:52 | 48.83297 | 9.99906 | 87° | 44km/h | 18321m | 3.8m/s | -54°C | 4.4% | 76.1hPa | 2.6V | 08:30:00 | 01:19:53 | 00:00:00 | |
| DK7TD | 2026-09-01 23:48:50 | 48.83299 | 9.99938 | 82° | 40km/h | 18330m | 5.1m/s | -54°C | 0.8% | 76hPa | 2.7V | 18:12:15 | 01:19:55 | 00:00:00 | |
| DO3MHA-11 | 2026-09-01 23:48:50 | 48.83299 | 9.99938 | 83° | 44km/h | 18330m | 5.1m/s | -54.0°C | 4.4% | 75.9hPa | 2.7V | 00:00:00 | 01:19:55 | 08:30:00 | |
| NBG1-10 | 2026-09-01 23:48:46 | 48.83297 | 9.99872 | 94° | 46km/h | 18312m | 4.6m/s | -53.9°C | 4.4% | 76.1hPa | 2.6V | 00:00:00 | 01:19:51 | 00:00:00 | |
| DM7RM-13 | 2026-09-01 23:48:45 | 48.83297 | 9.99872 | 95° | 44km/h | 18312m | 4.7m/s | -54.0°C | 1.3% | 76.2hPa | 2.6V | 00:00:00 | 00:00:00 | 00:00:00 | |
| DG9SBQ-11 | 2026-09-01 23:48:44 | 48.83298 | 9.99856 | 96° | 44km/h | 18307m | 4.1m/s | -54.0°C | 1.3% | 76.2hPa | 2.6V | 00:00:00 | 00:00:00 | 00:00:00 | |
| DM0DOS-11 | 2026-09-01 23:48:42 | 48.83303 | 9.99748 | 89° | 38km/h | 18274m | 4.8m/s | -54.1°C | 4.4% | 76.6hPa | 2.6V | 08:30:00 | 01:19:43 | 00:00:00 | |
| DK7TD | 2026-09-01 23:48:39 | 48.83303 | 9.99762 | 91° | 37km/h | 18279m | 5m/s | -54.1°C | 0.8% | 76.5hPa | 2.6V | 18:12:15 | 01:19:44 | 00:00:00 | |
| OE5WHR-10 | 2026-09-01 23:48:37 | 48.83303 | 9.99732 | 90° | 47km/h | 18270m | 4.3m/s | 0°C | 0% | 0hPa | 2.7V | 00:00:00 | 01:19:42 | 00:00:00 | |
| DO9HM | 2026-09-01 23:48:35 | 48.83304 | 9.99702 | 98° | 42km/h | 18261m | 5.2m/s | -54.2°C | 1.3% | 76.8hPa | 2.7V | 00:00:00 | 00:00:00 | 00:00:00 | |
| DF7PN | 2026-09-01 23:48:34 | 48.83305 | 9.99686 | 99° | 42km/h | 18255m | 4.5m/s | -54.2°C | 1.3% | 76.8hPa | 2.7V | 00:00:00 | 00:00:00 | 00:00:00 | |
| DL6DJ-15 | 2026-09-01 23:48:33 | 48.83307 | 9.99669 | 99° | 46km/h | 18251m | 5.8m/s | -54.2°C | 1.3% | 76.9hPa | 2.7V | 00:00:00 | 00:00:00 | 00:00:00 | |
| DM0DOS-11 | 2026-09-01 23:48:32 | 48.83318 | 9.99577 | 98° | 47km/h | 18226m | 5.3m/s | -54°C | 4.4% | 77.2hPa | 2.7V | 08:30:00 | 01:19:33 | 00:00:00 | |
| DK7TD | 2026-09-01 23:48:29 | 48.83316 | 9.99595 | 101° | 47km/h | 18231m | 3.8m/s | -54.1°C | 0.9% | 77.2hPa | 2.6V | 18:12:15 | 01:19:34 | 00:00:00 | |
| DG9SBQ-11 | 2026-09-01 23:48:28 | 48.83316 | 9.99595 | 102° | 47km/h | 18231m | 3.8m/s | -54.1°C | 1.3% | 77.1hPa | 2.7V | 00:00:00 | 00:00:00 | 00:00:00 | |
| DN1GJH-1 | 2026-09-01 23:48:25 | 48.83321 | 9.99542 | 94° | 46km/h | 18217m | 4.5m/s | -54.1°C | 1.3% | 77.3hPa | 2.7V | 00:00:00 | 00:00:00 | 00:00:00 | |
| DM7RM-13 | 2026-09-01 23:48:24 | 48.83321 | 9.99525 | 95° | 44km/h | 18211m | 5.6m/s | -54.1°C | 1.4% | 77.4hPa | 2.7V | 00:00:00 | 00:00:00 | 00:00:00 | |
| OE3JTB-15 | 2026-09-01 23:48:23 | 48.83323 | 9.99491 | 97° | 49km/h | 18202m | 3.4m/s | -54.0°C | 4.5% | 77.4hPa | 2.7V | 00:00:00 | 01:19:28 | 00:00:00 | |
| DM0DOS-11 | 2026-09-01 23:48:22 | 48.83335 | 9.99375 | 98° | 55km/h | 18174m | 5m/s | -54°C | 4.4% | 77.8hPa | 2.7V | 08:30:00 | 01:19:22 | 00:00:00 | |
| DK7TD | 2026-09-01 23:48:18 | 48.83333 | 9.99396 | 101° | 53km/h | 18179m | 3.8m/s | -54°C | 0.8% | 77.8hPa | 2.7V | 18:12:15 | 01:19:23 | 00:00:00 | |
| DJ8HS-15 | 2026-09-01 23:48:17 | 48.83335 | 9.99375 | 99° | 49km/h | 18175m | 5.0m/s | -53.9°C | 4.4% | 77.8hPa | 2.7V | 00:00:00 | 01:19:22 | 00:00:00 | |
| DG9SBQ-11 | 2026-09-01 23:48:16 | 48.83335 | 9.99375 | 100° | 55km/h | 18175m | 5.0m/s | -54.0°C | 1.3% | 77.8hPa | 2.7V | 00:00:00 | 00:00:00 | 00:00:00 | |
| DJTTGO | 2026-09-01 23:48:15 | 48.83338 | 9.99335 | 95° | 51km/h | 18165m | 4.1m/s | -53.9°C | 1.3% | 77.9hPa | 2.7V | 00:00:00 | 00:00:00 | 00:00:00 | |
| NBG1-10 | 2026-09-01 23:48:13 | 48.83340 | 9.99298 | 94° | 51km/h | 18155m | 4.4m/s | -53.8°C | 4.4% | 78.0hPa | 2.7V | 00:00:00 | 01:19:18 | 00:00:00 | |
| DM0DOS-11 | 2026-09-01 23:48:12 | 48.83337 | 9.99194 | 91° | 47km/h | 18128m | 4.9m/s | -53.8°C | 4.3% | 78.4hPa | 2.7V | 08:30:00 | 01:19:12 | 00:00:00 | |
| DK7TD | 2026-09-01 23:48:07 | 48.83338 | 9.99194 | 91° | 47km/h | 18128m | 4.9m/s | -53.8°C | 0.8% | 78.4hPa | 2.7V | 18:12:15 | 01:19:12 | 00:00:00 | |
| DK7TD | 2026-09-01 23:47:56 | 48.83339 | 9.98976 | 82° | 47km/h | 18078m | 4.7m/s | -53.8°C | 0.8% | 79hPa | 2.7V | 18:12:15 | 01:19:01 | 00:00:00 | |
| DK7TD | 2026-09-01 23:47:46 | 48.83329 | 9.98771 | 83° | 62km/h | 18034m | 4.3m/s | -54.1°C | 0.9% | 79.5hPa | 2.7V | 18:12:15 | 01:18:51 | 00:00:00 | |
| DN1GJH-1 | 2026-09-01 23:47:43 | 48.83324 | 9.98727 | 80° | 57km/h | 18027m | 4.9m/s | -54.0°C | 1.4% | 79.6hPa | 2.7V | 00:00:00 | 00:00:00 | 00:00:00 | |
| DM0DOS-11 | 2026-09-01 23:47:42 | 48.83316 | 9.98670 | 76° | 49km/h | 18012m | 5.2m/s | -53.9°C | 4.5% | 79.8hPa | 2.7V | 08:30:00 | 01:18:46 | 00:00:00 | |
| DK7TD | 2026-09-01 23:47:36 | 48.83304 | 9.98585 | 84° | 42km/h | 17988m | 4.3m/s | -53.8°C | 0.9% | 80.1hPa | 2.7V | 18:12:15 | 01:18:41 | 00:00:00 | |
| DK7TD | 2026-09-01 23:47:26 | 48.83294 | 9.98407 | 81° | 46km/h | 17942m | 4.2m/s | -53.5°C | 0.8% | 80.7hPa | 2.6V | 18:12:15 | 01:18:31 | 00:00:00 | |
| DG9SBQ-11 | 2026-09-01 23:47:25 | 48.83294 | 9.98407 | 82° | 46km/h | 17942m | 4.2m/s | -53.5°C | 1.3% | 80.7hPa | 2.6V | 00:00:00 | 00:00:00 | 00:00:00 | |
| OE3JTB-15 | 2026-09-01 23:47:23 | 48.83290 | 9.98360 | 84° | 40km/h | 17928m | 4.4m/s | -53.3°C | 4.3% | 80.8hPa | 2.6V | 00:00:00 | 00:00:00 | 00:00:00 | |
| DM0DOS-11 | 2026-09-01 23:47:22 | 48.83287 | 9.98329 | 80° | 42km/h | 17918m | 4.3m/s | -53.3°C | 4.3% | 81hPa | 2.6V | 08:30:00 | 01:18:26 | 00:00:00 | |
| DK7TD | 2026-09-01 23:47:16 | 48.83280 | 9.98237 | 89° | 44km/h | 17890m | 3.8m/s | -53.1°C | 0.8% | 81.3hPa | 2.6V | 18:12:15 | 01:18:20 | 00:00:00 | |
| DO9HM | 2026-09-01 23:47:15 | 48.83281 | 9.98204 | 96° | 42km/h | 17882m | 5.1m/s | -53.1°C | 1.3% | 81.4hPa | 2.6V | 00:00:00 | 00:00:00 | 00:00:00 | |
| DM0DOS-11 | 2026-09-01 23:47:14 | 48.83284 | 9.98172 | 101° | 44km/h | 17872m | 4.8m/s | -53.2°C | 4.3% | 81.5hPa | 2.6V | 08:30:00 | 01:18:16 | 00:00:00 | |
| DK7TD | 2026-09-01 23:47:04 | 48.83290 | 9.98062 | 80° | 42km/h | 17841m | 4.3m/s | -53.1°C | 0.7% | 82hPa | 2.6V | 18:12:15 | 01:18:09 | 00:00:00 | |
| DK5PH-5 | 2026-09-01 23:47:04 | 48.83290 | 9.98062 | 80° | 37km/h | 17841m | 4.3m/s | -53.1°C | 4.2% | 81.9hPa | 2.6V | 00:00:00 | 01:18:09 | 08:30:00 | |
| DG9SBQ-11 | 2026-09-01 23:47:03 | 48.83290 | 9.98062 | 81° | 42km/h | 17841m | 4.3m/s | -53.1°C | 1.3% | 82.0hPa | 2.7V | 00:00:00 | 00:00:00 | 00:00:00 | |
| DM0DOS-11 | 2026-09-01 23:47:02 | 48.83284 | 9.98017 | 82° | 37km/h | 17828m | 4m/s | -53.2°C | 4.2% | 82.1hPa | 2.7V | 08:30:00 | 01:18:06 | 00:00:00 | |
| DK7TD | 2026-09-01 23:46:53 | 48.83290 | 9.97904 | 93° | 37km/h | 17794m | 4.6m/s | -53.4°C | 0.7% | 82.5hPa | 2.6V | 18:12:15 | 01:17:58 | 00:00:00 | |
| DM0DOS-11 | 2026-09-01 23:46:52 | 48.83290 | 9.97876 | 87° | 35km/h | 17786m | 4.3m/s | -53.4°C | 4.3% | 82.7hPa | 2.7V | 08:30:00 | 01:17:56 | 00:00:00 | |
| DF3TZ-5 | 2026-09-01 23:46:46 | 48.83284 | 9.97799 | 94° | 33km/h | 17759m | 5.4m/s | -53.5°C | 1.3% | 83.0hPa | 2.6V | 00:00:00 | 00:00:00 | 00:00:00 | |
| DK7TD | 2026-09-01 23:46:43 | 48.83288 | 9.97773 | 111° | 37km/h | 17750m | 4.3m/s | -53.5°C | 0.8% | 83.1hPa | 2.6V | 18:12:15 | 01:17:48 | 00:00:00 | |
| OE5DRO-10 | 2026-09-01 23:46:43 | 48.83288 | 9.97773 | 112° | 38km/h | 17751m | 4.2m/s | -53.4°C | 4.3% | 83.1hPa | 2.7V | 00:00:00 | 00:00:00 | 00:00:00 | |
| DM0DOS-11 | 2026-09-01 23:46:42 | 48.83295 | 9.97746 | 110° | 40km/h | 17741m | 3.8m/s | -53.6°C | 4.3% | 83.2hPa | 2.7V | 08:30:00 | 01:17:46 | 00:00:00 | |
| DO3MHA-12 | 2026-09-01 23:46:42 | 48.83292 | 9.97760 | 113° | 35km/h | 17746m | 5.1m/s | -53.5°C | 4.3% | 83.1hPa | 2.6V | 00:00:00 | 01:17:47 | 00:00:00 | |
| OE5DXL-15 | 2026-09-01 23:46:41 | 48.83295 | 9.97745 | 111° | 42km/h | 17741m | 3.8m/s | -53.5°C | 4.3% | 83.2hPa | 2.7V | 00:00:00 | 00:00:00 | 00:00:00 | |
| DO3MHA-11 | 2026-09-01 23:46:40 | 48.83299 | 9.97731 | 110° | 35km/h | 17738m | 3.3m/s | -53.5°C | 4.3% | 83.2hPa | 2.7V | 00:00:00 | 01:17:45 | 00:00:00 | |
| DJ8HS-15 | 2026-09-01 23:46:37 | 48.83305 | 9.97692 | 94° | 40km/h | 17725m | 3.9m/s | -53.6°C | 4.2% | 83.4hPa | 2.7V | 00:00:00 | 01:17:42 | 00:00:00 | |
| AZAK | 2026-09-01 23:46:36 | 48.83305 | 9.97692 | 94° | 31km/h | 17725m | 3.9m/s | -53.6°C | 1.2% | 83.5hPa | 2.7V | 00:00:00 | 00:00:00 | 00:00:00 | |
| DK5PH-5 | 2026-09-01 23:46:34 | 48.83303 | 9.97655 | 79° | 44km/h | 17711m | 3.4m/s | -53.7°C | 4.3% | 83.6hPa | 2.7V | 00:00:00 | 01:17:39 | 00:00:00 | |
| DM0DOS-11 | 2026-09-01 23:46:32 | 48.83299 | 9.97616 | 91° | 37km/h | 17699m | 4.2m/s | -53.9°C | 4.3% | 83.8hPa | 2.7V | 08:30:00 | 01:17:36 | 00:00:00 | |
| DK7TD | 2026-09-01 23:46:32 | 48.83300 | 9.97630 | 84° | 35km/h | 17703m | 3.7m/s | -53.8°C | 0.8% | 83.8hPa | 2.6V | 18:12:15 | 01:17:37 | 00:00:00 | |
| DO3MHA-12 | 2026-09-01 23:46:32 | 48.83299 | 9.97630 | 85° | 44km/h | 17703m | 3.7m/s | -53.7°C | 4.3% | 83.7hPa | 2.6V | 00:00:00 | 01:17:37 | 00:00:00 | |
| DO3MHA-11 | 2026-09-01 23:46:30 | 48.83300 | 9.97601 | 98° | 46km/h | 17694m | 5.2m/s | -53.9°C | 4.4% | 83.8hPa | 2.6V | 00:00:00 | 01:17:35 | 00:00:00 | |
| DB0ND-19 | 2026-09-01 23:46:29 | 48.83302 | 9.97585 | 104° | 46km/h | 17689m | 4.5m/s | -54.0°C | 1.3% | 83.9hPa | 2.6V | 00:00:00 | 00:00:00 | 00:00:00 | |
| DG9SBQ-11 | 2026-09-01 23:46:28 | 48.83302 | 9.97585 | 105° | 46km/h | 17689m | 4.5m/s | -54.0°C | 1.3% | 83.9hPa | 2.6V | 00:00:00 | 00:00:00 | 00:00:00 | |
| DF1GD-15 | 2026-09-01 23:46:27 | 48.83305 | 9.97568 | 109° | 47km/h | 17684m | 4.7m/s | -54.1°C | 1.3% | 84.0hPa | 2.6V | 00:00:00 | 00:00:00 | 00:00:00 | |
| OE5WHR-10 | 2026-09-01 23:46:26 | 48.83318 | 9.97517 | 111° | 46km/h | 17672m | 3.8m/s | 0°C | 0% | 0hPa | 2.6V | 00:00:00 | 00:00:00 | 00:00:00 | |
| OE5DRO-10 | 2026-09-01 23:46:24 | 48.83322 | 9.97500 | 108° | 46km/h | 17667m | 4.8m/s | -54.2°C | 4.4% | 84.2hPa | 2.6V | 00:00:00 | 00:00:00 | 00:00:00 | |
| DM0DOS-11 | 2026-09-01 23:46:22 | 48.83329 | 9.97449 | 98° | 42km/h | 17653m | 5.2m/s | -54.3°C | 4.5% | 84.4hPa | 2.6V | 08:30:00 | 01:17:26 | 00:00:00 | |
| DK7TD | 2026-09-01 23:46:21 | 48.83329 | 9.97449 | 99° | 42km/h | 17653m | 5.3m/s | -54.3°C | 0.9% | 84.4hPa | 2.6V | 18:12:15 | 01:17:26 | 00:00:00 | |
| DB0NH | 2026-09-01 23:46:21 | 48.83329 | 9.97449 | 99° | 47km/h | 17653m | 5.2m/s | -54.2°C | 4.5% | 84.4hPa | 2.6V | 00:00:00 | 01:17:26 | 08:30:00 | |
| DO3MHA-11 | 2026-09-01 23:46:20 | 48.83330 | 9.97434 | 96° | 46km/h | 17649m | 4.0m/s | -54.2°C | 4.5% | 84.4hPa | 2.6V | 00:00:00 | 01:17:25 | 00:00:00 | |
| DJ8HS-15 | 2026-09-01 23:46:17 | 48.83332 | 9.97387 | 94° | 47km/h | 17635m | 4.2m/s | -54.1°C | 4.5% | 84.6hPa | 2.7V | 00:00:00 | 01:17:22 | 00:00:00 | |
| DF3TZ-5 | 2026-09-01 23:46:15 | 48.83337 | 9.97336 | 100° | 47km/h | 17621m | 3.8m/s | -54.1°C | 1.3% | 84.8hPa | 2.6V | 00:00:00 | 00:00:00 | 00:00:00 | |
| DM0DOS-11 | 2026-09-01 23:46:12 | 48.83342 | 9.97279 | 95° | 49km/h | 17608m | 4m/s | -54.1°C | 4.5% | 85hPa | 2.6V | 08:30:00 | 01:17:16 | 00:00:00 | |
| DK7TD | 2026-09-01 23:46:10 | 48.83343 | 9.97260 | 93° | 47km/h | 17604m | 5m/s | -54.1°C | 0.9% | 85hPa | 2.6V | 18:12:15 | 01:17:15 | 00:00:00 | |
| OE9MKV-15 | 2026-09-01 23:46:07 | 48.83343 | 9.97208 | 88° | 51km/h | 17591m | 5.4m/s | 0°C | 0% | 0hPa | 2.6V | 00:00:00 | 01:17:12 | 00:00:00 | |
| DF1GD-15 | 2026-09-01 23:46:06 | 48.83343 | 9.97208 | 88° | 47km/h | 17591m | 5.4m/s | -54.1°C | 1.4% | 85.2hPa | 2.6V | 00:00:00 | 00:00:00 | 00:00:00 | |
| OE5DRO-10 | 2026-09-01 23:46:05 | 48.83342 | 9.97171 | 88° | 51km/h | 17582m | 3.2m/s | -54.0°C | 4.5% | 85.3hPa | 2.6V | 00:00:00 | 00:00:00 | 08:30:00 | |
| DK5PH-5 | 2026-09-01 23:46:04 | 48.83341 | 9.97152 | 91° | 49km/h | 17578m | 4.7m/s | -54.1°C | 4.4% | 85.3hPa | 2.6V | 00:00:00 | 01:17:09 | 00:00:00 | |
| OE5WHR-10 | 2026-09-01 23:46:03 | 48.83342 | 9.97134 | 94° | 57km/h | 17574m | 4.4m/s | 0°C | 0% | 0hPa | 2.6V | 00:00:00 | 01:17:08 | 00:00:00 | |
| DM0DOS-11 | 2026-09-01 23:46:02 | 48.83345 | 9.97099 | 99° | 49km/h | 17565m | 5.1m/s | -54.2°C | 4.6% | 85.6hPa | 2.6V | 08:30:00 | 01:17:06 | 00:00:00 | |
| DK7TD | 2026-09-01 23:46:00 | 48.83347 | 9.97079 | 101° | 53km/h | 17560m | 4.7m/s | -54.3°C | 0.9% | 85.7hPa | 2.6V | 18:12:15 | 01:17:05 | 00:00:00 | |
| DF7PN | 2026-09-01 23:45:59 | 48.83353 | 9.97040 | 103° | 53km/h | 17552m | 5.1m/s | -54.2°C | 1.4% | 85.8hPa | 2.6V | 00:00:00 | 00:00:00 | 00:00:00 | |
| DB0ND-19 | 2026-09-01 23:45:58 | 48.83353 | 9.97040 | 103° | 53km/h | 17552m | 5.1m/s | -54.2°C | 1.4% | 85.8hPa | 2.6V | 00:00:00 | 00:00:00 | 00:00:00 | |
| DJ8HS-15 | 2026-09-01 23:45:57 | 48.83356 | 9.97020 | 104° | 51km/h | 17547m | 4.0m/s | -54.2°C | 4.5% | 85.8hPa | 2.6V | 00:00:00 | 01:17:02 | 00:00:00 | |
| DG9SBQ-11 | 2026-09-01 23:45:56 | 48.83359 | 9.97000 | 101° | 55km/h | 17543m | 4.2m/s | -54.2°C | 1.4% | 85.9hPa | 2.6V | 00:00:00 | 00:00:00 | 00:00:00 | |
| AZAK | 2026-09-01 23:45:55 | 48.83361 | 9.96979 | 98° | 55km/h | 17538m | 5.1m/s | -54.2°C | 1.4% | 85.9hPa | 2.6V | 00:00:00 | 00:00:00 | 00:00:00 | |
| DM0DOS-11 | 2026-09-01 23:45:52 | 48.83363 | 9.96898 | 89° | 51km/h | 17520m | 4.4m/s | -54.1°C | 4.4% | 86.2hPa | 2.6V | 08:30:00 | 01:16:56 | 00:00:00 | |
| DO3MHA-12 | 2026-09-01 23:45:52 | 48.83363 | 9.96917 | 91° | 51km/h | 17524m | 4.3m/s | -54.1°C | 4.4% | 86.0hPa | 2.6V | 00:00:00 | 01:16:57 | 00:00:00 | |
| DB0NH | 2026-09-01 23:45:51 | 48.83363 | 9.96898 | 90° | 51km/h | 17520m | 4.3m/s | -54.1°C | 4.4% | 86.1hPa | 2.6V | 00:00:00 | 01:16:56 | 00:00:00 | |
| DO3MHA-11 | 2026-09-01 23:45:50 | 48.83363 | 9.96878 | 89° | 51km/h | 17515m | 5.1m/s | -54.1°C | 4.4% | 86.2hPa | 2.6V | 00:00:00 | 01:16:55 | 08:30:00 | |
| DK7TD | 2026-09-01 23:45:50 | 48.83363 | 9.96878 | 88° | 53km/h | 17515m | 5.1m/s | -54.1°C | 0.8% | 86.2hPa | 2.6V | 18:12:15 | 01:16:55 | 00:00:00 | |
| DG9SBQ-11 | 2026-09-01 23:45:49 | 48.83362 | 9.96878 | 89° | 53km/h | 17515m | 5.1m/s | -54.1°C | 1.3% | 86.2hPa | 2.6V | 00:00:00 | 00:00:00 | 00:00:00 | |
| OE5DRO-10 | 2026-09-01 23:45:46 | 48.83362 | 9.96800 | 94° | 51km/h | 17497m | 4.0m/s | -54.1°C | 4.5% | 86.4hPa | 2.6V | 00:00:00 | 00:00:00 | 00:00:00 | |
| DF1GD-15 | 2026-09-01 23:45:45 | 48.83362 | 9.96800 | 95° | 47km/h | 17497m | 4.0m/s | -54.2°C | 1.4% | 86.5hPa | 2.6V | 00:00:00 | 00:00:00 | 00:00:00 | |
| DG9SBQ-11 | 2026-09-01 23:45:43 | 48.83364 | 9.96762 | 95° | 51km/h | 17488m | 5.1m/s | -54.1°C | 1.3% | 86.6hPa | 2.6V | 00:00:00 | 00:00:00 | 00:00:00 | |
| DM0DOS-11 | 2026-09-01 23:45:42 | 48.83367 | 9.96704 | 94° | 49km/h | 17475m | 5.1m/s | -54°C | 4.5% | 86.8hPa | 2.6V | 08:30:00 | 01:16:46 | 00:00:00 | |
| DK7TD | 2026-09-01 23:45:40 | 48.83368 | 9.96685 | 96° | 47km/h | 17470m | 4.2m/s | -54°C | 0.9% | 86.8hPa | 2.6V | 18:12:15 | 01:16:45 | 00:00:00 | |
| DM7RM-13 | 2026-09-01 23:45:39 | 48.83368 | 9.96685 | 97° | 47km/h | 17471m | 4.2m/s | -54.0°C | 1.4% | 86.8hPa | 2.6V | 00:00:00 | 00:00:00 | 00:00:00 | |
| DG9SBQ-11 | 2026-09-01 23:45:38 | 48.83369 | 9.96667 | 96° | 49km/h | 17466m | 4.2m/s | -54.0°C | 1.4% | 86.9hPa | 2.6V | 00:00:00 | 00:00:00 | 00:00:00 | |
| DJ8HS-15 | 2026-09-01 23:45:37 | 48.83371 | 9.96628 | 95° | 53km/h | 17457m | 3.7m/s | -54.0°C | 4.5% | 87.0hPa | 2.6V | 00:00:00 | 01:16:42 | 00:00:00 | |
| DK5PH-5 | 2026-09-01 23:45:34 | 48.83375 | 9.96571 | 95° | 55km/h | 17444m | 4.3m/s | -54.0°C | 4.4% | 87.1hPa | 2.6V | 00:00:00 | 01:16:39 | 00:00:00 | |
| DG9SBQ-11 | 2026-09-01 23:45:33 | 48.83375 | 9.96571 | 96° | 49km/h | 17444m | 4.3m/s | -54.0°C | 1.4% | 87.2hPa | 2.6V | 00:00:00 | 00:00:00 | 00:00:00 | |
| DM0DOS-11 | 2026-09-01 23:45:32 | 48.83377 | 9.96511 | 94° | 53km/h | 17430m | 4m/s | -54.1°C | 4.5% | 87.4hPa | 2.6V | 08:30:00 | 01:16:36 | 00:00:00 | |
| DK7TD | 2026-09-01 23:45:29 | 48.83381 | 9.96471 | 100° | 51km/h | 17420m | 3.7m/s | -54.1°C | 0.9% | 87.5hPa | 2.6V | 18:12:15 | 01:16:34 | 00:00:00 | |
| NBG1-10 | 2026-09-01 23:45:28 | 48.83383 | 9.96452 | 101° | 55km/h | 17417m | 4.2m/s | -54.0°C | 4.4% | 87.5hPa | 2.6V | 00:00:00 | 01:16:33 | 00:00:00 | |
| OE3JTB-15 | 2026-09-01 23:45:27 | 48.83385 | 9.96432 | 100° | 42km/h | 17412m | 5.3m/s | -54.0°C | 4.4% | 87.6hPa | 2.6V | 00:00:00 | 01:16:32 | 00:00:00 | |
| DF1GD-15 | 2026-09-01 23:45:25 | 48.83388 | 9.96389 | 96° | 57km/h | 17403m | 3.8m/s | -54.1°C | 1.4% | 87.8hPa | 2.6V | 00:00:00 | 00:00:00 | 00:00:00 | |
| DM0DOS-11 | 2026-09-01 23:45:23 | 48.83391 | 9.96305 | 88° | 55km/h | 17384m | 5.3m/s | -54°C | 4.4% | 88hPa | 2.6V | 08:30:00 | 01:16:26 | 00:00:00 | |
| DK7TD | 2026-09-01 23:45:18 | 48.83389 | 9.96243 | 88° | 51km/h | 17369m | 4.8m/s | -54°C | 0.8% | 88.2hPa | 2.7V | 18:12:15 | 01:16:23 | 00:00:00 | |
| DJ8HS-15 | 2026-09-01 23:45:17 | 48.83389 | 9.96223 | 90° | 55km/h | 17365m | 4.6m/s | -53.9°C | 4.4% | 88.3hPa | 2.7V | 00:00:00 | 01:16:22 | 00:00:00 | |
| DM0DOS-11 | 2026-09-01 23:45:16 | 48.83393 | 9.96076 | 91° | 60km/h | 17331m | 4.7m/s | -54.4°C | 4.6% | 88.7hPa | 2.6V | 08:30:00 | 01:16:15 | 00:00:00 | |
| DK7TD | 2026-09-01 23:45:07 | 48.83393 | 9.96009 | 88° | 55km/h | 17317m | 5.1m/s | -54.3°C | 1% | 89hPa | 2.7V | 18:12:15 | 01:16:12 | 00:00:00 | |
| OE9MKV-15 | 2026-09-01 23:45:07 | 48.83393 | 9.96009 | 89° | 51km/h | 17317m | 5.0m/s | 0°C | 0% | 0hPa | 2.6V | 00:00:00 | 01:16:12 | 00:00:00 | |
| DF1GD-15 | 2026-09-01 23:45:04 | 48.83391 | 9.95948 | 86° | 53km/h | 17304m | 5.1m/s | -54.3°C | 1.5% | 89.1hPa | 2.6V | 00:00:00 | 00:00:00 | 00:00:00 | |
| DM0DOS-11 | 2026-09-01 23:45:02 | 48.83388 | 9.95868 | 87° | 53km/h | 17284m | 4.6m/s | -54.4°C | 4.6% | 89.4hPa | 2.6V | 08:30:00 | 01:16:05 | 00:00:00 | |
| DK7TD | 2026-09-01 23:44:57 | 48.83385 | 9.95805 | 85° | 55km/h | 17270m | 5m/s | -54.5°C | 0.9% | 89.6hPa | 2.7V | 18:12:15 | 01:16:02 | 00:00:00 | |
| DF7PN | 2026-09-01 23:44:57 | 48.83384 | 9.95785 | 83° | 51km/h | 17265m | 4.8m/s | -54.5°C | 1.4% | 89.6hPa | 2.6V | 00:00:00 | 00:00:00 | 00:00:00 | |
| DL6DJ-15 | 2026-09-01 23:44:56 | 48.83384 | 9.95785 | 83° | 51km/h | 17265m | 4.8m/s | -54.5°C | 1.4% | 89.6hPa | 2.6V | 00:00:00 | 00:00:00 | 00:00:00 | |
| DM0DOS-11 | 2026-09-01 23:44:55 | 48.83369 | 9.95674 | 77° | 44km/h | 17236m | 3.9m/s | -54.2°C | 4.5% | 90.1hPa | 2.6V | 08:30:00 | 01:15:55 | 00:00:00 | |
| DK7TD | 2026-09-01 23:44:46 | 48.83361 | 9.95604 | 83° | 47km/h | 17218m | 5.9m/s | -54.1°C | 0.9% | 90.3hPa | 2.6V | 18:12:15 | 01:15:51 | 00:00:00 | |
| SONCRA | 2026-09-01 23:44:45 | 48.83358 | 9.95569 | 80° | 46km/h | 17208m | 3.4m/s | -54.1°C | 1.4% | 90.4hPa | 2.6V | 00:00:00 | 00:00:00 | 00:00:00 | |
| DK7TD | 2026-09-01 23:44:35 | 48.83328 | 9.95419 | 74° | 40km/h | 17166m | 5.8m/s | -53.8°C | 0.9% | 91.1hPa | 2.6V | 18:12:15 | 01:15:40 | 00:00:00 | |
| DK5PH-5 | 2026-09-01 23:44:33 | 48.83322 | 9.95389 | 76° | 38km/h | 17156m | 4.9m/s | -53.9°C | 4.5% | 91.2hPa | 2.6V | 00:00:00 | 01:15:38 | 00:00:00 | |
| DG9SBQ-11 | 2026-09-01 23:44:32 | 48.83319 | 9.95373 | 75° | 42km/h | 17151m | 5.2m/s | -53.9°C | 1.4% | 91.3hPa | 2.6V | 00:00:00 | 00:00:00 | 00:00:00 | |
| OE9MKV-15 | 2026-09-01 23:44:31 | 48.83316 | 9.95358 | 72° | 40km/h | 17146m | 3.7m/s | 0°C | 0% | 0hPa | 2.6V | 00:00:00 | 01:15:36 | 00:00:00 | |
| OE5DRO-10 | 2026-09-01 23:44:30 | 48.83312 | 9.95342 | 69° | 40km/h | 17142m | 5.6m/s | -53.8°C | 4.5% | 91.4hPa | 2.6V | 00:00:00 | 00:00:00 | 00:00:00 | |
| DG9SBQ-11 | 2026-09-01 23:44:27 | 48.83298 | 9.95296 | 63° | 46km/h | 17126m | 5.7m/s | -53.7°C | 1.4% | 91.6hPa | 2.6V | 00:00:00 | 00:00:00 | 00:00:00 | |
| DF7PN | 2026-09-01 23:44:26 | 48.83287 | 9.95265 | 59° | 44km/h | 17117m | 4.3m/s | -53.7°C | 1.4% | 91.8hPa | 2.6V | 00:00:00 | 00:00:00 | 00:00:00 | |
| DM0DOS-11 | 2026-09-01 23:44:25 | 48.83265 | 9.95191 | 75° | 44km/h | 17094m | 4.3m/s | -53.5°C | 4.4% | 92.1hPa | 2.6V | 08:30:00 | 01:15:25 | 00:00:00 | |
| DK7TD | 2026-09-01 23:44:24 | 48.83281 | 9.95251 | 60° | 42km/h | 17112m | 5m/s | -53.7°C | 0.9% | 91.8hPa | 2.6V | 18:12:15 | 01:15:29 | 00:00:00 | |
| DF1GD-15 | 2026-09-01 23:44:24 | 48.83281 | 9.95251 | 61° | 42km/h | 17113m | 5.0m/s | -53.7°C | 1.4% | 91.8hPa | 2.7V | 00:00:00 | 00:00:00 | 00:00:00 | |
| PG1ADW-2 | 2026-09-01 23:44:23 | 48.83276 | 9.95236 | 63° | 38km/h | 17108m | 3.5m/s | -53.6°C | 4.4% | 91.8hPa | 2.7V | 00:00:00 | 00:00:00 | 08:30:00 | |
| DO3MHA-12 | 2026-09-01 23:44:22 | 48.83271 | 9.95222 | 67° | 40km/h | 17104m | 4.6m/s | -53.6°C | 4.4% | 91.9hPa | 2.6V | 00:00:00 | 01:15:27 | 00:00:00 | |
| DB0NH | 2026-09-01 23:44:21 | 48.83268 | 9.95207 | 73° | 37km/h | 17099m | 4.9m/s | -53.5°C | 4.4% | 92.0hPa | 2.6V | 00:00:00 | 01:15:26 | 00:00:00 | |
| DO3MHA-11 | 2026-09-01 23:44:20 | 48.83265 | 9.95191 | 76° | 37km/h | 17095m | 4.3m/s | -53.5°C | 4.4% | 92.0hPa | 2.6V | 00:00:00 | 01:15:25 | 08:30:00 | |
| DM7RM-13 | 2026-09-01 23:44:18 | 48.83260 | 9.95159 | 78° | 40km/h | 17085m | 6.0m/s | -53.5°C | 1.4% | 92.2hPa | 2.7V | 00:00:00 | 00:00:00 | 00:00:00 | |
| DJ8HS-15 | 2026-09-01 23:44:17 | 48.83257 | 9.95145 | 74° | 35km/h | 17080m | 4.2m/s | -53.4°C | 4.4% | 92.2hPa | 2.7V | 00:00:00 | 01:15:22 | 08:30:00 | |
| DG9SBQ-11 | 2026-09-01 23:44:16 | 48.83255 | 9.95132 | 71° | 37km/h | 17075m | 4.9m/s | -53.4°C | 1.3% | 92.4hPa | 2.6V | 00:00:00 | 00:00:00 | 00:00:00 | |
| DM0DOS-11 | 2026-09-01 23:44:15 | 48.83231 | 9.95060 | 63° | 35km/h | 17046m | 4.8m/s | -53.1°C | 4.3% | 92.8hPa | 2.6V | 08:30:00 | 01:15:15 | 00:00:00 | |
| DK7TD | 2026-09-01 23:44:14 | 48.83247 | 9.95106 | 64° | 37km/h | 17065m | 4.3m/s | -53.3°C | 0.8% | 92.5hPa | 2.6V | 18:12:15 | 01:15:19 | 00:00:00 | |
| SONCRA | 2026-09-01 23:44:13 | 48.83243 | 9.95094 | 62° | 33km/h | 17060m | 5.3m/s | -53.3°C | 1.3% | 92.6hPa | 2.7V | 00:00:00 | 00:00:00 | 00:00:00 | |
| DO3MHA-12 | 2026-09-01 23:44:12 | 48.83239 | 9.95082 | 62° | 37km/h | 17055m | 5.1m/s | -53.2°C | 4.3% | 92.6hPa | 2.7V | 00:00:00 | 01:15:17 | 08:30:00 | |
| DO3MHA-11 | 2026-09-01 23:44:10 | 48.83231 | 9.95060 | 64° | 37km/h | 17046m | 4.8m/s | -53.1°C | 4.3% | 92.8hPa | 2.6V | 00:00:00 | 01:15:15 | 00:00:00 | |
| DO9HM | 2026-09-01 23:44:07 | 48.83219 | 9.95019 | 70° | 40km/h | 17033m | 4.3m/s | -53.1°C | 1.4% | 93.0hPa | 2.6V | 00:00:00 | 00:00:00 | 00:00:00 | |
| DM0DOS-11 | 2026-09-01 23:44:05 | 48.83205 | 9.94928 | 82° | 31km/h | 16999m | 5.9m/s | -53.2°C | 4.3% | 93.5hPa | 2.6V | 08:30:00 | 01:15:05 | 00:00:00 | |
| DK7TD | 2026-09-01 23:44:03 | 48.83209 | 9.94966 | 79° | 35km/h | 17013m | 5.9m/s | -53.1°C | 0.8% | 93.2hPa | 2.7V | 18:12:15 | 01:15:08 | 00:00:00 | |
| DF1GD-15 | 2026-09-01 23:44:03 | 48.83210 | 9.94966 | 80° | 35km/h | 17013m | 5.9m/s | -53.1°C | 1.4% | 93.3hPa | 2.6V | 00:00:00 | 00:00:00 | 00:00:00 | |
| DO3MHA-12 | 2026-09-01 23:44:02 | 48.83208 | 9.94953 | 81° | 33km/h | 17008m | 4.3m/s | -53.1°C | 4.3% | 93.3hPa | 2.6V | 00:00:00 | 01:15:07 | 00:00:00 | |
| DF7PN | 2026-09-01 23:43:55 | 48.83195 | 9.94855 | 80° | 35km/h | 16971m | 5.3m/s | -53.2°C | 1.3% | 93.9hPa | 2.6V | 00:00:00 | 00:00:00 | 00:00:00 | |
| DL6DJ-15 | 2026-09-01 23:43:54 | 48.83194 | 9.94842 | 83° | 33km/h | 16966m | 4.7m/s | -53.2°C | 1.3% | 94.0hPa | 2.6V | 00:00:00 | 00:00:00 | 00:00:00 | |
| DM0DOS-11 | 2026-09-01 23:43:52 | 48.83191 | 9.94805 | 81° | 31km/h | 16951m | 4.4m/s | -53.1°C | 4.3% | 94.2hPa | 2.6V | 08:30:00 | 01:14:55 | 00:00:00 | |
| DK7TD | 2026-09-01 23:43:52 | 48.83193 | 9.94829 | 83° | 33km/h | 16961m | 4.9m/s | -53.2°C | 0.8% | 94hPa | 2.7V | 18:12:15 | 01:14:57 | 00:00:00 | |
| DO3MHA-12 | 2026-09-01 23:43:52 | 48.83193 | 9.94829 | 83° | 29km/h | 16962m | 4.9m/s | -53.1°C | 4.3% | 94.0hPa | 2.6V | 00:00:00 | 01:14:57 | 00:00:00 | |
| AZAK | 2026-09-01 23:43:51 | 48.83192 | 9.94817 | 82° | 33km/h | 16956m | 5.3m/s | -53.1°C | 1.3% | 94.1hPa | 2.6V | 00:00:00 | 00:00:00 | 00:00:00 | |
| DO3MHA-11 | 2026-09-01 23:43:50 | 48.83190 | 9.94805 | 82° | 31km/h | 16951m | 4.4m/s | -53.1°C | 4.3% | 94.1hPa | 2.6V | 00:00:00 | 01:14:55 | 00:00:00 | |
| DG9SBQ-11 | 2026-09-01 23:43:49 | 48.83189 | 9.94794 | 83° | 27km/h | 16946m | 5.7m/s | -53.1°C | 1.3% | 94.2hPa | 2.6V | 00:00:00 | 00:00:00 | 00:00:00 | |
| DO9HM | 2026-09-01 23:43:46 | 48.83188 | 9.94775 | 86° | 24km/h | 16937m | 3.7m/s | -53.1°C | 1.4% | 94.4hPa | 2.6V | 00:00:00 | 00:00:00 | 00:00:00 | |
| DM0DOS-11 | 2026-09-01 23:43:45 | 48.83186 | 9.94689 | 94° | 37km/h | 16905m | 4m/s | -53°C | 4.3% | 94.8hPa | 2.6V | 08:30:00 | 01:14:45 | 00:00:00 | |
| DK7TD | 2026-09-01 23:43:42 | 48.83185 | 9.94717 | 90° | 35km/h | 16915m | 5.1m/s | -53°C | 0.8% | 94.7hPa | 2.7V | 18:12:15 | 01:14:47 | 00:00:00 | |
| DO3MHA-12 | 2026-09-01 23:43:42 | 48.83185 | 9.94717 | 91° | 37km/h | 16915m | 5.0m/s | -53.0°C | 4.2% | 94.7hPa | 2.7V | 00:00:00 | 01:14:47 | 00:00:00 | |
| OE5DXL-15 | 2026-09-01 23:43:41 | 48.83185 | 9.94703 | 95° | 38km/h | 16910m | 4.6m/s | -53.0°C | 4.2% | 94.7hPa | 2.6V | 00:00:00 | 00:00:00 | 00:00:00 | |
| DF3TZ-5 | 2026-09-01 23:43:40 | 48.83186 | 9.94675 | 91° | 37km/h | 16901m | 5.4m/s | -53.0°C | 1.3% | 94.9hPa | 2.6V | 00:00:00 | 00:00:00 | 00:00:00 | |
| DJ8HS-15 | 2026-09-01 23:43:37 | 48.83187 | 9.94646 | 93° | 38km/h | 16891m | 4.7m/s | -53.0°C | 4.2% | 95.0hPa | 2.6V | 00:00:00 | 01:14:42 | 00:00:00 | |
| DM0DOS-11 | 2026-09-01 23:43:35 | 48.83188 | 9.94553 | 94° | 33km/h | 16858m | 4.4m/s | -52.9°C | 4.3% | 95.5hPa | 2.6V | 08:30:00 | 01:14:35 | 00:00:00 | |
| DK7TD | 2026-09-01 23:43:31 | 48.83188 | 9.94565 | 91° | 33km/h | 16863m | 5.5m/s | -52.9°C | 0.7% | 95.5hPa | 2.6V | 18:12:15 | 01:14:36 | 00:00:00 | |
| DO3MHA-11 | 2026-09-01 23:43:30 | 48.83188 | 9.94553 | 95° | 40km/h | 16858m | 4.4m/s | -52.9°C | 4.3% | 95.5hPa | 2.6V | 00:00:00 | 01:14:35 | 00:00:00 | |
| OE3JTB-15 | 2026-09-01 23:43:29 | 48.83189 | 9.94540 | 95° | 42km/h | 16854m | 3.8m/s | -52.9°C | 4.3% | 95.5hPa | 2.6V | 00:00:00 | 00:00:00 | 08:30:00 | |
| DG9SBQ-11 | 2026-09-01 23:43:28 | 48.83190 | 9.94526 | 94° | 37km/h | 16850m | 4.8m/s | -53.0°C | 1.3% | 95.7hPa | 2.6V | 00:00:00 | 00:00:00 | 00:00:00 | |
| DO9HM | 2026-09-01 23:43:27 | 48.83190 | 9.94511 | 91° | 40km/h | 16845m | 4.9m/s | -53.0°C | 1.3% | 95.7hPa | 2.6V | 00:00:00 | 00:00:00 | 00:00:00 | |
| DH7VM-15 | 2026-09-01 23:43:26 | 48.83190 | 9.94511 | 91° | 40km/h | 16845m | 4.9m/s | -53.0°C | 1.3% | 95.7hPa | 2.6V | 00:00:00 | 00:00:00 | 00:00:00 | |
| DM0DOS-11 | 2026-09-01 23:43:25 | 48.83189 | 9.94398 | 89° | 44km/h | 16811m | 4.9m/s | -53.1°C | 4.3% | 96.2hPa | 2.6V | 08:30:00 | 01:14:25 | 00:00:00 | |
| DK7TD | 2026-09-01 23:43:21 | 48.83189 | 9.94415 | 88° | 44km/h | 16816m | 4.3m/s | -53.1°C | 0.7% | 96.1hPa | 2.6V | 18:12:15 | 01:14:26 | 00:00:00 | |
| DB0NH | 2026-09-01 23:43:21 | 48.83189 | 9.94415 | 88° | 44km/h | 16816m | 4.3m/s | -53.0°C | 4.2% | 96.1hPa | 2.6V | 00:00:00 | 01:14:26 | 00:00:00 | |
| DO3MHA-11 | 2026-09-01 23:43:20 | 48.83188 | 9.94398 | 90° | 42km/h | 16812m | 4.8m/s | -53.0°C | 4.3% | 96.2hPa | 2.6V | 00:00:00 | 01:14:25 | 00:00:00 | |
| DJ8HS-15 | 2026-09-01 23:43:17 | 48.83190 | 9.94350 | 96° | 44km/h | 16798m | 5.0m/s | -53.1°C | 4.3% | 96.4hPa | 2.7V | 00:00:00 | 01:14:22 | 00:00:00 | |
| NBG1-10 | 2026-09-01 23:43:16 | 48.83191 | 9.94333 | 96° | 46km/h | 16792m | 4.9m/s | -53.2°C | 4.4% | 96.5hPa | 2.6V | 00:00:00 | 01:14:21 | 00:00:00 | |
| DM0DOS-11 | 2026-09-01 23:43:15 | 48.83196 | 9.94240 | 89° | 40km/h | 16765m | 5.7m/s | -53.2°C | 4.3% | 96.9hPa | 2.6V | 08:30:00 | 01:14:15 | 00:00:00 | |
| DK7TD | 2026-09-01 23:43:10 | 48.83196 | 9.94240 | 90° | 40km/h | 16765m | 5.7m/s | -53.2°C | 0.8% | 96.9hPa | 2.6V | 18:12:15 | 01:14:15 | 00:00:00 | |
| AZAK | 2026-09-01 23:43:10 | 48.83196 | 9.94240 | 91° | 40km/h | 16765m | 5.7m/s | -53.2°C | 1.3% | 96.9hPa | 2.6V | 00:00:00 | 00:00:00 | 00:00:00 | |
| DF3TZ-5 | 2026-09-01 23:43:08 | 48.83196 | 9.94207 | 88° | 42km/h | 16756m | 4.3m/s | -53.2°C | 1.3% | 97.0hPa | 2.6V | 00:00:00 | 00:00:00 | 00:00:00 | |
| DG9SBQ-11 | 2026-09-01 23:43:06 | 48.83195 | 9.94191 | 90° | 42km/h | 16752m | 4.8m/s | -53.2°C | 1.4% | 97.1hPa | 2.6V | 00:00:00 | 00:00:00 | 00:00:00 | |
| DM0DOS-11 | 2026-09-01 23:43:04 | 48.83192 | 9.94075 | 88° | 47km/h | 16720m | 4.7m/s | -53.1°C | 4.3% | 97.6hPa | 2.6V | 08:30:00 | 01:14:05 | 00:00:00 | |
| DK7TD | 2026-09-01 23:43:00 | 48.83192 | 9.94075 | 88° | 47km/h | 16720m | 4.7m/s | -53.1°C | 0.8% | 97.6hPa | 2.6V | 18:12:15 | 01:14:05 | 00:00:00 | |
| DO3MHA-11 | 2026-09-01 23:43:00 | 48.83192 | 9.94075 | 89° | 49km/h | 16720m | 4.6m/s | -53.0°C | 4.3% | 97.6hPa | 2.6V | 00:00:00 | 01:14:05 | 00:00:00 | |
| OE3JTB-15 | 2026-09-01 23:42:58 | 48.83191 | 9.94038 | 89° | 51km/h | 16711m | 5.3m/s | -53.0°C | 4.3% | 97.7hPa | 2.6V | 00:00:00 | 00:00:00 | 00:00:00 | |
| DJ8HS-15 | 2026-09-01 23:42:57 | 48.83191 | 9.94019 | 89° | 51km/h | 16706m | 4.8m/s | -53.0°C | 4.3% | 97.8hPa | 2.6V | 00:00:00 | 01:14:02 | 00:00:00 | |
| OE5DRO-10 | 2026-09-01 23:42:55 | 48.83191 | 9.93982 | 92° | 53km/h | 16697m | 5.1m/s | -53.0°C | 4.3% | 97.9hPa | 2.6V | 00:00:00 | 00:00:00 | 00:00:00 | |
| DM0DOS-11 | 2026-09-01 23:42:53 | 48.83192 | 9.93887 | 90° | 51km/h | 16674m | 4.9m/s | -53°C | 4.2% | 98.3hPa | 2.6V | 08:30:00 | 01:13:55 | 00:00:00 | |
| DK7TD | 2026-09-01 23:42:50 | 48.83192 | 9.93887 | 91° | 51km/h | 16674m | 4.9m/s | -53°C | 0.8% | 98.3hPa | 2.6V | 18:12:15 | 01:13:55 | 00:00:00 | |
| AZAK | 2026-09-01 23:42:50 | 48.83192 | 9.93887 | 92° | 51km/h | 16674m | 4.9m/s | -53.0°C | 1.3% | 98.3hPa | 2.6V | 00:00:00 | 00:00:00 | 00:00:00 | |
| DG9SBQ-11 | 2026-09-01 23:42:45 | 48.83192 | 9.93808 | 88° | 55km/h | 16655m | 4.1m/s | -52.9°C | 1.3% | 98.6hPa | 2.6V | 00:00:00 | 00:00:00 | 00:00:00 | |
| DO9HM | 2026-09-01 23:42:44 | 48.83190 | 9.93766 | 89° | 53km/h | 16646m | 4.9m/s | -52.9°C | 1.4% | 98.7hPa | 2.6V | 00:00:00 | 00:00:00 | 00:00:00 | |
| PG1ADW-2 | 2026-09-01 23:42:43 | 48.83190 | 9.93746 | 88° | 55km/h | 16642m | 3.5m/s | -52.8°C | 4.3% | 98.7hPa | 2.6V | 00:00:00 | 00:00:00 | 00:00:00 | |
| DM0DOS-11 | 2026-09-01 23:42:42 | 48.83187 | 9.93685 | 85° | 57km/h | 16628m | 4.4m/s | -52.8°C | 4.3% | 99hPa | 2.6V | 08:30:00 | 01:13:45 | 00:00:00 | |
| DK7TD | 2026-09-01 23:42:40 | 48.83187 | 9.93685 | 86° | 57km/h | 16628m | 4.4m/s | -52.8°C | 0.8% | 99hPa | 2.6V | 18:12:15 | 01:13:45 | 00:00:00 | |
| DG9SBQ-11 | 2026-09-01 23:42:40 | 48.83187 | 9.93685 | 87° | 57km/h | 16629m | 4.4m/s | -52.8°C | 1.4% | 99.0hPa | 2.6V | 00:00:00 | 00:00:00 | 00:00:00 | |
| DJ8HS-15 | 2026-09-01 23:42:37 | 48.83186 | 9.93622 | 92° | 55km/h | 16615m | 3.8m/s | -52.8°C | 4.3% | 99.2hPa | 2.6V | 00:00:00 | 01:13:42 | 00:00:00 | |
| OE5DRO-10 | 2026-09-01 23:42:36 | 48.83186 | 9.93602 | 91° | 57km/h | 16611m | 4.8m/s | -52.8°C | 4.3% | 99.2hPa | 2.6V | 00:00:00 | 00:00:00 | 00:00:00 | |
| DM0DOS-11 | 2026-09-01 23:42:35 | 48.83181 | 9.93482 | 82° | 53km/h | 16583m | 5.2m/s | -52.9°C | 4.4% | 99.7hPa | 2.6V | 08:30:00 | 01:13:35 | 00:00:00 | |
| DK7TD | 2026-09-01 23:42:29 | 48.83179 | 9.93461 | 80° | 57km/h | 16579m | 4.5m/s | -52.8°C | 0.9% | 99.8hPa | 2.6V | 18:12:15 | 01:13:34 | 00:00:00 | |
| OE3JTB-15 | 2026-09-01 23:42:29 | 48.83179 | 9.93461 | 81° | 57km/h | 16579m | 4.5m/s | -52.8°C | 4.3% | 99.7hPa | 2.6V | 00:00:00 | 01:13:34 | 00:00:00 | |
| DG9SBQ-11 | 2026-09-01 23:42:28 | 48.83179 | 9.93461 | 81° | 57km/h | 16579m | 4.5m/s | -52.8°C | 1.4% | 99.8hPa | 2.6V | 00:00:00 | 00:00:00 | 00:00:00 | |
| DO9HM | 2026-09-01 23:42:24 | 48.83172 | 9.93354 | 93° | 60km/h | 16558m | 5.3m/s | -52.8°C | 1.4% | 100.1hPa | 2.6V | 00:00:00 | 00:00:00 | 00:00:00 | |
| DM0DOS-11 | 2026-09-01 23:42:23 | 48.83174 | 9.93264 | 88° | 55km/h | 16540m | 4.3m/s | -52.8°C | 4.2% | 100.4hPa | 2.6V | 08:30:00 | 01:13:25 | 00:00:00 | |
| DK7TD | 2026-09-01 23:42:19 | 48.83173 | 9.93243 | 85° | 55km/h | 16536m | 4.3m/s | -52.8°C | 0.9% | 100.4hPa | 2.6V | 18:12:15 | 01:13:24 | 00:00:00 | |
| DG9SBQ-11 | 2026-09-01 23:42:18 | 48.83172 | 9.93222 | 84° | 57km/h | 16531m | 5.1m/s | -52.8°C | 1.4% | 100.5hPa | 2.7V | 00:00:00 | 00:00:00 | 00:00:00 | |
| DJ8HS-15 | 2026-09-01 23:42:17 | 48.83170 | 9.93201 | 81° | 53km/h | 16527m | 4.0m/s | -52.8°C | 4.3% | 100.5hPa | 2.7V | 00:00:00 | 01:13:22 | 00:00:00 | |
| DM0DOS-11 | 2026-09-01 23:42:13 | 48.83158 | 9.93061 | 90° | 53km/h | 16495m | 5m/s | -52.8°C | 4.3% | 101hPa | 2.6V | 08:30:00 | 01:13:15 | 00:00:00 | |
| DK7TD | 2026-09-01 23:42:08 | 48.83160 | 9.93021 | 94° | 53km/h | 16487m | 4.4m/s | -52.8°C | 0.9% | 101.2hPa | 2.7V | 18:12:15 | 01:13:13 | 00:00:00 | |
| DG9SBQ-11 | 2026-09-01 23:42:07 | 48.83160 | 9.93001 | 95° | 55km/h | 16482m | 5.0m/s | -52.8°C | 1.4% | 101.2hPa | 2.6V | 00:00:00 | 00:00:00 | 00:00:00 | |
| DF3TZ-5 | 2026-09-01 23:42:06 | 48.83161 | 9.92980 | 92° | 53km/h | 16478m | 3.9m/s | -52.8°C | 1.4% | 101.3hPa | 2.6V | 00:00:00 | 00:00:00 | 00:00:00 | |
| DM0DOS-11 | 2026-09-01 23:42:03 | 48.83158 | 9.92860 | 83° | 55km/h | 16452m | 3.9m/s | -52.6°C | 4.2% | 101.8hPa | 2.6V | 08:30:00 | 01:13:05 | 00:00:00 | |
| DK7TD | 2026-09-01 23:41:57 | 48.83154 | 9.92800 | 86° | 51km/h | 16439m | 3.6m/s | -52.6°C | 0.8% | 102hPa | 2.7V | 18:12:15 | 01:13:02 | 00:00:00 | |
| DJ8HS-15 | 2026-09-01 23:41:57 | 48.83154 | 9.92800 | 87° | 53km/h | 16439m | 3.6m/s | -52.6°C | 4.1% | 101.9hPa | 2.6V | 00:00:00 | 01:13:02 | 00:00:00 | |
| DG9SBQ-11 | 2026-09-01 23:41:55 | 48.83153 | 9.92759 | 91° | 57km/h | 16431m | 4.2m/s | -52.7°C | 1.4% | 102.1hPa | 2.6V | 00:00:00 | 00:00:00 | 00:00:00 | |
| DM0DOS-11 | 2026-09-01 23:41:53 | 48.83155 | 9.92655 | 93° | 53km/h | 16409m | 4.7m/s | -52.8°C | 4.3% | 102.4hPa | 2.6V | 08:30:00 | 01:12:55 | 00:00:00 | |
| DK7TD | 2026-09-01 23:41:47 | 48.83160 | 9.92594 | 99° | 53km/h | 16395m | 5.2m/s | -52.9°C | 1% | 102.6hPa | 2.7V | 18:12:15 | 01:12:52 | 00:00:00 | |
| DM0DOS-11 | 2026-09-01 23:41:43 | 48.83170 | 9.92459 | 91° | 47km/h | 16365m | 3.5m/s | -53.4°C | 4.4% | 103.1hPa | 2.6V | 08:30:00 | 01:12:45 | 00:00:00 | |
| DK7TD | 2026-09-01 23:41:36 | 48.83172 | 9.92380 | 93° | 55km/h | 16348m | 4.9m/s | -53.4°C | 1% | 103.4hPa | 2.6V | 18:12:15 | 01:12:41 | 00:00:00 | |
| DF3TZ-5 | 2026-09-01 23:41:35 | 48.83172 | 9.92359 | 93° | 55km/h | 16343m | 3.5m/s | -53.4°C | 1.5% | 103.5hPa | 2.6V | 00:00:00 | 00:00:00 | 00:00:00 | |
| DM0DOS-11 | 2026-09-01 23:41:33 | 48.83176 | 9.92245 | 93° | 60km/h | 16322m | 4m/s | -53.4°C | 4.4% | 103.8hPa | 2.6V | 08:30:00 | 01:12:35 | 00:00:00 | |
| DK7TD | 2026-09-01 23:41:25 | 48.83184 | 9.92130 | 98° | 58km/h | 16301m | 3.8m/s | -53.5°C | 1.1% | 104.1hPa | 2.6V | 18:12:15 | 01:12:30 | 00:00:00 | |
| DK7TD | 2026-09-01 23:41:15 | 48.83192 | 9.91913 | 94° | 55km/h | 16260m | 4.7m/s | -53.6°C | 1.2% | 104.8hPa | 2.6V | 18:12:15 | 01:12:20 | 00:00:00 | |
| DK7TD | 2026-09-01 23:41:04 | 48.83202 | 9.91671 | 94° | 60km/h | 16213m | 4.4m/s | -54.2°C | 1.3% | 105.6hPa | 2.6V | 18:12:15 | 01:12:09 | 00:00:00 | |
| DK7TD | 2026-09-01 23:40:54 | 48.83208 | 9.91431 | 91° | 60km/h | 16171m | 4.9m/s | -54.5°C | 1.3% | 106.3hPa | 2.6V | 18:12:15 | 01:11:59 | 00:00:00 | |
| DG9SBQ-11 | 2026-09-01 23:40:53 | 48.83208 | 9.91408 | 92° | 58km/h | 16167m | 3.6m/s | -54.4°C | 1.7% | 106.4hPa | 2.6V | 00:00:00 | 00:00:00 | 00:00:00 | |
| DM0DOS-11 | 2026-09-01 23:40:52 | 48.83211 | 9.91286 | 94° | 64km/h | 16146m | 4.4m/s | -54.3°C | 4.8% | 106.7hPa | 2.6V | 08:30:00 | 01:11:53 | 00:00:00 | |
| DK7TD | 2026-09-01 23:40:44 | 48.83212 | 9.91194 | 86° | 57km/h | 16128m | 3.4m/s | -54.3°C | 1.3% | 107hPa | 2.6V | 18:12:15 | 01:11:49 | 00:00:00 | |
| PG1ADW-2 | 2026-09-01 23:40:43 | 48.83211 | 9.91172 | 86° | 51km/h | 16125m | 4.9m/s | -54.2°C | 4.8% | 107.0hPa | 2.6V | 00:00:00 | 00:00:00 | 00:00:00 | |
| DM0DOS-11 | 2026-09-01 23:40:42 | 48.83207 | 9.91071 | 88° | 57km/h | 16103m | 3.3m/s | -54.3°C | 4.9% | 107.4hPa | 2.6V | 08:30:00 | 01:11:43 | 00:00:00 | |
| DK7TD | 2026-09-01 23:40:33 | 48.83210 | 9.90965 | 93° | 57km/h | 16081m | 4.5m/s | -54.2°C | 1.3% | 107.8hPa | 2.6V | 18:12:15 | 01:11:38 | 00:00:00 | |
| OE5DRO-10 | 2026-09-01 23:40:33 | 48.83210 | 9.90964 | 94° | 47km/h | 16081m | 4.4m/s | -54.2°C | 4.8% | 107.7hPa | 2.6V | 00:00:00 | 00:00:00 | 00:00:00 | |
| DM0DOS-11 | 2026-09-01 23:40:32 | 48.83212 | 9.90867 | 85° | 47km/h | 16059m | 4.5m/s | -54.2°C | 4.8% | 108.1hPa | 2.6V | 08:30:00 | 01:11:33 | 00:00:00 | |
| DK7TD | 2026-09-01 23:40:23 | 48.83211 | 9.90784 | 98° | 44km/h | 16037m | 4.7m/s | -54.1°C | 1.3% | 108.5hPa | 2.7V | 18:12:15 | 01:11:28 | 00:00:00 | |
| DK7TD | 2026-09-01 23:40:13 | 48.83227 | 9.90609 | 101° | 42km/h | 15993m | 4.1m/s | -53.8°C | 1.3% | 109.3hPa | 2.7V | 18:12:15 | 01:11:18 | 00:00:00 | |
| DM0DOS-11 | 2026-09-01 23:40:12 | 48.83241 | 9.90528 | 107° | 46km/h | 15970m | 4.4m/s | -53.7°C | 4.7% | 109.7hPa | 2.7V | 08:30:00 | 01:11:13 | 00:00:00 | |
| DK7TD | 2026-09-01 23:40:02 | 48.83256 | 9.90421 | 103° | 47km/h | 15943m | 4.1m/s | -53.8°C | 1.3% | 110.1hPa | 2.7V | 18:12:15 | 01:11:07 | 00:00:00 | |
| DK7TD | 2026-09-01 23:39:51 | 48.83290 | 9.90233 | 106° | 51km/h | 15897m | 5.7m/s | -53.7°C | 1.3% | 111hPa | 2.7V | 18:12:15 | 01:10:56 | 00:00:00 | |
| DB0NH | 2026-09-01 23:39:51 | 48.83290 | 9.90233 | 107° | 58km/h | 15897m | 5.6m/s | -53.7°C | 4.7% | 110.9hPa | 2.6V | 00:00:00 | 01:10:56 | 00:00:00 | |
| DO3MHA-11 | 2026-09-01 23:39:50 | 48.83294 | 9.90214 | 108° | 55km/h | 15892m | 4.0m/s | -53.7°C | 4.7% | 111.0hPa | 2.6V | 00:00:00 | 01:10:55 | 08:30:00 | |
| DN1GJH-1 | 2026-09-01 23:39:48 | 48.83298 | 9.90193 | 107° | 58km/h | 15888m | 3.4m/s | -53.7°C | 1.7% | 111.1hPa | 2.7V | 00:00:00 | 00:00:00 | 00:00:00 | |
| DM0DOS-11 | 2026-09-01 23:39:47 | 48.83319 | 9.90048 | 102° | 49km/h | 15857m | 5m/s | -53.8°C | 4.6% | 111.7hPa | 2.7V | 08:30:00 | 01:10:47 | 00:00:00 | |
| DB0ND-19 | 2026-09-01 23:39:46 | 48.83310 | 9.90107 | 101° | 55km/h | 15870m | 5.3m/s | -53.7°C | 1.6% | 111.4hPa | 2.7V | 00:00:00 | 00:00:00 | 00:00:00 | |
| DL6DJ-15 | 2026-09-01 23:39:45 | 48.83310 | 9.90107 | 101° | 55km/h | 15870m | 5.3m/s | -53.7°C | 1.6% | 111.4hPa | 2.7V | 00:00:00 | 00:00:00 | 00:00:00 | |
| DK7TD | 2026-09-01 23:39:41 | 48.83321 | 9.90030 | 101° | 49km/h | 15852m | 4.2m/s | -53.9°C | 1.3% | 111.7hPa | 2.7V | 18:12:15 | 01:10:46 | 00:00:00 | |
| OE5DXL-15 | 2026-09-01 23:39:41 | 48.83321 | 9.90030 | 102° | 62km/h | 15852m | 4.1m/s | -53.8°C | 4.7% | 111.7hPa | 2.7V | 00:00:00 | 00:00:00 | 00:00:00 | |
| DH7VM-15 | 2026-09-01 23:39:40 | 48.83324 | 9.90011 | 104° | 51km/h | 15848m | 3.9m/s | -53.9°C | 1.7% | 111.8hPa | 2.7V | 00:00:00 | 00:00:00 | 00:00:00 | |
| DM0DOS-11 | 2026-09-01 23:39:37 | 48.83355 | 9.89830 | 105° | 64km/h | 15813m | 3.7m/s | -53.8°C | 4.8% | 112.4hPa | 2.7V | 08:30:00 | 01:10:37 | 00:00:00 | |
| DK7TD | 2026-09-01 23:39:31 | 48.83359 | 9.89806 | 103° | 62km/h | 15809m | 4.9m/s | -53.9°C | 1.3% | 112.5hPa | 2.7V | 18:12:15 | 01:10:36 | 00:00:00 | |
| DG9SBQ-11 | 2026-09-01 23:39:31 | 48.83360 | 9.89806 | 104° | 62km/h | 15809m | 4.9m/s | -53.9°C | 1.7% | 112.5hPa | 2.7V | 00:00:00 | 00:00:00 | 00:00:00 | |
| DO3MHA-11 | 2026-09-01 23:39:30 | 48.83362 | 9.89783 | 100° | 64km/h | 15804m | 4.5m/s | -53.8°C | 4.8% | 112.5hPa | 2.7V | 00:00:00 | 01:10:35 | 00:00:00 | |
| DN1GJH-1 | 2026-09-01 23:39:28 | 48.83364 | 9.89760 | 99° | 58km/h | 15801m | 3.7m/s | -53.9°C | 1.8% | 112.6hPa | 2.7V | 00:00:00 | 00:00:00 | 00:00:00 | |
| DM0DOS-11 | 2026-09-01 23:39:27 | 48.83383 | 9.89594 | 101° | 69km/h | 15770m | 5m/s | -53.8°C | 4.7% | 113.2hPa | 2.7V | 08:30:00 | 01:10:27 | 00:00:00 | |
| DK7TD | 2026-09-01 23:39:21 | 48.83387 | 9.89568 | 103° | 71km/h | 15765m | 4.3m/s | -53.8°C | 1.3% | 113.2hPa | 2.6V | 18:12:15 | 01:10:26 | 00:00:00 | |
| DB0NH | 2026-09-01 23:39:21 | 48.83387 | 9.89568 | 103° | 66km/h | 15766m | 4.2m/s | -53.8°C | 4.8% | 113.2hPa | 2.7V | 00:00:00 | 01:10:26 | 00:00:00 | |
| DO9HM | 2026-09-01 23:39:20 | 48.83391 | 9.89541 | 103° | 73km/h | 15762m | 4.2m/s | -53.8°C | 1.7% | 113.3hPa | 2.7V | 00:00:00 | 00:00:00 | 00:00:00 | |
| DG9SBQ-11 | 2026-09-01 23:39:19 | 48.83394 | 9.89514 | 101° | 73km/h | 15757m | 5.0m/s | -53.8°C | 1.7% | 113.4hPa | 2.7V | 00:00:00 | 00:00:00 | 00:00:00 | |
| OE5DRO-10 | 2026-09-01 23:39:17 | 48.83400 | 9.89460 | 99° | 64km/h | 15748m | 4.1m/s | -53.7°C | 4.8% | 113.5hPa | 2.7V | 00:00:00 | 00:00:00 | 08:30:00 | |
| DF7PN | 2026-09-01 23:39:15 | 48.83405 | 9.89411 | 98° | 60km/h | 15739m | 3.8m/s | -53.7°C | 1.7% | 113.7hPa | 2.7V | 00:00:00 | 00:00:00 | 00:00:00 | |
| DM0DOS-11 | 2026-09-01 23:39:12 | 48.83413 | 9.89297 | 96° | 58km/h | 15717m | 4.3m/s | -53.6°C | 4.7% | 114.1hPa | 2.7V | 08:30:00 | 01:10:15 | 00:00:00 | |
| DK7TD | 2026-09-01 23:39:11 | 48.83411 | 9.89320 | 95° | 58km/h | 15722m | 4.6m/s | -53.6°C | 1.3% | 114hPa | 2.7V | 18:12:15 | 01:10:16 | 00:00:00 | |
| OE5DXL-15 | 2026-09-01 23:39:11 | 48.83411 | 9.89320 | 95° | 68km/h | 15722m | 4.5m/s | -53.6°C | 4.7% | 113.9hPa | 2.7V | 00:00:00 | 00:00:00 | 00:00:00 | |
| DO3MHA-11 | 2026-09-01 23:39:10 | 48.83412 | 9.89297 | 97° | 64km/h | 15718m | 4.3m/s | -53.6°C | 4.7% | 114.0hPa | 2.7V | 00:00:00 | 01:10:15 | 00:00:00 | |
| DG9SBQ-11 | 2026-09-01 23:39:08 | 48.83415 | 9.89253 | 95° | 58km/h | 15709m | 4.7m/s | -53.6°C | 1.6% | 114.2hPa | 2.7V | 00:00:00 | 00:00:00 | 00:00:00 | |
| DM7RM-13 | 2026-09-01 23:39:06 | 48.83416 | 9.89230 | 94° | 60km/h | 15705m | 4.3m/s | -53.6°C | 1.7% | 114.3hPa | 2.7V | 00:00:00 | 00:00:00 | 00:00:00 | |
| DJTTGO | 2026-09-01 23:39:04 | 48.83418 | 9.89182 | 96° | 64km/h | 15697m | 4.9m/s | -53.6°C | 1.6% | 114.5hPa | 2.7V | 00:00:00 | 00:00:00 | 00:00:00 | |
| PG1ADW-2 | 2026-09-01 23:39:03 | 48.83421 | 9.89131 | 97° | 69km/h | 15689m | 3.6m/s | -53.6°C | 4.7% | 114.5hPa | 2.7V | 00:00:00 | 00:00:00 | 00:00:00 | |
| DM0DOS-11 | 2026-09-01 23:39:02 | 48.83427 | 9.89048 | 95° | 73km/h | 15676m | 3.9m/s | -53.6°C | 4.7% | 114.8hPa | 2.7V | 08:30:00 | 01:10:05 | 00:00:00 | |
| DK7TD | 2026-09-01 23:39:00 | 48.83427 | 9.89048 | 96° | 73km/h | 15676m | 3.9m/s | -53.6°C | 1.2% | 114.8hPa | 2.7V | 18:12:15 | 01:10:05 | 00:00:00 | |
| DO3MHA-11 | 2026-09-01 23:39:00 | 48.83427 | 9.89048 | 96° | 69km/h | 15676m | 3.8m/s | -53.6°C | 4.7% | 114.8hPa | 2.7V | 00:00:00 | 01:10:05 | 00:00:00 | |
| DO9HM | 2026-09-01 23:38:59 | 48.83429 | 9.89020 | 98° | 73km/h | 15671m | 5.0m/s | -53.6°C | 1.7% | 114.9hPa | 2.7V | 00:00:00 | 00:00:00 | 00:00:00 | |
| DK5PH-5 | 2026-09-01 23:38:58 | 48.83431 | 9.88993 | 98° | 66km/h | 15667m | 3.7m/s | -53.6°C | 4.7% | 114.9hPa | 2.7V | 00:00:00 | 01:10:03 | 00:00:00 | |
| DJ8HS-15 | 2026-09-01 23:38:57 | 48.83434 | 9.88967 | 96° | 68km/h | 15663m | 3.6m/s | -53.5°C | 4.7% | 115.0hPa | 2.7V | 00:00:00 | 01:10:02 | 00:00:00 | |
| DF1GD-15 | 2026-09-01 23:38:55 | 48.83435 | 9.88940 | 94° | 68km/h | 15659m | 4.9m/s | -53.6°C | 1.7% | 115.1hPa | 2.7V | 00:00:00 | 00:00:00 | 00:00:00 | |
| DM0DOS-11 | 2026-09-01 23:38:52 | 48.83438 | 9.88704 | 94° | 68km/h | 15620m | 2.9m/s | -53.3°C | 4.7% | 115.8hPa | 2.7V | 08:30:00 | 01:09:52 | 00:00:00 | |
| DK7TD | 2026-09-01 23:38:49 | 48.83436 | 9.88757 | 93° | 69km/h | 15628m | 5.1m/s | -53.3°C | 1.2% | 115.7hPa | 2.6V | 18:12:15 | 01:09:54 | 00:00:00 | |
| DF7PN | 2026-09-01 23:38:44 | 48.83442 | 9.88625 | 93° | 68km/h | 15607m | 4.3m/s | -53.2°C | 1.7% | 116.1hPa | 2.6V | 00:00:00 | 00:00:00 | 00:00:00 | |
| DK7TD | 2026-09-01 23:38:38 | 48.83443 | 9.88477 | 91° | 62km/h | 15580m | 5.1m/s | -53°C | 1.2% | 116.6hPa | 2.6V | 18:12:15 | 01:09:43 | 00:00:00 | |
| DJ8HS-15 | 2026-09-01 23:38:37 | 48.83443 | 9.88453 | 94° | 62km/h | 15576m | 3.9m/s | -53.0°C | 4.5% | 116.6hPa | 2.7V | 00:00:00 | 01:09:42 | 00:00:00 | |
| DF1GD-15 | 2026-09-01 23:38:35 | 48.83446 | 9.88404 | 97° | 68km/h | 15567m | 4.8m/s | -53.0°C | 1.6% | 116.8hPa | 2.7V | 00:00:00 | 00:00:00 | 00:00:00 | |
| DM0DOS-11 | 2026-09-01 23:38:32 | 48.83457 | 9.88277 | 95° | 64km/h | 15547m | 4.4m/s | -52.9°C | 4.5% | 117.1hPa | 2.7V | 08:30:00 | 01:09:35 | 00:00:00 | |
| DK7TD | 2026-09-01 23:38:28 | 48.83459 | 9.88229 | 91° | 64km/h | 15538m | 3.7m/s | -52.9°C | 1.1% | 117.3hPa | 2.6V | 18:12:15 | 01:09:33 | 00:00:00 | |
| DK7TD | 2026-09-01 23:38:17 | 48.83469 | 9.87974 | 91° | 60km/h | 15490m | 3.2m/s | -52.7°C | 1% | 118.2hPa | 2.6V | 18:12:15 | 01:09:22 | 00:00:00 | |
| DJ8HS-15 | 2026-09-01 23:38:17 | 48.83469 | 9.87973 | 92° | 58km/h | 15490m | 3.2m/s | -52.7°C | 4.4% | 118.1hPa | 2.6V | 00:00:00 | 01:09:22 | 08:30:00 | |
| DG9SBQ-11 | 2026-09-01 23:38:16 | 48.83469 | 9.87973 | 92° | 60km/h | 15490m | 3.2m/s | -52.7°C | 1.5% | 118.2hPa | 2.7V | 00:00:00 | 00:00:00 | 00:00:00 | |
| DF1GD-15 | 2026-09-01 23:38:14 | 48.83469 | 9.87928 | 89° | 58km/h | 15481m | 4.0m/s | -52.7°C | 1.6% | 118.3hPa | 2.7V | 00:00:00 | 00:00:00 | 00:00:00 | |
| DF7PN | 2026-09-01 23:38:13 | 48.83467 | 9.87884 | 83° | 58km/h | 15472m | 5.0m/s | -52.7°C | 1.5% | 118.5hPa | 2.7V | 00:00:00 | 00:00:00 | 00:00:00 | |
| DM0DOS-11 | 2026-09-01 23:38:12 | 48.83464 | 9.87838 | 84° | 58km/h | 15464m | 3.9m/s | -52.7°C | 4.4% | 118.6hPa | 2.7V | 08:30:00 | 01:09:16 | 00:00:00 | |
| DK7TD | 2026-09-01 23:38:07 | 48.83465 | 9.87749 | 96° | 62km/h | 15447m | 4.2m/s | -52.7°C | 1.1% | 119hPa | 2.7V | 18:12:15 | 01:09:12 | 00:00:00 | |
| DN1GJH-1 | 2026-09-01 23:38:07 | 48.83465 | 9.87749 | 97° | 62km/h | 15448m | 4.2m/s | -52.7°C | 1.6% | 119.0hPa | 2.7V | 00:00:00 | 00:00:00 | 00:00:00 | |
| DM7RM-13 | 2026-09-01 23:38:06 | 48.83466 | 9.87725 | 98° | 62km/h | 15444m | 3.6m/s | -52.7°C | 1.6% | 119.0hPa | 2.7V | 00:00:00 | 00:00:00 | 00:00:00 | |
| DG9SBQ-11 | 2026-09-01 23:38:05 | 48.83469 | 9.87702 | 98° | 60km/h | 15439m | 4.7m/s | -52.7°C | 1.5% | 119.1hPa | 2.7V | 00:00:00 | 00:00:00 | 00:00:00 | |
| PG1ADW-2 | 2026-09-01 23:38:03 | 48.83471 | 9.87658 | 93° | 62km/h | 15431m | 3.1m/s | -52.6°C | 4.4% | 119.2hPa | 2.7V | 00:00:00 | 00:00:00 | 00:00:00 | |
| DO3MHA-12 | 2026-09-01 23:38:02 | 48.83472 | 9.87636 | 91° | 60km/h | 15428m | 4.2m/s | -52.6°C | 4.4% | 119.3hPa | 2.7V | 00:00:00 | 01:09:07 | 00:00:00 | |
| AZAK | 2026-09-01 23:38:01 | 48.83472 | 9.87614 | 91° | 60km/h | 15423m | 4.4m/s | -52.7°C | 1.5% | 119.4hPa | 2.7V | 00:00:00 | 00:00:00 | 00:00:00 | |
| DO3MHA-11 | 2026-09-01 23:38:00 | 48.83472 | 9.87590 | 91° | 62km/h | 15420m | 3.6m/s | -52.7°C | 4.3% | 119.5hPa | 2.7V | 00:00:00 | 01:09:05 | 00:00:00 | |
| DG9SBQ-11 | 2026-09-01 23:37:59 | 48.83472 | 9.87590 | 91° | 60km/h | 15420m | 3.6m/s | -52.7°C | 1.5% | 119.5hPa | 2.7V | 00:00:00 | 00:00:00 | 00:00:00 | |
| DK5PH-5 | 2026-09-01 23:37:58 | 48.83473 | 9.87545 | 94° | 66km/h | 15411m | 3.9m/s | -52.7°C | 4.4% | 119.6hPa | 2.7V | 00:00:00 | 01:09:03 | 08:30:00 | |
| DM0DOS-11 | 2026-09-01 23:37:57 | 48.83480 | 9.87402 | 96° | 62km/h | 15386m | 3.9m/s | -52.8°C | 4.4% | 120.1hPa | 2.6V | 08:30:00 | 01:08:57 | 00:00:00 | |
| DK7TD | 2026-09-01 23:37:56 | 48.83475 | 9.87499 | 94° | 62km/h | 15404m | 4.8m/s | -52.8°C | 1% | 119.8hPa | 2.6V | 18:12:15 | 01:09:01 | 00:00:00 | |
| DK7TD | 2026-09-01 23:37:45 | 48.83493 | 9.87237 | 98° | 64km/h | 15357m | 5.1m/s | -52.8°C | 1.1% | 120.7hPa | 2.7V | 18:12:15 | 01:08:50 | 00:00:00 | |
| DM7RM-13 | 2026-09-01 23:37:44 | 48.83493 | 9.87237 | 99° | 64km/h | 15357m | 5.1m/s | -52.8°C | 1.6% | 120.7hPa | 2.7V | 00:00:00 | 00:00:00 | 00:00:00 | |
| PG1ADW-2 | 2026-09-01 23:37:43 | 48.83498 | 9.87186 | 99° | 71km/h | 15349m | 3.4m/s | -52.7°C | 4.4% | 120.7hPa | 2.7V | 00:00:00 | 00:00:00 | 00:00:00 | |
| DM0DOS-11 | 2026-09-01 23:37:42 | 48.83503 | 9.87135 | 100° | 68km/h | 15341m | 3.2m/s | -52.8°C | 4.5% | 120.9hPa | 2.7V | 08:30:00 | 01:08:46 | 00:00:00 | |
| DK7TD | 2026-09-01 23:37:35 | 48.83517 | 9.86984 | 97° | 64km/h | 15316m | 4.8m/s | -52.9°C | 1.1% | 121.4hPa | 2.8V | 18:12:15 | 01:08:40 | 00:00:00 | |
| DK7TD | 2026-09-01 23:37:24 | 48.83544 | 9.86680 | 95° | 78km/h | 15272m | 4.8m/s | -53°C | 1.1% | 122.2hPa | 2.7V | 18:12:15 | 01:08:29 | 00:00:00 | |
| OE5DRO-10 | 2026-09-01 23:37:23 | 48.83545 | 9.86650 | 94° | 73km/h | 15267m | 4.1m/s | -53.0°C | 4.5% | 122.3hPa | 2.7V | 00:00:00 | 00:00:00 | 00:00:00 | |
| DO3MHA-12 | 2026-09-01 23:37:22 | 48.83546 | 9.86621 | 93° | 73km/h | 15263m | 4.9m/s | -53.0°C | 4.4% | 122.3hPa | 2.7V | 00:00:00 | 01:08:27 | 00:00:00 | |
| DB0NH | 2026-09-01 23:37:21 | 48.83547 | 9.86593 | 93° | 73km/h | 15259m | 3.3m/s | -52.9°C | 4.5% | 122.4hPa | 2.7V | 00:00:00 | 01:08:26 | 08:30:00 | |
| AZAK | 2026-09-01 23:37:20 | 48.83547 | 9.86567 | 92° | 69km/h | 15256m | 3.2m/s | -53.0°C | 1.6% | 122.6hPa | 2.7V | 00:00:00 | 00:00:00 | 00:00:00 | |
| DG9SBQ-11 | 2026-09-01 23:37:19 | 48.83547 | 9.86567 | 92° | 69km/h | 15256m | 3.2m/s | -53.0°C | 1.6% | 122.6hPa | 2.7V | 00:00:00 | 00:00:00 | 00:00:00 | |
| DJ8HS-15 | 2026-09-01 23:37:17 | 48.83547 | 9.86485 | 90° | 75km/h | 15243m | 2.7m/s | -52.9°C | 4.5% | 122.7hPa | 2.7V | 00:00:00 | 01:08:22 | 00:00:00 | |
| DO9HM | 2026-09-01 23:37:16 | 48.83547 | 9.86456 | 91° | 75km/h | 15240m | 4.5m/s | -52.9°C | 1.6% | 122.8hPa | 2.6V | 00:00:00 | 00:00:00 | 00:00:00 | |
| DG9SBQ-11 | 2026-09-01 23:37:15 | 48.83547 | 9.86427 | 92° | 77km/h | 15235m | 3.8m/s | -52.9°C | 1.6% | 122.9hPa | 2.6V | 00:00:00 | 00:00:00 | 00:00:00 | |
| DM0DOS-11 | 2026-09-01 23:37:14 | 48.83548 | 9.86368 | 90° | 78km/h | 15227m | 4.5m/s | -53°C | 4.4% | 123.1hPa | 2.6V | 08:30:00 | 01:08:18 | 00:00:00 | |
| DK7TD | 2026-09-01 23:37:14 | 48.83548 | 9.86398 | 91° | 78km/h | 15231m | 3.6m/s | -52.9°C | 1.1% | 123hPa | 2.6V | 18:12:15 | 01:08:19 | 00:00:00 | |
| NBG1-10 | 2026-09-01 23:37:13 | 48.83548 | 9.86368 | 91° | 71km/h | 15228m | 4.5m/s | -52.9°C | 4.4% | 123.0hPa | 2.8V | 00:00:00 | 01:08:18 | 00:00:00 | |
| DB0ND-19 | 2026-09-01 23:37:11 | 48.83549 | 9.86280 | 92° | 73km/h | 15216m | 4.3m/s | -53.2°C | 1.6% | 123.3hPa | 2.8V | 00:00:00 | 00:00:00 | 00:00:00 | |
| DO3MHA-11 | 2026-09-01 23:37:10 | 48.83549 | 9.86280 | 93° | 73km/h | 15216m | 4.3m/s | -53.1°C | 4.5% | 123.2hPa | 2.8V | 00:00:00 | 01:08:15 | 00:00:00 | |
| DM0DOS-11 | 2026-09-01 23:37:08 | 48.83549 | 9.86089 | 86° | 73km/h | 15186m | 4.9m/s | -53.5°C | 4.6% | 123.9hPa | 2.8V | 08:30:00 | 01:08:08 | 00:00:00 | |
| DK7TD | 2026-09-01 23:37:03 | 48.83549 | 9.86089 | 87° | 73km/h | 15186m | 4.9m/s | -53.5°C | 1.2% | 123.9hPa | 2.8V | 18:12:15 | 01:08:08 | 00:00:00 | |
| DK7TD | 2026-09-01 23:36:52 | 48.83545 | 9.85789 | 84° | 62km/h | 15143m | 4m/s | -53.5°C | 1.3% | 124.7hPa | 2.7V | 18:12:15 | 01:07:57 | 00:00:00 | |
| DO3MHA-12 | 2026-09-01 23:36:52 | 48.83545 | 9.85789 | 84° | 68km/h | 15143m | 3.9m/s | -53.5°C | 4.7% | 124.7hPa | 2.7V | 00:00:00 | 01:07:57 | 00:00:00 | |
| DB0NH | 2026-09-01 23:36:51 | 48.83542 | 9.85764 | 82° | 71km/h | 15139m | 4.4m/s | -53.4°C | 4.6% | 124.8hPa | 2.7V | 00:00:00 | 01:07:56 | 00:00:00 | |
| DO3MHA-11 | 2026-09-01 23:36:50 | 48.83540 | 9.85740 | 81° | 69km/h | 15135m | 3.8m/s | -53.4°C | 4.6% | 124.8hPa | 2.7V | 00:00:00 | 01:07:55 | 08:30:00 | |
| DO9HM | 2026-09-01 23:36:48 | 48.83537 | 9.85714 | 81° | 69km/h | 15131m | 4.2m/s | -53.5°C | 1.7% | 124.9hPa | 2.7V | 00:00:00 | 00:00:00 | 00:00:00 | |
| DG9SBQ-11 | 2026-09-01 23:36:46 | 48.83531 | 9.85662 | 82° | 68km/h | 15122m | 4.5m/s | -53.6°C | 1.7% | 125.1hPa | 2.7V | 00:00:00 | 00:00:00 | 00:00:00 | |
| OE5DRO-10 | 2026-09-01 23:36:45 | 48.83526 | 9.85610 | 83° | 73km/h | 15114m | 4.9m/s | -53.7°C | 4.7% | 125.2hPa | 2.7V | 00:00:00 | 00:00:00 | 00:00:00 | |
| DM7RM-13 | 2026-09-01 23:36:44 | 48.83524 | 9.85582 | 85° | 71km/h | 15110m | 3.9m/s | -53.8°C | 1.7% | 125.3hPa | 2.7V | 00:00:00 | 00:00:00 | 00:00:00 | |
| PG1ADW-2 | 2026-09-01 23:36:43 | 48.83522 | 9.85556 | 85° | 73km/h | 15106m | 4.0m/s | -53.7°C | 4.7% | 125.4hPa | 2.7V | 00:00:00 | 00:00:00 | 00:00:00 | |
| DM0DOS-11 | 2026-09-01 23:36:42 | 48.83519 | 9.85503 | 83° | 68km/h | 15098m | 3.2m/s | -53.8°C | 4.7% | 125.6hPa | 2.7V | 08:30:00 | 01:07:46 | 00:00:00 | |
| DK7TD | 2026-09-01 23:36:41 | 48.83519 | 9.85503 | 84° | 68km/h | 15098m | 3.2m/s | -53.8°C | 1.3% | 125.6hPa | 2.7V | 18:12:15 | 01:07:46 | 00:00:00 | |
| DG9SBQ-11 | 2026-09-01 23:36:41 | 48.83519 | 9.85503 | 85° | 68km/h | 15098m | 3.2m/s | -53.8°C | 1.7% | 125.6hPa | 2.7V | 00:00:00 | 00:00:00 | 00:00:00 | |
| DO3MHA-11 | 2026-09-01 23:36:40 | 48.83517 | 9.85477 | 83° | 71km/h | 15094m | 4.6m/s | -53.7°C | 4.7% | 125.6hPa | 2.7V | 00:00:00 | 01:07:45 | 00:00:00 | |
| AZAK | 2026-09-01 23:36:39 | 48.83514 | 9.85451 | 82° | 69km/h | 15089m | 4.4m/s | -53.8°C | 1.7% | 125.8hPa | 2.7V | 00:00:00 | 00:00:00 | 00:00:00 | |
| DJ8HS-15 | 2026-09-01 23:36:37 | 48.83508 | 9.85399 | 78° | 73km/h | 15082m | 4.5m/s | -53.8°C | 4.8% | 125.9hPa | 2.7V | 00:00:00 | 01:07:42 | 00:00:00 | |
| DG9SBQ-11 | 2026-09-01 23:36:36 | 48.83504 | 9.85373 | 78° | 69km/h | 15077m | 4.1m/s | -53.8°C | 1.7% | 126.0hPa | 2.7V | 00:00:00 | 00:00:00 | 00:00:00 | |
| OE3JTB-15 | 2026-09-01 23:36:33 | 48.83492 | 9.85291 | 79° | 71km/h | 15064m | 4.2m/s | -53.7°C | 4.7% | 126.2hPa | 2.7V | 00:00:00 | 01:07:38 | 00:00:00 | |
| DM0DOS-11 | 2026-09-01 23:36:32 | 48.83485 | 9.85235 | 81° | 75km/h | 15055m | 3.7m/s | -53.7°C | 4.8% | 126.4hPa | 2.7V | 08:30:00 | 01:07:36 | 00:00:00 | |
| DK7TD | 2026-09-01 23:36:31 | 48.83483 | 9.85206 | 82° | 77km/h | 15052m | 3.6m/s | -53.7°C | 1.3% | 126.5hPa | 2.8V | 18:12:15 | 01:07:35 | 00:00:00 | |
| DO3MHA-11 | 2026-09-01 23:36:30 | 48.83482 | 9.85206 | 82° | 75km/h | 15052m | 3.6m/s | -53.7°C | 4.7% | 126.4hPa | 2.7V | 00:00:00 | 01:07:35 | 00:00:00 | |
| DO9HM | 2026-09-01 23:36:28 | 48.83477 | 9.85148 | 82° | 77km/h | 15043m | 3.9m/s | -53.7°C | 1.8% | 126.7hPa | 2.7V | 00:00:00 | 00:00:00 | 00:00:00 | |
| OE5DRO-10 | 2026-09-01 23:36:26 | 48.83470 | 9.85091 | 80° | 71km/h | 15034m | 4.2m/s | -53.6°C | 4.8% | 126.8hPa | 2.7V | 00:00:00 | 00:00:00 | 08:30:00 | |
| DG9SBQ-11 | 2026-09-01 23:36:24 | 48.83466 | 9.85064 | 78° | 73km/h | 15030m | 3.4m/s | -53.6°C | 1.7% | 126.9hPa | 2.7V | 00:00:00 | 00:00:00 | 00:00:00 | |
| PG1ADW-2 | 2026-09-01 23:36:23 | 48.83456 | 9.85010 | 72° | 71km/h | 15022m | 3.5m/s | -53.5°C | 4.7% | 127.0hPa | 2.7V | 00:00:00 | 00:00:00 | 00:00:00 | |
| DM0DOS-11 | 2026-09-01 23:36:22 | 48.83444 | 9.84957 | 70° | 71km/h | 15013m | 4.9m/s | -53.5°C | 4.7% | 127.3hPa | 2.7V | 08:30:00 | 01:07:26 | 00:00:00 | |
| DK7TD | 2026-09-01 23:36:20 | 48.83439 | 9.84932 | 71° | 69km/h | 15009m | 3.5m/s | -53.5°C | 1.2% | 127.3hPa | 2.7V | 18:12:15 | 01:07:25 | 00:00:00 | |
| DO3MHA-11 | 2026-09-01 23:36:20 | 48.83438 | 9.84932 | 71° | 71km/h | 15009m | 3.5m/s | -53.4°C | 4.7% | 127.3hPa | 2.7V | 00:00:00 | 01:07:25 | 00:00:00 | |
| DG9SBQ-11 | 2026-09-01 23:36:18 | 48.83433 | 9.84906 | 72° | 71km/h | 15005m | 3.9m/s | -53.5°C | 1.7% | 127.4hPa | 2.7V | 00:00:00 | 00:00:00 | 00:00:00 | |
| DJ8HS-15 | 2026-09-01 23:36:17 | 48.83422 | 9.84853 | 75° | 69km/h | 14997m | 3.2m/s | -53.3°C | 4.7% | 127.6hPa | 2.7V | 00:00:00 | 01:07:22 | 00:00:00 | |
| DG9SBQ-11 | 2026-09-01 23:36:13 | 48.83406 | 9.84745 | 81° | 71km/h | 14981m | 4.0m/s | -53.3°C | 1.7% | 127.9hPa | 2.7V | 00:00:00 | 00:00:00 | 00:00:00 | |
| DM0DOS-11 | 2026-09-01 23:36:12 | 48.83400 | 9.84691 | 78° | 71km/h | 14972m | 3.6m/s | -53.2°C | 4.5% | 128.1hPa | 2.7V | 08:30:00 | 01:07:16 | 00:00:00 | |
| DK7TD | 2026-09-01 23:36:09 | 48.83392 | 9.84639 | 79° | 68km/h | 14963m | 4.3m/s | -53.1°C | 1.1% | 128.2hPa | 2.8V | 18:12:15 | 01:07:14 | 00:00:00 | |
| DB0ND-19 | 2026-09-01 23:36:09 | 48.83389 | 9.84614 | 77° | 66km/h | 14959m | 3.3m/s | -53.1°C | 1.6% | 128.3hPa | 2.7V | 00:00:00 | 00:00:00 | 00:00:00 | |
| DO9HM | 2026-09-01 23:36:08 | 48.83389 | 9.84614 | 79° | 68km/h | 14960m | 3.3m/s | -53.1°C | 1.6% | 128.3hPa | 2.7V | 00:00:00 | 00:00:00 | 00:00:00 | |
| DG9SBQ-11 | 2026-09-01 23:36:07 | 48.83385 | 9.84588 | 79° | 68km/h | 14955m | 4.7m/s | -53.0°C | 1.6% | 128.4hPa | 2.7V | 00:00:00 | 00:00:00 | 00:00:00 | |
| OE3JTB-15 | 2026-09-01 23:36:04 | 48.83375 | 9.84512 | 80° | 69km/h | 14942m | 4.3m/s | -52.9°C | 4.5% | 128.6hPa | 2.7V | 00:00:00 | 00:00:00 | 08:30:00 | |
| PG1ADW-2 | 2026-09-01 23:36:03 | 48.83372 | 9.84486 | 80° | 68km/h | 14938m | 3.2m/s | -52.9°C | 4.5% | 128.7hPa | 2.8V | 00:00:00 | 00:00:00 | 00:00:00 | |
| DM0DOS-11 | 2026-09-01 23:36:02 | 48.83365 | 9.84435 | 76° | 68km/h | 14929m | 4.3m/s | -52.9°C | 4.5% | 128.9hPa | 2.8V | 08:30:00 | 01:07:06 | 00:00:00 | |
| DK7TD | 2026-09-01 23:35:58 | 48.83354 | 9.84361 | 80° | 64km/h | 14917m | 3.8m/s | -52.9°C | 1.1% | 129.2hPa | 2.7V | 18:12:15 | 01:07:03 | 00:00:00 | |
| DF3TZ-5 | 2026-09-01 23:35:54 | 48.83341 | 9.84235 | 82° | 64km/h | 14895m | 4.4m/s | -53.1°C | 1.6% | 129.6hPa | 2.7V | 00:00:00 | 00:00:00 | 00:00:00 | |
| DM0DOS-11 | 2026-09-01 23:35:52 | 48.83336 | 9.84186 | 80° | 66km/h | 14886m | 5.4m/s | -53°C | 4.4% | 129.8hPa | 2.7V | 08:30:00 | 01:06:56 | 00:00:00 | |
| DK7TD | 2026-09-01 23:35:48 | 48.83328 | 9.84110 | 83° | 66km/h | 14874m | 5.1m/s | -53°C | 1.1% | 130hPa | 2.8V | 18:12:15 | 01:06:53 | 00:00:00 | |
| OE5DRO-10 | 2026-09-01 23:35:48 | 48.83328 | 9.84110 | 83° | 73km/h | 14874m | 5.1m/s | -52.9°C | 4.5% | 130.0hPa | 2.8V | 00:00:00 | 00:00:00 | 00:00:00 | |
| DO9HM | 2026-09-01 23:35:46 | 48.83326 | 9.84085 | 85° | 66km/h | 14869m | 3.8m/s | -53.0°C | 1.7% | 130.2hPa | 2.8V | 00:00:00 | 00:00:00 | 00:00:00 | |
| DM0DOS-11 | 2026-09-01 23:35:43 | 48.83319 | 9.83918 | 88° | 73km/h | 14843m | 3.1m/s | -52.9°C | 4.6% | 130.7hPa | 2.8V | 08:30:00 | 01:06:46 | 00:00:00 | |
| DK7TD | 2026-09-01 23:35:38 | 48.83317 | 9.83803 | 90° | 77km/h | 14826m | 4.9m/s | -52.8°C | 1.2% | 131hPa | 2.7V | 18:12:15 | 01:06:42 | 00:00:00 | |
| DF7PN | 2026-09-01 23:35:38 | 48.83317 | 9.83803 | 90° | 77km/h | 14826m | 4.9m/s | -52.8°C | 1.6% | 131.0hPa | 2.7V | 00:00:00 | 00:00:00 | 00:00:00 | |
| DM0DOS-11 | 2026-09-01 23:35:37 | 48.83317 | 9.83633 | 88° | 73km/h | 14801m | 3.4m/s | -52.8°C | 4.5% | 131.5hPa | 2.7V | 08:30:00 | 01:06:36 | 00:00:00 | |
| DK7TD | 2026-09-01 23:35:30 | 48.83311 | 9.83493 | 88° | 71km/h | 14779m | 3.4m/s | -52.8°C | 1.2% | 132hPa | 2.8V | 18:12:15 | 01:06:31 | 00:00:00 | |
| DO3MHA-11 | 2026-09-01 23:35:30 | 48.83316 | 9.83605 | 87° | 69km/h | 14797m | 5.3m/s | -52.7°C | 4.4% | 131.5hPa | 2.7V | 00:00:00 | 01:06:35 | 00:00:00 | |
| DK5PH-5 | 2026-09-01 23:35:29 | 48.83313 | 9.83549 | 85° | 66km/h | 14788m | 3.8m/s | -52.7°C | 4.5% | 131.7hPa | 2.7V | 00:00:00 | 01:06:33 | 00:00:00 | |
| DM0DOS-11 | 2026-09-01 23:35:27 | 48.83307 | 9.83365 | 87° | 64km/h | 14758m | 4.6m/s | -52.8°C | 4.5% | 132.4hPa | 2.7V | 08:30:00 | 01:06:26 | 00:00:00 | |
| DK7TD | 2026-09-01 23:35:16 | 48.83303 | 9.83245 | 90° | 64km/h | 14736m | 4.4m/s | -52.7°C | 1.2% | 132.8hPa | 2.7V | 18:12:15 | 01:06:21 | 00:00:00 | |
| DK7TD | 2026-09-01 23:35:06 | 48.83298 | 9.82994 | 83° | 64km/h | 14695m | 4.1m/s | -52.8°C | 1.2% | 133.7hPa | 2.7V | 18:12:15 | 01:06:11 | 00:00:00 | |
| DO9HM | 2026-09-01 23:35:06 | 48.83298 | 9.82994 | 84° | 64km/h | 14696m | 4.1m/s | -52.8°C | 1.7% | 133.7hPa | 2.7V | 00:00:00 | 00:00:00 | 00:00:00 | |
| DM0DOS-11 | 2026-09-01 23:35:03 | 48.83290 | 9.82871 | 85° | 64km/h | 14676m | 3.4m/s | -52.7°C | 4.5% | 134.1hPa | 2.7V | 08:30:00 | 01:06:06 | 00:00:00 | |
| PG1ADW-2 | 2026-09-01 23:35:03 | 48.83292 | 9.82919 | 86° | 69km/h | 14684m | 3.8m/s | -52.7°C | 4.4% | 133.9hPa | 2.7V | 00:00:00 | 00:00:00 | 00:00:00 | |
| NBG1-10 | 2026-09-01 23:35:01 | 48.83290 | 9.82871 | 86° | 69km/h | 14676m | 3.3m/s | -52.7°C | 4.5% | 134.1hPa | 2.7V | 00:00:00 | 01:06:06 | 08:30:00 | |
| DO3MHA-11 | 2026-09-01 23:35:00 | 48.83288 | 9.82846 | 84° | 69km/h | 14672m | 4.6m/s | -52.7°C | 4.5% | 134.1hPa | 2.7V | 00:00:00 | 01:06:05 | 00:00:00 | |
| DK5PH-5 | 2026-09-01 23:34:58 | 48.83284 | 9.82793 | 83° | 69km/h | 14664m | 3.3m/s | -52.7°C | 4.5% | 134.3hPa | 2.7V | 00:00:00 | 01:06:03 | 00:00:00 | |
| AZAK | 2026-09-01 23:34:57 | 48.83282 | 9.82766 | 83° | 71km/h | 14660m | 4.7m/s | -52.7°C | 1.6% | 134.5hPa | 2.7V | 00:00:00 | 00:00:00 | 00:00:00 | |
| DM0DOS-11 | 2026-09-01 23:34:56 | 48.83268 | 9.82606 | 83° | 69km/h | 14634m | 5.3m/s | -52.9°C | 4.5% | 135hPa | 2.7V | 08:30:00 | 01:05:56 | 00:00:00 | |
| DK7TD | 2026-09-01 23:34:55 | 48.83277 | 9.82712 | 82° | 69km/h | 14651m | 3.7m/s | -52.8°C | 1.2% | 134.6hPa | 2.8V | 18:12:15 | 01:06:00 | 00:00:00 | |
| BIOWL1-15 | 2026-09-01 23:34:51 | 48.83268 | 9.82606 | 83° | 69km/h | 14634m | 5.3m/s | 0°C | 0% | 0hPa | 2.7V | 18:12:15 | 01:05:56 | 00:00:00 | |
| DB0NH | 2026-09-01 23:34:51 | 48.83268 | 9.82606 | 84° | 69km/h | 14634m | 5.3m/s | -52.9°C | 4.5% | 135.0hPa | 2.7V | 00:00:00 | 01:05:56 | 00:00:00 | |
| DO3MHA-11 | 2026-09-01 23:34:50 | 48.83266 | 9.82580 | 85° | 69km/h | 14630m | 3.5m/s | -52.9°C | 4.6% | 135.1hPa | 2.7V | 00:00:00 | 01:05:55 | 00:00:00 | |
| DF1GD-15 | 2026-09-01 23:34:48 | 48.83264 | 9.82554 | 87° | 68km/h | 14626m | 4.3m/s | -53.0°C | 1.7% | 135.2hPa | 2.8V | 00:00:00 | 00:00:00 | 00:00:00 | |
| DM0DOS-11 | 2026-09-01 23:34:46 | 48.83259 | 9.82340 | 88° | 69km/h | 14590m | 3.7m/s | -53.3°C | 4.6% | 135.9hPa | 2.8V | 08:30:00 | 01:05:46 | 00:00:00 | |
| DK7TD | 2026-09-01 23:34:44 | 48.83261 | 9.82420 | 88° | 69km/h | 14603m | 4.3m/s | -53.2°C | 1.3% | 135.6hPa | 2.7V | 18:12:15 | 01:05:49 | 00:00:00 | |
| DK7TD | 2026-09-01 23:34:33 | 48.83254 | 9.82134 | 87° | 66km/h | 14557m | 4.5m/s | -53.6°C | 1.4% | 136.6hPa | 2.7V | 18:12:15 | 01:05:38 | 00:00:00 | |
| BIOWL1-15 | 2026-09-01 23:34:32 | 48.83243 | 9.81977 | 82° | 71km/h | 14530m | 5.3m/s | 0°C | 0% | 0hPa | 2.8V | 18:12:15 | 01:05:32 | 00:00:00 | |
| DM0DOS-11 | 2026-09-01 23:34:31 | 48.83250 | 9.82056 | 84° | 68km/h | 14543m | 5.1m/s | -53.6°C | 4.8% | 136.9hPa | 2.7V | 08:30:00 | 01:05:35 | 00:00:00 | |
| DK7TD | 2026-09-01 23:34:23 | 48.83230 | 9.81867 | 79° | 69km/h | 14512m | 3.9m/s | -53.7°C | 1.5% | 137.6hPa | 2.7V | 18:12:15 | 01:05:28 | 00:00:00 | |
| PG1ADW-2 | 2026-09-01 23:34:23 | 48.83230 | 9.81867 | 80° | 66km/h | 14512m | 3.8m/s | -53.6°C | 4.9% | 137.5hPa | 2.7V | 00:00:00 | 01:05:28 | 00:00:00 | |
| DO3MHA-12 | 2026-09-01 23:34:22 | 48.83227 | 9.81841 | 80° | 66km/h | 14508m | 5.0m/s | -53.6°C | 4.9% | 137.6hPa | 2.8V | 00:00:00 | 01:05:27 | 00:00:00 | |
| DM0DOS-11 | 2026-09-01 23:34:21 | 48.83221 | 9.81790 | 78° | 66km/h | 14499m | 4.1m/s | -53.7°C | 4.8% | 137.8hPa | 2.8V | 08:30:00 | 01:05:25 | 00:00:00 | |
| BIOWL1-15 | 2026-09-01 23:34:18 | 48.83215 | 9.81743 | 79° | 60km/h | 14490m | 3.6m/s | 0°C | 0% | 0hPa | 2.8V | 18:12:15 | 01:05:23 | 00:00:00 | |
| DJ8HS-15 | 2026-09-01 23:34:17 | 48.83212 | 9.81720 | 80° | 64km/h | 14486m | 4.2m/s | -53.7°C | 4.9% | 138.1hPa | 2.7V | 00:00:00 | 01:05:22 | 00:00:00 | |
| AZAK | 2026-09-01 23:34:16 | 48.83209 | 9.81696 | 82° | 64km/h | 14482m | 4.8m/s | -53.8°C | 1.9% | 138.2hPa | 2.7V | 00:00:00 | 00:00:00 | 00:00:00 | |
| DM0DOS-11 | 2026-09-01 23:34:14 | 48.83194 | 9.81543 | 82° | 69km/h | 14456m | 5.1m/s | -53.8°C | 4.9% | 138.8hPa | 2.7V | 08:30:00 | 01:05:15 | 00:00:00 | |
| DK7TD | 2026-09-01 23:34:13 | 48.83201 | 9.81620 | 82° | 68km/h | 14469m | 4.8m/s | -53.7°C | 1.6% | 138.5hPa | 2.8V | 18:12:15 | 01:05:18 | 00:00:00 | |
| BIOWL1-15 | 2026-09-01 23:34:07 | 48.83188 | 9.81468 | 83° | 62km/h | 14444m | 5m/s | 0°C | 0% | 0hPa | 2.7V | 18:12:15 | 01:05:12 | 00:00:00 | |
| DF1GD-15 | 2026-09-01 23:34:06 | 48.83188 | 9.81468 | 84° | 62km/h | 14444m | 5.0m/s | -53.8°C | 2.0% | 139.0hPa | 2.7V | 00:00:00 | 00:00:00 | 00:00:00 | |
| DF7PN | 2026-09-01 23:34:05 | 48.83182 | 9.81401 | 81° | 58km/h | 14431m | 5.0m/s | -53.8°C | 1.9% | 139.3hPa | 2.7V | 00:00:00 | 00:00:00 | 00:00:00 | |
| DM0DOS-11 | 2026-09-01 23:34:04 | 48.83175 | 9.81307 | 86° | 62km/h | 14415m | 4.4m/s | -53.7°C | 4.9% | 139.6hPa | 2.7V | 08:30:00 | 01:05:05 | 00:00:00 | |
| DK7TD | 2026-09-01 23:34:02 | 48.83177 | 9.81354 | 83° | 64km/h | 14423m | 3.2m/s | -53.8°C | 1.5% | 139.5hPa | 2.8V | 18:12:15 | 01:05:07 | 00:00:00 | |
| DO3MHA-12 | 2026-09-01 23:34:02 | 48.83177 | 9.81354 | 84° | 62km/h | 14423m | 3.2m/s | -53.7°C | 4.9% | 139.4hPa | 2.8V | 00:00:00 | 01:05:07 | 00:00:00 | |
| DM7RM-13 | 2026-09-01 23:34:00 | 48.83175 | 9.81307 | 88° | 62km/h | 14415m | 4.4m/s | -53.7°C | 2.0% | 139.6hPa | 2.8V | 00:00:00 | 00:00:00 | 00:00:00 | |
| DN1GJH-1 | 2026-09-01 23:33:59 | 48.83175 | 9.81307 | 88° | 62km/h | 14415m | 4.4m/s | -53.7°C | 2.0% | 139.6hPa | 2.8V | 00:00:00 | 00:00:00 | 00:00:00 | |
| DG9SBQ-11 | 2026-09-01 23:33:57 | 48.83172 | 9.81234 | 88° | 66km/h | 14402m | 4.0m/s | -53.6°C | 1.9% | 139.9hPa | 2.8V | 00:00:00 | 00:00:00 | 00:00:00 | |
| DM0DOS-11 | 2026-09-01 23:33:55 | 48.83165 | 9.81070 | 89° | 62km/h | 14372m | 5.1m/s | -53.5°C | 4.9% | 140.6hPa | 2.8V | 08:30:00 | 01:04:55 | 00:00:00 | |
| DK7TD | 2026-09-01 23:33:52 | 48.83166 | 9.81117 | 86° | 60km/h | 14381m | 4.4m/s | -53.6°C | 1.5% | 140.4hPa | 2.7V | 18:12:15 | 01:04:57 | 00:00:00 | |
| BIOWL9-15 | 2026-09-01 23:33:52 | 48.83165 | 9.81094 | 87° | 60km/h | 14377m | 3.9m/s | -53.6°C | 1.9% | 140.5hPa | 2.7V | 00:00:00 | 00:00:00 | 00:00:00 | |
| DF3TZ-5 | 2026-09-01 23:33:50 | 48.83165 | 9.81047 | 93° | 60km/h | 14367m | 4.1m/s | -53.5°C | 1.9% | 140.7hPa | 2.7V | 00:00:00 | 00:00:00 | 00:00:00 | |
| DF1GD-15 | 2026-09-01 23:33:46 | 48.83168 | 9.80997 | 95° | 68km/h | 14360m | 5.0m/s | -53.5°C | 1.9% | 140.9hPa | 2.7V | 00:00:00 | 00:00:00 | 00:00:00 | |
| DM0DOS-11 | 2026-09-01 23:33:45 | 48.83171 | 9.80824 | 87° | 60km/h | 14330m | 3.4m/s | -53.5°C | 4.8% | 141.5hPa | 2.7V | 08:30:00 | 01:04:45 | 00:00:00 | |
| DK7TD | 2026-09-01 23:33:41 | 48.83172 | 9.80847 | 89° | 62km/h | 14334m | 4.9m/s | -53.5°C | 1.5% | 141.4hPa | 2.8V | 18:12:15 | 01:04:46 | 00:00:00 | |
| OE5DXL-15 | 2026-09-01 23:33:41 | 48.83172 | 9.80847 | 89° | 64km/h | 14335m | 4.9m/s | -53.5°C | 4.8% | 141.3hPa | 2.7V | 00:00:00 | 00:00:00 | 08:30:00 | |
| DG9SBQ-11 | 2026-09-01 23:33:40 | 48.83171 | 9.80824 | 88° | 60km/h | 14330m | 3.4m/s | -53.5°C | 1.9% | 141.5hPa | 2.8V | 00:00:00 | 00:00:00 | 00:00:00 | |
| DM7RM-13 | 2026-09-01 23:33:39 | 48.83171 | 9.80801 | 89° | 58km/h | 14327m | 4.1m/s | -53.6°C | 1.9% | 141.6hPa | 2.8V | 00:00:00 | 00:00:00 | 00:00:00 | |
| DJ8HS-15 | 2026-09-01 23:33:37 | 48.83170 | 9.80758 | 92° | 62km/h | 14318m | 3.7m/s | -53.5°C | 4.9% | 141.7hPa | 2.8V | 00:00:00 | 01:04:42 | 00:00:00 | |
| DM0DOS-11 | 2026-09-01 23:33:35 | 48.83178 | 9.80594 | 92° | 68km/h | 14288m | 4.2m/s | -53.4°C | 4.8% | 142.4hPa | 2.8V | 08:30:00 | 01:04:35 | 00:00:00 | |
| DK7TD | 2026-09-01 23:33:31 | 48.83177 | 9.80619 | 94° | 66km/h | 14293m | 5m/s | -53.4°C | 1.5% | 142.3hPa | 2.8V | 18:12:15 | 01:04:36 | 00:00:00 | |
| DO3MHA-11 | 2026-09-01 23:33:30 | 48.83178 | 9.80594 | 93° | 64km/h | 14289m | 4.1m/s | -53.3°C | 4.8% | 142.4hPa | 2.7V | 00:00:00 | 01:04:35 | 00:00:00 | |
| DG9SBQ-11 | 2026-09-01 23:33:28 | 48.83178 | 9.80568 | 93° | 68km/h | 14284m | 4.1m/s | -53.4°C | 1.8% | 142.5hPa | 2.7V | 00:00:00 | 00:00:00 | 00:00:00 | |
| DM0DOS-11 | 2026-09-01 23:33:25 | 48.83190 | 9.80348 | 94° | 62km/h | 14246m | 4m/s | -53.3°C | 4.8% | 143.4hPa | 2.7V | 08:30:00 | 01:04:25 | 00:00:00 | |
| DK7TD | 2026-09-01 23:33:21 | 48.83189 | 9.80371 | 96° | 62km/h | 14250m | 4.3m/s | -53.3°C | 1.4% | 143.3hPa | 2.7V | 18:12:15 | 01:04:26 | 00:00:00 | |
| BIOWL9-15 | 2026-09-01 23:33:21 | 48.83190 | 9.80348 | 94° | 60km/h | 14246m | 4.0m/s | -53.3°C | 1.9% | 143.4hPa | 2.7V | 00:00:00 | 00:00:00 | 00:00:00 | |
| DO3MHA-11 | 2026-09-01 23:33:20 | 48.83190 | 9.80348 | 95° | 66km/h | 14246m | 3.9m/s | -53.3°C | 4.8% | 143.3hPa | 2.7V | 00:00:00 | 01:04:25 | 00:00:00 | |
| DF3TZ-5 | 2026-09-01 23:33:18 | 48.83191 | 9.80300 | 89° | 64km/h | 14237m | 4.2m/s | -53.3°C | 1.9% | 143.5hPa | 2.7V | 00:00:00 | 00:00:00 | 00:00:00 | |
| DJ8HS-15 | 2026-09-01 23:33:17 | 48.83191 | 9.80275 | 90° | 68km/h | 14234m | 3.2m/s | -53.2°C | 4.8% | 143.6hPa | 2.7V | 00:00:00 | 01:04:22 | 00:00:00 | |
| OE5DRO-10 | 2026-09-01 23:33:16 | 48.83191 | 9.80250 | 91° | 68km/h | 14229m | 5.0m/s | -53.2°C | 4.8% | 143.7hPa | 2.8V | 00:00:00 | 00:00:00 | 00:00:00 | |
| DM0DOS-11 | 2026-09-01 23:33:14 | 48.83195 | 9.80096 | 92° | 66km/h | 14204m | 4.9m/s | -53.2°C | 4.8% | 144.3hPa | 2.8V | 08:30:00 | 01:04:15 | 00:00:00 | |
| DK7TD | 2026-09-01 23:33:10 | 48.83195 | 9.80096 | 93° | 66km/h | 14204m | 4.9m/s | -53.2°C | 1.5% | 144.3hPa | 2.8V | 18:12:15 | 01:04:15 | 00:00:00 | |
| DO3MHA-11 | 2026-09-01 23:33:10 | 48.83195 | 9.80096 | 93° | 66km/h | 14204m | 4.9m/s | -53.2°C | 4.8% | 144.3hPa | 2.8V | 00:00:00 | 01:04:15 | 00:00:00 | |
| DF1GD-15 | 2026-09-01 23:33:04 | 48.83199 | 9.79971 | 95° | 66km/h | 14183m | 5.2m/s | -53.2°C | 1.9% | 144.8hPa | 2.8V | 00:00:00 | 00:00:00 | 00:00:00 | |
| DM0DOS-11 | 2026-09-01 23:33:03 | 48.83202 | 9.79841 | 88° | 71km/h | 14162m | 3.4m/s | -53.1°C | 4.7% | 145.2hPa | 2.8V | 08:30:00 | 01:04:05 | 00:00:00 | |
| DK7TD | 2026-09-01 23:33:00 | 48.83202 | 9.79841 | 89° | 71km/h | 14162m | 3.4m/s | -53.1°C | 1.4% | 145.2hPa | 2.8V | 18:12:15 | 01:04:05 | 00:00:00 | |
| DO3MHA-11 | 2026-09-01 23:33:00 | 48.83202 | 9.79841 | 89° | 69km/h | 14163m | 3.3m/s | -53.0°C | 4.7% | 145.2hPa | 2.7V | 00:00:00 | 01:04:05 | 00:00:00 | |
| DJ8HS-15 | 2026-09-01 23:32:57 | 48.83202 | 9.79758 | 91° | 73km/h | 14150m | 3.6m/s | -53.0°C | 4.7% | 145.5hPa | 2.7V | 00:00:00 | 01:04:02 | 00:00:00 | |
| DM0DOS-11 | 2026-09-01 23:32:55 | 48.83202 | 9.79573 | 90° | 68km/h | 14120m | 4.4m/s | -53.1°C | 4.6% | 146.2hPa | 2.7V | 08:30:00 | 01:03:55 | 00:00:00 | |
| DK7TD | 2026-09-01 23:32:50 | 48.83203 | 9.79573 | 91° | 68km/h | 14120m | 4.4m/s | -53.1°C | 1.3% | 146.2hPa | 2.7V | 18:12:15 | 01:03:55 | 00:00:00 | |
| DF3TZ-5 | 2026-09-01 23:32:47 | 48.83203 | 9.79491 | 89° | 75km/h | 14108m | 4.2m/s | -53.2°C | 1.8% | 146.5hPa | 2.8V | 00:00:00 | 00:00:00 | 00:00:00 | |
| DG9SBQ-11 | 2026-09-01 23:32:45 | 48.83202 | 9.79462 | 89° | 78km/h | 14104m | 3.3m/s | -53.2°C | 1.8% | 146.6hPa | 2.8V | 00:00:00 | 00:00:00 | 00:00:00 | |
| DM0DOS-11 | 2026-09-01 23:32:44 | 48.83193 | 9.79283 | 86° | 75km/h | 14078m | 5m/s | -53.2°C | 4.7% | 147.2hPa | 2.8V | 08:30:00 | 01:03:45 | 00:00:00 | |
| DK7TD | 2026-09-01 23:32:39 | 48.83192 | 9.79254 | 86° | 73km/h | 14074m | 4m/s | -53.2°C | 1.4% | 147.2hPa | 2.7V | 18:12:15 | 01:03:44 | 00:00:00 | |
| OE5DRO-10 | 2026-09-01 23:32:38 | 48.83190 | 9.79226 | 87° | 77km/h | 14070m | 4.1m/s | -53.2°C | 4.7% | 147.3hPa | 2.7V | 00:00:00 | 00:00:00 | 00:00:00 | |
| DJ8HS-15 | 2026-09-01 23:32:37 | 48.83189 | 9.79197 | 87° | 78km/h | 14065m | 4.4m/s | -53.1°C | 4.8% | 147.4hPa | 2.7V | 00:00:00 | 01:03:42 | 00:00:00 | |
| DG9SBQ-11 | 2026-09-01 23:32:34 | 48.83187 | 9.79138 | 86° | 78km/h | 14056m | 5.1m/s | -53.1°C | 1.8% | 147.7hPa | 2.7V | 00:00:00 | 00:00:00 | 00:00:00 | |
| AZAK | 2026-09-01 23:32:33 | 48.83185 | 9.79108 | 85° | 78km/h | 14052m | 3.9m/s | -53.1°C | 1.8% | 147.8hPa | 2.7V | 00:00:00 | 00:00:00 | 00:00:00 | |
| DM0DOS-11 | 2026-09-01 23:32:32 | 48.83177 | 9.78985 | 83° | 80km/h | 14034m | 5.3m/s | -53°C | 4.7% | 148.1hPa | 2.7V | 08:30:00 | 01:03:35 | 00:00:00 | |
| DK7TD | 2026-09-01 23:32:28 | 48.83172 | 9.78925 | 83° | 77km/h | 14026m | 3.1m/s | -53°C | 1.3% | 148.4hPa | 2.8V | 18:12:15 | 01:03:33 | 00:00:00 | |
| DF1GD-15 | 2026-09-01 23:32:25 | 48.83165 | 9.78835 | 85° | 78km/h | 14013m | 3.9m/s | -53.0°C | 1.8% | 148.6hPa | 2.7V | 00:00:00 | 00:00:00 | 00:00:00 | |
| DG9SBQ-11 | 2026-09-01 23:32:23 | 48.83160 | 9.78775 | 82° | 78km/h | 14005m | 4.7m/s | -53.0°C | 1.8% | 148.8hPa | 2.7V | 00:00:00 | 00:00:00 | 00:00:00 | |
| DO3MHA-12 | 2026-09-01 23:32:22 | 48.83157 | 9.78746 | 82° | 78km/h | 14000m | 3.6m/s | -52.9°C | 4.6% | 148.9hPa | 2.7V | 00:00:00 | 01:03:27 | 00:00:00 | |
| DM0DOS-11 | 2026-09-01 23:32:21 | 48.83152 | 9.78686 | 84° | 78km/h | 13991m | 4.4m/s | -53°C | 4.7% | 149.2hPa | 2.7V | 08:30:00 | 01:03:25 | 00:00:00 | |
| DK7TD | 2026-09-01 23:32:18 | 48.83149 | 9.78626 | 85° | 77km/h | 13982m | 5.5m/s | -52.9°C | 1.4% | 149.4hPa | 2.7V | 18:12:15 | 01:03:23 | 00:00:00 | |
| OE5DRO-10 | 2026-09-01 23:32:18 | 48.83149 | 9.78626 | 85° | 82km/h | 13982m | 5.4m/s | -52.9°C | 4.7% | 149.3hPa | 2.7V | 00:00:00 | 00:00:00 | 00:00:00 | |
| DJ8HS-15 | 2026-09-01 23:32:17 | 48.83147 | 9.78597 | 84° | 82km/h | 13978m | 4.0m/s | -52.9°C | 4.7% | 149.4hPa | 2.7V | 00:00:00 | 01:03:22 | 08:30:00 | |
| NBG1-10 | 2026-09-01 23:32:16 | 48.83145 | 9.78567 | 85° | 82km/h | 13974m | 3.3m/s | -52.8°C | 4.7% | 149.5hPa | 2.8V | 00:00:00 | 01:03:21 | 00:00:00 | |
| DM0DOS-11 | 2026-09-01 23:32:14 | 48.83137 | 9.78385 | 88° | 80km/h | 13947m | 5.2m/s | -52.7°C | 4.6% | 150.2hPa | 2.8V | 08:30:00 | 01:03:15 | 00:00:00 | |
| DK7TD | 2026-09-01 23:32:07 | 48.83135 | 9.78292 | 87° | 82km/h | 13933m | 4.4m/s | -52.8°C | 1.4% | 150.5hPa | 2.7V | 18:12:15 | 01:03:12 | 00:00:00 | |
| DG9SBQ-11 | 2026-09-01 23:32:05 | 48.83134 | 9.78260 | 87° | 84km/h | 13929m | 4.7m/s | -52.8°C | 1.8% | 150.6hPa | 2.7V | 00:00:00 | 00:00:00 | 00:00:00 | |
| DM0DOS-11 | 2026-09-01 23:32:04 | 48.83126 | 9.78068 | 88° | 84km/h | 13902m | 5.4m/s | -52.8°C | 4.6% | 151.2hPa | 2.7V | 08:30:00 | 01:03:05 | 00:00:00 | |
| DK7TD | 2026-09-01 23:31:57 | 48.83126 | 9.77973 | 92° | 80km/h | 13887m | 4.5m/s | -52.9°C | 1.3% | 151.6hPa | 2.8V | 18:12:15 | 01:03:02 | 00:00:00 | |
| DJ8HS-15 | 2026-09-01 23:31:57 | 48.83126 | 9.77973 | 92° | 82km/h | 13888m | 4.5m/s | -52.8°C | 4.6% | 151.5hPa | 2.7V | 00:00:00 | 01:03:02 | 00:00:00 | |
| DN1GJH-1 | 2026-09-01 23:31:56 | 48.83126 | 9.77973 | 93° | 80km/h | 13888m | 4.5m/s | -52.9°C | 1.8% | 151.6hPa | 2.7V | 00:00:00 | 00:00:00 | 00:00:00 | |
| DK5PH-5 | 2026-09-01 23:31:55 | 48.83127 | 9.77911 | 92° | 84km/h | 13879m | 4.7m/s | -52.9°C | 4.6% | 151.7hPa | 2.7V | 00:00:00 | 01:03:00 | 00:00:00 | |
| DG9SBQ-11 | 2026-09-01 23:31:53 | 48.83127 | 9.77879 | 92° | 84km/h | 13875m | 3.6m/s | -52.9°C | 1.8% | 151.9hPa | 2.7V | 00:00:00 | 00:00:00 | 00:00:00 | |
| DO3MHA-12 | 2026-09-01 23:31:52 | 48.83128 | 9.77816 | 90° | 82km/h | 13867m | 4.5m/s | -52.9°C | 4.6% | 152.0hPa | 2.7V | 00:00:00 | 01:02:57 | 00:00:00 | |
| DB0NH | 2026-09-01 23:31:51 | 48.83127 | 9.77785 | 89° | 84km/h | 13863m | 3.8m/s | -52.8°C | 4.7% | 152.1hPa | 2.7V | 00:00:00 | 01:02:56 | 00:00:00 | |
| DO3MHA-11 | 2026-09-01 23:31:50 | 48.83127 | 9.77754 | 88° | 82km/h | 13859m | 3.8m/s | -52.8°C | 4.7% | 152.2hPa | 2.7V | 00:00:00 | 01:02:55 | 00:00:00 | |
| DM0DOS-11 | 2026-09-01 23:31:49 | 48.83119 | 9.77565 | 87° | 80km/h | 13833m | 4m/s | -52.7°C | 4.7% | 152.9hPa | 2.7V | 08:30:00 | 01:02:49 | 00:00:00 | |
| DK7TD | 2026-09-01 23:31:47 | 48.83123 | 9.77658 | 86° | 84km/h | 13846m | 4.5m/s | -52.8°C | 1.3% | 152.5hPa | 2.8V | 18:12:15 | 01:02:52 | 00:00:00 | |
| DF3TZ-5 | 2026-09-01 23:31:45 | 48.83120 | 9.77596 | 85° | 80km/h | 13837m | 3.5m/s | -52.7°C | 1.8% | 152.8hPa | 2.7V | 00:00:00 | 00:00:00 | 00:00:00 | |
| DK7TD | 2026-09-01 23:31:36 | 48.83111 | 9.77307 | 87° | 86km/h | 13800m | 4.3m/s | -52.7°C | 1.4% | 153.7hPa | 2.7V | 18:12:15 | 01:02:41 | 00:00:00 | |
| DK7TD | 2026-09-01 23:31:26 | 48.83109 | 9.76983 | 92° | 88km/h | 13757m | 5m/s | -52.5°C | 1.3% | 154.7hPa | 2.7V | 18:12:15 | 01:02:31 | 00:00:00 | |
| DK5PH-5 | 2026-09-01 23:31:25 | 48.83110 | 9.76949 | 92° | 86km/h | 13753m | 3.6m/s | -52.5°C | 4.6% | 154.7hPa | 2.7V | 00:00:00 | 01:02:30 | 00:00:00 | |
| DO3MHA-12 | 2026-09-01 23:31:22 | 48.83108 | 9.76849 | 87° | 88km/h | 13739m | 3.8m/s | -52.4°C | 4.6% | 155.1hPa | 2.7V | 00:00:00 | 01:02:27 | 00:00:00 | |
| DB0NH | 2026-09-01 23:31:21 | 48.83106 | 9.76816 | 86° | 86km/h | 13735m | 5.3m/s | -52.4°C | 4.6% | 155.1hPa | 2.7V | 00:00:00 | 01:02:26 | 00:00:00 | |
| DO3MHA-11 | 2026-09-01 23:31:20 | 48.83105 | 9.76783 | 86° | 88km/h | 13730m | 4.2m/s | -52.4°C | 4.6% | 155.3hPa | 2.7V | 00:00:00 | 01:02:25 | 00:00:00 | |
| DG9SBQ-11 | 2026-09-01 23:31:19 | 48.83105 | 9.76783 | 87° | 88km/h | 13730m | 4.3m/s | -52.4°C | 1.8% | 155.3hPa | 2.8V | 00:00:00 | 00:00:00 | 00:00:00 | |
| DO9HM | 2026-09-01 23:31:18 | 48.83103 | 9.76749 | 86° | 88km/h | 13726m | 3.1m/s | -52.4°C | 1.8% | 155.4hPa | 2.8V | 00:00:00 | 00:00:00 | 00:00:00 | |
| BIOWL9-15 | 2026-09-01 23:31:17 | 48.83097 | 9.76615 | 88° | 88km/h | 13709m | 4.7m/s | -52.3°C | 1.8% | 155.8hPa | 2.8V | 00:00:00 | 00:00:00 | 00:00:00 | |
| DM0DOS-11 | 2026-09-01 23:31:16 | 48.83096 | 9.76480 | 86° | 86km/h | 13692m | 4m/s | -52.3°C | 4.6% | 156.2hPa | 2.8V | 08:30:00 | 01:02:16 | 00:00:00 | |
| DK7TD | 2026-09-01 23:31:15 | 48.83097 | 9.76615 | 89° | 89km/h | 13709m | 4.7m/s | -52.3°C | 1.3% | 155.8hPa | 2.7V | 18:12:15 | 01:02:20 | 00:00:00 | |
| DK7TD | 2026-09-01 23:31:05 | 48.83082 | 9.76283 | 84° | 84km/h | 13667m | 3.9m/s | -52.5°C | 1.3% | 156.8hPa | 2.8V | 18:12:15 | 01:02:10 | 00:00:00 | |
| DM0DOS-11 | 2026-09-01 23:31:04 | 48.83076 | 9.76152 | 87° | 84km/h | 13650m | 4.8m/s | -52.4°C | 4.6% | 157.2hPa | 2.8V | 08:30:00 | 01:02:06 | 00:00:00 | |
| DK7TD | 2026-09-01 23:30:54 | 48.83056 | 9.75932 | 80° | 82km/h | 13621m | 3.9m/s | -52.5°C | 1.4% | 158hPa | 2.8V | 18:12:15 | 01:01:59 | 00:00:00 | |
| DM0DOS-11 | 2026-09-01 23:30:53 | 48.83048 | 9.75835 | 85° | 88km/h | 13607m | 4m/s | -52.5°C | 4.7% | 158.2hPa | 2.7V | 08:30:00 | 01:01:56 | 00:00:00 | |
| DO3MHA-12 | 2026-09-01 23:30:52 | 48.83050 | 9.75868 | 84° | 86km/h | 13611m | 3.9m/s | -52.4°C | 4.7% | 158.1hPa | 2.7V | 00:00:00 | 01:01:57 | 00:00:00 | |
| DG9SBQ-11 | 2026-09-01 23:30:51 | 48.83048 | 9.75834 | 87° | 88km/h | 13607m | 4.0m/s | -52.5°C | 1.9% | 158.2hPa | 2.7V | 00:00:00 | 00:00:00 | 00:00:00 | |
| DO3MHA-11 | 2026-09-01 23:30:50 | 48.83047 | 9.75801 | 87° | 86km/h | 13603m | 4.4m/s | -52.4°C | 4.7% | 158.4hPa | 2.7V | 00:00:00 | 01:01:55 | 08:30:00 | |
| DM0DOS-11 | 2026-09-01 23:30:46 | 48.83022 | 9.75476 | 84° | 84km/h | 13559m | 4.5m/s | -52.1°C | 4.7% | 159.5hPa | 2.7V | 08:30:00 | 01:01:45 | 00:00:00 | |
| DK7TD | 2026-09-01 23:30:44 | 48.83034 | 9.75605 | 81° | 84km/h | 13577m | 3.9m/s | -52.3°C | 1.4% | 159hPa | 2.7V | 18:12:15 | 01:01:49 | 00:00:00 | |
| OE5DRO-10 | 2026-09-01 23:30:43 | 48.83030 | 9.75573 | 82° | 86km/h | 13573m | 5.2m/s | 0°C | 0% | 0hPa | 2.7V | 00:00:00 | 00:00:00 | 00:00:00 | |
| DO3MHA-12 | 2026-09-01 23:30:42 | 48.83027 | 9.75540 | 83° | 86km/h | 13568m | 3.8m/s | -52.1°C | 4.6% | 159.2hPa | 2.7V | 00:00:00 | 01:01:47 | 08:30:00 | |
| OE5DXL-15 | 2026-09-01 23:30:41 | 48.83025 | 9.75508 | 84° | 82km/h | 13564m | 4.7m/s | -52.1°C | 4.6% | 159.3hPa | 2.7V | 00:00:00 | 00:00:00 | 00:00:00 | |
| DO3MHA-11 | 2026-09-01 23:30:40 | 48.83022 | 9.75475 | 85° | 86km/h | 13559m | 4.5m/s | -52.1°C | 4.7% | 159.4hPa | 2.8V | 00:00:00 | 01:01:45 | 00:00:00 | |
| DJTTGO | 2026-09-01 23:30:39 | 48.83022 | 9.75475 | 86° | 84km/h | 13559m | 4.6m/s | 0°C | 0% | 159.5hPa | 2.8V | 00:00:00 | 00:00:00 | 00:00:00 | |
| DG9SBQ-11 | 2026-09-01 23:30:38 | 48.83021 | 9.75443 | 87° | 84km/h | 13555m | 3.7m/s | -52.1°C | 1.9% | 159.6hPa | 2.8V | 00:00:00 | 00:00:00 | 00:00:00 | |
| NBG1-10 | 2026-09-01 23:30:37 | 48.83017 | 9.75377 | 86° | 82km/h | 13546m | 3.8m/s | -52.0°C | 4.7% | 159.7hPa | 2.8V | 00:00:00 | 01:01:42 | 00:00:00 | |
| DM0DOS-11 | 2026-09-01 23:30:35 | 48.83000 | 9.75152 | 81° | 82km/h | 13515m | 5m/s | -52°C | 4.6% | 160.5hPa | 2.8V | 08:30:00 | 01:01:35 | 00:00:00 | |
| DK7TD | 2026-09-01 23:30:33 | 48.83010 | 9.75247 | 83° | 84km/h | 13529m | 4.7m/s | -52°C | 1.4% | 160.2hPa | 2.7V | 18:12:15 | 01:01:38 | 00:00:00 | |
| DK7TD | 2026-09-01 23:30:23 | 48.82988 | 9.74934 | 87° | 82km/h | 13486m | 3.4m/s | -52°C | 1.4% | 161.3hPa | 2.7V | 18:12:15 | 01:01:28 | 00:00:00 | |
| DM0DOS-11 | 2026-09-01 23:30:22 | 48.82985 | 9.74838 | 86° | 84km/h | 13473m | 3.9m/s | -52°C | 4.5% | 161.6hPa | 2.8V | 08:30:00 | 01:01:25 | 00:00:00 | |
| DO3MHA-12 | 2026-09-01 23:30:22 | 48.82987 | 9.74902 | 88° | 82km/h | 13482m | 5.0m/s | -51.9°C | 4.5% | 161.3hPa | 2.8V | 00:00:00 | 01:01:27 | 00:00:00 | |
| DB0NH | 2026-09-01 23:30:21 | 48.82986 | 9.74870 | 87° | 80km/h | 13477m | 4.0m/s | -51.9°C | 4.5% | 161.4hPa | 2.8V | 00:00:00 | 01:01:26 | 00:00:00 | |
| DF1GD-15 | 2026-09-01 23:30:20 | 48.82986 | 9.74870 | 87° | 84km/h | 13477m | 4.1m/s | -52.0°C | 1.9% | 161.5hPa | 2.8V | 00:00:00 | 00:00:00 | 00:00:00 | |
| DM0DOS-11 | 2026-09-01 23:30:17 | 48.82965 | 9.74528 | 85° | 86km/h | 13432m | 4.6m/s | -51.9°C | 4.5% | 162.6hPa | 2.8V | 08:30:00 | 01:01:15 | 00:00:00 | |
| DK7TD | 2026-09-01 23:30:12 | 48.82968 | 9.74592 | 85° | 82km/h | 13439m | 4.4m/s | -52°C | 1.4% | 162.4hPa | 2.7V | 18:12:15 | 01:01:17 | 00:00:00 | |
| DO3MHA-12 | 2026-09-01 23:30:12 | 48.82968 | 9.74592 | 86° | 84km/h | 13440m | 4.4m/s | -51.9°C | 4.5% | 162.4hPa | 2.7V | 00:00:00 | 01:01:17 | 00:00:00 | |
| OE5DXL-15 | 2026-09-01 23:30:11 | 48.82967 | 9.74560 | 86° | 80km/h | 13436m | 2.9m/s | -51.9°C | 4.5% | 162.5hPa | 2.7V | 00:00:00 | 00:00:00 | 00:00:00 | |
| DO3MHA-11 | 2026-09-01 23:30:10 | 48.82965 | 9.74528 | 86° | 82km/h | 13432m | 4.6m/s | -51.9°C | 4.5% | 162.6hPa | 2.7V | 00:00:00 | 01:01:15 | 00:00:00 | |
| DO9HM | 2026-09-01 23:30:07 | 48.82957 | 9.74429 | 83° | 86km/h | 13420m | 4.4m/s | -51.9°C | 1.9% | 163.0hPa | 2.7V | 00:00:00 | 00:00:00 | 00:00:00 | |
| DG9SBQ-11 | 2026-09-01 23:30:05 | 48.82954 | 9.74397 | 82° | 82km/h | 13415m | 4.9m/s | -51.9°C | 1.9% | 163.0hPa | 2.7V | 00:00:00 | 00:00:00 | 00:00:00 | |
| DM0DOS-11 | 2026-09-01 23:30:04 | 48.82930 | 9.74220 | 78° | 78km/h | 13389m | 5.1m/s | -52°C | 4.6% | 163.7hPa | 2.7V | 08:30:00 | 01:01:05 | 00:00:00 | |
| DK7TD | 2026-09-01 23:30:01 | 48.82934 | 9.74249 | 77° | 78km/h | 13394m | 4.2m/s | -51.9°C | 1.4% | 163.6hPa | 2.7V | 18:12:15 | 01:01:06 | 00:00:00 | |
| DB0ND-19 | 2026-09-01 23:29:56 | 48.82915 | 9.74100 | 79° | 80km/h | 13372m | 4.0m/s | -51.9°C | 1.9% | 164.1hPa | 2.7V | 00:00:00 | 00:00:00 | 00:00:00 | |
| DK5PH-5 | 2026-09-01 23:29:55 | 48.82911 | 9.74070 | 80° | 75km/h | 13367m | 4.8m/s | -51.8°C | 4.6% | 164.2hPa | 2.7V | 00:00:00 | 01:01:00 | 00:00:00 | |
| DG9SBQ-11 | 2026-09-01 23:29:53 | 48.82907 | 9.74040 | 80° | 80km/h | 13363m | 3.6m/s | -51.9°C | 1.9% | 164.3hPa | 2.7V | 00:00:00 | 00:00:00 | 00:00:00 | |
| DM0DOS-11 | 2026-09-01 23:29:52 | 48.82889 | 9.73892 | 81° | 77km/h | 13341m | 3.8m/s | -51.8°C | 4.6% | 164.9hPa | 2.7V | 08:30:00 | 01:00:54 | 00:00:00 | |
| DK7TD | 2026-09-01 23:29:50 | 48.82892 | 9.73921 | 80° | 77km/h | 13345m | 4m/s | -51.8°C | 1.4% | 164.8hPa | 2.7V | 18:12:15 | 01:00:55 | 00:00:00 | |
| DK7TD | 2026-09-01 23:29:40 | 48.82858 | 9.73632 | 76° | 77km/h | 13303m | 5m/s | -51.7°C | 1.4% | 165.9hPa | 2.7V | 18:12:15 | 01:00:45 | 00:00:00 | |
| BIOWL1-15 | 2026-09-01 23:29:30 | 48.82803 | 9.73243 | 80° | 75km/h | 13241m | 3.5m/s | -51.6°C | 1.5% | 167.5hPa | 2.8V | 18:12:15 | 01:00:31 | 00:00:00 | |
| DK7TD | 2026-09-01 23:29:30 | 48.82817 | 9.73352 | 79° | 73km/h | 13259m | 5m/s | -51.6°C | 1.4% | 167hPa | 2.8V | 18:12:15 | 01:00:35 | 00:00:00 | |
| DK7TD | 2026-09-01 23:29:20 | 48.82785 | 9.73075 | 81° | 71km/h | 13215m | 4.3m/s | -51.6°C | 1.4% | 168.2hPa | 2.8V | 18:12:15 | 01:00:25 | 00:00:00 | |
| BIOWL1-15 | 2026-09-01 23:29:16 | 48.82771 | 9.72963 | 79° | 78km/h | 13198m | 2.9m/s | -51.6°C | 1.5% | 168.6hPa | 2.7V | 18:12:15 | 01:00:21 | 00:00:00 | |
| DK7TD | 2026-09-01 23:29:09 | 48.82748 | 9.72761 | 79° | 75km/h | 13168m | 5.1m/s | -51.8°C | 1.6% | 169.3hPa | 2.8V | 18:12:15 | 01:00:14 | 00:00:00 | |
| DG9SBQ-11 | 2026-09-01 23:29:08 | 48.82747 | 9.72761 | 80° | 75km/h | 13169m | 5.1m/s | -51.8°C | 2.0% | 169.3hPa | 2.7V | 00:00:00 | 00:00:00 | 00:00:00 | |
| DM0DOS-11 | 2026-09-01 23:29:07 | 48.82717 | 9.72556 | 78° | 80km/h | 13140m | 3.6m/s | -51.8°C | 4.7% | 170.1hPa | 2.7V | 08:30:00 | 01:00:07 | 00:00:00 | |
| BIOWL1-15 | 2026-09-01 23:29:06 | 48.82735 | 9.72677 | 76° | 78km/h | 13156m | 5.1m/s | -51.9°C | 1.7% | 169.7hPa | 2.7V | 18:12:15 | 01:00:11 | 00:00:00 | |
| DK7TD | 2026-09-01 23:28:59 | 48.82705 | 9.72465 | 79° | 80km/h | 13127m | 3.9m/s | -51.7°C | 1.6% | 170.4hPa | 2.8V | 18:12:15 | 01:00:04 | 00:00:00 | |
| BIOWL1-15 | 2026-09-01 23:28:55 | 48.82691 | 9.72345 | 82° | 80km/h | 13110m | 3.2m/s | -51.6°C | 1.7% | 170.9hPa | 2.7V | 18:12:15 | 01:00:00 | 00:00:00 | |
| DK5PH-5 | 2026-09-01 23:28:55 | 48.82691 | 9.72345 | 82° | 77km/h | 13110m | 3.2m/s | -51.6°C | 4.7% | 170.9hPa | 2.7V | 00:00:00 | 01:00:00 | 08:30:00 | |
| DM0DOS-11 | 2026-09-01 23:28:54 | 48.82683 | 9.72253 | 81° | 80km/h | 13098m | 3.3m/s | -51.5°C | 4.7% | 171.2hPa | 2.7V | 08:30:00 | 00:59:57 | 00:00:00 | |
| DK7TD | 2026-09-01 23:28:48 | 48.82667 | 9.72133 | 78° | 77km/h | 13081m | 4.8m/s | -51.6°C | 1.7% | 171.6hPa | 2.8V | 18:12:15 | 00:59:53 | 00:00:00 | |
| DJTTGO | 2026-09-01 23:28:47 | 48.82668 | 9.72133 | 79° | 77km/h | 13081m | 4.8m/s | 0°C | 0% | 0hPa | 2.8V | 00:00:00 | 00:00:00 | 00:00:00 | |
| DG9SBQ-11 | 2026-09-01 23:28:46 | 48.82663 | 9.72104 | 80° | 75km/h | 13077m | 3.9m/s | -51.6°C | 2.1% | 171.8hPa | 2.8V | 00:00:00 | 00:00:00 | 00:00:00 | |
| DM0DOS-11 | 2026-09-01 23:28:45 | 48.82648 | 9.71964 | 81° | 73km/h | 13056m | 4m/s | -51.8°C | 4.8% | 172.3hPa | 2.8V | 08:30:00 | 00:59:47 | 00:00:00 | |
| BIOWL1-15 | 2026-09-01 23:28:45 | 48.82645 | 9.71937 | 81° | 73km/h | 13052m | 5m/s | -51.7°C | 1.9% | 172.4hPa | 2.7V | 18:12:15 | 00:59:46 | 00:00:00 | |
| DK7TD | 2026-09-01 23:28:37 | 48.82633 | 9.71822 | 82° | 77km/h | 13035m | 3.4m/s | -51.9°C | 2% | 172.9hPa | 2.7V | 18:12:15 | 00:59:42 | 00:00:00 | |
| BIOWL1-15 | 2026-09-01 23:28:36 | 48.82623 | 9.71734 | 78° | 78km/h | 13022m | 3.2m/s | -52°C | 2.1% | 173.2hPa | 2.8V | 18:12:15 | 00:59:39 | 00:00:00 | |
| DK7TD | 2026-09-01 23:28:27 | 48.82607 | 9.71534 | 87° | 75km/h | 12993m | 5.3m/s | -52.3°C | 2.5% | 174hPa | 2.8V | 18:12:15 | 00:59:32 | 00:00:00 | |
| BIOWL1-15 | 2026-09-01 23:28:21 | 48.82597 | 9.71361 | 82° | 75km/h | 12967m | 5m/s | -52.6°C | 2.9% | 174.7hPa | 2.8V | 18:12:15 | 00:59:26 | 00:00:00 | |
| DK7TD | 2026-09-01 23:28:16 | 48.82581 | 9.71218 | 83° | 75km/h | 12945m | 3.7m/s | -52.7°C | 3.1% | 175.3hPa | 2.8V | 18:12:15 | 00:59:21 | 00:00:00 | |
| DM0DOS-11 | 2026-09-01 23:28:14 | 48.82576 | 9.71097 | 89° | 80km/h | 12929m | 3.7m/s | -52.8°C | 6% | 175.7hPa | 2.8V | 08:30:00 | 00:59:17 | 00:00:00 | |
| BIOWL1-15 | 2026-09-01 23:28:08 | 48.82571 | 9.70886 | 85° | 75km/h | 12900m | 4m/s | -53°C | 3.9% | 176.5hPa | 2.7V | 18:12:15 | 00:59:10 | 00:00:00 | |
| DK7TD | 2026-09-01 23:28:06 | 48.82573 | 9.70915 | 86° | 77km/h | 12904m | 4.6m/s | -53°C | 3.8% | 176.4hPa | 2.8V | 18:12:15 | 00:59:11 | 00:00:00 | |
| DM0DOS-11 | 2026-09-01 23:28:05 | 48.82566 | 9.70800 | 84° | 75km/h | 12888m | 4m/s | -53.1°C | 6.6% | 176.9hPa | 2.8V | 08:30:00 | 00:59:07 | 00:00:00 | |
| BIOWL1-15 | 2026-09-01 23:27:58 | 48.82562 | 9.70581 | 90° | 71km/h | 12855m | 3.8m/s | -53.4°C | 4.4% | 177.8hPa | 2.7V | 18:12:15 | 00:58:59 | 00:00:00 | |
| DK7TD | 2026-09-01 23:27:55 | 48.82563 | 9.70608 | 90° | 71km/h | 12859m | 5.1m/s | -53.3°C | 4.3% | 177.7hPa | 2.7V | 18:12:15 | 00:59:00 | 00:00:00 | |
| DK5PH-5 | 2026-09-01 23:27:55 | 48.82562 | 9.70608 | 91° | 75km/h | 12859m | 5.1m/s | -53.3°C | 6.8% | 177.6hPa | 2.8V | 00:00:00 | 00:59:00 | 00:00:00 | |
| DM0DOS-11 | 2026-09-01 23:27:54 | 48.82562 | 9.70525 | 89° | 75km/h | 12847m | 4.9m/s | -53.5°C | 6.9% | 178hPa | 2.8V | 08:30:00 | 00:58:57 | 00:00:00 | |
| DK7TD | 2026-09-01 23:27:45 | 48.82552 | 9.70323 | 84° | 73km/h | 12817m | 5.3m/s | -53.5°C | 4.4% | 178.8hPa | 2.7V | 18:12:15 | 00:58:50 | 00:00:00 | |
| DM0DOS-11 | 2026-09-01 23:27:44 | 48.82548 | 9.70242 | 86° | 73km/h | 12805m | 4.6m/s | -53.6°C | 7.2% | 179.2hPa | 2.8V | 08:30:00 | 00:58:47 | 00:00:00 | |
| DK7TD | 2026-09-01 23:27:35 | 48.82541 | 9.70041 | 86° | 78km/h | 12775m | 5m/s | -53.5°C | 4.6% | 180hPa | 2.7V | 18:12:15 | 00:58:40 | 00:00:00 | |
| DM0DOS-11 | 2026-09-01 23:27:34 | 48.82536 | 9.69952 | 84° | 77km/h | 12763m | 4.9m/s | -53.5°C | 7.2% | 180.3hPa | 2.8V | 08:30:00 | 00:58:37 | 00:00:00 | |
| DB0UT-7 | 2026-09-01 23:27:32 | 48.82536 | 9.69952 | 85° | 77km/h | 12763m | 4.8m/s | -53.4°C | 7.2% | 180.3hPa | 2.7V | 00:00:00 | 00:00:00 | 00:00:00 | |
| DO3MHA-11 | 2026-09-01 23:27:29 | 48.82530 | 9.69865 | 83° | 75km/h | 12750m | 4.9m/s | -53.5°C | 7.2% | 180.6hPa | 2.7V | 00:00:00 | 00:58:34 | 00:00:00 | |
| DN1GJH-1 | 2026-09-01 23:27:28 | 48.82530 | 9.69865 | 84° | 73km/h | 12750m | 4.9m/s | -53.5°C | 3.9% | 180.7hPa | 2.7V | 00:00:00 | 00:00:00 | 00:00:00 | |
| DG9SBQ-11 | 2026-09-01 23:27:26 | 48.82525 | 9.69810 | 84° | 71km/h | 12742m | 4.5m/s | -53.5°C | 3.9% | 180.9hPa | 2.7V | 00:00:00 | 00:00:00 | 00:00:00 | |
| DM0DOS-11 | 2026-09-01 23:27:24 | 48.82526 | 9.69668 | 94° | 75km/h | 12719m | 5.2m/s | -53.4°C | 7.1% | 181.6hPa | 2.7V | 08:30:00 | 00:58:27 | 00:00:00 | |
| DK7TD | 2026-09-01 23:27:24 | 48.82524 | 9.69726 | 93° | 77km/h | 12729m | 4.3m/s | -53.4°C | 4.6% | 181.3hPa | 2.7V | 18:12:15 | 00:58:29 | 00:00:00 | |
| BIOWL1-15 | 2026-09-01 23:27:19 | 48.82531 | 9.69581 | 94° | 78km/h | 12705m | 3.8m/s | -53.3°C | 4.6% | 182hPa | 2.8V | 18:12:15 | 00:58:24 | 00:00:00 | |
| DO3MHA-12 | 2026-09-01 23:27:19 | 48.82531 | 9.69581 | 95° | 77km/h | 12705m | 3.8m/s | -53.3°C | 7.2% | 182.0hPa | 2.7V | 00:00:00 | 00:58:24 | 00:00:00 | |
| DJ8HS-15 | 2026-09-01 23:27:17 | 48.82533 | 9.69523 | 94° | 78km/h | 12697m | 4.1m/s | -53.3°C | 7.2% | 182.1hPa | 2.7V | 00:00:00 | 00:58:22 | 00:00:00 | |
| DF1GD-15 | 2026-09-01 23:27:16 | 48.82533 | 9.69523 | 94° | 75km/h | 12697m | 4.2m/s | -53.3°C | 3.9% | 182.2hPa | 2.7V | 00:00:00 | 00:00:00 | 00:00:00 | |
| DM0DOS-11 | 2026-09-01 23:27:14 | 48.82538 | 9.69376 | 92° | 77km/h | 12675m | 4.8m/s | -53.2°C | 7.2% | 182.8hPa | 2.7V | 08:30:00 | 00:58:17 | 00:00:00 | |
| DK7TD | 2026-09-01 23:27:13 | 48.82537 | 9.69405 | 93° | 78km/h | 12680m | 4m/s | -53.2°C | 4.6% | 182.7hPa | 2.7V | 18:12:15 | 00:58:18 | 00:00:00 | |
| BIOWL1-15 | 2026-09-01 23:27:09 | 48.82540 | 9.69224 | 90° | 82km/h | 12656m | 3.9m/s | -53.1°C | 4.5% | 183.3hPa | 2.7V | 18:12:15 | 00:58:12 | 00:00:00 | |
| DO3MHA-12 | 2026-09-01 23:27:09 | 48.82539 | 9.69286 | 91° | 78km/h | 12664m | 4.7m/s | -53.1°C | 7.1% | 183.1hPa | 2.7V | 00:00:00 | 00:58:14 | 00:00:00 | |
| DM7RM-13 | 2026-09-01 23:27:08 | 48.82539 | 9.69286 | 92° | 80km/h | 12664m | 4.7m/s | -53.1°C | 3.9% | 183.1hPa | 2.7V | 00:00:00 | 00:00:00 | 00:00:00 | |
| DN1GJH-1 | 2026-09-01 23:27:07 | 48.82540 | 9.69255 | 92° | 82km/h | 12660m | 3.8m/s | -53.1°C | 3.9% | 183.3hPa | 2.7V | 00:00:00 | 00:00:00 | 00:00:00 | |
| AZAK | 2026-09-01 23:27:06 | 48.82540 | 9.69193 | 91° | 80km/h | 12652m | 4.5m/s | -53.1°C | 3.8% | 183.5hPa | 2.7V | 00:00:00 | 00:00:00 | 00:00:00 | |
| DM0DOS-11 | 2026-09-01 23:27:04 | 48.82542 | 9.69073 | 92° | 77km/h | 12636m | 3.6m/s | -53°C | 7% | 183.9hPa | 2.7V | 08:30:00 | 00:58:07 | 00:00:00 | |
| DK7TD | 2026-09-01 23:27:02 | 48.82543 | 9.69073 | 92° | 77km/h | 12636m | 3.6m/s | -53°C | 4.5% | 183.9hPa | 2.7V | 18:12:15 | 00:58:07 | 00:00:00 | |
| DB0UT-7 | 2026-09-01 23:27:02 | 48.82542 | 9.69073 | 93° | 84km/h | 12636m | 3.6m/s | -53.0°C | 7.0% | 183.9hPa | 2.7V | 00:00:00 | 00:58:07 | 00:00:00 | |
| DO3MHA-11 | 2026-09-01 23:26:59 | 48.82544 | 9.68985 | 91° | 82km/h | 12624m | 4.2m/s | -53.0°C | 7.0% | 184.2hPa | 2.7V | 00:00:00 | 00:58:04 | 00:00:00 | |
| DG9SBQ-11 | 2026-09-01 23:26:58 | 48.82544 | 9.68985 | 92° | 78km/h | 12624m | 4.3m/s | -53.0°C | 3.8% | 184.3hPa | 2.7V | 00:00:00 | 00:00:00 | 00:00:00 | |
| DJ8HS-15 | 2026-09-01 23:26:57 | 48.82545 | 9.68924 | 93° | 84km/h | 12616m | 4.1m/s | -52.9°C | 7.0% | 184.5hPa | 2.7V | 00:00:00 | 00:58:02 | 00:00:00 | |
| DF1GD-15 | 2026-09-01 23:26:55 | 48.82546 | 9.68893 | 93° | 80km/h | 12611m | 4.5m/s | -53.0°C | 3.8% | 184.7hPa | 2.7V | 00:00:00 | 00:00:00 | 00:00:00 | |
| DM0DOS-11 | 2026-09-01 23:26:54 | 48.82549 | 9.68766 | 91° | 84km/h | 12595m | 3.4m/s | -52.9°C | 6.9% | 185.2hPa | 2.7V | 08:30:00 | 00:57:57 | 00:00:00 | |
| DK7TD | 2026-09-01 23:26:52 | 48.82549 | 9.68766 | 91° | 84km/h | 12595m | 3.4m/s | -52.9°C | 4.4% | 185.2hPa | 2.7V | 18:12:15 | 00:57:57 | 00:00:00 | |
| BIOWL1-15 | 2026-09-01 23:26:46 | 48.82549 | 9.68508 | 91° | 86km/h | 12562m | 3.8m/s | -52.8°C | 4.3% | 186.1hPa | 2.8V | 18:12:15 | 00:57:49 | 00:00:00 | |
| DM0DOS-11 | 2026-09-01 23:26:44 | 48.82550 | 9.68442 | 92° | 86km/h | 12553m | 4.3m/s | -52.8°C | 6.6% | 186.3hPa | 2.7V | 08:30:00 | 00:57:47 | 00:00:00 | |
| DK7TD | 2026-09-01 23:26:42 | 48.82550 | 9.68442 | 93° | 86km/h | 12553m | 4.3m/s | -52.8°C | 4.3% | 186.3hPa | 2.7V | 18:12:15 | 00:57:47 | 00:00:00 | |
| DK7TD | 2026-09-01 23:26:32 | 48.82550 | 9.68109 | 90° | 89km/h | 12511m | 4.7m/s | -53.4°C | 4.5% | 187.5hPa | 2.7V | 18:12:15 | 00:57:37 | 00:00:00 | |
| DB0UT-7 | 2026-09-01 23:26:32 | 48.82549 | 9.68109 | 91° | 88km/h | 12512m | 4.7m/s | -53.4°C | 7.0% | 187.4hPa | 2.8V | 00:00:00 | 00:00:00 | 00:00:00 | |
| DG9SBQ-11 | 2026-09-01 23:26:30 | 48.82550 | 9.68075 | 92° | 91km/h | 12508m | 3.1m/s | -53.5°C | 3.8% | 187.6hPa | 2.8V | 00:00:00 | 00:00:00 | 00:00:00 | |
| DO3MHA-12 | 2026-09-01 23:26:29 | 48.82549 | 9.68006 | 89° | 89km/h | 12500m | 4.7m/s | -53.4°C | 7.1% | 187.8hPa | 2.8V | 00:00:00 | 00:57:34 | 00:00:00 | |
| DN1GJH-1 | 2026-09-01 23:26:26 | 48.82547 | 9.67937 | 88° | 89km/h | 12491m | 4.3m/s | -53.4°C | 3.9% | 188.1hPa | 2.8V | 00:00:00 | 00:00:00 | 00:00:00 | |
| DM0DOS-11 | 2026-09-01 23:26:24 | 48.82537 | 9.67695 | 85° | 88km/h | 12461m | 3.9m/s | -53.5°C | 7.3% | 189hPa | 2.8V | 08:30:00 | 00:57:25 | 00:00:00 | |
| DK7TD | 2026-09-01 23:26:21 | 48.82539 | 9.67729 | 86° | 89km/h | 12466m | 5.6m/s | -53.5°C | 5.1% | 188.8hPa | 2.7V | 18:12:15 | 00:57:26 | 00:00:00 | |
| BIOWL1-15 | 2026-09-01 23:26:15 | 48.82527 | 9.67529 | 86° | 86km/h | 12440m | 4.3m/s | -53.7°C | 5.5% | 189.6hPa | 2.7V | 18:12:15 | 00:57:20 | 00:00:00 | |
| DM0DOS-11 | 2026-09-01 23:26:14 | 48.82518 | 9.67364 | 84° | 88km/h | 12419m | 3.8m/s | -53.8°C | 7.9% | 190.2hPa | 2.8V | 08:30:00 | 00:57:15 | 00:00:00 | |
| DK7TD | 2026-09-01 23:26:11 | 48.82520 | 9.67397 | 85° | 86km/h | 12423m | 5.1m/s | -53.8°C | 5.9% | 190.1hPa | 2.7V | 18:12:15 | 00:57:16 | 00:00:00 | |
| OE5DXL-15 | 2026-09-01 23:26:11 | 48.82520 | 9.67397 | 86° | 88km/h | 12424m | 5.1m/s | 0°C | 0% | 0hPa | 2.7V | 00:00:00 | 00:00:00 | 00:00:00 | |
| DO3MHA-12 | 2026-09-01 23:26:09 | 48.82516 | 9.67331 | 83° | 88km/h | 12415m | 4.7m/s | -53.7°C | 8.0% | 190.3hPa | 2.7V | 00:00:00 | 00:57:14 | 08:30:00 | |
| DG9SBQ-11 | 2026-09-01 23:26:07 | 48.82512 | 9.67298 | 81° | 88km/h | 12411m | 3.9m/s | -53.9°C | 4.7% | 190.5hPa | 2.8V | 00:00:00 | 00:00:00 | 00:00:00 | |
| BIOWL9-15 | 2026-09-01 23:26:06 | 48.82505 | 9.67232 | 79° | 86km/h | 12401m | 5.3m/s | -54.2°C | 5.1% | 190.7hPa | 2.8V | 00:00:00 | 00:00:00 | 00:00:00 | |
| DM0DOS-11 | 2026-09-01 23:26:04 | 48.82482 | 9.67037 | 81° | 88km/h | 12375m | 3.4m/s | -54.9°C | 9.6% | 191.5hPa | 2.8V | 08:30:00 | 00:57:05 | 00:00:00 | |
| BIOWL1-15 | 2026-09-01 23:26:04 | 48.82485 | 9.67070 | 82° | 86km/h | 12379m | 4.6m/s | -54.8°C | 7.4% | 191.4hPa | 2.8V | 18:12:15 | 00:57:06 | 00:00:00 | |
| DK7TD | 2026-09-01 23:26:00 | 48.82482 | 9.67037 | 82° | 88km/h | 12375m | 3.4m/s | -54.9°C | 7.6% | 191.5hPa | 2.8V | 18:12:15 | 00:57:05 | 00:00:00 | |
| DK7TD | 2026-09-01 23:25:50 | 48.82449 | 9.66701 | 82° | 86km/h | 12333m | 4.4m/s | -55.2°C | 8.3% | 192.8hPa | 2.7V | 18:12:15 | 00:56:55 | 00:00:00 | |
| DM0DOS-11 | 2026-09-01 23:25:49 | 48.82425 | 9.66467 | 79° | 91km/h | 12304m | 3.4m/s | -55.2°C | 10.8% | 193.7hPa | 2.8V | 08:30:00 | 00:56:48 | 00:00:00 | |
| DB0ND-19 | 2026-09-01 23:25:48 | 48.82439 | 9.66602 | 80° | 88km/h | 12320m | 3.7m/s | -55.2°C | 6.4% | 193.1hPa | 2.7V | 00:00:00 | 00:00:00 | 00:00:00 | |
| DF7PN | 2026-09-01 23:25:47 | 48.82439 | 9.66602 | 80° | 88km/h | 12320m | 3.7m/s | -55.2°C | 6.4% | 193.1hPa | 2.7V | 00:00:00 | 00:00:00 | 00:00:00 | |
| DL6DJ-15 | 2026-09-01 23:25:46 | 48.82436 | 9.66569 | 81° | 88km/h | 12316m | 4.9m/s | -55.2°C | 6.5% | 193.3hPa | 2.7V | 00:00:00 | 00:00:00 | 00:00:00 | |
| DK7TD | 2026-09-01 23:25:40 | 48.82413 | 9.66364 | 81° | 89km/h | 12291m | 3.1m/s | -55.2°C | 9.2% | 194.1hPa | 2.7V | 18:12:15 | 00:56:45 | 00:00:00 | |
| BIOWL1-15 | 2026-09-01 23:25:38 | 48.82406 | 9.66297 | 80° | 88km/h | 12283m | 4.3m/s | -55.2°C | 9.4% | 194.3hPa | 2.8V | 18:12:15 | 00:56:43 | 00:00:00 | |
| DJ8HS-15 | 2026-09-01 23:25:37 | 48.82403 | 9.66265 | 81° | 84km/h | 12279m | 3.5m/s | -55.2°C | 11.5% | 194.4hPa | 2.7V | 00:00:00 | 00:56:42 | 00:00:00 | |
| DM0DOS-11 | 2026-09-01 23:25:35 | 48.82374 | 9.66016 | 81° | 89km/h | 12245m | 4m/s | -55.3°C | 12% | 195.5hPa | 2.7V | 08:30:00 | 00:56:34 | 00:00:00 | |
| DK7TD | 2026-09-01 23:25:29 | 48.82374 | 9.66016 | 81° | 89km/h | 12245m | 4m/s | -55.3°C | 10.2% | 195.5hPa | 2.7V | 18:12:15 | 00:56:34 | 00:00:00 | |
| DO3MHA-12 | 2026-09-01 23:25:29 | 48.82374 | 9.66016 | 82° | 86km/h | 12245m | 4.0m/s | -55.3°C | 12.0% | 195.4hPa | 2.8V | 00:00:00 | 00:56:34 | 00:00:00 | |
| OE3JTB-15 | 2026-09-01 23:25:26 | 48.82363 | 9.65913 | 83° | 84km/h | 12232m | 4.9m/s | -55.2°C | 12.1% | 195.8hPa | 2.8V | 00:00:00 | 00:00:00 | 00:00:00 | |
| DN1GJH-1 | 2026-09-01 23:25:25 | 48.82363 | 9.65913 | 83° | 91km/h | 12232m | 5.0m/s | -55.3°C | 7.8% | 195.8hPa | 2.8V | 00:00:00 | 00:00:00 | 00:00:00 | |
| DM7RM-13 | 2026-09-01 23:25:24 | 48.82360 | 9.65879 | 83° | 89km/h | 12228m | 3.7m/s | -55.3°C | 7.9% | 196.0hPa | 2.8V | 00:00:00 | 00:00:00 | 00:00:00 | |
| DM0DOS-11 | 2026-09-01 23:25:23 | 48.82342 | 9.65721 | 78° | 80km/h | 12206m | 3.1m/s | -55.3°C | 12.6% | 196.7hPa | 2.8V | 08:30:00 | 00:56:25 | 00:00:00 | |
| DK7TD | 2026-09-01 23:25:18 | 48.82332 | 9.65662 | 75° | 80km/h | 12198m | 4.1m/s | -55.3°C | 11.3% | 196.9hPa | 2.8V | 18:12:15 | 00:56:23 | 00:00:00 | |
| DB0ND-19 | 2026-09-01 23:25:17 | 48.82321 | 9.65601 | 74° | 80km/h | 12191m | 4.7m/s | -55.2°C | 8.5% | 197.2hPa | 2.7V | 00:00:00 | 00:00:00 | 00:00:00 | |
| DF7PN | 2026-09-01 23:25:16 | 48.82321 | 9.65601 | 74° | 80km/h | 12191m | 4.7m/s | -55.2°C | 8.5% | 197.2hPa | 2.7V | 00:00:00 | 00:00:00 | 00:00:00 | |
| DM0DOS-11 | 2026-09-01 23:25:15 | 48.82293 | 9.65376 | 83° | 82km/h | 12161m | 3.9m/s | -55.4°C | 14.4% | 198.1hPa | 2.7V | 08:30:00 | 00:56:14 | 00:00:00 | |
| DK7TD | 2026-09-01 23:25:08 | 48.82291 | 9.65345 | 84° | 82km/h | 12157m | 4m/s | -55.4°C | 12.8% | 198.2hPa | 2.8V | 18:12:15 | 00:56:13 | 00:00:00 | |
| NBG1-10 | 2026-09-01 23:25:07 | 48.82288 | 9.65313 | 84° | 88km/h | 12153m | 4.9m/s | -55.4°C | 14.5% | 198.3hPa | 2.7V | 00:00:00 | 00:56:12 | 08:30:00 | |
| DG9SBQ-11 | 2026-09-01 23:25:06 | 48.82288 | 9.65313 | 85° | 84km/h | 12153m | 5.0m/s | -55.4°C | 9.7% | 198.3hPa | 2.8V | 00:00:00 | 00:00:00 | 00:00:00 | |
| BIOWL9-15 | 2026-09-01 23:25:04 | 48.82278 | 9.65187 | 83° | 80km/h | 12136m | 5.0m/s | -55.5°C | 9.7% | 198.9hPa | 2.8V | 00:00:00 | 00:00:00 | 00:00:00 | |
| DM0DOS-11 | 2026-09-01 23:25:03 | 48.82270 | 9.65094 | 81° | 80km/h | 12122m | 5.7m/s | -55.5°C | 14.6% | 199.2hPa | 2.8V | 08:30:00 | 00:56:05 | 00:00:00 | |
| DK7TD | 2026-09-01 23:24:57 | 48.82262 | 9.65003 | 83° | 84km/h | 12110m | 4.7m/s | -55.4°C | 14% | 199.7hPa | 2.7V | 18:12:15 | 00:56:02 | 00:00:00 | |
| BIOWL1-15 | 2026-09-01 23:24:47 | 48.82238 | 9.64661 | 85° | 88km/h | 12068m | 2.6m/s | -56°C | 15.5% | 201hPa | 2.7V | 18:12:15 | 00:55:52 | 00:00:00 | |
| DK7TD | 2026-09-01 23:24:46 | 48.82236 | 9.64627 | 84° | 88km/h | 12064m | 4.5m/s | -56°C | 15.4% | 201.1hPa | 2.7V | 18:12:15 | 00:55:51 | 00:00:00 | |
| DB0ND-19 | 2026-09-01 23:24:46 | 48.82234 | 9.64593 | 83° | 89km/h | 12059m | 4.6m/s | -56.0°C | 11.9% | 201.2hPa | 2.8V | 00:00:00 | 00:00:00 | 00:00:00 | |
| DF7PN | 2026-09-01 23:24:45 | 48.82234 | 9.64593 | 83° | 89km/h | 12059m | 4.6m/s | -56.0°C | 11.9% | 201.2hPa | 2.8V | 00:00:00 | 00:00:00 | 00:00:00 | |
| DL6DJ-15 | 2026-09-01 23:24:44 | 48.82231 | 9.64559 | 82° | 91km/h | 12055m | 4.1m/s | -55.9°C | 11.8% | 201.3hPa | 2.8V | 00:00:00 | 00:00:00 | 00:00:00 | |
| BIOWL1-15 | 2026-09-01 23:24:36 | 48.82214 | 9.64275 | 87° | 97km/h | 12021m | 3.7m/s | -55.7°C | 15.5% | 202.4hPa | 2.8V | 18:12:15 | 00:55:41 | 00:00:00 | |
| DK7TD | 2026-09-01 23:24:26 | 48.82195 | 9.63913 | 83° | 91km/h | 11979m | 4.5m/s | -55.6°C | 15.6% | 203.8hPa | 2.8V | 18:12:15 | 00:55:31 | 00:00:00 | |
| BIOWL1-15 | 2026-09-01 23:24:25 | 48.82189 | 9.63843 | 84° | 93km/h | 11970m | 5.4m/s | -55.5°C | 15.6% | 204hPa | 2.8V | 18:12:15 | 00:55:29 | 00:00:00 | |
| DL1ZP-14 | 2026-09-01 23:24:25 | 48.82189 | 9.63843 | 83° | 91km/h | 11970m | 5.4m/s | -55.5°C | 11.9% | 204.0hPa | 2.8V | 00:00:00 | 00:00:00 | 00:00:00 | |
| OE3JTB-15 | 2026-09-01 23:24:24 | 48.82189 | 9.63843 | 84° | 91km/h | 11970m | 5.4m/s | -55.5°C | 17.3% | 204.0hPa | 2.7V | 00:00:00 | 00:00:00 | 00:00:00 | |
| DM0DOS-11 | 2026-09-01 23:24:23 | 48.82177 | 9.63666 | 82° | 95km/h | 11948m | 4.2m/s | -55.4°C | 17.5% | 204.8hPa | 2.8V | 08:30:00 | 00:55:24 | 00:00:00 | |
| BIOWL1-15 | 2026-09-01 23:24:16 | 48.82161 | 9.63495 | 81° | 88km/h | 11927m | 5.3m/s | -55.3°C | 15.9% | 205.4hPa | 2.8V | 18:12:15 | 00:55:19 | 00:00:00 | |
| DK7TD | 2026-09-01 23:24:15 | 48.82165 | 9.63528 | 82° | 88km/h | 11932m | 4.1m/s | -55.3°C | 15.9% | 205.2hPa | 2.7V | 18:12:15 | 00:55:20 | 00:00:00 | |
| BIOWL1-15 | 2026-09-01 23:24:04 | 48.82129 | 9.63163 | 81° | 91km/h | 11884m | 5m/s | -55.1°C | 16.2% | 206.8hPa | 2.7V | 18:12:15 | 00:55:09 | 00:00:00 | |
| DM0DOS-11 | 2026-09-01 23:24:04 | 48.82114 | 9.63027 | 80° | 88km/h | 11867m | 3.7m/s | -55°C | 17.8% | 207.4hPa | 2.7V | 08:30:00 | 00:55:05 | 00:00:00 | |
| DK7TD | 2026-09-01 23:23:54 | 48.82091 | 9.62831 | 78° | 88km/h | 11842m | 4.8m/s | -54.9°C | 17% | 208.2hPa | 2.8V | 18:12:15 | 00:54:59 | 00:00:00 | |
| BIOWL1-15 | 2026-09-01 23:23:54 | 48.82082 | 9.62765 | 79° | 89km/h | 11834m | 4.9m/s | -55°C | 17.3% | 0hPa | 2.7V | 18:12:15 | 00:54:57 | 00:00:00 | |
| DK7TD | 2026-09-01 23:23:43 | 48.82046 | 9.62457 | 78° | 89km/h | 11796m | 4.5m/s | -54.9°C | 18% | 209.7hPa | 2.7V | 18:12:15 | 00:54:48 | 00:00:00 | |
| BIOWL1-15 | 2026-09-01 23:23:42 | 48.82041 | 9.62423 | 78° | 89km/h | 11792m | 3.7m/s | -54.9°C | 18% | 0hPa | 2.7V | 18:12:15 | 00:54:47 | 00:00:00 | |
| BIOWL1-15 | 2026-09-01 23:23:32 | 48.81984 | 9.62085 | 75° | 95km/h | 11749m | 3.4m/s | -54.7°C | 19.4% | 0hPa | 2.7V | 18:12:15 | 00:54:37 | 00:00:00 | |
| BIOWL1-15 | 2026-09-01 23:23:22 | 48.81918 | 9.61742 | 73° | 95km/h | 11708m | 3.3m/s | 0°C | 0% | 0hPa | 2.7V | 18:12:15 | 00:54:27 | 00:00:00 | |
| DK7TD | 2026-09-01 23:23:21 | 48.81912 | 9.61707 | 75° | 95km/h | 11704m | 4.8m/s | -54.7°C | 21.9% | 212.8hPa | 2.7V | 18:12:15 | 00:54:26 | 00:00:00 | |
| BIOWL1-15 | 2026-09-01 23:23:12 | 48.81829 | 9.61249 | 70° | 97km/h | 11652m | 4.8m/s | 0°C | 0% | 0hPa | 2.8V | 18:12:15 | 00:54:13 | 00:00:00 | |
| DK7TD | 2026-09-01 23:23:11 | 48.81853 | 9.61353 | 72° | 97km/h | 11664m | 4.2m/s | -55.7°C | 25.4% | 214.1hPa | 2.7V | 18:12:15 | 00:54:16 | 00:00:00 | |
| DK7TD | 2026-09-01 23:23:01 | 48.81772 | 9.60997 | 74° | 100km/h | 11618m | 3.8m/s | -55.8°C | 25.8% | 215.7hPa | 2.7V | 18:12:15 | 00:54:06 | 00:00:00 | |
| DK7TD | 2026-09-01 23:22:50 | 48.81694 | 9.60589 | 73° | 100km/h | 11573m | 3.8m/s | -55.4°C | 26.3% | 217.1hPa | 2.8V | 18:12:15 | 00:53:55 | 00:00:00 | |
| DK5PH-5 | 2026-09-01 23:22:49 | 48.81686 | 9.60553 | 73° | 97km/h | 11569m | 4.6m/s | -55.3°C | 27.8% | 217.3hPa | 2.7V | 00:00:00 | 00:53:54 | 00:00:00 | |
| DG9SBQ-11 | 2026-09-01 23:22:45 | 48.81663 | 9.60444 | 73° | 100km/h | 11556m | 4.0m/s | -55.3°C | 21.2% | 217.8hPa | 2.7V | 00:00:00 | 00:00:00 | 00:00:00 | |
| DM0DOS-11 | 2026-09-01 23:22:43 | 48.81633 | 9.60299 | 72° | 99km/h | 11538m | 4.5m/s | -55.2°C | 28.4% | 218.3hPa | 2.7V | 08:30:00 | 00:53:47 | 00:00:00 | |
| DK7TD | 2026-09-01 23:22:40 | 48.81618 | 9.60227 | 74° | 99km/h | 11529m | 2.6m/s | -55.4°C | 27.6% | 218.6hPa | 2.8V | 18:12:15 | 00:53:45 | 00:00:00 | |
| DO3MHA-12 | 2026-09-01 23:22:39 | 48.81611 | 9.60190 | 74° | 99km/h | 11526m | 4.8m/s | -55.4°C | 29.0% | 218.7hPa | 2.7V | 00:00:00 | 00:53:44 | 00:00:00 | |
| DJ8HS-15 | 2026-09-01 23:22:37 | 48.81597 | 9.60119 | 73° | 95km/h | 11517m | 3.9m/s | -55.4°C | 29.3% | 219.0hPa | 2.7V | 00:00:00 | 00:53:42 | 00:00:00 | |
| AZAK | 2026-09-01 23:22:36 | 48.81597 | 9.60119 | 74° | 97km/h | 11517m | 3.9m/s | -55.5°C | 22.2% | 219.1hPa | 2.7V | 00:00:00 | 00:00:00 | 00:00:00 | |
| DG9SBQ-11 | 2026-09-01 23:22:34 | 48.81582 | 9.60047 | 72° | 99km/h | 11508m | 3.9m/s | -55.5°C | 22.6% | 219.4hPa | 2.7V | 00:00:00 | 00:00:00 | 00:00:00 | |
| DM0DOS-11 | 2026-09-01 23:22:33 | 48.81559 | 9.59941 | 72° | 97km/h | 11495m | 3.3m/s | -55.6°C | 30.6% | 219.8hPa | 2.7V | 08:30:00 | 00:53:37 | 00:00:00 | |
| DK7TD | 2026-09-01 23:22:29 | 48.81536 | 9.59834 | 72° | 99km/h | 11482m | 5.3m/s | -55.6°C | 28.5% | 220.3hPa | 2.8V | 18:12:15 | 00:53:34 | 00:00:00 | |
| DO3MHA-11 | 2026-09-01 23:22:29 | 48.81536 | 9.59834 | 73° | 91km/h | 11482m | 5.3m/s | -55.6°C | 31.2% | 220.2hPa | 2.7V | 00:00:00 | 00:53:34 | 00:00:00 | |
| DG9SBQ-11 | 2026-09-01 23:22:28 | 48.81536 | 9.59834 | 73° | 99km/h | 11482m | 5.3m/s | -55.6°C | 23.7% | 220.3hPa | 2.7V | 00:00:00 | 00:00:00 | 00:00:00 | |
| DM0DOS-11 | 2026-09-01 23:22:27 | 48.81481 | 9.59596 | 68° | 84km/h | 11451m | 3.4m/s | -55.5°C | 33% | 221.3hPa | 2.7V | 08:30:00 | 00:53:27 | 00:00:00 | |
| DK7TD | 2026-09-01 23:22:19 | 48.81456 | 9.59504 | 66° | 93km/h | 11439m | 4.8m/s | -55.5°C | 29.3% | 221.8hPa | 2.8V | 18:12:15 | 00:53:24 | 00:00:00 | |
| DK5PH-5 | 2026-09-01 23:22:19 | 48.81456 | 9.59504 | 66° | 91km/h | 11439m | 4.7m/s | -55.4°C | 31.7% | 221.7hPa | 2.7V | 00:00:00 | 00:53:24 | 00:00:00 | |
| DM7RM-13 | 2026-09-01 23:22:18 | 48.81456 | 9.59504 | 67° | 93km/h | 11439m | 4.8m/s | -55.5°C | 24.2% | 221.8hPa | 2.7V | 00:00:00 | 00:00:00 | 00:00:00 | |
| DJ8HS-15 | 2026-09-01 23:22:17 | 48.81435 | 9.59434 | 66° | 93km/h | 11431m | 5.3m/s | -55.3°C | 30.8% | 222.0hPa | 2.7V | 00:00:00 | 00:53:22 | 00:00:00 | |
| DG9SBQ-11 | 2026-09-01 23:22:16 | 48.81434 | 9.59434 | 67° | 106km/h | 11431m | 5.3m/s | -55.4°C | 23.5% | 222.0hPa | 2.7V | 00:00:00 | 00:00:00 | 00:00:00 | |
| AZAK | 2026-09-01 23:22:15 | 48.81423 | 9.59396 | 67° | 110km/h | 11425m | 6.1m/s | -55.3°C | 23.6% | 222.2hPa | 2.7V | 00:00:00 | 00:00:00 | 00:00:00 | |
| DM0DOS-11 | 2026-09-01 23:22:13 | 48.81391 | 9.59247 | 78° | 89km/h | 11405m | 6.1m/s | -55.1°C | 31% | 222.9hPa | 2.7V | 08:30:00 | 00:53:17 | 00:00:00 | |
| DK7TD | 2026-09-01 23:22:08 | 48.81381 | 9.59117 | 85° | 89km/h | 11377m | 6.5m/s | -54.9°C | 29% | 223.9hPa | 2.8V | 18:12:15 | 00:53:13 | 00:00:00 | |
| DG9SBQ-11 | 2026-09-01 23:22:05 | 48.81373 | 9.59044 | 79° | 104km/h | 11365m | 4.2m/s | -54.9°C | 23.3% | 224.3hPa | 2.8V | 00:00:00 | 00:00:00 | 00:00:00 | |
| DM0DOS-11 | 2026-09-01 23:22:03 | 48.81346 | 9.58891 | 72° | 93km/h | 11342m | 4.4m/s | -54.7°C | 31.7% | 225.2hPa | 2.8V | 08:30:00 | 00:53:07 | 00:00:00 | |
| DK7TD | 2026-09-01 23:21:58 | 48.81327 | 9.58775 | 81° | 68km/h | 11320m | 5.7m/s | -54.5°C | 29.8% | 225.9hPa | 2.8V | 18:12:15 | 00:53:03 | 00:00:00 | |
| DK7TD | 2026-09-01 23:21:47 | 48.81274 | 9.58419 | 76° | 93km/h | 11261m | 6.4m/s | -54.6°C | 31.9% | 228hPa | 2.8V | 18:12:15 | 00:52:52 | 00:00:00 | |
| DM0DOS-11 | 2026-09-01 23:21:43 | 48.81253 | 9.58214 | 85° | 77km/h | 11228m | 4.9m/s | -54.5°C | 34.1% | 229.2hPa | 2.7V | 08:30:00 | 00:52:45 | 00:00:00 | |
| DK7TD | 2026-09-01 23:21:36 | 48.81246 | 9.58090 | 86° | 86km/h | 11209m | 4.3m/s | -54.5°C | 32.5% | 229.9hPa | 2.8V | 18:12:15 | 00:52:41 | 00:00:00 | |
| AZAK | 2026-09-01 23:21:35 | 48.81244 | 9.58057 | 87° | 86km/h | 11206m | 3.7m/s | -54.4°C | 26.3% | 230.0hPa | 2.8V | 00:00:00 | 00:00:00 | 00:00:00 | |
| DM0DOS-11 | 2026-09-01 23:21:33 | 48.81234 | 9.57896 | 83° | 82km/h | 11183m | 4.7m/s | -54.4°C | 34.4% | 230.8hPa | 2.8V | 08:30:00 | 00:52:35 | 00:00:00 | |
| DK7TD | 2026-09-01 23:21:25 | 48.81223 | 9.57741 | 86° | 84km/h | 11162m | 3.9m/s | -54.4°C | 33.4% | 231.6hPa | 2.8V | 18:12:15 | 00:52:30 | 00:00:00 | |
| DK7TD | 2026-09-01 23:21:15 | 48.81205 | 9.57418 | 83° | 80km/h | 11119m | 4.4m/s | -54.3°C | 34.2% | 233.1hPa | 2.8V | 18:12:15 | 00:52:20 | 00:00:00 | |
| DK7TD | 2026-09-01 23:21:04 | 48.81183 | 9.57053 | 84° | 86km/h | 11070m | 3.5m/s | -54°C | 35% | 234.9hPa | 2.8V | 18:12:15 | 00:52:09 | 00:00:00 | |
| DK7TD | 2026-09-01 23:20:54 | 48.81161 | 9.56722 | 85° | 89km/h | 11025m | 3.5m/s | -54°C | 35.3% | 236.6hPa | 2.8V | 18:12:15 | 00:51:59 | 00:00:00 | |
| DM0DOS-11 | 2026-09-01 23:20:52 | 48.81156 | 9.56586 | 87° | 89km/h | 11008m | 5.4m/s | -53.9°C | 38% | 237.2hPa | 2.8V | 08:30:00 | 00:51:55 | 00:00:00 | |
| BIOWL1-15 | 2026-09-01 23:20:44 | 48.81148 | 9.56377 | 85° | 93km/h | 10980m | 4.2m/s | -53.7°C | 35.3% | 238.2hPa | 2.8V | 18:12:15 | 00:51:49 | 00:00:00 | |
| DM0DOS-11 | 2026-09-01 23:20:44 | 48.81140 | 9.56237 | 83° | 91km/h | 10963m | 5.2m/s | -53.6°C | 38% | 238.9hPa | 2.8V | 08:30:00 | 00:51:45 | 00:00:00 | |
| DK7TD | 2026-09-01 23:20:43 | 48.81146 | 9.56342 | 85° | 93km/h | 10976m | 4.6m/s | -53.7°C | 35.4% | 238.4hPa | 2.8V | 18:12:15 | 00:51:48 | 00:00:00 | |
| NBG1-10 | 2026-09-01 23:20:43 | 48.81146 | 9.56342 | 86° | 91km/h | 10976m | 4.6m/s | -53.6°C | 38.2% | 238.3hPa | 2.9V | 00:00:00 | 00:51:48 | 00:00:00 | |
| DG9SBQ-11 | 2026-09-01 23:20:42 | 48.81146 | 9.56342 | 86° | 93km/h | 10976m | 4.6m/s | -53.7°C | 30.2% | 238.4hPa | 2.9V | 00:00:00 | 00:00:00 | 00:00:00 | |
| DO3MHA-11 | 2026-09-01 23:20:39 | 48.81136 | 9.56202 | 83° | 89km/h | 10959m | 4.1m/s | -53.5°C | 38.2% | 239.0hPa | 2.9V | 00:00:00 | 00:51:44 | 00:00:00 | |
| DJ8HS-15 | 2026-09-01 23:20:37 | 48.81131 | 9.56133 | 84° | 91km/h | 10950m | 4.2m/s | -53.5°C | 38.3% | 239.3hPa | 2.9V | 00:00:00 | 00:51:42 | 00:00:00 | |
| DL6DJ-15 | 2026-09-01 23:20:36 | 48.81126 | 9.56066 | 83° | 88km/h | 10941m | 5.5m/s | -53.5°C | 29.7% | 239.7hPa | 2.9V | 00:00:00 | 00:00:00 | 00:00:00 | |
| DM0DOS-11 | 2026-09-01 23:20:35 | 48.81114 | 9.55894 | 84° | 91km/h | 10918m | 5.4m/s | -53.3°C | 37.7% | 240.6hPa | 2.9V | 08:30:00 | 00:51:35 | 00:00:00 | |
| BIOWL1-15 | 2026-09-01 23:20:34 | 48.81117 | 9.55929 | 85° | 89km/h | 10923m | 3.6m/s | -53.4°C | 35.2% | 240.4hPa | 2.8V | 18:12:15 | 00:51:36 | 00:00:00 | |
| DK7TD | 2026-09-01 23:20:32 | 48.81119 | 9.55963 | 85° | 89km/h | 10927m | 4.7m/s | -53.4°C | 35.2% | 240.2hPa | 2.8V | 18:12:15 | 00:51:37 | 00:00:00 | |
| DB0UT-7 | 2026-09-01 23:20:32 | 48.81119 | 9.55963 | 85° | 91km/h | 10927m | 4.7m/s | -53.4°C | 37.8% | 240.2hPa | 2.8V | 00:00:00 | 00:00:00 | 00:00:00 | |
| DG9SBQ-11 | 2026-09-01 23:20:31 | 48.81118 | 9.55963 | 86° | 89km/h | 10927m | 4.7m/s | -53.4°C | 29.9% | 240.2hPa | 2.8V | 00:00:00 | 00:00:00 | 00:00:00 | |
| DO3MHA-11 | 2026-09-01 23:20:29 | 48.81112 | 9.55860 | 84° | 91km/h | 10913m | 4.0m/s | -53.3°C | 38.1% | 240.7hPa | 2.8V | 00:00:00 | 00:51:34 | 00:00:00 | |
| DF1GD-15 | 2026-09-01 23:20:26 | 48.81106 | 9.55789 | 85° | 93km/h | 10905m | 3.7m/s | -53.2°C | 30.3% | 241.1hPa | 2.8V | 00:00:00 | 00:00:00 | 00:00:00 | |
| KANTATE | 2026-09-01 23:20:24 | 48.81100 | 9.55719 | 83° | 93km/h | 10896m | 5.1m/s | -53.2°C | 29.9% | 241.4hPa | 2.8V | 00:00:00 | 00:00:00 | 00:00:00 | |
| DM0DOS-11 | 2026-09-01 23:20:23 | 48.81087 | 9.55545 | 83° | 89km/h | 10875m | 5.1m/s | -53°C | 37.5% | 242.2hPa | 2.8V | 08:30:00 | 00:51:25 | 00:00:00 | |
| BIOWL1-15 | 2026-09-01 23:20:23 | 48.81094 | 9.55648 | 83° | 91km/h | 10887m | 5.1m/s | -53.1°C | 35.2% | 241.7hPa | 2.9V | 18:12:15 | 00:51:28 | 00:00:00 | |
| DK7TD | 2026-09-01 23:20:22 | 48.81092 | 9.55613 | 84° | 91km/h | 10883m | 4.3m/s | -53.1°C | 35.3% | 241.9hPa | 2.8V | 18:12:15 | 00:51:27 | 00:00:00 | |
| BIOWL1-15 | 2026-09-01 23:20:13 | 48.81064 | 9.55303 | 81° | 93km/h | 10843m | 4.4m/s | -52.8°C | 35.6% | 243.4hPa | 2.8V | 18:12:15 | 00:51:18 | 00:00:00 | |
| DK7TD | 2026-09-01 23:20:12 | 48.81061 | 9.55267 | 81° | 93km/h | 10838m | 5.2m/s | -52.8°C | 35.7% | 243.6hPa | 2.8V | 18:12:15 | 00:51:17 | 00:00:00 | |
| DK7TD | 2026-09-01 23:20:01 | 48.81024 | 9.54895 | 80° | 89km/h | 10792m | 4m/s | -52.6°C | 36.5% | 245.3hPa | 2.8V | 18:12:15 | 00:51:06 | 00:00:00 | |
| BIOWL1-15 | 2026-09-01 23:19:57 | 48.80993 | 9.54650 | 79° | 89km/h | 10762m | 3.7m/s | -52.4°C | 36.2% | 246.5hPa | 2.8V | 18:12:15 | 00:50:59 | 00:00:00 | |
| DN1GJH-1 | 2026-09-01 23:19:55 | 48.81002 | 9.54719 | 80° | 93km/h | 10770m | 4.7m/s | -52.5°C | 30.9% | 246.1hPa | 2.9V | 00:00:00 | 00:00:00 | 00:00:00 | |
| DM0DOS-11 | 2026-09-01 23:19:54 | 48.80979 | 9.54517 | 80° | 88km/h | 10744m | 5m/s | -52.3°C | 39.2% | 247.1hPa | 2.9V | 08:30:00 | 00:50:55 | 00:00:00 | |
| DK7TD | 2026-09-01 23:19:51 | 48.80982 | 9.54550 | 81° | 88km/h | 10749m | 4m/s | -52.3°C | 36.3% | 246.9hPa | 2.8V | 18:12:15 | 00:50:56 | 00:00:00 | |
| BIOWL1-15 | 2026-09-01 23:19:44 | 48.80956 | 9.54316 | 80° | 88km/h | 10717m | 4.9m/s | -52.1°C | 36.3% | 248.1hPa | 2.9V | 18:12:15 | 00:50:49 | 00:00:00 | |
| DM0DOS-11 | 2026-09-01 23:19:43 | 48.80940 | 9.54189 | 80° | 82km/h | 10699m | 4.2m/s | -51.9°C | 38.7% | 248.8hPa | 2.8V | 08:30:00 | 00:50:45 | 00:00:00 | |
| DK7TD | 2026-09-01 23:19:40 | 48.80940 | 9.54189 | 80° | 82km/h | 10699m | 4.3m/s | -51.9°C | 36.2% | 248.8hPa | 2.8V | 18:12:15 | 00:50:45 | 00:00:00 | |
| DO3MHA-11 | 2026-09-01 23:19:39 | 48.80936 | 9.54158 | 80° | 82km/h | 10695m | 4.8m/s | -51.9°C | 38.5% | 248.9hPa | 2.8V | 00:00:00 | 00:50:44 | 00:00:00 | |
| NBG1-10 | 2026-09-01 23:19:37 | 48.80928 | 9.54097 | 80° | 84km/h | 10687m | 2.5m/s | -51.8°C | 38.9% | 249.3hPa | 2.8V | 00:00:00 | 00:50:42 | 00:00:00 | |
| DF7PN | 2026-09-01 23:19:35 | 48.80920 | 9.54003 | 84° | 82km/h | 10674m | 3.6m/s | -51.7°C | 31.1% | 249.8hPa | 2.8V | 00:00:00 | 00:00:00 | 00:00:00 | |
| DL6DJ-15 | 2026-09-01 23:19:34 | 48.80918 | 9.53971 | 84° | 82km/h | 10670m | 4.8m/s | -51.7°C | 31.1% | 249.9hPa | 2.8V | 00:00:00 | 00:00:00 | 00:00:00 | |
| DM0DOS-11 | 2026-09-01 23:19:33 | 48.80910 | 9.53876 | 82° | 86km/h | 10657m | 5m/s | -51.6°C | 38.7% | 250.4hPa | 2.8V | 08:30:00 | 00:50:35 | 00:00:00 | |
| BIOWL1-15 | 2026-09-01 23:19:30 | 48.80904 | 9.53810 | 81° | 86km/h | 10649m | 4.2m/s | -51.5°C | 36.3% | 250.7hPa | 2.9V | 18:12:15 | 00:50:33 | 00:00:00 | |
| DK7TD | 2026-09-01 23:19:29 | 48.80907 | 9.53843 | 82° | 86km/h | 10653m | 3.4m/s | -51.6°C | 36.4% | 250.6hPa | 2.8V | 18:12:15 | 00:50:34 | 00:00:00 | |
| DO3MHA-11 | 2026-09-01 23:19:29 | 48.80907 | 9.53843 | 83° | 86km/h | 10653m | 3.3m/s | -51.5°C | 39.0% | 250.6hPa | 2.8V | 00:00:00 | 00:50:34 | 00:00:00 | |
| DG9SBQ-11 | 2026-09-01 23:19:26 | 48.80901 | 9.53778 | 80° | 86km/h | 10645m | 4.5m/s | -51.5°C | 31.2% | 251.0hPa | 2.8V | 00:00:00 | 00:00:00 | 00:00:00 | |
| DM0DOS-11 | 2026-09-01 23:19:23 | 48.80875 | 9.53553 | 83° | 84km/h | 10614m | 5.7m/s | -51.3°C | 38.5% | 252.1hPa | 2.8V | 08:30:00 | 00:50:25 | 00:00:00 | |
| DK7TD | 2026-09-01 23:19:19 | 48.80873 | 9.53521 | 85° | 82km/h | 10609m | 4.6m/s | -51.3°C | 36.4% | 252.3hPa | 2.8V | 18:12:15 | 00:50:24 | 00:00:00 | |
| BIOWL1-15 | 2026-09-01 23:19:18 | 48.80849 | 9.53263 | 81° | 88km/h | 10573m | 7.1m/s | -51.1°C | 37.5% | 253.7hPa | 2.9V | 18:12:15 | 00:50:16 | 00:00:00 | |
| DJ8HS-15 | 2026-09-01 23:19:17 | 48.80869 | 9.53459 | 84° | 86km/h | 10601m | 4.9m/s | -51.2°C | 39.2% | 252.6hPa | 2.9V | 00:00:00 | 00:50:22 | 00:00:00 | |
| DG9SBQ-11 | 2026-09-01 23:19:15 | 48.80867 | 9.53428 | 82° | 82km/h | 10596m | 4.0m/s | -51.2°C | 32.1% | 252.8hPa | 2.8V | 00:00:00 | 00:00:00 | 00:00:00 | |
| DM0DOS-11 | 2026-09-01 23:19:13 | 48.80846 | 9.53231 | 80° | 84km/h | 10567m | 5.3m/s | -51°C | 40.5% | 253.9hPa | 2.8V | 08:30:00 | 00:50:15 | 00:00:00 | |
| DK7TD | 2026-09-01 23:19:09 | 48.80842 | 9.53200 | 81° | 80km/h | 10562m | 4.7m/s | -51°C | 37.8% | 254.1hPa | 2.8V | 18:12:15 | 00:50:14 | 00:00:00 | |
| DO3MHA-12 | 2026-09-01 23:19:09 | 48.80842 | 9.53199 | 81° | 88km/h | 10562m | 4.7m/s | -51.0°C | 40.3% | 254.0hPa | 2.7V | 00:00:00 | 00:50:14 | 00:00:00 | |
| DG9SBQ-11 | 2026-09-01 23:19:05 | 48.80836 | 9.53106 | 89° | 88km/h | 10547m | 6.2m/s | -50.9°C | 32.7% | 254.8hPa | 2.8V | 00:00:00 | 00:00:00 | 00:00:00 | |
| DF1GD-15 | 2026-09-01 23:19:04 | 48.80834 | 9.53036 | 90° | 93km/h | 10534m | 5.2m/s | -50.9°C | 32.4% | 255.2hPa | 2.8V | 00:00:00 | 00:00:00 | 00:00:00 | |
| DM0DOS-11 | 2026-09-01 23:19:03 | 48.80830 | 9.52894 | 84° | 88km/h | 10513m | 7.2m/s | -50.8°C | 40.6% | 256.1hPa | 2.8V | 08:30:00 | 00:50:05 | 00:00:00 | |
| DK7TD | 2026-09-01 23:18:58 | 48.80824 | 9.52831 | 79° | 80km/h | 10503m | 4.6m/s | -50.7°C | 38% | 256.4hPa | 2.9V | 18:12:15 | 00:50:03 | 00:00:00 | |
| BIOWL1-15 | 2026-09-01 23:18:54 | 48.80797 | 9.52638 | 81° | 91km/h | 10470m | 5.6m/s | -50.7°C | 37.7% | 257.8hPa | 2.9V | 18:12:15 | 00:49:57 | 00:00:00 | |
| DM0DOS-11 | 2026-09-01 23:18:53 | 48.80790 | 9.52534 | 86° | 89km/h | 10454m | 4.9m/s | -50.6°C | 39.7% | 258.4hPa | 2.8V | 08:30:00 | 00:49:54 | 00:00:00 | |
| DK7TD | 2026-09-01 23:18:48 | 48.80788 | 9.52501 | 86° | 88km/h | 10449m | 6.6m/s | -50.5°C | 37.2% | 258.6hPa | 2.9V | 18:12:15 | 00:49:53 | 00:00:00 | |
| DG9SBQ-11 | 2026-09-01 23:18:44 | 48.80782 | 9.52399 | 85° | 89km/h | 10433m | 5.0m/s | -50.4°C | 31.2% | 259.3hPa | 2.8V | 00:00:00 | 00:00:00 | 00:00:00 | |
| DM0DOS-11 | 2026-09-01 23:18:43 | 48.80764 | 9.52189 | 83° | 91km/h | 10403m | 5.4m/s | -50.2°C | 38% | 260.4hPa | 2.8V | 08:30:00 | 00:49:44 | 00:00:00 | |
| BIOWL1-15 | 2026-09-01 23:18:41 | 48.80770 | 9.52259 | 81° | 95km/h | 10412m | 5.1m/s | -50.2°C | 36.1% | 260.1hPa | 2.9V | 18:12:15 | 00:49:46 | 00:00:00 | |
| DK7TD | 2026-09-01 23:18:37 | 48.80760 | 9.52121 | 86° | 88km/h | 10395m | 3.7m/s | -50.1°C | 35.6% | 260.8hPa | 2.9V | 18:12:15 | 00:49:42 | 00:00:00 | |
| DJ8HS-15 | 2026-09-01 23:18:37 | 48.80760 | 9.52121 | 86° | 91km/h | 10395m | 3.6m/s | -50.0°C | 37.6% | 260.8hPa | 2.8V | 00:00:00 | 00:49:42 | 00:00:00 | |
| DG9SBQ-11 | 2026-09-01 23:18:35 | 48.80756 | 9.52052 | 86° | 91km/h | 10386m | 4.7m/s | -50.0°C | 30.4% | 261.1hPa | 2.8V | 00:00:00 | 00:00:00 | 00:00:00 | |
| DM0DOS-11 | 2026-09-01 23:18:34 | 48.80736 | 9.51838 | 81° | 97km/h | 10361m | 3.6m/s | -49.8°C | 36.9% | 262.2hPa | 2.8V | 08:30:00 | 00:49:34 | 00:00:00 | |
| BIOWL1-15 | 2026-09-01 23:18:33 | 48.80732 | 9.51801 | 82° | 97km/h | 10357m | 2.9m/s | -49.8°C | 34.7% | 262.3hPa | 2.9V | 18:12:15 | 00:49:33 | 00:00:00 | |
| DK7TD | 2026-09-01 23:18:26 | 48.80726 | 9.51729 | 83° | 91km/h | 10349m | 3.8m/s | -49.7°C | 34.5% | 262.6hPa | 2.9V | 18:12:15 | 00:49:31 | 00:00:00 | |
| DM0DOS-11 | 2026-09-01 23:18:23 | 48.80712 | 9.51488 | 82° | 89km/h | 10321m | 3m/s | -49.5°C | 36.2% | 263.8hPa | 2.8V | 08:30:00 | 00:49:24 | 00:00:00 | |
| DK7TD | 2026-09-01 23:18:15 | 48.80696 | 9.51348 | 80° | 97km/h | 10305m | 4.6m/s | -49.4°C | 34.6% | 264.5hPa | 2.8V | 18:12:15 | 00:49:20 | 00:00:00 | |
| DN1GJH-1 | 2026-09-01 23:18:12 | 48.80688 | 9.51276 | 82° | 93km/h | 10296m | 4.7m/s | -49.4°C | 29.8% | 264.8hPa | 2.9V | 00:00:00 | 00:00:00 | 00:00:00 | |
| DM0DOS-11 | 2026-09-01 23:18:11 | 48.80664 | 9.51029 | 80° | 93km/h | 10267m | 4.2m/s | -49.2°C | 35.8% | 266hPa | 2.9V | 08:30:00 | 00:49:11 | 00:00:00 | |
| BIOWL1-15 | 2026-09-01 23:18:06 | 48.80664 | 9.51029 | 80° | 95km/h | 10267m | 4.2m/s | -49.2°C | 34.1% | 266hPa | 2.9V | 18:12:15 | 00:49:11 | 00:00:00 | |
| DK7TD | 2026-09-01 23:18:04 | 48.80655 | 9.50957 | 78° | 97km/h | 10257m | 4m/s | -49.2°C | 34% | 266.4hPa | 2.8V | 18:12:15 | 00:49:09 | 00:00:00 | |
| BIOWL1-15 | 2026-09-01 23:17:55 | 48.80613 | 9.50637 | 79° | 99km/h | 10220m | 5.3m/s | -48.9°C | 32.8% | 267.8hPa | 2.9V | 18:12:15 | 00:49:00 | 00:00:00 | |
| DK7TD | 2026-09-01 23:17:54 | 48.80608 | 9.50600 | 78° | 99km/h | 10216m | 3.5m/s | -48.8°C | 32.7% | 268.1hPa | 2.8V | 18:12:15 | 00:48:59 | 00:00:00 | |
| DG9SBQ-11 | 2026-09-01 23:17:53 | 48.80608 | 9.50600 | 79° | 99km/h | 10216m | 3.5m/s | -48.8°C | 27.9% | 268.1hPa | 2.9V | 00:00:00 | 00:00:00 | 00:00:00 | |
| DN1GJH-1 | 2026-09-01 23:17:52 | 48.80603 | 9.50564 | 78° | 97km/h | 10212m | 5.3m/s | -48.8°C | 27.8% | 268.2hPa | 2.9V | 00:00:00 | 00:00:00 | 00:00:00 | |
| DB0NH | 2026-09-01 23:17:51 | 48.80592 | 9.50493 | 76° | 88km/h | 10202m | 3.5m/s | -48.7°C | 34.9% | 268.5hPa | 2.9V | 00:00:00 | 00:48:56 | 00:00:00 | |
| DO3MHA-11 | 2026-09-01 23:17:49 | 48.80579 | 9.50427 | 72° | 91km/h | 10193m | 4.3m/s | -48.7°C | 35.5% | 269.0hPa | 2.9V | 00:00:00 | 00:48:54 | 00:00:00 | |
| DM0DOS-11 | 2026-09-01 23:17:48 | 48.80551 | 9.50225 | 82° | 93km/h | 10163m | 6m/s | -48.6°C | 33.2% | 270hPa | 2.8V | 08:30:00 | 00:48:48 | 00:00:00 | |
| DK7TD | 2026-09-01 23:17:44 | 48.80553 | 9.50260 | 83° | 93km/h | 10169m | 5.8m/s | -48.6°C | 32.5% | 269.8hPa | 2.9V | 18:12:15 | 00:48:49 | 00:00:00 | |
| BIOWL1-15 | 2026-09-01 23:17:34 | 48.80494 | 9.49869 | 78° | 73km/h | 10103m | 5m/s | -48.2°C | 30.7% | 272.6hPa | 2.8V | 18:12:15 | 00:48:37 | 00:00:00 | |
| DK7TD | 2026-09-01 23:17:33 | 48.80498 | 9.49896 | 76° | 73km/h | 10107m | 3.1m/s | -48.2°C | 30.8% | 272.4hPa | 2.9V | 18:12:15 | 00:48:38 | 00:00:00 | |
| DB0UT-7 | 2026-09-01 23:17:32 | 48.80494 | 9.49869 | 78° | 78km/h | 10103m | 5.0m/s | -48.1°C | 32.4% | 272.5hPa | 2.9V | 00:00:00 | 00:00:00 | 00:00:00 | |
| DB0ND-19 | 2026-09-01 23:17:31 | 48.80490 | 9.49841 | 80° | 73km/h | 10098m | 5.5m/s | -48.2°C | 26.3% | 272.8hPa | 2.9V | 00:00:00 | 00:00:00 | 00:00:00 | |
| DL6DJ-15 | 2026-09-01 23:17:30 | 48.80484 | 9.49781 | 81° | 84km/h | 10087m | 4.6m/s | -48.1°C | 26.4% | 273.2hPa | 2.9V | 00:00:00 | 00:00:00 | 00:00:00 | |
| DO3MHA-12 | 2026-09-01 23:17:29 | 48.80484 | 9.49781 | 82° | 86km/h | 10087m | 4.5m/s | -48.0°C | 32.4% | 273.2hPa | 2.9V | 00:00:00 | 00:48:34 | 00:00:00 | |
| AZAK | 2026-09-01 23:17:28 | 48.80484 | 9.49781 | 82° | 84km/h | 10087m | 4.6m/s | -48.1°C | 26.4% | 273.2hPa | 2.9V | 00:00:00 | 00:00:00 | 00:00:00 | |
| DG9SBQ-11 | 2026-09-01 23:17:26 | 48.80477 | 9.49715 | 82° | 91km/h | 10079m | 4.9m/s | -48.0°C | 25.9% | 273.5hPa | 2.9V | 00:00:00 | 00:00:00 | 00:00:00 | |
| DM0DOS-11 | 2026-09-01 23:17:25 | 48.80463 | 9.49615 | 75° | 86km/h | 10066m | 5.3m/s | -47.9°C | 31.7% | 274.2hPa | 2.9V | 08:30:00 | 00:48:29 | 00:00:00 | |
| DK7TD | 2026-09-01 23:17:23 | 48.80458 | 9.49584 | 75° | 86km/h | 10060m | 7.1m/s | -47.9°C | 30.2% | 274.4hPa | 2.9V | 18:12:15 | 00:48:28 | 00:00:00 | |
| BIOWL1-15 | 2026-09-01 23:17:22 | 48.80452 | 9.49552 | 73° | 86km/h | 10053m | 6.9m/s | -47.8°C | 30% | 274.6hPa | 2.9V | 18:12:15 | 00:48:27 | 00:00:00 | |
| DB0NH | 2026-09-01 23:17:21 | 48.80445 | 9.49521 | 72° | 77km/h | 10047m | 5.8m/s | -47.7°C | 31.1% | 274.8hPa | 2.9V | 00:00:00 | 00:48:26 | 00:00:00 | |
| DF1GD-15 | 2026-09-01 23:17:20 | 48.80445 | 9.49521 | 73° | 84km/h | 10047m | 5.8m/s | -47.8°C | 25.3% | 274.9hPa | 2.9V | 00:00:00 | 00:00:00 | 00:00:00 | |
| DM0DOS-11 | 2026-09-01 23:17:19 | 48.80408 | 9.49317 | 76° | 71km/h | 10007m | 5.9m/s | -47.5°C | 30.7% | 276.6hPa | 2.9V | 08:30:00 | 00:48:19 | 00:00:00 | |
| DK7TD | 2026-09-01 23:17:12 | 48.80400 | 9.49266 | 77° | 68km/h | 9997m | 3m/s | -47.4°C | 29.6% | 277.1hPa | 2.9V | 18:12:15 | 00:48:17 | 00:00:00 | |
| DN1GJH-1 | 2026-09-01 23:17:11 | 48.80400 | 9.49266 | 77° | 68km/h | 9997m | 3.0m/s | -47.4°C | 25.1% | 277.1hPa | 2.7V | 00:00:00 | 00:00:00 | 00:00:00 | |
| DG9SBQ-11 | 2026-09-01 23:17:10 | 48.80392 | 9.49213 | 77° | 75km/h | 9988m | 6.2m/s | -47.3°C | 24.9% | 277.5hPa | 2.7V | 00:00:00 | 00:00:00 | 00:00:00 | |
| DO3MHA-12 | 2026-09-01 23:17:09 | 48.80387 | 9.49184 | 77° | 77km/h | 9982m | 6.2m/s | -47.2°C | 30.3% | 277.7hPa | 2.7V | 00:00:00 | 00:48:14 | 08:30:00 | |
| DH7VM-15 | 2026-09-01 23:17:08 | 48.80387 | 9.49184 | 78° | 78km/h | 9982m | 6.2m/s | -47.3°C | 24.7% | 277.7hPa | 2.9V | 00:00:00 | 00:00:00 | 00:00:00 | |
| DG9SBQ-11 | 2026-09-01 23:17:04 | 48.80367 | 9.49066 | 76° | 75km/h | 9958m | 5.5m/s | -47.1°C | 24.8% | 278.6hPa | 2.9V | 00:00:00 | 00:00:00 | 00:00:00 | |
| Es werden nur die letzten 3500 von 3839 Frames angezeigt. GPX/KML und Diagramme bleiben verfügbar. | |||||||||||||||